<?xml version="1.0" encoding="UTF-8"?>
<TrainingCenterDatabase xmlns="http://www.garmin.com/xmlschemas/TrainingCenterDatabase/v2" xmlns:xsi="http://www.w3.org/2001/XMLSchema-instance" xsi:schemaLocation="http://www.garmin.com/xmlschemas/TrainingCenterDatabase/v2 http://www.garmin.com/xmlschemas/TrainingCenterDatabasev2.xsd">
  <Activities>
    <Activity Sport="Other">
      <Id>2022-06-16T04:55:47.000Z</Id>
      <Lap StartTime="2022-06-16T04:55:47.000Z">
        <TotalTimeSeconds>38198</TotalTimeSeconds>
        <DistanceMeters>41950</DistanceMeters>
        <Track>
          <Trackpoint>
            <Time>2022-06-16T04:55:47.000Z</Time>
            <Position>
              <LatitudeDegrees>36.7649579979479312896728515625</LatitudeDegrees>
              <LongitudeDegrees>-4.42002321593463420867919921875</LongitudeDegrees>
            </Position>
            <AltitudeMeters>118.40000152587890625</AltitudeMeters>
            <DistanceMeters>0</DistanceMeters>
          </Trackpoint>
          <Trackpoint>
            <Time>2022-06-16T04:55:51.000Z</Time>
            <Position>
              <LatitudeDegrees>36.7650149948894977569580078125</LatitudeDegrees>
              <LongitudeDegrees>-4.42000628449022769927978515625</LongitudeDegrees>
            </Position>
            <AltitudeMeters>118.59999847412109375</AltitudeMeters>
            <DistanceMeters>6.520245386344</DistanceMeters>
          </Trackpoint>
          <Trackpoint>
            <Time>2022-06-16T04:55:59.000Z</Time>
            <Position>
              <LatitudeDegrees>36.76510266959667205810546875</LatitudeDegrees>
              <LongitudeDegrees>-4.41996873356401920318603515625</LongitudeDegrees>
            </Position>
            <AltitudeMeters>119.1999969482421875</AltitudeMeters>
            <DistanceMeters>16.836663416284</DistanceMeters>
          </Trackpoint>
          <Trackpoint>
            <Time>2022-06-16T04:56:09.000Z</Time>
            <Position>
              <LatitudeDegrees>36.76518917083740234375</LatitudeDegrees>
              <LongitudeDegrees>-4.41990561783313751220703125</LongitudeDegrees>
            </Position>
            <AltitudeMeters>119.40000152587890625</AltitudeMeters>
            <DistanceMeters>27.988444116521</DistanceMeters>
          </Trackpoint>
          <Trackpoint>
            <Time>2022-06-16T04:56:13.000Z</Time>
            <Position>
              <LatitudeDegrees>36.765226386487483978271484375</LatitudeDegrees>
              <LongitudeDegrees>-4.41988005302846431732177734375</LongitudeDegrees>
            </Position>
            <AltitudeMeters>119.59999847412109375</AltitudeMeters>
            <DistanceMeters>32.716918423867</DistanceMeters>
          </Trackpoint>
          <Trackpoint>
            <Time>2022-06-16T04:56:19.000Z</Time>
            <Position>
              <LatitudeDegrees>36.76528279669582843780517578125</LatitudeDegrees>
              <LongitudeDegrees>-4.41982959397137165069580078125</LongitudeDegrees>
            </Position>
            <AltitudeMeters>119.59999847412109375</AltitudeMeters>
            <DistanceMeters>40.441602568973</DistanceMeters>
          </Trackpoint>
          <Trackpoint>
            <Time>2022-06-16T04:56:29.000Z</Time>
            <Position>
              <LatitudeDegrees>36.7653831280767917633056640625</LatitudeDegrees>
              <LongitudeDegrees>-4.419751726090908050537109375</LongitudeDegrees>
            </Position>
            <AltitudeMeters>120</AltitudeMeters>
            <DistanceMeters>53.591047566725</DistanceMeters>
          </Trackpoint>
          <Trackpoint>
            <Time>2022-06-16T04:56:35.000Z</Time>
            <Position>
              <LatitudeDegrees>36.76541707478463649749755859375</LatitudeDegrees>
              <LongitudeDegrees>-4.41969866864383220672607421875</LongitudeDegrees>
            </Position>
            <AltitudeMeters>120</AltitudeMeters>
            <DistanceMeters>59.644480494376</DistanceMeters>
          </Trackpoint>
          <Trackpoint>
            <Time>2022-06-16T04:56:37.000Z</Time>
            <Position>
              <LatitudeDegrees>36.76544154994189739227294921875</LatitudeDegrees>
              <LongitudeDegrees>-4.41968056373298168182373046875</LongitudeDegrees>
            </Position>
            <AltitudeMeters>120</AltitudeMeters>
            <DistanceMeters>62.810453465326</DistanceMeters>
          </Trackpoint>
          <Trackpoint>
            <Time>2022-06-16T04:56:44.000Z</Time>
            <Position>
              <LatitudeDegrees>36.76549050025641918182373046875</LatitudeDegrees>
              <LongitudeDegrees>-4.41963798366487026214599609375</LongitudeDegrees>
            </Position>
            <AltitudeMeters>120.40000152587890625</AltitudeMeters>
            <DistanceMeters>69.450094509795</DistanceMeters>
          </Trackpoint>
          <Trackpoint>
            <Time>2022-06-16T04:56:49.000Z</Time>
            <Position>
              <LatitudeDegrees>36.76554012112319469451904296875</LatitudeDegrees>
              <LongitudeDegrees>-4.41959087736904621124267578125</LongitudeDegrees>
            </Position>
            <AltitudeMeters>120.59999847412109375</AltitudeMeters>
            <DistanceMeters>76.387695496179</DistanceMeters>
          </Trackpoint>
          <Trackpoint>
            <Time>2022-06-16T04:56:59.000Z</Time>
            <Position>
              <LatitudeDegrees>36.7656510137021541595458984375</LatitudeDegrees>
              <LongitudeDegrees>-4.41949197091162204742431640625</LongitudeDegrees>
            </Position>
            <AltitudeMeters>121</AltitudeMeters>
            <DistanceMeters>91.556888221731</DistanceMeters>
          </Trackpoint>
          <Trackpoint>
            <Time>2022-06-16T04:57:09.000Z</Time>
            <Position>
              <LatitudeDegrees>36.76576316356658935546875</LatitudeDegrees>
              <LongitudeDegrees>-4.4193881191313266754150390625</LongitudeDegrees>
            </Position>
            <AltitudeMeters>121.1999969482421875</AltitudeMeters>
            <DistanceMeters>107.09891334318</DistanceMeters>
          </Trackpoint>
          <Trackpoint>
            <Time>2022-06-16T04:57:19.000Z</Time>
            <Position>
              <LatitudeDegrees>36.765854693949222564697265625</LatitudeDegrees>
              <LongitudeDegrees>-4.41928736865520477294921875</LongitudeDegrees>
            </Position>
            <AltitudeMeters>121.40000152587890625</AltitudeMeters>
            <DistanceMeters>120.68108664769</DistanceMeters>
          </Trackpoint>
          <Trackpoint>
            <Time>2022-06-16T04:57:29.000Z</Time>
            <Position>
              <LatitudeDegrees>36.76592904143035411834716796875</LatitudeDegrees>
              <LongitudeDegrees>-4.419167339801788330078125</LongitudeDegrees>
            </Position>
            <AltitudeMeters>121.40000152587890625</AltitudeMeters>
            <DistanceMeters>134.208966349</DistanceMeters>
          </Trackpoint>
          <Trackpoint>
            <Time>2022-06-16T04:57:39.000Z</Time>
            <Position>
              <LatitudeDegrees>36.7660332284867763519287109375</LatitudeDegrees>
              <LongitudeDegrees>-4.4190189801156520843505859375</LongitudeDegrees>
            </Position>
            <AltitudeMeters>122</AltitudeMeters>
            <DistanceMeters>151.79994868603</DistanceMeters>
          </Trackpoint>
          <Trackpoint>
            <Time>2022-06-16T04:57:45.000Z</Time>
            <Position>
              <LatitudeDegrees>36.766069270670413970947265625</LatitudeDegrees>
              <LongitudeDegrees>-4.41897145472466945648193359375</LongitudeDegrees>
            </Position>
            <AltitudeMeters>122.1999969482421875</AltitudeMeters>
            <DistanceMeters>157.63539367936</DistanceMeters>
          </Trackpoint>
          <Trackpoint>
            <Time>2022-06-16T04:57:49.000Z</Time>
            <Position>
              <LatitudeDegrees>36.7661140300333499908447265625</LatitudeDegrees>
              <LongitudeDegrees>-4.4189267791807651519775390625</LongitudeDegrees>
            </Position>
            <AltitudeMeters>122.40000152587890625</AltitudeMeters>
            <DistanceMeters>164.01351992302</DistanceMeters>
          </Trackpoint>
          <Trackpoint>
            <Time>2022-06-16T04:57:59.000Z</Time>
            <Position>
              <LatitudeDegrees>36.76617245189845561981201171875</LatitudeDegrees>
              <LongitudeDegrees>-4.4188245199620723724365234375</LongitudeDegrees>
            </Position>
            <AltitudeMeters>123</AltitudeMeters>
            <DistanceMeters>175.21216723658</DistanceMeters>
          </Trackpoint>
          <Trackpoint>
            <Time>2022-06-16T04:58:00.000Z</Time>
            <Position>
              <LatitudeDegrees>36.76618435420095920562744140625</LatitudeDegrees>
              <LongitudeDegrees>-4.4188030622899532318115234375</LongitudeDegrees>
            </Position>
            <AltitudeMeters>123.1999969482421875</AltitudeMeters>
            <DistanceMeters>177.53983685798</DistanceMeters>
          </Trackpoint>
          <Trackpoint>
            <Time>2022-06-16T04:58:09.000Z</Time>
            <Position>
              <LatitudeDegrees>36.7662467993795871734619140625</LatitudeDegrees>
              <LongitudeDegrees>-4.41870809532701969146728515625</LongitudeDegrees>
            </Position>
            <AltitudeMeters>124</AltitudeMeters>
            <DistanceMeters>188.49431931329</DistanceMeters>
          </Trackpoint>
          <Trackpoint>
            <Time>2022-06-16T04:58:17.000Z</Time>
            <Position>
              <LatitudeDegrees>36.7663339711725711822509765625</LatitudeDegrees>
              <LongitudeDegrees>-4.41859862767159938812255859375</LongitudeDegrees>
            </Position>
            <AltitudeMeters>125</AltitudeMeters>
            <DistanceMeters>202.25647115578</DistanceMeters>
          </Trackpoint>
          <Trackpoint>
            <Time>2022-06-16T04:58:19.000Z</Time>
            <Position>
              <LatitudeDegrees>36.7663527466356754302978515625</LatitudeDegrees>
              <LongitudeDegrees>-4.41856987774372100830078125</LongitudeDegrees>
            </Position>
            <AltitudeMeters>125.1999969482421875</AltitudeMeters>
            <DistanceMeters>205.5647112695</DistanceMeters>
          </Trackpoint>
          <Trackpoint>
            <Time>2022-06-16T04:58:29.000Z</Time>
            <Position>
              <LatitudeDegrees>36.76641452126204967498779296875</LatitudeDegrees>
              <LongitudeDegrees>-4.41848563961684703826904296875</LongitudeDegrees>
            </Position>
            <AltitudeMeters>125.59999847412109375</AltitudeMeters>
            <DistanceMeters>215.74721281527</DistanceMeters>
          </Trackpoint>
          <Trackpoint>
            <Time>2022-06-16T04:58:39.000Z</Time>
            <Position>
              <LatitudeDegrees>36.766506470739841461181640625</LatitudeDegrees>
              <LongitudeDegrees>-4.4183854758739471435546875</LongitudeDegrees>
            </Position>
            <AltitudeMeters>127</AltitudeMeters>
            <DistanceMeters>229.33005095118</DistanceMeters>
          </Trackpoint>
          <Trackpoint>
            <Time>2022-06-16T04:58:45.000Z</Time>
            <Position>
              <LatitudeDegrees>36.766558773815631866455078125</LatitudeDegrees>
              <LongitudeDegrees>-4.4183205999433994293212890625</LongitudeDegrees>
            </Position>
            <AltitudeMeters>128</AltitudeMeters>
            <DistanceMeters>237.53653071531</DistanceMeters>
          </Trackpoint>
          <Trackpoint>
            <Time>2022-06-16T04:58:46.000Z</Time>
            <Position>
              <LatitudeDegrees>36.76656589843332767486572265625</LatitudeDegrees>
              <LongitudeDegrees>-4.41830509342253208160400390625</LongitudeDegrees>
            </Position>
            <AltitudeMeters>128.1999969482421875</AltitudeMeters>
            <DistanceMeters>239.13230061013</DistanceMeters>
          </Trackpoint>
          <Trackpoint>
            <Time>2022-06-16T04:58:49.000Z</Time>
            <Position>
              <LatitudeDegrees>36.7665906250476837158203125</LatitudeDegrees>
              <LongitudeDegrees>-4.4182669557631015777587890625</LongitudeDegrees>
            </Position>
            <AltitudeMeters>129</AltitudeMeters>
            <DistanceMeters>243.50559478138</DistanceMeters>
          </Trackpoint>
          <Trackpoint>
            <Time>2022-06-16T04:58:59.000Z</Time>
            <Position>
              <LatitudeDegrees>36.76662205718457698822021484375</LatitudeDegrees>
              <LongitudeDegrees>-4.41815472207963466644287109375</LongitudeDegrees>
            </Position>
            <AltitudeMeters>130.600006103515625</AltitudeMeters>
            <DistanceMeters>254.10650518308</DistanceMeters>
          </Trackpoint>
          <Trackpoint>
            <Time>2022-06-16T04:59:06.000Z</Time>
            <Position>
              <LatitudeDegrees>36.76659842021763324737548828125</LatitudeDegrees>
              <LongitudeDegrees>-4.41805782727897167205810546875</LongitudeDegrees>
            </Position>
            <AltitudeMeters>130.399993896484375</AltitudeMeters>
            <DistanceMeters>263.13754335385</DistanceMeters>
          </Trackpoint>
          <Trackpoint>
            <Time>2022-06-16T04:59:09.000Z</Time>
            <Position>
              <LatitudeDegrees>36.7666005156934261322021484375</LatitudeDegrees>
              <LongitudeDegrees>-4.41802312619984149932861328125</LongitudeDegrees>
            </Position>
            <AltitudeMeters>130.600006103515625</AltitudeMeters>
            <DistanceMeters>266.24013283511</DistanceMeters>
          </Trackpoint>
          <Trackpoint>
            <Time>2022-06-16T04:59:19.000Z</Time>
            <Position>
              <LatitudeDegrees>36.7666015215218067169189453125</LatitudeDegrees>
              <LongitudeDegrees>-4.41786705516278743743896484375</LongitudeDegrees>
            </Position>
            <AltitudeMeters>133</AltitudeMeters>
            <DistanceMeters>280.15595078954</DistanceMeters>
          </Trackpoint>
          <Trackpoint>
            <Time>2022-06-16T04:59:24.000Z</Time>
            <Position>
              <LatitudeDegrees>36.766609735786914825439453125</LatitudeDegrees>
              <LongitudeDegrees>-4.4177865050733089447021484375</LongitudeDegrees>
            </Position>
            <AltitudeMeters>133.8000030517578125</AltitudeMeters>
            <DistanceMeters>287.39546483958</DistanceMeters>
          </Trackpoint>
          <Trackpoint>
            <Time>2022-06-16T04:59:29.000Z</Time>
            <Position>
              <LatitudeDegrees>36.766605041921138763427734375</LatitudeDegrees>
              <LongitudeDegrees>-4.41770763136446475982666015625</LongitudeDegrees>
            </Position>
            <AltitudeMeters>134.1999969482421875</AltitudeMeters>
            <DistanceMeters>294.44731785682</DistanceMeters>
          </Trackpoint>
          <Trackpoint>
            <Time>2022-06-16T04:59:39.000Z</Time>
            <Position>
              <LatitudeDegrees>36.7665716819465160369873046875</LatitudeDegrees>
              <LongitudeDegrees>-4.41755189560353755950927734375</LongitudeDegrees>
            </Position>
            <AltitudeMeters>134.8000030517578125</AltitudeMeters>
            <DistanceMeters>308.82087409602</DistanceMeters>
          </Trackpoint>
          <Trackpoint>
            <Time>2022-06-16T04:59:48.000Z</Time>
            <Position>
              <LatitudeDegrees>36.766570843756198883056640625</LatitudeDegrees>
              <LongitudeDegrees>-4.41742750816047191619873046875</LongitudeDegrees>
            </Position>
            <AltitudeMeters>136</AltitudeMeters>
            <DistanceMeters>319.9117577993</DistanceMeters>
          </Trackpoint>
          <Trackpoint>
            <Time>2022-06-16T04:59:49.000Z</Time>
            <Position>
              <LatitudeDegrees>36.76657629199326038360595703125</LatitudeDegrees>
              <LongitudeDegrees>-4.4174118340015411376953125</LongitudeDegrees>
            </Position>
            <AltitudeMeters>136.399993896484375</AltitudeMeters>
            <DistanceMeters>321.4351519197</DistanceMeters>
          </Trackpoint>
          <Trackpoint>
            <Time>2022-06-16T04:59:55.000Z</Time>
            <Position>
              <LatitudeDegrees>36.7666055448353290557861328125</LatitudeDegrees>
              <LongitudeDegrees>-4.41733145155012607574462890625</LongitudeDegrees>
            </Position>
            <AltitudeMeters>137.600006103515625</AltitudeMeters>
            <DistanceMeters>329.30689788603</DistanceMeters>
          </Trackpoint>
          <Trackpoint>
            <Time>2022-06-16T04:59:59.000Z</Time>
            <Position>
              <LatitudeDegrees>36.766629517078399658203125</LatitudeDegrees>
              <LongitudeDegrees>-4.41729054786264896392822265625</LongitudeDegrees>
            </Position>
            <AltitudeMeters>138.600006103515625</AltitudeMeters>
            <DistanceMeters>333.82541565625</DistanceMeters>
          </Trackpoint>
          <Trackpoint>
            <Time>2022-06-16T05:00:09.000Z</Time>
            <Position>
              <LatitudeDegrees>36.76664485596120357513427734375</LatitudeDegrees>
              <LongitudeDegrees>-4.41716129891574382781982421875</LongitudeDegrees>
            </Position>
            <AltitudeMeters>139.600006103515625</AltitudeMeters>
            <DistanceMeters>345.47539629798</DistanceMeters>
          </Trackpoint>
          <Trackpoint>
            <Time>2022-06-16T05:00:19.000Z</Time>
            <Position>
              <LatitudeDegrees>36.76666379906237125396728515625</LatitudeDegrees>
              <LongitudeDegrees>-4.41703406162559986114501953125</LongitudeDegrees>
            </Position>
            <AltitudeMeters>140.8000030517578125</AltitudeMeters>
            <DistanceMeters>357.0143943986</DistanceMeters>
          </Trackpoint>
          <Trackpoint>
            <Time>2022-06-16T05:00:28.000Z</Time>
            <Position>
              <LatitudeDegrees>36.76668022759258747100830078125</LatitudeDegrees>
              <LongitudeDegrees>-4.41692409105598926544189453125</LongitudeDegrees>
            </Position>
            <AltitudeMeters>141.8000030517578125</AltitudeMeters>
            <DistanceMeters>366.98903134736</DistanceMeters>
          </Trackpoint>
          <Trackpoint>
            <Time>2022-06-16T05:00:29.000Z</Time>
            <Position>
              <LatitudeDegrees>36.76668710075318813323974609375</LatitudeDegrees>
              <LongitudeDegrees>-4.41691235639154911041259765625</LongitudeDegrees>
            </Position>
            <AltitudeMeters>142</AltitudeMeters>
            <DistanceMeters>368.28502294401</DistanceMeters>
          </Trackpoint>
          <Trackpoint>
            <Time>2022-06-16T05:00:37.000Z</Time>
            <Position>
              <LatitudeDegrees>36.7667124979197978973388671875</LatitudeDegrees>
              <LongitudeDegrees>-4.4168256036937236785888671875</LongitudeDegrees>
            </Position>
            <AltitudeMeters>142.600006103515625</AltitudeMeters>
            <DistanceMeters>376.5200623546</DistanceMeters>
          </Trackpoint>
          <Trackpoint>
            <Time>2022-06-16T05:00:38.000Z</Time>
            <Position>
              <LatitudeDegrees>36.76671308465301990509033203125</LatitudeDegrees>
              <LongitudeDegrees>-4.41681412048637866973876953125</LongitudeDegrees>
            </Position>
            <AltitudeMeters>142.600006103515625</AltitudeMeters>
            <DistanceMeters>377.54353139053</DistanceMeters>
          </Trackpoint>
          <Trackpoint>
            <Time>2022-06-16T05:00:39.000Z</Time>
            <Position>
              <LatitudeDegrees>36.76672264002263545989990234375</LatitudeDegrees>
              <LongitudeDegrees>-4.4167917408049106597900390625</LongitudeDegrees>
            </Position>
            <AltitudeMeters>142.8000030517578125</AltitudeMeters>
            <DistanceMeters>379.80428862369</DistanceMeters>
          </Trackpoint>
          <Trackpoint>
            <Time>2022-06-16T05:00:49.000Z</Time>
            <Position>
              <LatitudeDegrees>36.7667624540627002716064453125</LatitudeDegrees>
              <LongitudeDegrees>-4.41668436862528324127197265625</LongitudeDegrees>
            </Position>
            <AltitudeMeters>144</AltitudeMeters>
            <DistanceMeters>390.35353798539</DistanceMeters>
          </Trackpoint>
          <Trackpoint>
            <Time>2022-06-16T05:00:59.000Z</Time>
            <Position>
              <LatitudeDegrees>36.76679388619959354400634765625</LatitudeDegrees>
              <LongitudeDegrees>-4.4165751524269580841064453125</LongitudeDegrees>
            </Position>
            <AltitudeMeters>144.399993896484375</AltitudeMeters>
            <DistanceMeters>400.70054655403</DistanceMeters>
          </Trackpoint>
          <Trackpoint>
            <Time>2022-06-16T05:01:09.000Z</Time>
            <Position>
              <LatitudeDegrees>36.76685591228306293487548828125</LatitudeDegrees>
              <LongitudeDegrees>-4.41650323569774627685546875</LongitudeDegrees>
            </Position>
            <AltitudeMeters>146.1999969482421875</AltitudeMeters>
            <DistanceMeters>410.12209905052</DistanceMeters>
          </Trackpoint>
          <Trackpoint>
            <Time>2022-06-16T05:01:16.000Z</Time>
            <Position>
              <LatitudeDegrees>36.76691458560526371002197265625</LatitudeDegrees>
              <LongitudeDegrees>-4.4164400361478328704833984375</LongitudeDegrees>
            </Position>
            <AltitudeMeters>147.8000030517578125</AltitudeMeters>
            <DistanceMeters>418.74757294021</DistanceMeters>
          </Trackpoint>
          <Trackpoint>
            <Time>2022-06-16T05:01:19.000Z</Time>
            <Position>
              <LatitudeDegrees>36.76693864166736602783203125</LatitudeDegrees>
              <LongitudeDegrees>-4.41641212441027164459228515625</LongitudeDegrees>
            </Position>
            <AltitudeMeters>148.600006103515625</AltitudeMeters>
            <DistanceMeters>422.40332363426</DistanceMeters>
          </Trackpoint>
          <Trackpoint>
            <Time>2022-06-16T05:01:29.000Z</Time>
            <Position>
              <LatitudeDegrees>36.76702002994716167449951171875</LatitudeDegrees>
              <LongitudeDegrees>-4.4163210131227970123291015625</LongitudeDegrees>
            </Position>
            <AltitudeMeters>150.399993896484375</AltitudeMeters>
            <DistanceMeters>434.57082556763</DistanceMeters>
          </Trackpoint>
          <Trackpoint>
            <Time>2022-06-16T05:01:39.000Z</Time>
            <Position>
              <LatitudeDegrees>36.7670823074877262115478515625</LatitudeDegrees>
              <LongitudeDegrees>-4.4162097014486789703369140625</LongitudeDegrees>
            </Position>
            <AltitudeMeters>149.399993896484375</AltitudeMeters>
            <DistanceMeters>446.67619960285</DistanceMeters>
          </Trackpoint>
          <Trackpoint>
            <Time>2022-06-16T05:01:45.000Z</Time>
            <Position>
              <LatitudeDegrees>36.7671222053468227386474609375</LatitudeDegrees>
              <LongitudeDegrees>-4.41613200120627880096435546875</LongitudeDegrees>
            </Position>
            <AltitudeMeters>148.8000030517578125</AltitudeMeters>
            <DistanceMeters>454.90465712397</DistanceMeters>
          </Trackpoint>
          <Trackpoint>
            <Time>2022-06-16T05:01:49.000Z</Time>
            <Position>
              <LatitudeDegrees>36.76714760251343250274658203125</LatitudeDegrees>
              <LongitudeDegrees>-4.41609377972781658172607421875</LongitudeDegrees>
            </Position>
            <AltitudeMeters>148.399993896484375</AltitudeMeters>
            <DistanceMeters>459.33131115194</DistanceMeters>
          </Trackpoint>
          <Trackpoint>
            <Time>2022-06-16T05:01:50.000Z</Time>
            <Position>
              <LatitudeDegrees>36.7671619355678558349609375</LatitudeDegrees>
              <LongitudeDegrees>-4.416089169681072235107421875</LongitudeDegrees>
            </Position>
            <AltitudeMeters>148.600006103515625</AltitudeMeters>
            <DistanceMeters>460.97722212559</DistanceMeters>
          </Trackpoint>
          <Trackpoint>
            <Time>2022-06-16T05:01:59.000Z</Time>
            <Position>
              <LatitudeDegrees>36.76727668382227420806884765625</LatitudeDegrees>
              <LongitudeDegrees>-4.41607885994017124176025390625</LongitudeDegrees>
            </Position>
            <AltitudeMeters>149.600006103515625</AltitudeMeters>
            <DistanceMeters>473.7818735458</DistanceMeters>
          </Trackpoint>
          <Trackpoint>
            <Time>2022-06-16T05:02:09.000Z</Time>
            <Position>
              <LatitudeDegrees>36.767346002161502838134765625</LatitudeDegrees>
              <LongitudeDegrees>-4.41606678999960422515869140625</LongitudeDegrees>
            </Position>
            <AltitudeMeters>150.399993896484375</AltitudeMeters>
            <DistanceMeters>481.57116642942</DistanceMeters>
          </Trackpoint>
          <Trackpoint>
            <Time>2022-06-16T05:02:19.000Z</Time>
            <Position>
              <LatitudeDegrees>36.76745471544563770294189453125</LatitudeDegrees>
              <LongitudeDegrees>-4.41605572588741779327392578125</LongitudeDegrees>
            </Position>
            <AltitudeMeters>152</AltitudeMeters>
            <DistanceMeters>493.71154977256</DistanceMeters>
          </Trackpoint>
          <Trackpoint>
            <Time>2022-06-16T05:02:29.000Z</Time>
            <Position>
              <LatitudeDegrees>36.767587400972843170166015625</LatitudeDegrees>
              <LongitudeDegrees>-4.41608958877623081207275390625</LongitudeDegrees>
            </Position>
            <AltitudeMeters>154.1999969482421875</AltitudeMeters>
            <DistanceMeters>508.78519510084</DistanceMeters>
          </Trackpoint>
          <Trackpoint>
            <Time>2022-06-16T05:02:39.000Z</Time>
            <Position>
              <LatitudeDegrees>36.767689995467662811279296875</LatitudeDegrees>
              <LongitudeDegrees>-4.4161190092563629150390625</LongitudeDegrees>
            </Position>
            <AltitudeMeters>155.399993896484375</AltitudeMeters>
            <DistanceMeters>520.50164601829</DistanceMeters>
          </Trackpoint>
          <Trackpoint>
            <Time>2022-06-16T05:02:49.000Z</Time>
            <Position>
              <LatitudeDegrees>36.76779636181890964508056640625</LatitudeDegrees>
              <LongitudeDegrees>-4.41613149829208850860595703125</LongitudeDegrees>
            </Position>
            <AltitudeMeters>156.600006103515625</AltitudeMeters>
            <DistanceMeters>532.39252222484</DistanceMeters>
          </Trackpoint>
          <Trackpoint>
            <Time>2022-06-16T05:02:53.000Z</Time>
            <Position>
              <LatitudeDegrees>36.7678236030042171478271484375</LatitudeDegrees>
              <LongitudeDegrees>-4.4161335937678813934326171875</LongitudeDegrees>
            </Position>
            <AltitudeMeters>156.8000030517578125</AltitudeMeters>
            <DistanceMeters>535.43040604845</DistanceMeters>
          </Trackpoint>
          <Trackpoint>
            <Time>2022-06-16T05:02:59.000Z</Time>
            <Position>
              <LatitudeDegrees>36.76787448115646839141845703125</LatitudeDegrees>
              <LongitudeDegrees>-4.4161268882453441619873046875</LongitudeDegrees>
            </Position>
            <AltitudeMeters>157.399993896484375</AltitudeMeters>
            <DistanceMeters>541.12487744712</DistanceMeters>
          </Trackpoint>
          <Trackpoint>
            <Time>2022-06-16T05:03:04.000Z</Time>
            <Position>
              <LatitudeDegrees>36.7679191567003726959228515625</LatitudeDegrees>
              <LongitudeDegrees>-4.41612236201763153076171875</LongitudeDegrees>
            </Position>
            <AltitudeMeters>157.600006103515625</AltitudeMeters>
            <DistanceMeters>546.11355369233</DistanceMeters>
          </Trackpoint>
          <Trackpoint>
            <Time>2022-06-16T05:03:09.000Z</Time>
            <Position>
              <LatitudeDegrees>36.7679486609995365142822265625</LatitudeDegrees>
              <LongitudeDegrees>-4.416131414473056793212890625</LongitudeDegrees>
            </Position>
            <AltitudeMeters>157.8000030517578125</AltitudeMeters>
            <DistanceMeters>549.49468911967</DistanceMeters>
          </Trackpoint>
          <Trackpoint>
            <Time>2022-06-16T05:03:19.000Z</Time>
            <Position>
              <LatitudeDegrees>36.76803742535412311553955078125</LatitudeDegrees>
              <LongitudeDegrees>-4.4161672890186309814453125</LongitudeDegrees>
            </Position>
            <AltitudeMeters>158.600006103515625</AltitudeMeters>
            <DistanceMeters>559.8791569873</DistanceMeters>
          </Trackpoint>
          <Trackpoint>
            <Time>2022-06-16T05:03:29.000Z</Time>
            <Position>
              <LatitudeDegrees>36.76812929101288318634033203125</LatitudeDegrees>
              <LongitudeDegrees>-4.41619687713682651519775390625</LongitudeDegrees>
            </Position>
            <AltitudeMeters>160.1999969482421875</AltitudeMeters>
            <DistanceMeters>570.43910083215</DistanceMeters>
          </Trackpoint>
          <Trackpoint>
            <Time>2022-06-16T05:03:38.000Z</Time>
            <Position>
              <LatitudeDegrees>36.7682106792926788330078125</LatitudeDegrees>
              <LongitudeDegrees>-4.4162697158753871917724609375</LongitudeDegrees>
            </Position>
            <AltitudeMeters>161.1999969482421875</AltitudeMeters>
            <DistanceMeters>581.58521189009</DistanceMeters>
          </Trackpoint>
          <Trackpoint>
            <Time>2022-06-16T05:03:39.000Z</Time>
            <Position>
              <LatitudeDegrees>36.7682106792926788330078125</LatitudeDegrees>
              <LongitudeDegrees>-4.4162697158753871917724609375</LongitudeDegrees>
            </Position>
            <AltitudeMeters>161.1999969482421875</AltitudeMeters>
            <DistanceMeters>581.68023860446</DistanceMeters>
          </Trackpoint>
          <Trackpoint>
            <Time>2022-06-16T05:03:49.000Z</Time>
            <Position>
              <LatitudeDegrees>36.768320985138416290283203125</LatitudeDegrees>
              <LongitudeDegrees>-4.41632897593080997467041015625</LongitudeDegrees>
            </Position>
            <AltitudeMeters>162.1999969482421875</AltitudeMeters>
            <DistanceMeters>595.04627886952</DistanceMeters>
          </Trackpoint>
          <Trackpoint>
            <Time>2022-06-16T05:03:59.000Z</Time>
            <Position>
              <LatitudeDegrees>36.7684706859290599822998046875</LatitudeDegrees>
              <LongitudeDegrees>-4.41634892486035823822021484375</LongitudeDegrees>
            </Position>
            <AltitudeMeters>163.600006103515625</AltitudeMeters>
            <DistanceMeters>611.80280586495</DistanceMeters>
          </Trackpoint>
          <Trackpoint>
            <Time>2022-06-16T05:04:09.000Z</Time>
            <Position>
              <LatitudeDegrees>36.7686178721487522125244140625</LatitudeDegrees>
              <LongitudeDegrees>-4.41630986519157886505126953125</LongitudeDegrees>
            </Position>
            <AltitudeMeters>165</AltitudeMeters>
            <DistanceMeters>628.55124742395</DistanceMeters>
          </Trackpoint>
          <Trackpoint>
            <Time>2022-06-16T05:04:19.000Z</Time>
            <Position>
              <LatitudeDegrees>36.76874821074306964874267578125</LatitudeDegrees>
              <LongitudeDegrees>-4.41623593680560588836669921875</LongitudeDegrees>
            </Position>
            <AltitudeMeters>165.600006103515625</AltitudeMeters>
            <DistanceMeters>644.48544521909</DistanceMeters>
          </Trackpoint>
          <Trackpoint>
            <Time>2022-06-16T05:04:27.000Z</Time>
            <Position>
              <LatitudeDegrees>36.76884594373404979705810546875</LatitudeDegrees>
              <LongitudeDegrees>-4.41618145443499088287353515625</LongitudeDegrees>
            </Position>
            <AltitudeMeters>166</AltitudeMeters>
            <DistanceMeters>656.39908200834</DistanceMeters>
          </Trackpoint>
          <Trackpoint>
            <Time>2022-06-16T05:04:29.000Z</Time>
            <Position>
              <LatitudeDegrees>36.76888885907828807830810546875</LatitudeDegrees>
              <LongitudeDegrees>-4.416166283190250396728515625</LongitudeDegrees>
            </Position>
            <AltitudeMeters>166.399993896484375</AltitudeMeters>
            <DistanceMeters>661.36417099968</DistanceMeters>
          </Trackpoint>
          <Trackpoint>
            <Time>2022-06-16T05:04:33.000Z</Time>
            <Position>
              <LatitudeDegrees>36.76894635893404483795166015625</LatitudeDegrees>
              <LongitudeDegrees>-4.41614516079425811767578125</LongitudeDegrees>
            </Position>
            <AltitudeMeters>167</AltitudeMeters>
            <DistanceMeters>668.03501927526</DistanceMeters>
          </Trackpoint>
          <Trackpoint>
            <Time>2022-06-16T05:04:34.000Z</Time>
            <Position>
              <LatitudeDegrees>36.76896077580749988555908203125</LatitudeDegrees>
              <LongitudeDegrees>-4.41613988019526004791259765625</LongitudeDegrees>
            </Position>
            <AltitudeMeters>167</AltitudeMeters>
            <DistanceMeters>669.70813723214</DistanceMeters>
          </Trackpoint>
          <Trackpoint>
            <Time>2022-06-16T05:04:37.000Z</Time>
            <Position>
              <LatitudeDegrees>36.7690004222095012664794921875</LatitudeDegrees>
              <LongitudeDegrees>-4.41612496040761470794677734375</LongitudeDegrees>
            </Position>
            <AltitudeMeters>167.399993896484375</AltitudeMeters>
            <DistanceMeters>674.31668795837</DistanceMeters>
          </Trackpoint>
          <Trackpoint>
            <Time>2022-06-16T05:04:39.000Z</Time>
            <Position>
              <LatitudeDegrees>36.7690228857100009918212890625</LatitudeDegrees>
              <LongitudeDegrees>-4.41611490212380886077880859375</LongitudeDegrees>
            </Position>
            <AltitudeMeters>167.399993896484375</AltitudeMeters>
            <DistanceMeters>676.9723403646</DistanceMeters>
          </Trackpoint>
          <Trackpoint>
            <Time>2022-06-16T05:04:44.000Z</Time>
            <Position>
              <LatitudeDegrees>36.7690823972225189208984375</LatitudeDegrees>
              <LongitudeDegrees>-4.4160933606326580047607421875</LongitudeDegrees>
            </Position>
            <AltitudeMeters>167.8000030517578125</AltitudeMeters>
            <DistanceMeters>683.86881864197</DistanceMeters>
          </Trackpoint>
          <Trackpoint>
            <Time>2022-06-16T05:04:47.000Z</Time>
            <Position>
              <LatitudeDegrees>36.76911600865423679351806640625</LatitudeDegrees>
              <LongitudeDegrees>-4.41607584245502948760986328125</LongitudeDegrees>
            </Position>
            <AltitudeMeters>168</AltitudeMeters>
            <DistanceMeters>687.92279682741</DistanceMeters>
          </Trackpoint>
          <Trackpoint>
            <Time>2022-06-16T05:04:48.000Z</Time>
            <Position>
              <LatitudeDegrees>36.76912464201450347900390625</LatitudeDegrees>
              <LongitudeDegrees>-4.4160715676844120025634765625</LongitudeDegrees>
            </Position>
            <AltitudeMeters>168.1999969482421875</AltitudeMeters>
            <DistanceMeters>688.95505116641</DistanceMeters>
          </Trackpoint>
          <Trackpoint>
            <Time>2022-06-16T05:04:49.000Z</Time>
            <Position>
              <LatitudeDegrees>36.7691360414028167724609375</LatitudeDegrees>
              <LongitudeDegrees>-4.41606762818992137908935546875</LongitudeDegrees>
            </Position>
            <AltitudeMeters>168.1999969482421875</AltitudeMeters>
            <DistanceMeters>690.26834648765</DistanceMeters>
          </Trackpoint>
          <Trackpoint>
            <Time>2022-06-16T05:04:59.000Z</Time>
            <Position>
              <LatitudeDegrees>36.769263111054897308349609375</LatitudeDegrees>
              <LongitudeDegrees>-4.41604315303266048431396484375</LongitudeDegrees>
            </Position>
            <AltitudeMeters>170</AltitudeMeters>
            <DistanceMeters>704.57862508718</DistanceMeters>
          </Trackpoint>
          <Trackpoint>
            <Time>2022-06-16T05:05:09.000Z</Time>
            <Position>
              <LatitudeDegrees>36.7693943716585636138916015625</LatitudeDegrees>
              <LongitudeDegrees>-4.41599856130778789520263671875</LongitudeDegrees>
            </Position>
            <AltitudeMeters>172.1999969482421875</AltitudeMeters>
            <DistanceMeters>719.71981330869</DistanceMeters>
          </Trackpoint>
          <Trackpoint>
            <Time>2022-06-16T05:05:19.000Z</Time>
            <Position>
              <LatitudeDegrees>36.7695088684558868408203125</LatitudeDegrees>
              <LongitudeDegrees>-4.4159589149057865142822265625</LongitudeDegrees>
            </Position>
            <AltitudeMeters>173.8000030517578125</AltitudeMeters>
            <DistanceMeters>732.94458251524</DistanceMeters>
          </Trackpoint>
          <Trackpoint>
            <Time>2022-06-16T05:05:29.000Z</Time>
            <Position>
              <LatitudeDegrees>36.7696295678615570068359375</LatitudeDegrees>
              <LongitudeDegrees>-4.41589596681296825408935546875</LongitudeDegrees>
            </Position>
            <AltitudeMeters>175.600006103515625</AltitudeMeters>
            <DistanceMeters>747.5038412342</DistanceMeters>
          </Trackpoint>
          <Trackpoint>
            <Time>2022-06-16T05:05:31.000Z</Time>
            <Position>
              <LatitudeDegrees>36.76965043880045413970947265625</LatitudeDegrees>
              <LongitudeDegrees>-4.41587266512215137481689453125</LongitudeDegrees>
            </Position>
            <AltitudeMeters>175.8000030517578125</AltitudeMeters>
            <DistanceMeters>750.62094922939</DistanceMeters>
          </Trackpoint>
          <Trackpoint>
            <Time>2022-06-16T05:05:33.000Z</Time>
            <Position>
              <LatitudeDegrees>36.76968681626021862030029296875</LatitudeDegrees>
              <LongitudeDegrees>-4.4158439151942729949951171875</LongitudeDegrees>
            </Position>
            <AltitudeMeters>176.1999969482421875</AltitudeMeters>
            <DistanceMeters>755.41391433185</DistanceMeters>
          </Trackpoint>
          <Trackpoint>
            <Time>2022-06-16T05:05:34.000Z</Time>
            <Position>
              <LatitudeDegrees>36.76968681626021862030029296875</LatitudeDegrees>
              <LongitudeDegrees>-4.4158439151942729949951171875</LongitudeDegrees>
            </Position>
            <AltitudeMeters>176.1999969482421875</AltitudeMeters>
            <DistanceMeters>755.41391433185</DistanceMeters>
          </Trackpoint>
          <Trackpoint>
            <Time>2022-06-16T05:05:39.000Z</Time>
            <Position>
              <LatitudeDegrees>36.76974314264953136444091796875</LatitudeDegrees>
              <LongitudeDegrees>-4.4157932884991168975830078125</LongitudeDegrees>
            </Position>
            <AltitudeMeters>177</AltitudeMeters>
            <DistanceMeters>763.13859847696</DistanceMeters>
          </Trackpoint>
          <Trackpoint>
            <Time>2022-06-16T05:05:49.000Z</Time>
            <Position>
              <LatitudeDegrees>36.76984724588692188262939453125</LatitudeDegrees>
              <LongitudeDegrees>-4.4156960584223270416259765625</LongitudeDegrees>
            </Position>
            <AltitudeMeters>179</AltitudeMeters>
            <DistanceMeters>777.60951664878</DistanceMeters>
          </Trackpoint>
          <Trackpoint>
            <Time>2022-06-16T05:05:56.000Z</Time>
            <Position>
              <LatitudeDegrees>36.7698872275650501251220703125</LatitudeDegrees>
              <LongitudeDegrees>-4.4156219623982906341552734375</LongitudeDegrees>
            </Position>
            <AltitudeMeters>179.600006103515625</AltitudeMeters>
            <DistanceMeters>785.57477352444</DistanceMeters>
          </Trackpoint>
          <Trackpoint>
            <Time>2022-06-16T05:05:59.000Z</Time>
            <Position>
              <LatitudeDegrees>36.7698654346168041229248046875</LatitudeDegrees>
              <LongitudeDegrees>-4.4155917875468730926513671875</LongitudeDegrees>
            </Position>
            <AltitudeMeters>179.600006103515625</AltitudeMeters>
            <DistanceMeters>789.19577766647</DistanceMeters>
          </Trackpoint>
          <Trackpoint>
            <Time>2022-06-16T05:06:09.000Z</Time>
            <Position>
              <LatitudeDegrees>36.76977616734802722930908203125</LatitudeDegrees>
              <LongitudeDegrees>-4.415520541369915008544921875</LongitudeDegrees>
            </Position>
            <AltitudeMeters>178.600006103515625</AltitudeMeters>
            <DistanceMeters>800.98828279629</DistanceMeters>
          </Trackpoint>
          <Trackpoint>
            <Time>2022-06-16T05:06:16.000Z</Time>
            <Position>
              <LatitudeDegrees>36.769684888422489166259765625</LatitudeDegrees>
              <LongitudeDegrees>-4.4154935516417026519775390625</LongitudeDegrees>
            </Position>
            <AltitudeMeters>177</AltitudeMeters>
            <DistanceMeters>811.42912006308</DistanceMeters>
          </Trackpoint>
          <Trackpoint>
            <Time>2022-06-16T05:06:19.000Z</Time>
            <Position>
              <LatitudeDegrees>36.769645996391773223876953125</LatitudeDegrees>
              <LongitudeDegrees>-4.41548273898661136627197265625</LongitudeDegrees>
            </Position>
            <AltitudeMeters>176.1999969482421875</AltitudeMeters>
            <DistanceMeters>815.86392631532</DistanceMeters>
          </Trackpoint>
          <Trackpoint>
            <Time>2022-06-16T05:06:27.000Z</Time>
            <Position>
              <LatitudeDegrees>36.7695492692291736602783203125</LatitudeDegrees>
              <LongitudeDegrees>-4.4154539890587329864501953125</LongitudeDegrees>
            </Position>
            <AltitudeMeters>174.600006103515625</AltitudeMeters>
            <DistanceMeters>826.93076537665</DistanceMeters>
          </Trackpoint>
          <Trackpoint>
            <Time>2022-06-16T05:06:28.000Z</Time>
            <Position>
              <LatitudeDegrees>36.76953610964119434356689453125</LatitudeDegrees>
              <LongitudeDegrees>-4.415450133383274078369140625</LongitudeDegrees>
            </Position>
            <AltitudeMeters>174.399993896484375</AltitudeMeters>
            <DistanceMeters>828.43326965651</DistanceMeters>
          </Trackpoint>
          <Trackpoint>
            <Time>2022-06-16T05:06:29.000Z</Time>
            <Position>
              <LatitudeDegrees>36.7695247940719127655029296875</LatitudeDegrees>
              <LongitudeDegrees>-4.41544736735522747039794921875</LongitudeDegrees>
            </Position>
            <AltitudeMeters>174.399993896484375</AltitudeMeters>
            <DistanceMeters>829.71525012157</DistanceMeters>
          </Trackpoint>
          <Trackpoint>
            <Time>2022-06-16T05:06:31.000Z</Time>
            <Position>
              <LatitudeDegrees>36.76949344575405120849609375</LatitudeDegrees>
              <LongitudeDegrees>-4.4154457747936248779296875</LongitudeDegrees>
            </Position>
            <AltitudeMeters>173.8000030517578125</AltitudeMeters>
            <DistanceMeters>833.20675455366</DistanceMeters>
          </Trackpoint>
          <Trackpoint>
            <Time>2022-06-16T05:06:33.000Z</Time>
            <Position>
              <LatitudeDegrees>36.76946486346423625946044921875</LatitudeDegrees>
              <LongitudeDegrees>-4.41544334404170513153076171875</LongitudeDegrees>
            </Position>
            <AltitudeMeters>173.1999969482421875</AltitudeMeters>
            <DistanceMeters>836.39546370877</DistanceMeters>
          </Trackpoint>
          <Trackpoint>
            <Time>2022-06-16T05:06:39.000Z</Time>
            <Position>
              <LatitudeDegrees>36.7693859897553920745849609375</LatitudeDegrees>
              <LongitudeDegrees>-4.41542171873152256011962890625</LongitudeDegrees>
            </Position>
            <AltitudeMeters>172.1999969482421875</AltitudeMeters>
            <DistanceMeters>845.38390595112</DistanceMeters>
          </Trackpoint>
          <Trackpoint>
            <Time>2022-06-16T05:06:49.000Z</Time>
            <Position>
              <LatitudeDegrees>36.7692719958722591400146484375</LatitudeDegrees>
              <LongitudeDegrees>-4.41538332961499691009521484375</LongitudeDegrees>
            </Position>
            <AltitudeMeters>170.600006103515625</AltitudeMeters>
            <DistanceMeters>858.52510764329</DistanceMeters>
          </Trackpoint>
          <Trackpoint>
            <Time>2022-06-16T05:06:54.000Z</Time>
            <Position>
              <LatitudeDegrees>36.769240312278270721435546875</LatitudeDegrees>
              <LongitudeDegrees>-4.415331780910491943359375</LongitudeDegrees>
            </Position>
            <AltitudeMeters>170.8000030517578125</AltitudeMeters>
            <DistanceMeters>864.31784137321</DistanceMeters>
          </Trackpoint>
          <Trackpoint>
            <Time>2022-06-16T05:06:59.000Z</Time>
            <Position>
              <LatitudeDegrees>36.76922782324254512786865234375</LatitudeDegrees>
              <LongitudeDegrees>-4.4152357243001461029052734375</LongitudeDegrees>
            </Position>
            <AltitudeMeters>172</AltitudeMeters>
            <DistanceMeters>872.99394172053</DistanceMeters>
          </Trackpoint>
          <Trackpoint>
            <Time>2022-06-16T05:07:09.000Z</Time>
            <Position>
              <LatitudeDegrees>36.76928163506090641021728515625</LatitudeDegrees>
              <LongitudeDegrees>-4.41510035656392574310302734375</LongitudeDegrees>
            </Position>
            <AltitudeMeters>174.600006103515625</AltitudeMeters>
            <DistanceMeters>886.46764413781</DistanceMeters>
          </Trackpoint>
          <Trackpoint>
            <Time>2022-06-16T05:07:19.000Z</Time>
            <Position>
              <LatitudeDegrees>36.76939579658210277557373046875</LatitudeDegrees>
              <LongitudeDegrees>-4.4149621389806270599365234375</LongitudeDegrees>
            </Position>
            <AltitudeMeters>178.399993896484375</AltitudeMeters>
            <DistanceMeters>904.16813939358</DistanceMeters>
          </Trackpoint>
          <Trackpoint>
            <Time>2022-06-16T05:07:22.000Z</Time>
            <Position>
              <LatitudeDegrees>36.76942161284387111663818359375</LatitudeDegrees>
              <LongitudeDegrees>-4.41493087448179721832275390625</LongitudeDegrees>
            </Position>
            <AltitudeMeters>178.8000030517578125</AltitudeMeters>
            <DistanceMeters>908.17055811375</DistanceMeters>
          </Trackpoint>
          <Trackpoint>
            <Time>2022-06-16T05:07:25.000Z</Time>
            <Position>
              <LatitudeDegrees>36.76944307051599025726318359375</LatitudeDegrees>
              <LongitudeDegrees>-4.4148944132030010223388671875</LongitudeDegrees>
            </Position>
            <AltitudeMeters>179.399993896484375</AltitudeMeters>
            <DistanceMeters>912.20443934056</DistanceMeters>
          </Trackpoint>
          <Trackpoint>
            <Time>2022-06-16T05:07:28.000Z</Time>
            <Position>
              <LatitudeDegrees>36.76946385763585567474365234375</LatitudeDegrees>
              <LongitudeDegrees>-4.4148518331348896026611328125</LongitudeDegrees>
            </Position>
            <AltitudeMeters>179.8000030517578125</AltitudeMeters>
            <DistanceMeters>916.65144590816</DistanceMeters>
          </Trackpoint>
          <Trackpoint>
            <Time>2022-06-16T05:07:29.000Z</Time>
            <Position>
              <LatitudeDegrees>36.7694699764251708984375</LatitudeDegrees>
              <LongitudeDegrees>-4.41483699716627597808837890625</LongitudeDegrees>
            </Position>
            <AltitudeMeters>180</AltitudeMeters>
            <DistanceMeters>918.14188168511</DistanceMeters>
          </Trackpoint>
          <Trackpoint>
            <Time>2022-06-16T05:07:33.000Z</Time>
            <Position>
              <LatitudeDegrees>36.76949721761047840118408203125</LatitudeDegrees>
              <LongitudeDegrees>-4.414786286652088165283203125</LongitudeDegrees>
            </Position>
            <AltitudeMeters>180.600006103515625</AltitudeMeters>
            <DistanceMeters>923.58584264098</DistanceMeters>
          </Trackpoint>
          <Trackpoint>
            <Time>2022-06-16T05:07:39.000Z</Time>
            <Position>
              <LatitudeDegrees>36.76954465918242931365966796875</LatitudeDegrees>
              <LongitudeDegrees>-4.41472400911152362823486328125</LongitudeDegrees>
            </Position>
            <AltitudeMeters>181.600006103515625</AltitudeMeters>
            <DistanceMeters>931.24831985391</DistanceMeters>
          </Trackpoint>
          <Trackpoint>
            <Time>2022-06-16T05:07:49.000Z</Time>
            <Position>
              <LatitudeDegrees>36.76963417790830135345458984375</LatitudeDegrees>
              <LongitudeDegrees>-4.4146261923015117645263671875</LongitudeDegrees>
            </Position>
            <AltitudeMeters>183.399993896484375</AltitudeMeters>
            <DistanceMeters>944.4894664899</DistanceMeters>
          </Trackpoint>
          <Trackpoint>
            <Time>2022-06-16T05:07:59.000Z</Time>
            <Position>
              <LatitudeDegrees>36.76966988481581211090087890625</LatitudeDegrees>
              <LongitudeDegrees>-4.4145638309419155120849609375</LongitudeDegrees>
            </Position>
            <AltitudeMeters>184.1999969482421875</AltitudeMeters>
            <DistanceMeters>951.32346644367</DistanceMeters>
          </Trackpoint>
          <Trackpoint>
            <Time>2022-06-16T05:08:09.000Z</Time>
            <Position>
              <LatitudeDegrees>36.769770719110965728759765625</LatitudeDegrees>
              <LongitudeDegrees>-4.414493925869464874267578125</LongitudeDegrees>
            </Position>
            <AltitudeMeters>186.399993896484375</AltitudeMeters>
            <DistanceMeters>964.16122034296</DistanceMeters>
          </Trackpoint>
          <Trackpoint>
            <Time>2022-06-16T05:08:19.000Z</Time>
            <Position>
              <LatitudeDegrees>36.7698815278708934783935546875</LatitudeDegrees>
              <LongitudeDegrees>-4.4143948517739772796630859375</LongitudeDegrees>
            </Position>
            <AltitudeMeters>189.399993896484375</AltitudeMeters>
            <DistanceMeters>979.331305978</DistanceMeters>
          </Trackpoint>
          <Trackpoint>
            <Time>2022-06-16T05:08:29.000Z</Time>
            <Position>
              <LatitudeDegrees>36.76997146569192409515380859375</LatitudeDegrees>
              <LongitudeDegrees>-4.4142644293606281280517578125</LongitudeDegrees>
            </Position>
            <AltitudeMeters>192.600006103515625</AltitudeMeters>
            <DistanceMeters>994.67451597115</DistanceMeters>
          </Trackpoint>
          <Trackpoint>
            <Time>2022-06-16T05:08:39.000Z</Time>
            <Position>
              <LatitudeDegrees>36.76999074406921863555908203125</LatitudeDegrees>
              <LongitudeDegrees>-4.41411699168384075164794921875</LongitudeDegrees>
            </Position>
            <AltitudeMeters>194.399993896484375</AltitudeMeters>
            <DistanceMeters>1007.9938583655</DistanceMeters>
          </Trackpoint>
          <Trackpoint>
            <Time>2022-06-16T05:08:42.000Z</Time>
            <Position>
              <LatitudeDegrees>36.76997624337673187255859375</LatitudeDegrees>
              <LongitudeDegrees>-4.4140753336250782012939453125</LongitudeDegrees>
            </Position>
            <AltitudeMeters>194.600006103515625</AltitudeMeters>
            <DistanceMeters>1012.0433791794</DistanceMeters>
          </Trackpoint>
          <Trackpoint>
            <Time>2022-06-16T05:08:45.000Z</Time>
            <Position>
              <LatitudeDegrees>36.76994531415402889251708984375</LatitudeDegrees>
              <LongitudeDegrees>-4.41404993645846843719482421875</LongitudeDegrees>
            </Position>
            <AltitudeMeters>194.1999969482421875</AltitudeMeters>
            <DistanceMeters>1016.1636393307</DistanceMeters>
          </Trackpoint>
          <Trackpoint>
            <Time>2022-06-16T05:08:49.000Z</Time>
            <Position>
              <LatitudeDegrees>36.769907511770725250244140625</LatitudeDegrees>
              <LongitudeDegrees>-4.414011798799037933349609375</LongitudeDegrees>
            </Position>
            <AltitudeMeters>194</AltitudeMeters>
            <DistanceMeters>1021.5726547382</DistanceMeters>
          </Trackpoint>
          <Trackpoint>
            <Time>2022-06-16T05:08:59.000Z</Time>
            <Position>
              <LatitudeDegrees>36.769825033843517303466796875</LatitudeDegrees>
              <LongitudeDegrees>-4.413934685289859771728515625</LongitudeDegrees>
            </Position>
            <AltitudeMeters>194.8000030517578125</AltitudeMeters>
            <DistanceMeters>1033.0421862734</DistanceMeters>
          </Trackpoint>
          <Trackpoint>
            <Time>2022-06-16T05:09:03.000Z</Time>
            <Position>
              <LatitudeDegrees>36.7697918415069580078125</LatitudeDegrees>
              <LongitudeDegrees>-4.41387944854795932769775390625</LongitudeDegrees>
            </Position>
            <AltitudeMeters>195.600006103515625</AltitudeMeters>
            <DistanceMeters>1039.1991547573</DistanceMeters>
          </Trackpoint>
          <Trackpoint>
            <Time>2022-06-16T05:09:09.000Z</Time>
            <Position>
              <LatitudeDegrees>36.76973978988826274871826171875</LatitudeDegrees>
              <LongitudeDegrees>-4.41380895674228668212890625</LongitudeDegrees>
            </Position>
            <AltitudeMeters>196.1999969482421875</AltitudeMeters>
            <DistanceMeters>1047.7468063943</DistanceMeters>
          </Trackpoint>
          <Trackpoint>
            <Time>2022-06-16T05:09:19.000Z</Time>
            <Position>
              <LatitudeDegrees>36.76964758895337581634521484375</LatitudeDegrees>
              <LongitudeDegrees>-4.4137011654675006866455078125</LongitudeDegrees>
            </Position>
            <AltitudeMeters>197.1999969482421875</AltitudeMeters>
            <DistanceMeters>1061.8062648959</DistanceMeters>
          </Trackpoint>
          <Trackpoint>
            <Time>2022-06-16T05:09:23.000Z</Time>
            <Position>
              <LatitudeDegrees>36.7696133069694042205810546875</LatitudeDegrees>
              <LongitudeDegrees>-4.4136870838701725006103515625</LongitudeDegrees>
            </Position>
            <AltitudeMeters>197.1999969482421875</AltitudeMeters>
            <DistanceMeters>1065.8244456636</DistanceMeters>
          </Trackpoint>
          <Trackpoint>
            <Time>2022-06-16T05:09:29.000Z</Time>
            <Position>
              <LatitudeDegrees>36.76954817958176136016845703125</LatitudeDegrees>
              <LongitudeDegrees>-4.4136857427656650543212890625</LongitudeDegrees>
            </Position>
            <AltitudeMeters>196.399993896484375</AltitudeMeters>
            <DistanceMeters>1073.0739315008</DistanceMeters>
          </Trackpoint>
          <Trackpoint>
            <Time>2022-06-16T05:09:33.000Z</Time>
            <Position>
              <LatitudeDegrees>36.76947793923318386077880859375</LatitudeDegrees>
              <LongitudeDegrees>-4.4136916100978851318359375</LongitudeDegrees>
            </Position>
            <AltitudeMeters>195.600006103515625</AltitudeMeters>
            <DistanceMeters>1080.9088826599</DistanceMeters>
          </Trackpoint>
          <Trackpoint>
            <Time>2022-06-16T05:09:34.000Z</Time>
            <Position>
              <LatitudeDegrees>36.76947793923318386077880859375</LatitudeDegrees>
              <LongitudeDegrees>-4.4136916100978851318359375</LongitudeDegrees>
            </Position>
            <AltitudeMeters>195.600006103515625</AltitudeMeters>
            <DistanceMeters>1080.9088826599</DistanceMeters>
          </Trackpoint>
          <Trackpoint>
            <Time>2022-06-16T05:09:35.000Z</Time>
            <Position>
              <LatitudeDegrees>36.769462935626506805419921875</LatitudeDegrees>
              <LongitudeDegrees>-4.41369362175464630126953125</LongitudeDegrees>
            </Position>
            <AltitudeMeters>195.600006103515625</AltitudeMeters>
            <DistanceMeters>1082.5873890944</DistanceMeters>
          </Trackpoint>
          <Trackpoint>
            <Time>2022-06-16T05:09:36.000Z</Time>
            <Position>
              <LatitudeDegrees>36.76944642327725887298583984375</LatitudeDegrees>
              <LongitudeDegrees>-4.4136941246688365936279296875</LongitudeDegrees>
            </Position>
            <AltitudeMeters>195.399993896484375</AltitudeMeters>
            <DistanceMeters>1084.4251182882</DistanceMeters>
          </Trackpoint>
          <Trackpoint>
            <Time>2022-06-16T05:09:37.000Z</Time>
            <Position>
              <LatitudeDegrees>36.76941742189228534698486328125</LatitudeDegrees>
              <LongitudeDegrees>-4.41369705833494663238525390625</LongitudeDegrees>
            </Position>
            <AltitudeMeters>195.1999969482421875</AltitudeMeters>
            <DistanceMeters>1087.6644004352</DistanceMeters>
          </Trackpoint>
          <Trackpoint>
            <Time>2022-06-16T05:09:38.000Z</Time>
            <Position>
              <LatitudeDegrees>36.76941742189228534698486328125</LatitudeDegrees>
              <LongitudeDegrees>-4.41369705833494663238525390625</LongitudeDegrees>
            </Position>
            <AltitudeMeters>195.1999969482421875</AltitudeMeters>
            <DistanceMeters>1087.6644004352</DistanceMeters>
          </Trackpoint>
          <Trackpoint>
            <Time>2022-06-16T05:09:39.000Z</Time>
            <Position>
              <LatitudeDegrees>36.7693856544792652130126953125</LatitudeDegrees>
              <LongitudeDegrees>-4.4136947952210903167724609375</LongitudeDegrees>
            </Position>
            <AltitudeMeters>195</AltitudeMeters>
            <DistanceMeters>1091.2047035443</DistanceMeters>
          </Trackpoint>
          <Trackpoint>
            <Time>2022-06-16T05:09:41.000Z</Time>
            <Position>
              <LatitudeDegrees>36.7693747580051422119140625</LatitudeDegrees>
              <LongitudeDegrees>-4.4136944599449634552001953125</LongitudeDegrees>
            </Position>
            <AltitudeMeters>195</AltitudeMeters>
            <DistanceMeters>1092.4179234174</DistanceMeters>
          </Trackpoint>
          <Trackpoint>
            <Time>2022-06-16T05:09:42.000Z</Time>
            <Position>
              <LatitudeDegrees>36.7693640291690826416015625</LatitudeDegrees>
              <LongitudeDegrees>-4.4136954657733440399169921875</LongitudeDegrees>
            </Position>
            <AltitudeMeters>195</AltitudeMeters>
            <DistanceMeters>1093.6199268413</DistanceMeters>
          </Trackpoint>
          <Trackpoint>
            <Time>2022-06-16T05:09:47.000Z</Time>
            <Position>
              <LatitudeDegrees>36.76929286681115627288818359375</LatitudeDegrees>
              <LongitudeDegrees>-4.41368415020406246185302734375</LongitudeDegrees>
            </Position>
            <AltitudeMeters>195</AltitudeMeters>
            <DistanceMeters>1101.6044330686</DistanceMeters>
          </Trackpoint>
          <Trackpoint>
            <Time>2022-06-16T05:09:49.000Z</Time>
            <Position>
              <LatitudeDegrees>36.76926906220614910125732421875</LatitudeDegrees>
              <LongitudeDegrees>-4.4136676378548145294189453125</LongitudeDegrees>
            </Position>
            <AltitudeMeters>195.399993896484375</AltitudeMeters>
            <DistanceMeters>1104.6363660857</DistanceMeters>
          </Trackpoint>
          <Trackpoint>
            <Time>2022-06-16T05:09:53.000Z</Time>
            <Position>
              <LatitudeDegrees>36.769219525158405303955078125</LatitudeDegrees>
              <LongitudeDegrees>-4.4136334396898746490478515625</LongitudeDegrees>
            </Position>
            <AltitudeMeters>196.399993896484375</AltitudeMeters>
            <DistanceMeters>1110.9368594035</DistanceMeters>
          </Trackpoint>
          <Trackpoint>
            <Time>2022-06-16T05:09:54.000Z</Time>
            <Position>
              <LatitudeDegrees>36.76921307109296321868896484375</LatitudeDegrees>
              <LongitudeDegrees>-4.413624890148639678955078125</LongitudeDegrees>
            </Position>
            <AltitudeMeters>196.600006103515625</AltitudeMeters>
            <DistanceMeters>1111.98646377</DistanceMeters>
          </Trackpoint>
          <Trackpoint>
            <Time>2022-06-16T05:09:55.000Z</Time>
            <Position>
              <LatitudeDegrees>36.76920519210398197174072265625</LatitudeDegrees>
              <LongitudeDegrees>-4.4136119820177555084228515625</LongitudeDegrees>
            </Position>
            <AltitudeMeters>196.8000030517578125</AltitudeMeters>
            <DistanceMeters>1113.4338675612</DistanceMeters>
          </Trackpoint>
          <Trackpoint>
            <Time>2022-06-16T05:09:59.000Z</Time>
            <Position>
              <LatitudeDegrees>36.76918708719313144683837890625</LatitudeDegrees>
              <LongitudeDegrees>-4.41357350908219814300537109375</LongitudeDegrees>
            </Position>
            <AltitudeMeters>197.399993896484375</AltitudeMeters>
            <DistanceMeters>1117.4125261299</DistanceMeters>
          </Trackpoint>
          <Trackpoint>
            <Time>2022-06-16T05:10:09.000Z</Time>
            <Position>
              <LatitudeDegrees>36.76913143135607242584228515625</LatitudeDegrees>
              <LongitudeDegrees>-4.4134421646595001220703125</LongitudeDegrees>
            </Position>
            <AltitudeMeters>199.600006103515625</AltitudeMeters>
            <DistanceMeters>1130.6604907194</DistanceMeters>
          </Trackpoint>
          <Trackpoint>
            <Time>2022-06-16T05:10:13.000Z</Time>
            <Position>
              <LatitudeDegrees>36.76910745911300182342529296875</LatitudeDegrees>
              <LongitudeDegrees>-4.413404278457164764404296875</LongitudeDegrees>
            </Position>
            <AltitudeMeters>200</AltitudeMeters>
            <DistanceMeters>1134.9640574712</DistanceMeters>
          </Trackpoint>
          <Trackpoint>
            <Time>2022-06-16T05:10:14.000Z</Time>
            <Position>
              <LatitudeDegrees>36.76910050213336944580078125</LatitudeDegrees>
              <LongitudeDegrees>-4.413389526307582855224609375</LongitudeDegrees>
            </Position>
            <AltitudeMeters>200.1999969482421875</AltitudeMeters>
            <DistanceMeters>1136.4904125159</DistanceMeters>
          </Trackpoint>
          <Trackpoint>
            <Time>2022-06-16T05:10:15.000Z</Time>
            <Position>
              <LatitudeDegrees>36.76909253932535648345947265625</LatitudeDegrees>
              <LongitudeDegrees>-4.413375444710254669189453125</LongitudeDegrees>
            </Position>
            <AltitudeMeters>200.399993896484375</AltitudeMeters>
            <DistanceMeters>1138.0285542611</DistanceMeters>
          </Trackpoint>
          <Trackpoint>
            <Time>2022-06-16T05:10:19.000Z</Time>
            <Position>
              <LatitudeDegrees>36.769065298140048980712890625</LatitudeDegrees>
              <LongitudeDegrees>-4.41332456655800342559814453125</LongitudeDegrees>
            </Position>
            <AltitudeMeters>200.8000030517578125</AltitudeMeters>
            <DistanceMeters>1143.4857689455</DistanceMeters>
          </Trackpoint>
          <Trackpoint>
            <Time>2022-06-16T05:10:23.000Z</Time>
            <Position>
              <LatitudeDegrees>36.7690413258969783782958984375</LatitudeDegrees>
              <LongitudeDegrees>-4.4132723473012447357177734375</LongitudeDegrees>
            </Position>
            <AltitudeMeters>201</AltitudeMeters>
            <DistanceMeters>1148.8528858491</DistanceMeters>
          </Trackpoint>
          <Trackpoint>
            <Time>2022-06-16T05:10:29.000Z</Time>
            <Position>
              <LatitudeDegrees>36.76898994483053684234619140625</LatitudeDegrees>
              <LongitudeDegrees>-4.4132032804191112518310546875</LongitudeDegrees>
            </Position>
            <AltitudeMeters>200.399993896484375</AltitudeMeters>
            <DistanceMeters>1157.2561707896</DistanceMeters>
          </Trackpoint>
          <Trackpoint>
            <Time>2022-06-16T05:10:32.000Z</Time>
            <Position>
              <LatitudeDegrees>36.768957674503326416015625</LatitudeDegrees>
              <LongitudeDegrees>-4.4131724350154399871826171875</LongitudeDegrees>
            </Position>
            <AltitudeMeters>199.600006103515625</AltitudeMeters>
            <DistanceMeters>1161.7786837133</DistanceMeters>
          </Trackpoint>
          <Trackpoint>
            <Time>2022-06-16T05:10:33.000Z</Time>
            <Position>
              <LatitudeDegrees>36.7689494602382183074951171875</LatitudeDegrees>
              <LongitudeDegrees>-4.413162879645824432373046875</LongitudeDegrees>
            </Position>
            <AltitudeMeters>199.399993896484375</AltitudeMeters>
            <DistanceMeters>1163.0249473886</DistanceMeters>
          </Trackpoint>
          <Trackpoint>
            <Time>2022-06-16T05:10:34.000Z</Time>
            <Position>
              <LatitudeDegrees>36.7689404077827930450439453125</LatitudeDegrees>
              <LongitudeDegrees>-4.41315458156168460845947265625</LongitudeDegrees>
            </Position>
            <AltitudeMeters>199</AltitudeMeters>
            <DistanceMeters>1164.2712110639</DistanceMeters>
          </Trackpoint>
          <Trackpoint>
            <Time>2022-06-16T05:10:35.000Z</Time>
            <Position>
              <LatitudeDegrees>36.76893294788897037506103515625</LatitudeDegrees>
              <LongitudeDegrees>-4.41314435563981533050537109375</LongitudeDegrees>
            </Position>
            <AltitudeMeters>198.600006103515625</AltitudeMeters>
            <DistanceMeters>1165.5028980544</DistanceMeters>
          </Trackpoint>
          <Trackpoint>
            <Time>2022-06-16T05:10:36.000Z</Time>
            <Position>
              <LatitudeDegrees>36.768923811614513397216796875</LatitudeDegrees>
              <LongitudeDegrees>-4.41313169896602630615234375</LongitudeDegrees>
            </Position>
            <AltitudeMeters>198.1999969482421875</AltitudeMeters>
            <DistanceMeters>1167.0233254844</DistanceMeters>
          </Trackpoint>
          <Trackpoint>
            <Time>2022-06-16T05:10:39.000Z</Time>
            <Position>
              <LatitudeDegrees>36.76890713162720203399658203125</LatitudeDegrees>
              <LongitudeDegrees>-4.41309406422078609466552734375</LongitudeDegrees>
            </Position>
            <AltitudeMeters>197.8000030517578125</AltitudeMeters>
            <DistanceMeters>1170.857509159</DistanceMeters>
          </Trackpoint>
          <Trackpoint>
            <Time>2022-06-16T05:10:49.000Z</Time>
            <Position>
              <LatitudeDegrees>36.7688844166696071624755859375</LatitudeDegrees>
              <LongitudeDegrees>-4.41294855438172817230224609375</LongitudeDegrees>
            </Position>
            <AltitudeMeters>197.8000030517578125</AltitudeMeters>
            <DistanceMeters>1184.0751068591</DistanceMeters>
          </Trackpoint>
          <Trackpoint>
            <Time>2022-06-16T05:10:51.000Z</Time>
            <Position>
              <LatitudeDegrees>36.768880896270275115966796875</LatitudeDegrees>
              <LongitudeDegrees>-4.41291972063481807708740234375</LongitudeDegrees>
            </Position>
            <AltitudeMeters>197.8000030517578125</AltitudeMeters>
            <DistanceMeters>1186.6775206104</DistanceMeters>
          </Trackpoint>
          <Trackpoint>
            <Time>2022-06-16T05:10:53.000Z</Time>
            <Position>
              <LatitudeDegrees>36.7688830755650997161865234375</LatitudeDegrees>
              <LongitudeDegrees>-4.4128904677927494049072265625</LongitudeDegrees>
            </Position>
            <AltitudeMeters>198</AltitudeMeters>
            <DistanceMeters>1189.2972263376</DistanceMeters>
          </Trackpoint>
          <Trackpoint>
            <Time>2022-06-16T05:10:56.000Z</Time>
            <Position>
              <LatitudeDegrees>36.76888416521251201629638671875</LatitudeDegrees>
              <LongitudeDegrees>-4.41284696571528911590576171875</LongitudeDegrees>
            </Position>
            <AltitudeMeters>198.1999969482421875</AltitudeMeters>
            <DistanceMeters>1193.1782271761</DistanceMeters>
          </Trackpoint>
          <Trackpoint>
            <Time>2022-06-16T05:10:59.000Z</Time>
            <Position>
              <LatitudeDegrees>36.7688904516398906707763671875</LatitudeDegrees>
              <LongitudeDegrees>-4.41280505619943141937255859375</LongitudeDegrees>
            </Position>
            <AltitudeMeters>198.8000030517578125</AltitudeMeters>
            <DistanceMeters>1196.9792957509</DistanceMeters>
          </Trackpoint>
          <Trackpoint>
            <Time>2022-06-16T05:11:04.000Z</Time>
            <Position>
              <LatitudeDegrees>36.76890872418880462646484375</LatitudeDegrees>
              <LongitudeDegrees>-4.41273481585085391998291015625</LongitudeDegrees>
            </Position>
            <AltitudeMeters>199.8000030517578125</AltitudeMeters>
            <DistanceMeters>1203.5643110952</DistanceMeters>
          </Trackpoint>
          <Trackpoint>
            <Time>2022-06-16T05:11:08.000Z</Time>
            <Position>
              <LatitudeDegrees>36.7689062096178531646728515625</LatitudeDegrees>
              <LongitudeDegrees>-4.41268251277506351470947265625</LongitudeDegrees>
            </Position>
            <AltitudeMeters>200</AltitudeMeters>
            <DistanceMeters>1208.2351423583</DistanceMeters>
          </Trackpoint>
          <Trackpoint>
            <Time>2022-06-16T05:11:09.000Z</Time>
            <Position>
              <LatitudeDegrees>36.768911741673946380615234375</LatitudeDegrees>
              <LongitudeDegrees>-4.41267044283449649810791015625</LongitudeDegrees>
            </Position>
            <AltitudeMeters>200.1999969482421875</AltitudeMeters>
            <DistanceMeters>1209.4741391281</DistanceMeters>
          </Trackpoint>
          <Trackpoint>
            <Time>2022-06-16T05:11:15.000Z</Time>
            <Position>
              <LatitudeDegrees>36.76894417963922023773193359375</LatitudeDegrees>
              <LongitudeDegrees>-4.412611685693264007568359375</LongitudeDegrees>
            </Position>
            <AltitudeMeters>201.8000030517578125</AltitudeMeters>
            <DistanceMeters>1215.835962972</DistanceMeters>
          </Trackpoint>
          <Trackpoint>
            <Time>2022-06-16T05:11:19.000Z</Time>
            <Position>
              <LatitudeDegrees>36.768998242914676666259765625</LatitudeDegrees>
              <LongitudeDegrees>-4.41256298683583736419677734375</LongitudeDegrees>
            </Position>
            <AltitudeMeters>203.600006103515625</AltitudeMeters>
            <DistanceMeters>1223.256569831</DistanceMeters>
          </Trackpoint>
          <Trackpoint>
            <Time>2022-06-16T05:11:29.000Z</Time>
            <Position>
              <LatitudeDegrees>36.769097149372100830078125</LatitudeDegrees>
              <LongitudeDegrees>-4.41254102624952793121337890625</LongitudeDegrees>
            </Position>
            <AltitudeMeters>206.1999969482421875</AltitudeMeters>
            <DistanceMeters>1234.4382708842</DistanceMeters>
          </Trackpoint>
          <Trackpoint>
            <Time>2022-06-16T05:11:35.000Z</Time>
            <Position>
              <LatitudeDegrees>36.769169904291629791259765625</LatitudeDegrees>
              <LongitudeDegrees>-4.41253264434635639190673828125</LongitudeDegrees>
            </Position>
            <AltitudeMeters>208</AltitudeMeters>
            <DistanceMeters>1242.5701372013</DistanceMeters>
          </Trackpoint>
          <Trackpoint>
            <Time>2022-06-16T05:11:39.000Z</Time>
            <Position>
              <LatitudeDegrees>36.7692163400352001190185546875</LatitudeDegrees>
              <LongitudeDegrees>-4.41252862103283405303955078125</LongitudeDegrees>
            </Position>
            <AltitudeMeters>209.1999969482421875</AltitudeMeters>
            <DistanceMeters>1247.7514900428</DistanceMeters>
          </Trackpoint>
          <Trackpoint>
            <Time>2022-06-16T05:11:44.000Z</Time>
            <Position>
              <LatitudeDegrees>36.7692723311483860015869140625</LatitudeDegrees>
              <LongitudeDegrees>-4.41250515170395374298095703125</LongitudeDegrees>
            </Position>
            <AltitudeMeters>210.399993896484375</AltitudeMeters>
            <DistanceMeters>1254.325525779</DistanceMeters>
          </Trackpoint>
          <Trackpoint>
            <Time>2022-06-16T05:11:47.000Z</Time>
            <Position>
              <LatitudeDegrees>36.76931801252067089080810546875</LatitudeDegrees>
              <LongitudeDegrees>-4.412476234138011932373046875</LongitudeDegrees>
            </Position>
            <AltitudeMeters>211.1999969482421875</AltitudeMeters>
            <DistanceMeters>1260.0255446426</DistanceMeters>
          </Trackpoint>
          <Trackpoint>
            <Time>2022-06-16T05:11:49.000Z</Time>
            <Position>
              <LatitudeDegrees>36.769328825175762176513671875</LatitudeDegrees>
              <LongitudeDegrees>-4.4124757312238216400146484375</LongitudeDegrees>
            </Position>
            <AltitudeMeters>211.1999969482421875</AltitudeMeters>
            <DistanceMeters>1261.2275480664</DistanceMeters>
          </Trackpoint>
          <Trackpoint>
            <Time>2022-06-16T05:11:50.000Z</Time>
            <Position>
              <LatitudeDegrees>36.76933779381215572357177734375</LatitudeDegrees>
              <LongitudeDegrees>-4.41247011534869670867919921875</LongitudeDegrees>
            </Position>
            <AltitudeMeters>211.399993896484375</AltitudeMeters>
            <DistanceMeters>1262.3519193139</DistanceMeters>
          </Trackpoint>
          <Trackpoint>
            <Time>2022-06-16T05:11:52.000Z</Time>
            <Position>
              <LatitudeDegrees>36.76935422234237194061279296875</LatitudeDegrees>
              <LongitudeDegrees>-4.4124582968652248382568359375</LongitudeDegrees>
            </Position>
            <AltitudeMeters>211.600006103515625</AltitudeMeters>
            <DistanceMeters>1264.4639935937</DistanceMeters>
          </Trackpoint>
          <Trackpoint>
            <Time>2022-06-16T05:11:59.000Z</Time>
            <Position>
              <LatitudeDegrees>36.76942211575806140899658203125</LatitudeDegrees>
              <LongitudeDegrees>-4.41239132545888423919677734375</LongitudeDegrees>
            </Position>
            <AltitudeMeters>212.600006103515625</AltitudeMeters>
            <DistanceMeters>1274.0950343076</DistanceMeters>
          </Trackpoint>
          <Trackpoint>
            <Time>2022-06-16T05:12:09.000Z</Time>
            <Position>
              <LatitudeDegrees>36.76954415626823902130126953125</LatitudeDegrees>
              <LongitudeDegrees>-4.412324689328670501708984375</LongitudeDegrees>
            </Position>
            <AltitudeMeters>214.1999969482421875</AltitudeMeters>
            <DistanceMeters>1288.9210290735</DistanceMeters>
          </Trackpoint>
          <Trackpoint>
            <Time>2022-06-16T05:12:18.000Z</Time>
            <Position>
              <LatitudeDegrees>36.769655384123325347900390625</LatitudeDegrees>
              <LongitudeDegrees>-4.41228755749762058258056640625</LongitudeDegrees>
            </Position>
            <AltitudeMeters>215</AltitudeMeters>
            <DistanceMeters>1301.736606718</DistanceMeters>
          </Trackpoint>
          <Trackpoint>
            <Time>2022-06-16T05:12:19.000Z</Time>
            <Position>
              <LatitudeDegrees>36.76966510713100433349609375</LatitudeDegrees>
              <LongitudeDegrees>-4.4122816063463687896728515625</LongitudeDegrees>
            </Position>
            <AltitudeMeters>215</AltitudeMeters>
            <DistanceMeters>1302.9423605517</DistanceMeters>
          </Trackpoint>
          <Trackpoint>
            <Time>2022-06-16T05:12:26.000Z</Time>
            <Position>
              <LatitudeDegrees>36.76973124034702777862548828125</LatitudeDegrees>
              <LongitudeDegrees>-4.412259645760059356689453125</LongitudeDegrees>
            </Position>
            <AltitudeMeters>215.600006103515625</AltitudeMeters>
            <DistanceMeters>1310.559923891</DistanceMeters>
          </Trackpoint>
          <Trackpoint>
            <Time>2022-06-16T05:12:29.000Z</Time>
            <Position>
              <LatitudeDegrees>36.76976258866488933563232421875</LatitudeDegrees>
              <LongitudeDegrees>-4.412246905267238616943359375</LongitudeDegrees>
            </Position>
            <AltitudeMeters>215.8000030517578125</AltitudeMeters>
            <DistanceMeters>1314.2304652754</DistanceMeters>
          </Trackpoint>
          <Trackpoint>
            <Time>2022-06-16T05:12:39.000Z</Time>
            <Position>
              <LatitudeDegrees>36.7698738165199756622314453125</LatitudeDegrees>
              <LongitudeDegrees>-4.4122269563376903533935546875</LongitudeDegrees>
            </Position>
            <AltitudeMeters>217.399993896484375</AltitudeMeters>
            <DistanceMeters>1326.7372228153</DistanceMeters>
          </Trackpoint>
          <Trackpoint>
            <Time>2022-06-16T05:12:42.000Z</Time>
            <Position>
              <LatitudeDegrees>36.7699060030281543731689453125</LatitudeDegrees>
              <LongitudeDegrees>-4.412220753729343414306640625</LongitudeDegrees>
            </Position>
            <AltitudeMeters>218</AltitudeMeters>
            <DistanceMeters>1330.3619657339</DistanceMeters>
          </Trackpoint>
          <Trackpoint>
            <Time>2022-06-16T05:12:43.000Z</Time>
            <Position>
              <LatitudeDegrees>36.7699174024164676666259765625</LatitudeDegrees>
              <LongitudeDegrees>-4.41222083754837512969970703125</LongitudeDegrees>
            </Position>
            <AltitudeMeters>218.1999969482421875</AltitudeMeters>
            <DistanceMeters>1331.6333365231</DistanceMeters>
          </Trackpoint>
          <Trackpoint>
            <Time>2022-06-16T05:12:49.000Z</Time>
            <Position>
              <LatitudeDegrees>36.7699881456792354583740234375</LatitudeDegrees>
              <LongitudeDegrees>-4.4122137129306793212890625</LongitudeDegrees>
            </Position>
            <AltitudeMeters>219.399993896484375</AltitudeMeters>
            <DistanceMeters>1339.5331376791</DistanceMeters>
          </Trackpoint>
          <Trackpoint>
            <Time>2022-06-16T05:12:59.000Z</Time>
            <Position>
              <LatitudeDegrees>36.77010373212397098541259765625</LatitudeDegrees>
              <LongitudeDegrees>-4.412191249430179595947265625</LongitudeDegrees>
            </Position>
            <AltitudeMeters>221.600006103515625</AltitudeMeters>
            <DistanceMeters>1352.5531847251</DistanceMeters>
          </Trackpoint>
          <Trackpoint>
            <Time>2022-06-16T05:13:09.000Z</Time>
            <Position>
              <LatitudeDegrees>36.7702164687216281890869140625</LatitudeDegrees>
              <LongitudeDegrees>-4.4121357612311840057373046875</LongitudeDegrees>
            </Position>
            <AltitudeMeters>223.399993896484375</AltitudeMeters>
            <DistanceMeters>1366.040954001</DistanceMeters>
          </Trackpoint>
          <Trackpoint>
            <Time>2022-06-16T05:13:19.000Z</Time>
            <Position>
              <LatitudeDegrees>36.77034865133464336395263671875</LatitudeDegrees>
              <LongitudeDegrees>-4.41204280592501163482666015625</LongitudeDegrees>
            </Position>
            <AltitudeMeters>225.1999969482421875</AltitudeMeters>
            <DistanceMeters>1382.9265888342</DistanceMeters>
          </Trackpoint>
          <Trackpoint>
            <Time>2022-06-16T05:13:29.000Z</Time>
            <Position>
              <LatitudeDegrees>36.7704449594020843505859375</LatitudeDegrees>
              <LongitudeDegrees>-4.41196569241583347320556640625</LongitudeDegrees>
            </Position>
            <AltitudeMeters>225.8000030517578125</AltitudeMeters>
            <DistanceMeters>1395.6612322472</DistanceMeters>
          </Trackpoint>
          <Trackpoint>
            <Time>2022-06-16T05:13:32.000Z</Time>
            <Position>
              <LatitudeDegrees>36.770476810634136199951171875</LatitudeDegrees>
              <LongitudeDegrees>-4.41194423474371433258056640625</LongitudeDegrees>
            </Position>
            <AltitudeMeters>226</AltitudeMeters>
            <DistanceMeters>1399.689513192</DistanceMeters>
          </Trackpoint>
          <Trackpoint>
            <Time>2022-06-16T05:13:39.000Z</Time>
            <Position>
              <LatitudeDegrees>36.7705576121807098388671875</LatitudeDegrees>
              <LongitudeDegrees>-4.41190517507493495941162109375</LongitudeDegrees>
            </Position>
            <AltitudeMeters>226.8000030517578125</AltitudeMeters>
            <DistanceMeters>1409.3336713912</DistanceMeters>
          </Trackpoint>
          <Trackpoint>
            <Time>2022-06-16T05:13:49.000Z</Time>
            <Position>
              <LatitudeDegrees>36.7706885375082492828369140625</LatitudeDegrees>
              <LongitudeDegrees>-4.4119171611964702606201171875</LongitudeDegrees>
            </Position>
            <AltitudeMeters>229.399993896484375</AltitudeMeters>
            <DistanceMeters>1423.9446274589</DistanceMeters>
          </Trackpoint>
          <Trackpoint>
            <Time>2022-06-16T05:13:59.000Z</Time>
            <Position>
              <LatitudeDegrees>36.77081049419939517974853515625</LatitudeDegrees>
              <LongitudeDegrees>-4.4119366072118282318115234375</LongitudeDegrees>
            </Position>
            <AltitudeMeters>232.8000030517578125</AltitudeMeters>
            <DistanceMeters>1437.6284743282</DistanceMeters>
          </Trackpoint>
          <Trackpoint>
            <Time>2022-06-16T05:14:08.000Z</Time>
            <Position>
              <LatitudeDegrees>36.77091057412326335906982421875</LatitudeDegrees>
              <LongitudeDegrees>-4.41189327277243137359619140625</LongitudeDegrees>
            </Position>
            <AltitudeMeters>234.8000030517578125</AltitudeMeters>
            <DistanceMeters>1449.418681993</DistanceMeters>
          </Trackpoint>
          <Trackpoint>
            <Time>2022-06-16T05:14:09.000Z</Time>
            <Position>
              <LatitudeDegrees>36.7709171958267688751220703125</LatitudeDegrees>
              <LongitudeDegrees>-4.41188120283186435699462890625</LongitudeDegrees>
            </Position>
            <AltitudeMeters>234.8000030517578125</AltitudeMeters>
            <DistanceMeters>1450.721622656</DistanceMeters>
          </Trackpoint>
          <Trackpoint>
            <Time>2022-06-16T05:14:16.000Z</Time>
            <Position>
              <LatitudeDegrees>36.7709760367870330810546875</LatitudeDegrees>
              <LongitudeDegrees>-4.41177341155707836151123046875</LongitudeDegrees>
            </Position>
            <AltitudeMeters>234.8000030517578125</AltitudeMeters>
            <DistanceMeters>1462.3510446065</DistanceMeters>
          </Trackpoint>
          <Trackpoint>
            <Time>2022-06-16T05:14:19.000Z</Time>
            <Position>
              <LatitudeDegrees>36.7709849216043949127197265625</LatitudeDegrees>
              <LongitudeDegrees>-4.411731921136379241943359375</LongitudeDegrees>
            </Position>
            <AltitudeMeters>234.600006103515625</AltitudeMeters>
            <DistanceMeters>1466.1805150849</DistanceMeters>
          </Trackpoint>
          <Trackpoint>
            <Time>2022-06-16T05:14:20.000Z</Time>
            <Position>
              <LatitudeDegrees>36.770985759794712066650390625</LatitudeDegrees>
              <LongitudeDegrees>-4.4117166660726070404052734375</LongitudeDegrees>
            </Position>
            <AltitudeMeters>234.399993896484375</AltitudeMeters>
            <DistanceMeters>1467.5444050172</DistanceMeters>
          </Trackpoint>
          <Trackpoint>
            <Time>2022-06-16T05:14:29.000Z</Time>
            <Position>
              <LatitudeDegrees>36.77100621163845062255859375</LatitudeDegrees>
              <LongitudeDegrees>-4.4115822203457355499267578125</LongitudeDegrees>
            </Position>
            <AltitudeMeters>233.8000030517578125</AltitudeMeters>
            <DistanceMeters>1479.7456279172</DistanceMeters>
          </Trackpoint>
          <Trackpoint>
            <Time>2022-06-16T05:14:36.000Z</Time>
            <Position>
              <LatitudeDegrees>36.77105608396232128143310546875</LatitudeDegrees>
              <LongitudeDegrees>-4.411478452384471893310546875</LongitudeDegrees>
            </Position>
            <AltitudeMeters>234.600006103515625</AltitudeMeters>
            <DistanceMeters>1490.5352407701</DistanceMeters>
          </Trackpoint>
          <Trackpoint>
            <Time>2022-06-16T05:14:39.000Z</Time>
            <Position>
              <LatitudeDegrees>36.77108827047049999237060546875</LatitudeDegrees>
              <LongitudeDegrees>-4.41143930889666080474853515625</LongitudeDegrees>
            </Position>
            <AltitudeMeters>235.1999969482421875</AltitudeMeters>
            <DistanceMeters>1495.5365717679</DistanceMeters>
          </Trackpoint>
          <Trackpoint>
            <Time>2022-06-16T05:14:41.000Z</Time>
            <Position>
              <LatitudeDegrees>36.77110235206782817840576171875</LatitudeDegrees>
              <LongitudeDegrees>-4.4114152528345584869384765625</LongitudeDegrees>
            </Position>
            <AltitudeMeters>235.399993896484375</AltitudeMeters>
            <DistanceMeters>1498.1905234679</DistanceMeters>
          </Trackpoint>
          <Trackpoint>
            <Time>2022-06-16T05:14:49.000Z</Time>
            <Position>
              <LatitudeDegrees>36.77119396626949310302734375</LatitudeDegrees>
              <LongitudeDegrees>-4.411324560642242431640625</LongitudeDegrees>
            </Position>
            <AltitudeMeters>237</AltitudeMeters>
            <DistanceMeters>1511.2039801044</DistanceMeters>
          </Trackpoint>
          <Trackpoint>
            <Time>2022-06-16T05:14:59.000Z</Time>
            <Position>
              <LatitudeDegrees>36.77127937786281108856201171875</LatitudeDegrees>
              <LongitudeDegrees>-4.41124141216278076171875</LongitudeDegrees>
            </Position>
            <AltitudeMeters>238.1999969482421875</AltitudeMeters>
            <DistanceMeters>1523.2592714858</DistanceMeters>
          </Trackpoint>
          <Trackpoint>
            <Time>2022-06-16T05:15:08.000Z</Time>
            <Position>
              <LatitudeDegrees>36.771353222429752349853515625</LatitudeDegrees>
              <LongitudeDegrees>-4.41119053401052951812744140625</LongitudeDegrees>
            </Position>
            <AltitudeMeters>239.399993896484375</AltitudeMeters>
            <DistanceMeters>1532.6472183376</DistanceMeters>
          </Trackpoint>
          <Trackpoint>
            <Time>2022-06-16T05:15:09.000Z</Time>
            <Position>
              <LatitudeDegrees>36.77136252634227275848388671875</LatitudeDegrees>
              <LongitudeDegrees>-4.41118231974542140960693359375</LongitudeDegrees>
            </Position>
            <AltitudeMeters>239.600006103515625</AltitudeMeters>
            <DistanceMeters>1533.9150328379</DistanceMeters>
          </Trackpoint>
          <Trackpoint>
            <Time>2022-06-16T05:15:10.000Z</Time>
            <Position>
              <LatitudeDegrees>36.77137325517833232879638671875</LatitudeDegrees>
              <LongitudeDegrees>-4.411174692213535308837890625</LongitudeDegrees>
            </Position>
            <AltitudeMeters>239.600006103515625</AltitudeMeters>
            <DistanceMeters>1535.2855276027</DistanceMeters>
          </Trackpoint>
          <Trackpoint>
            <Time>2022-06-16T05:15:14.000Z</Time>
            <Position>
              <LatitudeDegrees>36.77141918800771236419677734375</LatitudeDegrees>
              <LongitudeDegrees>-4.4111480377614498138427734375</LongitudeDegrees>
            </Position>
            <AltitudeMeters>240.399993896484375</AltitudeMeters>
            <DistanceMeters>1540.9234234054</DistanceMeters>
          </Trackpoint>
          <Trackpoint>
            <Time>2022-06-16T05:15:19.000Z</Time>
            <Position>
              <LatitudeDegrees>36.7714807949960231781005859375</LatitudeDegrees>
              <LongitudeDegrees>-4.41111828200519084930419921875</LongitudeDegrees>
            </Position>
            <AltitudeMeters>241.600006103515625</AltitudeMeters>
            <DistanceMeters>1548.2767966277</DistanceMeters>
          </Trackpoint>
          <Trackpoint>
            <Time>2022-06-16T05:15:29.000Z</Time>
            <Position>
              <LatitudeDegrees>36.77158498205244541168212890625</LatitudeDegrees>
              <LongitudeDegrees>-4.41107100807130336761474609375</LongitudeDegrees>
            </Position>
            <AltitudeMeters>243.600006103515625</AltitudeMeters>
            <DistanceMeters>1560.6156413405</DistanceMeters>
          </Trackpoint>
          <Trackpoint>
            <Time>2022-06-16T05:15:39.000Z</Time>
            <Position>
              <LatitudeDegrees>36.77167751826345920562744140625</LatitudeDegrees>
              <LongitudeDegrees>-4.4110622070729732513427734375</LongitudeDegrees>
            </Position>
            <AltitudeMeters>245.600006103515625</AltitudeMeters>
            <DistanceMeters>1570.9447435853</DistanceMeters>
          </Trackpoint>
          <Trackpoint>
            <Time>2022-06-16T05:15:46.000Z</Time>
            <Position>
              <LatitudeDegrees>36.77177139557898044586181640625</LatitudeDegrees>
              <LongitudeDegrees>-4.41104267723858356475830078125</LongitudeDegrees>
            </Position>
            <AltitudeMeters>247</AltitudeMeters>
            <DistanceMeters>1581.537558598</DistanceMeters>
          </Trackpoint>
          <Trackpoint>
            <Time>2022-06-16T05:15:49.000Z</Time>
            <Position>
              <LatitudeDegrees>36.77180148661136627197265625</LatitudeDegrees>
              <LongitudeDegrees>-4.4110434316098690032958984375</LongitudeDegrees>
            </Position>
            <AltitudeMeters>247.1999969482421875</AltitudeMeters>
            <DistanceMeters>1584.8891873209</DistanceMeters>
          </Trackpoint>
          <Trackpoint>
            <Time>2022-06-16T05:15:59.000Z</Time>
            <Position>
              <LatitudeDegrees>36.77190919406712055206298828125</LatitudeDegrees>
              <LongitudeDegrees>-4.41102222539484500885009765625</LongitudeDegrees>
            </Position>
            <AltitudeMeters>248.1999969482421875</AltitudeMeters>
            <DistanceMeters>1597.0258510698</DistanceMeters>
          </Trackpoint>
          <Trackpoint>
            <Time>2022-06-16T05:16:09.000Z</Time>
            <Position>
              <LatitudeDegrees>36.77201874554157257080078125</LatitudeDegrees>
              <LongitudeDegrees>-4.41095106303691864013671875</LongitudeDegrees>
            </Position>
            <AltitudeMeters>248.600006103515625</AltitudeMeters>
            <DistanceMeters>1610.7712608286</DistanceMeters>
          </Trackpoint>
          <Trackpoint>
            <Time>2022-06-16T05:16:19.000Z</Time>
            <Position>
              <LatitudeDegrees>36.77212561480700969696044921875</LatitudeDegrees>
              <LongitudeDegrees>-4.4108841754496097564697265625</LongitudeDegrees>
            </Position>
            <AltitudeMeters>249</AltitudeMeters>
            <DistanceMeters>1624.0773762962</DistanceMeters>
          </Trackpoint>
          <Trackpoint>
            <Time>2022-06-16T05:16:28.000Z</Time>
            <Position>
              <LatitudeDegrees>36.7722152173519134521484375</LatitudeDegrees>
              <LongitudeDegrees>-4.4108342193067073822021484375</LongitudeDegrees>
            </Position>
            <AltitudeMeters>249.399993896484375</AltitudeMeters>
            <DistanceMeters>1634.9996626823</DistanceMeters>
          </Trackpoint>
          <Trackpoint>
            <Time>2022-06-16T05:16:29.000Z</Time>
            <Position>
              <LatitudeDegrees>36.77223105914890766143798828125</LatitudeDegrees>
              <LongitudeDegrees>-4.41083296202123165130615234375</LongitudeDegrees>
            </Position>
            <AltitudeMeters>249.600006103515625</AltitudeMeters>
            <DistanceMeters>1636.7621456742</DistanceMeters>
          </Trackpoint>
          <Trackpoint>
            <Time>2022-06-16T05:16:39.000Z</Time>
            <Position>
              <LatitudeDegrees>36.7723595537245273590087890625</LatitudeDegrees>
              <LongitudeDegrees>-4.41078200004994869232177734375</LongitudeDegrees>
            </Position>
            <AltitudeMeters>251</AltitudeMeters>
            <DistanceMeters>1651.7679440937</DistanceMeters>
          </Trackpoint>
          <Trackpoint>
            <Time>2022-06-16T05:16:49.000Z</Time>
            <Position>
              <LatitudeDegrees>36.7724815942347049713134765625</LatitudeDegrees>
              <LongitudeDegrees>-4.4107239134609699249267578125</LongitudeDegrees>
            </Position>
            <AltitudeMeters>253</AltitudeMeters>
            <DistanceMeters>1666.3054785853</DistanceMeters>
          </Trackpoint>
          <Trackpoint>
            <Time>2022-06-16T05:16:59.000Z</Time>
            <Position>
              <LatitudeDegrees>36.77258075214922428131103515625</LatitudeDegrees>
              <LongitudeDegrees>-4.4106612168252468109130859375</LongitudeDegrees>
            </Position>
            <AltitudeMeters>254.600006103515625</AltitudeMeters>
            <DistanceMeters>1678.6768473717</DistanceMeters>
          </Trackpoint>
          <Trackpoint>
            <Time>2022-06-16T05:17:02.000Z</Time>
            <Position>
              <LatitudeDegrees>36.772617883980274200439453125</LatitudeDegrees>
              <LongitudeDegrees>-4.410650990903377532958984375</LongitudeDegrees>
            </Position>
            <AltitudeMeters>255.1999969482421875</AltitudeMeters>
            <DistanceMeters>1682.909538202</DistanceMeters>
          </Trackpoint>
          <Trackpoint>
            <Time>2022-06-16T05:17:09.000Z</Time>
            <Position>
              <LatitudeDegrees>36.77269038744270801544189453125</LatitudeDegrees>
              <LongitudeDegrees>-4.4105824269354343414306640625</LongitudeDegrees>
            </Position>
            <AltitudeMeters>256</AltitudeMeters>
            <DistanceMeters>1693.0333402368</DistanceMeters>
          </Trackpoint>
          <Trackpoint>
            <Time>2022-06-16T05:17:19.000Z</Time>
            <Position>
              <LatitudeDegrees>36.7727746255695819854736328125</LatitudeDegrees>
              <LongitudeDegrees>-4.41045661456882953643798828125</LongitudeDegrees>
            </Position>
            <AltitudeMeters>257.20001220703125</AltitudeMeters>
            <DistanceMeters>1707.6526373907</DistanceMeters>
          </Trackpoint>
          <Trackpoint>
            <Time>2022-06-16T05:17:25.000Z</Time>
            <Position>
              <LatitudeDegrees>36.77282667718827724456787109375</LatitudeDegrees>
              <LongitudeDegrees>-4.41036290489137172698974609375</LongitudeDegrees>
            </Position>
            <AltitudeMeters>258.399993896484375</AltitudeMeters>
            <DistanceMeters>1717.8196076894</DistanceMeters>
          </Trackpoint>
          <Trackpoint>
            <Time>2022-06-16T05:17:26.000Z</Time>
            <Position>
              <LatitudeDegrees>36.77284075878560543060302734375</LatitudeDegrees>
              <LongitudeDegrees>-4.4103510864078998565673828125</LongitudeDegrees>
            </Position>
            <AltitudeMeters>258.79998779296875</AltitudeMeters>
            <DistanceMeters>1719.7106154291</DistanceMeters>
          </Trackpoint>
          <Trackpoint>
            <Time>2022-06-16T05:17:29.000Z</Time>
            <Position>
              <LatitudeDegrees>36.77285785786807537078857421875</LatitudeDegrees>
              <LongitudeDegrees>-4.410312362015247344970703125</LongitudeDegrees>
            </Position>
            <AltitudeMeters>259</AltitudeMeters>
            <DistanceMeters>1723.6516472082</DistanceMeters>
          </Trackpoint>
          <Trackpoint>
            <Time>2022-06-16T05:17:34.000Z</Time>
            <Position>
              <LatitudeDegrees>36.7729125916957855224609375</LatitudeDegrees>
              <LongitudeDegrees>-4.410258047282695770263671875</LongitudeDegrees>
            </Position>
            <AltitudeMeters>259.600006103515625</AltitudeMeters>
            <DistanceMeters>1731.4334010358</DistanceMeters>
          </Trackpoint>
          <Trackpoint>
            <Time>2022-06-16T05:17:36.000Z</Time>
            <Position>
              <LatitudeDegrees>36.77294452674686908721923828125</LatitudeDegrees>
              <LongitudeDegrees>-4.41024295985698699951171875</LongitudeDegrees>
            </Position>
            <AltitudeMeters>260</AltitudeMeters>
            <DistanceMeters>1735.2320931999</DistanceMeters>
          </Trackpoint>
          <Trackpoint>
            <Time>2022-06-16T05:17:39.000Z</Time>
            <Position>
              <LatitudeDegrees>36.77298970520496368408203125</LatitudeDegrees>
              <LongitudeDegrees>-4.41022192128002643585205078125</LongitudeDegrees>
            </Position>
            <AltitudeMeters>260.600006103515625</AltitudeMeters>
            <DistanceMeters>1740.5975273578</DistanceMeters>
          </Trackpoint>
          <Trackpoint>
            <Time>2022-06-16T05:17:48.000Z</Time>
            <Position>
              <LatitudeDegrees>36.77309690974652767181396484375</LatitudeDegrees>
              <LongitudeDegrees>-4.41018856130540370941162109375</LongitudeDegrees>
            </Position>
            <AltitudeMeters>262</AltitudeMeters>
            <DistanceMeters>1752.8945863611</DistanceMeters>
          </Trackpoint>
          <Trackpoint>
            <Time>2022-06-16T05:17:49.000Z</Time>
            <Position>
              <LatitudeDegrees>36.77310897968709468841552734375</LatitudeDegrees>
              <LongitudeDegrees>-4.41018663346767425537109375</LongitudeDegrees>
            </Position>
            <AltitudeMeters>262.20001220703125</AltitudeMeters>
            <DistanceMeters>1754.2518393201</DistanceMeters>
          </Trackpoint>
          <Trackpoint>
            <Time>2022-06-16T05:17:59.000Z</Time>
            <Position>
              <LatitudeDegrees>36.77321274764835834503173828125</LatitudeDegrees>
              <LongitudeDegrees>-4.41010214388370513916015625</LongitudeDegrees>
            </Position>
            <AltitudeMeters>264</AltitudeMeters>
            <DistanceMeters>1768.0408671902</DistanceMeters>
          </Trackpoint>
          <Trackpoint>
            <Time>2022-06-16T05:18:05.000Z</Time>
            <Position>
              <LatitudeDegrees>36.77327007986605167388916015625</LatitudeDegrees>
              <LongitudeDegrees>-4.4100131280720233917236328125</LongitudeDegrees>
            </Position>
            <AltitudeMeters>265.20001220703125</AltitudeMeters>
            <DistanceMeters>1778.223368736</DistanceMeters>
          </Trackpoint>
          <Trackpoint>
            <Time>2022-06-16T05:18:09.000Z</Time>
            <Position>
              <LatitudeDegrees>36.77328734658658504486083984375</LatitudeDegrees>
              <LongitudeDegrees>-4.40998789854347705841064453125</LongitudeDegrees>
            </Position>
            <AltitudeMeters>265.600006103515625</AltitudeMeters>
            <DistanceMeters>1781.1799062375</DistanceMeters>
          </Trackpoint>
          <Trackpoint>
            <Time>2022-06-16T05:18:19.000Z</Time>
            <Position>
              <LatitudeDegrees>36.7733734287321567535400390625</LatitudeDegrees>
              <LongitudeDegrees>-4.40987139008939266204833984375</LongitudeDegrees>
            </Position>
            <AltitudeMeters>267.399993896484375</AltitudeMeters>
            <DistanceMeters>1795.3111167476</DistanceMeters>
          </Trackpoint>
          <Trackpoint>
            <Time>2022-06-16T05:18:29.000Z</Time>
            <Position>
              <LatitudeDegrees>36.77346068434417247772216796875</LatitudeDegrees>
              <LongitudeDegrees>-4.4097573123872280120849609375</LongitudeDegrees>
            </Position>
            <AltitudeMeters>269.20001220703125</AltitudeMeters>
            <DistanceMeters>1809.3737862709</DistanceMeters>
          </Trackpoint>
          <Trackpoint>
            <Time>2022-06-16T05:18:39.000Z</Time>
            <Position>
              <LatitudeDegrees>36.77352991886436939239501953125</LatitudeDegrees>
              <LongitudeDegrees>-4.40965496934950351715087890625</LongitudeDegrees>
            </Position>
            <AltitudeMeters>270.600006103515625</AltitudeMeters>
            <DistanceMeters>1821.3165689212</DistanceMeters>
          </Trackpoint>
          <Trackpoint>
            <Time>2022-06-16T05:18:49.000Z</Time>
            <Position>
              <LatitudeDegrees>36.77360057830810546875</LatitudeDegrees>
              <LongitudeDegrees>-4.40954684279859066009521484375</LongitudeDegrees>
            </Position>
            <AltitudeMeters>272.20001220703125</AltitudeMeters>
            <DistanceMeters>1833.7574495271</DistanceMeters>
          </Trackpoint>
          <Trackpoint>
            <Time>2022-06-16T05:18:59.000Z</Time>
            <Position>
              <LatitudeDegrees>36.77368045784533023834228515625</LatitudeDegrees>
              <LongitudeDegrees>-4.40942212007939815521240234375</LongitudeDegrees>
            </Position>
            <AltitudeMeters>274</AltitudeMeters>
            <DistanceMeters>1847.9943415988</DistanceMeters>
          </Trackpoint>
          <Trackpoint>
            <Time>2022-06-16T05:19:05.000Z</Time>
            <Position>
              <LatitudeDegrees>36.773710884153842926025390625</LatitudeDegrees>
              <LongitudeDegrees>-4.40936051309108734130859375</LongitudeDegrees>
            </Position>
            <AltitudeMeters>274.79998779296875</AltitudeMeters>
            <DistanceMeters>1854.4470683467</DistanceMeters>
          </Trackpoint>
          <Trackpoint>
            <Time>2022-06-16T05:19:09.000Z</Time>
            <Position>
              <LatitudeDegrees>36.773710213601589202880859375</LatitudeDegrees>
              <LongitudeDegrees>-4.40932304598391056060791015625</LongitudeDegrees>
            </Position>
            <AltitudeMeters>275.20001220703125</AltitudeMeters>
            <DistanceMeters>1857.7879027462</DistanceMeters>
          </Trackpoint>
          <Trackpoint>
            <Time>2022-06-16T05:19:10.000Z</Time>
            <Position>
              <LatitudeDegrees>36.77370878867805004119873046875</LatitudeDegrees>
              <LongitudeDegrees>-4.4093080423772335052490234375</LongitudeDegrees>
            </Position>
            <AltitudeMeters>275.399993896484375</AltitudeMeters>
            <DistanceMeters>1859.1351389412</DistanceMeters>
          </Trackpoint>
          <Trackpoint>
            <Time>2022-06-16T05:19:19.000Z</Time>
            <Position>
              <LatitudeDegrees>36.77367643453180789947509765625</LatitudeDegrees>
              <LongitudeDegrees>-4.40918323583900928497314453125</LongitudeDegrees>
            </Position>
            <AltitudeMeters>276.399993896484375</AltitudeMeters>
            <DistanceMeters>1870.8307619675</DistanceMeters>
          </Trackpoint>
          <Trackpoint>
            <Time>2022-06-16T05:19:20.000Z</Time>
            <Position>
              <LatitudeDegrees>36.77367366850376129150390625</LatitudeDegrees>
              <LongitudeDegrees>-4.40917200408875942230224609375</LongitudeDegrees>
            </Position>
            <AltitudeMeters>276.600006103515625</AltitudeMeters>
            <DistanceMeters>1871.880366334</DistanceMeters>
          </Trackpoint>
          <Trackpoint>
            <Time>2022-06-16T05:19:24.000Z</Time>
            <Position>
              <LatitudeDegrees>36.773650534451007843017578125</LatitudeDegrees>
              <LongitudeDegrees>-4.40914618782699108123779296875</LongitudeDegrees>
            </Position>
            <AltitudeMeters>277.20001220703125</AltitudeMeters>
            <DistanceMeters>1875.3328583189</DistanceMeters>
          </Trackpoint>
          <Trackpoint>
            <Time>2022-06-16T05:19:25.000Z</Time>
            <Position>
              <LatitudeDegrees>36.773640811443328857421875</LatitudeDegrees>
              <LongitudeDegrees>-4.40913856029510498046875</LongitudeDegrees>
            </Position>
            <AltitudeMeters>277.399993896484375</AltitudeMeters>
            <DistanceMeters>1876.614838784</DistanceMeters>
          </Trackpoint>
          <Trackpoint>
            <Time>2022-06-16T05:19:26.000Z</Time>
            <Position>
              <LatitudeDegrees>36.773640811443328857421875</LatitudeDegrees>
              <LongitudeDegrees>-4.40913856029510498046875</LongitudeDegrees>
            </Position>
            <AltitudeMeters>277.399993896484375</AltitudeMeters>
            <DistanceMeters>1876.614838784</DistanceMeters>
          </Trackpoint>
          <Trackpoint>
            <Time>2022-06-16T05:19:27.000Z</Time>
            <Position>
              <LatitudeDegrees>36.77362538874149322509765625</LatitudeDegrees>
              <LongitudeDegrees>-4.40912581980228424072265625</LongitudeDegrees>
            </Position>
            <AltitudeMeters>278</AltitudeMeters>
            <DistanceMeters>1878.6749688597</DistanceMeters>
          </Trackpoint>
          <Trackpoint>
            <Time>2022-06-16T05:19:29.000Z</Time>
            <Position>
              <LatitudeDegrees>36.77360854111611843109130859375</LatitudeDegrees>
              <LongitudeDegrees>-4.40911768935620784759521484375</LongitudeDegrees>
            </Position>
            <AltitudeMeters>278.399993896484375</AltitudeMeters>
            <DistanceMeters>1880.6863052927</DistanceMeters>
          </Trackpoint>
          <Trackpoint>
            <Time>2022-06-16T05:19:33.000Z</Time>
            <Position>
              <LatitudeDegrees>36.773576773703098297119140625</LatitudeDegrees>
              <LongitudeDegrees>-4.40909455530345439910888671875</LongitudeDegrees>
            </Position>
            <AltitudeMeters>279.399993896484375</AltitudeMeters>
            <DistanceMeters>1884.7790784117</DistanceMeters>
          </Trackpoint>
          <Trackpoint>
            <Time>2022-06-16T05:19:34.000Z</Time>
            <Position>
              <LatitudeDegrees>36.77356881089508533477783203125</LatitudeDegrees>
              <LongitudeDegrees>-4.4090867601335048675537109375</LongitudeDegrees>
            </Position>
            <AltitudeMeters>279.600006103515625</AltitudeMeters>
            <DistanceMeters>1885.9034496592</DistanceMeters>
          </Trackpoint>
          <Trackpoint>
            <Time>2022-06-16T05:19:35.000Z</Time>
            <Position>
              <LatitudeDegrees>36.77355741150677204132080078125</LatitudeDegrees>
              <LongitudeDegrees>-4.4090746901929378509521484375</LongitudeDegrees>
            </Position>
            <AltitudeMeters>280</AltitudeMeters>
            <DistanceMeters>1887.5630198793</DistanceMeters>
          </Trackpoint>
          <Trackpoint>
            <Time>2022-06-16T05:19:39.000Z</Time>
            <Position>
              <LatitudeDegrees>36.77353595383465290069580078125</LatitudeDegrees>
              <LongitudeDegrees>-4.40903034992516040802001953125</LongitudeDegrees>
            </Position>
            <AltitudeMeters>281.600006103515625</AltitudeMeters>
            <DistanceMeters>1892.1813573031</DistanceMeters>
          </Trackpoint>
          <Trackpoint>
            <Time>2022-06-16T05:19:40.000Z</Time>
            <Position>
              <LatitudeDegrees>36.77352841012179851531982421875</LatitudeDegrees>
              <LongitudeDegrees>-4.4089861772954463958740234375</LongitudeDegrees>
            </Position>
            <AltitudeMeters>283.399993896484375</AltitudeMeters>
            <DistanceMeters>1896.2085172569</DistanceMeters>
          </Trackpoint>
          <Trackpoint>
            <Time>2022-06-16T05:19:43.000Z</Time>
            <Position>
              <LatitudeDegrees>36.7735440842807292938232421875</LatitudeDegrees>
              <LongitudeDegrees>-4.4089543260633945465087890625</LongitudeDegrees>
            </Position>
            <AltitudeMeters>284.20001220703125</AltitudeMeters>
            <DistanceMeters>1899.5412329703</DistanceMeters>
          </Trackpoint>
          <Trackpoint>
            <Time>2022-06-16T05:19:48.000Z</Time>
            <Position>
              <LatitudeDegrees>36.7735658772289752960205078125</LatitudeDegrees>
              <LongitudeDegrees>-4.40894803963601589202880859375</LongitudeDegrees>
            </Position>
            <AltitudeMeters>284.20001220703125</AltitudeMeters>
            <DistanceMeters>1902.0301348246</DistanceMeters>
          </Trackpoint>
          <Trackpoint>
            <Time>2022-06-16T05:19:49.000Z</Time>
            <Position>
              <LatitudeDegrees>36.773571074008941650390625</LatitudeDegrees>
              <LongitudeDegrees>-4.4089489616453647613525390625</LongitudeDegrees>
            </Position>
            <AltitudeMeters>284.20001220703125</AltitudeMeters>
            <DistanceMeters>1902.6159188333</DistanceMeters>
          </Trackpoint>
          <Trackpoint>
            <Time>2022-06-16T05:19:59.000Z</Time>
            <Position>
              <LatitudeDegrees>36.7736582458019256591796875</LatitudeDegrees>
              <LongitudeDegrees>-4.408993385732173919677734375</LongitudeDegrees>
            </Position>
            <AltitudeMeters>282</AltitudeMeters>
            <DistanceMeters>1913.0956034522</DistanceMeters>
          </Trackpoint>
          <Trackpoint>
            <Time>2022-06-16T05:20:06.000Z</Time>
            <Position>
              <LatitudeDegrees>36.77372957579791545867919921875</LatitudeDegrees>
              <LongitudeDegrees>-4.40900805406272411346435546875</LongitudeDegrees>
            </Position>
            <AltitudeMeters>281.20001220703125</AltitudeMeters>
            <DistanceMeters>1921.1409491844</DistanceMeters>
          </Trackpoint>
          <Trackpoint>
            <Time>2022-06-16T05:20:09.000Z</Time>
            <Position>
              <LatitudeDegrees>36.77375371567904949188232421875</LatitudeDegrees>
              <LongitudeDegrees>-4.409016184508800506591796875</LongitudeDegrees>
            </Position>
            <AltitudeMeters>280.79998779296875</AltitudeMeters>
            <DistanceMeters>1923.92443721</DistanceMeters>
          </Trackpoint>
          <Trackpoint>
            <Time>2022-06-16T05:20:11.000Z</Time>
            <Position>
              <LatitudeDegrees>36.77376880310475826263427734375</LatitudeDegrees>
              <LongitudeDegrees>-4.40902029164135456085205078125</LongitudeDegrees>
            </Position>
            <AltitudeMeters>280.600006103515625</AltitudeMeters>
            <DistanceMeters>1925.6454442041</DistanceMeters>
          </Trackpoint>
          <Trackpoint>
            <Time>2022-06-16T05:20:19.000Z</Time>
            <Position>
              <LatitudeDegrees>36.77382311783730983734130859375</LatitudeDegrees>
              <LongitudeDegrees>-4.409016184508800506591796875</LongitudeDegrees>
            </Position>
            <AltitudeMeters>280.79998779296875</AltitudeMeters>
            <DistanceMeters>1931.7018598533</DistanceMeters>
          </Trackpoint>
          <Trackpoint>
            <Time>2022-06-16T05:20:27.000Z</Time>
            <Position>
              <LatitudeDegrees>36.773892603814601898193359375</LatitudeDegrees>
              <LongitudeDegrees>-4.40902523696422576904296875</LongitudeDegrees>
            </Position>
            <AltitudeMeters>281.399993896484375</AltitudeMeters>
            <DistanceMeters>1939.4778094331</DistanceMeters>
          </Trackpoint>
          <Trackpoint>
            <Time>2022-06-16T05:20:29.000Z</Time>
            <Position>
              <LatitudeDegrees>36.77390006370842456817626953125</LatitudeDegrees>
              <LongitudeDegrees>-4.4090136699378490447998046875</LongitudeDegrees>
            </Position>
            <AltitudeMeters>281.600006103515625</AltitudeMeters>
            <DistanceMeters>1940.8047852832</DistanceMeters>
          </Trackpoint>
          <Trackpoint>
            <Time>2022-06-16T05:20:34.000Z</Time>
            <Position>
              <LatitudeDegrees>36.7739259637892246246337890625</LatitudeDegrees>
              <LongitudeDegrees>-4.40896865911781787872314453125</LongitudeDegrees>
            </Position>
            <AltitudeMeters>282.600006103515625</AltitudeMeters>
            <DistanceMeters>1945.7461744304</DistanceMeters>
          </Trackpoint>
          <Trackpoint>
            <Time>2022-06-16T05:20:38.000Z</Time>
            <Position>
              <LatitudeDegrees>36.7739410512149333953857421875</LatitudeDegrees>
              <LongitudeDegrees>-4.4089425913989543914794921875</LongitudeDegrees>
            </Position>
            <AltitudeMeters>283.399993896484375</AltitudeMeters>
            <DistanceMeters>1948.6127698961</DistanceMeters>
          </Trackpoint>
          <Trackpoint>
            <Time>2022-06-16T05:20:39.000Z</Time>
            <Position>
              <LatitudeDegrees>36.77394214086234569549560546875</LatitudeDegrees>
              <LongitudeDegrees>-4.4089348800480365753173828125</LongitudeDegrees>
            </Position>
            <AltitudeMeters>283.399993896484375</AltitudeMeters>
            <DistanceMeters>1949.3110707825</DistanceMeters>
          </Trackpoint>
          <Trackpoint>
            <Time>2022-06-16T05:20:41.000Z</Time>
            <Position>
              <LatitudeDegrees>36.77394482307136058807373046875</LatitudeDegrees>
              <LongitudeDegrees>-4.4089261628687381744384765625</LongitudeDegrees>
            </Position>
            <AltitudeMeters>283.600006103515625</AltitudeMeters>
            <DistanceMeters>1950.1394944723</DistanceMeters>
          </Trackpoint>
          <Trackpoint>
            <Time>2022-06-16T05:20:42.000Z</Time>
            <Position>
              <LatitudeDegrees>36.773941554129123687744140625</LatitudeDegrees>
              <LongitudeDegrees>-4.408918954432010650634765625</LongitudeDegrees>
            </Position>
            <AltitudeMeters>283.79998779296875</AltitudeMeters>
            <DistanceMeters>1950.8755682367</DistanceMeters>
          </Trackpoint>
          <Trackpoint>
            <Time>2022-06-16T05:20:44.000Z</Time>
            <Position>
              <LatitudeDegrees>36.77394499070942401885986328125</LatitudeDegrees>
              <LongitudeDegrees>-4.40889892168343067169189453125</LongitudeDegrees>
            </Position>
            <AltitudeMeters>284.20001220703125</AltitudeMeters>
            <DistanceMeters>1952.7034435837</DistanceMeters>
          </Trackpoint>
          <Trackpoint>
            <Time>2022-06-16T05:20:45.000Z</Time>
            <Position>
              <LatitudeDegrees>36.7739494331181049346923828125</LatitudeDegrees>
              <LongitudeDegrees>-4.40888819284737110137939453125</LongitudeDegrees>
            </Position>
            <AltitudeMeters>284.399993896484375</AltitudeMeters>
            <DistanceMeters>1953.7785481297</DistanceMeters>
          </Trackpoint>
          <Trackpoint>
            <Time>2022-06-16T05:20:46.000Z</Time>
            <Position>
              <LatitudeDegrees>36.773950271308422088623046875</LatitudeDegrees>
              <LongitudeDegrees>-4.4088812358677387237548828125</LongitudeDegrees>
            </Position>
            <AltitudeMeters>284.600006103515625</AltitudeMeters>
            <DistanceMeters>1954.394391625</DistanceMeters>
          </Trackpoint>
          <Trackpoint>
            <Time>2022-06-16T05:20:47.000Z</Time>
            <Position>
              <LatitudeDegrees>36.7739504389464855194091796875</LatitudeDegrees>
              <LongitudeDegrees>-4.40887360833585262298583984375</LongitudeDegrees>
            </Position>
            <AltitudeMeters>284.79998779296875</AltitudeMeters>
            <DistanceMeters>1955.0796390074</DistanceMeters>
          </Trackpoint>
          <Trackpoint>
            <Time>2022-06-16T05:20:49.000Z</Time>
            <Position>
              <LatitudeDegrees>36.77395286969840526580810546875</LatitudeDegrees>
              <LongitudeDegrees>-4.40885902382433414459228515625</LongitudeDegrees>
            </Position>
            <AltitudeMeters>285.20001220703125</AltitudeMeters>
            <DistanceMeters>1956.4100130085</DistanceMeters>
          </Trackpoint>
          <Trackpoint>
            <Time>2022-06-16T05:20:56.000Z</Time>
            <Position>
              <LatitudeDegrees>36.7739403806626796722412109375</LatitudeDegrees>
              <LongitudeDegrees>-4.408808983862400054931640625</LongitudeDegrees>
            </Position>
            <AltitudeMeters>286.399993896484375</AltitudeMeters>
            <DistanceMeters>1961.0827771628</DistanceMeters>
          </Trackpoint>
          <Trackpoint>
            <Time>2022-06-16T05:20:59.000Z</Time>
            <Position>
              <LatitudeDegrees>36.77393225021660327911376953125</LatitudeDegrees>
              <LongitudeDegrees>-4.40878995694220066070556640625</LongitudeDegrees>
            </Position>
            <AltitudeMeters>287</AltitudeMeters>
            <DistanceMeters>1963.0069214771</DistanceMeters>
          </Trackpoint>
          <Trackpoint>
            <Time>2022-06-16T05:21:03.000Z</Time>
            <Position>
              <LatitudeDegrees>36.7739249579608440399169921875</LatitudeDegrees>
              <LongitudeDegrees>-4.40876313485205173492431640625</LongitudeDegrees>
            </Position>
            <AltitudeMeters>287.600006103515625</AltitudeMeters>
            <DistanceMeters>1965.5318440441</DistanceMeters>
          </Trackpoint>
          <Trackpoint>
            <Time>2022-06-16T05:21:08.000Z</Time>
            <Position>
              <LatitudeDegrees>36.7739189229905605316162109375</LatitudeDegrees>
              <LongitudeDegrees>-4.40872893668711185455322265625</LongitudeDegrees>
            </Position>
            <AltitudeMeters>288.600006103515625</AltitudeMeters>
            <DistanceMeters>1968.6518476349</DistanceMeters>
          </Trackpoint>
          <Trackpoint>
            <Time>2022-06-16T05:21:09.000Z</Time>
            <Position>
              <LatitudeDegrees>36.77391364239156246185302734375</LatitudeDegrees>
              <LongitudeDegrees>-4.40872323699295520782470703125</LongitudeDegrees>
            </Position>
            <AltitudeMeters>288.79998779296875</AltitudeMeters>
            <DistanceMeters>1969.4296748147</DistanceMeters>
          </Trackpoint>
          <Trackpoint>
            <Time>2022-06-16T05:21:19.000Z</Time>
            <Position>
              <LatitudeDegrees>36.7738951183855533599853515625</LatitudeDegrees>
              <LongitudeDegrees>-4.408664144575595855712890625</LongitudeDegrees>
            </Position>
            <AltitudeMeters>290.20001220703125</AltitudeMeters>
            <DistanceMeters>1975.0867580665</DistanceMeters>
          </Trackpoint>
          <Trackpoint>
            <Time>2022-06-16T05:21:23.000Z</Time>
            <Position>
              <LatitudeDegrees>36.7738991416990756988525390625</LatitudeDegrees>
              <LongitudeDegrees>-4.40863941796123981475830078125</LongitudeDegrees>
            </Position>
            <AltitudeMeters>291</AltitudeMeters>
            <DistanceMeters>1977.3355005615</DistanceMeters>
          </Trackpoint>
          <Trackpoint>
            <Time>2022-06-16T05:21:29.000Z</Time>
            <Position>
              <LatitudeDegrees>36.77390995435416698455810546875</LatitudeDegrees>
              <LongitudeDegrees>-4.40861083567142486572265625</LongitudeDegrees>
            </Position>
            <AltitudeMeters>291.79998779296875</AltitudeMeters>
            <DistanceMeters>1980.1544484628</DistanceMeters>
          </Trackpoint>
          <Trackpoint>
            <Time>2022-06-16T05:21:34.000Z</Time>
            <Position>
              <LatitudeDegrees>36.7739138938486576080322265625</LatitudeDegrees>
              <LongitudeDegrees>-4.408584348857402801513671875</LongitudeDegrees>
            </Position>
            <AltitudeMeters>292.600006103515625</AltitudeMeters>
            <DistanceMeters>1982.5546961107</DistanceMeters>
          </Trackpoint>
          <Trackpoint>
            <Time>2022-06-16T05:21:39.000Z</Time>
            <Position>
              <LatitudeDegrees>36.77390911616384983062744140625</LatitudeDegrees>
              <LongitudeDegrees>-4.40856833942234516143798828125</LongitudeDegrees>
            </Position>
            <AltitudeMeters>293.20001220703125</AltitudeMeters>
            <DistanceMeters>1984.0780902311</DistanceMeters>
          </Trackpoint>
          <Trackpoint>
            <Time>2022-06-16T05:21:49.000Z</Time>
            <Position>
              <LatitudeDegrees>36.77389754913747310638427734375</LatitudeDegrees>
              <LongitudeDegrees>-4.40850966610014438629150390625</LongitudeDegrees>
            </Position>
            <AltitudeMeters>295.20001220703125</AltitudeMeters>
            <DistanceMeters>1989.4653590838</DistanceMeters>
          </Trackpoint>
          <Trackpoint>
            <Time>2022-06-16T05:21:59.000Z</Time>
            <Position>
              <LatitudeDegrees>36.77387709729373455047607421875</LatitudeDegrees>
              <LongitudeDegrees>-4.40845048986375331878662109375</LongitudeDegrees>
            </Position>
            <AltitudeMeters>297.399993896484375</AltitudeMeters>
            <DistanceMeters>1995.2111366186</DistanceMeters>
          </Trackpoint>
          <Trackpoint>
            <Time>2022-06-16T05:22:00.000Z</Time>
            <Position>
              <LatitudeDegrees>36.77387416362762451171875</LatitudeDegrees>
              <LongitudeDegrees>-4.40844663418829441070556640625</LongitudeDegrees>
            </Position>
            <AltitudeMeters>297.399993896484375</AltitudeMeters>
            <DistanceMeters>1995.6956796895</DistanceMeters>
          </Trackpoint>
          <Trackpoint>
            <Time>2022-06-16T05:22:01.000Z</Time>
            <Position>
              <LatitudeDegrees>36.77387743256986141204833984375</LatitudeDegrees>
              <LongitudeDegrees>-4.40844118595123291015625</LongitudeDegrees>
            </Position>
            <AltitudeMeters>297.600006103515625</AltitudeMeters>
            <DistanceMeters>1996.2966814014</DistanceMeters>
          </Trackpoint>
          <Trackpoint>
            <Time>2022-06-16T05:22:09.000Z</Time>
            <Position>
              <LatitudeDegrees>36.77385094575583934783935546875</LatitudeDegrees>
              <LongitudeDegrees>-4.4084014557301998138427734375</LongitudeDegrees>
            </Position>
            <AltitudeMeters>299.399993896484375</AltitudeMeters>
            <DistanceMeters>2000.9042523146</DistanceMeters>
          </Trackpoint>
          <Trackpoint>
            <Time>2022-06-16T05:22:13.000Z</Time>
            <Position>
              <LatitudeDegrees>36.77383250556886196136474609375</LatitudeDegrees>
              <LongitudeDegrees>-4.4083789922297000885009765625</LongitudeDegrees>
            </Position>
            <AltitudeMeters>300.79998779296875</AltitudeMeters>
            <DistanceMeters>2003.7724224002</DistanceMeters>
          </Trackpoint>
          <Trackpoint>
            <Time>2022-06-16T05:22:19.000Z</Time>
            <Position>
              <LatitudeDegrees>36.77380702458322048187255859375</LatitudeDegrees>
              <LongitudeDegrees>-4.408357031643390655517578125</LongitudeDegrees>
            </Position>
            <AltitudeMeters>302.20001220703125</AltitudeMeters>
            <DistanceMeters>2007.2196793678</DistanceMeters>
          </Trackpoint>
          <Trackpoint>
            <Time>2022-06-16T05:22:29.000Z</Time>
            <Position>
              <LatitudeDegrees>36.77378707565367221832275390625</LatitudeDegrees>
              <LongitudeDegrees>-4.4082934968173503875732421875</LongitudeDegrees>
            </Position>
            <AltitudeMeters>305.399993896484375</AltitudeMeters>
            <DistanceMeters>2013.3043579476</DistanceMeters>
          </Trackpoint>
          <Trackpoint>
            <Time>2022-06-16T05:22:37.000Z</Time>
            <Position>
              <LatitudeDegrees>36.77377768792212009429931640625</LatitudeDegrees>
              <LongitudeDegrees>-4.408261477947235107421875</LongitudeDegrees>
            </Position>
            <AltitudeMeters>306.79998779296875</AltitudeMeters>
            <DistanceMeters>2016.3452128075</DistanceMeters>
          </Trackpoint>
          <Trackpoint>
            <Time>2022-06-16T05:22:39.000Z</Time>
            <Position>
              <LatitudeDegrees>36.7737771011888980865478515625</LatitudeDegrees>
              <LongitudeDegrees>-4.40824613906443119049072265625</LongitudeDegrees>
            </Position>
            <AltitudeMeters>307.600006103515625</AltitudeMeters>
            <DistanceMeters>2017.7157075723</DistanceMeters>
          </Trackpoint>
          <Trackpoint>
            <Time>2022-06-16T05:22:42.000Z</Time>
            <Position>
              <LatitudeDegrees>36.77377634681761264801025390625</LatitudeDegrees>
              <LongitudeDegrees>-4.4082284532487392425537109375</LongitudeDegrees>
            </Position>
            <AltitudeMeters>308.20001220703125</AltitudeMeters>
            <DistanceMeters>2019.2944099187</DistanceMeters>
          </Trackpoint>
          <Trackpoint>
            <Time>2022-06-16T05:22:44.000Z</Time>
            <Position>
              <LatitudeDegrees>36.7737762629985809326171875</LatitudeDegrees>
              <LongitudeDegrees>-4.40821596421301364898681640625</LongitudeDegrees>
            </Position>
            <AltitudeMeters>308.79998779296875</AltitudeMeters>
            <DistanceMeters>2020.4066690939</DistanceMeters>
          </Trackpoint>
          <Trackpoint>
            <Time>2022-06-16T05:22:46.000Z</Time>
            <Position>
              <LatitudeDegrees>36.77377634681761264801025390625</LatitudeDegrees>
              <LongitudeDegrees>-4.408202804625034332275390625</LongitudeDegrees>
            </Position>
            <AltitudeMeters>309.20001220703125</AltitudeMeters>
            <DistanceMeters>2021.5820846357</DistanceMeters>
          </Trackpoint>
          <Trackpoint>
            <Time>2022-06-16T05:22:49.000Z</Time>
            <Position>
              <LatitudeDegrees>36.77377534098923206329345703125</LatitudeDegrees>
              <LongitudeDegrees>-4.4081885553896427154541015625</LongitudeDegrees>
            </Position>
            <AltitudeMeters>309.79998779296875</AltitudeMeters>
            <DistanceMeters>2022.8570017938</DistanceMeters>
          </Trackpoint>
          <Trackpoint>
            <Time>2022-06-16T05:22:59.000Z</Time>
            <Position>
              <LatitudeDegrees>36.7737935297191143035888671875</LatitudeDegrees>
              <LongitudeDegrees>-4.40813985653221607208251953125</LongitudeDegrees>
            </Position>
            <AltitudeMeters>311.20001220703125</AltitudeMeters>
            <DistanceMeters>2027.6480824986</DistanceMeters>
          </Trackpoint>
          <Trackpoint>
            <Time>2022-06-16T05:23:09.000Z</Time>
            <Position>
              <LatitudeDegrees>36.77374784834682941436767578125</LatitudeDegrees>
              <LongitudeDegrees>-4.40809358842670917510986328125</LongitudeDegrees>
            </Position>
            <AltitudeMeters>313.600006103515625</AltitudeMeters>
            <DistanceMeters>2034.1952783014</DistanceMeters>
          </Trackpoint>
          <Trackpoint>
            <Time>2022-06-16T05:23:14.000Z</Time>
            <Position>
              <LatitudeDegrees>36.7737341858446598052978515625</LatitudeDegrees>
              <LongitudeDegrees>-4.4080645032227039337158203125</LongitudeDegrees>
            </Position>
            <AltitudeMeters>315</AltitudeMeters>
            <DistanceMeters>2037.2017889899</DistanceMeters>
          </Trackpoint>
          <Trackpoint>
            <Time>2022-06-16T05:23:19.000Z</Time>
            <Position>
              <LatitudeDegrees>36.7737214453518390655517578125</LatitudeDegrees>
              <LongitudeDegrees>-4.4080336578190326690673828125</LongitudeDegrees>
            </Position>
            <AltitudeMeters>316.20001220703125</AltitudeMeters>
            <DistanceMeters>2040.2956346601</DistanceMeters>
          </Trackpoint>
          <Trackpoint>
            <Time>2022-06-16T05:23:29.000Z</Time>
            <Position>
              <LatitudeDegrees>36.77374114282429218292236328125</LatitudeDegrees>
              <LongitudeDegrees>-4.40796618349850177764892578125</LongitudeDegrees>
            </Position>
            <AltitudeMeters>318.20001220703125</AltitudeMeters>
            <DistanceMeters>2046.6984892621</DistanceMeters>
          </Trackpoint>
          <Trackpoint>
            <Time>2022-06-16T05:23:39.000Z</Time>
            <Position>
              <LatitudeDegrees>36.7737187631428241729736328125</LatitudeDegrees>
              <LongitudeDegrees>-4.40790315158665180206298828125</LongitudeDegrees>
            </Position>
            <AltitudeMeters>320.600006103515625</AltitudeMeters>
            <DistanceMeters>2052.8451826693</DistanceMeters>
          </Trackpoint>
          <Trackpoint>
            <Time>2022-06-16T05:23:49.000Z</Time>
            <Position>
              <LatitudeDegrees>36.77369051612913608551025390625</LatitudeDegrees>
              <LongitudeDegrees>-4.4078341685235500335693359375</LongitudeDegrees>
            </Position>
            <AltitudeMeters>323.20001220703125</AltitudeMeters>
            <DistanceMeters>2059.7514742775</DistanceMeters>
          </Trackpoint>
          <Trackpoint>
            <Time>2022-06-16T05:23:57.000Z</Time>
            <Position>
              <LatitudeDegrees>36.773662604391574859619140625</LatitudeDegrees>
              <LongitudeDegrees>-4.40778446383774280548095703125</LongitudeDegrees>
            </Position>
            <AltitudeMeters>325.20001220703125</AltitudeMeters>
            <DistanceMeters>2065.1629932793</DistanceMeters>
          </Trackpoint>
          <Trackpoint>
            <Time>2022-06-16T05:23:59.000Z</Time>
            <Position>
              <LatitudeDegrees>36.773658581078052520751953125</LatitudeDegrees>
              <LongitudeDegrees>-4.40777205862104892730712890625</LongitudeDegrees>
            </Position>
            <AltitudeMeters>325.399993896484375</AltitudeMeters>
            <DistanceMeters>2066.3574605573</DistanceMeters>
          </Trackpoint>
          <Trackpoint>
            <Time>2022-06-16T05:24:02.000Z</Time>
            <Position>
              <LatitudeDegrees>36.77366503514349460601806640625</LatitudeDegrees>
              <LongitudeDegrees>-4.4077486731112003326416015625</LongitudeDegrees>
            </Position>
            <AltitudeMeters>326</AltitudeMeters>
            <DistanceMeters>2068.5636362537</DistanceMeters>
          </Trackpoint>
          <Trackpoint>
            <Time>2022-06-16T05:24:09.000Z</Time>
            <Position>
              <LatitudeDegrees>36.77366285584867000579833984375</LatitudeDegrees>
              <LongitudeDegrees>-4.40770030952990055084228515625</LongitudeDegrees>
            </Position>
            <AltitudeMeters>327.399993896484375</AltitudeMeters>
            <DistanceMeters>2072.8829114166</DistanceMeters>
          </Trackpoint>
          <Trackpoint>
            <Time>2022-06-16T05:24:19.000Z</Time>
            <Position>
              <LatitudeDegrees>36.77366285584867000579833984375</LatitudeDegrees>
              <LongitudeDegrees>-4.40761162899434566497802734375</LongitudeDegrees>
            </Position>
            <AltitudeMeters>330</AltitudeMeters>
            <DistanceMeters>2080.7884258887</DistanceMeters>
          </Trackpoint>
          <Trackpoint>
            <Time>2022-06-16T05:24:29.000Z</Time>
            <Position>
              <LatitudeDegrees>36.77367760799825191497802734375</LatitudeDegrees>
              <LongitudeDegrees>-4.407541640102863311767578125</LongitudeDegrees>
            </Position>
            <AltitudeMeters>332</AltitudeMeters>
            <DistanceMeters>2087.2411526366</DistanceMeters>
          </Trackpoint>
          <Trackpoint>
            <Time>2022-06-16T05:24:39.000Z</Time>
            <Position>
              <LatitudeDegrees>36.773688085377216339111328125</LatitudeDegrees>
              <LongitudeDegrees>-4.40747600980103015899658203125</LongitudeDegrees>
            </Position>
            <AltitudeMeters>334</AltitudeMeters>
            <DistanceMeters>2093.2074380256</DistanceMeters>
          </Trackpoint>
          <Trackpoint>
            <Time>2022-06-16T05:24:49.000Z</Time>
            <Position>
              <LatitudeDegrees>36.77366687916219234466552734375</LatitudeDegrees>
              <LongitudeDegrees>-4.40740375779569149017333984375</LongitudeDegrees>
            </Position>
            <AltitudeMeters>335</AltitudeMeters>
            <DistanceMeters>2100.0678139938</DistanceMeters>
          </Trackpoint>
          <Trackpoint>
            <Time>2022-06-16T05:24:59.000Z</Time>
            <Position>
              <LatitudeDegrees>36.7736825533211231231689453125</LatitudeDegrees>
              <LongitudeDegrees>-4.40732144750654697418212890625</LongitudeDegrees>
            </Position>
            <AltitudeMeters>336.600006103515625</AltitudeMeters>
            <DistanceMeters>2107.6103256177</DistanceMeters>
          </Trackpoint>
          <Trackpoint>
            <Time>2022-06-16T05:25:09.000Z</Time>
            <Position>
              <LatitudeDegrees>36.773694455623626708984375</LatitudeDegrees>
              <LongitudeDegrees>-4.40722572617232799530029296875</LongitudeDegrees>
            </Position>
            <AltitudeMeters>338.399993896484375</AltitudeMeters>
            <DistanceMeters>2116.2462622404</DistanceMeters>
          </Trackpoint>
          <Trackpoint>
            <Time>2022-06-16T05:25:19.000Z</Time>
            <Position>
              <LatitudeDegrees>36.7737030051648616790771484375</LatitudeDegrees>
              <LongitudeDegrees>-4.40714291296899318695068359375</LongitudeDegrees>
            </Position>
            <AltitudeMeters>339.399993896484375</AltitudeMeters>
            <DistanceMeters>2123.6899541376</DistanceMeters>
          </Trackpoint>
          <Trackpoint>
            <Time>2022-06-16T05:25:29.000Z</Time>
            <Position>
              <LatitudeDegrees>36.77370979450643062591552734375</LatitudeDegrees>
              <LongitudeDegrees>-4.40705825574696063995361328125</LongitudeDegrees>
            </Position>
            <AltitudeMeters>340.399993896484375</AltitudeMeters>
            <DistanceMeters>2131.2754433836</DistanceMeters>
          </Trackpoint>
          <Trackpoint>
            <Time>2022-06-16T05:25:39.000Z</Time>
            <Position>
              <LatitudeDegrees>36.7737076990306377410888671875</LatitudeDegrees>
              <LongitudeDegrees>-4.40697493962943553924560546875</LongitudeDegrees>
            </Position>
            <AltitudeMeters>341.20001220703125</AltitudeMeters>
            <DistanceMeters>2138.7069941996</DistanceMeters>
          </Trackpoint>
          <Trackpoint>
            <Time>2022-06-16T05:25:44.000Z</Time>
            <Position>
              <LatitudeDegrees>36.77372169680893421173095703125</LatitudeDegrees>
              <LongitudeDegrees>-4.4069332815706729888916015625</LongitudeDegrees>
            </Position>
            <AltitudeMeters>341.600006103515625</AltitudeMeters>
            <DistanceMeters>2142.7341541534</DistanceMeters>
          </Trackpoint>
          <Trackpoint>
            <Time>2022-06-16T05:25:49.000Z</Time>
            <Position>
              <LatitudeDegrees>36.7737284861505031585693359375</LatitudeDegrees>
              <LongitudeDegrees>-4.4068917073309421539306640625</LongitudeDegrees>
            </Position>
            <AltitudeMeters>342.399993896484375</AltitudeMeters>
            <DistanceMeters>2146.5161696329</DistanceMeters>
          </Trackpoint>
          <Trackpoint>
            <Time>2022-06-16T05:25:58.000Z</Time>
            <Position>
              <LatitudeDegrees>36.77373695187270641326904296875</LatitudeDegrees>
              <LongitudeDegrees>-4.4068166054785251617431640625</LongitudeDegrees>
            </Position>
            <AltitudeMeters>344.600006103515625</AltitudeMeters>
            <DistanceMeters>2153.2777727738</DistanceMeters>
          </Trackpoint>
          <Trackpoint>
            <Time>2022-06-16T05:25:59.000Z</Time>
            <Position>
              <LatitudeDegrees>36.773740388453006744384765625</LatitudeDegrees>
              <LongitudeDegrees>-4.4068082235753536224365234375</LongitudeDegrees>
            </Position>
            <AltitudeMeters>344.79998779296875</AltitudeMeters>
            <DistanceMeters>2154.1116288083</DistanceMeters>
          </Trackpoint>
          <Trackpoint>
            <Time>2022-06-16T05:26:09.000Z</Time>
            <Position>
              <LatitudeDegrees>36.7737459205090999603271484375</LatitudeDegrees>
              <LongitudeDegrees>-4.4067361392080783843994140625</LongitudeDegrees>
            </Position>
            <AltitudeMeters>346.79998779296875</AltitudeMeters>
            <DistanceMeters>2160.5678531589</DistanceMeters>
          </Trackpoint>
          <Trackpoint>
            <Time>2022-06-16T05:26:19.000Z</Time>
            <Position>
              <LatitudeDegrees>36.77374181337654590606689453125</LatitudeDegrees>
              <LongitudeDegrees>-4.40668324939906597137451171875</LongitudeDegrees>
            </Position>
            <AltitudeMeters>348.399993896484375</AltitudeMeters>
            <DistanceMeters>2165.3058664598</DistanceMeters>
          </Trackpoint>
          <Trackpoint>
            <Time>2022-06-16T05:26:29.000Z</Time>
            <Position>
              <LatitudeDegrees>36.773750446736812591552734375</LatitudeDegrees>
              <LongitudeDegrees>-4.4066194631159305572509765625</LongitudeDegrees>
            </Position>
            <AltitudeMeters>350</AltitudeMeters>
            <DistanceMeters>2171.072821596</DistanceMeters>
          </Trackpoint>
          <Trackpoint>
            <Time>2022-06-16T05:26:39.000Z</Time>
            <Position>
              <LatitudeDegrees>36.77375908009707927703857421875</LatitudeDegrees>
              <LongitudeDegrees>-4.4065389968454837799072265625</LongitudeDegrees>
            </Position>
            <AltitudeMeters>352</AltitudeMeters>
            <DistanceMeters>2178.3110882067</DistanceMeters>
          </Trackpoint>
          <Trackpoint>
            <Time>2022-06-16T05:26:40.000Z</Time>
            <Position>
              <LatitudeDegrees>36.77375891245901584625244140625</LatitudeDegrees>
              <LongitudeDegrees>-4.40653170458972454071044921875</LongitudeDegrees>
            </Position>
            <AltitudeMeters>352.20001220703125</AltitudeMeters>
            <DistanceMeters>2178.9694525962</DistanceMeters>
          </Trackpoint>
          <Trackpoint>
            <Time>2022-06-16T05:26:43.000Z</Time>
            <Position>
              <LatitudeDegrees>36.7737576551735401153564453125</LatitudeDegrees>
              <LongitudeDegrees>-4.4065098278224468231201171875</LongitudeDegrees>
            </Position>
            <AltitudeMeters>352.79998779296875</AltitudeMeters>
            <DistanceMeters>2180.9261724055</DistanceMeters>
          </Trackpoint>
          <Trackpoint>
            <Time>2022-06-16T05:26:49.000Z</Time>
            <Position>
              <LatitudeDegrees>36.77374717779457569122314453125</LatitudeDegrees>
              <LongitudeDegrees>-4.40646775066852569580078125</LongitudeDegrees>
            </Position>
            <AltitudeMeters>354</AltitudeMeters>
            <DistanceMeters>2184.8534323366</DistanceMeters>
          </Trackpoint>
          <Trackpoint>
            <Time>2022-06-16T05:26:55.000Z</Time>
            <Position>
              <LatitudeDegrees>36.7737306654453277587890625</LatitudeDegrees>
              <LongitudeDegrees>-4.40642081201076507568359375</LongitudeDegrees>
            </Position>
            <AltitudeMeters>355.20001220703125</AltitudeMeters>
            <DistanceMeters>2189.424602525</DistanceMeters>
          </Trackpoint>
          <Trackpoint>
            <Time>2022-06-16T05:26:59.000Z</Time>
            <Position>
              <LatitudeDegrees>36.77371733821928501129150390625</LatitudeDegrees>
              <LongitudeDegrees>-4.40639541484415531158447265625</LongitudeDegrees>
            </Position>
            <AltitudeMeters>356</AltitudeMeters>
            <DistanceMeters>2192.1324470686</DistanceMeters>
          </Trackpoint>
          <Trackpoint>
            <Time>2022-06-16T05:27:09.000Z</Time>
            <Position>
              <LatitudeDegrees>36.773726642131805419921875</LatitudeDegrees>
              <LongitudeDegrees>-4.40632886253297328948974609375</LongitudeDegrees>
            </Position>
            <AltitudeMeters>357.20001220703125</AltitudeMeters>
            <DistanceMeters>2198.1552219337</DistanceMeters>
          </Trackpoint>
          <Trackpoint>
            <Time>2022-06-16T05:27:19.000Z</Time>
            <Position>
              <LatitudeDegrees>36.77373158745467662811279296875</LatitudeDegrees>
              <LongitudeDegrees>-4.40626231022179126739501953125</LongitudeDegrees>
            </Position>
            <AltitudeMeters>357.600006103515625</AltitudeMeters>
            <DistanceMeters>2204.1139349305</DistanceMeters>
          </Trackpoint>
          <Trackpoint>
            <Time>2022-06-16T05:27:24.000Z</Time>
            <Position>
              <LatitudeDegrees>36.77374214865267276763916015625</LatitudeDegrees>
              <LongitudeDegrees>-4.40621419809758663177490234375</LongitudeDegrees>
            </Position>
            <AltitudeMeters>357.79998779296875</AltitudeMeters>
            <DistanceMeters>2208.5609414981</DistanceMeters>
          </Trackpoint>
          <Trackpoint>
            <Time>2022-06-16T05:27:25.000Z</Time>
            <Position>
              <LatitudeDegrees>36.77374667488038539886474609375</LatitudeDegrees>
              <LongitudeDegrees>-4.40620548091828823089599609375</LongitudeDegrees>
            </Position>
            <AltitudeMeters>357.79998779296875</AltitudeMeters>
            <DistanceMeters>2209.4920093466</DistanceMeters>
          </Trackpoint>
          <Trackpoint>
            <Time>2022-06-16T05:27:29.000Z</Time>
            <Position>
              <LatitudeDegrees>36.773775257170200347900390625</LatitudeDegrees>
              <LongitudeDegrees>-4.4061711989343166351318359375</LongitudeDegrees>
            </Position>
            <AltitudeMeters>358</AltitudeMeters>
            <DistanceMeters>2213.9033373481</DistanceMeters>
          </Trackpoint>
          <Trackpoint>
            <Time>2022-06-16T05:27:30.000Z</Time>
            <Position>
              <LatitudeDegrees>36.77378623746335506439208984375</LatitudeDegrees>
              <LongitudeDegrees>-4.406164325773715972900390625</LongitudeDegrees>
            </Position>
            <AltitudeMeters>358</AltitudeMeters>
            <DistanceMeters>2215.2738321129</DistanceMeters>
          </Trackpoint>
          <Trackpoint>
            <Time>2022-06-16T05:27:36.000Z</Time>
            <Position>
              <LatitudeDegrees>36.77385396324098110198974609375</LatitudeDegrees>
              <LongitudeDegrees>-4.406137503683567047119140625</LongitudeDegrees>
            </Position>
            <AltitudeMeters>358.399993896484375</AltitudeMeters>
            <DistanceMeters>2223.1822016952</DistanceMeters>
          </Trackpoint>
          <Trackpoint>
            <Time>2022-06-16T05:27:39.000Z</Time>
            <Position>
              <LatitudeDegrees>36.77387617528438568115234375</LatitudeDegrees>
              <LongitudeDegrees>-4.40612711012363433837890625</LongitudeDegrees>
            </Position>
            <AltitudeMeters>358.600006103515625</AltitudeMeters>
            <DistanceMeters>2225.822508309</DistanceMeters>
          </Trackpoint>
          <Trackpoint>
            <Time>2022-06-16T05:27:49.000Z</Time>
            <Position>
              <LatitudeDegrees>36.77393895573914051055908203125</LatitudeDegrees>
              <LongitudeDegrees>-4.40606935881078243255615234375</LongitudeDegrees>
            </Position>
            <AltitudeMeters>359</AltitudeMeters>
            <DistanceMeters>2234.5017304916</DistanceMeters>
          </Trackpoint>
          <Trackpoint>
            <Time>2022-06-16T05:27:58.000Z</Time>
            <Position>
              <LatitudeDegrees>36.773991845548152923583984375</LatitudeDegrees>
              <LongitudeDegrees>-4.406018145382404327392578125</LongitudeDegrees>
            </Position>
            <AltitudeMeters>359.20001220703125</AltitudeMeters>
            <DistanceMeters>2241.9514855094</DistanceMeters>
          </Trackpoint>
          <Trackpoint>
            <Time>2022-06-16T05:27:59.000Z</Time>
            <Position>
              <LatitudeDegrees>36.77399729378521442413330078125</LatitudeDegrees>
              <LongitudeDegrees>-4.40600967966020107269287109375</LongitudeDegrees>
            </Position>
            <AltitudeMeters>359.20001220703125</AltitudeMeters>
            <DistanceMeters>2242.9205716512</DistanceMeters>
          </Trackpoint>
          <Trackpoint>
            <Time>2022-06-16T05:28:01.000Z</Time>
            <Position>
              <LatitudeDegrees>36.77401053719222545623779296875</LatitudeDegrees>
              <LongitudeDegrees>-4.405995346605777740478515625</LongitudeDegrees>
            </Position>
            <AltitudeMeters>359.399993896484375</AltitudeMeters>
            <DistanceMeters>2244.8726711003</DistanceMeters>
          </Trackpoint>
          <Trackpoint>
            <Time>2022-06-16T05:28:08.000Z</Time>
            <Position>
              <LatitudeDegrees>36.77403115667402744293212890625</LatitudeDegrees>
              <LongitudeDegrees>-4.405991993844509124755859375</LongitudeDegrees>
            </Position>
            <AltitudeMeters>359.399993896484375</AltitudeMeters>
            <DistanceMeters>2247.1886731313</DistanceMeters>
          </Trackpoint>
          <Trackpoint>
            <Time>2022-06-16T05:28:09.000Z</Time>
            <Position>
              <LatitudeDegrees>36.77403233014047145843505859375</LatitudeDegrees>
              <LongitudeDegrees>-4.40598906017839908599853515625</LongitudeDegrees>
            </Position>
            <AltitudeMeters>359.399993896484375</AltitudeMeters>
            <DistanceMeters>2247.4891739873</DistanceMeters>
          </Trackpoint>
          <Trackpoint>
            <Time>2022-06-16T05:28:11.000Z</Time>
            <Position>
              <LatitudeDegrees>36.7740369401872158050537109375</LatitudeDegrees>
              <LongitudeDegrees>-4.40599073655903339385986328125</LongitudeDegrees>
            </Position>
            <AltitudeMeters>359.600006103515625</AltitudeMeters>
            <DistanceMeters>2248.0267262603</DistanceMeters>
          </Trackpoint>
          <Trackpoint>
            <Time>2022-06-16T05:28:19.000Z</Time>
            <Position>
              <LatitudeDegrees>36.77403048612177371978759765625</LatitudeDegrees>
              <LongitudeDegrees>-4.40598755143582820892333984375</LongitudeDegrees>
            </Position>
            <AltitudeMeters>359.399993896484375</AltitudeMeters>
            <DistanceMeters>2248.7987269373</DistanceMeters>
          </Trackpoint>
          <Trackpoint>
            <Time>2022-06-16T05:28:23.000Z</Time>
            <Position>
              <LatitudeDegrees>36.7740312404930591583251953125</LatitudeDegrees>
              <LongitudeDegrees>-4.40598704852163791656494140625</LongitudeDegrees>
            </Position>
            <AltitudeMeters>359.399993896484375</AltitudeMeters>
            <DistanceMeters>2248.8937536517</DistanceMeters>
          </Trackpoint>
          <Trackpoint>
            <Time>2022-06-16T05:28:27.000Z</Time>
            <Position>
              <LatitudeDegrees>36.7740292288362979888916015625</LatitudeDegrees>
              <LongitudeDegrees>-4.40598654560744762420654296875</LongitudeDegrees>
            </Position>
            <AltitudeMeters>359.399993896484375</AltitudeMeters>
            <DistanceMeters>2249.1265206138</DistanceMeters>
          </Trackpoint>
          <Trackpoint>
            <Time>2022-06-16T05:28:29.000Z</Time>
            <Position>
              <LatitudeDegrees>36.7740292288362979888916015625</LatitudeDegrees>
              <LongitudeDegrees>-4.4059861265122890472412109375</LongitudeDegrees>
            </Position>
            <AltitudeMeters>359.399993896484375</AltitudeMeters>
            <DistanceMeters>2249.1265206138</DistanceMeters>
          </Trackpoint>
          <Trackpoint>
            <Time>2022-06-16T05:28:35.000Z</Time>
            <Position>
              <LatitudeDegrees>36.77402503788471221923828125</LatitudeDegrees>
              <LongitudeDegrees>-4.40598989836871623992919921875</LongitudeDegrees>
            </Position>
            <AltitudeMeters>359.399993896484375</AltitudeMeters>
            <DistanceMeters>2249.7045455514</DistanceMeters>
          </Trackpoint>
          <Trackpoint>
            <Time>2022-06-16T05:28:39.000Z</Time>
            <Position>
              <LatitudeDegrees>36.7740295641124248504638671875</LatitudeDegrees>
              <LongitudeDegrees>-4.40599090419709682464599609375</LongitudeDegrees>
            </Position>
            <AltitudeMeters>359.399993896484375</AltitudeMeters>
            <DistanceMeters>2250.2162800693</DistanceMeters>
          </Trackpoint>
          <Trackpoint>
            <Time>2022-06-16T05:28:49.000Z</Time>
            <Position>
              <LatitudeDegrees>36.77402595989406108856201171875</LatitudeDegrees>
              <LongitudeDegrees>-4.40599727444350719451904296875</LongitudeDegrees>
            </Position>
            <AltitudeMeters>359.399993896484375</AltitudeMeters>
            <DistanceMeters>2250.9145809558</DistanceMeters>
          </Trackpoint>
          <Trackpoint>
            <Time>2022-06-16T05:28:59.000Z</Time>
            <Position>
              <LatitudeDegrees>36.774089075624942779541015625</LatitudeDegrees>
              <LongitudeDegrees>-4.40594379790127277374267578125</LongitudeDegrees>
            </Position>
            <AltitudeMeters>359.79998779296875</AltitudeMeters>
            <DistanceMeters>2259.4044614128</DistanceMeters>
          </Trackpoint>
          <Trackpoint>
            <Time>2022-06-16T05:29:09.000Z</Time>
            <Position>
              <LatitudeDegrees>36.774176247417926788330078125</LatitudeDegrees>
              <LongitudeDegrees>-4.40590473823249340057373046875</LongitudeDegrees>
            </Position>
            <AltitudeMeters>360.20001220703125</AltitudeMeters>
            <DistanceMeters>2269.7129986317</DistanceMeters>
          </Trackpoint>
          <Trackpoint>
            <Time>2022-06-16T05:29:10.000Z</Time>
            <Position>
              <LatitudeDegrees>36.77418588660657405853271484375</LatitudeDegrees>
              <LongitudeDegrees>-4.40590381622314453125</LongitudeDegrees>
            </Position>
            <AltitudeMeters>360.399993896484375</AltitudeMeters>
            <DistanceMeters>2270.7881031777</DistanceMeters>
          </Trackpoint>
          <Trackpoint>
            <Time>2022-06-16T05:29:11.000Z</Time>
            <Position>
              <LatitudeDegrees>36.7741958610713481903076171875</LatitudeDegrees>
              <LongitudeDegrees>-4.405903480947017669677734375</LongitudeDegrees>
            </Position>
            <AltitudeMeters>360.399993896484375</AltitudeMeters>
            <DistanceMeters>2271.9003623529</DistanceMeters>
          </Trackpoint>
          <Trackpoint>
            <Time>2022-06-16T05:29:12.000Z</Time>
            <Position>
              <LatitudeDegrees>36.77420449443161487579345703125</LatitudeDegrees>
              <LongitudeDegrees>-4.40590272657573223114013671875</LongitudeDegrees>
            </Position>
            <AltitudeMeters>360.399993896484375</AltitudeMeters>
            <DistanceMeters>2272.8647781728</DistanceMeters>
          </Trackpoint>
          <Trackpoint>
            <Time>2022-06-16T05:29:18.000Z</Time>
            <Position>
              <LatitudeDegrees>36.774269454181194305419921875</LatitudeDegrees>
              <LongitudeDegrees>-4.40589132718741893768310546875</LongitudeDegrees>
            </Position>
            <AltitudeMeters>360.399993896484375</AltitudeMeters>
            <DistanceMeters>2280.1663924687</DistanceMeters>
          </Trackpoint>
          <Trackpoint>
            <Time>2022-06-16T05:29:19.000Z</Time>
            <Position>
              <LatitudeDegrees>36.7742793448269367218017578125</LatitudeDegrees>
              <LongitudeDegrees>-4.4058885611593723297119140625</LongitudeDegrees>
            </Position>
            <AltitudeMeters>360.600006103515625</AltitudeMeters>
            <DistanceMeters>2281.2907637161</DistanceMeters>
          </Trackpoint>
          <Trackpoint>
            <Time>2022-06-16T05:29:21.000Z</Time>
            <Position>
              <LatitudeDegrees>36.774298287928104400634765625</LatitudeDegrees>
              <LongitudeDegrees>-4.40588613040745258331298828125</LongitudeDegrees>
            </Position>
            <AltitudeMeters>360.600006103515625</AltitudeMeters>
            <DistanceMeters>2283.4113716641</DistanceMeters>
          </Trackpoint>
          <Trackpoint>
            <Time>2022-06-16T05:29:25.000Z</Time>
            <Position>
              <LatitudeDegrees>36.7743450589478015899658203125</LatitudeDegrees>
              <LongitudeDegrees>-4.40588076598942279815673828125</LongitudeDegrees>
            </Position>
            <AltitudeMeters>360.79998779296875</AltitudeMeters>
            <DistanceMeters>2288.6387047623</DistanceMeters>
          </Trackpoint>
          <Trackpoint>
            <Time>2022-06-16T05:29:29.000Z</Time>
            <Position>
              <LatitudeDegrees>36.77439224906265735626220703125</LatitudeDegrees>
              <LongitudeDegrees>-4.40587104298174381256103515625</LongitudeDegrees>
            </Position>
            <AltitudeMeters>361</AltitudeMeters>
            <DistanceMeters>2293.9618974022</DistanceMeters>
          </Trackpoint>
          <Trackpoint>
            <Time>2022-06-16T05:29:39.000Z</Time>
            <Position>
              <LatitudeDegrees>36.77451076917350292205810546875</LatitudeDegrees>
              <LongitudeDegrees>-4.4058687798678874969482421875</LongitudeDegrees>
            </Position>
            <AltitudeMeters>361</AltitudeMeters>
            <DistanceMeters>2307.1548774847</DistanceMeters>
          </Trackpoint>
          <Trackpoint>
            <Time>2022-06-16T05:29:48.000Z</Time>
            <Position>
              <LatitudeDegrees>36.77463348023593425750732421875</LatitudeDegrees>
              <LongitudeDegrees>-4.40584489144384860992431640625</LongitudeDegrees>
            </Position>
            <AltitudeMeters>362.600006103515625</AltitudeMeters>
            <DistanceMeters>2320.9779168594</DistanceMeters>
          </Trackpoint>
          <Trackpoint>
            <Time>2022-06-16T05:29:49.000Z</Time>
            <Position>
              <LatitudeDegrees>36.7746458016335964202880859375</LatitudeDegrees>
              <LongitudeDegrees>-4.4058426283299922943115234375</LongitudeDegrees>
            </Position>
            <AltitudeMeters>362.79998779296875</AltitudeMeters>
            <DistanceMeters>2322.3647860971</DistanceMeters>
          </Trackpoint>
          <Trackpoint>
            <Time>2022-06-16T05:29:53.000Z</Time>
            <Position>
              <LatitudeDegrees>36.7746987752616405487060546875</LatitudeDegrees>
              <LongitudeDegrees>-4.40583231858909130096435546875</LongitudeDegrees>
            </Position>
            <AltitudeMeters>363.399993896484375</AltitudeMeters>
            <DistanceMeters>2328.3325848114</DistanceMeters>
          </Trackpoint>
          <Trackpoint>
            <Time>2022-06-16T05:29:59.000Z</Time>
            <Position>
              <LatitudeDegrees>36.77477463148534297943115234375</LatitudeDegrees>
              <LongitudeDegrees>-4.4058101065456867218017578125</LongitudeDegrees>
            </Position>
            <AltitudeMeters>364.600006103515625</AltitudeMeters>
            <DistanceMeters>2337.0045209635</DistanceMeters>
          </Trackpoint>
          <Trackpoint>
            <Time>2022-06-16T05:30:09.000Z</Time>
            <Position>
              <LatitudeDegrees>36.7749069817364215850830078125</LatitudeDegrees>
              <LongitudeDegrees>-4.40580935217440128326416015625</LongitudeDegrees>
            </Position>
            <AltitudeMeters>365.79998779296875</AltitudeMeters>
            <DistanceMeters>2351.7358072991</DistanceMeters>
          </Trackpoint>
          <Trackpoint>
            <Time>2022-06-16T05:30:11.000Z</Time>
            <Position>
              <LatitudeDegrees>36.77492852322757244110107421875</LatitudeDegrees>
              <LongitudeDegrees>-4.40580851398408412933349609375</LongitudeDegrees>
            </Position>
            <AltitudeMeters>365.79998779296875</AltitudeMeters>
            <DistanceMeters>2354.136054947</DistanceMeters>
          </Trackpoint>
          <Trackpoint>
            <Time>2022-06-16T05:30:12.000Z</Time>
            <Position>
              <LatitudeDegrees>36.7749384976923465728759765625</LatitudeDegrees>
              <LongitudeDegrees>-4.40580834634602069854736328125</LongitudeDegrees>
            </Position>
            <AltitudeMeters>366</AltitudeMeters>
            <DistanceMeters>2355.2442473474</DistanceMeters>
          </Trackpoint>
          <Trackpoint>
            <Time>2022-06-16T05:30:13.000Z</Time>
            <Position>
              <LatitudeDegrees>36.7749483883380889892578125</LatitudeDegrees>
              <LongitudeDegrees>-4.4058091007173061370849609375</LongitudeDegrees>
            </Position>
            <AltitudeMeters>366</AltitudeMeters>
            <DistanceMeters>2356.348357994</DistanceMeters>
          </Trackpoint>
          <Trackpoint>
            <Time>2022-06-16T05:30:19.000Z</Time>
            <Position>
              <LatitudeDegrees>36.77499557845294475555419921875</LatitudeDegrees>
              <LongitudeDegrees>-4.40578890033066272735595703125</LongitudeDegrees>
            </Position>
            <AltitudeMeters>366.600006103515625</AltitudeMeters>
            <DistanceMeters>2361.9007161399</DistanceMeters>
          </Trackpoint>
          <Trackpoint>
            <Time>2022-06-16T05:30:22.000Z</Time>
            <Position>
              <LatitudeDegrees>36.7750129289925098419189453125</LatitudeDegrees>
              <LongitudeDegrees>-4.40576677210628986358642578125</LongitudeDegrees>
            </Position>
            <AltitudeMeters>366.79998779296875</AltitudeMeters>
            <DistanceMeters>2364.663036649</DistanceMeters>
          </Trackpoint>
          <Trackpoint>
            <Time>2022-06-16T05:30:29.000Z</Time>
            <Position>
              <LatitudeDegrees>36.77506213076412677764892578125</LatitudeDegrees>
              <LongitudeDegrees>-4.405725114047527313232421875</LongitudeDegrees>
            </Position>
            <AltitudeMeters>367.399993896484375</AltitudeMeters>
            <DistanceMeters>2371.2808815212</DistanceMeters>
          </Trackpoint>
          <Trackpoint>
            <Time>2022-06-16T05:30:34.000Z</Time>
            <Position>
              <LatitudeDegrees>36.7751031182706356048583984375</LatitudeDegrees>
              <LongitudeDegrees>-4.40569552592933177947998046875</LongitudeDegrees>
            </Position>
            <AltitudeMeters>367.79998779296875</AltitudeMeters>
            <DistanceMeters>2376.5520811208</DistanceMeters>
          </Trackpoint>
          <Trackpoint>
            <Time>2022-06-16T05:30:39.000Z</Time>
            <Position>
              <LatitudeDegrees>36.77515181712806224822998046875</LatitudeDegrees>
              <LongitudeDegrees>-4.4056605733931064605712890625</LongitudeDegrees>
            </Position>
            <AltitudeMeters>368</AltitudeMeters>
            <DistanceMeters>2382.8036545907</DistanceMeters>
          </Trackpoint>
          <Trackpoint>
            <Time>2022-06-16T05:30:49.000Z</Time>
            <Position>
              <LatitudeDegrees>36.7752777971327304840087890625</LatitudeDegrees>
              <LongitudeDegrees>-4.40557952038943767547607421875</LongitudeDegrees>
            </Position>
            <AltitudeMeters>368.600006103515625</AltitudeMeters>
            <DistanceMeters>2398.5780891761</DistanceMeters>
          </Trackpoint>
          <Trackpoint>
            <Time>2022-06-16T05:30:59.000Z</Time>
            <Position>
              <LatitudeDegrees>36.7753803916275501251220703125</LatitudeDegrees>
              <LongitudeDegrees>-4.40558320842683315277099609375</LongitudeDegrees>
            </Position>
            <AltitudeMeters>368.600006103515625</AltitudeMeters>
            <DistanceMeters>2410.001865468</DistanceMeters>
          </Trackpoint>
          <Trackpoint>
            <Time>2022-06-16T05:31:09.000Z</Time>
            <Position>
              <LatitudeDegrees>36.7755148373544216156005859375</LatitudeDegrees>
              <LongitudeDegrees>-4.40555311739444732666015625</LongitudeDegrees>
            </Position>
            <AltitudeMeters>368.79998779296875</AltitudeMeters>
            <DistanceMeters>2425.2043579119</DistanceMeters>
          </Trackpoint>
          <Trackpoint>
            <Time>2022-06-16T05:31:19.000Z</Time>
            <Position>
              <LatitudeDegrees>36.77561835385859012603759765625</LatitudeDegrees>
              <LongitudeDegrees>-4.40547944046556949615478515625</LongitudeDegrees>
            </Position>
            <AltitudeMeters>369</AltitudeMeters>
            <DistanceMeters>2438.466628795</DistanceMeters>
          </Trackpoint>
          <Trackpoint>
            <Time>2022-06-16T05:31:21.000Z</Time>
            <Position>
              <LatitudeDegrees>36.77563411183655261993408203125</LatitudeDegrees>
              <LongitudeDegrees>-4.40546368248760700225830078125</LongitudeDegrees>
            </Position>
            <AltitudeMeters>369</AltitudeMeters>
            <DistanceMeters>2440.7153712899</DistanceMeters>
          </Trackpoint>
          <Trackpoint>
            <Time>2022-06-16T05:31:26.000Z</Time>
            <Position>
              <LatitudeDegrees>36.775670237839221954345703125</LatitudeDegrees>
              <LongitudeDegrees>-4.40541355870664119720458984375</LongitudeDegrees>
            </Position>
            <AltitudeMeters>369.20001220703125</AltitudeMeters>
            <DistanceMeters>2446.7276417433</DistanceMeters>
          </Trackpoint>
          <Trackpoint>
            <Time>2022-06-16T05:31:28.000Z</Time>
            <Position>
              <LatitudeDegrees>36.77568440325558185577392578125</LatitudeDegrees>
              <LongitudeDegrees>-4.40539143048226833343505859375</LongitudeDegrees>
            </Position>
            <AltitudeMeters>369.20001220703125</AltitudeMeters>
            <DistanceMeters>2449.2525643103</DistanceMeters>
          </Trackpoint>
          <Trackpoint>
            <Time>2022-06-16T05:31:29.000Z</Time>
            <Position>
              <LatitudeDegrees>36.77569244988262653350830078125</LatitudeDegrees>
              <LongitudeDegrees>-4.4053819589316844940185546875</LongitudeDegrees>
            </Position>
            <AltitudeMeters>369.20001220703125</AltitudeMeters>
            <DistanceMeters>2450.4842513009</DistanceMeters>
          </Trackpoint>
          <Trackpoint>
            <Time>2022-06-16T05:31:33.000Z</Time>
            <Position>
              <LatitudeDegrees>36.77571885287761688232421875</LatitudeDegrees>
              <LongitudeDegrees>-4.4053460843861103057861328125</LongitudeDegrees>
            </Position>
            <AltitudeMeters>369.399993896484375</AltitudeMeters>
            <DistanceMeters>2454.8285417801</DistanceMeters>
          </Trackpoint>
          <Trackpoint>
            <Time>2022-06-16T05:31:39.000Z</Time>
            <Position>
              <LatitudeDegrees>36.775746680796146392822265625</LatitudeDegrees>
              <LongitudeDegrees>-4.4053004868328571319580078125</LongitudeDegrees>
            </Position>
            <AltitudeMeters>369.399993896484375</AltitudeMeters>
            <DistanceMeters>2459.938823678</DistanceMeters>
          </Trackpoint>
          <Trackpoint>
            <Time>2022-06-16T05:31:43.000Z</Time>
            <Position>
              <LatitudeDegrees>36.7757505364716053009033203125</LatitudeDegrees>
              <LongitudeDegrees>-4.40528162755072116851806640625</LongitudeDegrees>
            </Position>
            <AltitudeMeters>369.399993896484375</AltitudeMeters>
            <DistanceMeters>2461.6728984906</DistanceMeters>
          </Trackpoint>
          <Trackpoint>
            <Time>2022-06-16T05:31:49.000Z</Time>
            <Position>
              <LatitudeDegrees>36.77575497888028621673583984375</LatitudeDegrees>
              <LongitudeDegrees>-4.4052736647427082061767578125</LongitudeDegrees>
            </Position>
            <AltitudeMeters>369.399993896484375</AltitudeMeters>
            <DistanceMeters>2462.5334019876</DistanceMeters>
          </Trackpoint>
          <Trackpoint>
            <Time>2022-06-16T05:31:59.000Z</Time>
            <Position>
              <LatitudeDegrees>36.77576554007828235626220703125</LatitudeDegrees>
              <LongitudeDegrees>-4.40526637248694896697998046875</LongitudeDegrees>
            </Position>
            <AltitudeMeters>369.399993896484375</AltitudeMeters>
            <DistanceMeters>2463.8739187583</DistanceMeters>
          </Trackpoint>
          <Trackpoint>
            <Time>2022-06-16T05:32:09.000Z</Time>
            <Position>
              <LatitudeDegrees>36.77578498609364032745361328125</LatitudeDegrees>
              <LongitudeDegrees>-4.40524022094905376434326171875</LongitudeDegrees>
            </Position>
            <AltitudeMeters>369.399993896484375</AltitudeMeters>
            <DistanceMeters>2467.0555403093</DistanceMeters>
          </Trackpoint>
          <Trackpoint>
            <Time>2022-06-16T05:32:18.000Z</Time>
            <Position>
              <LatitudeDegrees>36.7758641950786113739013671875</LatitudeDegrees>
              <LongitudeDegrees>-4.4052022509276866912841796875</LongitudeDegrees>
            </Position>
            <AltitudeMeters>369.399993896484375</AltitudeMeters>
            <DistanceMeters>2476.4991114008</DistanceMeters>
          </Trackpoint>
          <Trackpoint>
            <Time>2022-06-16T05:32:19.000Z</Time>
            <Position>
              <LatitudeDegrees>36.77587131969630718231201171875</LatitudeDegrees>
              <LongitudeDegrees>-4.40519495867192745208740234375</LongitudeDegrees>
            </Position>
            <AltitudeMeters>369.20001220703125</AltitudeMeters>
            <DistanceMeters>2477.5225804367</DistanceMeters>
          </Trackpoint>
          <Trackpoint>
            <Time>2022-06-16T05:32:23.000Z</Time>
            <Position>
              <LatitudeDegrees>36.7759114690124988555908203125</LatitudeDegrees>
              <LongitudeDegrees>-4.40518272109329700469970703125</LongitudeDegrees>
            </Position>
            <AltitudeMeters>369.20001220703125</AltitudeMeters>
            <DistanceMeters>2482.1223053315</DistanceMeters>
          </Trackpoint>
          <Trackpoint>
            <Time>2022-06-16T05:32:29.000Z</Time>
            <Position>
              <LatitudeDegrees>36.77597676403820514678955078125</LatitudeDegrees>
              <LongitudeDegrees>-4.40516210161149501800537109375</LongitudeDegrees>
            </Position>
            <AltitudeMeters>368.600006103515625</AltitudeMeters>
            <DistanceMeters>2489.6179797931</DistanceMeters>
          </Trackpoint>
          <Trackpoint>
            <Time>2022-06-16T05:32:33.000Z</Time>
            <Position>
              <LatitudeDegrees>36.77602387033402919769287109375</LatitudeDegrees>
              <LongitudeDegrees>-4.405144751071929931640625</LongitudeDegrees>
            </Position>
            <AltitudeMeters>368</AltitudeMeters>
            <DistanceMeters>2495.0851136885</DistanceMeters>
          </Trackpoint>
          <Trackpoint>
            <Time>2022-06-16T05:32:39.000Z</Time>
            <Position>
              <LatitudeDegrees>36.77607885561883449554443359375</LatitudeDegrees>
              <LongitudeDegrees>-4.40512790344655513763427734375</LongitudeDegrees>
            </Position>
            <AltitudeMeters>367.399993896484375</AltitudeMeters>
            <DistanceMeters>2501.3870400765</DistanceMeters>
          </Trackpoint>
          <Trackpoint>
            <Time>2022-06-16T05:32:47.000Z</Time>
            <Position>
              <LatitudeDegrees>36.7761635966598987579345703125</LatitudeDegrees>
              <LongitudeDegrees>-4.405108205974102020263671875</LongitudeDegrees>
            </Position>
            <AltitudeMeters>366.600006103515625</AltitudeMeters>
            <DistanceMeters>2510.9805034301</DistanceMeters>
          </Trackpoint>
          <Trackpoint>
            <Time>2022-06-16T05:32:49.000Z</Time>
            <Position>
              <LatitudeDegrees>36.77618128247559070587158203125</LatitudeDegrees>
              <LongitudeDegrees>-4.40510191954672336578369140625</LongitudeDegrees>
            </Position>
            <AltitudeMeters>366.399993896484375</AltitudeMeters>
            <DistanceMeters>2513.027441502</DistanceMeters>
          </Trackpoint>
          <Trackpoint>
            <Time>2022-06-16T05:32:59.000Z</Time>
            <Position>
              <LatitudeDegrees>36.776269376277923583984375</LatitudeDegrees>
              <LongitudeDegrees>-4.40505950711667537689208984375</LongitudeDegrees>
            </Position>
            <AltitudeMeters>366</AltitudeMeters>
            <DistanceMeters>2523.536382215</DistanceMeters>
          </Trackpoint>
          <Trackpoint>
            <Time>2022-06-16T05:33:04.000Z</Time>
            <Position>
              <LatitudeDegrees>36.77630701102316379547119140625</LatitudeDegrees>
              <LongitudeDegrees>-4.40504207275807857513427734375</LongitudeDegrees>
            </Position>
            <AltitudeMeters>365.79998779296875</AltitudeMeters>
            <DistanceMeters>2528.0046591779</DistanceMeters>
          </Trackpoint>
          <Trackpoint>
            <Time>2022-06-16T05:33:09.000Z</Time>
            <Position>
              <LatitudeDegrees>36.776361577212810516357421875</LatitudeDegrees>
              <LongitudeDegrees>-4.40502497367560863494873046875</LongitudeDegrees>
            </Position>
            <AltitudeMeters>365.600006103515625</AltitudeMeters>
            <DistanceMeters>2534.2656145238</DistanceMeters>
          </Trackpoint>
          <Trackpoint>
            <Time>2022-06-16T05:33:19.000Z</Time>
            <Position>
              <LatitudeDegrees>36.7764774151146411895751953125</LatitudeDegrees>
              <LongitudeDegrees>-4.4049824774265289306640625</LongitudeDegrees>
            </Position>
            <AltitudeMeters>365.20001220703125</AltitudeMeters>
            <DistanceMeters>2547.7037493917</DistanceMeters>
          </Trackpoint>
          <Trackpoint>
            <Time>2022-06-16T05:33:29.000Z</Time>
            <Position>
              <LatitudeDegrees>36.776586212217807769775390625</LatitudeDegrees>
              <LongitudeDegrees>-4.40494383685290813446044921875</LongitudeDegrees>
            </Position>
            <AltitudeMeters>365</AltitudeMeters>
            <DistanceMeters>2560.2932649401</DistanceMeters>
          </Trackpoint>
          <Trackpoint>
            <Time>2022-06-16T05:33:39.000Z</Time>
            <Position>
              <LatitudeDegrees>36.776692159473896026611328125</LatitudeDegrees>
              <LongitudeDegrees>-4.4049167633056640625</LongitudeDegrees>
            </Position>
            <AltitudeMeters>365</AltitudeMeters>
            <DistanceMeters>2572.3298153789</DistanceMeters>
          </Trackpoint>
          <Trackpoint>
            <Time>2022-06-16T05:33:49.000Z</Time>
            <Position>
              <LatitudeDegrees>36.7767883837223052978515625</LatitudeDegrees>
              <LongitudeDegrees>-4.40489463508129119873046875</LongitudeDegrees>
            </Position>
            <AltitudeMeters>366</AltitudeMeters>
            <DistanceMeters>2583.2202251056</DistanceMeters>
          </Trackpoint>
          <Trackpoint>
            <Time>2022-06-16T05:33:59.000Z</Time>
            <Position>
              <LatitudeDegrees>36.7768619768321514129638671875</LatitudeDegrees>
              <LongitudeDegrees>-4.40490913577377796173095703125</LongitudeDegrees>
            </Position>
            <AltitudeMeters>367.79998779296875</AltitudeMeters>
            <DistanceMeters>2591.5131776677</DistanceMeters>
          </Trackpoint>
          <Trackpoint>
            <Time>2022-06-16T05:34:04.000Z</Time>
            <Position>
              <LatitudeDegrees>36.776903383433818817138671875</LatitudeDegrees>
              <LongitudeDegrees>-4.4049046933650970458984375</LongitudeDegrees>
            </Position>
            <AltitudeMeters>368.79998779296875</AltitudeMeters>
            <DistanceMeters>2596.1383534585</DistanceMeters>
          </Trackpoint>
          <Trackpoint>
            <Time>2022-06-16T05:34:09.000Z</Time>
            <Position>
              <LatitudeDegrees>36.77694017998874187469482421875</LatitudeDegrees>
              <LongitudeDegrees>-4.40490460954606533050537109375</LongitudeDegrees>
            </Position>
            <AltitudeMeters>369.600006103515625</AltitudeMeters>
            <DistanceMeters>2600.2333323298</DistanceMeters>
          </Trackpoint>
          <Trackpoint>
            <Time>2022-06-16T05:34:19.000Z</Time>
            <Position>
              <LatitudeDegrees>36.777019388973712921142578125</LatitudeDegrees>
              <LongitudeDegrees>-4.40490326844155788421630859375</LongitudeDegrees>
            </Position>
            <AltitudeMeters>371.20001220703125</AltitudeMeters>
            <DistanceMeters>2609.0498451342</DistanceMeters>
          </Trackpoint>
          <Trackpoint>
            <Time>2022-06-16T05:34:29.000Z</Time>
            <Position>
              <LatitudeDegrees>36.777095496654510498046875</LatitudeDegrees>
              <LongitudeDegrees>-4.40488885156810283660888671875</LongitudeDegrees>
            </Position>
            <AltitudeMeters>373</AltitudeMeters>
            <DistanceMeters>2617.6180725757</DistanceMeters>
          </Trackpoint>
          <Trackpoint>
            <Time>2022-06-16T05:34:39.000Z</Time>
            <Position>
              <LatitudeDegrees>36.777176298201084136962890625</LatitudeDegrees>
              <LongitudeDegrees>-4.4048961438238620758056640625</LongitudeDegrees>
            </Position>
            <AltitudeMeters>374.600006103515625</AltitudeMeters>
            <DistanceMeters>2626.6356020809</DistanceMeters>
          </Trackpoint>
          <Trackpoint>
            <Time>2022-06-16T05:34:49.000Z</Time>
            <Position>
              <LatitudeDegrees>36.7772529087960720062255859375</LatitudeDegrees>
              <LongitudeDegrees>-4.404911734163761138916015625</LongitudeDegrees>
            </Position>
            <AltitudeMeters>376</AltitudeMeters>
            <DistanceMeters>2635.2751976667</DistanceMeters>
          </Trackpoint>
          <Trackpoint>
            <Time>2022-06-16T05:34:59.000Z</Time>
            <Position>
              <LatitudeDegrees>36.7773253284394741058349609375</LatitudeDegrees>
              <LongitudeDegrees>-4.40491634421050548553466796875</LongitudeDegrees>
            </Position>
            <AltitudeMeters>377.20001220703125</AltitudeMeters>
            <DistanceMeters>2643.3463172586</DistanceMeters>
          </Trackpoint>
          <Trackpoint>
            <Time>2022-06-16T05:35:09.000Z</Time>
            <Position>
              <LatitudeDegrees>36.77739565260708332061767578125</LatitudeDegrees>
              <LongitudeDegrees>-4.4049276597797870635986328125</LongitudeDegrees>
            </Position>
            <AltitudeMeters>377.79998779296875</AltitudeMeters>
            <DistanceMeters>2651.2386849205</DistanceMeters>
          </Trackpoint>
          <Trackpoint>
            <Time>2022-06-16T05:35:19.000Z</Time>
            <Position>
              <LatitudeDegrees>36.777440495789051055908203125</LatitudeDegrees>
              <LongitudeDegrees>-4.40493411384522914886474609375</LongitudeDegrees>
            </Position>
            <AltitudeMeters>378.20001220703125</AltitudeMeters>
            <DistanceMeters>2656.2625344068</DistanceMeters>
          </Trackpoint>
          <Trackpoint>
            <Time>2022-06-16T05:35:29.000Z</Time>
            <Position>
              <LatitudeDegrees>36.7774694971740245819091796875</LatitudeDegrees>
              <LongitudeDegrees>-4.404929839074611663818359375</LongitudeDegrees>
            </Position>
            <AltitudeMeters>378.399993896484375</AltitudeMeters>
            <DistanceMeters>2659.5129481403</DistanceMeters>
          </Trackpoint>
          <Trackpoint>
            <Time>2022-06-16T05:35:39.000Z</Time>
            <Position>
              <LatitudeDegrees>36.77755373530089855194091796875</LatitudeDegrees>
              <LongitudeDegrees>-4.4049038551747798919677734375</LongitudeDegrees>
            </Position>
            <AltitudeMeters>379</AltitudeMeters>
            <DistanceMeters>2669.1702060075</DistanceMeters>
          </Trackpoint>
          <Trackpoint>
            <Time>2022-06-16T05:35:43.000Z</Time>
            <Position>
              <LatitudeDegrees>36.7775871790945529937744140625</LatitudeDegrees>
              <LongitudeDegrees>-4.40488499589264392852783203125</LongitudeDegrees>
            </Position>
            <AltitudeMeters>379.20001220703125</AltitudeMeters>
            <DistanceMeters>2673.2552496142</DistanceMeters>
          </Trackpoint>
          <Trackpoint>
            <Time>2022-06-16T05:35:48.000Z</Time>
            <Position>
              <LatitudeDegrees>36.77762900479137897491455078125</LatitudeDegrees>
              <LongitudeDegrees>-4.40485163591802120208740234375</LongitudeDegrees>
            </Position>
            <AltitudeMeters>379.20001220703125</AltitudeMeters>
            <DistanceMeters>2678.7807078266</DistanceMeters>
          </Trackpoint>
          <Trackpoint>
            <Time>2022-06-16T05:35:49.000Z</Time>
            <Position>
              <LatitudeDegrees>36.777637302875518798828125</LatitudeDegrees>
              <LongitudeDegrees>-4.404844343662261962890625</LongitudeDegrees>
            </Position>
            <AltitudeMeters>379.20001220703125</AltitudeMeters>
            <DistanceMeters>2679.9130818174</DistanceMeters>
          </Trackpoint>
          <Trackpoint>
            <Time>2022-06-16T05:35:59.000Z</Time>
            <Position>
              <LatitudeDegrees>36.77773277275264263153076171875</LatitudeDegrees>
              <LongitudeDegrees>-4.40477033145725727081298828125</LongitudeDegrees>
            </Position>
            <AltitudeMeters>379.20001220703125</AltitudeMeters>
            <DistanceMeters>2692.4205613523</DistanceMeters>
          </Trackpoint>
          <Trackpoint>
            <Time>2022-06-16T05:36:08.000Z</Time>
            <Position>
              <LatitudeDegrees>36.77781592123210430145263671875</LatitudeDegrees>
              <LongitudeDegrees>-4.4047201238572597503662109375</LongitudeDegrees>
            </Position>
            <AltitudeMeters>379</AltitudeMeters>
            <DistanceMeters>2702.700150573</DistanceMeters>
          </Trackpoint>
          <Trackpoint>
            <Time>2022-06-16T05:36:09.000Z</Time>
            <Position>
              <LatitudeDegrees>36.7778258956968784332275390625</LatitudeDegrees>
              <LongitudeDegrees>-4.40471534617245197296142578125</LongitudeDegrees>
            </Position>
            <AltitudeMeters>379</AltitudeMeters>
            <DistanceMeters>2703.8870338551</DistanceMeters>
          </Trackpoint>
          <Trackpoint>
            <Time>2022-06-16T05:36:17.000Z</Time>
            <Position>
              <LatitudeDegrees>36.77789823152124881744384765625</LatitudeDegrees>
              <LongitudeDegrees>-4.404678381979465484619140625</LongitudeDegrees>
            </Position>
            <AltitudeMeters>378.79998779296875</AltitudeMeters>
            <DistanceMeters>2712.5860016444</DistanceMeters>
          </Trackpoint>
          <Trackpoint>
            <Time>2022-06-16T05:36:19.000Z</Time>
            <Position>
              <LatitudeDegrees>36.77792069502174854278564453125</LatitudeDegrees>
              <LongitudeDegrees>-4.40466907806694507598876953125</LongitudeDegrees>
            </Position>
            <AltitudeMeters>378.600006103515625</AltitudeMeters>
            <DistanceMeters>2715.2194592023</DistanceMeters>
          </Trackpoint>
          <Trackpoint>
            <Time>2022-06-16T05:36:21.000Z</Time>
            <Position>
              <LatitudeDegrees>36.77794374525547027587890625</LatitudeDegrees>
              <LongitudeDegrees>-4.40465918742120265960693359375</LongitudeDegrees>
            </Position>
            <AltitudeMeters>378.399993896484375</AltitudeMeters>
            <DistanceMeters>2717.9306364789</DistanceMeters>
          </Trackpoint>
          <Trackpoint>
            <Time>2022-06-16T05:36:22.000Z</Time>
            <Position>
              <LatitudeDegrees>36.7779553122818470001220703125</LatitudeDegrees>
              <LongitudeDegrees>-4.40465382300317287445068359375</LongitudeDegrees>
            </Position>
            <AltitudeMeters>378.399993896484375</AltitudeMeters>
            <DistanceMeters>2719.3044217521</DistanceMeters>
          </Trackpoint>
          <Trackpoint>
            <Time>2022-06-16T05:36:29.000Z</Time>
            <Position>
              <LatitudeDegrees>36.778034269809722900390625</LatitudeDegrees>
              <LongitudeDegrees>-4.4046232290565967559814453125</LongitudeDegrees>
            </Position>
            <AltitudeMeters>377.79998779296875</AltitudeMeters>
            <DistanceMeters>2728.5063251864</DistanceMeters>
          </Trackpoint>
          <Trackpoint>
            <Time>2022-06-16T05:36:34.000Z</Time>
            <Position>
              <LatitudeDegrees>36.77810207940638065338134765625</LatitudeDegrees>
              <LongitudeDegrees>-4.4046061299741268157958984375</LongitudeDegrees>
            </Position>
            <AltitudeMeters>377.20001220703125</AltitudeMeters>
            <DistanceMeters>2736.2064214151</DistanceMeters>
          </Trackpoint>
          <Trackpoint>
            <Time>2022-06-16T05:36:39.000Z</Time>
            <Position>
              <LatitudeDegrees>36.7781638540327548980712890625</LatitudeDegrees>
              <LongitudeDegrees>-4.40458794124424457550048828125</LongitudeDegrees>
            </Position>
            <AltitudeMeters>377.399993896484375</AltitudeMeters>
            <DistanceMeters>2743.2704289483</DistanceMeters>
          </Trackpoint>
          <Trackpoint>
            <Time>2022-06-16T05:36:49.000Z</Time>
            <Position>
              <LatitudeDegrees>36.7782748304307460784912109375</LatitudeDegrees>
              <LongitudeDegrees>-4.40450948663055896759033203125</LongitudeDegrees>
            </Position>
            <AltitudeMeters>379</AltitudeMeters>
            <DistanceMeters>2757.4647611136</DistanceMeters>
          </Trackpoint>
          <Trackpoint>
            <Time>2022-06-16T05:36:52.000Z</Time>
            <Position>
              <LatitudeDegrees>36.77829503081738948822021484375</LatitudeDegrees>
              <LongitudeDegrees>-4.404467828571796417236328125</LongitudeDegrees>
            </Position>
            <AltitudeMeters>379.600006103515625</AltitudeMeters>
            <DistanceMeters>2761.8059325613</DistanceMeters>
          </Trackpoint>
          <Trackpoint>
            <Time>2022-06-16T05:36:56.000Z</Time>
            <Position>
              <LatitudeDegrees>36.77832059562206268310546875</LatitudeDegrees>
              <LongitudeDegrees>-4.40440622158348560333251953125</LongitudeDegrees>
            </Position>
            <AltitudeMeters>380.399993896484375</AltitudeMeters>
            <DistanceMeters>2767.9914344725</DistanceMeters>
          </Trackpoint>
          <Trackpoint>
            <Time>2022-06-16T05:36:59.000Z</Time>
            <Position>
              <LatitudeDegrees>36.77832738496363162994384765625</LatitudeDegrees>
              <LongitudeDegrees>-4.4043704308569431304931640625</LongitudeDegrees>
            </Position>
            <AltitudeMeters>381</AltitudeMeters>
            <DistanceMeters>2771.2695118005</DistanceMeters>
          </Trackpoint>
          <Trackpoint>
            <Time>2022-06-16T05:37:02.000Z</Time>
            <Position>
              <LatitudeDegrees>36.77833073772490024566650390625</LatitudeDegrees>
              <LongitudeDegrees>-4.4043301977217197418212890625</LongitudeDegrees>
            </Position>
            <AltitudeMeters>381.399993896484375</AltitudeMeters>
            <DistanceMeters>2774.8755220721</DistanceMeters>
          </Trackpoint>
          <Trackpoint>
            <Time>2022-06-16T05:37:03.000Z</Time>
            <Position>
              <LatitudeDegrees>36.77833224646747112274169921875</LatitudeDegrees>
              <LongitudeDegrees>-4.40431636758148670196533203125</LongitudeDegrees>
            </Position>
            <AltitudeMeters>381.600006103515625</AltitudeMeters>
            <DistanceMeters>2776.1181576068</DistanceMeters>
          </Trackpoint>
          <Trackpoint>
            <Time>2022-06-16T05:37:05.000Z</Time>
            <Position>
              <LatitudeDegrees>36.77834071218967437744140625</LatitudeDegrees>
              <LongitudeDegrees>-4.40429490990936756134033203125</LongitudeDegrees>
            </Position>
            <AltitudeMeters>381.79998779296875</AltitudeMeters>
            <DistanceMeters>2778.2515020533</DistanceMeters>
          </Trackpoint>
          <Trackpoint>
            <Time>2022-06-16T05:37:09.000Z</Time>
            <Position>
              <LatitudeDegrees>36.77835814654827117919921875</LatitudeDegrees>
              <LongitudeDegrees>-4.40424746833741664886474609375</LongitudeDegrees>
            </Position>
            <AltitudeMeters>382.399993896484375</AltitudeMeters>
            <DistanceMeters>2782.9049011672</DistanceMeters>
          </Trackpoint>
          <Trackpoint>
            <Time>2022-06-16T05:37:14.000Z</Time>
            <Position>
              <LatitudeDegrees>36.77838228642940521240234375</LatitudeDegrees>
              <LongitudeDegrees>-4.4041977636516094207763671875</LongitudeDegrees>
            </Position>
            <AltitudeMeters>383.20001220703125</AltitudeMeters>
            <DistanceMeters>2788.0871253368</DistanceMeters>
          </Trackpoint>
          <Trackpoint>
            <Time>2022-06-16T05:37:18.000Z</Time>
            <Position>
              <LatitudeDegrees>36.77840349264442920684814453125</LatitudeDegrees>
              <LongitudeDegrees>-4.4041692651808261871337890625</LongitudeDegrees>
            </Position>
            <AltitudeMeters>383.600006103515625</AltitudeMeters>
            <DistanceMeters>2791.5552749621</DistanceMeters>
          </Trackpoint>
          <Trackpoint>
            <Time>2022-06-16T05:37:19.000Z</Time>
            <Position>
              <LatitudeDegrees>36.77841179072856903076171875</LatitudeDegrees>
              <LongitudeDegrees>-4.40416113473474979400634765625</LongitudeDegrees>
            </Position>
            <AltitudeMeters>383.79998779296875</AltitudeMeters>
            <DistanceMeters>2792.7268429795</DistanceMeters>
          </Trackpoint>
          <Trackpoint>
            <Time>2022-06-16T05:37:27.000Z</Time>
            <Position>
              <LatitudeDegrees>36.7784558795392513275146484375</LatitudeDegrees>
              <LongitudeDegrees>-4.40408586524426937103271484375</LongitudeDegrees>
            </Position>
            <AltitudeMeters>385</AltitudeMeters>
            <DistanceMeters>2801.0393723749</DistanceMeters>
          </Trackpoint>
          <Trackpoint>
            <Time>2022-06-16T05:37:29.000Z</Time>
            <Position>
              <LatitudeDegrees>36.7784639261662960052490234375</LatitudeDegrees>
              <LongitudeDegrees>-4.40406742505729198455810546875</LongitudeDegrees>
            </Position>
            <AltitudeMeters>385.20001220703125</AltitudeMeters>
            <DistanceMeters>2802.9111815693</DistanceMeters>
          </Trackpoint>
          <Trackpoint>
            <Time>2022-06-16T05:37:35.000Z</Time>
            <Position>
              <LatitudeDegrees>36.77848932333290576934814453125</LatitudeDegrees>
              <LongitudeDegrees>-4.40400590188801288604736328125</LongitudeDegrees>
            </Position>
            <AltitudeMeters>386</AltitudeMeters>
            <DistanceMeters>2809.0813357236</DistanceMeters>
          </Trackpoint>
          <Trackpoint>
            <Time>2022-06-16T05:37:39.000Z</Time>
            <Position>
              <LatitudeDegrees>36.7785065062344074249267578125</LatitudeDegrees>
              <LongitudeDegrees>-4.4039570353925228118896484375</LongitudeDegrees>
            </Position>
            <AltitudeMeters>386.600006103515625</AltitudeMeters>
            <DistanceMeters>2813.8393186623</DistanceMeters>
          </Trackpoint>
          <Trackpoint>
            <Time>2022-06-16T05:37:45.000Z</Time>
            <Position>
              <LatitudeDegrees>36.77852201275527477264404296875</LatitudeDegrees>
              <LongitudeDegrees>-4.40388335846364498138427734375</LongitudeDegrees>
            </Position>
            <AltitudeMeters>387.399993896484375</AltitudeMeters>
            <DistanceMeters>2820.6302391006</DistanceMeters>
          </Trackpoint>
          <Trackpoint>
            <Time>2022-06-16T05:37:46.000Z</Time>
            <Position>
              <LatitudeDegrees>36.77852452732622623443603515625</LatitudeDegrees>
              <LongitudeDegrees>-4.4038775749504566192626953125</LongitudeDegrees>
            </Position>
            <AltitudeMeters>387.600006103515625</AltitudeMeters>
            <DistanceMeters>2821.2160231093</DistanceMeters>
          </Trackpoint>
          <Trackpoint>
            <Time>2022-06-16T05:37:49.000Z</Time>
            <Position>
              <LatitudeDegrees>36.77853383123874664306640625</LatitudeDegrees>
              <LongitudeDegrees>-4.40385703928768634796142578125</LongitudeDegrees>
            </Position>
            <AltitudeMeters>387.79998779296875</AltitudeMeters>
            <DistanceMeters>2823.3173815702</DistanceMeters>
          </Trackpoint>
          <Trackpoint>
            <Time>2022-06-16T05:37:52.000Z</Time>
            <Position>
              <LatitudeDegrees>36.77854799665510654449462890625</LatitudeDegrees>
              <LongitudeDegrees>-4.403823427855968475341796875</LongitudeDegrees>
            </Position>
            <AltitudeMeters>388.20001220703125</AltitudeMeters>
            <DistanceMeters>2826.7038542312</DistanceMeters>
          </Trackpoint>
          <Trackpoint>
            <Time>2022-06-16T05:37:57.000Z</Time>
            <Position>
              <LatitudeDegrees>36.7785769142210483551025390625</LatitudeDegrees>
              <LongitudeDegrees>-4.40375964157283306121826171875</LongitudeDegrees>
            </Position>
            <AltitudeMeters>388.79998779296875</AltitudeMeters>
            <DistanceMeters>2833.2379342297</DistanceMeters>
          </Trackpoint>
          <Trackpoint>
            <Time>2022-06-16T05:37:59.000Z</Time>
            <Position>
              <LatitudeDegrees>36.77858437411487102508544921875</LatitudeDegrees>
              <LongitudeDegrees>-4.40373516641557216644287109375</LongitudeDegrees>
            </Position>
            <AltitudeMeters>389</AltitudeMeters>
            <DistanceMeters>2835.5714157693</DistanceMeters>
          </Trackpoint>
          <Trackpoint>
            <Time>2022-06-16T05:38:09.000Z</Time>
            <Position>
              <LatitudeDegrees>36.77861471660435199737548828125</LatitudeDegrees>
              <LongitudeDegrees>-4.40362586639821529388427734375</LongitudeDegrees>
            </Position>
            <AltitudeMeters>389.600006103515625</AltitudeMeters>
            <DistanceMeters>2845.8834563145</DistanceMeters>
          </Trackpoint>
          <Trackpoint>
            <Time>2022-06-16T05:38:19.000Z</Time>
            <Position>
              <LatitudeDegrees>36.778661571443080902099609375</LatitudeDegrees>
              <LongitudeDegrees>-4.4035268761217594146728515625</LongitudeDegrees>
            </Position>
            <AltitudeMeters>390.399993896484375</AltitudeMeters>
            <DistanceMeters>2856.1340157871</DistanceMeters>
          </Trackpoint>
          <Trackpoint>
            <Time>2022-06-16T05:38:29.000Z</Time>
            <Position>
              <LatitudeDegrees>36.778736002743244171142578125</LatitudeDegrees>
              <LongitudeDegrees>-4.4033994711935520172119140625</LongitudeDegrees>
            </Position>
            <AltitudeMeters>390</AltitudeMeters>
            <DistanceMeters>2870.1921896746</DistanceMeters>
          </Trackpoint>
          <Trackpoint>
            <Time>2022-06-16T05:38:39.000Z</Time>
            <Position>
              <LatitudeDegrees>36.77876207046210765838623046875</LatitudeDegrees>
              <LongitudeDegrees>-4.40333015285432338714599609375</LongitudeDegrees>
            </Position>
            <AltitudeMeters>389.600006103515625</AltitudeMeters>
            <DistanceMeters>2877.0195797033</DistanceMeters>
          </Trackpoint>
          <Trackpoint>
            <Time>2022-06-16T05:38:49.000Z</Time>
            <Position>
              <LatitudeDegrees>36.7788107693195343017578125</LatitudeDegrees>
              <LongitudeDegrees>-4.403277598321437835693359375</LongitudeDegrees>
            </Position>
            <AltitudeMeters>389.399993896484375</AltitudeMeters>
            <DistanceMeters>2884.1838629548</DistanceMeters>
          </Trackpoint>
          <Trackpoint>
            <Time>2022-06-16T05:38:59.000Z</Time>
            <Position>
              <LatitudeDegrees>36.77887178957462310791015625</LatitudeDegrees>
              <LongitudeDegrees>-4.40316586755216121673583984375</LongitudeDegrees>
            </Position>
            <AltitudeMeters>390.20001220703125</AltitudeMeters>
            <DistanceMeters>2896.2391543361</DistanceMeters>
          </Trackpoint>
          <Trackpoint>
            <Time>2022-06-16T05:39:09.000Z</Time>
            <Position>
              <LatitudeDegrees>36.77892752923071384429931640625</LatitudeDegrees>
              <LongitudeDegrees>-4.40304315648972988128662109375</LongitudeDegrees>
            </Position>
            <AltitudeMeters>390.79998779296875</AltitudeMeters>
            <DistanceMeters>2908.8150343785</DistanceMeters>
          </Trackpoint>
          <Trackpoint>
            <Time>2022-06-16T05:39:19.000Z</Time>
            <Position>
              <LatitudeDegrees>36.778974719345569610595703125</LatitudeDegrees>
              <LongitudeDegrees>-4.40293469466269016265869140625</LongitudeDegrees>
            </Position>
            <AltitudeMeters>393.79998779296875</AltitudeMeters>
            <DistanceMeters>2919.8192756114</DistanceMeters>
          </Trackpoint>
          <Trackpoint>
            <Time>2022-06-16T05:39:21.000Z</Time>
            <Position>
              <LatitudeDegrees>36.7789824306964874267578125</LatitudeDegrees>
              <LongitudeDegrees>-4.40291156060993671417236328125</LongitudeDegrees>
            </Position>
            <AltitudeMeters>394.399993896484375</AltitudeMeters>
            <DistanceMeters>2922.0518978807</DistanceMeters>
          </Trackpoint>
          <Trackpoint>
            <Time>2022-06-16T05:39:29.000Z</Time>
            <Position>
              <LatitudeDegrees>36.7789815925061702728271484375</LatitudeDegrees>
              <LongitudeDegrees>-4.40288892947137355804443359375</LongitudeDegrees>
            </Position>
            <AltitudeMeters>395.20001220703125</AltitudeMeters>
            <DistanceMeters>2924.0721935404</DistanceMeters>
          </Trackpoint>
          <Trackpoint>
            <Time>2022-06-16T05:39:33.000Z</Time>
            <Position>
              <LatitudeDegrees>36.7789715342223644256591796875</LatitudeDegrees>
              <LongitudeDegrees>-4.40285288728773593902587890625</LongitudeDegrees>
            </Position>
            <AltitudeMeters>396</AltitudeMeters>
            <DistanceMeters>2927.4746276692</DistanceMeters>
          </Trackpoint>
          <Trackpoint>
            <Time>2022-06-16T05:39:37.000Z</Time>
            <Position>
              <LatitudeDegrees>36.77897228859364986419677734375</LatitudeDegrees>
              <LongitudeDegrees>-4.40279874019324779510498046875</LongitudeDegrees>
            </Position>
            <AltitudeMeters>397.600006103515625</AltitudeMeters>
            <DistanceMeters>2932.3032566028</DistanceMeters>
          </Trackpoint>
          <Trackpoint>
            <Time>2022-06-16T05:39:38.000Z</Time>
            <Position>
              <LatitudeDegrees>36.7789718694984912872314453125</LatitudeDegrees>
              <LongitudeDegrees>-4.402785412967205047607421875</LongitudeDegrees>
            </Position>
            <AltitudeMeters>398</AltitudeMeters>
            <DistanceMeters>2933.4977238808</DistanceMeters>
          </Trackpoint>
          <Trackpoint>
            <Time>2022-06-16T05:39:39.000Z</Time>
            <Position>
              <LatitudeDegrees>36.7789732106029987335205078125</LatitudeDegrees>
              <LongitudeDegrees>-4.40277032554149627685546875</LongitudeDegrees>
            </Position>
            <AltitudeMeters>398.399993896484375</AltitudeMeters>
            <DistanceMeters>2934.8516461526</DistanceMeters>
          </Trackpoint>
          <Trackpoint>
            <Time>2022-06-16T05:39:49.000Z</Time>
            <Position>
              <LatitudeDegrees>36.77902777679264545440673828125</LatitudeDegrees>
              <LongitudeDegrees>-4.40270871855318546295166015625</LongitudeDegrees>
            </Position>
            <AltitudeMeters>401.20001220703125</AltitudeMeters>
            <DistanceMeters>2943.0399498595</DistanceMeters>
          </Trackpoint>
          <Trackpoint>
            <Time>2022-06-16T05:39:59.000Z</Time>
            <Position>
              <LatitudeDegrees>36.7790861986577510833740234375</LatitudeDegrees>
              <LongitudeDegrees>-4.40268206410109996795654296875</LongitudeDegrees>
            </Position>
            <AltitudeMeters>402.600006103515625</AltitudeMeters>
            <DistanceMeters>2949.9632182903</DistanceMeters>
          </Trackpoint>
          <Trackpoint>
            <Time>2022-06-16T05:40:09.000Z</Time>
            <Position>
              <LatitudeDegrees>36.7791398428380489349365234375</LatitudeDegrees>
              <LongitudeDegrees>-4.4026060402393341064453125</LongitudeDegrees>
            </Position>
            <AltitudeMeters>406</AltitudeMeters>
            <DistanceMeters>2958.9957561768</DistanceMeters>
          </Trackpoint>
          <Trackpoint>
            <Time>2022-06-16T05:40:19.000Z</Time>
            <Position>
              <LatitudeDegrees>36.77916574291884899139404296875</LatitudeDegrees>
              <LongitudeDegrees>-4.4025336205959320068359375</LongitudeDegrees>
            </Position>
            <AltitudeMeters>409</AltitudeMeters>
            <DistanceMeters>2966.0661524312</DistanceMeters>
          </Trackpoint>
          <Trackpoint>
            <Time>2022-06-16T05:40:29.000Z</Time>
            <Position>
              <LatitudeDegrees>36.7791884578764438629150390625</LatitudeDegrees>
              <LongitudeDegrees>-4.4024586863815784454345703125</LongitudeDegrees>
            </Position>
            <AltitudeMeters>411.600006103515625</AltitudeMeters>
            <DistanceMeters>2973.2089762361</DistanceMeters>
          </Trackpoint>
          <Trackpoint>
            <Time>2022-06-16T05:40:39.000Z</Time>
            <Position>
              <LatitudeDegrees>36.7792028747498989105224609375</LatitudeDegrees>
              <LongitudeDegrees>-4.4024000130593776702880859375</LongitudeDegrees>
            </Position>
            <AltitudeMeters>413.79998779296875</AltitudeMeters>
            <DistanceMeters>2978.6802378284</DistanceMeters>
          </Trackpoint>
          <Trackpoint>
            <Time>2022-06-16T05:40:49.000Z</Time>
            <Position>
              <LatitudeDegrees>36.77923078648746013641357421875</LatitudeDegrees>
              <LongitudeDegrees>-4.4023467041552066802978515625</LongitudeDegrees>
            </Position>
            <AltitudeMeters>415.79998779296875</AltitudeMeters>
            <DistanceMeters>2984.3580343116</DistanceMeters>
          </Trackpoint>
          <Trackpoint>
            <Time>2022-06-16T05:40:58.000Z</Time>
            <Position>
              <LatitudeDegrees>36.7792494781315326690673828125</LatitudeDegrees>
              <LongitudeDegrees>-4.40230202861130237579345703125</LongitudeDegrees>
            </Position>
            <AltitudeMeters>417.600006103515625</AltitudeMeters>
            <DistanceMeters>2988.8515018957</DistanceMeters>
          </Trackpoint>
          <Trackpoint>
            <Time>2022-06-16T05:40:59.000Z</Time>
            <Position>
              <LatitudeDegrees>36.779251657426357269287109375</LatitudeDegrees>
              <LongitudeDegrees>-4.402295909821987152099609375</LongitudeDegrees>
            </Position>
            <AltitudeMeters>417.79998779296875</AltitudeMeters>
            <DistanceMeters>2989.4525036076</DistanceMeters>
          </Trackpoint>
          <Trackpoint>
            <Time>2022-06-16T05:41:09.000Z</Time>
            <Position>
              <LatitudeDegrees>36.77928191609680652618408203125</LatitudeDegrees>
              <LongitudeDegrees>-4.40222960896790027618408203125</LongitudeDegrees>
            </Position>
            <AltitudeMeters>420.20001220703125</AltitudeMeters>
            <DistanceMeters>2996.2547173428</DistanceMeters>
          </Trackpoint>
          <Trackpoint>
            <Time>2022-06-16T05:41:14.000Z</Time>
            <Position>
              <LatitudeDegrees>36.77929448895156383514404296875</LatitudeDegrees>
              <LongitudeDegrees>-4.40220278687775135040283203125</LongitudeDegrees>
            </Position>
            <AltitudeMeters>421.20001220703125</AltitudeMeters>
            <DistanceMeters>2999.0251983439</DistanceMeters>
          </Trackpoint>
          <Trackpoint>
            <Time>2022-06-16T05:41:16.000Z</Time>
            <Position>
              <LatitudeDegrees>36.7793014459311962127685546875</LatitudeDegrees>
              <LongitudeDegrees>-4.40219591371715068817138671875</LongitudeDegrees>
            </Position>
            <AltitudeMeters>421.399993896484375</AltitudeMeters>
            <DistanceMeters>3000.012744928</DistanceMeters>
          </Trackpoint>
          <Trackpoint>
            <Time>2022-06-16T05:41:17.000Z</Time>
            <Position>
              <LatitudeDegrees>36.77930496633052825927734375</LatitudeDegrees>
              <LongitudeDegrees>-4.4021931476891040802001953125</LongitudeDegrees>
            </Position>
            <AltitudeMeters>421.399993896484375</AltitudeMeters>
            <DistanceMeters>3000.4782788523</DistanceMeters>
          </Trackpoint>
          <Trackpoint>
            <Time>2022-06-16T05:41:18.000Z</Time>
            <Position>
              <LatitudeDegrees>36.77930588833987712860107421875</LatitudeDegrees>
              <LongitudeDegrees>-4.40218585543334484100341796875</LongitudeDegrees>
            </Position>
            <AltitudeMeters>421.79998779296875</AltitudeMeters>
            <DistanceMeters>3001.1366432418</DistanceMeters>
          </Trackpoint>
          <Trackpoint>
            <Time>2022-06-16T05:41:19.000Z</Time>
            <Position>
              <LatitudeDegrees>36.77930940873920917510986328125</LatitudeDegrees>
              <LongitudeDegrees>-4.4021814130246639251708984375</LongitudeDegrees>
            </Position>
            <AltitudeMeters>421.79998779296875</AltitudeMeters>
            <DistanceMeters>3001.690739442</DistanceMeters>
          </Trackpoint>
          <Trackpoint>
            <Time>2022-06-16T05:41:20.000Z</Time>
            <Position>
              <LatitudeDegrees>36.7793123424053192138671875</LatitudeDegrees>
              <LongitudeDegrees>-4.4021777249872684478759765625</LongitudeDegrees>
            </Position>
            <AltitudeMeters>422</AltitudeMeters>
            <DistanceMeters>3002.1562733663</DistanceMeters>
          </Trackpoint>
          <Trackpoint>
            <Time>2022-06-16T05:41:21.000Z</Time>
            <Position>
              <LatitudeDegrees>36.77931209094822406768798828125</LatitudeDegrees>
              <LongitudeDegrees>-4.40217244438827037811279296875</LongitudeDegrees>
            </Position>
            <AltitudeMeters>422.20001220703125</AltitudeMeters>
            <DistanceMeters>3002.6218072906</DistanceMeters>
          </Trackpoint>
          <Trackpoint>
            <Time>2022-06-16T05:41:22.000Z</Time>
            <Position>
              <LatitudeDegrees>36.77931368350982666015625</LatitudeDegrees>
              <LongitudeDegrees>-4.40216674469411373138427734375</LongitudeDegrees>
            </Position>
            <AltitudeMeters>422.399993896484375</AltitudeMeters>
            <DistanceMeters>3003.1593595636</DistanceMeters>
          </Trackpoint>
          <Trackpoint>
            <Time>2022-06-16T05:41:23.000Z</Time>
            <Position>
              <LatitudeDegrees>36.77931611426174640655517578125</LatitudeDegrees>
              <LongitudeDegrees>-4.40216238610446453094482421875</LongitudeDegrees>
            </Position>
            <AltitudeMeters>422.399993896484375</AltitudeMeters>
            <DistanceMeters>3003.6248934878</DistanceMeters>
          </Trackpoint>
          <Trackpoint>
            <Time>2022-06-16T05:41:28.000Z</Time>
            <Position>
              <LatitudeDegrees>36.77933824248611927032470703125</LatitudeDegrees>
              <LongitudeDegrees>-4.40213975496590137481689453125</LongitudeDegrees>
            </Position>
            <AltitudeMeters>423.20001220703125</AltitudeMeters>
            <DistanceMeters>3006.8093519734</DistanceMeters>
          </Trackpoint>
          <Trackpoint>
            <Time>2022-06-16T05:41:29.000Z</Time>
            <Position>
              <LatitudeDegrees>36.77934109233319759368896484375</LatitudeDegrees>
              <LongitudeDegrees>-4.40213724039494991302490234375</LongitudeDegrees>
            </Position>
            <AltitudeMeters>423.399993896484375</AltitudeMeters>
            <DistanceMeters>3007.2125161782</DistanceMeters>
          </Trackpoint>
          <Trackpoint>
            <Time>2022-06-16T05:41:35.000Z</Time>
            <Position>
              <LatitudeDegrees>36.77936053834855556488037109375</LatitudeDegrees>
              <LongitudeDegrees>-4.40210379660129547119140625</LongitudeDegrees>
            </Position>
            <AltitudeMeters>424.399993896484375</AltitudeMeters>
            <DistanceMeters>3010.8953377621</DistanceMeters>
          </Trackpoint>
          <Trackpoint>
            <Time>2022-06-16T05:41:39.000Z</Time>
            <Position>
              <LatitudeDegrees>36.7793745361268520355224609375</LatitudeDegrees>
              <LongitudeDegrees>-4.4020939059555530548095703125</LongitudeDegrees>
            </Position>
            <AltitudeMeters>424.79998779296875</AltitudeMeters>
            <DistanceMeters>3012.6857782491</DistanceMeters>
          </Trackpoint>
          <Trackpoint>
            <Time>2022-06-16T05:41:44.000Z</Time>
            <Position>
              <LatitudeDegrees>36.7793899588286876678466796875</LatitudeDegrees>
              <LongitudeDegrees>-4.40206130035221576690673828125</LongitudeDegrees>
            </Position>
            <AltitudeMeters>426</AltitudeMeters>
            <DistanceMeters>3016.0602302633</DistanceMeters>
          </Trackpoint>
          <Trackpoint>
            <Time>2022-06-16T05:41:49.000Z</Time>
            <Position>
              <LatitudeDegrees>36.7794070579111576080322265625</LatitudeDegrees>
              <LongitudeDegrees>-4.40202928148210048675537109375</LongitudeDegrees>
            </Position>
            <AltitudeMeters>427</AltitudeMeters>
            <DistanceMeters>3019.4904182474</DistanceMeters>
          </Trackpoint>
          <Trackpoint>
            <Time>2022-06-16T05:41:57.000Z</Time>
            <Position>
              <LatitudeDegrees>36.77942943759262561798095703125</LatitudeDegrees>
              <LongitudeDegrees>-4.40197329036891460418701171875</LongitudeDegrees>
            </Position>
            <AltitudeMeters>428.79998779296875</AltitudeMeters>
            <DistanceMeters>3025.0687372976</DistanceMeters>
          </Trackpoint>
          <Trackpoint>
            <Time>2022-06-16T05:41:59.000Z</Time>
            <Position>
              <LatitudeDegrees>36.77943312563002109527587890625</LatitudeDegrees>
              <LongitudeDegrees>-4.40196222625672817230224609375</LongitudeDegrees>
            </Position>
            <AltitudeMeters>429</AltitudeMeters>
            <DistanceMeters>3026.1354095209</DistanceMeters>
          </Trackpoint>
          <Trackpoint>
            <Time>2022-06-16T05:42:03.000Z</Time>
            <Position>
              <LatitudeDegrees>36.77944310009479522705078125</LatitudeDegrees>
              <LongitudeDegrees>-4.4019393436610698699951171875</LongitudeDegrees>
            </Position>
            <AltitudeMeters>429.79998779296875</AltitudeMeters>
            <DistanceMeters>3028.4591964547</DistanceMeters>
          </Trackpoint>
          <Trackpoint>
            <Time>2022-06-16T05:42:09.000Z</Time>
            <Position>
              <LatitudeDegrees>36.77945072762668132781982421875</LatitudeDegrees>
              <LongitudeDegrees>-4.40190506167709827423095703125</LongitudeDegrees>
            </Position>
            <AltitudeMeters>430.79998779296875</AltitudeMeters>
            <DistanceMeters>3031.6308687515</DistanceMeters>
          </Trackpoint>
          <Trackpoint>
            <Time>2022-06-16T05:42:15.000Z</Time>
            <Position>
              <LatitudeDegrees>36.77944854833185672760009765625</LatitudeDegrees>
              <LongitudeDegrees>-4.40186851657927036285400390625</LongitudeDegrees>
            </Position>
            <AltitudeMeters>431.600006103515625</AltitudeMeters>
            <DistanceMeters>3034.8951435873</DistanceMeters>
          </Trackpoint>
          <Trackpoint>
            <Time>2022-06-16T05:42:19.000Z</Time>
            <Position>
              <LatitudeDegrees>36.779444776475429534912109375</LatitudeDegrees>
              <LongitudeDegrees>-4.401829540729522705078125</LongitudeDegrees>
            </Position>
            <AltitudeMeters>432.600006103515625</AltitudeMeters>
            <DistanceMeters>3038.3943983163</DistanceMeters>
          </Trackpoint>
          <Trackpoint>
            <Time>2022-06-16T05:42:25.000Z</Time>
            <Position>
              <LatitudeDegrees>36.77943195216357707977294921875</LatitudeDegrees>
              <LongitudeDegrees>-4.4017740525305271148681640625</LongitudeDegrees>
            </Position>
            <AltitudeMeters>434</AltitudeMeters>
            <DistanceMeters>3043.5425314112</DistanceMeters>
          </Trackpoint>
          <Trackpoint>
            <Time>2022-06-16T05:42:29.000Z</Time>
            <Position>
              <LatitudeDegrees>36.779423654079437255859375</LatitudeDegrees>
              <LongitudeDegrees>-4.4017341546714305877685546875</LongitudeDegrees>
            </Position>
            <AltitudeMeters>435</AltitudeMeters>
            <DistanceMeters>3047.216761165</DistanceMeters>
          </Trackpoint>
          <Trackpoint>
            <Time>2022-06-16T05:42:39.000Z</Time>
            <Position>
              <LatitudeDegrees>36.77941401489078998565673828125</LatitudeDegrees>
              <LongitudeDegrees>-4.4016339071094989776611328125</LongitudeDegrees>
            </Position>
            <AltitudeMeters>438.600006103515625</AltitudeMeters>
            <DistanceMeters>3056.2177525468</DistanceMeters>
          </Trackpoint>
          <Trackpoint>
            <Time>2022-06-16T05:42:49.000Z</Time>
            <Position>
              <LatitudeDegrees>36.77940881811082363128662109375</LatitudeDegrees>
              <LongitudeDegrees>-4.4015393592417240142822265625</LongitudeDegrees>
            </Position>
            <AltitudeMeters>440.600006103515625</AltitudeMeters>
            <DistanceMeters>3064.6665840808</DistanceMeters>
          </Trackpoint>
          <Trackpoint>
            <Time>2022-06-16T05:42:51.000Z</Time>
            <Position>
              <LatitudeDegrees>36.779405213892459869384765625</LatitudeDegrees>
              <LongitudeDegrees>-4.40151781775057315826416015625</LongitudeDegrees>
            </Position>
            <AltitudeMeters>441</AltitudeMeters>
            <DistanceMeters>3066.6302140463</DistanceMeters>
          </Trackpoint>
          <Trackpoint>
            <Time>2022-06-16T05:42:59.000Z</Time>
            <Position>
              <LatitudeDegrees>36.7793996818363666534423828125</LatitudeDegrees>
              <LongitudeDegrees>-4.401453025639057159423828125</LongitudeDegrees>
            </Position>
            <AltitudeMeters>442.399993896484375</AltitudeMeters>
            <DistanceMeters>3072.4392927746</DistanceMeters>
          </Trackpoint>
          <Trackpoint>
            <Time>2022-06-16T05:43:09.000Z</Time>
            <Position>
              <LatitudeDegrees>36.77939423359930515289306640625</LatitudeDegrees>
              <LongitudeDegrees>-4.40138571895658969879150390625</LongitudeDegrees>
            </Position>
            <AltitudeMeters>444</AltitudeMeters>
            <DistanceMeters>3078.4703082708</DistanceMeters>
          </Trackpoint>
          <Trackpoint>
            <Time>2022-06-16T05:43:16.000Z</Time>
            <Position>
              <LatitudeDegrees>36.77939121611416339874267578125</LatitudeDegrees>
              <LongitudeDegrees>-4.40133961848914623260498046875</LongitudeDegrees>
            </Position>
            <AltitudeMeters>444.600006103515625</AltitudeMeters>
            <DistanceMeters>3082.5938545533</DistanceMeters>
          </Trackpoint>
          <Trackpoint>
            <Time>2022-06-16T05:43:19.000Z</Time>
            <Position>
              <LatitudeDegrees>36.7793896235525608062744140625</LatitudeDegrees>
              <LongitudeDegrees>-4.4013194181025028228759765625</LongitudeDegrees>
            </Position>
            <AltitudeMeters>444.600006103515625</AltitudeMeters>
            <DistanceMeters>3084.4018611</DistanceMeters>
          </Trackpoint>
          <Trackpoint>
            <Time>2022-06-16T05:43:29.000Z</Time>
            <Position>
              <LatitudeDegrees>36.77938878536224365234375</LatitudeDegrees>
              <LongitudeDegrees>-4.4012369401752948760986328125</LongitudeDegrees>
            </Position>
            <AltitudeMeters>445</AltitudeMeters>
            <DistanceMeters>3091.7552343223</DistanceMeters>
          </Trackpoint>
          <Trackpoint>
            <Time>2022-06-16T05:43:39.000Z</Time>
            <Position>
              <LatitudeDegrees>36.7794276773929595947265625</LatitudeDegrees>
              <LongitudeDegrees>-4.4011541269719600677490234375</LongitudeDegrees>
            </Position>
            <AltitudeMeters>445</AltitudeMeters>
            <DistanceMeters>3100.3134438334</DistanceMeters>
          </Trackpoint>
          <Trackpoint>
            <Time>2022-06-16T05:43:49.000Z</Time>
            <Position>
              <LatitudeDegrees>36.779456846415996551513671875</LatitudeDegrees>
              <LongitudeDegrees>-4.4010461680591106414794921875</LongitudeDegrees>
            </Position>
            <AltitudeMeters>444.79998779296875</AltitudeMeters>
            <DistanceMeters>3110.4706394785</DistanceMeters>
          </Trackpoint>
          <Trackpoint>
            <Time>2022-06-16T05:43:59.000Z</Time>
            <Position>
              <LatitudeDegrees>36.77950370125472545623779296875</LatitudeDegrees>
              <LongitudeDegrees>-4.400909878313541412353515625</LongitudeDegrees>
            </Position>
            <AltitudeMeters>444.399993896484375</AltitudeMeters>
            <DistanceMeters>3123.6923356586</DistanceMeters>
          </Trackpoint>
          <Trackpoint>
            <Time>2022-06-16T05:44:09.000Z</Time>
            <Position>
              <LatitudeDegrees>36.77955315448343753814697265625</LatitudeDegrees>
              <LongitudeDegrees>-4.40079563297331333160400390625</LongitudeDegrees>
            </Position>
            <AltitudeMeters>443.79998779296875</AltitudeMeters>
            <DistanceMeters>3135.2692261989</DistanceMeters>
          </Trackpoint>
          <Trackpoint>
            <Time>2022-06-16T05:44:19.000Z</Time>
            <Position>
              <LatitudeDegrees>36.7795954830944538116455078125</LatitudeDegrees>
              <LongitudeDegrees>-4.400689937174320220947265625</LongitudeDegrees>
            </Position>
            <AltitudeMeters>443</AltitudeMeters>
            <DistanceMeters>3145.8039136406</DistanceMeters>
          </Trackpoint>
          <Trackpoint>
            <Time>2022-06-16T05:44:29.000Z</Time>
            <Position>
              <LatitudeDegrees>36.7796528153121471405029296875</LatitudeDegrees>
              <LongitudeDegrees>-4.40058432519435882568359375</LongitudeDegrees>
            </Position>
            <AltitudeMeters>441.79998779296875</AltitudeMeters>
            <DistanceMeters>3157.1777817222</DistanceMeters>
          </Trackpoint>
          <Trackpoint>
            <Time>2022-06-16T05:44:39.000Z</Time>
            <Position>
              <LatitudeDegrees>36.779693551361560821533203125</LatitudeDegrees>
              <LongitudeDegrees>-4.40047175623476505279541015625</LongitudeDegrees>
            </Position>
            <AltitudeMeters>441</AltitudeMeters>
            <DistanceMeters>3168.1894058753</DistanceMeters>
          </Trackpoint>
          <Trackpoint>
            <Time>2022-06-16T05:44:49.000Z</Time>
            <Position>
              <LatitudeDegrees>36.7797218821942806243896484375</LatitudeDegrees>
              <LongitudeDegrees>-4.4003449380397796630859375</LongitudeDegrees>
            </Position>
            <AltitudeMeters>440.600006103515625</AltitudeMeters>
            <DistanceMeters>3179.9258783469</DistanceMeters>
          </Trackpoint>
          <Trackpoint>
            <Time>2022-06-16T05:44:59.000Z</Time>
            <Position>
              <LatitudeDegrees>36.77975691854953765869140625</LatitudeDegrees>
              <LongitudeDegrees>-4.4002230651676654815673828125</LongitudeDegrees>
            </Position>
            <AltitudeMeters>439.399993896484375</AltitudeMeters>
            <DistanceMeters>3191.4683974763</DistanceMeters>
          </Trackpoint>
          <Trackpoint>
            <Time>2022-06-16T05:45:09.000Z</Time>
            <Position>
              <LatitudeDegrees>36.77978918887674808502197265625</LatitudeDegrees>
              <LongitudeDegrees>-4.40009373240172863006591796875</LongitudeDegrees>
            </Position>
            <AltitudeMeters>439</AltitudeMeters>
            <DistanceMeters>3203.5446441851</DistanceMeters>
          </Trackpoint>
          <Trackpoint>
            <Time>2022-06-16T05:45:19.000Z</Time>
            <Position>
              <LatitudeDegrees>36.77984618581831455230712890625</LatitudeDegrees>
              <LongitudeDegrees>-4.39997739158570766448974609375</LongitudeDegrees>
            </Position>
            <AltitudeMeters>438.20001220703125</AltitudeMeters>
            <DistanceMeters>3215.7024943779</DistanceMeters>
          </Trackpoint>
          <Trackpoint>
            <Time>2022-06-16T05:45:29.000Z</Time>
            <Position>
              <LatitudeDegrees>36.77988608367741107940673828125</LatitudeDegrees>
              <LongitudeDegrees>-4.39984847791492938995361328125</LongitudeDegrees>
            </Position>
            <AltitudeMeters>437.20001220703125</AltitudeMeters>
            <DistanceMeters>3228.0230294727</DistanceMeters>
          </Trackpoint>
          <Trackpoint>
            <Time>2022-06-16T05:45:39.000Z</Time>
            <Position>
              <LatitudeDegrees>36.77991357631981372833251953125</LatitudeDegrees>
              <LongitudeDegrees>-4.39970179460942745208740234375</LongitudeDegrees>
            </Position>
            <AltitudeMeters>435.79998779296875</AltitudeMeters>
            <DistanceMeters>3241.4524258381</DistanceMeters>
          </Trackpoint>
          <Trackpoint>
            <Time>2022-06-16T05:45:49.000Z</Time>
            <Position>
              <LatitudeDegrees>36.77990309894084930419921875</LatitudeDegrees>
              <LongitudeDegrees>-4.399572797119617462158203125</LongitudeDegrees>
            </Position>
            <AltitudeMeters>434.79998779296875</AltitudeMeters>
            <DistanceMeters>3253.0105810072</DistanceMeters>
          </Trackpoint>
          <Trackpoint>
            <Time>2022-06-16T05:45:59.000Z</Time>
            <Position>
              <LatitudeDegrees>36.77988926880061626434326171875</LatitudeDegrees>
              <LongitudeDegrees>-4.3994190730154514312744140625</LongitudeDegrees>
            </Position>
            <AltitudeMeters>433</AltitudeMeters>
            <DistanceMeters>3266.8009185632</DistanceMeters>
          </Trackpoint>
          <Trackpoint>
            <Time>2022-06-16T05:46:09.000Z</Time>
            <Position>
              <LatitudeDegrees>36.779884994029998779296875</LatitudeDegrees>
              <LongitudeDegrees>-4.399279765784740447998046875</LongitudeDegrees>
            </Position>
            <AltitudeMeters>433.20001220703125</AltitudeMeters>
            <DistanceMeters>3279.2287271994</DistanceMeters>
          </Trackpoint>
          <Trackpoint>
            <Time>2022-06-16T05:46:13.000Z</Time>
            <Position>
              <LatitudeDegrees>36.77987870760262012481689453125</LatitudeDegrees>
              <LongitudeDegrees>-4.39922955818474292755126953125</LongitudeDegrees>
            </Position>
            <AltitudeMeters>433.20001220703125</AltitudeMeters>
            <DistanceMeters>3283.759219861</DistanceMeters>
          </Trackpoint>
          <Trackpoint>
            <Time>2022-06-16T05:46:19.000Z</Time>
            <Position>
              <LatitudeDegrees>36.77987837232649326324462890625</LatitudeDegrees>
              <LongitudeDegrees>-4.399174489080905914306640625</LongitudeDegrees>
            </Position>
            <AltitudeMeters>433.20001220703125</AltitudeMeters>
            <DistanceMeters>3288.6685247027</DistanceMeters>
          </Trackpoint>
          <Trackpoint>
            <Time>2022-06-16T05:46:29.000Z</Time>
            <Position>
              <LatitudeDegrees>36.77988591603934764862060546875</LatitudeDegrees>
              <LongitudeDegrees>-4.399060495197772979736328125</LongitudeDegrees>
            </Position>
            <AltitudeMeters>434</AltitudeMeters>
            <DistanceMeters>3298.8652055439</DistanceMeters>
          </Trackpoint>
          <Trackpoint>
            <Time>2022-06-16T05:46:39.000Z</Time>
            <Position>
              <LatitudeDegrees>36.77990871481597423553466796875</LatitudeDegrees>
              <LongitudeDegrees>-4.3989543803036212921142578125</LongitudeDegrees>
            </Position>
            <AltitudeMeters>435</AltitudeMeters>
            <DistanceMeters>3308.6589521195</DistanceMeters>
          </Trackpoint>
          <Trackpoint>
            <Time>2022-06-16T05:46:49.000Z</Time>
            <Position>
              <LatitudeDegrees>36.779945679008960723876953125</LatitudeDegrees>
              <LongitudeDegrees>-4.39886695705354213714599609375</LongitudeDegrees>
            </Position>
            <AltitudeMeters>436.20001220703125</AltitudeMeters>
            <DistanceMeters>3317.471367079</DistanceMeters>
          </Trackpoint>
          <Trackpoint>
            <Time>2022-06-16T05:46:59.000Z</Time>
            <Position>
              <LatitudeDegrees>36.779974512755870819091796875</LatitudeDegrees>
              <LongitudeDegrees>-4.398766122758388519287109375</LongitudeDegrees>
            </Position>
            <AltitudeMeters>437.79998779296875</AltitudeMeters>
            <DistanceMeters>3327.015758687</DistanceMeters>
          </Trackpoint>
          <Trackpoint>
            <Time>2022-06-16T05:47:09.000Z</Time>
            <Position>
              <LatitudeDegrees>36.78001441061496734619140625</LatitudeDegrees>
              <LongitudeDegrees>-4.398678950965404510498046875</LongitudeDegrees>
            </Position>
            <AltitudeMeters>439.600006103515625</AltitudeMeters>
            <DistanceMeters>3335.965943497</DistanceMeters>
          </Trackpoint>
          <Trackpoint>
            <Time>2022-06-16T05:47:19.000Z</Time>
            <Position>
              <LatitudeDegrees>36.78004332818090915679931640625</LatitudeDegrees>
              <LongitudeDegrees>-4.39860862679779529571533203125</LongitudeDegrees>
            </Position>
            <AltitudeMeters>441</AltitudeMeters>
            <DistanceMeters>3343.0126725514</DistanceMeters>
          </Trackpoint>
          <Trackpoint>
            <Time>2022-06-16T05:47:25.000Z</Time>
            <Position>
              <LatitudeDegrees>36.78005975671112537384033203125</LatitudeDegrees>
              <LongitudeDegrees>-4.39856864511966705322265625</LongitudeDegrees>
            </Position>
            <AltitudeMeters>441.79998779296875</AltitudeMeters>
            <DistanceMeters>3347.0196010405</DistanceMeters>
          </Trackpoint>
          <Trackpoint>
            <Time>2022-06-16T05:47:29.000Z</Time>
            <Position>
              <LatitudeDegrees>36.78006730042397975921630859375</LatitudeDegrees>
              <LongitudeDegrees>-4.39854593016207218170166015625</LongitudeDegrees>
            </Position>
            <AltitudeMeters>442.399993896484375</AltitudeMeters>
            <DistanceMeters>3349.213463102</DistanceMeters>
          </Trackpoint>
          <Trackpoint>
            <Time>2022-06-16T05:47:39.000Z</Time>
            <Position>
              <LatitudeDegrees>36.780101917684078216552734375</LatitudeDegrees>
              <LongitudeDegrees>-4.39846009947359561920166015625</LongitudeDegrees>
            </Position>
            <AltitudeMeters>444</AltitudeMeters>
            <DistanceMeters>3357.7806365761</DistanceMeters>
          </Trackpoint>
          <Trackpoint>
            <Time>2022-06-16T05:47:46.000Z</Time>
            <Position>
              <LatitudeDegrees>36.780114658176898956298828125</LatitudeDegrees>
              <LongitudeDegrees>-4.39839891158044338226318359375</LongitudeDegrees>
            </Position>
            <AltitudeMeters>445</AltitudeMeters>
            <DistanceMeters>3363.4161293544</DistanceMeters>
          </Trackpoint>
          <Trackpoint>
            <Time>2022-06-16T05:47:49.000Z</Time>
            <Position>
              <LatitudeDegrees>36.780121028423309326171875</LatitudeDegrees>
              <LongitudeDegrees>-4.398375861346721649169921875</LongitudeDegrees>
            </Position>
            <AltitudeMeters>445.399993896484375</AltitudeMeters>
            <DistanceMeters>3365.5893136494</DistanceMeters>
          </Trackpoint>
          <Trackpoint>
            <Time>2022-06-16T05:47:55.000Z</Time>
            <Position>
              <LatitudeDegrees>36.78014642558991909027099609375</LatitudeDegrees>
              <LongitudeDegrees>-4.39831249415874481201171875</LongitudeDegrees>
            </Position>
            <AltitudeMeters>446.600006103515625</AltitudeMeters>
            <DistanceMeters>3371.9055528571</DistanceMeters>
          </Trackpoint>
          <Trackpoint>
            <Time>2022-06-16T05:47:59.000Z</Time>
            <Position>
              <LatitudeDegrees>36.7801564000546932220458984375</LatitudeDegrees>
              <LongitudeDegrees>-4.398285336792469024658203125</LongitudeDegrees>
            </Position>
            <AltitudeMeters>447</AltitudeMeters>
            <DistanceMeters>3374.5679972244</DistanceMeters>
          </Trackpoint>
          <Trackpoint>
            <Time>2022-06-16T05:48:09.000Z</Time>
            <Position>
              <LatitudeDegrees>36.78018833510577678680419921875</LatitudeDegrees>
              <LongitudeDegrees>-4.3981812335550785064697265625</LongitudeDegrees>
            </Position>
            <AltitudeMeters>448.600006103515625</AltitudeMeters>
            <DistanceMeters>3384.5054473999</DistanceMeters>
          </Trackpoint>
          <Trackpoint>
            <Time>2022-06-16T05:48:10.000Z</Time>
            <Position>
              <LatitudeDegrees>36.78019286133348941802978515625</LatitudeDegrees>
              <LongitudeDegrees>-4.398170672357082366943359375</LongitudeDegrees>
            </Position>
            <AltitudeMeters>448.79998779296875</AltitudeMeters>
            <DistanceMeters>3385.5721196232</DistanceMeters>
          </Trackpoint>
          <Trackpoint>
            <Time>2022-06-16T05:48:19.000Z</Time>
            <Position>
              <LatitudeDegrees>36.7802258022129535675048828125</LatitudeDegrees>
              <LongitudeDegrees>-4.39806380309164524078369140625</LongitudeDegrees>
            </Position>
            <AltitudeMeters>450.600006103515625</AltitudeMeters>
            <DistanceMeters>3395.7803066396</DistanceMeters>
          </Trackpoint>
          <Trackpoint>
            <Time>2022-06-16T05:48:27.000Z</Time>
            <Position>
              <LatitudeDegrees>36.78025874309241771697998046875</LatitudeDegrees>
              <LongitudeDegrees>-4.3979703448712825775146484375</LongitudeDegrees>
            </Position>
            <AltitudeMeters>452.399993896484375</AltitudeMeters>
            <DistanceMeters>3404.8830524589</DistanceMeters>
          </Trackpoint>
          <Trackpoint>
            <Time>2022-06-16T05:48:29.000Z</Time>
            <Position>
              <LatitudeDegrees>36.78026695735752582550048828125</LatitudeDegrees>
              <LongitudeDegrees>-4.397961795330047607421875</LongitudeDegrees>
            </Position>
            <AltitudeMeters>452.600006103515625</AltitudeMeters>
            <DistanceMeters>3406.069935741</DistanceMeters>
          </Trackpoint>
          <Trackpoint>
            <Time>2022-06-16T05:48:39.000Z</Time>
            <Position>
              <LatitudeDegrees>36.78031020797789096832275390625</LatitudeDegrees>
              <LongitudeDegrees>-4.3978586979210376739501953125</LongitudeDegrees>
            </Position>
            <AltitudeMeters>454.79998779296875</AltitudeMeters>
            <DistanceMeters>3416.4452690507</DistanceMeters>
          </Trackpoint>
          <Trackpoint>
            <Time>2022-06-16T05:48:49.000Z</Time>
            <Position>
              <LatitudeDegrees>36.78032219409942626953125</LatitudeDegrees>
              <LongitudeDegrees>-4.39775316976010799407958984375</LongitudeDegrees>
            </Position>
            <AltitudeMeters>456.600006103515625</AltitudeMeters>
            <DistanceMeters>3425.946990173</DistanceMeters>
          </Trackpoint>
          <Trackpoint>
            <Time>2022-06-16T05:48:59.000Z</Time>
            <Position>
              <LatitudeDegrees>36.7803330905735492706298828125</LatitudeDegrees>
              <LongitudeDegrees>-4.397663734853267669677734375</LongitudeDegrees>
            </Position>
            <AltitudeMeters>458</AltitudeMeters>
            <DistanceMeters>3434.0113940908</DistanceMeters>
          </Trackpoint>
          <Trackpoint>
            <Time>2022-06-16T05:49:09.000Z</Time>
            <Position>
              <LatitudeDegrees>36.78034566342830657958984375</LatitudeDegrees>
              <LongitudeDegrees>-4.39757832325994968414306640625</LongitudeDegrees>
            </Position>
            <AltitudeMeters>459.399993896484375</AltitudeMeters>
            <DistanceMeters>3441.7535932251</DistanceMeters>
          </Trackpoint>
          <Trackpoint>
            <Time>2022-06-16T05:49:19.000Z</Time>
            <Position>
              <LatitudeDegrees>36.7803394608199596405029296875</LatitudeDegrees>
              <LongitudeDegrees>-4.3974697776138782501220703125</LongitudeDegrees>
            </Position>
            <AltitudeMeters>461.20001220703125</AltitudeMeters>
            <DistanceMeters>3451.4546991775</DistanceMeters>
          </Trackpoint>
          <Trackpoint>
            <Time>2022-06-16T05:49:29.000Z</Time>
            <Position>
              <LatitudeDegrees>36.78030987270176410675048828125</LatitudeDegrees>
              <LongitudeDegrees>-4.39738604240119457244873046875</LongitudeDegrees>
            </Position>
            <AltitudeMeters>463.79998779296875</AltitudeMeters>
            <DistanceMeters>3459.6142796582</DistanceMeters>
          </Trackpoint>
          <Trackpoint>
            <Time>2022-06-16T05:49:39.000Z</Time>
            <Position>
              <LatitudeDegrees>36.78028204478323459625244140625</LatitudeDegrees>
              <LongitudeDegrees>-4.39730440266430377960205078125</LongitudeDegrees>
            </Position>
            <AltitudeMeters>466.399993896484375</AltitudeMeters>
            <DistanceMeters>3467.5237909961</DistanceMeters>
          </Trackpoint>
          <Trackpoint>
            <Time>2022-06-16T05:49:49.000Z</Time>
            <Position>
              <LatitudeDegrees>36.78026796318590641021728515625</LatitudeDegrees>
              <LongitudeDegrees>-4.39722795970737934112548828125</LongitudeDegrees>
            </Position>
            <AltitudeMeters>468.600006103515625</AltitudeMeters>
            <DistanceMeters>3474.5171374068</DistanceMeters>
          </Trackpoint>
          <Trackpoint>
            <Time>2022-06-16T05:49:59.000Z</Time>
            <Position>
              <LatitudeDegrees>36.780266202986240386962890625</LatitudeDegrees>
              <LongitudeDegrees>-4.397173561155796051025390625</LongitudeDegrees>
            </Position>
            <AltitudeMeters>470.20001220703125</AltitudeMeters>
            <DistanceMeters>3479.370016899</DistanceMeters>
          </Trackpoint>
          <Trackpoint>
            <Time>2022-06-16T05:50:08.000Z</Time>
            <Position>
              <LatitudeDegrees>36.78025203756988048553466796875</LatitudeDegrees>
              <LongitudeDegrees>-4.39710876904428005218505859375</LongitudeDegrees>
            </Position>
            <AltitudeMeters>472.20001220703125</AltitudeMeters>
            <DistanceMeters>3485.3574540371</DistanceMeters>
          </Trackpoint>
          <Trackpoint>
            <Time>2022-06-16T05:50:09.000Z</Time>
            <Position>
              <LatitudeDegrees>36.78024801425635814666748046875</LatitudeDegrees>
              <LongitudeDegrees>-4.397103823721408843994140625</LongitudeDegrees>
            </Position>
            <AltitudeMeters>472.399993896484375</AltitudeMeters>
            <DistanceMeters>3485.9877899503</DistanceMeters>
          </Trackpoint>
          <Trackpoint>
            <Time>2022-06-16T05:50:19.000Z</Time>
            <Position>
              <LatitudeDegrees>36.78024700842797756195068359375</LatitudeDegrees>
              <LongitudeDegrees>-4.3970485031604766845703125</LongitudeDegrees>
            </Position>
            <AltitudeMeters>474</AltitudeMeters>
            <DistanceMeters>3490.92003345</DistanceMeters>
          </Trackpoint>
          <Trackpoint>
            <Time>2022-06-16T05:50:29.000Z</Time>
            <Position>
              <LatitudeDegrees>36.7802579887211322784423828125</LatitudeDegrees>
              <LongitudeDegrees>-4.397006593644618988037109375</LongitudeDegrees>
            </Position>
            <AltitudeMeters>475</AltitudeMeters>
            <DistanceMeters>3494.8518893568</DistanceMeters>
          </Trackpoint>
          <Trackpoint>
            <Time>2022-06-16T05:50:39.000Z</Time>
            <Position>
              <LatitudeDegrees>36.7802698910236358642578125</LatitudeDegrees>
              <LongitudeDegrees>-4.3969581462442874908447265625</LongitudeDegrees>
            </Position>
            <AltitudeMeters>476.20001220703125</AltitudeMeters>
            <DistanceMeters>3499.3694077866</DistanceMeters>
          </Trackpoint>
          <Trackpoint>
            <Time>2022-06-16T05:50:49.000Z</Time>
            <Position>
              <LatitudeDegrees>36.78027852438390254974365234375</LatitudeDegrees>
              <LongitudeDegrees>-4.39689486287534236907958984375</LongitudeDegrees>
            </Position>
            <AltitudeMeters>478</AltitudeMeters>
            <DistanceMeters>3505.0923517198</DistanceMeters>
          </Trackpoint>
          <Trackpoint>
            <Time>2022-06-16T05:50:59.000Z</Time>
            <Position>
              <LatitudeDegrees>36.78025086410343647003173828125</LatitudeDegrees>
              <LongitudeDegrees>-4.39682043157517910003662109375</LongitudeDegrees>
            </Position>
            <AltitudeMeters>480.79998779296875</AltitudeMeters>
            <DistanceMeters>3512.4063227926</DistanceMeters>
          </Trackpoint>
          <Trackpoint>
            <Time>2022-06-16T05:51:09.000Z</Time>
            <Position>
              <LatitudeDegrees>36.78022890351712703704833984375</LatitudeDegrees>
              <LongitudeDegrees>-4.3967506103217601776123046875</LongitudeDegrees>
            </Position>
            <AltitudeMeters>483</AltitudeMeters>
            <DistanceMeters>3519.0933952874</DistanceMeters>
          </Trackpoint>
          <Trackpoint>
            <Time>2022-06-16T05:51:19.000Z</Time>
            <Position>
              <LatitudeDegrees>36.78024197928607463836669921875</LatitudeDegrees>
              <LongitudeDegrees>-4.396665953099727630615234375</LongitudeDegrees>
            </Position>
            <AltitudeMeters>484.600006103515625</AltitudeMeters>
            <DistanceMeters>3526.7788185041</DistanceMeters>
          </Trackpoint>
          <Trackpoint>
            <Time>2022-06-16T05:51:24.000Z</Time>
            <Position>
              <LatitudeDegrees>36.78025874309241771697998046875</LatitudeDegrees>
              <LongitudeDegrees>-4.3966205231845378875732421875</LongitudeDegrees>
            </Position>
            <AltitudeMeters>485.399993896484375</AltitudeMeters>
            <DistanceMeters>3531.2359664909</DistanceMeters>
          </Trackpoint>
          <Trackpoint>
            <Time>2022-06-16T05:51:25.000Z</Time>
            <Position>
              <LatitudeDegrees>36.780264191329479217529296875</LatitudeDegrees>
              <LongitudeDegrees>-4.396614320576190948486328125</LongitudeDegrees>
            </Position>
            <AltitudeMeters>485.600006103515625</AltitudeMeters>
            <DistanceMeters>3532.053417197</DistanceMeters>
          </Trackpoint>
          <Trackpoint>
            <Time>2022-06-16T05:51:26.000Z</Time>
            <Position>
              <LatitudeDegrees>36.78027299232780933380126953125</LatitudeDegrees>
              <LongitudeDegrees>-4.39660686068236827850341796875</LongitudeDegrees>
            </Position>
            <AltitudeMeters>485.79998779296875</AltitudeMeters>
            <DistanceMeters>3533.23266771</DistanceMeters>
          </Trackpoint>
          <Trackpoint>
            <Time>2022-06-16T05:51:27.000Z</Time>
            <Position>
              <LatitudeDegrees>36.78028003312647342681884765625</LatitudeDegrees>
              <LongitudeDegrees>-4.39659931696951389312744140625</LongitudeDegrees>
            </Position>
            <AltitudeMeters>486</AltitudeMeters>
            <DistanceMeters>3534.264922049</DistanceMeters>
          </Trackpoint>
          <Trackpoint>
            <Time>2022-06-16T05:51:29.000Z</Time>
            <Position>
              <LatitudeDegrees>36.7802948690950870513916015625</LatitudeDegrees>
              <LongitudeDegrees>-4.39658339135348796844482421875</LongitudeDegrees>
            </Position>
            <AltitudeMeters>486.399993896484375</AltitudeMeters>
            <DistanceMeters>3536.4422576072</DistanceMeters>
          </Trackpoint>
          <Trackpoint>
            <Time>2022-06-16T05:51:31.000Z</Time>
            <Position>
              <LatitudeDegrees>36.7803119681775569915771484375</LatitudeDegrees>
              <LongitudeDegrees>-4.39656503498554229736328125</LongitudeDegrees>
            </Position>
            <AltitudeMeters>487</AltitudeMeters>
            <DistanceMeters>3538.9510348555</DistanceMeters>
          </Trackpoint>
          <Trackpoint>
            <Time>2022-06-16T05:51:39.000Z</Time>
            <Position>
              <LatitudeDegrees>36.7803557217121124267578125</LatitudeDegrees>
              <LongitudeDegrees>-4.3964904360473155975341796875</LongitudeDegrees>
            </Position>
            <AltitudeMeters>488.600006103515625</AltitudeMeters>
            <DistanceMeters>3547.193198715</DistanceMeters>
          </Trackpoint>
          <Trackpoint>
            <Time>2022-06-16T05:51:49.000Z</Time>
            <Position>
              <LatitudeDegrees>36.780400313436985015869140625</LatitudeDegrees>
              <LongitudeDegrees>-4.3964046053588390350341796875</LongitudeDegrees>
            </Position>
            <AltitudeMeters>489.79998779296875</AltitudeMeters>
            <DistanceMeters>3556.3127932262</DistanceMeters>
          </Trackpoint>
          <Trackpoint>
            <Time>2022-06-16T05:51:59.000Z</Time>
            <Position>
              <LatitudeDegrees>36.78045135922729969024658203125</LatitudeDegrees>
              <LongitudeDegrees>-4.39632506109774112701416015625</LongitudeDegrees>
            </Position>
            <AltitudeMeters>491.20001220703125</AltitudeMeters>
            <DistanceMeters>3565.3986591096</DistanceMeters>
          </Trackpoint>
          <Trackpoint>
            <Time>2022-06-16T05:52:09.000Z</Time>
            <Position>
              <LatitudeDegrees>36.7804819531738758087158203125</LatitudeDegrees>
              <LongitudeDegrees>-4.39625565893948078155517578125</LongitudeDegrees>
            </Position>
            <AltitudeMeters>492.399993896484375</AltitudeMeters>
            <DistanceMeters>3572.4607488995</DistanceMeters>
          </Trackpoint>
          <Trackpoint>
            <Time>2022-06-16T05:52:19.000Z</Time>
            <Position>
              <LatitudeDegrees>36.78052159957587718963623046875</LatitudeDegrees>
              <LongitudeDegrees>-4.39618424512445926666259765625</LongitudeDegrees>
            </Position>
            <AltitudeMeters>493.600006103515625</AltitudeMeters>
            <DistanceMeters>3580.2064462789</DistanceMeters>
          </Trackpoint>
          <Trackpoint>
            <Time>2022-06-16T05:52:29.000Z</Time>
            <Position>
              <LatitudeDegrees>36.780574657022953033447265625</LatitudeDegrees>
              <LongitudeDegrees>-4.39611014910042285919189453125</LongitudeDegrees>
            </Position>
            <AltitudeMeters>494.79998779296875</AltitudeMeters>
            <DistanceMeters>3589.0668912228</DistanceMeters>
          </Trackpoint>
          <Trackpoint>
            <Time>2022-06-16T05:52:39.000Z</Time>
            <Position>
              <LatitudeDegrees>36.78065872751176357269287109375</LatitudeDegrees>
              <LongitudeDegrees>-4.3960498832166194915771484375</LongitudeDegrees>
            </Position>
            <AltitudeMeters>496.600006103515625</AltitudeMeters>
            <DistanceMeters>3599.8569225291</DistanceMeters>
          </Trackpoint>
          <Trackpoint>
            <Time>2022-06-16T05:52:49.000Z</Time>
            <Position>
              <LatitudeDegrees>36.78071924485266208648681640625</LatitudeDegrees>
              <LongitudeDegrees>-4.395981319248676300048828125</LongitudeDegrees>
            </Position>
            <AltitudeMeters>497.79998779296875</AltitudeMeters>
            <DistanceMeters>3608.9522251796</DistanceMeters>
          </Trackpoint>
          <Trackpoint>
            <Time>2022-06-16T05:52:59.000Z</Time>
            <Position>
              <LatitudeDegrees>36.780783869326114654541015625</LatitudeDegrees>
              <LongitudeDegrees>-4.3959311954677104949951171875</LongitudeDegrees>
            </Position>
            <AltitudeMeters>499.20001220703125</AltitudeMeters>
            <DistanceMeters>3617.4197399841</DistanceMeters>
          </Trackpoint>
          <Trackpoint>
            <Time>2022-06-16T05:53:06.000Z</Time>
            <Position>
              <LatitudeDegrees>36.780845560133457183837890625</LatitudeDegrees>
              <LongitudeDegrees>-4.39590093679726123809814453125</LongitudeDegrees>
            </Position>
            <AltitudeMeters>500.399993896484375</AltitudeMeters>
            <DistanceMeters>3624.7976326917</DistanceMeters>
          </Trackpoint>
          <Trackpoint>
            <Time>2022-06-16T05:53:09.000Z</Time>
            <Position>
              <LatitudeDegrees>36.7808653414249420166015625</LatitudeDegrees>
              <LongitudeDegrees>-4.3958825804293155670166015625</LongitudeDegrees>
            </Position>
            <AltitudeMeters>500.79998779296875</AltitudeMeters>
            <DistanceMeters>3627.5419147024</DistanceMeters>
          </Trackpoint>
          <Trackpoint>
            <Time>2022-06-16T05:53:19.000Z</Time>
            <Position>
              <LatitudeDegrees>36.780913956463336944580078125</LatitudeDegrees>
              <LongitudeDegrees>-4.39583689905703067779541015625</LongitudeDegrees>
            </Position>
            <AltitudeMeters>501.79998779296875</AltitudeMeters>
            <DistanceMeters>3634.3141933631</DistanceMeters>
          </Trackpoint>
          <Trackpoint>
            <Time>2022-06-16T05:53:29.000Z</Time>
            <Position>
              <LatitudeDegrees>36.78096651099622249603271484375</LatitudeDegrees>
              <LongitudeDegrees>-4.395757354795932769775390625</LongitudeDegrees>
            </Position>
            <AltitudeMeters>502.600006103515625</AltitudeMeters>
            <DistanceMeters>3643.5062782891</DistanceMeters>
          </Trackpoint>
          <Trackpoint>
            <Time>2022-06-16T05:53:31.000Z</Time>
            <Position>
              <LatitudeDegrees>36.7809754796326160430908203125</LatitudeDegrees>
              <LongitudeDegrees>-4.39573681913316249847412109375</LongitudeDegrees>
            </Position>
            <AltitudeMeters>502.600006103515625</AltitudeMeters>
            <DistanceMeters>3645.5925421377</DistanceMeters>
          </Trackpoint>
          <Trackpoint>
            <Time>2022-06-16T05:53:32.000Z</Time>
            <Position>
              <LatitudeDegrees>36.78098000586032867431640625</LatitudeDegrees>
              <LongitudeDegrees>-4.395728521049022674560546875</LongitudeDegrees>
            </Position>
            <AltitudeMeters>502.600006103515625</AltitudeMeters>
            <DistanceMeters>3646.483971735</DistanceMeters>
          </Trackpoint>
          <Trackpoint>
            <Time>2022-06-16T05:53:39.000Z</Time>
            <Position>
              <LatitudeDegrees>36.78100959397852420806884765625</LatitudeDegrees>
              <LongitudeDegrees>-4.3956649862229824066162109375</LongitudeDegrees>
            </Position>
            <AltitudeMeters>502.600006103515625</AltitudeMeters>
            <DistanceMeters>3653.0359930578</DistanceMeters>
          </Trackpoint>
          <Trackpoint>
            <Time>2022-06-16T05:53:49.000Z</Time>
            <Position>
              <LatitudeDegrees>36.7810750566422939300537109375</LatitudeDegrees>
              <LongitudeDegrees>-4.395569264888763427734375</LongitudeDegrees>
            </Position>
            <AltitudeMeters>503</AltitudeMeters>
            <DistanceMeters>3664.2563908129</DistanceMeters>
          </Trackpoint>
          <Trackpoint>
            <Time>2022-06-16T05:53:59.000Z</Time>
            <Position>
              <LatitudeDegrees>36.7811201512813568115234375</LatitudeDegrees>
              <LongitudeDegrees>-4.395468346774578094482421875</LongitudeDegrees>
            </Position>
            <AltitudeMeters>503</AltitudeMeters>
            <DistanceMeters>3674.557917805</DistanceMeters>
          </Trackpoint>
          <Trackpoint>
            <Time>2022-06-16T05:54:09.000Z</Time>
            <Position>
              <LatitudeDegrees>36.7811622284352779388427734375</LatitudeDegrees>
              <LongitudeDegrees>-4.39535963349044322967529296875</LongitudeDegrees>
            </Position>
            <AltitudeMeters>503.20001220703125</AltitudeMeters>
            <DistanceMeters>3685.3215547729</DistanceMeters>
          </Trackpoint>
          <Trackpoint>
            <Time>2022-06-16T05:54:19.000Z</Time>
            <Position>
              <LatitudeDegrees>36.78124646656215190887451171875</LatitudeDegrees>
              <LongitudeDegrees>-4.3952648341655731201171875</LongitudeDegrees>
            </Position>
            <AltitudeMeters>503.600006103515625</AltitudeMeters>
            <DistanceMeters>3697.944021599</DistanceMeters>
          </Trackpoint>
          <Trackpoint>
            <Time>2022-06-16T05:54:29.000Z</Time>
            <Position>
              <LatitudeDegrees>36.78132207132875919342041015625</LatitudeDegrees>
              <LongitudeDegrees>-4.3951724655926227569580078125</LongitudeDegrees>
            </Position>
            <AltitudeMeters>504.79998779296875</AltitudeMeters>
            <DistanceMeters>3709.718134456</DistanceMeters>
          </Trackpoint>
          <Trackpoint>
            <Time>2022-06-16T05:54:39.000Z</Time>
            <Position>
              <LatitudeDegrees>36.7813856899738311767578125</LatitudeDegrees>
              <LongitudeDegrees>-4.39508068375289440155029296875</LongitudeDegrees>
            </Position>
            <AltitudeMeters>506.20001220703125</AltitudeMeters>
            <DistanceMeters>3720.538669155</DistanceMeters>
          </Trackpoint>
          <Trackpoint>
            <Time>2022-06-16T05:54:48.000Z</Time>
            <Position>
              <LatitudeDegrees>36.78145769052207469940185546875</LatitudeDegrees>
              <LongitudeDegrees>-4.395041875541210174560546875</LongitudeDegrees>
            </Position>
            <AltitudeMeters>507.20001220703125</AltitudeMeters>
            <DistanceMeters>3729.2671716014</DistanceMeters>
          </Trackpoint>
          <Trackpoint>
            <Time>2022-06-16T05:54:49.000Z</Time>
            <Position>
              <LatitudeDegrees>36.781467162072658538818359375</LatitudeDegrees>
              <LongitudeDegrees>-4.3950363434851169586181640625</LongitudeDegrees>
            </Position>
            <AltitudeMeters>507.20001220703125</AltitudeMeters>
            <DistanceMeters>3730.4310064121</DistanceMeters>
          </Trackpoint>
          <Trackpoint>
            <Time>2022-06-16T05:54:59.000Z</Time>
            <Position>
              <LatitudeDegrees>36.78154754452407360076904296875</LatitudeDegrees>
              <LongitudeDegrees>-4.39498630352318286895751953125</LongitudeDegrees>
            </Position>
            <AltitudeMeters>507.79998779296875</AltitudeMeters>
            <DistanceMeters>3740.4277986979</DistanceMeters>
          </Trackpoint>
          <Trackpoint>
            <Time>2022-06-16T05:55:07.000Z</Time>
            <Position>
              <LatitudeDegrees>36.78160764276981353759765625</LatitudeDegrees>
              <LongitudeDegrees>-4.39493685029447078704833984375</LongitudeDegrees>
            </Position>
            <AltitudeMeters>508.79998779296875</AltitudeMeters>
            <DistanceMeters>3748.4382745396</DistanceMeters>
          </Trackpoint>
          <Trackpoint>
            <Time>2022-06-16T05:55:09.000Z</Time>
            <Position>
              <LatitudeDegrees>36.78162767551839351654052734375</LatitudeDegrees>
              <LongitudeDegrees>-4.39492410980165004730224609375</LongitudeDegrees>
            </Position>
            <AltitudeMeters>509.20001220703125</AltitudeMeters>
            <DistanceMeters>3750.939842643</DistanceMeters>
          </Trackpoint>
          <Trackpoint>
            <Time>2022-06-16T05:55:19.000Z</Time>
            <Position>
              <LatitudeDegrees>36.7817207984626293182373046875</LatitudeDegrees>
              <LongitudeDegrees>-4.39485646784305572509765625</LongitudeDegrees>
            </Position>
            <AltitudeMeters>510.79998779296875</AltitudeMeters>
            <DistanceMeters>3762.9312953195</DistanceMeters>
          </Trackpoint>
          <Trackpoint>
            <Time>2022-06-16T05:55:29.000Z</Time>
            <Position>
              <LatitudeDegrees>36.78179548121988773345947265625</LatitudeDegrees>
              <LongitudeDegrees>-4.39478765241801738739013671875</LongitudeDegrees>
            </Position>
            <AltitudeMeters>512.4000244140625</AltitudeMeters>
            <DistanceMeters>3773.262582924</DistanceMeters>
          </Trackpoint>
          <Trackpoint>
            <Time>2022-06-16T05:55:39.000Z</Time>
            <Position>
              <LatitudeDegrees>36.7818877659738063812255859375</LatitudeDegrees>
              <LongitudeDegrees>-4.39471154473721981048583984375</LongitudeDegrees>
            </Position>
            <AltitudeMeters>514</AltitudeMeters>
            <DistanceMeters>3785.5721191756</DistanceMeters>
          </Trackpoint>
          <Trackpoint>
            <Time>2022-06-16T05:55:49.000Z</Time>
            <Position>
              <LatitudeDegrees>36.782000921666622161865234375</LatitudeDegrees>
              <LongitudeDegrees>-4.394606687128543853759765625</LongitudeDegrees>
            </Position>
            <AltitudeMeters>517.20001220703125</AltitudeMeters>
            <DistanceMeters>3801.2564215983</DistanceMeters>
          </Trackpoint>
          <Trackpoint>
            <Time>2022-06-16T05:55:56.000Z</Time>
            <Position>
              <LatitudeDegrees>36.782059259712696075439453125</LatitudeDegrees>
              <LongitudeDegrees>-4.39453753642737865447998046875</LongitudeDegrees>
            </Position>
            <AltitudeMeters>518.79998779296875</AltitudeMeters>
            <DistanceMeters>3810.2091283687</DistanceMeters>
          </Trackpoint>
          <Trackpoint>
            <Time>2022-06-16T05:55:57.000Z</Time>
            <Position>
              <LatitudeDegrees>36.78206630051136016845703125</LatitudeDegrees>
              <LongitudeDegrees>-4.39452923834323883056640625</LongitudeDegrees>
            </Position>
            <AltitudeMeters>519</AltitudeMeters>
            <DistanceMeters>3811.280025053</DistanceMeters>
          </Trackpoint>
          <Trackpoint>
            <Time>2022-06-16T05:55:58.000Z</Time>
            <Position>
              <LatitudeDegrees>36.7820889316499233245849609375</LatitudeDegrees>
              <LongitudeDegrees>-4.39451440237462520599365234375</LongitudeDegrees>
            </Position>
            <AltitudeMeters>519</AltitudeMeters>
            <DistanceMeters>3814.1244843151</DistanceMeters>
          </Trackpoint>
          <Trackpoint>
            <Time>2022-06-16T05:55:59.000Z</Time>
            <Position>
              <LatitudeDegrees>36.7820889316499233245849609375</LatitudeDegrees>
              <LongitudeDegrees>-4.39451440237462520599365234375</LongitudeDegrees>
            </Position>
            <AltitudeMeters>519</AltitudeMeters>
            <DistanceMeters>3814.1244843151</DistanceMeters>
          </Trackpoint>
          <Trackpoint>
            <Time>2022-06-16T05:56:02.000Z</Time>
            <Position>
              <LatitudeDegrees>36.78211801685392856597900390625</LatitudeDegrees>
              <LongitudeDegrees>-4.39448774792253971099853515625</LongitudeDegrees>
            </Position>
            <AltitudeMeters>519.4000244140625</AltitudeMeters>
            <DistanceMeters>3818.1404171493</DistanceMeters>
          </Trackpoint>
          <Trackpoint>
            <Time>2022-06-16T05:56:05.000Z</Time>
            <Position>
              <LatitudeDegrees>36.78214282728731632232666015625</LatitudeDegrees>
              <LongitudeDegrees>-4.3944620154798030853271484375</LongitudeDegrees>
            </Position>
            <AltitudeMeters>519.79998779296875</AltitudeMeters>
            <DistanceMeters>3821.7301133879</DistanceMeters>
          </Trackpoint>
          <Trackpoint>
            <Time>2022-06-16T05:56:09.000Z</Time>
            <Position>
              <LatitudeDegrees>36.782185323536396026611328125</LatitudeDegrees>
              <LongitudeDegrees>-4.39442689530551433563232421875</LongitudeDegrees>
            </Position>
            <AltitudeMeters>520</AltitudeMeters>
            <DistanceMeters>3827.4015446264</DistanceMeters>
          </Trackpoint>
          <Trackpoint>
            <Time>2022-06-16T05:56:20.000Z</Time>
            <Position>
              <LatitudeDegrees>36.78226017393171787261962890625</LatitudeDegrees>
              <LongitudeDegrees>-4.3942963890731334686279296875</LongitudeDegrees>
            </Position>
            <AltitudeMeters>522.79998779296875</AltitudeMeters>
            <DistanceMeters>3841.7108766642</DistanceMeters>
          </Trackpoint>
          <Trackpoint>
            <Time>2022-06-16T05:56:30.000Z</Time>
            <Position>
              <LatitudeDegrees>36.782335527241230010986328125</LatitudeDegrees>
              <LongitudeDegrees>-4.39417342655360698699951171875</LongitudeDegrees>
            </Position>
            <AltitudeMeters>525.20001220703125</AltitudeMeters>
            <DistanceMeters>3855.5123415324</DistanceMeters>
          </Trackpoint>
          <Trackpoint>
            <Time>2022-06-16T05:56:40.000Z</Time>
            <Position>
              <LatitudeDegrees>36.7823782749474048614501953125</LatitudeDegrees>
              <LongitudeDegrees>-4.39403730444610118865966796875</LongitudeDegrees>
            </Position>
            <AltitudeMeters>529</AltitudeMeters>
            <DistanceMeters>3868.5462522326</DistanceMeters>
          </Trackpoint>
          <Trackpoint>
            <Time>2022-06-16T05:56:50.000Z</Time>
            <Position>
              <LatitudeDegrees>36.78237366490066051483154296875</LatitudeDegrees>
              <LongitudeDegrees>-4.393890202045440673828125</LongitudeDegrees>
            </Position>
            <AltitudeMeters>534.4000244140625</AltitudeMeters>
            <DistanceMeters>3881.6695756661</DistanceMeters>
          </Trackpoint>
          <Trackpoint>
            <Time>2022-06-16T05:57:00.000Z</Time>
            <Position>
              <LatitudeDegrees>36.78239763714373111724853515625</LatitudeDegrees>
              <LongitudeDegrees>-4.3937576003372669219970703125</LongitudeDegrees>
            </Position>
            <AltitudeMeters>537.5999755859375</AltitudeMeters>
            <DistanceMeters>3893.787624318</DistanceMeters>
          </Trackpoint>
          <Trackpoint>
            <Time>2022-06-16T05:57:10.000Z</Time>
            <Position>
              <LatitudeDegrees>36.78245178423821926116943359375</LatitudeDegrees>
              <LongitudeDegrees>-4.393634386360645294189453125</LongitudeDegrees>
            </Position>
            <AltitudeMeters>540.20001220703125</AltitudeMeters>
            <DistanceMeters>3906.3160236072</DistanceMeters>
          </Trackpoint>
          <Trackpoint>
            <Time>2022-06-16T05:57:20.000Z</Time>
            <Position>
              <LatitudeDegrees>36.78254147060215473175048828125</LatitudeDegrees>
              <LongitudeDegrees>-4.39350605942308902740478515625</LongitudeDegrees>
            </Position>
            <AltitudeMeters>541.20001220703125</AltitudeMeters>
            <DistanceMeters>3921.4986044611</DistanceMeters>
          </Trackpoint>
          <Trackpoint>
            <Time>2022-06-16T05:57:30.000Z</Time>
            <Position>
              <LatitudeDegrees>36.782597713172435760498046875</LatitudeDegrees>
              <LongitudeDegrees>-4.3934072367846965789794921875</LongitudeDegrees>
            </Position>
            <AltitudeMeters>541.5999755859375</AltitudeMeters>
            <DistanceMeters>3932.3057784083</DistanceMeters>
          </Trackpoint>
          <Trackpoint>
            <Time>2022-06-16T05:57:40.000Z</Time>
            <Position>
              <LatitudeDegrees>36.7826344259083271026611328125</LatitudeDegrees>
              <LongitudeDegrees>-4.393307156860828399658203125</LongitudeDegrees>
            </Position>
            <AltitudeMeters>542.79998779296875</AltitudeMeters>
            <DistanceMeters>3942.1188684007</DistanceMeters>
          </Trackpoint>
          <Trackpoint>
            <Time>2022-06-16T05:57:50.000Z</Time>
            <Position>
              <LatitudeDegrees>36.7826887406408786773681640625</LatitudeDegrees>
              <LongitudeDegrees>-4.3931973539292812347412109375</LongitudeDegrees>
            </Position>
            <AltitudeMeters>543.4000244140625</AltitudeMeters>
            <DistanceMeters>3953.6237743332</DistanceMeters>
          </Trackpoint>
          <Trackpoint>
            <Time>2022-06-16T05:58:00.000Z</Time>
            <Position>
              <LatitudeDegrees>36.7827132157981395721435546875</LatitudeDegrees>
              <LongitudeDegrees>-4.3930830247700214385986328125</LongitudeDegrees>
            </Position>
            <AltitudeMeters>544.20001220703125</AltitudeMeters>
            <DistanceMeters>3964.1730236949</DistanceMeters>
          </Trackpoint>
          <Trackpoint>
            <Time>2022-06-16T05:58:10.000Z</Time>
            <Position>
              <LatitudeDegrees>36.782739870250225067138671875</LatitudeDegrees>
              <LongitudeDegrees>-4.3929693661630153656005859375</LongitudeDegrees>
            </Position>
            <AltitudeMeters>545.20001220703125</AltitudeMeters>
            <DistanceMeters>3974.7299741765</DistanceMeters>
          </Trackpoint>
          <Trackpoint>
            <Time>2022-06-16T05:58:20.000Z</Time>
            <Position>
              <LatitudeDegrees>36.78278856910765171051025390625</LatitudeDegrees>
              <LongitudeDegrees>-4.39285210333764553070068359375</LongitudeDegrees>
            </Position>
            <AltitudeMeters>545.4000244140625</AltitudeMeters>
            <DistanceMeters>3986.5044704988</DistanceMeters>
          </Trackpoint>
          <Trackpoint>
            <Time>2022-06-16T05:58:30.000Z</Time>
            <Position>
              <LatitudeDegrees>36.7828769981861114501953125</LatitudeDegrees>
              <LongitudeDegrees>-4.39276493154466152191162109375</LongitudeDegrees>
            </Position>
            <AltitudeMeters>544.4000244140625</AltitudeMeters>
            <DistanceMeters>3999.0443967823</DistanceMeters>
          </Trackpoint>
          <Trackpoint>
            <Time>2022-06-16T05:58:40.000Z</Time>
            <Position>
              <LatitudeDegrees>36.782959811389446258544921875</LatitudeDegrees>
              <LongitudeDegrees>-4.39268480055034160614013671875</LongitudeDegrees>
            </Position>
            <AltitudeMeters>544.20001220703125</AltitudeMeters>
            <DistanceMeters>4010.7056111775</DistanceMeters>
          </Trackpoint>
          <Trackpoint>
            <Time>2022-06-16T05:58:47.000Z</Time>
            <Position>
              <LatitudeDegrees>36.78302778862416744232177734375</LatitudeDegrees>
              <LongitudeDegrees>-4.39265303313732147216796875</LongitudeDegrees>
            </Position>
            <AltitudeMeters>543.5999755859375</AltitudeMeters>
            <DistanceMeters>4018.7845586669</DistanceMeters>
          </Trackpoint>
          <Trackpoint>
            <Time>2022-06-16T05:58:50.000Z</Time>
            <Position>
              <LatitudeDegrees>36.7830632440745830535888671875</LatitudeDegrees>
              <LongitudeDegrees>-4.39262713305652141571044921875</LongitudeDegrees>
            </Position>
            <AltitudeMeters>543.4000244140625</AltitudeMeters>
            <DistanceMeters>4023.3557288553</DistanceMeters>
          </Trackpoint>
          <Trackpoint>
            <Time>2022-06-16T05:58:51.000Z</Time>
            <Position>
              <LatitudeDegrees>36.78307321853935718536376953125</LatitudeDegrees>
              <LongitudeDegrees>-4.39262025989592075347900390625</LongitudeDegrees>
            </Position>
            <AltitudeMeters>543.20001220703125</AltitudeMeters>
            <DistanceMeters>4024.6270996444</DistanceMeters>
          </Trackpoint>
          <Trackpoint>
            <Time>2022-06-16T05:58:52.000Z</Time>
            <Position>
              <LatitudeDegrees>36.78308176808059215545654296875</LatitudeDegrees>
              <LongitudeDegrees>-4.39261171035468578338623046875</LongitudeDegrees>
            </Position>
            <AltitudeMeters>543.20001220703125</AltitudeMeters>
            <DistanceMeters>4025.8440353604</DistanceMeters>
          </Trackpoint>
          <Trackpoint>
            <Time>2022-06-16T05:58:55.000Z</Time>
            <Position>
              <LatitudeDegrees>36.78311227820813655853271484375</LatitudeDegrees>
              <LongitudeDegrees>-4.39258857630193233489990234375</LongitudeDegrees>
            </Position>
            <AltitudeMeters>543</AltitudeMeters>
            <DistanceMeters>4029.8170158064</DistanceMeters>
          </Trackpoint>
          <Trackpoint>
            <Time>2022-06-16T05:58:58.000Z</Time>
            <Position>
              <LatitudeDegrees>36.7831396870315074920654296875</LatitudeDegrees>
              <LongitudeDegrees>-4.39255781471729278564453125</LongitudeDegrees>
            </Position>
            <AltitudeMeters>543</AltitudeMeters>
            <DistanceMeters>4033.9197054719</DistanceMeters>
          </Trackpoint>
          <Trackpoint>
            <Time>2022-06-16T05:58:59.000Z</Time>
            <Position>
              <LatitudeDegrees>36.7831484042108058929443359375</LatitudeDegrees>
              <LongitudeDegrees>-4.39254867844283580780029296875</LongitudeDegrees>
            </Position>
            <AltitudeMeters>543</AltitudeMeters>
            <DistanceMeters>4035.1875199721</DistanceMeters>
          </Trackpoint>
          <Trackpoint>
            <Time>2022-06-16T05:59:00.000Z</Time>
            <Position>
              <LatitudeDegrees>36.78315770812332630157470703125</LatitudeDegrees>
              <LongitudeDegrees>-4.3925385363399982452392578125</LongitudeDegrees>
            </Position>
            <AltitudeMeters>543</AltitudeMeters>
            <DistanceMeters>4036.5580147369</DistanceMeters>
          </Trackpoint>
          <Trackpoint>
            <Time>2022-06-16T05:59:04.000Z</Time>
            <Position>
              <LatitudeDegrees>36.7831973545253276824951171875</LatitudeDegrees>
              <LongitudeDegrees>-4.3925070203840732574462890625</LongitudeDegrees>
            </Position>
            <AltitudeMeters>542.5999755859375</AltitudeMeters>
            <DistanceMeters>4041.78880164</DistanceMeters>
          </Trackpoint>
          <Trackpoint>
            <Time>2022-06-16T05:59:10.000Z</Time>
            <Position>
              <LatitudeDegrees>36.78323683328926563262939453125</LatitudeDegrees>
              <LongitudeDegrees>-4.3924391269683837890625</LongitudeDegrees>
            </Position>
            <AltitudeMeters>543</AltitudeMeters>
            <DistanceMeters>4049.2675912141</DistanceMeters>
          </Trackpoint>
          <Trackpoint>
            <Time>2022-06-16T05:59:15.000Z</Time>
            <Position>
              <LatitudeDegrees>36.7832345701754093170166015625</LatitudeDegrees>
              <LongitudeDegrees>-4.39237852580845355987548828125</LongitudeDegrees>
            </Position>
            <AltitudeMeters>544.20001220703125</AltitudeMeters>
            <DistanceMeters>4054.6749369147</DistanceMeters>
          </Trackpoint>
          <Trackpoint>
            <Time>2022-06-16T05:59:17.000Z</Time>
            <Position>
              <LatitudeDegrees>36.7832352407276630401611328125</LatitudeDegrees>
              <LongitudeDegrees>-4.39235187135636806488037109375</LongitudeDegrees>
            </Position>
            <AltitudeMeters>544.4000244140625</AltitudeMeters>
            <DistanceMeters>4057.0525045486</DistanceMeters>
          </Trackpoint>
          <Trackpoint>
            <Time>2022-06-16T05:59:20.000Z</Time>
            <Position>
              <LatitudeDegrees>36.78324286825954914093017578125</LatitudeDegrees>
              <LongitudeDegrees>-4.39230258576571941375732421875</LongitudeDegrees>
            </Position>
            <AltitudeMeters>544.79998779296875</AltitudeMeters>
            <DistanceMeters>4061.5278491781</DistanceMeters>
          </Trackpoint>
          <Trackpoint>
            <Time>2022-06-16T05:59:21.000Z</Time>
            <Position>
              <LatitudeDegrees>36.78324907086789608001708984375</LatitudeDegrees>
              <LongitudeDegrees>-4.39228850416839122772216796875</LongitudeDegrees>
            </Position>
            <AltitudeMeters>544.79998779296875</AltitudeMeters>
            <DistanceMeters>4062.9564139391</DistanceMeters>
          </Trackpoint>
          <Trackpoint>
            <Time>2022-06-16T05:59:26.000Z</Time>
            <Position>
              <LatitudeDegrees>36.78327740170061588287353515625</LatitudeDegrees>
              <LongitudeDegrees>-4.3922233767807483673095703125</LongitudeDegrees>
            </Position>
            <AltitudeMeters>545.20001220703125</AltitudeMeters>
            <DistanceMeters>4069.5633337607</DistanceMeters>
          </Trackpoint>
          <Trackpoint>
            <Time>2022-06-16T05:59:30.000Z</Time>
            <Position>
              <LatitudeDegrees>36.78330204449594020843505859375</LatitudeDegrees>
              <LongitudeDegrees>-4.3921717442572116851806640625</LongitudeDegrees>
            </Position>
            <AltitudeMeters>545.5999755859375</AltitudeMeters>
            <DistanceMeters>4074.9220316522</DistanceMeters>
          </Trackpoint>
          <Trackpoint>
            <Time>2022-06-16T05:59:40.000Z</Time>
            <Position>
              <LatitudeDegrees>36.78334177471697330474853515625</LatitudeDegrees>
              <LongitudeDegrees>-4.39212488941848278045654296875</LongitudeDegrees>
            </Position>
            <AltitudeMeters>546.20001220703125</AltitudeMeters>
            <DistanceMeters>4081.0052259831</DistanceMeters>
          </Trackpoint>
          <Trackpoint>
            <Time>2022-06-16T05:59:49.000Z</Time>
            <Position>
              <LatitudeDegrees>36.78334412164986133575439453125</LatitudeDegrees>
              <LongitudeDegrees>-4.39213494770228862762451171875</LongitudeDegrees>
            </Position>
            <AltitudeMeters>546</AltitudeMeters>
            <DistanceMeters>4081.9362938316</DistanceMeters>
          </Trackpoint>
          <Trackpoint>
            <Time>2022-06-16T05:59:50.000Z</Time>
            <Position>
              <LatitudeDegrees>36.78334169089794158935546875</LatitudeDegrees>
              <LongitudeDegrees>-4.392136372625827789306640625</LongitudeDegrees>
            </Position>
            <AltitudeMeters>546</AltitudeMeters>
            <DistanceMeters>4082.2367946876</DistanceMeters>
          </Trackpoint>
          <Trackpoint>
            <Time>2022-06-16T06:00:00.000Z</Time>
            <Position>
              <LatitudeDegrees>36.783347390592098236083984375</LatitudeDegrees>
              <LongitudeDegrees>-4.39214198850095272064208984375</LongitudeDegrees>
            </Position>
            <AltitudeMeters>546</AltitudeMeters>
            <DistanceMeters>4083.0487032911</DistanceMeters>
          </Trackpoint>
          <Trackpoint>
            <Time>2022-06-16T06:00:10.000Z</Time>
            <Position>
              <LatitudeDegrees>36.78334663622081279754638671875</LatitudeDegrees>
              <LongitudeDegrees>-4.3921378813683986663818359375</LongitudeDegrees>
            </Position>
            <AltitudeMeters>546</AltitudeMeters>
            <DistanceMeters>4083.4288101486</DistanceMeters>
          </Trackpoint>
          <Trackpoint>
            <Time>2022-06-16T06:00:20.000Z</Time>
            <Position>
              <LatitudeDegrees>36.78333942778408527374267578125</LatitudeDegrees>
              <LongitudeDegrees>-4.392115585505962371826171875</LongitudeDegrees>
            </Position>
            <AltitudeMeters>546.4000244140625</AltitudeMeters>
            <DistanceMeters>4085.5706035171</DistanceMeters>
          </Trackpoint>
          <Trackpoint>
            <Time>2022-06-16T06:00:30.000Z</Time>
            <Position>
              <LatitudeDegrees>36.7833893001079559326171875</LatitudeDegrees>
              <LongitudeDegrees>-4.392030425369739532470703125</LongitudeDegrees>
            </Position>
            <AltitudeMeters>547.4000244140625</AltitudeMeters>
            <DistanceMeters>4094.9748881094</DistanceMeters>
          </Trackpoint>
          <Trackpoint>
            <Time>2022-06-16T06:00:32.000Z</Time>
            <Position>
              <LatitudeDegrees>36.7834032140672206878662109375</LatitudeDegrees>
              <LongitudeDegrees>-4.3920148350298404693603515625</LongitudeDegrees>
            </Position>
            <AltitudeMeters>547.5999755859375</AltitudeMeters>
            <DistanceMeters>4097.0568191104</DistanceMeters>
          </Trackpoint>
          <Trackpoint>
            <Time>2022-06-16T06:00:33.000Z</Time>
            <Position>
              <LatitudeDegrees>36.78341235034167766571044921875</LatitudeDegrees>
              <LongitudeDegrees>-4.3920064531266689300537109375</LongitudeDegrees>
            </Position>
            <AltitudeMeters>547.5999755859375</AltitudeMeters>
            <DistanceMeters>4098.3174909369</DistanceMeters>
          </Trackpoint>
          <Trackpoint>
            <Time>2022-06-16T06:00:35.000Z</Time>
            <Position>
              <LatitudeDegrees>36.78343011997640132904052734375</LatitudeDegrees>
              <LongitudeDegrees>-4.39199388027191162109375</LongitudeDegrees>
            </Position>
            <AltitudeMeters>547.79998779296875</AltitudeMeters>
            <DistanceMeters>4100.5901993929</DistanceMeters>
          </Trackpoint>
          <Trackpoint>
            <Time>2022-06-16T06:00:40.000Z</Time>
            <Position>
              <LatitudeDegrees>36.78347907029092311859130859375</LatitudeDegrees>
              <LongitudeDegrees>-4.39196311868727207183837890625</LongitudeDegrees>
            </Position>
            <AltitudeMeters>548.20001220703125</AltitudeMeters>
            <DistanceMeters>4106.6897005978</DistanceMeters>
          </Trackpoint>
          <Trackpoint>
            <Time>2022-06-16T06:00:46.000Z</Time>
            <Position>
              <LatitudeDegrees>36.78355467505753040313720703125</LatitudeDegrees>
              <LongitudeDegrees>-4.391918443143367767333984375</LongitudeDegrees>
            </Position>
            <AltitudeMeters>549</AltitudeMeters>
            <DistanceMeters>4115.9994091706</DistanceMeters>
          </Trackpoint>
          <Trackpoint>
            <Time>2022-06-16T06:00:47.000Z</Time>
            <Position>
              <LatitudeDegrees>36.78356607444584369659423828125</LatitudeDegrees>
              <LongitudeDegrees>-4.3919139169156551361083984375</LongitudeDegrees>
            </Position>
            <AltitudeMeters>549</AltitudeMeters>
            <DistanceMeters>4117.3297831717</DistanceMeters>
          </Trackpoint>
          <Trackpoint>
            <Time>2022-06-16T06:00:50.000Z</Time>
            <Position>
              <LatitudeDegrees>36.78360396064817905426025390625</LatitudeDegrees>
              <LongitudeDegrees>-4.39190335571765899658203125</LongitudeDegrees>
            </Position>
            <AltitudeMeters>549.20001220703125</AltitudeMeters>
            <DistanceMeters>4121.6490583347</DistanceMeters>
          </Trackpoint>
          <Trackpoint>
            <Time>2022-06-16T06:01:00.000Z</Time>
            <Position>
              <LatitudeDegrees>36.78370269946753978729248046875</LatitudeDegrees>
              <LongitudeDegrees>-4.39182850532233715057373046875</LongitudeDegrees>
            </Position>
            <AltitudeMeters>550.4000244140625</AltitudeMeters>
            <DistanceMeters>4134.5054388218</DistanceMeters>
          </Trackpoint>
          <Trackpoint>
            <Time>2022-06-16T06:01:10.000Z</Time>
            <Position>
              <LatitudeDegrees>36.7838246561586856842041015625</LatitudeDegrees>
              <LongitudeDegrees>-4.3917814828455448150634765625</LongitudeDegrees>
            </Position>
            <AltitudeMeters>551.79998779296875</AltitudeMeters>
            <DistanceMeters>4148.7118531661</DistanceMeters>
          </Trackpoint>
          <Trackpoint>
            <Time>2022-06-16T06:01:20.000Z</Time>
            <Position>
              <LatitudeDegrees>36.7839869298040866851806640625</LatitudeDegrees>
              <LongitudeDegrees>-4.391848705708980560302734375</LongitudeDegrees>
            </Position>
            <AltitudeMeters>551.5999755859375</AltitudeMeters>
            <DistanceMeters>4167.7411751583</DistanceMeters>
          </Trackpoint>
          <Trackpoint>
            <Time>2022-06-16T06:01:30.000Z</Time>
            <Position>
              <LatitudeDegrees>36.78405691869556903839111328125</LatitudeDegrees>
              <LongitudeDegrees>-4.391984157264232635498046875</LongitudeDegrees>
            </Position>
            <AltitudeMeters>549.79998779296875</AltitudeMeters>
            <DistanceMeters>4182.1100188074</DistanceMeters>
          </Trackpoint>
          <Trackpoint>
            <Time>2022-06-16T06:01:40.000Z</Time>
            <Position>
              <LatitudeDegrees>36.78407066501677036285400390625</LatitudeDegrees>
              <LongitudeDegrees>-4.3921400606632232666015625</LongitudeDegrees>
            </Position>
            <AltitudeMeters>547</AltitudeMeters>
            <DistanceMeters>4196.0915457219</DistanceMeters>
          </Trackpoint>
          <Trackpoint>
            <Time>2022-06-16T06:01:41.000Z</Time>
            <Position>
              <LatitudeDegrees>36.78407334722578525543212890625</LatitudeDegrees>
              <LongitudeDegrees>-4.39215456135571002960205078125</LongitudeDegrees>
            </Position>
            <AltitudeMeters>546.79998779296875</AltitudeMeters>
            <DistanceMeters>4197.4185215719</DistanceMeters>
          </Trackpoint>
          <Trackpoint>
            <Time>2022-06-16T06:01:50.000Z</Time>
            <Position>
              <LatitudeDegrees>36.784090362489223480224609375</LatitudeDegrees>
              <LongitudeDegrees>-4.3922956287860870361328125</LongitudeDegrees>
            </Position>
            <AltitudeMeters>543</AltitudeMeters>
            <DistanceMeters>4210.1350701979</DistanceMeters>
          </Trackpoint>
          <Trackpoint>
            <Time>2022-06-16T06:02:00.000Z</Time>
            <Position>
              <LatitudeDegrees>36.78413051180541515350341796875</LatitudeDegrees>
              <LongitudeDegrees>-4.39246770925819873809814453125</LongitudeDegrees>
            </Position>
            <AltitudeMeters>539.5999755859375</AltitudeMeters>
            <DistanceMeters>4226.1119973405</DistanceMeters>
          </Trackpoint>
          <Trackpoint>
            <Time>2022-06-16T06:02:10.000Z</Time>
            <Position>
              <LatitudeDegrees>36.7841817252337932586669921875</LatitudeDegrees>
              <LongitudeDegrees>-4.392624199390411376953125</LongitudeDegrees>
            </Position>
            <AltitudeMeters>536.4000244140625</AltitudeMeters>
            <DistanceMeters>4241.1814486381</DistanceMeters>
          </Trackpoint>
          <Trackpoint>
            <Time>2022-06-16T06:02:17.000Z</Time>
            <Position>
              <LatitudeDegrees>36.78422891534864902496337890625</LatitudeDegrees>
              <LongitudeDegrees>-4.39272318966686725616455078125</LongitudeDegrees>
            </Position>
            <AltitudeMeters>534.4000244140625</AltitudeMeters>
            <DistanceMeters>4251.4504910819</DistanceMeters>
          </Trackpoint>
          <Trackpoint>
            <Time>2022-06-16T06:02:20.000Z</Time>
            <Position>
              <LatitudeDegrees>36.78425456397235393524169921875</LatitudeDegrees>
              <LongitudeDegrees>-4.39276124350726604461669921875</LongitudeDegrees>
            </Position>
            <AltitudeMeters>533.79998779296875</AltitudeMeters>
            <DistanceMeters>4255.8852973342</DistanceMeters>
          </Trackpoint>
          <Trackpoint>
            <Time>2022-06-16T06:02:30.000Z</Time>
            <Position>
              <LatitudeDegrees>36.78436118178069591522216796875</LatitudeDegrees>
              <LongitudeDegrees>-4.392855204641819000244140625</LongitudeDegrees>
            </Position>
            <AltitudeMeters>533</AltitudeMeters>
            <DistanceMeters>4270.4100925465</DistanceMeters>
          </Trackpoint>
          <Trackpoint>
            <Time>2022-06-16T06:02:40.000Z</Time>
            <Position>
              <LatitudeDegrees>36.7844744212925434112548828125</LatitudeDegrees>
              <LongitudeDegrees>-4.39292904920876026153564453125</LongitudeDegrees>
            </Position>
            <AltitudeMeters>533.20001220703125</AltitudeMeters>
            <DistanceMeters>4284.6292138829</DistanceMeters>
          </Trackpoint>
          <Trackpoint>
            <Time>2022-06-16T06:02:50.000Z</Time>
            <Position>
              <LatitudeDegrees>36.78452680818736553192138671875</LatitudeDegrees>
              <LongitudeDegrees>-4.3928992934525012969970703125</LongitudeDegrees>
            </Position>
            <AltitudeMeters>534.79998779296875</AltitudeMeters>
            <DistanceMeters>4291.0341836163</DistanceMeters>
          </Trackpoint>
          <Trackpoint>
            <Time>2022-06-16T06:03:00.000Z</Time>
            <Position>
              <LatitudeDegrees>36.784626133739948272705078125</LatitudeDegrees>
              <LongitudeDegrees>-4.3927859701216220855712890625</LongitudeDegrees>
            </Position>
            <AltitudeMeters>537.20001220703125</AltitudeMeters>
            <DistanceMeters>4306.0095616912</DistanceMeters>
          </Trackpoint>
          <Trackpoint>
            <Time>2022-06-16T06:03:10.000Z</Time>
            <Position>
              <LatitudeDegrees>36.7846846394240856170654296875</LatitudeDegrees>
              <LongitudeDegrees>-4.39263769425451755523681640625</LongitudeDegrees>
            </Position>
            <AltitudeMeters>539.20001220703125</AltitudeMeters>
            <DistanceMeters>4320.7445254854</DistanceMeters>
          </Trackpoint>
          <Trackpoint>
            <Time>2022-06-16T06:03:20.000Z</Time>
            <Position>
              <LatitudeDegrees>36.7847325839102268218994140625</LatitudeDegrees>
              <LongitudeDegrees>-4.3925097025930881500244140625</LongitudeDegrees>
            </Position>
            <AltitudeMeters>540.79998779296875</AltitudeMeters>
            <DistanceMeters>4333.3401363497</DistanceMeters>
          </Trackpoint>
          <Trackpoint>
            <Time>2022-06-16T06:03:30.000Z</Time>
            <Position>
              <LatitudeDegrees>36.78479184396564960479736328125</LatitudeDegrees>
              <LongitudeDegrees>-4.39239344559609889984130859375</LongitudeDegrees>
            </Position>
            <AltitudeMeters>542.4000244140625</AltitudeMeters>
            <DistanceMeters>4345.6243378889</DistanceMeters>
          </Trackpoint>
          <Trackpoint>
            <Time>2022-06-16T06:03:40.000Z</Time>
            <Position>
              <LatitudeDegrees>36.78486443124711513519287109375</LatitudeDegrees>
              <LongitudeDegrees>-4.3922585807740688323974609375</LongitudeDegrees>
            </Position>
            <AltitudeMeters>542.5999755859375</AltitudeMeters>
            <DistanceMeters>4360.1086661792</DistanceMeters>
          </Trackpoint>
          <Trackpoint>
            <Time>2022-06-16T06:03:50.000Z</Time>
            <Position>
              <LatitudeDegrees>36.78494221530854701995849609375</LatitudeDegrees>
              <LongitudeDegrees>-4.39214131794869899749755859375</LongitudeDegrees>
            </Position>
            <AltitudeMeters>543.20001220703125</AltitudeMeters>
            <DistanceMeters>4373.6811957687</DistanceMeters>
          </Trackpoint>
          <Trackpoint>
            <Time>2022-06-16T06:03:52.000Z</Time>
            <Position>
              <LatitudeDegrees>36.78496308624744415283203125</LatitudeDegrees>
              <LongitudeDegrees>-4.392114914953708648681640625</LongitudeDegrees>
            </Position>
            <AltitudeMeters>543.5999755859375</AltitudeMeters>
            <DistanceMeters>4376.9867051843</DistanceMeters>
          </Trackpoint>
          <Trackpoint>
            <Time>2022-06-16T06:03:55.000Z</Time>
            <Position>
              <LatitudeDegrees>36.7849937640130519866943359375</LatitudeDegrees>
              <LongitudeDegrees>-4.39208683557808399200439453125</LongitudeDegrees>
            </Position>
            <AltitudeMeters>543.5999755859375</AltitudeMeters>
            <DistanceMeters>4381.22152889</DistanceMeters>
          </Trackpoint>
          <Trackpoint>
            <Time>2022-06-16T06:04:00.000Z</Time>
            <Position>
              <LatitudeDegrees>36.7850443907082080841064453125</LatitudeDegrees>
              <LongitudeDegrees>-4.39204819500446319580078125</LongitudeDegrees>
            </Position>
            <AltitudeMeters>543.4000244140625</AltitudeMeters>
            <DistanceMeters>4387.8257146251</DistanceMeters>
          </Trackpoint>
          <Trackpoint>
            <Time>2022-06-16T06:04:10.000Z</Time>
            <Position>
              <LatitudeDegrees>36.78516215644776821136474609375</LatitudeDegrees>
              <LongitudeDegrees>-4.3919725902378559112548828125</LongitudeDegrees>
            </Position>
            <AltitudeMeters>544</AltitudeMeters>
            <DistanceMeters>4402.5643549605</DistanceMeters>
          </Trackpoint>
          <Trackpoint>
            <Time>2022-06-16T06:04:20.000Z</Time>
            <Position>
              <LatitudeDegrees>36.78530372679233551025390625</LatitudeDegrees>
              <LongitudeDegrees>-4.391968734562397003173828125</LongitudeDegrees>
            </Position>
            <AltitudeMeters>541.5999755859375</AltitudeMeters>
            <DistanceMeters>4418.3250447557</DistanceMeters>
          </Trackpoint>
          <Trackpoint>
            <Time>2022-06-16T06:04:30.000Z</Time>
            <Position>
              <LatitudeDegrees>36.78540674038231372833251953125</LatitudeDegrees>
              <LongitudeDegrees>-4.3920315988361835479736328125</LongitudeDegrees>
            </Position>
            <AltitudeMeters>536.5999755859375</AltitudeMeters>
            <DistanceMeters>4431.0869591396</DistanceMeters>
          </Trackpoint>
          <Trackpoint>
            <Time>2022-06-16T06:04:40.000Z</Time>
            <Position>
              <LatitudeDegrees>36.78550749085843563079833984375</LatitudeDegrees>
              <LongitudeDegrees>-4.3921093828976154327392578125</LongitudeDegrees>
            </Position>
            <AltitudeMeters>531</AltitudeMeters>
            <DistanceMeters>4444.2713806873</DistanceMeters>
          </Trackpoint>
          <Trackpoint>
            <Time>2022-06-16T06:04:50.000Z</Time>
            <Position>
              <LatitudeDegrees>36.78564813919365406036376953125</LatitudeDegrees>
              <LongitudeDegrees>-4.39214282669126987457275390625</LongitudeDegrees>
            </Position>
            <AltitudeMeters>526.79998779296875</AltitudeMeters>
            <DistanceMeters>4460.2069951956</DistanceMeters>
          </Trackpoint>
          <Trackpoint>
            <Time>2022-06-16T06:04:53.000Z</Time>
            <Position>
              <LatitudeDegrees>36.78567429073154926300048828125</LatitudeDegrees>
              <LongitudeDegrees>-4.3921372108161449432373046875</LongitudeDegrees>
            </Position>
            <AltitudeMeters>526.79998779296875</AltitudeMeters>
            <DistanceMeters>4463.1620051653</DistanceMeters>
          </Trackpoint>
          <Trackpoint>
            <Time>2022-06-16T06:05:00.000Z</Time>
            <Position>
              <LatitudeDegrees>36.7857712693512439727783203125</LatitudeDegrees>
              <LongitudeDegrees>-4.39207476563751697540283203125</LongitudeDegrees>
            </Position>
            <AltitudeMeters>529.5999755859375</AltitudeMeters>
            <DistanceMeters>4475.3068505178</DistanceMeters>
          </Trackpoint>
          <Trackpoint>
            <Time>2022-06-16T06:05:06.000Z</Time>
            <Position>
              <LatitudeDegrees>36.78583203814923763275146484375</LatitudeDegrees>
              <LongitudeDegrees>-4.39203117974102497100830078125</LongitudeDegrees>
            </Position>
            <AltitudeMeters>531.5999755859375</AltitudeMeters>
            <DistanceMeters>4483.1071489146</DistanceMeters>
          </Trackpoint>
          <Trackpoint>
            <Time>2022-06-16T06:05:10.000Z</Time>
            <Position>
              <LatitudeDegrees>36.78586967289447784423828125</LatitudeDegrees>
              <LongitudeDegrees>-4.3920071236789226531982421875</LongitudeDegrees>
            </Position>
            <AltitudeMeters>532.5999755859375</AltitudeMeters>
            <DistanceMeters>4487.8126507413</DistanceMeters>
          </Trackpoint>
          <Trackpoint>
            <Time>2022-06-16T06:05:20.000Z</Time>
            <Position>
              <LatitudeDegrees>36.7859801463782787322998046875</LatitudeDegrees>
              <LongitudeDegrees>-4.3919776193797588348388671875</LongitudeDegrees>
            </Position>
            <AltitudeMeters>534.20001220703125</AltitudeMeters>
            <DistanceMeters>4500.3870946071</DistanceMeters>
          </Trackpoint>
          <Trackpoint>
            <Time>2022-06-16T06:05:24.000Z</Time>
            <Position>
              <LatitudeDegrees>36.78601861931383609771728515625</LatitudeDegrees>
              <LongitudeDegrees>-4.39198382198810577392578125</LongitudeDegrees>
            </Position>
            <AltitudeMeters>533.79998779296875</AltitudeMeters>
            <DistanceMeters>4504.7053243204</DistanceMeters>
          </Trackpoint>
          <Trackpoint>
            <Time>2022-06-16T06:05:29.000Z</Time>
            <Position>
              <LatitudeDegrees>36.7860653065145015716552734375</LatitudeDegrees>
              <LongitudeDegrees>-4.39202045090496540069580078125</LongitudeDegrees>
            </Position>
            <AltitudeMeters>531.5999755859375</AltitudeMeters>
            <DistanceMeters>4510.8431968283</DistanceMeters>
          </Trackpoint>
          <Trackpoint>
            <Time>2022-06-16T06:05:30.000Z</Time>
            <Position>
              <LatitudeDegrees>36.78607729263603687286376953125</LatitudeDegrees>
              <LongitudeDegrees>-4.3920269049704074859619140625</LongitudeDegrees>
            </Position>
            <AltitudeMeters>531.4000244140625</AltitudeMeters>
            <DistanceMeters>4512.296826041</DistanceMeters>
          </Trackpoint>
          <Trackpoint>
            <Time>2022-06-16T06:05:40.000Z</Time>
            <Position>
              <LatitudeDegrees>36.786180473864078521728515625</LatitudeDegrees>
              <LongitudeDegrees>-4.39212170429527759552001953125</LongitudeDegrees>
            </Position>
            <AltitudeMeters>525.5999755859375</AltitudeMeters>
            <DistanceMeters>4526.5549504261</DistanceMeters>
          </Trackpoint>
          <Trackpoint>
            <Time>2022-06-16T06:05:50.000Z</Time>
            <Position>
              <LatitudeDegrees>36.78624694235622882843017578125</LatitudeDegrees>
              <LongitudeDegrees>-4.3922339379787445068359375</LongitudeDegrees>
            </Position>
            <AltitudeMeters>520.5999755859375</AltitudeMeters>
            <DistanceMeters>4538.9976454972</DistanceMeters>
          </Trackpoint>
          <Trackpoint>
            <Time>2022-06-16T06:06:00.000Z</Time>
            <Position>
              <LatitudeDegrees>36.786288432776927947998046875</LatitudeDegrees>
              <LongitudeDegrees>-4.39235639758408069610595703125</LongitudeDegrees>
            </Position>
            <AltitudeMeters>516.20001220703125</AltitudeMeters>
            <DistanceMeters>4550.850109344</DistanceMeters>
          </Trackpoint>
          <Trackpoint>
            <Time>2022-06-16T06:06:10.000Z</Time>
            <Position>
              <LatitudeDegrees>36.78629077970981597900390625</LatitudeDegrees>
              <LongitudeDegrees>-4.3923492729663848876953125</LongitudeDegrees>
            </Position>
            <AltitudeMeters>516.5999755859375</AltitudeMeters>
            <DistanceMeters>4551.5353567264</DistanceMeters>
          </Trackpoint>
          <Trackpoint>
            <Time>2022-06-16T06:06:15.000Z</Time>
            <Position>
              <LatitudeDegrees>36.78628399036824703216552734375</LatitudeDegrees>
              <LongitudeDegrees>-4.3923517875373363494873046875</LongitudeDegrees>
            </Position>
            <AltitudeMeters>516.20001220703125</AltitudeMeters>
            <DistanceMeters>4552.3247078996</DistanceMeters>
          </Trackpoint>
          <Trackpoint>
            <Time>2022-06-16T06:06:20.000Z</Time>
            <Position>
              <LatitudeDegrees>36.78631081245839595794677734375</LatitudeDegrees>
              <LongitudeDegrees>-4.3923685513436794281005859375</LongitudeDegrees>
            </Position>
            <AltitudeMeters>516.20001220703125</AltitudeMeters>
            <DistanceMeters>4555.6641905554</DistanceMeters>
          </Trackpoint>
          <Trackpoint>
            <Time>2022-06-16T06:06:26.000Z</Time>
            <Position>
              <LatitudeDegrees>36.7863263189792633056640625</LatitudeDegrees>
              <LongitudeDegrees>-4.39240283332765102386474609375</LongitudeDegrees>
            </Position>
            <AltitudeMeters>515.4000244140625</AltitudeMeters>
            <DistanceMeters>4559.1737523898</DistanceMeters>
          </Trackpoint>
          <Trackpoint>
            <Time>2022-06-16T06:06:30.000Z</Time>
            <Position>
              <LatitudeDegrees>36.78633369505405426025390625</LatitudeDegrees>
              <LongitudeDegrees>-4.3924084492027759552001953125</LongitudeDegrees>
            </Position>
            <AltitudeMeters>515.20001220703125</AltitudeMeters>
            <DistanceMeters>4560.1381682097</DistanceMeters>
          </Trackpoint>
          <Trackpoint>
            <Time>2022-06-16T06:06:40.000Z</Time>
            <Position>
              <LatitudeDegrees>36.7863150872290134429931640625</LatitudeDegrees>
              <LongitudeDegrees>-4.3924027495086193084716796875</LongitudeDegrees>
            </Position>
            <AltitudeMeters>515</AltitudeMeters>
            <DistanceMeters>4562.2715126563</DistanceMeters>
          </Trackpoint>
          <Trackpoint>
            <Time>2022-06-16T06:06:50.000Z</Time>
            <Position>
              <LatitudeDegrees>36.7863290011882781982421875</LatitudeDegrees>
              <LongitudeDegrees>-4.3924664519727230072021484375</LongitudeDegrees>
            </Position>
            <AltitudeMeters>512.5999755859375</AltitudeMeters>
            <DistanceMeters>4568.1570349983</DistanceMeters>
          </Trackpoint>
          <Trackpoint>
            <Time>2022-06-16T06:07:00.000Z</Time>
            <Position>
              <LatitudeDegrees>36.7863878421485424041748046875</LatitudeDegrees>
              <LongitudeDegrees>-4.3925734050571918487548828125</LongitudeDegrees>
            </Position>
            <AltitudeMeters>511</AltitudeMeters>
            <DistanceMeters>4579.7230002603</DistanceMeters>
          </Trackpoint>
          <Trackpoint>
            <Time>2022-06-16T06:07:05.000Z</Time>
            <Position>
              <LatitudeDegrees>36.786419861018657684326171875</LatitudeDegrees>
              <LongitudeDegrees>-4.39264775253832340240478515625</LongitudeDegrees>
            </Position>
            <AltitudeMeters>509.600006103515625</AltitudeMeters>
            <DistanceMeters>4587.2475320932</DistanceMeters>
          </Trackpoint>
          <Trackpoint>
            <Time>2022-06-16T06:07:07.000Z</Time>
            <Position>
              <LatitudeDegrees>36.786426566541194915771484375</LatitudeDegrees>
              <LongitudeDegrees>-4.39267440699040889739990234375</LongitudeDegrees>
            </Position>
            <AltitudeMeters>509</AltitudeMeters>
            <DistanceMeters>4589.7364339475</DistanceMeters>
          </Trackpoint>
          <Trackpoint>
            <Time>2022-06-16T06:07:08.000Z</Time>
            <Position>
              <LatitudeDegrees>36.7864324338734149932861328125</LatitudeDegrees>
              <LongitudeDegrees>-4.39268697984516620635986328125</LongitudeDegrees>
            </Position>
            <AltitudeMeters>508.79998779296875</AltitudeMeters>
            <DistanceMeters>4591.0324255441</DistanceMeters>
          </Trackpoint>
          <Trackpoint>
            <Time>2022-06-16T06:07:10.000Z</Time>
            <Position>
              <LatitudeDegrees>36.7864441685378551483154296875</LatitudeDegrees>
              <LongitudeDegrees>-4.3927086889743804931640625</LongitudeDegrees>
            </Position>
            <AltitudeMeters>508.399993896484375</AltitudeMeters>
            <DistanceMeters>4593.3678411757</DistanceMeters>
          </Trackpoint>
          <Trackpoint>
            <Time>2022-06-16T06:07:11.000Z</Time>
            <Position>
              <LatitudeDegrees>36.78645146079361438751220703125</LatitudeDegrees>
              <LongitudeDegrees>-4.39273416996002197265625</LongitudeDegrees>
            </Position>
            <AltitudeMeters>507.79998779296875</AltitudeMeters>
            <DistanceMeters>4595.7793488431</DistanceMeters>
          </Trackpoint>
          <Trackpoint>
            <Time>2022-06-16T06:07:12.000Z</Time>
            <Position>
              <LatitudeDegrees>36.7864602617919445037841796875</LatitudeDegrees>
              <LongitudeDegrees>-4.392749257385730743408203125</LongitudeDegrees>
            </Position>
            <AltitudeMeters>507.79998779296875</AltitudeMeters>
            <DistanceMeters>4597.4416374438</DistanceMeters>
          </Trackpoint>
          <Trackpoint>
            <Time>2022-06-16T06:07:15.000Z</Time>
            <Position>
              <LatitudeDegrees>36.78647191263735294342041015625</LatitudeDegrees>
              <LongitudeDegrees>-4.3927712179720401763916015625</LongitudeDegrees>
            </Position>
            <AltitudeMeters>507.600006103515625</AltitudeMeters>
            <DistanceMeters>4599.7905471285</DistanceMeters>
          </Trackpoint>
          <Trackpoint>
            <Time>2022-06-16T06:07:19.000Z</Time>
            <Position>
              <LatitudeDegrees>36.78649169392883777618408203125</LatitudeDegrees>
              <LongitudeDegrees>-4.3928240239620208740234375</LongitudeDegrees>
            </Position>
            <AltitudeMeters>507.20001220703125</AltitudeMeters>
            <DistanceMeters>4604.9866926776</DistanceMeters>
          </Trackpoint>
          <Trackpoint>
            <Time>2022-06-16T06:07:20.000Z</Time>
            <Position>
              <LatitudeDegrees>36.7864964716136455535888671875</LatitudeDegrees>
              <LongitudeDegrees>-4.39283584244549274444580078125</LongitudeDegrees>
            </Position>
            <AltitudeMeters>507.20001220703125</AltitudeMeters>
            <DistanceMeters>4606.1659431906</DistanceMeters>
          </Trackpoint>
          <Trackpoint>
            <Time>2022-06-16T06:07:26.000Z</Time>
            <Position>
              <LatitudeDegrees>36.78653947077691555023193359375</LatitudeDegrees>
              <LongitudeDegrees>-4.392903149127960205078125</LongitudeDegrees>
            </Position>
            <AltitudeMeters>507.600006103515625</AltitudeMeters>
            <DistanceMeters>4613.8407844687</DistanceMeters>
          </Trackpoint>
          <Trackpoint>
            <Time>2022-06-16T06:07:30.000Z</Time>
            <Position>
              <LatitudeDegrees>36.78655824624001979827880859375</LatitudeDegrees>
              <LongitudeDegrees>-4.3929492495954036712646484375</LongitudeDegrees>
            </Position>
            <AltitudeMeters>507.399993896484375</AltitudeMeters>
            <DistanceMeters>4618.452273385</DistanceMeters>
          </Trackpoint>
          <Trackpoint>
            <Time>2022-06-16T06:07:31.000Z</Time>
            <Position>
              <LatitudeDegrees>36.78656277246773242950439453125</LatitudeDegrees>
              <LongitudeDegrees>-4.39296207390725612640380859375</LongitudeDegrees>
            </Position>
            <AltitudeMeters>507</AltitudeMeters>
            <DistanceMeters>4619.7057618378</DistanceMeters>
          </Trackpoint>
          <Trackpoint>
            <Time>2022-06-16T06:07:33.000Z</Time>
            <Position>
              <LatitudeDegrees>36.78657266311347484588623046875</LatitudeDegrees>
              <LongitudeDegrees>-4.3929925002157688140869140625</LongitudeDegrees>
            </Position>
            <AltitudeMeters>506.399993896484375</AltitudeMeters>
            <DistanceMeters>4622.6346818814</DistanceMeters>
          </Trackpoint>
          <Trackpoint>
            <Time>2022-06-16T06:07:35.000Z</Time>
            <Position>
              <LatitudeDegrees>36.78658045828342437744140625</LatitudeDegrees>
              <LongitudeDegrees>-4.39301513135433197021484375</LongitudeDegrees>
            </Position>
            <AltitudeMeters>505.79998779296875</AltitudeMeters>
            <DistanceMeters>4624.8306010104</DistanceMeters>
          </Trackpoint>
          <Trackpoint>
            <Time>2022-06-16T06:07:40.000Z</Time>
            <Position>
              <LatitudeDegrees>36.78661155514419078826904296875</LatitudeDegrees>
              <LongitudeDegrees>-4.39308143220841884613037109375</LongitudeDegrees>
            </Position>
            <AltitudeMeters>505</AltitudeMeters>
            <DistanceMeters>4631.6797795835</DistanceMeters>
          </Trackpoint>
          <Trackpoint>
            <Time>2022-06-16T06:07:44.000Z</Time>
            <Position>
              <LatitudeDegrees>36.78663083352148532867431640625</LatitudeDegrees>
              <LongitudeDegrees>-4.39313205890357494354248046875</LongitudeDegrees>
            </Position>
            <AltitudeMeters>504.399993896484375</AltitudeMeters>
            <DistanceMeters>4636.6774982074</DistanceMeters>
          </Trackpoint>
          <Trackpoint>
            <Time>2022-06-16T06:07:50.000Z</Time>
            <Position>
              <LatitudeDegrees>36.786667294800281524658203125</LatitudeDegrees>
              <LongitudeDegrees>-4.3932060711085796356201171875</LongitudeDegrees>
            </Position>
            <AltitudeMeters>501.79998779296875</AltitudeMeters>
            <DistanceMeters>4644.4226126557</DistanceMeters>
          </Trackpoint>
          <Trackpoint>
            <Time>2022-06-16T06:08:00.000Z</Time>
            <Position>
              <LatitudeDegrees>36.78674566559493541717529296875</LatitudeDegrees>
              <LongitudeDegrees>-4.39324990846216678619384765625</LongitudeDegrees>
            </Position>
            <AltitudeMeters>501.600006103515625</AltitudeMeters>
            <DistanceMeters>4653.9807130624</DistanceMeters>
          </Trackpoint>
          <Trackpoint>
            <Time>2022-06-16T06:08:10.000Z</Time>
            <Position>
              <LatitudeDegrees>36.7868602462112903594970703125</LatitudeDegrees>
              <LongitudeDegrees>-4.39327220432460308074951171875</LongitudeDegrees>
            </Position>
            <AltitudeMeters>502.20001220703125</AltitudeMeters>
            <DistanceMeters>4666.8875659026</DistanceMeters>
          </Trackpoint>
          <Trackpoint>
            <Time>2022-06-16T06:08:20.000Z</Time>
            <Position>
              <LatitudeDegrees>36.78697532974183559417724609375</LatitudeDegrees>
              <LongitudeDegrees>-4.39332216046750545501708984375</LongitudeDegrees>
            </Position>
            <AltitudeMeters>502.600006103515625</AltitudeMeters>
            <DistanceMeters>4680.4487803341</DistanceMeters>
          </Trackpoint>
          <Trackpoint>
            <Time>2022-06-16T06:08:30.000Z</Time>
            <Position>
              <LatitudeDegrees>36.78707859478890895843505859375</LatitudeDegrees>
              <LongitudeDegrees>-4.393358118832111358642578125</LongitudeDegrees>
            </Position>
            <AltitudeMeters>501.600006103515625</AltitudeMeters>
            <DistanceMeters>4692.3813511119</DistanceMeters>
          </Trackpoint>
          <Trackpoint>
            <Time>2022-06-16T06:08:37.000Z</Time>
            <Position>
              <LatitudeDegrees>36.78714531473815441131591796875</LatitudeDegrees>
              <LongitudeDegrees>-4.39336926676332950592041015625</LongitudeDegrees>
            </Position>
            <AltitudeMeters>501</AltitudeMeters>
            <DistanceMeters>4699.8734105868</DistanceMeters>
          </Trackpoint>
          <Trackpoint>
            <Time>2022-06-16T06:08:40.000Z</Time>
            <Position>
              <LatitudeDegrees>36.7871777527034282684326171875</LatitudeDegrees>
              <LongitudeDegrees>-4.3933733738958835601806640625</LongitudeDegrees>
            </Position>
            <AltitudeMeters>500.600006103515625</AltitudeMeters>
            <DistanceMeters>4703.5018884296</DistanceMeters>
          </Trackpoint>
          <Trackpoint>
            <Time>2022-06-16T06:08:50.000Z</Time>
            <Position>
              <LatitudeDegrees>36.78728177212178707122802734375</LatitudeDegrees>
              <LongitudeDegrees>-4.393376894295215606689453125</LongitudeDegrees>
            </Position>
            <AltitudeMeters>500.79998779296875</AltitudeMeters>
            <DistanceMeters>4715.0838479173</DistanceMeters>
          </Trackpoint>
          <Trackpoint>
            <Time>2022-06-16T06:08:55.000Z</Time>
            <Position>
              <LatitudeDegrees>36.78734681569039821624755859375</LatitudeDegrees>
              <LongitudeDegrees>-4.39339810051023960113525390625</LongitudeDegrees>
            </Position>
            <AltitudeMeters>500</AltitudeMeters>
            <DistanceMeters>4722.5662588892</DistanceMeters>
          </Trackpoint>
          <Trackpoint>
            <Time>2022-06-16T06:08:57.000Z</Time>
            <Position>
              <LatitudeDegrees>36.78736902773380279541015625</LatitudeDegrees>
              <LongitudeDegrees>-4.39341167919337749481201171875</LongitudeDegrees>
            </Position>
            <AltitudeMeters>499.399993896484375</AltitudeMeters>
            <DistanceMeters>4725.3171140399</DistanceMeters>
          </Trackpoint>
          <Trackpoint>
            <Time>2022-06-16T06:08:59.000Z</Time>
            <Position>
              <LatitudeDegrees>36.78739274851977825164794921875</LatitudeDegrees>
              <LongitudeDegrees>-4.39342039637267589569091796875</LongitudeDegrees>
            </Position>
            <AltitudeMeters>499</AltitudeMeters>
            <DistanceMeters>4728.0679691906</DistanceMeters>
          </Trackpoint>
          <Trackpoint>
            <Time>2022-06-16T06:09:00.000Z</Time>
            <Position>
              <LatitudeDegrees>36.78740213625133037567138671875</LatitudeDegrees>
              <LongitudeDegrees>-4.39342509023845195770263671875</LongitudeDegrees>
            </Position>
            <AltitudeMeters>498.79998779296875</AltitudeMeters>
            <DistanceMeters>4729.1923404381</DistanceMeters>
          </Trackpoint>
          <Trackpoint>
            <Time>2022-06-16T06:09:10.000Z</Time>
            <Position>
              <LatitudeDegrees>36.78751663304865360260009765625</LatitudeDegrees>
              <LongitudeDegrees>-4.3934297002851963043212890625</LongitudeDegrees>
            </Position>
            <AltitudeMeters>498.600006103515625</AltitudeMeters>
            <DistanceMeters>4741.9429285146</DistanceMeters>
          </Trackpoint>
          <Trackpoint>
            <Time>2022-06-16T06:09:17.000Z</Time>
            <Position>
              <LatitudeDegrees>36.787576563656330108642578125</LatitudeDegrees>
              <LongitudeDegrees>-4.3934451229870319366455078125</LongitudeDegrees>
            </Position>
            <AltitudeMeters>498.399993896484375</AltitudeMeters>
            <DistanceMeters>4748.7531027132</DistanceMeters>
          </Trackpoint>
          <Trackpoint>
            <Time>2022-06-16T06:09:20.000Z</Time>
            <Position>
              <LatitudeDegrees>36.7876038886606693267822265625</LatitudeDegrees>
              <LongitudeDegrees>-4.39343129284679889678955078125</LongitudeDegrees>
            </Position>
            <AltitudeMeters>498.399993896484375</AltitudeMeters>
            <DistanceMeters>4752.0339335716</DistanceMeters>
          </Trackpoint>
          <Trackpoint>
            <Time>2022-06-16T06:09:30.000Z</Time>
            <Position>
              <LatitudeDegrees>36.7877279408276081085205078125</LatitudeDegrees>
              <LongitudeDegrees>-4.393361471593379974365234375</LongitudeDegrees>
            </Position>
            <AltitudeMeters>498.399993896484375</AltitudeMeters>
            <DistanceMeters>4767.1789978419</DistanceMeters>
          </Trackpoint>
          <Trackpoint>
            <Time>2022-06-16T06:09:40.000Z</Time>
            <Position>
              <LatitudeDegrees>36.78780647926032543182373046875</LatitudeDegrees>
              <LongitudeDegrees>-4.3932630680501461029052734375</LongitudeDegrees>
            </Position>
            <AltitudeMeters>498.20001220703125</AltitudeMeters>
            <DistanceMeters>4779.5624044076</DistanceMeters>
          </Trackpoint>
          <Trackpoint>
            <Time>2022-06-16T06:09:50.000Z</Time>
            <Position>
              <LatitudeDegrees>36.787838079035282135009765625</LatitudeDegrees>
              <LongitudeDegrees>-4.39317614771425724029541015625</LongitudeDegrees>
            </Position>
            <AltitudeMeters>496.79998779296875</AltitudeMeters>
            <DistanceMeters>4788.0708779988</DistanceMeters>
          </Trackpoint>
          <Trackpoint>
            <Time>2022-06-16T06:10:00.000Z</Time>
            <Position>
              <LatitudeDegrees>36.787823326885700225830078125</LatitudeDegrees>
              <LongitudeDegrees>-4.39311009831726551055908203125</LongitudeDegrees>
            </Position>
            <AltitudeMeters>496.20001220703125</AltitudeMeters>
            <DistanceMeters>4794.1836888355</DistanceMeters>
          </Trackpoint>
          <Trackpoint>
            <Time>2022-06-16T06:10:03.000Z</Time>
            <Position>
              <LatitudeDegrees>36.78782039321959018707275390625</LatitudeDegrees>
              <LongitudeDegrees>-4.3930627405643463134765625</LongitudeDegrees>
            </Position>
            <AltitudeMeters>495.79998779296875</AltitudeMeters>
            <DistanceMeters>4798.4174462377</DistanceMeters>
          </Trackpoint>
          <Trackpoint>
            <Time>2022-06-16T06:10:10.000Z</Time>
            <Position>
              <LatitudeDegrees>36.78780128248035907745361328125</LatitudeDegrees>
              <LongitudeDegrees>-4.3929549492895603179931640625</LongitudeDegrees>
            </Position>
            <AltitudeMeters>496.600006103515625</AltitudeMeters>
            <DistanceMeters>4808.2581037252</DistanceMeters>
          </Trackpoint>
          <Trackpoint>
            <Time>2022-06-16T06:10:20.000Z</Time>
            <Position>
              <LatitudeDegrees>36.78777462802827358245849609375</LatitudeDegrees>
              <LongitudeDegrees>-4.39279912970960140228271484375</LongitudeDegrees>
            </Position>
            <AltitudeMeters>497.399993896484375</AltitudeMeters>
            <DistanceMeters>4822.4607037549</DistanceMeters>
          </Trackpoint>
          <Trackpoint>
            <Time>2022-06-16T06:10:22.000Z</Time>
            <Position>
              <LatitudeDegrees>36.78776658140122890472412109375</LatitudeDegrees>
              <LongitudeDegrees>-4.39276526682078838348388671875</LongitudeDegrees>
            </Position>
            <AltitudeMeters>498.399993896484375</AltitudeMeters>
            <DistanceMeters>4825.6095168544</DistanceMeters>
          </Trackpoint>
          <Trackpoint>
            <Time>2022-06-16T06:10:23.000Z</Time>
            <Position>
              <LatitudeDegrees>36.78776406683027744293212890625</LatitudeDegrees>
              <LongitudeDegrees>-4.3927500955760478973388671875</LongitudeDegrees>
            </Position>
            <AltitudeMeters>498.600006103515625</AltitudeMeters>
            <DistanceMeters>4826.9898596124</DistanceMeters>
          </Trackpoint>
          <Trackpoint>
            <Time>2022-06-16T06:10:24.000Z</Time>
            <Position>
              <LatitudeDegrees>36.78775534965097904205322265625</LatitudeDegrees>
              <LongitudeDegrees>-4.39273375086486339569091796875</LongitudeDegrees>
            </Position>
            <AltitudeMeters>499.399993896484375</AltitudeMeters>
            <DistanceMeters>4828.742065648</DistanceMeters>
          </Trackpoint>
          <Trackpoint>
            <Time>2022-06-16T06:10:25.000Z</Time>
            <Position>
              <LatitudeDegrees>36.78775283508002758026123046875</LatitudeDegrees>
              <LongitudeDegrees>-4.39271665178239345550537109375</LongitudeDegrees>
            </Position>
            <AltitudeMeters>499.600006103515625</AltitudeMeters>
            <DistanceMeters>4830.291904457</DistanceMeters>
          </Trackpoint>
          <Trackpoint>
            <Time>2022-06-16T06:10:26.000Z</Time>
            <Position>
              <LatitudeDegrees>36.787750236690044403076171875</LatitudeDegrees>
              <LongitudeDegrees>-4.3927006423473358154296875</LongitudeDegrees>
            </Position>
            <AltitudeMeters>500</AltitudeMeters>
            <DistanceMeters>4831.7455336697</DistanceMeters>
          </Trackpoint>
          <Trackpoint>
            <Time>2022-06-16T06:10:29.000Z</Time>
            <Position>
              <LatitudeDegrees>36.7877396754920482635498046875</LatitudeDegrees>
              <LongitudeDegrees>-4.39265311695635318756103515625</LongitudeDegrees>
            </Position>
            <AltitudeMeters>501</AltitudeMeters>
            <DistanceMeters>4836.1435359142</DistanceMeters>
          </Trackpoint>
          <Trackpoint>
            <Time>2022-06-16T06:10:30.000Z</Time>
            <Position>
              <LatitudeDegrees>36.787738502025604248046875</LatitudeDegrees>
              <LongitudeDegrees>-4.3926387839019298553466796875</LongitudeDegrees>
            </Position>
            <AltitudeMeters>501.20001220703125</AltitudeMeters>
            <DistanceMeters>4837.4290334791</DistanceMeters>
          </Trackpoint>
          <Trackpoint>
            <Time>2022-06-16T06:10:40.000Z</Time>
            <Position>
              <LatitudeDegrees>36.7877504043281078338623046875</LatitudeDegrees>
              <LongitudeDegrees>-4.39248631708323955535888671875</LongitudeDegrees>
            </Position>
            <AltitudeMeters>502.20001220703125</AltitudeMeters>
            <DistanceMeters>4851.0844748329</DistanceMeters>
          </Trackpoint>
          <Trackpoint>
            <Time>2022-06-16T06:10:50.000Z</Time>
            <Position>
              <LatitudeDegrees>36.78771696053445339202880859375</LatitudeDegrees>
              <LongitudeDegrees>-4.39231373369693756103515625</LongitudeDegrees>
            </Position>
            <AltitudeMeters>505.79998779296875</AltitudeMeters>
            <DistanceMeters>4866.9120577409</DistanceMeters>
          </Trackpoint>
          <Trackpoint>
            <Time>2022-06-16T06:10:59.000Z</Time>
            <Position>
              <LatitudeDegrees>36.78773514926433563232421875</LatitudeDegrees>
              <LongitudeDegrees>-4.392188005149364471435546875</LongitudeDegrees>
            </Position>
            <AltitudeMeters>505.79998779296875</AltitudeMeters>
            <DistanceMeters>4878.3006040908</DistanceMeters>
          </Trackpoint>
          <Trackpoint>
            <Time>2022-06-16T06:11:00.000Z</Time>
            <Position>
              <LatitudeDegrees>36.7877440340816974639892578125</LatitudeDegrees>
              <LongitudeDegrees>-4.39217736013233661651611328125</LongitudeDegrees>
            </Position>
            <AltitudeMeters>505.600006103515625</AltitudeMeters>
            <DistanceMeters>4879.6710988556</DistanceMeters>
          </Trackpoint>
          <Trackpoint>
            <Time>2022-06-16T06:11:10.000Z</Time>
            <Position>
              <LatitudeDegrees>36.7878377437591552734375</LatitudeDegrees>
              <LongitudeDegrees>-4.3920859135687351226806640625</LongitudeDegrees>
            </Position>
            <AltitudeMeters>502.79998779296875</AltitudeMeters>
            <DistanceMeters>4892.908835198</DistanceMeters>
          </Trackpoint>
          <Trackpoint>
            <Time>2022-06-16T06:11:20.000Z</Time>
            <Position>
              <LatitudeDegrees>36.78795366548001766204833984375</LatitudeDegrees>
              <LongitudeDegrees>-4.39200636930763721466064453125</LongitudeDegrees>
            </Position>
            <AltitudeMeters>499.600006103515625</AltitudeMeters>
            <DistanceMeters>4907.630923868</DistanceMeters>
          </Trackpoint>
          <Trackpoint>
            <Time>2022-06-16T06:11:30.000Z</Time>
            <Position>
              <LatitudeDegrees>36.7880528233945369720458984375</LatitudeDegrees>
              <LongitudeDegrees>-4.39192640595138072967529296875</LongitudeDegrees>
            </Position>
            <AltitudeMeters>497</AltitudeMeters>
            <DistanceMeters>4920.768689323</DistanceMeters>
          </Trackpoint>
          <Trackpoint>
            <Time>2022-06-16T06:11:33.000Z</Time>
            <Position>
              <LatitudeDegrees>36.78809263743460178375244140625</LatitudeDegrees>
              <LongitudeDegrees>-4.39188851974904537200927734375</LongitudeDegrees>
            </Position>
            <AltitudeMeters>496.20001220703125</AltitudeMeters>
            <DistanceMeters>4926.3405294871</DistanceMeters>
          </Trackpoint>
          <Trackpoint>
            <Time>2022-06-16T06:11:40.000Z</Time>
            <Position>
              <LatitudeDegrees>36.78817125968635082244873046875</LatitudeDegrees>
              <LongitudeDegrees>-4.3917985819280147552490234375</LongitudeDegrees>
            </Position>
            <AltitudeMeters>494.20001220703125</AltitudeMeters>
            <DistanceMeters>4938.2086014608</DistanceMeters>
          </Trackpoint>
          <Trackpoint>
            <Time>2022-06-16T06:11:50.000Z</Time>
            <Position>
              <LatitudeDegrees>36.7882352136075496673583984375</LatitudeDegrees>
              <LongitudeDegrees>-4.39166371710598468780517578125</LongitudeDegrees>
            </Position>
            <AltitudeMeters>493.20001220703125</AltitudeMeters>
            <DistanceMeters>4952.1791444803</DistanceMeters>
          </Trackpoint>
          <Trackpoint>
            <Time>2022-06-16T06:12:00.000Z</Time>
            <Position>
              <LatitudeDegrees>36.7882492952048778533935546875</LatitudeDegrees>
              <LongitudeDegrees>-4.39149071462452411651611328125</LongitudeDegrees>
            </Position>
            <AltitudeMeters>494.399993896484375</AltitudeMeters>
            <DistanceMeters>4967.6795716984</DistanceMeters>
          </Trackpoint>
          <Trackpoint>
            <Time>2022-06-16T06:12:03.000Z</Time>
            <Position>
              <LatitudeDegrees>36.7882440984249114990234375</LatitudeDegrees>
              <LongitudeDegrees>-4.39143673516809940338134765625</LongitudeDegrees>
            </Position>
            <AltitudeMeters>495</AltitudeMeters>
            <DistanceMeters>4972.5268656762</DistanceMeters>
          </Trackpoint>
          <Trackpoint>
            <Time>2022-06-16T06:12:10.000Z</Time>
            <Position>
              <LatitudeDegrees>36.7882254905998706817626953125</LatitudeDegrees>
              <LongitudeDegrees>-4.39132131636142730712890625</LongitudeDegrees>
            </Position>
            <AltitudeMeters>496.600006103515625</AltitudeMeters>
            <DistanceMeters>4983.0211885372</DistanceMeters>
          </Trackpoint>
          <Trackpoint>
            <Time>2022-06-16T06:12:20.000Z</Time>
            <Position>
              <LatitudeDegrees>36.7881815694272518157958984375</LatitudeDegrees>
              <LongitudeDegrees>-4.39116415567696094512939453125</LongitudeDegrees>
            </Position>
            <AltitudeMeters>499.399993896484375</AltitudeMeters>
            <DistanceMeters>4997.8584468293</DistanceMeters>
          </Trackpoint>
          <Trackpoint>
            <Time>2022-06-16T06:12:30.000Z</Time>
            <Position>
              <LatitudeDegrees>36.7881520651280879974365234375</LatitudeDegrees>
              <LongitudeDegrees>-4.39099718816578388214111328125</LongitudeDegrees>
            </Position>
            <AltitudeMeters>502</AltitudeMeters>
            <DistanceMeters>5013.0989070026</DistanceMeters>
          </Trackpoint>
          <Trackpoint>
            <Time>2022-06-16T06:12:34.000Z</Time>
            <Position>
              <LatitudeDegrees>36.7881582677364349365234375</LatitudeDegrees>
              <LongitudeDegrees>-4.39091387204825878143310546875</LongitudeDegrees>
            </Position>
            <AltitudeMeters>502.600006103515625</AltitudeMeters>
            <DistanceMeters>5020.5577474601</DistanceMeters>
          </Trackpoint>
          <Trackpoint>
            <Time>2022-06-16T06:12:35.000Z</Time>
            <Position>
              <LatitudeDegrees>36.78816421888768672943115234375</LatitudeDegrees>
              <LongitudeDegrees>-4.39089409075677394866943359375</LongitudeDegrees>
            </Position>
            <AltitudeMeters>502.399993896484375</AltitudeMeters>
            <DistanceMeters>5022.441578674</DistanceMeters>
          </Trackpoint>
          <Trackpoint>
            <Time>2022-06-16T06:12:36.000Z</Time>
            <Position>
              <LatitudeDegrees>36.78817008621990680694580078125</LatitudeDegrees>
              <LongitudeDegrees>-4.3908742256462574005126953125</LongitudeDegrees>
            </Position>
            <AltitudeMeters>502.399993896484375</AltitudeMeters>
            <DistanceMeters>5024.327805097</DistanceMeters>
          </Trackpoint>
          <Trackpoint>
            <Time>2022-06-16T06:12:40.000Z</Time>
            <Position>
              <LatitudeDegrees>36.7881824076175689697265625</LatitudeDegrees>
              <LongitudeDegrees>-4.390799291431903839111328125</LongitudeDegrees>
            </Position>
            <AltitudeMeters>502.600006103515625</AltitudeMeters>
            <DistanceMeters>5031.1465926439</DistanceMeters>
          </Trackpoint>
          <Trackpoint>
            <Time>2022-06-16T06:12:50.000Z</Time>
            <Position>
              <LatitudeDegrees>36.78819053806364536285400390625</LatitudeDegrees>
              <LongitudeDegrees>-4.390621595084667205810546875</LongitudeDegrees>
            </Position>
            <AltitudeMeters>504.20001220703125</AltitudeMeters>
            <DistanceMeters>5047.0117857029</DistanceMeters>
          </Trackpoint>
          <Trackpoint>
            <Time>2022-06-16T06:13:00.000Z</Time>
            <Position>
              <LatitudeDegrees>36.78821182809770107269287109375</LatitudeDegrees>
              <LongitudeDegrees>-4.3904511071741580963134765625</LongitudeDegrees>
            </Position>
            <AltitudeMeters>505.79998779296875</AltitudeMeters>
            <DistanceMeters>5062.3920289561</DistanceMeters>
          </Trackpoint>
          <Trackpoint>
            <Time>2022-06-16T06:13:02.000Z</Time>
            <Position>
              <LatitudeDegrees>36.78821803070604801177978515625</LatitudeDegrees>
              <LongitudeDegrees>-4.3904207646846771240234375</LongitudeDegrees>
            </Position>
            <AltitudeMeters>506</AltitudeMeters>
            <DistanceMeters>5065.1836155965</DistanceMeters>
          </Trackpoint>
          <Trackpoint>
            <Time>2022-06-16T06:13:10.000Z</Time>
            <Position>
              <LatitudeDegrees>36.7882885225117206573486328125</LatitudeDegrees>
              <LongitudeDegrees>-4.3903129734098911285400390625</LongitudeDegrees>
            </Position>
            <AltitudeMeters>504.79998779296875</AltitudeMeters>
            <DistanceMeters>5077.5877871742</DistanceMeters>
          </Trackpoint>
          <Trackpoint>
            <Time>2022-06-16T06:13:18.000Z</Time>
            <Position>
              <LatitudeDegrees>36.7883720062673091888427734375</LatitudeDegrees>
              <LongitudeDegrees>-4.39023326151072978973388671875</LongitudeDegrees>
            </Position>
            <AltitudeMeters>502.399993896484375</AltitudeMeters>
            <DistanceMeters>5089.2853402669</DistanceMeters>
          </Trackpoint>
          <Trackpoint>
            <Time>2022-06-16T06:13:20.000Z</Time>
            <Position>
              <LatitudeDegrees>36.78839237429201602935791015625</LatitudeDegrees>
              <LongitudeDegrees>-4.3902137316763401031494140625</LongitudeDegrees>
            </Position>
            <AltitudeMeters>502</AltitudeMeters>
            <DistanceMeters>5092.1424697888</DistanceMeters>
          </Trackpoint>
          <Trackpoint>
            <Time>2022-06-16T06:13:25.000Z</Time>
            <Position>
              <LatitudeDegrees>36.78844316862523555755615234375</LatitudeDegrees>
              <LongitudeDegrees>-4.3901745043694972991943359375</LongitudeDegrees>
            </Position>
            <AltitudeMeters>500.79998779296875</AltitudeMeters>
            <DistanceMeters>5098.7902659738</DistanceMeters>
          </Trackpoint>
          <Trackpoint>
            <Time>2022-06-16T06:13:26.000Z</Time>
            <Position>
              <LatitudeDegrees>36.78845507092773914337158203125</LatitudeDegrees>
              <LongitudeDegrees>-4.3901677988469600677490234375</LongitudeDegrees>
            </Position>
            <AltitudeMeters>500.399993896484375</AltitudeMeters>
            <DistanceMeters>5100.2438951864</DistanceMeters>
          </Trackpoint>
          <Trackpoint>
            <Time>2022-06-16T06:13:28.000Z</Time>
            <Position>
              <LatitudeDegrees>36.788475774228572845458984375</LatitudeDegrees>
              <LongitudeDegrees>-4.390155561268329620361328125</LongitudeDegrees>
            </Position>
            <AltitudeMeters>499.79998779296875</AltitudeMeters>
            <DistanceMeters>5102.791958169</DistanceMeters>
          </Trackpoint>
          <Trackpoint>
            <Time>2022-06-16T06:13:30.000Z</Time>
            <Position>
              <LatitudeDegrees>36.7885014228522777557373046875</LatitudeDegrees>
              <LongitudeDegrees>-4.39014407806098461151123046875</LongitudeDegrees>
            </Position>
            <AltitudeMeters>498.79998779296875</AltitudeMeters>
            <DistanceMeters>5105.8238911861</DistanceMeters>
          </Trackpoint>
          <Trackpoint>
            <Time>2022-06-16T06:13:40.000Z</Time>
            <Position>
              <LatitudeDegrees>36.78863712586462497711181640625</LatitudeDegrees>
              <LongitudeDegrees>-4.39010987989604473114013671875</LongitudeDegrees>
            </Position>
            <AltitudeMeters>494.20001220703125</AltitudeMeters>
            <DistanceMeters>5121.2322905145</DistanceMeters>
          </Trackpoint>
          <Trackpoint>
            <Time>2022-06-16T06:13:50.000Z</Time>
            <Position>
              <LatitudeDegrees>36.78876671008765697479248046875</LatitudeDegrees>
              <LongitudeDegrees>-4.390083141624927520751953125</LongitudeDegrees>
            </Position>
            <AltitudeMeters>490.20001220703125</AltitudeMeters>
            <DistanceMeters>5135.8509699734</DistanceMeters>
          </Trackpoint>
          <Trackpoint>
            <Time>2022-06-16T06:13:55.000Z</Time>
            <Position>
              <LatitudeDegrees>36.78882454521954059600830078125</LatitudeDegrees>
              <LongitudeDegrees>-4.39004383049905300140380859375</LongitudeDegrees>
            </Position>
            <AltitudeMeters>489</AltitudeMeters>
            <DistanceMeters>5143.1809737143</DistanceMeters>
          </Trackpoint>
          <Trackpoint>
            <Time>2022-06-16T06:13:56.000Z</Time>
            <Position>
              <LatitudeDegrees>36.78883695043623447418212890625</LatitudeDegrees>
              <LongitudeDegrees>-4.39003276638686656951904296875</LongitudeDegrees>
            </Position>
            <AltitudeMeters>489</AltitudeMeters>
            <DistanceMeters>5144.8755427773</DistanceMeters>
          </Trackpoint>
          <Trackpoint>
            <Time>2022-06-16T06:13:57.000Z</Time>
            <Position>
              <LatitudeDegrees>36.7888484336435794830322265625</LatitudeDegrees>
              <LongitudeDegrees>-4.39002580940723419189453125</LongitudeDegrees>
            </Position>
            <AltitudeMeters>488.600006103515625</AltitudeMeters>
            <DistanceMeters>5146.2914089329</DistanceMeters>
          </Trackpoint>
          <Trackpoint>
            <Time>2022-06-16T06:13:58.000Z</Time>
            <Position>
              <LatitudeDegrees>36.78886176086962223052978515625</LatitudeDegrees>
              <LongitudeDegrees>-4.39001516439020633697509765625</LongitudeDegrees>
            </Position>
            <AltitudeMeters>488.399993896484375</AltitudeMeters>
            <DistanceMeters>5148.0487609591</DistanceMeters>
          </Trackpoint>
          <Trackpoint>
            <Time>2022-06-16T06:14:00.000Z</Time>
            <Position>
              <LatitudeDegrees>36.7888829670846462249755859375</LatitudeDegrees>
              <LongitudeDegrees>-4.38998825848102569580078125</LongitudeDegrees>
            </Position>
            <AltitudeMeters>488.399993896484375</AltitudeMeters>
            <DistanceMeters>5151.4138338945</DistanceMeters>
          </Trackpoint>
          <Trackpoint>
            <Time>2022-06-16T06:14:02.000Z</Time>
            <Position>
              <LatitudeDegrees>36.78889964707195758819580078125</LatitudeDegrees>
              <LongitudeDegrees>-4.3899605982005596160888671875</LongitudeDegrees>
            </Position>
            <AltitudeMeters>488.600006103515625</AltitudeMeters>
            <DistanceMeters>5154.4989109716</DistanceMeters>
          </Trackpoint>
          <Trackpoint>
            <Time>2022-06-16T06:14:06.000Z</Time>
            <Position>
              <LatitudeDegrees>36.78892244584858417510986328125</LatitudeDegrees>
              <LongitudeDegrees>-4.38989304006099700927734375</LongitudeDegrees>
            </Position>
            <AltitudeMeters>489.79998779296875</AltitudeMeters>
            <DistanceMeters>5161.0336819319</DistanceMeters>
          </Trackpoint>
          <Trackpoint>
            <Time>2022-06-16T06:14:10.000Z</Time>
            <Position>
              <LatitudeDegrees>36.7889305762946605682373046875</LatitudeDegrees>
              <LongitudeDegrees>-4.3898157589137554168701171875</LongitudeDegrees>
            </Position>
            <AltitudeMeters>491.600006103515625</AltitudeMeters>
            <DistanceMeters>5167.980388239</DistanceMeters>
          </Trackpoint>
          <Trackpoint>
            <Time>2022-06-16T06:14:15.000Z</Time>
            <Position>
              <LatitudeDegrees>36.78895429708063602447509765625</LatitudeDegrees>
              <LongitudeDegrees>-4.3897260725498199462890625</LongitudeDegrees>
            </Position>
            <AltitudeMeters>493.399993896484375</AltitudeMeters>
            <DistanceMeters>5176.398703981</DistanceMeters>
          </Trackpoint>
          <Trackpoint>
            <Time>2022-06-16T06:14:17.000Z</Time>
            <Position>
              <LatitudeDegrees>36.78895429708063602447509765625</LatitudeDegrees>
              <LongitudeDegrees>-4.38969053328037261962890625</LongitudeDegrees>
            </Position>
            <AltitudeMeters>494.600006103515625</AltitudeMeters>
            <DistanceMeters>5179.5646769519</DistanceMeters>
          </Trackpoint>
          <Trackpoint>
            <Time>2022-06-16T06:14:18.000Z</Time>
            <Position>
              <LatitudeDegrees>36.78895647637546062469482421875</LatitudeDegrees>
              <LongitudeDegrees>-4.38967234455049037933349609375</LongitudeDegrees>
            </Position>
            <AltitudeMeters>495</AltitudeMeters>
            <DistanceMeters>5181.1995783641</DistanceMeters>
          </Trackpoint>
          <Trackpoint>
            <Time>2022-06-16T06:14:20.000Z</Time>
            <Position>
              <LatitudeDegrees>36.7889594100415706634521484375</LatitudeDegrees>
              <LongitudeDegrees>-4.3896370567381381988525390625</LongitudeDegrees>
            </Position>
            <AltitudeMeters>495.79998779296875</AltitudeMeters>
            <DistanceMeters>5184.3612700985</DistanceMeters>
          </Trackpoint>
          <Trackpoint>
            <Time>2022-06-16T06:14:22.000Z</Time>
            <Position>
              <LatitudeDegrees>36.7889614216983318328857421875</LatitudeDegrees>
              <LongitudeDegrees>-4.3896035291254520416259765625</LongitudeDegrees>
            </Position>
            <AltitudeMeters>496.399993896484375</AltitudeMeters>
            <DistanceMeters>5187.3587567226</DistanceMeters>
          </Trackpoint>
          <Trackpoint>
            <Time>2022-06-16T06:14:24.000Z</Time>
            <Position>
              <LatitudeDegrees>36.7889602482318878173828125</LatitudeDegrees>
              <LongitudeDegrees>-4.3895705044269561767578125</LongitudeDegrees>
            </Position>
            <AltitudeMeters>497.399993896484375</AltitudeMeters>
            <DistanceMeters>5190.3045848681</DistanceMeters>
          </Trackpoint>
          <Trackpoint>
            <Time>2022-06-16T06:14:30.000Z</Time>
            <Position>
              <LatitudeDegrees>36.78896896541118621826171875</LatitudeDegrees>
              <LongitudeDegrees>-4.38947168178856372833251953125</LongitudeDegrees>
            </Position>
            <AltitudeMeters>499.600006103515625</AltitudeMeters>
            <DistanceMeters>5199.1670678672</DistanceMeters>
          </Trackpoint>
          <Trackpoint>
            <Time>2022-06-16T06:14:31.000Z</Time>
            <Position>
              <LatitudeDegrees>36.788972318172454833984375</LatitudeDegrees>
              <LongitudeDegrees>-4.38945625908672809600830078125</LongitudeDegrees>
            </Position>
            <AltitudeMeters>499.79998779296875</AltitudeMeters>
            <DistanceMeters>5200.5892974982</DistanceMeters>
          </Trackpoint>
          <Trackpoint>
            <Time>2022-06-16T06:14:32.000Z</Time>
            <Position>
              <LatitudeDegrees>36.788972318172454833984375</LatitudeDegrees>
              <LongitudeDegrees>-4.389439411461353302001953125</LongitudeDegrees>
            </Position>
            <AltitudeMeters>500.20001220703125</AltitudeMeters>
            <DistanceMeters>5202.0887937585</DistanceMeters>
          </Trackpoint>
          <Trackpoint>
            <Time>2022-06-16T06:14:34.000Z</Time>
            <Position>
              <LatitudeDegrees>36.7889721505343914031982421875</LatitudeDegrees>
              <LongitudeDegrees>-4.38940261490643024444580078125</LongitudeDegrees>
            </Position>
            <AltitudeMeters>501.20001220703125</AltitudeMeters>
            <DistanceMeters>5205.3696246169</DistanceMeters>
          </Trackpoint>
          <Trackpoint>
            <Time>2022-06-16T06:14:36.000Z</Time>
            <Position>
              <LatitudeDegrees>36.78896938450634479522705078125</LatitudeDegrees>
              <LongitudeDegrees>-4.38936472870409488677978515625</LongitudeDegrees>
            </Position>
            <AltitudeMeters>501.79998779296875</AltitudeMeters>
            <DistanceMeters>5208.7614261131</DistanceMeters>
          </Trackpoint>
          <Trackpoint>
            <Time>2022-06-16T06:14:37.000Z</Time>
            <Position>
              <LatitudeDegrees>36.7889698036015033721923828125</LatitudeDegrees>
              <LongitudeDegrees>-4.38934846781194210052490234375</LongitudeDegrees>
            </Position>
            <AltitudeMeters>502.20001220703125</AltitudeMeters>
            <DistanceMeters>5210.2088299043</DistanceMeters>
          </Trackpoint>
          <Trackpoint>
            <Time>2022-06-16T06:14:38.000Z</Time>
            <Position>
              <LatitudeDegrees>36.788974665105342864990234375</LatitudeDegrees>
              <LongitudeDegrees>-4.38933270983397960662841796875</LongitudeDegrees>
            </Position>
            <AltitudeMeters>502.20001220703125</AltitudeMeters>
            <DistanceMeters>5211.7143361937</DistanceMeters>
          </Trackpoint>
          <Trackpoint>
            <Time>2022-06-16T06:14:40.000Z</Time>
            <Position>
              <LatitudeDegrees>36.78898665122687816619873046875</LatitudeDegrees>
              <LongitudeDegrees>-4.38930404372513294219970703125</LongitudeDegrees>
            </Position>
            <AltitudeMeters>502.399993896484375</AltitudeMeters>
            <DistanceMeters>5214.5966391494</DistanceMeters>
          </Trackpoint>
          <Trackpoint>
            <Time>2022-06-16T06:14:44.000Z</Time>
            <Position>
              <LatitudeDegrees>36.788988076150417327880859375</LatitudeDegrees>
              <LongitudeDegrees>-4.38923656940460205078125</LongitudeDegrees>
            </Position>
            <AltitudeMeters>503.600006103515625</AltitudeMeters>
            <DistanceMeters>5220.6141641008</DistanceMeters>
          </Trackpoint>
          <Trackpoint>
            <Time>2022-06-16T06:14:45.000Z</Time>
            <Position>
              <LatitudeDegrees>36.78899050690233707427978515625</LatitudeDegrees>
              <LongitudeDegrees>-4.38922123052179813385009765625</LongitudeDegrees>
            </Position>
            <AltitudeMeters>503.79998779296875</AltitudeMeters>
            <DistanceMeters>5222.0075292487</DistanceMeters>
          </Trackpoint>
          <Trackpoint>
            <Time>2022-06-16T06:14:46.000Z</Time>
            <Position>
              <LatitudeDegrees>36.78899268619716167449951171875</LatitudeDegrees>
              <LongitudeDegrees>-4.389201700687408447265625</LongitudeDegrees>
            </Position>
            <AltitudeMeters>504.20001220703125</AltitudeMeters>
            <DistanceMeters>5223.7648812749</DistanceMeters>
          </Trackpoint>
          <Trackpoint>
            <Time>2022-06-16T06:14:50.000Z</Time>
            <Position>
              <LatitudeDegrees>36.788992770016193389892578125</LatitudeDegrees>
              <LongitudeDegrees>-4.3891291134059429168701171875</LongitudeDegrees>
            </Position>
            <AltitudeMeters>505.600006103515625</AltitudeMeters>
            <DistanceMeters>5230.2350771293</DistanceMeters>
          </Trackpoint>
          <Trackpoint>
            <Time>2022-06-16T06:15:00.000Z</Time>
            <Position>
              <LatitudeDegrees>36.7890288121998310089111328125</LatitudeDegrees>
              <LongitudeDegrees>-4.38896977342665195465087890625</LongitudeDegrees>
            </Position>
            <AltitudeMeters>507</AltitudeMeters>
            <DistanceMeters>5244.9936161459</DistanceMeters>
          </Trackpoint>
          <Trackpoint>
            <Time>2022-06-16T06:15:04.000Z</Time>
            <Position>
              <LatitudeDegrees>36.78906845860183238983154296875</LatitudeDegrees>
              <LongitudeDegrees>-4.38895720057189464569091796875</LongitudeDegrees>
            </Position>
            <AltitudeMeters>507</AltitudeMeters>
            <DistanceMeters>5249.5469726568</DistanceMeters>
          </Trackpoint>
          <Trackpoint>
            <Time>2022-06-16T06:15:09.000Z</Time>
            <Position>
              <LatitudeDegrees>36.78913668729364871978759765625</LatitudeDegrees>
              <LongitudeDegrees>-4.389009587466716766357421875</LongitudeDegrees>
            </Position>
            <AltitudeMeters>505.20001220703125</AltitudeMeters>
            <DistanceMeters>5258.4622815611</DistanceMeters>
          </Trackpoint>
          <Trackpoint>
            <Time>2022-06-16T06:15:10.000Z</Time>
            <Position>
              <LatitudeDegrees>36.78914557211101055145263671875</LatitudeDegrees>
              <LongitudeDegrees>-4.389024674892425537109375</LongitudeDegrees>
            </Position>
            <AltitudeMeters>504.600006103515625</AltitudeMeters>
            <DistanceMeters>5260.12999363</DistanceMeters>
          </Trackpoint>
          <Trackpoint>
            <Time>2022-06-16T06:15:18.000Z</Time>
            <Position>
              <LatitudeDegrees>36.78920692764222621917724609375</LatitudeDegrees>
              <LongitudeDegrees>-4.389134310185909271240234375</LongitudeDegrees>
            </Position>
            <AltitudeMeters>499.20001220703125</AltitudeMeters>
            <DistanceMeters>5272.0523437886</DistanceMeters>
          </Trackpoint>
          <Trackpoint>
            <Time>2022-06-16T06:15:20.000Z</Time>
            <Position>
              <LatitudeDegrees>36.78922771476209163665771484375</LatitudeDegrees>
              <LongitudeDegrees>-4.38917714171111583709716796875</LongitudeDegrees>
            </Position>
            <AltitudeMeters>497.399993896484375</AltitudeMeters>
            <DistanceMeters>5276.5175883271</DistanceMeters>
          </Trackpoint>
          <Trackpoint>
            <Time>2022-06-16T06:15:30.000Z</Time>
            <Position>
              <LatitudeDegrees>36.78931606002151966094970703125</LatitudeDegrees>
              <LongitudeDegrees>-4.38933036290109157562255859375</LongitudeDegrees>
            </Position>
            <AltitudeMeters>492.20001220703125</AltitudeMeters>
            <DistanceMeters>5293.3467094446</DistanceMeters>
          </Trackpoint>
          <Trackpoint>
            <Time>2022-06-16T06:15:40.000Z</Time>
            <Position>
              <LatitudeDegrees>36.789387725293636322021484375</LatitudeDegrees>
              <LongitudeDegrees>-4.3894791416823863983154296875</LongitudeDegrees>
            </Position>
            <AltitudeMeters>488.600006103515625</AltitudeMeters>
            <DistanceMeters>5308.8223576522</DistanceMeters>
          </Trackpoint>
          <Trackpoint>
            <Time>2022-06-16T06:15:50.000Z</Time>
            <Position>
              <LatitudeDegrees>36.78945712745189666748046875</LatitudeDegrees>
              <LongitudeDegrees>-4.38963697291910648345947265625</LongitudeDegrees>
            </Position>
            <AltitudeMeters>486</AltitudeMeters>
            <DistanceMeters>5324.8717480009</DistanceMeters>
          </Trackpoint>
          <Trackpoint>
            <Time>2022-06-16T06:16:00.000Z</Time>
            <Position>
              <LatitudeDegrees>36.789462156593799591064453125</LatitudeDegrees>
              <LongitudeDegrees>-4.3897245638072490692138671875</LongitudeDegrees>
            </Position>
            <AltitudeMeters>484.600006103515625</AltitudeMeters>
            <DistanceMeters>5332.6992040801</DistanceMeters>
          </Trackpoint>
          <Trackpoint>
            <Time>2022-06-16T06:16:02.000Z</Time>
            <Position>
              <LatitudeDegrees>36.78947984240949153900146484375</LatitudeDegrees>
              <LongitudeDegrees>-4.38974526710808277130126953125</LongitudeDegrees>
            </Position>
            <AltitudeMeters>484.399993896484375</AltitudeMeters>
            <DistanceMeters>5335.3970257225</DistanceMeters>
          </Trackpoint>
          <Trackpoint>
            <Time>2022-06-16T06:16:10.000Z</Time>
            <Position>
              <LatitudeDegrees>36.789527870714664459228515625</LatitudeDegrees>
              <LongitudeDegrees>-4.3898274935781955718994140625</LongitudeDegrees>
            </Position>
            <AltitudeMeters>484.600006103515625</AltitudeMeters>
            <DistanceMeters>5344.468966899</DistanceMeters>
          </Trackpoint>
          <Trackpoint>
            <Time>2022-06-16T06:16:20.000Z</Time>
            <Position>
              <LatitudeDegrees>36.789574138820171356201171875</LatitudeDegrees>
              <LongitudeDegrees>-4.38996252603828907012939453125</LongitudeDegrees>
            </Position>
            <AltitudeMeters>485.79998779296875</AltitudeMeters>
            <DistanceMeters>5357.5605997576</DistanceMeters>
          </Trackpoint>
          <Trackpoint>
            <Time>2022-06-16T06:16:30.000Z</Time>
            <Position>
              <LatitudeDegrees>36.7896192334592342376708984375</LatitudeDegrees>
              <LongitudeDegrees>-4.39007953740656375885009765625</LongitudeDegrees>
            </Position>
            <AltitudeMeters>486.600006103515625</AltitudeMeters>
            <DistanceMeters>5369.135150035</DistanceMeters>
          </Trackpoint>
          <Trackpoint>
            <Time>2022-06-16T06:16:33.000Z</Time>
            <Position>
              <LatitudeDegrees>36.7896229214966297149658203125</LatitudeDegrees>
              <LongitudeDegrees>-4.39008724875748157501220703125</LongitudeDegrees>
            </Position>
            <AltitudeMeters>486.600006103515625</AltitudeMeters>
            <DistanceMeters>5369.9414784445</DistanceMeters>
          </Trackpoint>
          <Trackpoint>
            <Time>2022-06-16T06:16:40.000Z</Time>
            <Position>
              <LatitudeDegrees>36.78961277939379215240478515625</LatitudeDegrees>
              <LongitudeDegrees>-4.39010552130639553070068359375</LongitudeDegrees>
            </Position>
            <AltitudeMeters>486.20001220703125</AltitudeMeters>
            <DistanceMeters>5371.9234177102</DistanceMeters>
          </Trackpoint>
          <Trackpoint>
            <Time>2022-06-16T06:16:50.000Z</Time>
            <Position>
              <LatitudeDegrees>36.7896162159740924835205078125</LatitudeDegrees>
              <LongitudeDegrees>-4.39015782438218593597412109375</LongitudeDegrees>
            </Position>
            <AltitudeMeters>486</AltitudeMeters>
            <DistanceMeters>5376.601010598</DistanceMeters>
          </Trackpoint>
          <Trackpoint>
            <Time>2022-06-16T06:17:00.000Z</Time>
            <Position>
              <LatitudeDegrees>36.78962484933435916900634765625</LatitudeDegrees>
              <LongitudeDegrees>-4.39020107500255107879638671875</LongitudeDegrees>
            </Position>
            <AltitudeMeters>486.399993896484375</AltitudeMeters>
            <DistanceMeters>5380.5751273175</DistanceMeters>
          </Trackpoint>
          <Trackpoint>
            <Time>2022-06-16T06:17:10.000Z</Time>
            <Position>
              <LatitudeDegrees>36.78960808552801609039306640625</LatitudeDegrees>
              <LongitudeDegrees>-4.39021599479019641876220703125</LongitudeDegrees>
            </Position>
            <AltitudeMeters>485.600006103515625</AltitudeMeters>
            <DistanceMeters>5382.8676160286</DistanceMeters>
          </Trackpoint>
          <Trackpoint>
            <Time>2022-06-16T06:17:20.000Z</Time>
            <Position>
              <LatitudeDegrees>36.78955636918544769287109375</LatitudeDegrees>
              <LongitudeDegrees>-4.39021113328635692596435546875</LongitudeDegrees>
            </Position>
            <AltitudeMeters>483.399993896484375</AltitudeMeters>
            <DistanceMeters>5388.6400489713</DistanceMeters>
          </Trackpoint>
          <Trackpoint>
            <Time>2022-06-16T06:17:30.000Z</Time>
            <Position>
              <LatitudeDegrees>36.78961646743118762969970703125</LatitudeDegrees>
              <LongitudeDegrees>-4.390258155763149261474609375</LongitudeDegrees>
            </Position>
            <AltitudeMeters>485.79998779296875</AltitudeMeters>
            <DistanceMeters>5396.5335607033</DistanceMeters>
          </Trackpoint>
          <Trackpoint>
            <Time>2022-06-16T06:17:40.000Z</Time>
            <Position>
              <LatitudeDegrees>36.789572127163410186767578125</LatitudeDegrees>
              <LongitudeDegrees>-4.390183053910732269287109375</LongitudeDegrees>
            </Position>
            <AltitudeMeters>484.20001220703125</AltitudeMeters>
            <DistanceMeters>5404.8504342482</DistanceMeters>
          </Trackpoint>
          <Trackpoint>
            <Time>2022-06-16T06:17:48.000Z</Time>
            <Position>
              <LatitudeDegrees>36.78959115408360958099365234375</LatitudeDegrees>
              <LongitudeDegrees>-4.390179030597209930419921875</LongitudeDegrees>
            </Position>
            <AltitudeMeters>484.79998779296875</AltitudeMeters>
            <DistanceMeters>5406.9964396038</DistanceMeters>
          </Trackpoint>
          <Trackpoint>
            <Time>2022-06-16T06:17:50.000Z</Time>
            <Position>
              <LatitudeDegrees>36.78960842080414295196533203125</LatitudeDegrees>
              <LongitudeDegrees>-4.39018095843493938446044921875</LongitudeDegrees>
            </Position>
            <AltitudeMeters>485.600006103515625</AltitudeMeters>
            <DistanceMeters>5408.9252712436</DistanceMeters>
          </Trackpoint>
          <Trackpoint>
            <Time>2022-06-16T06:18:00.000Z</Time>
            <Position>
              <LatitudeDegrees>36.78966575302183628082275390625</LatitudeDegrees>
              <LongitudeDegrees>-4.39019554294645786285400390625</LongitudeDegrees>
            </Position>
            <AltitudeMeters>488</AltitudeMeters>
            <DistanceMeters>5415.4378950664</DistanceMeters>
          </Trackpoint>
          <Trackpoint>
            <Time>2022-06-16T06:18:10.000Z</Time>
            <Position>
              <LatitudeDegrees>36.78961680270731449127197265625</LatitudeDegrees>
              <LongitudeDegrees>-4.3902395479381084442138671875</LongitudeDegrees>
            </Position>
            <AltitudeMeters>486</AltitudeMeters>
            <DistanceMeters>5422.1519208043</DistanceMeters>
          </Trackpoint>
          <Trackpoint>
            <Time>2022-06-16T06:18:20.000Z</Time>
            <Position>
              <LatitudeDegrees>36.7896410264074802398681640625</LatitudeDegrees>
              <LongitudeDegrees>-4.39034742303192615509033203125</LongitudeDegrees>
            </Position>
            <AltitudeMeters>485.600006103515625</AltitudeMeters>
            <DistanceMeters>5432.1383197672</DistanceMeters>
          </Trackpoint>
          <Trackpoint>
            <Time>2022-06-16T06:18:21.000Z</Time>
            <Position>
              <LatitudeDegrees>36.78964965976774692535400390625</LatitudeDegrees>
              <LongitudeDegrees>-4.39035748131573200225830078125</LongitudeDegrees>
            </Position>
            <AltitudeMeters>485.79998779296875</AltitudeMeters>
            <DistanceMeters>5433.4516150885</DistanceMeters>
          </Trackpoint>
          <Trackpoint>
            <Time>2022-06-16T06:18:23.000Z</Time>
            <Position>
              <LatitudeDegrees>36.78965100087225437164306640625</LatitudeDegrees>
              <LongitudeDegrees>-4.39038463868200778961181640625</LongitudeDegrees>
            </Position>
            <AltitudeMeters>485.399993896484375</AltitudeMeters>
            <DistanceMeters>5435.8780548346</DistanceMeters>
          </Trackpoint>
          <Trackpoint>
            <Time>2022-06-16T06:18:30.000Z</Time>
            <Position>
              <LatitudeDegrees>36.78962015546858310699462890625</LatitudeDegrees>
              <LongitudeDegrees>-4.39041364006698131561279296875</LongitudeDegrees>
            </Position>
            <AltitudeMeters>483.79998779296875</AltitudeMeters>
            <DistanceMeters>5440.1763726921</DistanceMeters>
          </Trackpoint>
          <Trackpoint>
            <Time>2022-06-16T06:18:31.000Z</Time>
            <Position>
              <LatitudeDegrees>36.7896088398993015289306640625</LatitudeDegrees>
              <LongitudeDegrees>-4.39040534198284149169921875</LongitudeDegrees>
            </Position>
            <AltitudeMeters>483.399993896484375</AltitudeMeters>
            <DistanceMeters>5441.6362007781</DistanceMeters>
          </Trackpoint>
          <Trackpoint>
            <Time>2022-06-16T06:18:32.000Z</Time>
            <Position>
              <LatitudeDegrees>36.78960138000547885894775390625</LatitudeDegrees>
              <LongitudeDegrees>-4.3904122151434421539306640625</LongitudeDegrees>
            </Position>
            <AltitudeMeters>483</AltitudeMeters>
            <DistanceMeters>5442.6728198484</DistanceMeters>
          </Trackpoint>
          <Trackpoint>
            <Time>2022-06-16T06:18:33.000Z</Time>
            <Position>
              <LatitudeDegrees>36.78959132172167301177978515625</LatitudeDegrees>
              <LongitudeDegrees>-4.3904169090092182159423828125</LongitudeDegrees>
            </Position>
            <AltitudeMeters>482.399993896484375</AltitudeMeters>
            <DistanceMeters>5443.8635011667</DistanceMeters>
          </Trackpoint>
          <Trackpoint>
            <Time>2022-06-16T06:18:34.000Z</Time>
            <Position>
              <LatitudeDegrees>36.78958461619913578033447265625</LatitudeDegrees>
              <LongitudeDegrees>-4.39042688347399234771728515625</LongitudeDegrees>
            </Position>
            <AltitudeMeters>482</AltitudeMeters>
            <DistanceMeters>5445.0195510418</DistanceMeters>
          </Trackpoint>
          <Trackpoint>
            <Time>2022-06-16T06:18:39.000Z</Time>
            <Position>
              <LatitudeDegrees>36.78956575691699981689453125</LatitudeDegrees>
              <LongitudeDegrees>-4.390503577888011932373046875</LongitudeDegrees>
            </Position>
            <AltitudeMeters>480</AltitudeMeters>
            <DistanceMeters>5452.1705875332</DistanceMeters>
          </Trackpoint>
          <Trackpoint>
            <Time>2022-06-16T06:18:40.000Z</Time>
            <Position>
              <LatitudeDegrees>36.78956399671733379364013671875</LatitudeDegrees>
              <LongitudeDegrees>-4.39051740802824497222900390625</LongitudeDegrees>
            </Position>
            <AltitudeMeters>479.79998779296875</AltitudeMeters>
            <DistanceMeters>5453.4168512085</DistanceMeters>
          </Trackpoint>
          <Trackpoint>
            <Time>2022-06-16T06:18:45.000Z</Time>
            <Position>
              <LatitudeDegrees>36.7895575426518917083740234375</LatitudeDegrees>
              <LongitudeDegrees>-4.3905942700803279876708984375</LongitudeDegrees>
            </Position>
            <AltitudeMeters>478</AltitudeMeters>
            <DistanceMeters>5460.3054687558</DistanceMeters>
          </Trackpoint>
          <Trackpoint>
            <Time>2022-06-16T06:18:48.000Z</Time>
            <Position>
              <LatitudeDegrees>36.78955997340381145477294921875</LatitudeDegrees>
              <LongitudeDegrees>-4.3906318210065364837646484375</LongitudeDegrees>
            </Position>
            <AltitudeMeters>477.20001220703125</AltitudeMeters>
            <DistanceMeters>5463.6624816247</DistanceMeters>
          </Trackpoint>
          <Trackpoint>
            <Time>2022-06-16T06:18:50.000Z</Time>
            <Position>
              <LatitudeDegrees>36.7895642481744289398193359375</LatitudeDegrees>
              <LongitudeDegrees>-4.39066677354276180267333984375</LongitudeDegrees>
            </Position>
            <AltitudeMeters>476.600006103515625</AltitudeMeters>
            <DistanceMeters>5466.814161191</DistanceMeters>
          </Trackpoint>
          <Trackpoint>
            <Time>2022-06-16T06:18:54.000Z</Time>
            <Position>
              <LatitudeDegrees>36.7895726300776004791259765625</LatitudeDegrees>
              <LongitudeDegrees>-4.39073701389133930206298828125</LongitudeDegrees>
            </Position>
            <AltitudeMeters>475.399993896484375</AltitudeMeters>
            <DistanceMeters>5473.1446808583</DistanceMeters>
          </Trackpoint>
          <Trackpoint>
            <Time>2022-06-16T06:18:59.000Z</Time>
            <Position>
              <LatitudeDegrees>36.789561398327350616455078125</LatitudeDegrees>
              <LongitudeDegrees>-4.390842206776142120361328125</LongitudeDegrees>
            </Position>
            <AltitudeMeters>472.600006103515625</AltitudeMeters>
            <DistanceMeters>5482.6044936239</DistanceMeters>
          </Trackpoint>
          <Trackpoint>
            <Time>2022-06-16T06:19:00.000Z</Time>
            <Position>
              <LatitudeDegrees>36.789561398327350616455078125</LatitudeDegrees>
              <LongitudeDegrees>-4.390842206776142120361328125</LongitudeDegrees>
            </Position>
            <AltitudeMeters>472.600006103515625</AltitudeMeters>
            <DistanceMeters>5482.6995203382</DistanceMeters>
          </Trackpoint>
          <Trackpoint>
            <Time>2022-06-16T06:19:01.000Z</Time>
            <Position>
              <LatitudeDegrees>36.7895610630512237548828125</LatitudeDegrees>
              <LongitudeDegrees>-4.3908618204295635223388671875</LongitudeDegrees>
            </Position>
            <AltitudeMeters>472</AltitudeMeters>
            <DistanceMeters>5484.4491477027</DistanceMeters>
          </Trackpoint>
          <Trackpoint>
            <Time>2022-06-16T06:19:04.000Z</Time>
            <Position>
              <LatitudeDegrees>36.7895592190325260162353515625</LatitudeDegrees>
              <LongitudeDegrees>-4.39091496169567108154296875</LongitudeDegrees>
            </Position>
            <AltitudeMeters>470.399993896484375</AltitudeMeters>
            <DistanceMeters>5489.190018959</DistanceMeters>
          </Trackpoint>
          <Trackpoint>
            <Time>2022-06-16T06:19:06.000Z</Time>
            <Position>
              <LatitudeDegrees>36.78955511189997196197509765625</LatitudeDegrees>
              <LongitudeDegrees>-4.39094823785126209259033203125</LongitudeDegrees>
            </Position>
            <AltitudeMeters>469.20001220703125</AltitudeMeters>
            <DistanceMeters>5492.1890114795</DistanceMeters>
          </Trackpoint>
          <Trackpoint>
            <Time>2022-06-16T06:19:08.000Z</Time>
            <Position>
              <LatitudeDegrees>36.78954388014972209930419921875</LatitudeDegrees>
              <LongitudeDegrees>-4.39097740687429904937744140625</LongitudeDegrees>
            </Position>
            <AltitudeMeters>467.79998779296875</AltitudeMeters>
            <DistanceMeters>5495.0744456724</DistanceMeters>
          </Trackpoint>
          <Trackpoint>
            <Time>2022-06-16T06:19:10.000Z</Time>
            <Position>
              <LatitudeDegrees>36.78953331895172595977783203125</LatitudeDegrees>
              <LongitudeDegrees>-4.39100389368832111358642578125</LongitudeDegrees>
            </Position>
            <AltitudeMeters>466.600006103515625</AltitudeMeters>
            <DistanceMeters>5497.7113299819</DistanceMeters>
          </Trackpoint>
          <Trackpoint>
            <Time>2022-06-16T06:19:16.000Z</Time>
            <Position>
              <LatitudeDegrees>36.78952845744788646697998046875</LatitudeDegrees>
              <LongitudeDegrees>-4.3910720385611057281494140625</LongitudeDegrees>
            </Position>
            <AltitudeMeters>464.399993896484375</AltitudeMeters>
            <DistanceMeters>5503.8093505457</DistanceMeters>
          </Trackpoint>
          <Trackpoint>
            <Time>2022-06-16T06:19:19.000Z</Time>
            <Position>
              <LatitudeDegrees>36.78955930285155773162841796875</LatitudeDegrees>
              <LongitudeDegrees>-4.3911008723080158233642578125</LongitudeDegrees>
            </Position>
            <AltitudeMeters>465.399993896484375</AltitudeMeters>
            <DistanceMeters>5508.0992568142</DistanceMeters>
          </Trackpoint>
          <Trackpoint>
            <Time>2022-06-16T06:19:20.000Z</Time>
            <Position>
              <LatitudeDegrees>36.789572127163410186767578125</LatitudeDegrees>
              <LongitudeDegrees>-4.3911065720021724700927734375</LongitudeDegrees>
            </Position>
            <AltitudeMeters>466</AltitudeMeters>
            <DistanceMeters>5509.6196842442</DistanceMeters>
          </Trackpoint>
          <Trackpoint>
            <Time>2022-06-16T06:19:29.000Z</Time>
            <Position>
              <LatitudeDegrees>36.78967581130564212799072265625</LatitudeDegrees>
              <LongitudeDegrees>-4.391190223395824432373046875</LongitudeDegrees>
            </Position>
            <AltitudeMeters>469.399993896484375</AltitudeMeters>
            <DistanceMeters>5523.359508775</DistanceMeters>
          </Trackpoint>
          <Trackpoint>
            <Time>2022-06-16T06:19:30.000Z</Time>
            <Position>
              <LatitudeDegrees>36.78968251682817935943603515625</LatitudeDegrees>
              <LongitudeDegrees>-4.391202963888645172119140625</LongitudeDegrees>
            </Position>
            <AltitudeMeters>469.399993896484375</AltitudeMeters>
            <DistanceMeters>5524.7200842675</DistanceMeters>
          </Trackpoint>
          <Trackpoint>
            <Time>2022-06-16T06:19:32.000Z</Time>
            <Position>
              <LatitudeDegrees>36.78969039581716060638427734375</LatitudeDegrees>
              <LongitudeDegrees>-4.3912108428776264190673828125</LongitudeDegrees>
            </Position>
            <AltitudeMeters>469.399993896484375</AltitudeMeters>
            <DistanceMeters>5525.8524582583</DistanceMeters>
          </Trackpoint>
          <Trackpoint>
            <Time>2022-06-16T06:19:40.000Z</Time>
            <Position>
              <LatitudeDegrees>36.78977320902049541473388671875</LatitudeDegrees>
              <LongitudeDegrees>-4.39128938131034374237060546875</LongitudeDegrees>
            </Position>
            <AltitudeMeters>470.20001220703125</AltitudeMeters>
            <DistanceMeters>5537.4270085357</DistanceMeters>
          </Trackpoint>
          <Trackpoint>
            <Time>2022-06-16T06:19:50.000Z</Time>
            <Position>
              <LatitudeDegrees>36.789884604513645172119140625</LatitudeDegrees>
              <LongitudeDegrees>-4.39138233661651611328125</LongitudeDegrees>
            </Position>
            <AltitudeMeters>471.79998779296875</AltitudeMeters>
            <DistanceMeters>5552.3392405118</DistanceMeters>
          </Trackpoint>
          <Trackpoint>
            <Time>2022-06-16T06:19:52.000Z</Time>
            <Position>
              <LatitudeDegrees>36.7898975126445293426513671875</LatitudeDegrees>
              <LongitudeDegrees>-4.39138744957745075225830078125</LongitudeDegrees>
            </Position>
            <AltitudeMeters>472.20001220703125</AltitudeMeters>
            <DistanceMeters>5553.8447468012</DistanceMeters>
          </Trackpoint>
          <Trackpoint>
            <Time>2022-06-16T06:20:00.000Z</Time>
            <Position>
              <LatitudeDegrees>36.79000354371964931488037109375</LatitudeDegrees>
              <LongitudeDegrees>-4.39145903103053569793701171875</LongitudeDegrees>
            </Position>
            <AltitudeMeters>474.600006103515625</AltitudeMeters>
            <DistanceMeters>5567.2603516554</DistanceMeters>
          </Trackpoint>
          <Trackpoint>
            <Time>2022-06-16T06:20:10.000Z</Time>
            <Position>
              <LatitudeDegrees>36.79011971689760684967041015625</LatitudeDegrees>
              <LongitudeDegrees>-4.39155994914472103118896484375</LongitudeDegrees>
            </Position>
            <AltitudeMeters>475.79998779296875</AltitudeMeters>
            <DistanceMeters>5583.0118715939</DistanceMeters>
          </Trackpoint>
          <Trackpoint>
            <Time>2022-06-16T06:20:20.000Z</Time>
            <Position>
              <LatitudeDegrees>36.79026489146053791046142578125</LatitudeDegrees>
              <LongitudeDegrees>-4.39168207347393035888671875</LongitudeDegrees>
            </Position>
            <AltitudeMeters>475</AltitudeMeters>
            <DistanceMeters>5602.4946656267</DistanceMeters>
          </Trackpoint>
          <Trackpoint>
            <Time>2022-06-16T06:20:30.000Z</Time>
            <Position>
              <LatitudeDegrees>36.79039816372096538543701171875</LatitudeDegrees>
              <LongitudeDegrees>-4.3917617015540599822998046875</LongitudeDegrees>
            </Position>
            <AltitudeMeters>476.399993896484375</AltitudeMeters>
            <DistanceMeters>5618.9389554925</DistanceMeters>
          </Trackpoint>
          <Trackpoint>
            <Time>2022-06-16T06:20:40.000Z</Time>
            <Position>
              <LatitudeDegrees>36.790525652468204498291015625</LatitudeDegrees>
              <LongitudeDegrees>-4.39186773262917995452880859375</LongitudeDegrees>
            </Position>
            <AltitudeMeters>477</AltitudeMeters>
            <DistanceMeters>5635.9877120623</DistanceMeters>
          </Trackpoint>
          <Trackpoint>
            <Time>2022-06-16T06:20:50.000Z</Time>
            <Position>
              <LatitudeDegrees>36.7906394787132740020751953125</LatitudeDegrees>
              <LongitudeDegrees>-4.39193596132099628448486328125</LongitudeDegrees>
            </Position>
            <AltitudeMeters>478.399993896484375</AltitudeMeters>
            <DistanceMeters>5650.0407463194</DistanceMeters>
          </Trackpoint>
          <Trackpoint>
            <Time>2022-06-16T06:21:00.000Z</Time>
            <Position>
              <LatitudeDegrees>36.79073209874331951141357421875</LatitudeDegrees>
              <LongitudeDegrees>-4.39176429994404315948486328125</LongitudeDegrees>
            </Position>
            <AltitudeMeters>483.20001220703125</AltitudeMeters>
            <DistanceMeters>5668.4906179079</DistanceMeters>
          </Trackpoint>
          <Trackpoint>
            <Time>2022-06-16T06:21:10.000Z</Time>
            <Position>
              <LatitudeDegrees>36.79080535657703876495361328125</LatitudeDegrees>
              <LongitudeDegrees>-4.39163119532167911529541015625</LongitudeDegrees>
            </Position>
            <AltitudeMeters>486.79998779296875</AltitudeMeters>
            <DistanceMeters>5682.8864594737</DistanceMeters>
          </Trackpoint>
          <Trackpoint>
            <Time>2022-06-16T06:21:16.000Z</Time>
            <Position>
              <LatitudeDegrees>36.79084106348454952239990234375</LatitudeDegrees>
              <LongitudeDegrees>-4.3915501423180103302001953125</LongitudeDegrees>
            </Position>
            <AltitudeMeters>488.600006103515625</AltitudeMeters>
            <DistanceMeters>5691.1319094642</DistanceMeters>
          </Trackpoint>
          <Trackpoint>
            <Time>2022-06-16T06:21:20.000Z</Time>
            <Position>
              <LatitudeDegrees>36.7908860743045806884765625</LatitudeDegrees>
              <LongitudeDegrees>-4.3915072269737720489501953125</LongitudeDegrees>
            </Position>
            <AltitudeMeters>489.600006103515625</AltitudeMeters>
            <DistanceMeters>5697.4352685968</DistanceMeters>
          </Trackpoint>
          <Trackpoint>
            <Time>2022-06-16T06:21:30.000Z</Time>
            <Position>
              <LatitudeDegrees>36.79096989333629608154296875</LatitudeDegrees>
              <LongitudeDegrees>-4.3913835100829601287841796875</LongitudeDegrees>
            </Position>
            <AltitudeMeters>490.399993896484375</AltitudeMeters>
            <DistanceMeters>5711.879329181</DistanceMeters>
          </Trackpoint>
          <Trackpoint>
            <Time>2022-06-16T06:21:38.000Z</Time>
            <Position>
              <LatitudeDegrees>36.7910233698785305023193359375</LatitudeDegrees>
              <LongitudeDegrees>-4.39126624725759029388427734375</LongitudeDegrees>
            </Position>
            <AltitudeMeters>491.79998779296875</AltitudeMeters>
            <DistanceMeters>5723.9068735951</DistanceMeters>
          </Trackpoint>
          <Trackpoint>
            <Time>2022-06-16T06:21:40.000Z</Time>
            <Position>
              <LatitudeDegrees>36.791042983531951904296875</LatitudeDegrees>
              <LongitudeDegrees>-4.39124193973839282989501953125</LongitudeDegrees>
            </Position>
            <AltitudeMeters>491.79998779296875</AltitudeMeters>
            <DistanceMeters>5726.9831570854</DistanceMeters>
          </Trackpoint>
          <Trackpoint>
            <Time>2022-06-16T06:21:41.000Z</Time>
            <Position>
              <LatitudeDegrees>36.79105195216834545135498046875</LatitudeDegrees>
              <LongitudeDegrees>-4.39123054035007953643798828125</LongitudeDegrees>
            </Position>
            <AltitudeMeters>491.79998779296875</AltitudeMeters>
            <DistanceMeters>5728.4053867165</DistanceMeters>
          </Trackpoint>
          <Trackpoint>
            <Time>2022-06-16T06:21:43.000Z</Time>
            <Position>
              <LatitudeDegrees>36.79106988944113254547119140625</LatitudeDegrees>
              <LongitudeDegrees>-4.391207657754421234130859375</LongitudeDegrees>
            </Position>
            <AltitudeMeters>491.79998779296875</AltitudeMeters>
            <DistanceMeters>5731.2593539469</DistanceMeters>
          </Trackpoint>
          <Trackpoint>
            <Time>2022-06-16T06:21:50.000Z</Time>
            <Position>
              <LatitudeDegrees>36.7911283113062381744384765625</LatitudeDegrees>
              <LongitudeDegrees>-4.391131885349750518798828125</LongitudeDegrees>
            </Position>
            <AltitudeMeters>491.79998779296875</AltitudeMeters>
            <DistanceMeters>5740.6347880225</DistanceMeters>
          </Trackpoint>
          <Trackpoint>
            <Time>2022-06-16T06:22:00.000Z</Time>
            <Position>
              <LatitudeDegrees>36.79121489636600017547607421875</LatitudeDegrees>
              <LongitudeDegrees>-4.3910328112542629241943359375</LongitudeDegrees>
            </Position>
            <AltitudeMeters>492.20001220703125</AltitudeMeters>
            <DistanceMeters>5753.7057117205</DistanceMeters>
          </Trackpoint>
          <Trackpoint>
            <Time>2022-06-16T06:22:06.000Z</Time>
            <Position>
              <LatitudeDegrees>36.7912884056568145751953125</LatitudeDegrees>
              <LongitudeDegrees>-4.39100573770701885223388671875</LongitudeDegrees>
            </Position>
            <AltitudeMeters>492.399993896484375</AltitudeMeters>
            <DistanceMeters>5762.2359142964</DistanceMeters>
          </Trackpoint>
          <Trackpoint>
            <Time>2022-06-16T06:22:10.000Z</Time>
            <Position>
              <LatitudeDegrees>36.79134682752192020416259765625</LatitudeDegrees>
              <LongitudeDegrees>-4.391033649444580078125</LongitudeDegrees>
            </Position>
            <AltitudeMeters>491.20001220703125</AltitudeMeters>
            <DistanceMeters>5769.1982020204</DistanceMeters>
          </Trackpoint>
          <Trackpoint>
            <Time>2022-06-16T06:22:17.000Z</Time>
            <Position>
              <LatitudeDegrees>36.7914072610437870025634765625</LatitudeDegrees>
              <LongitudeDegrees>-4.39115292392671108245849609375</LongitudeDegrees>
            </Position>
            <AltitudeMeters>487.399993896484375</AltitudeMeters>
            <DistanceMeters>5781.7787485043</DistanceMeters>
          </Trackpoint>
          <Trackpoint>
            <Time>2022-06-16T06:22:19.000Z</Time>
            <Position>
              <LatitudeDegrees>36.79141514003276824951171875</LatitudeDegrees>
              <LongitudeDegrees>-4.39118611626327037811279296875</LongitudeDegrees>
            </Position>
            <AltitudeMeters>486.600006103515625</AltitudeMeters>
            <DistanceMeters>5784.8638255814</DistanceMeters>
          </Trackpoint>
          <Trackpoint>
            <Time>2022-06-16T06:22:20.000Z</Time>
            <Position>
              <LatitudeDegrees>36.79141514003276824951171875</LatitudeDegrees>
              <LongitudeDegrees>-4.39118611626327037811279296875</LongitudeDegrees>
            </Position>
            <AltitudeMeters>486.600006103515625</AltitudeMeters>
            <DistanceMeters>5784.8638255814</DistanceMeters>
          </Trackpoint>
          <Trackpoint>
            <Time>2022-06-16T06:22:22.000Z</Time>
            <Position>
              <LatitudeDegrees>36.79142327047884464263916015625</LatitudeDegrees>
              <LongitudeDegrees>-4.3912162072956562042236328125</LongitudeDegrees>
            </Position>
            <AltitudeMeters>485.79998779296875</AltitudeMeters>
            <DistanceMeters>5787.6955578926</DistanceMeters>
          </Trackpoint>
          <Trackpoint>
            <Time>2022-06-16T06:22:23.000Z</Time>
            <Position>
              <LatitudeDegrees>36.79143617860972881317138671875</LatitudeDegrees>
              <LongitudeDegrees>-4.39125065691769123077392578125</LongitudeDegrees>
            </Position>
            <AltitudeMeters>484.79998779296875</AltitudeMeters>
            <DistanceMeters>5791.0846960185</DistanceMeters>
          </Trackpoint>
          <Trackpoint>
            <Time>2022-06-16T06:22:30.000Z</Time>
            <Position>
              <LatitudeDegrees>36.7914702929556369781494140625</LatitudeDegrees>
              <LongitudeDegrees>-4.39133606851100921630859375</LongitudeDegrees>
            </Position>
            <AltitudeMeters>482.600006103515625</AltitudeMeters>
            <DistanceMeters>5799.5921082396</DistanceMeters>
          </Trackpoint>
          <Trackpoint>
            <Time>2022-06-16T06:22:40.000Z</Time>
            <Position>
              <LatitudeDegrees>36.791508682072162628173828125</LatitudeDegrees>
              <LongitudeDegrees>-4.39143153838813304901123046875</LongitudeDegrees>
            </Position>
            <AltitudeMeters>480.79998779296875</AltitudeMeters>
            <DistanceMeters>5809.1147143771</DistanceMeters>
          </Trackpoint>
          <Trackpoint>
            <Time>2022-06-16T06:22:46.000Z</Time>
            <Position>
              <LatitudeDegrees>36.79155034013092517852783203125</LatitudeDegrees>
              <LongitudeDegrees>-4.39152440987527370452880859375</LongitudeDegrees>
            </Position>
            <AltitudeMeters>479.20001220703125</AltitudeMeters>
            <DistanceMeters>5818.6031211003</DistanceMeters>
          </Trackpoint>
          <Trackpoint>
            <Time>2022-06-16T06:22:50.000Z</Time>
            <Position>
              <LatitudeDegrees>36.79157163016498088836669921875</LatitudeDegrees>
              <LongitudeDegrees>-4.391590543091297149658203125</LongitudeDegrees>
            </Position>
            <AltitudeMeters>477.600006103515625</AltitudeMeters>
            <DistanceMeters>5824.9564227384</DistanceMeters>
          </Trackpoint>
          <Trackpoint>
            <Time>2022-06-16T06:22:59.000Z</Time>
            <Position>
              <LatitudeDegrees>36.7916396073997020721435546875</LatitudeDegrees>
              <LongitudeDegrees>-4.39169548451900482177734375</LongitudeDegrees>
            </Position>
            <AltitudeMeters>476.20001220703125</AltitudeMeters>
            <DistanceMeters>5836.9869699098</DistanceMeters>
          </Trackpoint>
          <Trackpoint>
            <Time>2022-06-16T06:23:00.000Z</Time>
            <Position>
              <LatitudeDegrees>36.79165058769285678863525390625</LatitudeDegrees>
              <LongitudeDegrees>-4.39170730300247669219970703125</LongitudeDegrees>
            </Position>
            <AltitudeMeters>476.20001220703125</AltitudeMeters>
            <DistanceMeters>5838.5996267288</DistanceMeters>
          </Trackpoint>
          <Trackpoint>
            <Time>2022-06-16T06:23:04.000Z</Time>
            <Position>
              <LatitudeDegrees>36.79168730042874813079833984375</LatitudeDegrees>
              <LongitudeDegrees>-4.39177972264587879180908203125</LongitudeDegrees>
            </Position>
            <AltitudeMeters>474.20001220703125</AltitudeMeters>
            <DistanceMeters>5846.2384979793</DistanceMeters>
          </Trackpoint>
          <Trackpoint>
            <Time>2022-06-16T06:23:06.000Z</Time>
            <Position>
              <LatitudeDegrees>36.7917029745876789093017578125</LatitudeDegrees>
              <LongitudeDegrees>-4.3918155133724212646484375</LongitudeDegrees>
            </Position>
            <AltitudeMeters>473</AltitudeMeters>
            <DistanceMeters>5849.8744341605</DistanceMeters>
          </Trackpoint>
          <Trackpoint>
            <Time>2022-06-16T06:23:08.000Z</Time>
            <Position>
              <LatitudeDegrees>36.7917133681476116180419921875</LatitudeDegrees>
              <LongitudeDegrees>-4.39184661023318767547607421875</LongitudeDegrees>
            </Position>
            <AltitudeMeters>472</AltitudeMeters>
            <DistanceMeters>5852.8794427202</DistanceMeters>
          </Trackpoint>
          <Trackpoint>
            <Time>2022-06-16T06:23:10.000Z</Time>
            <Position>
              <LatitudeDegrees>36.7917301319539546966552734375</LatitudeDegrees>
              <LongitudeDegrees>-4.3918716721236705780029296875</LongitudeDegrees>
            </Position>
            <AltitudeMeters>471.399993896484375</AltitudeMeters>
            <DistanceMeters>5855.7929066135</DistanceMeters>
          </Trackpoint>
          <Trackpoint>
            <Time>2022-06-16T06:23:12.000Z</Time>
            <Position>
              <LatitudeDegrees>36.79174312390387058258056640625</LatitudeDegrees>
              <LongitudeDegrees>-4.3919015116989612579345703125</LongitudeDegrees>
            </Position>
            <AltitudeMeters>470.399993896484375</AltitudeMeters>
            <DistanceMeters>5858.8218598431</DistanceMeters>
          </Trackpoint>
          <Trackpoint>
            <Time>2022-06-16T06:23:15.000Z</Time>
            <Position>
              <LatitudeDegrees>36.79176357574760913848876953125</LatitudeDegrees>
              <LongitudeDegrees>-4.391949288547039031982421875</LongitudeDegrees>
            </Position>
            <AltitudeMeters>468.79998779296875</AltitudeMeters>
            <DistanceMeters>5863.6504887767</DistanceMeters>
          </Trackpoint>
          <Trackpoint>
            <Time>2022-06-16T06:23:20.000Z</Time>
            <Position>
              <LatitudeDegrees>36.79180297069251537322998046875</LatitudeDegrees>
              <LongitudeDegrees>-4.39202405512332916259765625</LongitudeDegrees>
            </Position>
            <AltitudeMeters>466.399993896484375</AltitudeMeters>
            <DistanceMeters>5871.6276404425</DistanceMeters>
          </Trackpoint>
          <Trackpoint>
            <Time>2022-06-16T06:23:30.000Z</Time>
            <Position>
              <LatitudeDegrees>36.79189391434192657470703125</LatitudeDegrees>
              <LongitudeDegrees>-4.3921579979360103607177734375</LongitudeDegrees>
            </Position>
            <AltitudeMeters>463.20001220703125</AltitudeMeters>
            <DistanceMeters>5887.2796682321</DistanceMeters>
          </Trackpoint>
          <Trackpoint>
            <Time>2022-06-16T06:23:40.000Z</Time>
            <Position>
              <LatitudeDegrees>36.7920152842998504638671875</LatitudeDegrees>
              <LongitudeDegrees>-4.39223083667457103729248046875</LongitudeDegrees>
            </Position>
            <AltitudeMeters>463.399993896484375</AltitudeMeters>
            <DistanceMeters>5902.2674026046</DistanceMeters>
          </Trackpoint>
          <Trackpoint>
            <Time>2022-06-16T06:23:50.000Z</Time>
            <Position>
              <LatitudeDegrees>36.7921596206724643707275390625</LatitudeDegrees>
              <LongitudeDegrees>-4.3922046013176441192626953125</LongitudeDegrees>
            </Position>
            <AltitudeMeters>464.600006103515625</AltitudeMeters>
            <DistanceMeters>5918.501681495</DistanceMeters>
          </Trackpoint>
          <Trackpoint>
            <Time>2022-06-16T06:24:00.000Z</Time>
            <Position>
              <LatitudeDegrees>36.79227403365075588226318359375</LatitudeDegrees>
              <LongitudeDegrees>-4.392163194715976715087890625</LongitudeDegrees>
            </Position>
            <AltitudeMeters>466.20001220703125</AltitudeMeters>
            <DistanceMeters>5931.7598664409</DistanceMeters>
          </Trackpoint>
          <Trackpoint>
            <Time>2022-06-16T06:24:01.000Z</Time>
            <Position>
              <LatitudeDegrees>36.79228828288614749908447265625</LatitudeDegrees>
              <LongitudeDegrees>-4.3921603448688983917236328125</LongitudeDegrees>
            </Position>
            <AltitudeMeters>466.20001220703125</AltitudeMeters>
            <DistanceMeters>5933.3669140018</DistanceMeters>
          </Trackpoint>
          <Trackpoint>
            <Time>2022-06-16T06:24:02.000Z</Time>
            <Position>
              <LatitudeDegrees>36.79229951463639736175537109375</LatitudeDegrees>
              <LongitudeDegrees>-4.392157159745693206787109375</LongitudeDegrees>
            </Position>
            <AltitudeMeters>466.399993896484375</AltitudeMeters>
            <DistanceMeters>5934.6488944668</DistanceMeters>
          </Trackpoint>
          <Trackpoint>
            <Time>2022-06-16T06:24:03.000Z</Time>
            <Position>
              <LatitudeDegrees>36.79231091402471065521240234375</LatitudeDegrees>
              <LongitudeDegrees>-4.39215372316539287567138671875</LongitudeDegrees>
            </Position>
            <AltitudeMeters>466.399993896484375</AltitudeMeters>
            <DistanceMeters>5935.9518351299</DistanceMeters>
          </Trackpoint>
          <Trackpoint>
            <Time>2022-06-16T06:24:04.000Z</Time>
            <Position>
              <LatitudeDegrees>36.79232298396527767181396484375</LatitudeDegrees>
              <LongitudeDegrees>-4.39214953221380710601806640625</LongitudeDegrees>
            </Position>
            <AltitudeMeters>466.399993896484375</AltitudeMeters>
            <DistanceMeters>5937.3452002778</DistanceMeters>
          </Trackpoint>
          <Trackpoint>
            <Time>2022-06-16T06:24:05.000Z</Time>
            <Position>
              <LatitudeDegrees>36.79233622737228870391845703125</LatitudeDegrees>
              <LongitudeDegrees>-4.3921465985476970672607421875</LongitudeDegrees>
            </Position>
            <AltitudeMeters>466.399993896484375</AltitudeMeters>
            <DistanceMeters>5938.8446965381</DistanceMeters>
          </Trackpoint>
          <Trackpoint>
            <Time>2022-06-16T06:24:06.000Z</Time>
            <Position>
              <LatitudeDegrees>36.79234762676060199737548828125</LatitudeDegrees>
              <LongitudeDegrees>-4.39214265905320644378662109375</LongitudeDegrees>
            </Position>
            <AltitudeMeters>466.399993896484375</AltitudeMeters>
            <DistanceMeters>5940.161425317</DistanceMeters>
          </Trackpoint>
          <Trackpoint>
            <Time>2022-06-16T06:24:10.000Z</Time>
            <Position>
              <LatitudeDegrees>36.79239548742771148681640625</LatitudeDegrees>
              <LongitudeDegrees>-4.39211483113467693328857421875</LongitudeDegrees>
            </Position>
            <AltitudeMeters>467</AltitudeMeters>
            <DistanceMeters>5946.0369663342</DistanceMeters>
          </Trackpoint>
          <Trackpoint>
            <Time>2022-06-16T06:24:16.000Z</Time>
            <Position>
              <LatitudeDegrees>36.79247754625976085662841796875</LatitudeDegrees>
              <LongitudeDegrees>-4.39207493327558040618896484375</LongitudeDegrees>
            </Position>
            <AltitudeMeters>467.600006103515625</AltitudeMeters>
            <DistanceMeters>5955.838086332</DistanceMeters>
          </Trackpoint>
          <Trackpoint>
            <Time>2022-06-16T06:24:20.000Z</Time>
            <Position>
              <LatitudeDegrees>36.79255105555057525634765625</LatitudeDegrees>
              <LongitudeDegrees>-4.3920594267547130584716796875</LongitudeDegrees>
            </Position>
            <AltitudeMeters>467.20001220703125</AltitudeMeters>
            <DistanceMeters>5964.1353932932</DistanceMeters>
          </Trackpoint>
          <Trackpoint>
            <Time>2022-06-16T06:24:28.000Z</Time>
            <Position>
              <LatitudeDegrees>36.79266999475657939910888671875</LatitudeDegrees>
              <LongitudeDegrees>-4.39205045811831951141357421875</LongitudeDegrees>
            </Position>
            <AltitudeMeters>466.79998779296875</AltitudeMeters>
            <DistanceMeters>5977.3976641763</DistanceMeters>
          </Trackpoint>
          <Trackpoint>
            <Time>2022-06-16T06:24:30.000Z</Time>
            <Position>
              <LatitudeDegrees>36.7926927097141742706298828125</LatitudeDegrees>
              <LongitudeDegrees>-4.39204777590930461883544921875</LongitudeDegrees>
            </Position>
            <AltitudeMeters>466.79998779296875</AltitudeMeters>
            <DistanceMeters>5979.9368519561</DistanceMeters>
          </Trackpoint>
          <Trackpoint>
            <Time>2022-06-16T06:24:33.000Z</Time>
            <Position>
              <LatitudeDegrees>36.7927314341068267822265625</LatitudeDegrees>
              <LongitudeDegrees>-4.39204861409962177276611328125</LongitudeDegrees>
            </Position>
            <AltitudeMeters>466.600006103515625</AltitudeMeters>
            <DistanceMeters>5984.2477564228</DistanceMeters>
          </Trackpoint>
          <Trackpoint>
            <Time>2022-06-16T06:24:38.000Z</Time>
            <Position>
              <LatitudeDegrees>36.79280720651149749755859375</LatitudeDegrees>
              <LongitudeDegrees>-4.3920440040528774261474609375</LongitudeDegrees>
            </Position>
            <AltitudeMeters>466.600006103515625</AltitudeMeters>
            <DistanceMeters>5992.6917770056</DistanceMeters>
          </Trackpoint>
          <Trackpoint>
            <Time>2022-06-16T06:24:40.000Z</Time>
            <Position>
              <LatitudeDegrees>36.79283947683870792388916015625</LatitudeDegrees>
              <LongitudeDegrees>-4.392037130892276763916015625</LongitudeDegrees>
            </Position>
            <AltitudeMeters>466.79998779296875</AltitudeMeters>
            <DistanceMeters>5996.3376339042</DistanceMeters>
          </Trackpoint>
          <Trackpoint>
            <Time>2022-06-16T06:24:45.000Z</Time>
            <Position>
              <LatitudeDegrees>36.79290653206408023834228515625</LatitudeDegrees>
              <LongitudeDegrees>-4.392020702362060546875</LongitudeDegrees>
            </Position>
            <AltitudeMeters>467.399993896484375</AltitudeMeters>
            <DistanceMeters>6003.9433337208</DistanceMeters>
          </Trackpoint>
          <Trackpoint>
            <Time>2022-06-16T06:24:50.000Z</Time>
            <Position>
              <LatitudeDegrees>36.792974174022674560546875</LatitudeDegrees>
              <LongitudeDegrees>-4.39200452528893947601318359375</LongitudeDegrees>
            </Position>
            <AltitudeMeters>468.20001220703125</AltitudeMeters>
            <DistanceMeters>6011.6087565676</DistanceMeters>
          </Trackpoint>
          <Trackpoint>
            <Time>2022-06-16T06:25:00.000Z</Time>
            <Position>
              <LatitudeDegrees>36.7931148223578929901123046875</LatitudeDegrees>
              <LongitudeDegrees>-4.39199329353868961334228515625</LongitudeDegrees>
            </Position>
            <AltitudeMeters>468.20001220703125</AltitudeMeters>
            <DistanceMeters>6027.2947861145</DistanceMeters>
          </Trackpoint>
          <Trackpoint>
            <Time>2022-06-16T06:25:10.000Z</Time>
            <Position>
              <LatitudeDegrees>36.79322420619428157806396484375</LatitudeDegrees>
              <LongitudeDegrees>-4.392020367085933685302734375</LongitudeDegrees>
            </Position>
            <AltitudeMeters>466</AltitudeMeters>
            <DistanceMeters>6039.7065992026</DistanceMeters>
          </Trackpoint>
          <Trackpoint>
            <Time>2022-06-16T06:25:20.000Z</Time>
            <Position>
              <LatitudeDegrees>36.7933914251625537872314453125</LatitudeDegrees>
              <LongitudeDegrees>-4.39206504262983798980712890625</LongitudeDegrees>
            </Position>
            <AltitudeMeters>463.399993896484375</AltitudeMeters>
            <DistanceMeters>6058.7397170949</DistanceMeters>
          </Trackpoint>
          <Trackpoint>
            <Time>2022-06-16T06:25:23.000Z</Time>
            <Position>
              <LatitudeDegrees>36.7934162355959415435791015625</LatitudeDegrees>
              <LongitudeDegrees>-4.3920664675533771514892578125</LongitudeDegrees>
            </Position>
            <AltitudeMeters>463.399993896484375</AltitudeMeters>
            <DistanceMeters>6061.5036716299</DistanceMeters>
          </Trackpoint>
          <Trackpoint>
            <Time>2022-06-16T06:25:30.000Z</Time>
            <Position>
              <LatitudeDegrees>36.793493516743183135986328125</LatitudeDegrees>
              <LongitudeDegrees>-4.392098486423492431640625</LongitudeDegrees>
            </Position>
            <AltitudeMeters>461.20001220703125</AltitudeMeters>
            <DistanceMeters>6070.5666499116</DistanceMeters>
          </Trackpoint>
          <Trackpoint>
            <Time>2022-06-16T06:25:37.000Z</Time>
            <Position>
              <LatitudeDegrees>36.79355830885469913482666015625</LatitudeDegrees>
              <LongitudeDegrees>-4.39214014448225498199462890625</LongitudeDegrees>
            </Position>
            <AltitudeMeters>458.399993896484375</AltitudeMeters>
            <DistanceMeters>6078.6785034018</DistanceMeters>
          </Trackpoint>
          <Trackpoint>
            <Time>2022-06-16T06:25:40.000Z</Time>
            <Position>
              <LatitudeDegrees>36.79359099827706813812255859375</LatitudeDegrees>
              <LongitudeDegrees>-4.39214047975838184356689453125</LongitudeDegrees>
            </Position>
            <AltitudeMeters>457.79998779296875</AltitudeMeters>
            <DistanceMeters>6082.3169222984</DistanceMeters>
          </Trackpoint>
          <Trackpoint>
            <Time>2022-06-16T06:25:50.000Z</Time>
            <Position>
              <LatitudeDegrees>36.7937256954610347747802734375</LatitudeDegrees>
              <LongitudeDegrees>-4.39212958328425884246826171875</LongitudeDegrees>
            </Position>
            <AltitudeMeters>456.20001220703125</AltitudeMeters>
            <DistanceMeters>6097.3404625176</DistanceMeters>
          </Trackpoint>
          <Trackpoint>
            <Time>2022-06-16T06:25:58.000Z</Time>
            <Position>
              <LatitudeDegrees>36.7938618175685405731201171875</LatitudeDegrees>
              <LongitudeDegrees>-4.39208976924419403076171875</LongitudeDegrees>
            </Position>
            <AltitudeMeters>456.399993896484375</AltitudeMeters>
            <DistanceMeters>6112.9010688608</DistanceMeters>
          </Trackpoint>
          <Trackpoint>
            <Time>2022-06-16T06:26:00.000Z</Time>
            <Position>
              <LatitudeDegrees>36.79388771764934062957763671875</LatitudeDegrees>
              <LongitudeDegrees>-4.39206252805888652801513671875</LongitudeDegrees>
            </Position>
            <AltitudeMeters>457</AltitudeMeters>
            <DistanceMeters>6116.669929464</DistanceMeters>
          </Trackpoint>
          <Trackpoint>
            <Time>2022-06-16T06:26:10.000Z</Time>
            <Position>
              <LatitudeDegrees>36.79403507150709629058837890625</LatitudeDegrees>
              <LongitudeDegrees>-4.3919742666184902191162109375</LongitudeDegrees>
            </Position>
            <AltitudeMeters>458.600006103515625</AltitudeMeters>
            <DistanceMeters>6134.8595419092</DistanceMeters>
          </Trackpoint>
          <Trackpoint>
            <Time>2022-06-16T06:26:20.000Z</Time>
            <Position>
              <LatitudeDegrees>36.79417957551777362823486328125</LatitudeDegrees>
              <LongitudeDegrees>-4.39189665019512176513671875</LongitudeDegrees>
            </Position>
            <AltitudeMeters>459.399993896484375</AltitudeMeters>
            <DistanceMeters>6152.3679400382</DistanceMeters>
          </Trackpoint>
          <Trackpoint>
            <Time>2022-06-16T06:26:30.000Z</Time>
            <Position>
              <LatitudeDegrees>36.79429893381893634796142578125</LatitudeDegrees>
              <LongitudeDegrees>-4.3917994201183319091796875</LongitudeDegrees>
            </Position>
            <AltitudeMeters>460.600006103515625</AltitudeMeters>
            <DistanceMeters>6168.2294330261</DistanceMeters>
          </Trackpoint>
          <Trackpoint>
            <Time>2022-06-16T06:26:40.000Z</Time>
            <Position>
              <LatitudeDegrees>36.79439507424831390380859375</LatitudeDegrees>
              <LongitudeDegrees>-4.39172691665589809417724609375</LongitudeDegrees>
            </Position>
            <AltitudeMeters>461</AltitudeMeters>
            <DistanceMeters>6180.7296907348</DistanceMeters>
          </Trackpoint>
          <Trackpoint>
            <Time>2022-06-16T06:26:50.000Z</Time>
            <Position>
              <LatitudeDegrees>36.79449892602860927581787109375</LatitudeDegrees>
              <LongitudeDegrees>-4.39160252921283245086669921875</LongitudeDegrees>
            </Position>
            <AltitudeMeters>462</AltitudeMeters>
            <DistanceMeters>6196.7455688396</DistanceMeters>
          </Trackpoint>
          <Trackpoint>
            <Time>2022-06-16T06:26:55.000Z</Time>
            <Position>
              <LatitudeDegrees>36.79454636760056018829345703125</LatitudeDegrees>
              <LongitudeDegrees>-4.39153178595006465911865234375</LongitudeDegrees>
            </Position>
            <AltitudeMeters>462.20001220703125</AltitudeMeters>
            <DistanceMeters>6204.9707334409</DistanceMeters>
          </Trackpoint>
          <Trackpoint>
            <Time>2022-06-16T06:27:00.000Z</Time>
            <Position>
              <LatitudeDegrees>36.7945974133908748626708984375</LatitudeDegrees>
              <LongitudeDegrees>-4.391464479267597198486328125</LongitudeDegrees>
            </Position>
            <AltitudeMeters>462.79998779296875</AltitudeMeters>
            <DistanceMeters>6213.2331409542</DistanceMeters>
          </Trackpoint>
          <Trackpoint>
            <Time>2022-06-16T06:27:02.000Z</Time>
            <Position>
              <LatitudeDegrees>36.7946151830255985260009765625</LatitudeDegrees>
              <LongitudeDegrees>-4.3914453685283660888671875</LongitudeDegrees>
            </Position>
            <AltitudeMeters>462.79998779296875</AltitudeMeters>
            <DistanceMeters>6215.8424852471</DistanceMeters>
          </Trackpoint>
          <Trackpoint>
            <Time>2022-06-16T06:27:10.000Z</Time>
            <Position>
              <LatitudeDegrees>36.79472959600389003753662109375</LatitudeDegrees>
              <LongitudeDegrees>-4.3914190493524074554443359375</LongitudeDegrees>
            </Position>
            <AltitudeMeters>462</AltitudeMeters>
            <DistanceMeters>6228.7912480996</DistanceMeters>
          </Trackpoint>
          <Trackpoint>
            <Time>2022-06-16T06:27:20.000Z</Time>
            <Position>
              <LatitudeDegrees>36.794829256832599639892578125</LatitudeDegrees>
              <LongitudeDegrees>-4.3914924748241901397705078125</LongitudeDegrees>
            </Position>
            <AltitudeMeters>462</AltitudeMeters>
            <DistanceMeters>6241.6707863008</DistanceMeters>
          </Trackpoint>
          <Trackpoint>
            <Time>2022-06-16T06:27:27.000Z</Time>
            <Position>
              <LatitudeDegrees>36.79483822546899318695068359375</LatitudeDegrees>
              <LongitudeDegrees>-4.39158827997744083404541015625</LongitudeDegrees>
            </Position>
            <AltitudeMeters>462</AltitudeMeters>
            <DistanceMeters>6250.2679472097</DistanceMeters>
          </Trackpoint>
          <Trackpoint>
            <Time>2022-06-16T06:27:30.000Z</Time>
            <Position>
              <LatitudeDegrees>36.7948210425674915313720703125</LatitudeDegrees>
              <LongitudeDegrees>-4.3916237354278564453125</LongitudeDegrees>
            </Position>
            <AltitudeMeters>461.399993896484375</AltitudeMeters>
            <DistanceMeters>6253.9617860675</DistanceMeters>
          </Trackpoint>
          <Trackpoint>
            <Time>2022-06-16T06:27:40.000Z</Time>
            <Position>
              <LatitudeDegrees>36.79480813443660736083984375</LatitudeDegrees>
              <LongitudeDegrees>-4.39179648645222187042236328125</LongitudeDegrees>
            </Position>
            <AltitudeMeters>463.399993896484375</AltitudeMeters>
            <DistanceMeters>6269.4257598255</DistanceMeters>
          </Trackpoint>
          <Trackpoint>
            <Time>2022-06-16T06:27:50.000Z</Time>
            <Position>
              <LatitudeDegrees>36.794723309576511383056640625</LatitudeDegrees>
              <LongitudeDegrees>-4.391920454800128936767578125</LongitudeDegrees>
            </Position>
            <AltitudeMeters>463</AltitudeMeters>
            <DistanceMeters>6283.9589455748</DistanceMeters>
          </Trackpoint>
          <Trackpoint>
            <Time>2022-06-16T06:27:54.000Z</Time>
            <Position>
              <LatitudeDegrees>36.7947124131023883819580078125</LatitudeDegrees>
              <LongitudeDegrees>-4.391987510025501251220703125</LongitudeDegrees>
            </Position>
            <AltitudeMeters>462.399993896484375</AltitudeMeters>
            <DistanceMeters>6290.0577065041</DistanceMeters>
          </Trackpoint>
          <Trackpoint>
            <Time>2022-06-16T06:27:58.000Z</Time>
            <Position>
              <LatitudeDegrees>36.79470352828502655029296875</LatitudeDegrees>
              <LongitudeDegrees>-4.39205297268927097320556640625</LongitudeDegrees>
            </Position>
            <AltitudeMeters>462.20001220703125</AltitudeMeters>
            <DistanceMeters>6295.9761240735</DistanceMeters>
          </Trackpoint>
          <Trackpoint>
            <Time>2022-06-16T06:27:59.000Z</Time>
            <Position>
              <LatitudeDegrees>36.79469388909637928009033203125</LatitudeDegrees>
              <LongitudeDegrees>-4.39206269569694995880126953125</LongitudeDegrees>
            </Position>
            <AltitudeMeters>462</AltitudeMeters>
            <DistanceMeters>6297.3531919924</DistanceMeters>
          </Trackpoint>
          <Trackpoint>
            <Time>2022-06-16T06:28:00.000Z</Time>
            <Position>
              <LatitudeDegrees>36.79468609392642974853515625</LatitudeDegrees>
              <LongitudeDegrees>-4.39207510091364383697509765625</LongitudeDegrees>
            </Position>
            <AltitudeMeters>461.79998779296875</AltitudeMeters>
            <DistanceMeters>6298.7562446161</DistanceMeters>
          </Trackpoint>
          <Trackpoint>
            <Time>2022-06-16T06:28:01.000Z</Time>
            <Position>
              <LatitudeDegrees>36.79468081332743167877197265625</LatitudeDegrees>
              <LongitudeDegrees>-4.39208968542516231536865234375</LongitudeDegrees>
            </Position>
            <AltitudeMeters>461.600006103515625</AltitudeMeters>
            <DistanceMeters>6300.1848093771</DistanceMeters>
          </Trackpoint>
          <Trackpoint>
            <Time>2022-06-16T06:28:05.000Z</Time>
            <Position>
              <LatitudeDegrees>36.79467980749905109405517578125</LatitudeDegrees>
              <LongitudeDegrees>-4.3921601772308349609375</LongitudeDegrees>
            </Position>
            <AltitudeMeters>461.79998779296875</AltitudeMeters>
            <DistanceMeters>6306.4680803574</DistanceMeters>
          </Trackpoint>
          <Trackpoint>
            <Time>2022-06-16T06:28:08.000Z</Time>
            <Position>
              <LatitudeDegrees>36.7946678213775157928466796875</LatitudeDegrees>
              <LongitudeDegrees>-4.39220719970762729644775390625</LongitudeDegrees>
            </Position>
            <AltitudeMeters>461.600006103515625</AltitudeMeters>
            <DistanceMeters>6310.866082602</DistanceMeters>
          </Trackpoint>
          <Trackpoint>
            <Time>2022-06-16T06:28:10.000Z</Time>
            <Position>
              <LatitudeDegrees>36.79465583525598049163818359375</LatitudeDegrees>
              <LongitudeDegrees>-4.392232932150363922119140625</LongitudeDegrees>
            </Position>
            <AltitudeMeters>461.399993896484375</AltitudeMeters>
            <DistanceMeters>6313.516629616</DistanceMeters>
          </Trackpoint>
          <Trackpoint>
            <Time>2022-06-16T06:28:20.000Z</Time>
            <Position>
              <LatitudeDegrees>36.79464845918118953704833984375</LatitudeDegrees>
              <LongitudeDegrees>-4.39239478670060634613037109375</LongitudeDegrees>
            </Position>
            <AltitudeMeters>462.399993896484375</AltitudeMeters>
            <DistanceMeters>6327.9656907406</DistanceMeters>
          </Trackpoint>
          <Trackpoint>
            <Time>2022-06-16T06:28:30.000Z</Time>
            <Position>
              <LatitudeDegrees>36.79462146945297718048095703125</LatitudeDegrees>
              <LongitudeDegrees>-4.39255957491695880889892578125</LongitudeDegrees>
            </Position>
            <AltitudeMeters>463.600006103515625</AltitudeMeters>
            <DistanceMeters>6342.9570396638</DistanceMeters>
          </Trackpoint>
          <Trackpoint>
            <Time>2022-06-16T06:28:40.000Z</Time>
            <Position>
              <LatitudeDegrees>36.79453144781291484832763671875</LatitudeDegrees>
              <LongitudeDegrees>-4.392664097249507904052734375</LongitudeDegrees>
            </Position>
            <AltitudeMeters>462.600006103515625</AltitudeMeters>
            <DistanceMeters>6356.6389066667</DistanceMeters>
          </Trackpoint>
          <Trackpoint>
            <Time>2022-06-16T06:28:50.000Z</Time>
            <Position>
              <LatitudeDegrees>36.794404126703739166259765625</LatitudeDegrees>
              <LongitudeDegrees>-4.39273844473063945770263671875</LongitudeDegrees>
            </Position>
            <AltitudeMeters>459.399993896484375</AltitudeMeters>
            <DistanceMeters>6372.282855394</DistanceMeters>
          </Trackpoint>
          <Trackpoint>
            <Time>2022-06-16T06:29:00.000Z</Time>
            <Position>
              <LatitudeDegrees>36.7943104170262813568115234375</LatitudeDegrees>
              <LongitudeDegrees>-4.3928459845483303070068359375</LongitudeDegrees>
            </Position>
            <AltitudeMeters>458</AltitudeMeters>
            <DistanceMeters>6386.4478932897</DistanceMeters>
          </Trackpoint>
          <Trackpoint>
            <Time>2022-06-16T06:29:10.000Z</Time>
            <Position>
              <LatitudeDegrees>36.79420321248471736907958984375</LatitudeDegrees>
              <LongitudeDegrees>-4.392955787479877471923828125</LongitudeDegrees>
            </Position>
            <AltitudeMeters>456.20001220703125</AltitudeMeters>
            <DistanceMeters>6401.8800093486</DistanceMeters>
          </Trackpoint>
          <Trackpoint>
            <Time>2022-06-16T06:29:17.000Z</Time>
            <Position>
              <LatitudeDegrees>36.79413951002061367034912109375</LatitudeDegrees>
              <LongitudeDegrees>-4.3930386006832122802734375</LongitudeDegrees>
            </Position>
            <AltitudeMeters>455.20001220703125</AltitudeMeters>
            <DistanceMeters>6412.1146997079</DistanceMeters>
          </Trackpoint>
          <Trackpoint>
            <Time>2022-06-16T06:29:20.000Z</Time>
            <Position>
              <LatitudeDegrees>36.794111430644989013671875</LatitudeDegrees>
              <LongitudeDegrees>-4.393082521855831146240234375</LongitudeDegrees>
            </Position>
            <AltitudeMeters>454.79998779296875</AltitudeMeters>
            <DistanceMeters>6417.1232476373</DistanceMeters>
          </Trackpoint>
          <Trackpoint>
            <Time>2022-06-16T06:29:25.000Z</Time>
            <Position>
              <LatitudeDegrees>36.79406943731009960174560546875</LatitudeDegrees>
              <LongitudeDegrees>-4.39315435476601123809814453125</LongitudeDegrees>
            </Position>
            <AltitudeMeters>454.399993896484375</AltitudeMeters>
            <DistanceMeters>6425.0504351571</DistanceMeters>
          </Trackpoint>
          <Trackpoint>
            <Time>2022-06-16T06:29:28.000Z</Time>
            <Position>
              <LatitudeDegrees>36.79405577480792999267578125</LatitudeDegrees>
              <LongitudeDegrees>-4.39320020377635955810546875</LongitudeDegrees>
            </Position>
            <AltitudeMeters>454.600006103515625</AltitudeMeters>
            <DistanceMeters>6429.411322795</DistanceMeters>
          </Trackpoint>
          <Trackpoint>
            <Time>2022-06-16T06:29:30.000Z</Time>
            <Position>
              <LatitudeDegrees>36.7940489016473293304443359375</LatitudeDegrees>
              <LongitudeDegrees>-4.39323507249355316162109375</LongitudeDegrees>
            </Position>
            <AltitudeMeters>454.79998779296875</AltitudeMeters>
            <DistanceMeters>6432.614160106</DistanceMeters>
          </Trackpoint>
          <Trackpoint>
            <Time>2022-06-16T06:29:32.000Z</Time>
            <Position>
              <LatitudeDegrees>36.7940390110015869140625</LatitudeDegrees>
              <LongitudeDegrees>-4.39326591789722442626953125</LongitudeDegrees>
            </Position>
            <AltitudeMeters>455</AltitudeMeters>
            <DistanceMeters>6435.5767998585</DistanceMeters>
          </Trackpoint>
          <Trackpoint>
            <Time>2022-06-16T06:29:33.000Z</Time>
            <Position>
              <LatitudeDegrees>36.79403473623096942901611328125</LatitudeDegrees>
              <LongitudeDegrees>-4.39328108914196491241455078125</LongitudeDegrees>
            </Position>
            <AltitudeMeters>455.20001220703125</AltitudeMeters>
            <DistanceMeters>6437.0116717794</DistanceMeters>
          </Trackpoint>
          <Trackpoint>
            <Time>2022-06-16T06:29:34.000Z</Time>
            <Position>
              <LatitudeDegrees>36.79403364658355712890625</LatitudeDegrees>
              <LongitudeDegrees>-4.39330078661441802978515625</LongitudeDegrees>
            </Position>
            <AltitudeMeters>455.399993896484375</AltitudeMeters>
            <DistanceMeters>6438.7741547713</DistanceMeters>
          </Trackpoint>
          <Trackpoint>
            <Time>2022-06-16T06:29:36.000Z</Time>
            <Position>
              <LatitudeDegrees>36.79402333684265613555908203125</LatitudeDegrees>
              <LongitudeDegrees>-4.39333808608353137969970703125</LongitudeDegrees>
            </Position>
            <AltitudeMeters>455.79998779296875</AltitudeMeters>
            <DistanceMeters>6442.2914271133</DistanceMeters>
          </Trackpoint>
          <Trackpoint>
            <Time>2022-06-16T06:29:40.000Z</Time>
            <Position>
              <LatitudeDegrees>36.7940006218850612640380859375</LatitudeDegrees>
              <LongitudeDegrees>-4.39340648241341114044189453125</LongitudeDegrees>
            </Position>
            <AltitudeMeters>456.399993896484375</AltitudeMeters>
            <DistanceMeters>6448.8915095951</DistanceMeters>
          </Trackpoint>
          <Trackpoint>
            <Time>2022-06-16T06:29:49.000Z</Time>
            <Position>
              <LatitudeDegrees>36.793954186141490936279296875</LatitudeDegrees>
              <LongitudeDegrees>-4.39355819486081600189208984375</LongitudeDegrees>
            </Position>
            <AltitudeMeters>458.20001220703125</AltitudeMeters>
            <DistanceMeters>6463.3680428165</DistanceMeters>
          </Trackpoint>
          <Trackpoint>
            <Time>2022-06-16T06:29:50.000Z</Time>
            <Position>
              <LatitudeDegrees>36.79395108483731746673583984375</LatitudeDegrees>
              <LongitudeDegrees>-4.39357143826782703399658203125</LongitudeDegrees>
            </Position>
            <AltitudeMeters>458.399993896484375</AltitudeMeters>
            <DistanceMeters>6464.599729807</DistanceMeters>
          </Trackpoint>
          <Trackpoint>
            <Time>2022-06-16T06:30:00.000Z</Time>
            <Position>
              <LatitudeDegrees>36.79388587363064289093017578125</LatitudeDegrees>
              <LongitudeDegrees>-4.39368627034127712249755859375</LongitudeDegrees>
            </Position>
            <AltitudeMeters>460.20001220703125</AltitudeMeters>
            <DistanceMeters>6477.1472149256</DistanceMeters>
          </Trackpoint>
          <Trackpoint>
            <Time>2022-06-16T06:30:10.000Z</Time>
            <Position>
              <LatitudeDegrees>36.79378059692680835723876953125</LatitudeDegrees>
              <LongitudeDegrees>-4.39378618262708187103271484375</LongitudeDegrees>
            </Position>
            <AltitudeMeters>460.79998779296875</AltitudeMeters>
            <DistanceMeters>6491.8650093846</DistanceMeters>
          </Trackpoint>
          <Trackpoint>
            <Time>2022-06-16T06:30:12.000Z</Time>
            <Position>
              <LatitudeDegrees>36.79376618005335330963134765625</LatitudeDegrees>
              <LongitudeDegrees>-4.3938088975846767425537109375</LongitudeDegrees>
            </Position>
            <AltitudeMeters>461.20001220703125</AltitudeMeters>
            <DistanceMeters>6494.4482682744</DistanceMeters>
          </Trackpoint>
          <Trackpoint>
            <Time>2022-06-16T06:30:13.000Z</Time>
            <Position>
              <LatitudeDegrees>36.79375628940761089324951171875</LatitudeDegrees>
              <LongitudeDegrees>-4.39381937496364116668701171875</LongitudeDegrees>
            </Position>
            <AltitudeMeters>461.20001220703125</AltitudeMeters>
            <DistanceMeters>6495.8925492923</DistanceMeters>
          </Trackpoint>
          <Trackpoint>
            <Time>2022-06-16T06:30:14.000Z</Time>
            <Position>
              <LatitudeDegrees>36.79374354891479015350341796875</LatitudeDegrees>
              <LongitudeDegrees>-4.39382515847682952880859375</LongitudeDegrees>
            </Position>
            <AltitudeMeters>461.20001220703125</AltitudeMeters>
            <DistanceMeters>6497.3980555817</DistanceMeters>
          </Trackpoint>
          <Trackpoint>
            <Time>2022-06-16T06:30:15.000Z</Time>
            <Position>
              <LatitudeDegrees>36.79373248480260372161865234375</LatitudeDegrees>
              <LongitudeDegrees>-4.3938347138464450836181640625</LongitudeDegrees>
            </Position>
            <AltitudeMeters>461.20001220703125</AltitudeMeters>
            <DistanceMeters>6498.8945377761</DistanceMeters>
          </Trackpoint>
          <Trackpoint>
            <Time>2022-06-16T06:30:20.000Z</Time>
            <Position>
              <LatitudeDegrees>36.79367129690945148468017578125</LatitudeDegrees>
              <LongitudeDegrees>-4.3938674032688140869140625</LongitudeDegrees>
            </Position>
            <AltitudeMeters>460.79998779296875</AltitudeMeters>
            <DistanceMeters>6506.3017467291</DistanceMeters>
          </Trackpoint>
          <Trackpoint>
            <Time>2022-06-16T06:30:22.000Z</Time>
            <Position>
              <LatitudeDegrees>36.79364346899092197418212890625</LatitudeDegrees>
              <LongitudeDegrees>-4.3938752822577953338623046875</LongitudeDegrees>
            </Position>
            <AltitudeMeters>460.600006103515625</AltitudeMeters>
            <DistanceMeters>6509.4776868085</DistanceMeters>
          </Trackpoint>
          <Trackpoint>
            <Time>2022-06-16T06:30:30.000Z</Time>
            <Position>
              <LatitudeDegrees>36.7935664393007755279541015625</LatitudeDegrees>
              <LongitudeDegrees>-4.39388223923742771148681640625</LongitudeDegrees>
            </Position>
            <AltitudeMeters>459.79998779296875</AltitudeMeters>
            <DistanceMeters>6518.0732720395</DistanceMeters>
          </Trackpoint>
          <Trackpoint>
            <Time>2022-06-16T06:30:37.000Z</Time>
            <Position>
              <LatitudeDegrees>36.79346610791981220245361328125</LatitudeDegrees>
              <LongitudeDegrees>-4.3939078040421009063720703125</LongitudeDegrees>
            </Position>
            <AltitudeMeters>459</AltitudeMeters>
            <DistanceMeters>6529.470933191</DistanceMeters>
          </Trackpoint>
          <Trackpoint>
            <Time>2022-06-16T06:30:40.000Z</Time>
            <Position>
              <LatitudeDegrees>36.7933966219425201416015625</LatitudeDegrees>
              <LongitudeDegrees>-4.393906295299530029296875</LongitudeDegrees>
            </Position>
            <AltitudeMeters>457.79998779296875</AltitudeMeters>
            <DistanceMeters>6537.2061310887</DistanceMeters>
          </Trackpoint>
          <Trackpoint>
            <Time>2022-06-16T06:30:48.000Z</Time>
            <Position>
              <LatitudeDegrees>36.79329997859895229339599609375</LatitudeDegrees>
              <LongitudeDegrees>-4.39392750151455402374267578125</LongitudeDegrees>
            </Position>
            <AltitudeMeters>455.79998779296875</AltitudeMeters>
            <DistanceMeters>6548.1280040886</DistanceMeters>
          </Trackpoint>
          <Trackpoint>
            <Time>2022-06-16T06:30:49.000Z</Time>
            <Position>
              <LatitudeDegrees>36.79328908212482929229736328125</LatitudeDegrees>
              <LongitudeDegrees>-4.39393110573291778564453125</LongitudeDegrees>
            </Position>
            <AltitudeMeters>455.600006103515625</AltitudeMeters>
            <DistanceMeters>6549.3886759151</DistanceMeters>
          </Trackpoint>
          <Trackpoint>
            <Time>2022-06-16T06:30:50.000Z</Time>
            <Position>
              <LatitudeDegrees>36.7932791076600551605224609375</LatitudeDegrees>
              <LongitudeDegrees>-4.393934123218059539794921875</LongitudeDegrees>
            </Position>
            <AltitudeMeters>455.399993896484375</AltitudeMeters>
            <DistanceMeters>6550.5368880735</DistanceMeters>
          </Trackpoint>
          <Trackpoint>
            <Time>2022-06-16T06:30:51.000Z</Time>
            <Position>
              <LatitudeDegrees>36.79326645098626613616943359375</LatitudeDegrees>
              <LongitudeDegrees>-4.3939373083412647247314453125</LongitudeDegrees>
            </Position>
            <AltitudeMeters>455.20001220703125</AltitudeMeters>
            <DistanceMeters>6551.9780395514</DistanceMeters>
          </Trackpoint>
          <Trackpoint>
            <Time>2022-06-16T06:30:52.000Z</Time>
            <Position>
              <LatitudeDegrees>36.7932544648647308349609375</LatitudeDegrees>
              <LongitudeDegrees>-4.39393940381705760955810546875</LongitudeDegrees>
            </Position>
            <AltitudeMeters>455</AltitudeMeters>
            <DistanceMeters>6553.3286229223</DistanceMeters>
          </Trackpoint>
          <Trackpoint>
            <Time>2022-06-16T06:30:53.000Z</Time>
            <Position>
              <LatitudeDegrees>36.79324029944837093353271484375</LatitudeDegrees>
              <LongitudeDegrees>-4.393943846225738525390625</LongitudeDegrees>
            </Position>
            <AltitudeMeters>454.79998779296875</AltitudeMeters>
            <DistanceMeters>6554.9524401292</DistanceMeters>
          </Trackpoint>
          <Trackpoint>
            <Time>2022-06-16T06:31:00.000Z</Time>
            <Position>
              <LatitudeDegrees>36.793127395212650299072265625</LatitudeDegrees>
              <LongitudeDegrees>-4.39398248679935932159423828125</LongitudeDegrees>
            </Position>
            <AltitudeMeters>452.79998779296875</AltitudeMeters>
            <DistanceMeters>6567.982193282</DistanceMeters>
          </Trackpoint>
          <Trackpoint>
            <Time>2022-06-16T06:31:07.000Z</Time>
            <Position>
              <LatitudeDegrees>36.79306595586240291595458984375</LatitudeDegrees>
              <LongitudeDegrees>-4.39408105798065662384033203125</LongitudeDegrees>
            </Position>
            <AltitudeMeters>453</AltitudeMeters>
            <DistanceMeters>6579.1157398574</DistanceMeters>
          </Trackpoint>
          <Trackpoint>
            <Time>2022-06-16T06:31:10.000Z</Time>
            <Position>
              <LatitudeDegrees>36.79306335747241973876953125</LatitudeDegrees>
              <LongitudeDegrees>-4.39413721673190593719482421875</LongitudeDegrees>
            </Position>
            <AltitudeMeters>454.399993896484375</AltitudeMeters>
            <DistanceMeters>6584.1296936685</DistanceMeters>
          </Trackpoint>
          <Trackpoint>
            <Time>2022-06-16T06:31:14.000Z</Time>
            <Position>
              <LatitudeDegrees>36.793056316673755645751953125</LatitudeDegrees>
              <LongitudeDegrees>-4.394204355776309967041015625</LongitudeDegrees>
            </Position>
            <AltitudeMeters>455.399993896484375</AltitudeMeters>
            <DistanceMeters>6590.1651993122</DistanceMeters>
          </Trackpoint>
          <Trackpoint>
            <Time>2022-06-16T06:31:19.000Z</Time>
            <Position>
              <LatitudeDegrees>36.79305237717926502227783203125</LatitudeDegrees>
              <LongitudeDegrees>-4.39428792335093021392822265625</LongitudeDegrees>
            </Position>
            <AltitudeMeters>457</AltitudeMeters>
            <DistanceMeters>6597.6270657914</DistanceMeters>
          </Trackpoint>
          <Trackpoint>
            <Time>2022-06-16T06:31:20.000Z</Time>
            <Position>
              <LatitudeDegrees>36.7930506169795989990234375</LatitudeDegrees>
              <LongitudeDegrees>-4.39430661499500274658203125</LongitudeDegrees>
            </Position>
            <AltitudeMeters>457.20001220703125</AltitudeMeters>
            <DistanceMeters>6599.3055722259</DistanceMeters>
          </Trackpoint>
          <Trackpoint>
            <Time>2022-06-16T06:31:26.000Z</Time>
            <Position>
              <LatitudeDegrees>36.7930211126804351806640625</LatitudeDegrees>
              <LongitudeDegrees>-4.3944066949188709259033203125</LongitudeDegrees>
            </Position>
            <AltitudeMeters>458.20001220703125</AltitudeMeters>
            <DistanceMeters>6608.8120439715</DistanceMeters>
          </Trackpoint>
          <Trackpoint>
            <Time>2022-06-16T06:31:30.000Z</Time>
            <Position>
              <LatitudeDegrees>36.79300225339829921722412109375</LatitudeDegrees>
              <LongitudeDegrees>-4.3944693915545940399169921875</LongitudeDegrees>
            </Position>
            <AltitudeMeters>458.79998779296875</AltitudeMeters>
            <DistanceMeters>6614.7813556276</DistanceMeters>
          </Trackpoint>
          <Trackpoint>
            <Time>2022-06-16T06:31:37.000Z</Time>
            <Position>
              <LatitudeDegrees>36.7929790355265140533447265625</LatitudeDegrees>
              <LongitudeDegrees>-4.39458732493221759796142578125</LongitudeDegrees>
            </Position>
            <AltitudeMeters>460.399993896484375</AltitudeMeters>
            <DistanceMeters>6625.6052279377</DistanceMeters>
          </Trackpoint>
          <Trackpoint>
            <Time>2022-06-16T06:31:40.000Z</Time>
            <Position>
              <LatitudeDegrees>36.79296034388244152069091796875</LatitudeDegrees>
              <LongitudeDegrees>-4.39463292248547077178955078125</LongitudeDegrees>
            </Position>
            <AltitudeMeters>460.600006103515625</AltitudeMeters>
            <DistanceMeters>6630.1704679568</DistanceMeters>
          </Trackpoint>
          <Trackpoint>
            <Time>2022-06-16T06:31:50.000Z</Time>
            <Position>
              <LatitudeDegrees>36.79290032945573329925537109375</LatitudeDegrees>
              <LongitudeDegrees>-4.39477759413421154022216796875</LongitudeDegrees>
            </Position>
            <AltitudeMeters>461.399993896484375</AltitudeMeters>
            <DistanceMeters>6644.6924652462</DistanceMeters>
          </Trackpoint>
          <Trackpoint>
            <Time>2022-06-16T06:32:00.000Z</Time>
            <Position>
              <LatitudeDegrees>36.7927983216941356658935546875</LatitudeDegrees>
              <LongitudeDegrees>-4.3949027359485626220703125</LongitudeDegrees>
            </Position>
            <AltitudeMeters>460.600006103515625</AltitudeMeters>
            <DistanceMeters>6660.6082342947</DistanceMeters>
          </Trackpoint>
          <Trackpoint>
            <Time>2022-06-16T06:32:10.000Z</Time>
            <Position>
              <LatitudeDegrees>36.792713664472103118896484375</LatitudeDegrees>
              <LongitudeDegrees>-4.39500373788177967071533203125</LongitudeDegrees>
            </Position>
            <AltitudeMeters>460.20001220703125</AltitudeMeters>
            <DistanceMeters>6673.6404128447</DistanceMeters>
          </Trackpoint>
          <Trackpoint>
            <Time>2022-06-16T06:32:20.000Z</Time>
            <Position>
              <LatitudeDegrees>36.79260629229247570037841796875</LatitudeDegrees>
              <LongitudeDegrees>-4.39514153636991977691650390625</LongitudeDegrees>
            </Position>
            <AltitudeMeters>460.79998779296875</AltitudeMeters>
            <DistanceMeters>6690.7773946708</DistanceMeters>
          </Trackpoint>
          <Trackpoint>
            <Time>2022-06-16T06:32:30.000Z</Time>
            <Position>
              <LatitudeDegrees>36.79249146021902561187744140625</LatitudeDegrees>
              <LongitudeDegrees>-4.395267181098461151123046875</LongitudeDegrees>
            </Position>
            <AltitudeMeters>460.20001220703125</AltitudeMeters>
            <DistanceMeters>6707.7707114337</DistanceMeters>
          </Trackpoint>
          <Trackpoint>
            <Time>2022-06-16T06:32:40.000Z</Time>
            <Position>
              <LatitudeDegrees>36.79237268865108489990234375</LatitudeDegrees>
              <LongitudeDegrees>-4.395372457802295684814453125</LongitudeDegrees>
            </Position>
            <AltitudeMeters>457.20001220703125</AltitudeMeters>
            <DistanceMeters>6723.9821686422</DistanceMeters>
          </Trackpoint>
          <Trackpoint>
            <Time>2022-06-16T06:32:41.000Z</Time>
            <Position>
              <LatitudeDegrees>36.7923614569008350372314453125</LatitudeDegrees>
              <LongitudeDegrees>-4.3953882157802581787109375</LongitudeDegrees>
            </Position>
            <AltitudeMeters>456.79998779296875</AltitudeMeters>
            <DistanceMeters>6725.8636015977</DistanceMeters>
          </Trackpoint>
          <Trackpoint>
            <Time>2022-06-16T06:32:45.000Z</Time>
            <Position>
              <LatitudeDegrees>36.79232382215559482574462890625</LatitudeDegrees>
              <LongitudeDegrees>-4.39545485191047191619873046875</LongitudeDegrees>
            </Position>
            <AltitudeMeters>456.20001220703125</AltitudeMeters>
            <DistanceMeters>6733.131747661</DistanceMeters>
          </Trackpoint>
          <Trackpoint>
            <Time>2022-06-16T06:32:46.000Z</Time>
            <Position>
              <LatitudeDegrees>36.79231904447078704833984375</LatitudeDegrees>
              <LongitudeDegrees>-4.39547362737357616424560546875</LongitudeDegrees>
            </Position>
            <AltitudeMeters>456.20001220703125</AltitudeMeters>
            <DistanceMeters>6734.8865285782</DistanceMeters>
          </Trackpoint>
          <Trackpoint>
            <Time>2022-06-16T06:32:47.000Z</Time>
            <Position>
              <LatitudeDegrees>36.79231912828981876373291015625</LatitudeDegrees>
              <LongitudeDegrees>-4.3954963423311710357666015625</LongitudeDegrees>
            </Position>
            <AltitudeMeters>456.20001220703125</AltitudeMeters>
            <DistanceMeters>6736.9112889852</DistanceMeters>
          </Trackpoint>
          <Trackpoint>
            <Time>2022-06-16T06:32:48.000Z</Time>
            <Position>
              <LatitudeDegrees>36.79231912828981876373291015625</LatitudeDegrees>
              <LongitudeDegrees>-4.3955154530704021453857421875</LongitudeDegrees>
            </Position>
            <AltitudeMeters>456.399993896484375</AltitudeMeters>
            <DistanceMeters>6738.6111785292</DistanceMeters>
          </Trackpoint>
          <Trackpoint>
            <Time>2022-06-16T06:32:49.000Z</Time>
            <Position>
              <LatitudeDegrees>36.7923155240714550018310546875</LatitudeDegrees>
              <LongitudeDegrees>-4.3955315463244915008544921875</LongitudeDegrees>
            </Position>
            <AltitudeMeters>456.399993896484375</AltitudeMeters>
            <DistanceMeters>6740.1016143062</DistanceMeters>
          </Trackpoint>
          <Trackpoint>
            <Time>2022-06-16T06:32:50.000Z</Time>
            <Position>
              <LatitudeDegrees>36.79231368005275726318359375</LatitudeDegrees>
              <LongitudeDegrees>-4.39554789103567600250244140625</LongitudeDegrees>
            </Position>
            <AltitudeMeters>456.20001220703125</AltitudeMeters>
            <DistanceMeters>6741.573761835</DistanceMeters>
          </Trackpoint>
          <Trackpoint>
            <Time>2022-06-16T06:32:51.000Z</Time>
            <Position>
              <LatitudeDegrees>36.79231108166277408599853515625</LatitudeDegrees>
              <LongitudeDegrees>-4.3955623917281627655029296875</LongitudeDegrees>
            </Position>
            <AltitudeMeters>456.20001220703125</AltitudeMeters>
            <DistanceMeters>6742.8973308094</DistanceMeters>
          </Trackpoint>
          <Trackpoint>
            <Time>2022-06-16T06:32:55.000Z</Time>
            <Position>
              <LatitudeDegrees>36.792314685881137847900390625</LatitudeDegrees>
              <LongitudeDegrees>-4.39562332816421985626220703125</LongitudeDegrees>
            </Position>
            <AltitudeMeters>456</AltitudeMeters>
            <DistanceMeters>6748.3437792961</DistanceMeters>
          </Trackpoint>
          <Trackpoint>
            <Time>2022-06-16T06:32:56.000Z</Time>
            <Position>
              <LatitudeDegrees>36.7923229001462459564208984375</LatitudeDegrees>
              <LongitudeDegrees>-4.3956408463418483734130859375</LongitudeDegrees>
            </Position>
            <AltitudeMeters>456.20001220703125</AltitudeMeters>
            <DistanceMeters>6750.1517858428</DistanceMeters>
          </Trackpoint>
          <Trackpoint>
            <Time>2022-06-16T06:33:00.000Z</Time>
            <Position>
              <LatitudeDegrees>36.79233505390584468841552734375</LatitudeDegrees>
              <LongitudeDegrees>-4.39571888186037540435791015625</LongitudeDegrees>
            </Position>
            <AltitudeMeters>456.399993896484375</AltitudeMeters>
            <DistanceMeters>6757.2374915259</DistanceMeters>
          </Trackpoint>
          <Trackpoint>
            <Time>2022-06-16T06:33:10.000Z</Time>
            <Position>
              <LatitudeDegrees>36.792353577911853790283203125</LatitudeDegrees>
              <LongitudeDegrees>-4.3959184549748897552490234375</LongitudeDegrees>
            </Position>
            <AltitudeMeters>457.600006103515625</AltitudeMeters>
            <DistanceMeters>6775.1449222372</DistanceMeters>
          </Trackpoint>
          <Trackpoint>
            <Time>2022-06-16T06:33:20.000Z</Time>
            <Position>
              <LatitudeDegrees>36.79232683964073657989501953125</LatitudeDegrees>
              <LongitudeDegrees>-4.3960974924266338348388671875</LongitudeDegrees>
            </Position>
            <AltitudeMeters>457.399993896484375</AltitudeMeters>
            <DistanceMeters>6791.3780886192</DistanceMeters>
          </Trackpoint>
          <Trackpoint>
            <Time>2022-06-16T06:33:24.000Z</Time>
            <Position>
              <LatitudeDegrees>36.79232231341302394866943359375</LatitudeDegrees>
              <LongitudeDegrees>-4.39616429619491100311279296875</LongitudeDegrees>
            </Position>
            <AltitudeMeters>458.20001220703125</AltitudeMeters>
            <DistanceMeters>6797.3534482117</DistanceMeters>
          </Trackpoint>
          <Trackpoint>
            <Time>2022-06-16T06:33:28.000Z</Time>
            <Position>
              <LatitudeDegrees>36.7923255823552608489990234375</LatitudeDegrees>
              <LongitudeDegrees>-4.39623487181961536407470703125</LongitudeDegrees>
            </Position>
            <AltitudeMeters>459.399993896484375</AltitudeMeters>
            <DistanceMeters>6803.6553745998</DistanceMeters>
          </Trackpoint>
          <Trackpoint>
            <Time>2022-06-16T06:33:30.000Z</Time>
            <Position>
              <LatitudeDegrees>36.7923255823552608489990234375</LatitudeDegrees>
              <LongitudeDegrees>-4.39627376385033130645751953125</LongitudeDegrees>
            </Position>
            <AltitudeMeters>459.79998779296875</AltitudeMeters>
            <DistanceMeters>6807.1222221227</DistanceMeters>
          </Trackpoint>
          <Trackpoint>
            <Time>2022-06-16T06:33:34.000Z</Time>
            <Position>
              <LatitudeDegrees>36.792331449687480926513671875</LatitudeDegrees>
              <LongitudeDegrees>-4.3963492847979068756103515625</LongitudeDegrees>
            </Position>
            <AltitudeMeters>461.20001220703125</AltitudeMeters>
            <DistanceMeters>6813.8851606252</DistanceMeters>
          </Trackpoint>
          <Trackpoint>
            <Time>2022-06-16T06:33:35.000Z</Time>
            <Position>
              <LatitudeDegrees>36.7923306114971637725830078125</LatitudeDegrees>
              <LongitudeDegrees>-4.3963660486042499542236328125</LongitudeDegrees>
            </Position>
            <AltitudeMeters>461.20001220703125</AltitudeMeters>
            <DistanceMeters>6815.3816428195</DistanceMeters>
          </Trackpoint>
          <Trackpoint>
            <Time>2022-06-16T06:33:36.000Z</Time>
            <Position>
              <LatitudeDegrees>36.79232616908848285675048828125</LatitudeDegrees>
              <LongitudeDegrees>-4.39638323150575160980224609375</LongitudeDegrees>
            </Position>
            <AltitudeMeters>461.399993896484375</AltitudeMeters>
            <DistanceMeters>6816.9886903804</DistanceMeters>
          </Trackpoint>
          <Trackpoint>
            <Time>2022-06-16T06:33:37.000Z</Time>
            <Position>
              <LatitudeDegrees>36.7923215590417385101318359375</LatitudeDegrees>
              <LongitudeDegrees>-4.3963992409408092498779296875</LongitudeDegrees>
            </Position>
            <AltitudeMeters>461.399993896484375</AltitudeMeters>
            <DistanceMeters>6818.5061453199</DistanceMeters>
          </Trackpoint>
          <Trackpoint>
            <Time>2022-06-16T06:33:40.000Z</Time>
            <Position>
              <LatitudeDegrees>36.79229482077062129974365234375</LatitudeDegrees>
              <LongitudeDegrees>-4.396441318094730377197265625</LongitudeDegrees>
            </Position>
            <AltitudeMeters>461</AltitudeMeters>
            <DistanceMeters>6823.2953408857</DistanceMeters>
          </Trackpoint>
          <Trackpoint>
            <Time>2022-06-16T06:33:41.000Z</Time>
            <Position>
              <LatitudeDegrees>36.792282164096832275390625</LatitudeDegrees>
              <LongitudeDegrees>-4.3964525498449802398681640625</LongitudeDegrees>
            </Position>
            <AltitudeMeters>460.79998779296875</AltitudeMeters>
            <DistanceMeters>6825.0215868782</DistanceMeters>
          </Trackpoint>
          <Trackpoint>
            <Time>2022-06-16T06:33:50.000Z</Time>
            <Position>
              <LatitudeDegrees>36.7921601235866546630859375</LatitudeDegrees>
              <LongitudeDegrees>-4.39654852263629436492919921875</LongitudeDegrees>
            </Position>
            <AltitudeMeters>458.600006103515625</AltitudeMeters>
            <DistanceMeters>6841.0737901951</DistanceMeters>
          </Trackpoint>
          <Trackpoint>
            <Time>2022-06-16T06:33:57.000Z</Time>
            <Position>
              <LatitudeDegrees>36.79209566675126552581787109375</LatitudeDegrees>
              <LongitudeDegrees>-4.3966327607631683349609375</LongitudeDegrees>
            </Position>
            <AltitudeMeters>458</AltitudeMeters>
            <DistanceMeters>6851.4582580627</DistanceMeters>
          </Trackpoint>
          <Trackpoint>
            <Time>2022-06-16T06:34:00.000Z</Time>
            <Position>
              <LatitudeDegrees>36.792073287069797515869140625</LatitudeDegrees>
              <LongitudeDegrees>-4.39667793922126293182373046875</LongitudeDegrees>
            </Position>
            <AltitudeMeters>458</AltitudeMeters>
            <DistanceMeters>6856.1943651019</DistanceMeters>
          </Trackpoint>
          <Trackpoint>
            <Time>2022-06-16T06:34:10.000Z</Time>
            <Position>
              <LatitudeDegrees>36.7920137755572795867919921875</LatitudeDegrees>
              <LongitudeDegrees>-4.39682210795581340789794921875</LongitudeDegrees>
            </Position>
            <AltitudeMeters>458.79998779296875</AltitudeMeters>
            <DistanceMeters>6870.6509237941</DistanceMeters>
          </Trackpoint>
          <Trackpoint>
            <Time>2022-06-16T06:34:17.000Z</Time>
            <Position>
              <LatitudeDegrees>36.79195049218833446502685546875</LatitudeDegrees>
              <LongitudeDegrees>-4.39690911211073398590087890625</LongitudeDegrees>
            </Position>
            <AltitudeMeters>458</AltitudeMeters>
            <DistanceMeters>6881.1267301603</DistanceMeters>
          </Trackpoint>
          <Trackpoint>
            <Time>2022-06-16T06:34:19.000Z</Time>
            <Position>
              <LatitudeDegrees>36.7919259332120418548583984375</LatitudeDegrees>
              <LongitudeDegrees>-4.3969313241541385650634765625</LongitudeDegrees>
            </Position>
            <AltitudeMeters>457.20001220703125</AltitudeMeters>
            <DistanceMeters>6884.4998439027</DistanceMeters>
          </Trackpoint>
          <Trackpoint>
            <Time>2022-06-16T06:34:20.000Z</Time>
            <Position>
              <LatitudeDegrees>36.7919202335178852081298828125</LatitudeDegrees>
              <LongitudeDegrees>-4.396947585046291351318359375</LongitudeDegrees>
            </Position>
            <AltitudeMeters>457</AltitudeMeters>
            <DistanceMeters>6886.0842558604</DistanceMeters>
          </Trackpoint>
          <Trackpoint>
            <Time>2022-06-16T06:34:22.000Z</Time>
            <Position>
              <LatitudeDegrees>36.791911683976650238037109375</LatitudeDegrees>
              <LongitudeDegrees>-4.3969822861254215240478515625</LongitudeDegrees>
            </Position>
            <AltitudeMeters>457</AltitudeMeters>
            <DistanceMeters>6889.3207491285</DistanceMeters>
          </Trackpoint>
          <Trackpoint>
            <Time>2022-06-16T06:34:23.000Z</Time>
            <Position>
              <LatitudeDegrees>36.79190791212022304534912109375</LatitudeDegrees>
              <LongitudeDegrees>-4.3969963677227497100830078125</LongitudeDegrees>
            </Position>
            <AltitudeMeters>457</AltitudeMeters>
            <DistanceMeters>6890.644318103</DistanceMeters>
          </Trackpoint>
          <Trackpoint>
            <Time>2022-06-16T06:34:24.000Z</Time>
            <Position>
              <LatitudeDegrees>36.79190623573958873748779296875</LatitudeDegrees>
              <LongitudeDegrees>-4.39701070077717304229736328125</LongitudeDegrees>
            </Position>
            <AltitudeMeters>457</AltitudeMeters>
            <DistanceMeters>6891.9403096996</DistanceMeters>
          </Trackpoint>
          <Trackpoint>
            <Time>2022-06-16T06:34:28.000Z</Time>
            <Position>
              <LatitudeDegrees>36.791888885200023651123046875</LatitudeDegrees>
              <LongitudeDegrees>-4.39706870354712009429931640625</LongitudeDegrees>
            </Position>
            <AltitudeMeters>456.600006103515625</AltitudeMeters>
            <DistanceMeters>6897.4600450123</DistanceMeters>
          </Trackpoint>
          <Trackpoint>
            <Time>2022-06-16T06:34:30.000Z</Time>
            <Position>
              <LatitudeDegrees>36.791885197162628173828125</LatitudeDegrees>
              <LongitudeDegrees>-4.3971106968820095062255859375</LongitudeDegrees>
            </Position>
            <AltitudeMeters>456.600006103515625</AltitudeMeters>
            <DistanceMeters>6901.2253099455</DistanceMeters>
          </Trackpoint>
          <Trackpoint>
            <Time>2022-06-16T06:34:35.000Z</Time>
            <Position>
              <LatitudeDegrees>36.79187840782105922698974609375</LatitudeDegrees>
              <LongitudeDegrees>-4.3972102738916873931884765625</LongitudeDegrees>
            </Position>
            <AltitudeMeters>456.79998779296875</AltitudeMeters>
            <DistanceMeters>6910.1325121794</DistanceMeters>
          </Trackpoint>
          <Trackpoint>
            <Time>2022-06-16T06:34:40.000Z</Time>
            <Position>
              <LatitudeDegrees>36.79185963235795497894287109375</LatitudeDegrees>
              <LongitudeDegrees>-4.39729727804660797119140625</LongitudeDegrees>
            </Position>
            <AltitudeMeters>456.399993896484375</AltitudeMeters>
            <DistanceMeters>6918.1643778479</DistanceMeters>
          </Trackpoint>
          <Trackpoint>
            <Time>2022-06-16T06:34:44.000Z</Time>
            <Position>
              <LatitudeDegrees>36.791841946542263031005859375</LatitudeDegrees>
              <LongitudeDegrees>-4.3973655067384243011474609375</LongitudeDegrees>
            </Position>
            <AltitudeMeters>456</AltitudeMeters>
            <DistanceMeters>6924.5559399286</DistanceMeters>
          </Trackpoint>
          <Trackpoint>
            <Time>2022-06-16T06:34:50.000Z</Time>
            <Position>
              <LatitudeDegrees>36.79179123602807521820068359375</LatitudeDegrees>
              <LongitudeDegrees>-4.397456534206867218017578125</LongitudeDegrees>
            </Position>
            <AltitudeMeters>454.399993896484375</AltitudeMeters>
            <DistanceMeters>6934.4396318993</DistanceMeters>
          </Trackpoint>
          <Trackpoint>
            <Time>2022-06-16T06:34:56.000Z</Time>
            <Position>
              <LatitudeDegrees>36.79174463264644145965576171875</LatitudeDegrees>
              <LongitudeDegrees>-4.39755451865494251251220703125</LongitudeDegrees>
            </Position>
            <AltitudeMeters>453.79998779296875</AltitudeMeters>
            <DistanceMeters>6944.5981610055</DistanceMeters>
          </Trackpoint>
          <Trackpoint>
            <Time>2022-06-16T06:34:59.000Z</Time>
            <Position>
              <LatitudeDegrees>36.79172493517398834228515625</LatitudeDegrees>
              <LongitudeDegrees>-4.39760095439851284027099609375</LongitudeDegrees>
            </Position>
            <AltitudeMeters>453.79998779296875</AltitudeMeters>
            <DistanceMeters>6949.2825057578</DistanceMeters>
          </Trackpoint>
          <Trackpoint>
            <Time>2022-06-16T06:35:00.000Z</Time>
            <Position>
              <LatitudeDegrees>36.79171663708984851837158203125</LatitudeDegrees>
              <LongitudeDegrees>-4.3976152874529361724853515625</LongitudeDegrees>
            </Position>
            <AltitudeMeters>453.600006103515625</AltitudeMeters>
            <DistanceMeters>6950.8612081042</DistanceMeters>
          </Trackpoint>
          <Trackpoint>
            <Time>2022-06-16T06:35:10.000Z</Time>
            <Position>
              <LatitudeDegrees>36.7916359193623065948486328125</LatitudeDegrees>
              <LongitudeDegrees>-4.3977644853293895721435546875</LongitudeDegrees>
            </Position>
            <AltitudeMeters>452.79998779296875</AltitudeMeters>
            <DistanceMeters>6966.9097544663</DistanceMeters>
          </Trackpoint>
          <Trackpoint>
            <Time>2022-06-16T06:35:13.000Z</Time>
            <Position>
              <LatitudeDegrees>36.7916107736527919769287109375</LatitudeDegrees>
              <LongitudeDegrees>-4.39780664630234241485595703125</LongitudeDegrees>
            </Position>
            <AltitudeMeters>452.399993896484375</AltitudeMeters>
            <DistanceMeters>6971.5940992186</DistanceMeters>
          </Trackpoint>
          <Trackpoint>
            <Time>2022-06-16T06:35:18.000Z</Time>
            <Position>
              <LatitudeDegrees>36.79165896959602832794189453125</LatitudeDegrees>
              <LongitudeDegrees>-4.39792231656610965728759765625</LongitudeDegrees>
            </Position>
            <AltitudeMeters>454.399993896484375</AltitudeMeters>
            <DistanceMeters>6983.2161422167</DistanceMeters>
          </Trackpoint>
          <Trackpoint>
            <Time>2022-06-16T06:35:20.000Z</Time>
            <Position>
              <LatitudeDegrees>36.79167640395462512969970703125</LatitudeDegrees>
              <LongitudeDegrees>-4.3979604542255401611328125</LongitudeDegrees>
            </Position>
            <AltitudeMeters>455</AltitudeMeters>
            <DistanceMeters>6987.1307353916</DistanceMeters>
          </Trackpoint>
          <Trackpoint>
            <Time>2022-06-16T06:35:29.000Z</Time>
            <Position>
              <LatitudeDegrees>36.79179090075194835662841796875</LatitudeDegrees>
              <LongitudeDegrees>-4.39809682779014110565185546875</LongitudeDegrees>
            </Position>
            <AltitudeMeters>457</AltitudeMeters>
            <DistanceMeters>7004.7419828097</DistanceMeters>
          </Trackpoint>
          <Trackpoint>
            <Time>2022-06-16T06:35:30.000Z</Time>
            <Position>
              <LatitudeDegrees>36.791802383959293365478515625</LatitudeDegrees>
              <LongitudeDegrees>-4.39811040647327899932861328125</LongitudeDegrees>
            </Position>
            <AltitudeMeters>457.20001220703125</AltitudeMeters>
            <DistanceMeters>7006.5044658016</DistanceMeters>
          </Trackpoint>
          <Trackpoint>
            <Time>2022-06-16T06:35:33.000Z</Time>
            <Position>
              <LatitudeDegrees>36.79185460321605205535888671875</LatitudeDegrees>
              <LongitudeDegrees>-4.39816069789230823516845703125</LongitudeDegrees>
            </Position>
            <AltitudeMeters>457.79998779296875</AltitudeMeters>
            <DistanceMeters>7013.8443183931</DistanceMeters>
          </Trackpoint>
          <Trackpoint>
            <Time>2022-06-16T06:35:36.000Z</Time>
            <Position>
              <LatitudeDegrees>36.79189399816095829010009765625</LatitudeDegrees>
              <LongitudeDegrees>-4.398200847208499908447265625</LongitudeDegrees>
            </Position>
            <AltitudeMeters>458</AltitudeMeters>
            <DistanceMeters>7019.5029976622</DistanceMeters>
          </Trackpoint>
          <Trackpoint>
            <Time>2022-06-16T06:35:40.000Z</Time>
            <Position>
              <LatitudeDegrees>36.7919403500854969024658203125</LatitudeDegrees>
              <LongitudeDegrees>-4.39825792796909809112548828125</LongitudeDegrees>
            </Position>
            <AltitudeMeters>458</AltitudeMeters>
            <DistanceMeters>7026.7493687899</DistanceMeters>
          </Trackpoint>
          <Trackpoint>
            <Time>2022-06-16T06:35:41.000Z</Time>
            <Position>
              <LatitudeDegrees>36.79195652715861797332763671875</LatitudeDegrees>
              <LongitudeDegrees>-4.39827083609998226165771484375</LongitudeDegrees>
            </Position>
            <AltitudeMeters>458.20001220703125</AltitudeMeters>
            <DistanceMeters>7028.8869418719</DistanceMeters>
          </Trackpoint>
          <Trackpoint>
            <Time>2022-06-16T06:35:44.000Z</Time>
            <Position>
              <LatitudeDegrees>36.791992485523223876953125</LatitudeDegrees>
              <LongitudeDegrees>-4.39830704592168331146240234375</LongitudeDegrees>
            </Position>
            <AltitudeMeters>458.20001220703125</AltitudeMeters>
            <DistanceMeters>7034.0289321313</DistanceMeters>
          </Trackpoint>
          <Trackpoint>
            <Time>2022-06-16T06:35:50.000Z</Time>
            <Position>
              <LatitudeDegrees>36.79207152687013149261474609375</LatitudeDegrees>
              <LongitudeDegrees>-4.39835540950298309326171875</LongitudeDegrees>
            </Position>
            <AltitudeMeters>459.20001220703125</AltitudeMeters>
            <DistanceMeters>7043.8263661116</DistanceMeters>
          </Trackpoint>
          <Trackpoint>
            <Time>2022-06-16T06:35:51.000Z</Time>
            <Position>
              <LatitudeDegrees>36.79208678193390369415283203125</LatitudeDegrees>
              <LongitudeDegrees>-4.39836169593036174774169921875</LongitudeDegrees>
            </Position>
            <AltitudeMeters>459.600006103515625</AltitudeMeters>
            <DistanceMeters>7045.6193265725</DistanceMeters>
          </Trackpoint>
          <Trackpoint>
            <Time>2022-06-16T06:36:00.000Z</Time>
            <Position>
              <LatitudeDegrees>36.79222692735493183135986328125</LatitudeDegrees>
              <LongitudeDegrees>-4.3984159268438816070556640625</LongitudeDegrees>
            </Position>
            <AltitudeMeters>462.399993896484375</AltitudeMeters>
            <DistanceMeters>7061.9498271043</DistanceMeters>
          </Trackpoint>
          <Trackpoint>
            <Time>2022-06-16T06:36:01.000Z</Time>
            <Position>
              <LatitudeDegrees>36.79224184714257717132568359375</LatitudeDegrees>
              <LongitudeDegrees>-4.39841852523386478424072265625</LongitudeDegrees>
            </Position>
            <AltitudeMeters>462.79998779296875</AltitudeMeters>
            <DistanceMeters>7063.6256414657</DistanceMeters>
          </Trackpoint>
          <Trackpoint>
            <Time>2022-06-16T06:36:10.000Z</Time>
            <Position>
              <LatitudeDegrees>36.79236304946243762969970703125</LatitudeDegrees>
              <LongitudeDegrees>-4.3984192796051502227783203125</LongitudeDegrees>
            </Position>
            <AltitudeMeters>465.79998779296875</AltitudeMeters>
            <DistanceMeters>7077.1160884802</DistanceMeters>
          </Trackpoint>
          <Trackpoint>
            <Time>2022-06-16T06:36:13.000Z</Time>
            <Position>
              <LatitudeDegrees>36.7923980019986629486083984375</LatitudeDegrees>
              <LongitudeDegrees>-4.398443587124347686767578125</LongitudeDegrees>
            </Position>
            <AltitudeMeters>466</AltitudeMeters>
            <DistanceMeters>7081.5691826709</DistanceMeters>
          </Trackpoint>
          <Trackpoint>
            <Time>2022-06-16T06:36:20.000Z</Time>
            <Position>
              <LatitudeDegrees>36.79243261925876140594482421875</LatitudeDegrees>
              <LongitudeDegrees>-4.39855095930397510528564453125</LongitudeDegrees>
            </Position>
            <AltitudeMeters>465.20001220703125</AltitudeMeters>
            <DistanceMeters>7091.8864759749</DistanceMeters>
          </Trackpoint>
          <Trackpoint>
            <Time>2022-06-16T06:36:21.000Z</Time>
            <Position>
              <LatitudeDegrees>36.7924342118203639984130859375</LatitudeDegrees>
              <LongitudeDegrees>-4.39856420271098613739013671875</LongitudeDegrees>
            </Position>
            <AltitudeMeters>465</AltitudeMeters>
            <DistanceMeters>7093.0809432529</DistanceMeters>
          </Trackpoint>
          <Trackpoint>
            <Time>2022-06-16T06:36:27.000Z</Time>
            <Position>
              <LatitudeDegrees>36.7924147658050060272216796875</LatitudeDegrees>
              <LongitudeDegrees>-4.3986764363944530487060546875</LongitudeDegrees>
            </Position>
            <AltitudeMeters>463.600006103515625</AltitudeMeters>
            <DistanceMeters>7103.3160747531</DistanceMeters>
          </Trackpoint>
          <Trackpoint>
            <Time>2022-06-16T06:36:30.000Z</Time>
            <Position>
              <LatitudeDegrees>36.792403198778629302978515625</LatitudeDegrees>
              <LongitudeDegrees>-4.3987149931490421295166015625</LongitudeDegrees>
            </Position>
            <AltitudeMeters>463</AltitudeMeters>
            <DistanceMeters>7106.9866161375</DistanceMeters>
          </Trackpoint>
          <Trackpoint>
            <Time>2022-06-16T06:36:40.000Z</Time>
            <Position>
              <LatitudeDegrees>36.79231778718531131744384765625</LatitudeDegrees>
              <LongitudeDegrees>-4.39883954823017120361328125</LongitudeDegrees>
            </Position>
            <AltitudeMeters>459.600006103515625</AltitudeMeters>
            <DistanceMeters>7121.6028245552</DistanceMeters>
          </Trackpoint>
          <Trackpoint>
            <Time>2022-06-16T06:36:44.000Z</Time>
            <Position>
              <LatitudeDegrees>36.79230420850217342376708984375</LatitudeDegrees>
              <LongitudeDegrees>-4.3988911807537078857421875</LongitudeDegrees>
            </Position>
            <AltitudeMeters>459</AltitudeMeters>
            <DistanceMeters>7126.4463912784</DistanceMeters>
          </Trackpoint>
          <Trackpoint>
            <Time>2022-06-16T06:36:50.000Z</Time>
            <Position>
              <LatitudeDegrees>36.79225341416895389556884765625</LatitudeDegrees>
              <LongitudeDegrees>-4.398967288434505462646484375</LongitudeDegrees>
            </Position>
            <AltitudeMeters>456.79998779296875</AltitudeMeters>
            <DistanceMeters>7135.2772315651</DistanceMeters>
          </Trackpoint>
          <Trackpoint>
            <Time>2022-06-16T06:36:51.000Z</Time>
            <Position>
              <LatitudeDegrees>36.7922437749803066253662109375</LatitudeDegrees>
              <LongitudeDegrees>-4.39898044802248477935791015625</LongitudeDegrees>
            </Position>
            <AltitudeMeters>456.399993896484375</AltitudeMeters>
            <DistanceMeters>7136.8673326324</DistanceMeters>
          </Trackpoint>
          <Trackpoint>
            <Time>2022-06-16T06:37:00.000Z</Time>
            <Position>
              <LatitudeDegrees>36.79216523654758930206298828125</LatitudeDegrees>
              <LongitudeDegrees>-4.39907616935670375823974609375</LongitudeDegrees>
            </Position>
            <AltitudeMeters>453.20001220703125</AltitudeMeters>
            <DistanceMeters>7149.0822396351</DistanceMeters>
          </Trackpoint>
          <Trackpoint>
            <Time>2022-06-16T06:37:10.000Z</Time>
            <Position>
              <LatitudeDegrees>36.79211880080401897430419921875</LatitudeDegrees>
              <LongitudeDegrees>-4.3992222659289836883544921875</LongitudeDegrees>
            </Position>
            <AltitudeMeters>451</AltitudeMeters>
            <DistanceMeters>7163.0928</DistanceMeters>
          </Trackpoint>
          <Trackpoint>
            <Time>2022-06-16T06:37:11.000Z</Time>
            <Position>
              <LatitudeDegrees>36.7921056412160396575927734375</LatitudeDegrees>
              <LongitudeDegrees>-4.39922922290861606597900390625</LongitudeDegrees>
            </Position>
            <AltitudeMeters>450.600006103515625</AltitudeMeters>
            <DistanceMeters>7164.6829010673</DistanceMeters>
          </Trackpoint>
          <Trackpoint>
            <Time>2022-06-16T06:37:13.000Z</Time>
            <Position>
              <LatitudeDegrees>36.792096756398677825927734375</LatitudeDegrees>
              <LongitudeDegrees>-4.39924984239041805267333984375</LongitudeDegrees>
            </Position>
            <AltitudeMeters>450.20001220703125</AltitudeMeters>
            <DistanceMeters>7166.7691649159</DistanceMeters>
          </Trackpoint>
          <Trackpoint>
            <Time>2022-06-16T06:37:19.000Z</Time>
            <Position>
              <LatitudeDegrees>36.7920996062457561492919921875</LatitudeDegrees>
              <LongitudeDegrees>-4.3993365950882434844970703125</LongitudeDegrees>
            </Position>
            <AltitudeMeters>450</AltitudeMeters>
            <DistanceMeters>7174.5078642237</DistanceMeters>
          </Trackpoint>
          <Trackpoint>
            <Time>2022-06-16T06:37:20.000Z</Time>
            <Position>
              <LatitudeDegrees>36.792087368667125701904296875</LatitudeDegrees>
              <LongitudeDegrees>-4.39935319125652313232421875</LongitudeDegrees>
            </Position>
            <AltitudeMeters>449.399993896484375</AltitudeMeters>
            <DistanceMeters>7176.5192006567</DistanceMeters>
          </Trackpoint>
          <Trackpoint>
            <Time>2022-06-16T06:37:30.000Z</Time>
            <Position>
              <LatitudeDegrees>36.7920421063899993896484375</LatitudeDegrees>
              <LongitudeDegrees>-4.3994987010955810546875</LongitudeDegrees>
            </Position>
            <AltitudeMeters>447</AltitudeMeters>
            <DistanceMeters>7190.433071753</DistanceMeters>
          </Trackpoint>
          <Trackpoint>
            <Time>2022-06-16T06:37:40.000Z</Time>
            <Position>
              <LatitudeDegrees>36.792065240442752838134765625</LatitudeDegrees>
              <LongitudeDegrees>-4.39964010380208492279052734375</LongitudeDegrees>
            </Position>
            <AltitudeMeters>447</AltitudeMeters>
            <DistanceMeters>7203.2971761101</DistanceMeters>
          </Trackpoint>
          <Trackpoint>
            <Time>2022-06-16T06:37:48.000Z</Time>
            <Position>
              <LatitudeDegrees>36.79210706613957881927490234375</LatitudeDegrees>
              <LongitudeDegrees>-4.3997623957693576812744140625</LongitudeDegrees>
            </Position>
            <AltitudeMeters>447.20001220703125</AltitudeMeters>
            <DistanceMeters>7215.1500208874</DistanceMeters>
          </Trackpoint>
          <Trackpoint>
            <Time>2022-06-16T06:37:50.000Z</Time>
            <Position>
              <LatitudeDegrees>36.79211787879467010498046875</LatitudeDegrees>
              <LongitudeDegrees>-4.3997942470014095306396484375</LongitudeDegrees>
            </Position>
            <AltitudeMeters>447.20001220703125</AltitudeMeters>
            <DistanceMeters>7218.2350979646</DistanceMeters>
          </Trackpoint>
          <Trackpoint>
            <Time>2022-06-16T06:37:59.000Z</Time>
            <Position>
              <LatitudeDegrees>36.7921260930597782135009765625</LatitudeDegrees>
              <LongitudeDegrees>-4.3998378328979015350341796875</LongitudeDegrees>
            </Position>
            <AltitudeMeters>447</AltitudeMeters>
            <DistanceMeters>7222.2262199681</DistanceMeters>
          </Trackpoint>
          <Trackpoint>
            <Time>2022-06-16T06:38:00.000Z</Time>
            <Position>
              <LatitudeDegrees>36.79212751798331737518310546875</LatitudeDegrees>
              <LongitudeDegrees>-4.3998368270695209503173828125</LongitudeDegrees>
            </Position>
            <AltitudeMeters>447.20001220703125</AltitudeMeters>
            <DistanceMeters>7222.4162733969</DistanceMeters>
          </Trackpoint>
          <Trackpoint>
            <Time>2022-06-16T06:38:10.000Z</Time>
            <Position>
              <LatitudeDegrees>36.79212416522204875946044921875</LatitudeDegrees>
              <LongitudeDegrees>-4.39989239908754825592041015625</LongitudeDegrees>
            </Position>
            <AltitudeMeters>446.399993896484375</AltitudeMeters>
            <DistanceMeters>7227.3831807691</DistanceMeters>
          </Trackpoint>
          <Trackpoint>
            <Time>2022-06-16T06:38:20.000Z</Time>
            <Position>
              <LatitudeDegrees>36.7921492271125316619873046875</LatitudeDegrees>
              <LongitudeDegrees>-4.39999759197235107421875</LongitudeDegrees>
            </Position>
            <AltitudeMeters>446.600006103515625</AltitudeMeters>
            <DistanceMeters>7237.1653952463</DistanceMeters>
          </Trackpoint>
          <Trackpoint>
            <Time>2022-06-16T06:38:27.000Z</Time>
            <Position>
              <LatitudeDegrees>36.7921787314116954803466796875</LatitudeDegrees>
              <LongitudeDegrees>-4.4001120887696743011474609375</LongitudeDegrees>
            </Position>
            <AltitudeMeters>447.79998779296875</AltitudeMeters>
            <DistanceMeters>7247.8861607497</DistanceMeters>
          </Trackpoint>
          <Trackpoint>
            <Time>2022-06-16T06:38:30.000Z</Time>
            <Position>
              <LatitudeDegrees>36.79218669421970844268798828125</LatitudeDegrees>
              <LongitudeDegrees>-4.40013027749955654144287109375</LongitudeDegrees>
            </Position>
            <AltitudeMeters>447.79998779296875</AltitudeMeters>
            <DistanceMeters>7249.7336912354</DistanceMeters>
          </Trackpoint>
          <Trackpoint>
            <Time>2022-06-16T06:38:40.000Z</Time>
            <Position>
              <LatitudeDegrees>36.79217286407947540283203125</LatitudeDegrees>
              <LongitudeDegrees>-4.40015106461942195892333984375</LongitudeDegrees>
            </Position>
            <AltitudeMeters>447.20001220703125</AltitudeMeters>
            <DistanceMeters>7252.1414514139</DistanceMeters>
          </Trackpoint>
          <Trackpoint>
            <Time>2022-06-16T06:38:50.000Z</Time>
            <Position>
              <LatitudeDegrees>36.79214227013289928436279296875</LatitudeDegrees>
              <LongitudeDegrees>-4.39999734051525592803955078125</LongitudeDegrees>
            </Position>
            <AltitudeMeters>446.20001220703125</AltitudeMeters>
            <DistanceMeters>7266.2595560086</DistanceMeters>
          </Trackpoint>
          <Trackpoint>
            <Time>2022-06-16T06:38:54.000Z</Time>
            <Position>
              <LatitudeDegrees>36.7921750433743000030517578125</LatitudeDegrees>
              <LongitudeDegrees>-4.399968087673187255859375</LongitudeDegrees>
            </Position>
            <AltitudeMeters>447.399993896484375</AltitudeMeters>
            <DistanceMeters>7270.7429643287</DistanceMeters>
          </Trackpoint>
          <Trackpoint>
            <Time>2022-06-16T06:39:00.000Z</Time>
            <Position>
              <LatitudeDegrees>36.79220379330217838287353515625</LatitudeDegrees>
              <LongitudeDegrees>-4.39992726780474185943603515625</LongitudeDegrees>
            </Position>
            <AltitudeMeters>449</AltitudeMeters>
            <DistanceMeters>7275.5883950375</DistanceMeters>
          </Trackpoint>
          <Trackpoint>
            <Time>2022-06-16T06:39:05.000Z</Time>
            <Position>
              <LatitudeDegrees>36.79222491569817066192626953125</LatitudeDegrees>
              <LongitudeDegrees>-4.399896673858165740966796875</LongitudeDegrees>
            </Position>
            <AltitudeMeters>450</AltitudeMeters>
            <DistanceMeters>7279.1868849459</DistanceMeters>
          </Trackpoint>
          <Trackpoint>
            <Time>2022-06-16T06:39:10.000Z</Time>
            <Position>
              <LatitudeDegrees>36.79225609637796878814697265625</LatitudeDegrees>
              <LongitudeDegrees>-4.39986658282577991485595703125</LongitudeDegrees>
            </Position>
            <AltitudeMeters>451.399993896484375</AltitudeMeters>
            <DistanceMeters>7283.5725505539</DistanceMeters>
          </Trackpoint>
          <Trackpoint>
            <Time>2022-06-16T06:39:20.000Z</Time>
            <Position>
              <LatitudeDegrees>36.7923007719218730926513671875</LatitudeDegrees>
              <LongitudeDegrees>-4.39975946210324764251708984375</LongitudeDegrees>
            </Position>
            <AltitudeMeters>454.20001220703125</AltitudeMeters>
            <DistanceMeters>7294.3378652768</DistanceMeters>
          </Trackpoint>
          <Trackpoint>
            <Time>2022-06-16T06:39:21.000Z</Time>
            <Position>
              <LatitudeDegrees>36.79230286739766597747802734375</LatitudeDegrees>
              <LongitudeDegrees>-4.39974823035299777984619140625</LongitudeDegrees>
            </Position>
            <AltitudeMeters>454.399993896484375</AltitudeMeters>
            <DistanceMeters>7295.3701196158</DistanceMeters>
          </Trackpoint>
          <Trackpoint>
            <Time>2022-06-16T06:39:27.000Z</Time>
            <Position>
              <LatitudeDegrees>36.79231275804340839385986328125</LatitudeDegrees>
              <LongitudeDegrees>-4.3996879644691944122314453125</LongitudeDegrees>
            </Position>
            <AltitudeMeters>455.20001220703125</AltitudeMeters>
            <DistanceMeters>7300.8545689623</DistanceMeters>
          </Trackpoint>
          <Trackpoint>
            <Time>2022-06-16T06:39:28.000Z</Time>
            <Position>
              <LatitudeDegrees>36.79231108166277408599853515625</LatitudeDegrees>
              <LongitudeDegrees>-4.39967765472829341888427734375</LongitudeDegrees>
            </Position>
            <AltitudeMeters>455.20001220703125</AltitudeMeters>
            <DistanceMeters>7301.7952854401</DistanceMeters>
          </Trackpoint>
          <Trackpoint>
            <Time>2022-06-16T06:39:29.000Z</Time>
            <Position>
              <LatitudeDegrees>36.79230756126344203948974609375</LatitudeDegrees>
              <LongitudeDegrees>-4.3996636569499969482421875</LongitudeDegrees>
            </Position>
            <AltitudeMeters>455.399993896484375</AltitudeMeters>
            <DistanceMeters>7303.1051383037</DistanceMeters>
          </Trackpoint>
          <Trackpoint>
            <Time>2022-06-16T06:39:30.000Z</Time>
            <Position>
              <LatitudeDegrees>36.79230471141636371612548828125</LatitudeDegrees>
              <LongitudeDegrees>-4.39965301193296909332275390625</LongitudeDegrees>
            </Position>
            <AltitudeMeters>455.399993896484375</AltitudeMeters>
            <DistanceMeters>7304.1017868921</DistanceMeters>
          </Trackpoint>
          <Trackpoint>
            <Time>2022-06-16T06:39:40.000Z</Time>
            <Position>
              <LatitudeDegrees>36.7923104949295520782470703125</LatitudeDegrees>
              <LongitudeDegrees>-4.3995429575443267822265625</LongitudeDegrees>
            </Position>
            <AltitudeMeters>456.79998779296875</AltitudeMeters>
            <DistanceMeters>7313.9323452742</DistanceMeters>
          </Trackpoint>
          <Trackpoint>
            <Time>2022-06-16T06:39:50.000Z</Time>
            <Position>
              <LatitudeDegrees>36.7923329584300518035888671875</LatitudeDegrees>
              <LongitudeDegrees>-4.39946039579808712005615234375</LongitudeDegrees>
            </Position>
            <AltitudeMeters>458</AltitudeMeters>
            <DistanceMeters>7321.7048102249</DistanceMeters>
          </Trackpoint>
          <Trackpoint>
            <Time>2022-06-16T06:40:00.000Z</Time>
            <Position>
              <LatitudeDegrees>36.792332120239734649658203125</LatitudeDegrees>
              <LongitudeDegrees>-4.39945268444716930389404296875</LongitudeDegrees>
            </Position>
            <AltitudeMeters>458</AltitudeMeters>
            <DistanceMeters>7322.3966151479</DistanceMeters>
          </Trackpoint>
          <Trackpoint>
            <Time>2022-06-16T06:40:10.000Z</Time>
            <Position>
              <LatitudeDegrees>36.79233253933489322662353515625</LatitudeDegrees>
              <LongitudeDegrees>-4.3994542770087718963623046875</LongitudeDegrees>
            </Position>
            <AltitudeMeters>458</AltitudeMeters>
            <DistanceMeters>7322.5310032162</DistanceMeters>
          </Trackpoint>
          <Trackpoint>
            <Time>2022-06-16T06:40:20.000Z</Time>
            <Position>
              <LatitudeDegrees>36.792320050299167633056640625</LatitudeDegrees>
              <LongitudeDegrees>-4.39950381405651569366455078125</LongitudeDegrees>
            </Position>
            <AltitudeMeters>457.20001220703125</AltitudeMeters>
            <DistanceMeters>7327.1600821096</DistanceMeters>
          </Trackpoint>
          <Trackpoint>
            <Time>2022-06-16T06:40:28.000Z</Time>
            <Position>
              <LatitudeDegrees>36.7923017777502536773681640625</LatitudeDegrees>
              <LongitudeDegrees>-4.39959350042045116424560546875</LongitudeDegrees>
            </Position>
            <AltitudeMeters>456</AltitudeMeters>
            <DistanceMeters>7335.408816922</DistanceMeters>
          </Trackpoint>
          <Trackpoint>
            <Time>2022-06-16T06:40:30.000Z</Time>
            <Position>
              <LatitudeDegrees>36.79230135865509510040283203125</LatitudeDegrees>
              <LongitudeDegrees>-4.3996192328631877899169921875</LongitudeDegrees>
            </Position>
            <AltitudeMeters>455.79998779296875</AltitudeMeters>
            <DistanceMeters>7337.7013056331</DistanceMeters>
          </Trackpoint>
          <Trackpoint>
            <Time>2022-06-16T06:40:40.000Z</Time>
            <Position>
              <LatitudeDegrees>36.7922749556601047515869140625</LatitudeDegrees>
              <LongitudeDegrees>-4.3997171334922313690185546875</LongitudeDegrees>
            </Position>
            <AltitudeMeters>453.79998779296875</AltitudeMeters>
            <DistanceMeters>7346.909095147</DistanceMeters>
          </Trackpoint>
          <Trackpoint>
            <Time>2022-06-16T06:40:44.000Z</Time>
            <Position>
              <LatitudeDegrees>36.79226431064307689666748046875</LatitudeDegrees>
              <LongitudeDegrees>-4.39975644461810588836669921875</LongitudeDegrees>
            </Position>
            <AltitudeMeters>453</AltitudeMeters>
            <DistanceMeters>7350.609040537</DistanceMeters>
          </Trackpoint>
          <Trackpoint>
            <Time>2022-06-16T06:40:50.000Z</Time>
            <Position>
              <LatitudeDegrees>36.79222022183239459991455078125</LatitudeDegrees>
              <LongitudeDegrees>-4.39981025643646717071533203125</LongitudeDegrees>
            </Position>
            <AltitudeMeters>450.79998779296875</AltitudeMeters>
            <DistanceMeters>7357.4720485314</DistanceMeters>
          </Trackpoint>
          <Trackpoint>
            <Time>2022-06-16T06:41:00.000Z</Time>
            <Position>
              <LatitudeDegrees>36.79215853102505207061767578125</LatitudeDegrees>
              <LongitudeDegrees>-4.39987362362444400787353515625</LongitudeDegrees>
            </Position>
            <AltitudeMeters>447.79998779296875</AltitudeMeters>
            <DistanceMeters>7366.36301525</DistanceMeters>
          </Trackpoint>
          <Trackpoint>
            <Time>2022-06-16T06:41:10.000Z</Time>
            <Position>
              <LatitudeDegrees>36.79218702949583530426025390625</LatitudeDegrees>
              <LongitudeDegrees>-4.399997927248477935791015625</LongitudeDegrees>
            </Position>
            <AltitudeMeters>448</AltitudeMeters>
            <DistanceMeters>7377.8875267076</DistanceMeters>
          </Trackpoint>
          <Trackpoint>
            <Time>2022-06-16T06:41:20.000Z</Time>
            <Position>
              <LatitudeDegrees>36.79231342859566211700439453125</LatitudeDegrees>
              <LongitudeDegrees>-4.400034807622432708740234375</LongitudeDegrees>
            </Position>
            <AltitudeMeters>451.20001220703125</AltitudeMeters>
            <DistanceMeters>7392.3347128325</DistanceMeters>
          </Trackpoint>
          <Trackpoint>
            <Time>2022-06-16T06:41:30.000Z</Time>
            <Position>
              <LatitudeDegrees>36.79244552738964557647705078125</LatitudeDegrees>
              <LongitudeDegrees>-4.39997278153896331787109375</LongitudeDegrees>
            </Position>
            <AltitudeMeters>451</AltitudeMeters>
            <DistanceMeters>7408.0426028485</DistanceMeters>
          </Trackpoint>
          <Trackpoint>
            <Time>2022-06-16T06:41:40.000Z</Time>
            <Position>
              <LatitudeDegrees>36.79255465976893901824951171875</LatitudeDegrees>
              <LongitudeDegrees>-4.3998675048351287841796875</LongitudeDegrees>
            </Position>
            <AltitudeMeters>452.79998779296875</AltitudeMeters>
            <DistanceMeters>7423.3914029431</DistanceMeters>
          </Trackpoint>
          <Trackpoint>
            <Time>2022-06-16T06:41:50.000Z</Time>
            <Position>
              <LatitudeDegrees>36.7926658876240253448486328125</LatitudeDegrees>
              <LongitudeDegrees>-4.39977832138538360595703125</LongitudeDegrees>
            </Position>
            <AltitudeMeters>453</AltitudeMeters>
            <DistanceMeters>7438.103674432</DistanceMeters>
          </Trackpoint>
          <Trackpoint>
            <Time>2022-06-16T06:42:00.000Z</Time>
            <Position>
              <LatitudeDegrees>36.7927728407084941864013671875</LatitudeDegrees>
              <LongitudeDegrees>-4.3996758945286273956298828125</LongitudeDegrees>
            </Position>
            <AltitudeMeters>453.399993896484375</AltitudeMeters>
            <DistanceMeters>7453.1055608205</DistanceMeters>
          </Trackpoint>
          <Trackpoint>
            <Time>2022-06-16T06:42:10.000Z</Time>
            <Position>
              <LatitudeDegrees>36.79288842715322971343994140625</LatitudeDegrees>
              <LongitudeDegrees>-4.3996135331690311431884765625</LongitudeDegrees>
            </Position>
            <AltitudeMeters>452.399993896484375</AltitudeMeters>
            <DistanceMeters>7467.1193434113</DistanceMeters>
          </Trackpoint>
          <Trackpoint>
            <Time>2022-06-16T06:42:15.000Z</Time>
            <Position>
              <LatitudeDegrees>36.79294341243803501129150390625</LatitudeDegrees>
              <LongitudeDegrees>-4.39957019872963428497314453125</LongitudeDegrees>
            </Position>
            <AltitudeMeters>452.399993896484375</AltitudeMeters>
            <DistanceMeters>7474.3563623677</DistanceMeters>
          </Trackpoint>
          <Trackpoint>
            <Time>2022-06-16T06:42:18.000Z</Time>
            <Position>
              <LatitudeDegrees>36.79297325201332569122314453125</LatitudeDegrees>
              <LongitudeDegrees>-4.39954723231494426727294921875</LongitudeDegrees>
            </Position>
            <AltitudeMeters>452.20001220703125</AltitudeMeters>
            <DistanceMeters>7478.2582476664</DistanceMeters>
          </Trackpoint>
          <Trackpoint>
            <Time>2022-06-16T06:42:20.000Z</Time>
            <Position>
              <LatitudeDegrees>36.7929942905902862548828125</LatitudeDegrees>
              <LongitudeDegrees>-4.39953130669891834259033203125</LongitudeDegrees>
            </Position>
            <AltitudeMeters>452.20001220703125</AltitudeMeters>
            <DistanceMeters>7480.9959407552</DistanceMeters>
          </Trackpoint>
          <Trackpoint>
            <Time>2022-06-16T06:42:30.000Z</Time>
            <Position>
              <LatitudeDegrees>36.79309579543769359588623046875</LatitudeDegrees>
              <LongitudeDegrees>-4.3994696997106075286865234375</LongitudeDegrees>
            </Position>
            <AltitudeMeters>451.399993896484375</AltitudeMeters>
            <DistanceMeters>7493.5574516429</DistanceMeters>
          </Trackpoint>
          <Trackpoint>
            <Time>2022-06-16T06:42:40.000Z</Time>
            <Position>
              <LatitudeDegrees>36.79320274852216243743896484375</LatitudeDegrees>
              <LongitudeDegrees>-4.3994147144258022308349609375</LongitudeDegrees>
            </Position>
            <AltitudeMeters>450.399993896484375</AltitudeMeters>
            <DistanceMeters>7506.4310289614</DistanceMeters>
          </Trackpoint>
          <Trackpoint>
            <Time>2022-06-16T06:42:50.000Z</Time>
            <Position>
              <LatitudeDegrees>36.79335010237991809844970703125</LatitudeDegrees>
              <LongitudeDegrees>-4.39936266280710697174072265625</LongitudeDegrees>
            </Position>
            <AltitudeMeters>449.20001220703125</AltitudeMeters>
            <DistanceMeters>7523.4755477096</DistanceMeters>
          </Trackpoint>
          <Trackpoint>
            <Time>2022-06-16T06:42:51.000Z</Time>
            <Position>
              <LatitudeDegrees>36.7933644354343414306640625</LatitudeDegrees>
              <LongitudeDegrees>-4.3993550352752208709716796875</LongitudeDegrees>
            </Position>
            <AltitudeMeters>449.20001220703125</AltitudeMeters>
            <DistanceMeters>7525.2122242863</DistanceMeters>
          </Trackpoint>
          <Trackpoint>
            <Time>2022-06-16T06:43:00.000Z</Time>
            <Position>
              <LatitudeDegrees>36.79349862970411777496337890625</LatitudeDegrees>
              <LongitudeDegrees>-4.3993278779089450836181640625</LongitudeDegrees>
            </Position>
            <AltitudeMeters>448</AltitudeMeters>
            <DistanceMeters>7540.3432704551</DistanceMeters>
          </Trackpoint>
          <Trackpoint>
            <Time>2022-06-16T06:43:10.000Z</Time>
            <Position>
              <LatitudeDegrees>36.79363056086003780364990234375</LatitudeDegrees>
              <LongitudeDegrees>-4.39934137277305126190185546875</LongitudeDegrees>
            </Position>
            <AltitudeMeters>444.399993896484375</AltitudeMeters>
            <DistanceMeters>7555.0763956347</DistanceMeters>
          </Trackpoint>
          <Trackpoint>
            <Time>2022-06-16T06:43:13.000Z</Time>
            <Position>
              <LatitudeDegrees>36.79367029108107089996337890625</LatitudeDegrees>
              <LongitudeDegrees>-4.39934690482914447784423828125</LongitudeDegrees>
            </Position>
            <AltitudeMeters>443.20001220703125</AltitudeMeters>
            <DistanceMeters>7559.5254323355</DistanceMeters>
          </Trackpoint>
          <Trackpoint>
            <Time>2022-06-16T06:43:16.000Z</Time>
            <Position>
              <LatitudeDegrees>36.79370247758924961090087890625</LatitudeDegrees>
              <LongitudeDegrees>-4.39934891648590564727783203125</LongitudeDegrees>
            </Position>
            <AltitudeMeters>442.600006103515625</AltitudeMeters>
            <DistanceMeters>7563.1138705765</DistanceMeters>
          </Trackpoint>
          <Trackpoint>
            <Time>2022-06-16T06:43:19.000Z</Time>
            <Position>
              <LatitudeDegrees>36.79374438710510730743408203125</LatitudeDegrees>
              <LongitudeDegrees>-4.39933734945952892303466796875</LongitudeDegrees>
            </Position>
            <AltitudeMeters>442.79998779296875</AltitudeMeters>
            <DistanceMeters>7567.890794605</DistanceMeters>
          </Trackpoint>
          <Trackpoint>
            <Time>2022-06-16T06:43:20.000Z</Time>
            <Position>
              <LatitudeDegrees>36.7937614023685455322265625</LatitudeDegrees>
              <LongitudeDegrees>-4.39933550544083118438720703125</LongitudeDegrees>
            </Position>
            <AltitudeMeters>442.600006103515625</AltitudeMeters>
            <DistanceMeters>7569.7913288924</DistanceMeters>
          </Trackpoint>
          <Trackpoint>
            <Time>2022-06-16T06:43:25.000Z</Time>
            <Position>
              <LatitudeDegrees>36.79383449256420135498046875</LatitudeDegrees>
              <LongitudeDegrees>-4.3993345834314823150634765625</LongitudeDegrees>
            </Position>
            <AltitudeMeters>442.600006103515625</AltitudeMeters>
            <DistanceMeters>7577.9270808757</DistanceMeters>
          </Trackpoint>
          <Trackpoint>
            <Time>2022-06-16T06:43:30.000Z</Time>
            <Position>
              <LatitudeDegrees>36.7938986979424953460693359375</LatitudeDegrees>
              <LongitudeDegrees>-4.3993533588945865631103515625</LongitudeDegrees>
            </Position>
            <AltitudeMeters>441.79998779296875</AltitudeMeters>
            <DistanceMeters>7585.2669334672</DistanceMeters>
          </Trackpoint>
          <Trackpoint>
            <Time>2022-06-16T06:43:36.000Z</Time>
            <Position>
              <LatitudeDegrees>36.7939704470336437225341796875</LatitudeDegrees>
              <LongitudeDegrees>-4.39935050904750823974609375</LongitudeDegrees>
            </Position>
            <AltitudeMeters>441.79998779296875</AltitudeMeters>
            <DistanceMeters>7593.257092443</DistanceMeters>
          </Trackpoint>
          <Trackpoint>
            <Time>2022-06-16T06:43:40.000Z</Time>
            <Position>
              <LatitudeDegrees>36.79403523914515972137451171875</LatitudeDegrees>
              <LongitudeDegrees>-4.3993466533720493316650390625</LongitudeDegrees>
            </Position>
            <AltitudeMeters>441.399993896484375</AltitudeMeters>
            <DistanceMeters>7600.4778722753</DistanceMeters>
          </Trackpoint>
          <Trackpoint>
            <Time>2022-06-16T06:43:50.000Z</Time>
            <Position>
              <LatitudeDegrees>36.7941736243665218353271484375</LatitudeDegrees>
              <LongitudeDegrees>-4.3993178196251392364501953125</LongitudeDegrees>
            </Position>
            <AltitudeMeters>442.20001220703125</AltitudeMeters>
            <DistanceMeters>7616.0935113687</DistanceMeters>
          </Trackpoint>
          <Trackpoint>
            <Time>2022-06-16T06:44:00.000Z</Time>
            <Position>
              <LatitudeDegrees>36.794274710118770599365234375</LatitudeDegrees>
              <LongitudeDegrees>-4.39924045465886592864990234375</LongitudeDegrees>
            </Position>
            <AltitudeMeters>444.399993896484375</AltitudeMeters>
            <DistanceMeters>7629.2895711649</DistanceMeters>
          </Trackpoint>
          <Trackpoint>
            <Time>2022-06-16T06:44:09.000Z</Time>
            <Position>
              <LatitudeDegrees>36.79435961879789829254150390625</LatitudeDegrees>
              <LongitudeDegrees>-4.39914138056337833404541015625</LongitudeDegrees>
            </Position>
            <AltitudeMeters>446.399993896484375</AltitudeMeters>
            <DistanceMeters>7642.2236809603</DistanceMeters>
          </Trackpoint>
          <Trackpoint>
            <Time>2022-06-16T06:44:10.000Z</Time>
            <Position>
              <LatitudeDegrees>36.79438258521258831024169921875</LatitudeDegrees>
              <LongitudeDegrees>-4.39911623485386371612548828125</LongitudeDegrees>
            </Position>
            <AltitudeMeters>446.79998779296875</AltitudeMeters>
            <DistanceMeters>7645.6234600485</DistanceMeters>
          </Trackpoint>
          <Trackpoint>
            <Time>2022-06-16T06:44:17.000Z</Time>
            <Position>
              <LatitudeDegrees>36.79446003399789333343505859375</LatitudeDegrees>
              <LongitudeDegrees>-4.39903828315436840057373046875</LongitudeDegrees>
            </Position>
            <AltitudeMeters>448.600006103515625</AltitudeMeters>
            <DistanceMeters>7656.6951937757</DistanceMeters>
          </Trackpoint>
          <Trackpoint>
            <Time>2022-06-16T06:44:20.000Z</Time>
            <Position>
              <LatitudeDegrees>36.79449507035315036773681640625</LatitudeDegrees>
              <LongitudeDegrees>-4.3990056775510311126708984375</LongitudeDegrees>
            </Position>
            <AltitudeMeters>449.20001220703125</AltitudeMeters>
            <DistanceMeters>7661.5582967159</DistanceMeters>
          </Trackpoint>
          <Trackpoint>
            <Time>2022-06-16T06:44:30.000Z</Time>
            <Position>
              <LatitudeDegrees>36.7946359701454639434814453125</LatitudeDegrees>
              <LongitudeDegrees>-4.3989555537700653076171875</LongitudeDegrees>
            </Position>
            <AltitudeMeters>450.600006103515625</AltitudeMeters>
            <DistanceMeters>7677.8647258458</DistanceMeters>
          </Trackpoint>
          <Trackpoint>
            <Time>2022-06-16T06:44:40.000Z</Time>
            <Position>
              <LatitudeDegrees>36.794768236577510833740234375</LatitudeDegrees>
              <LongitudeDegrees>-4.39896720461547374725341796875</LongitudeDegrees>
            </Position>
            <AltitudeMeters>450</AltitudeMeters>
            <DistanceMeters>7692.6223470523</DistanceMeters>
          </Trackpoint>
          <Trackpoint>
            <Time>2022-06-16T06:44:50.000Z</Time>
            <Position>
              <LatitudeDegrees>36.79491014219820499420166015625</LatitudeDegrees>
              <LongitudeDegrees>-4.3990145623683929443359375</LongitudeDegrees>
            </Position>
            <AltitudeMeters>447.20001220703125</AltitudeMeters>
            <DistanceMeters>7708.9708088328</DistanceMeters>
          </Trackpoint>
          <Trackpoint>
            <Time>2022-06-16T06:45:00.000Z</Time>
            <Position>
              <LatitudeDegrees>36.7950461804866790771484375</LatitudeDegrees>
              <LongitudeDegrees>-4.39909393899142742156982421875</LongitudeDegrees>
            </Position>
            <AltitudeMeters>443.79998779296875</AltitudeMeters>
            <DistanceMeters>7725.6836280015</DistanceMeters>
          </Trackpoint>
          <Trackpoint>
            <Time>2022-06-16T06:45:06.000Z</Time>
            <Position>
              <LatitudeDegrees>36.79512706585228443145751953125</LatitudeDegrees>
              <LongitudeDegrees>-4.39913098700344562530517578125</LongitudeDegrees>
            </Position>
            <AltitudeMeters>442</AltitudeMeters>
            <DistanceMeters>7735.2723838307</DistanceMeters>
          </Trackpoint>
          <Trackpoint>
            <Time>2022-06-16T06:45:10.000Z</Time>
            <Position>
              <LatitudeDegrees>36.7951670475304126739501953125</LatitudeDegrees>
              <LongitudeDegrees>-4.3991407938301563262939453125</LongitudeDegrees>
            </Position>
            <AltitudeMeters>441.399993896484375</AltitudeMeters>
            <DistanceMeters>7739.807856699</DistanceMeters>
          </Trackpoint>
          <Trackpoint>
            <Time>2022-06-16T06:45:20.000Z</Time>
            <Position>
              <LatitudeDegrees>36.79531104862689971923828125</LatitudeDegrees>
              <LongitudeDegrees>-4.39909745939075946807861328125</LongitudeDegrees>
            </Position>
            <AltitudeMeters>442</AltitudeMeters>
            <DistanceMeters>7756.2943754632</DistanceMeters>
          </Trackpoint>
          <Trackpoint>
            <Time>2022-06-16T06:45:30.000Z</Time>
            <Position>
              <LatitudeDegrees>36.79543065838515758514404296875</LatitudeDegrees>
              <LongitudeDegrees>-4.3989815376698970794677734375</LongitudeDegrees>
            </Position>
            <AltitudeMeters>444.399993896484375</AltitudeMeters>
            <DistanceMeters>7773.1460176387</DistanceMeters>
          </Trackpoint>
          <Trackpoint>
            <Time>2022-06-16T06:45:40.000Z</Time>
            <Position>
              <LatitudeDegrees>36.7955410480499267578125</LatitudeDegrees>
              <LongitudeDegrees>-4.39884700812399387359619140625</LongitudeDegrees>
            </Position>
            <AltitudeMeters>447</AltitudeMeters>
            <DistanceMeters>7790.313534494</DistanceMeters>
          </Trackpoint>
          <Trackpoint>
            <Time>2022-06-16T06:45:44.000Z</Time>
            <Position>
              <LatitudeDegrees>36.79558991454541683197021484375</LatitudeDegrees>
              <LongitudeDegrees>-4.398799650371074676513671875</LongitudeDegrees>
            </Position>
            <AltitudeMeters>447.600006103515625</AltitudeMeters>
            <DistanceMeters>7797.1975624703</DistanceMeters>
          </Trackpoint>
          <Trackpoint>
            <Time>2022-06-16T06:45:50.000Z</Time>
            <Position>
              <LatitudeDegrees>36.79566384293138980865478515625</LatitudeDegrees>
              <LongitudeDegrees>-4.3987555615603923797607421875</LongitudeDegrees>
            </Position>
            <AltitudeMeters>447.399993896484375</AltitudeMeters>
            <DistanceMeters>7806.3161667437</DistanceMeters>
          </Trackpoint>
          <Trackpoint>
            <Time>2022-06-16T06:46:00.000Z</Time>
            <Position>
              <LatitudeDegrees>36.79579527117311954498291015625</LatitudeDegrees>
              <LongitudeDegrees>-4.3987369537353515625</LongitudeDegrees>
            </Position>
            <AltitudeMeters>444.20001220703125</AltitudeMeters>
            <DistanceMeters>7821.0382554138</DistanceMeters>
          </Trackpoint>
          <Trackpoint>
            <Time>2022-06-16T06:46:10.000Z</Time>
            <Position>
              <LatitudeDegrees>36.795945055782794952392578125</LatitudeDegrees>
              <LongitudeDegrees>-4.39870635978877544403076171875</LongitudeDegrees>
            </Position>
            <AltitudeMeters>441.79998779296875</AltitudeMeters>
            <DistanceMeters>7837.9311082155</DistanceMeters>
          </Trackpoint>
          <Trackpoint>
            <Time>2022-06-16T06:46:17.000Z</Time>
            <Position>
              <LatitudeDegrees>36.79602812044322490692138671875</LatitudeDegrees>
              <LongitudeDegrees>-4.39866059459745883941650390625</LongitudeDegrees>
            </Position>
            <AltitudeMeters>441.399993896484375</AltitudeMeters>
            <DistanceMeters>7848.036161626</DistanceMeters>
          </Trackpoint>
          <Trackpoint>
            <Time>2022-06-16T06:46:20.000Z</Time>
            <Position>
              <LatitudeDegrees>36.7960427887737751007080078125</LatitudeDegrees>
              <LongitudeDegrees>-4.3986338563263416290283203125</LongitudeDegrees>
            </Position>
            <AltitudeMeters>441.79998779296875</AltitudeMeters>
            <DistanceMeters>7850.9247236617</DistanceMeters>
          </Trackpoint>
          <Trackpoint>
            <Time>2022-06-16T06:46:25.000Z</Time>
            <Position>
              <LatitudeDegrees>36.796090900897979736328125</LatitudeDegrees>
              <LongitudeDegrees>-4.39855992794036865234375</LongitudeDegrees>
            </Position>
            <AltitudeMeters>442.79998779296875</AltitudeMeters>
            <DistanceMeters>7859.4151359163</DistanceMeters>
          </Trackpoint>
          <Trackpoint>
            <Time>2022-06-16T06:46:30.000Z</Time>
            <Position>
              <LatitudeDegrees>36.796108670532703399658203125</LatitudeDegrees>
              <LongitudeDegrees>-4.398500584065914154052734375</LongitudeDegrees>
            </Position>
            <AltitudeMeters>444</AltitudeMeters>
            <DistanceMeters>7865.061034414</DistanceMeters>
          </Trackpoint>
          <Trackpoint>
            <Time>2022-06-16T06:46:36.000Z</Time>
            <Position>
              <LatitudeDegrees>36.796118728816509246826171875</LatitudeDegrees>
              <LongitudeDegrees>-4.39843528904020786285400390625</LongitudeDegrees>
            </Position>
            <AltitudeMeters>445.399993896484375</AltitudeMeters>
            <DistanceMeters>7870.9878377149</DistanceMeters>
          </Trackpoint>
          <Trackpoint>
            <Time>2022-06-16T06:46:37.000Z</Time>
            <Position>
              <LatitudeDegrees>36.7961232550442218780517578125</LatitudeDegrees>
              <LongitudeDegrees>-4.3984219618141651153564453125</LongitudeDegrees>
            </Position>
            <AltitudeMeters>445.600006103515625</AltitudeMeters>
            <DistanceMeters>7872.2803407679</DistanceMeters>
          </Trackpoint>
          <Trackpoint>
            <Time>2022-06-16T06:46:38.000Z</Time>
            <Position>
              <LatitudeDegrees>36.7961297929286956787109375</LatitudeDegrees>
              <LongitudeDegrees>-4.39840762875974178314208984375</LongitudeDegrees>
            </Position>
            <AltitudeMeters>445.79998779296875</AltitudeMeters>
            <DistanceMeters>7873.7494181213</DistanceMeters>
          </Trackpoint>
          <Trackpoint>
            <Time>2022-06-16T06:46:40.000Z</Time>
            <Position>
              <LatitudeDegrees>36.7961463890969753265380859375</LatitudeDegrees>
              <LongitudeDegrees>-4.39837728627026081085205078125</LongitudeDegrees>
            </Position>
            <AltitudeMeters>446.20001220703125</AltitudeMeters>
            <DistanceMeters>7877.024739604</DistanceMeters>
          </Trackpoint>
          <Trackpoint>
            <Time>2022-06-16T06:46:50.000Z</Time>
            <Position>
              <LatitudeDegrees>36.79624252952635288238525390625</LatitudeDegrees>
              <LongitudeDegrees>-4.398227669298648834228515625</LongitudeDegrees>
            </Position>
            <AltitudeMeters>448.20001220703125</AltitudeMeters>
            <DistanceMeters>7894.1226837727</DistanceMeters>
          </Trackpoint>
          <Trackpoint>
            <Time>2022-06-16T06:47:00.000Z</Time>
            <Position>
              <LatitudeDegrees>36.79636959917843341827392578125</LatitudeDegrees>
              <LongitudeDegrees>-4.3981775455176830291748046875</LongitudeDegrees>
            </Position>
            <AltitudeMeters>445.79998779296875</AltitudeMeters>
            <DistanceMeters>7908.9547679934</DistanceMeters>
          </Trackpoint>
          <Trackpoint>
            <Time>2022-06-16T06:47:10.000Z</Time>
            <Position>
              <LatitudeDegrees>36.79649113677442073822021484375</LatitudeDegrees>
              <LongitudeDegrees>-4.39818718470633029937744140625</LongitudeDegrees>
            </Position>
            <AltitudeMeters>441.600006103515625</AltitudeMeters>
            <DistanceMeters>7922.5093220373</DistanceMeters>
          </Trackpoint>
          <Trackpoint>
            <Time>2022-06-16T06:47:20.000Z</Time>
            <Position>
              <LatitudeDegrees>36.7966241575777530670166015625</LatitudeDegrees>
              <LongitudeDegrees>-4.39811107702553272247314453125</LongitudeDegrees>
            </Position>
            <AltitudeMeters>439.399993896484375</AltitudeMeters>
            <DistanceMeters>7938.7946941595</DistanceMeters>
          </Trackpoint>
          <Trackpoint>
            <Time>2022-06-16T06:47:23.000Z</Time>
            <Position>
              <LatitudeDegrees>36.79668073542416095733642578125</LatitudeDegrees>
              <LongitudeDegrees>-4.398079812526702880859375</LongitudeDegrees>
            </Position>
            <AltitudeMeters>438.600006103515625</AltitudeMeters>
            <DistanceMeters>7945.6813451223</DistanceMeters>
          </Trackpoint>
          <Trackpoint>
            <Time>2022-06-16T06:47:27.000Z</Time>
            <Position>
              <LatitudeDegrees>36.796720884740352630615234375</LatitudeDegrees>
              <LongitudeDegrees>-4.398064054548740386962890625</LongitudeDegrees>
            </Position>
            <AltitudeMeters>437.79998779296875</AltitudeMeters>
            <DistanceMeters>7950.3656898746</DistanceMeters>
          </Trackpoint>
          <Trackpoint>
            <Time>2022-06-16T06:47:29.000Z</Time>
            <Position>
              <LatitudeDegrees>36.7967525683343410491943359375</LatitudeDegrees>
              <LongitudeDegrees>-4.39803463406860828399658203125</LongitudeDegrees>
            </Position>
            <AltitudeMeters>437.600006103515625</AltitudeMeters>
            <DistanceMeters>7954.7595837556</DistanceMeters>
          </Trackpoint>
          <Trackpoint>
            <Time>2022-06-16T06:47:30.000Z</Time>
            <Position>
              <LatitudeDegrees>36.7967525683343410491943359375</LatitudeDegrees>
              <LongitudeDegrees>-4.39803463406860828399658203125</LongitudeDegrees>
            </Position>
            <AltitudeMeters>437.600006103515625</AltitudeMeters>
            <DistanceMeters>7954.7595837556</DistanceMeters>
          </Trackpoint>
          <Trackpoint>
            <Time>2022-06-16T06:47:31.000Z</Time>
            <Position>
              <LatitudeDegrees>36.7967602796852588653564453125</LatitudeDegrees>
              <LongitudeDegrees>-4.39802072010934352874755859375</LongitudeDegrees>
            </Position>
            <AltitudeMeters>437.79998779296875</AltitudeMeters>
            <DistanceMeters>7956.2680860804</DistanceMeters>
          </Trackpoint>
          <Trackpoint>
            <Time>2022-06-16T06:47:32.000Z</Time>
            <Position>
              <LatitudeDegrees>36.79677595384418964385986328125</LatitudeDegrees>
              <LongitudeDegrees>-4.39799473620951175689697265625</LongitudeDegrees>
            </Position>
            <AltitudeMeters>438.399993896484375</AltitudeMeters>
            <DistanceMeters>7959.1660113888</DistanceMeters>
          </Trackpoint>
          <Trackpoint>
            <Time>2022-06-16T06:47:33.000Z</Time>
            <Position>
              <LatitudeDegrees>36.7967842519283294677734375</LatitudeDegrees>
              <LongitudeDegrees>-4.3979792296886444091796875</LongitudeDegrees>
            </Position>
            <AltitudeMeters>438.79998779296875</AltitudeMeters>
            <DistanceMeters>7960.8282999894</DistanceMeters>
          </Trackpoint>
          <Trackpoint>
            <Time>2022-06-16T06:47:39.000Z</Time>
            <Position>
              <LatitudeDegrees>36.79683630354702472686767578125</LatitudeDegrees>
              <LongitudeDegrees>-4.39791594631969928741455078125</LongitudeDegrees>
            </Position>
            <AltitudeMeters>439.600006103515625</AltitudeMeters>
            <DistanceMeters>7968.9139510735</DistanceMeters>
          </Trackpoint>
          <Trackpoint>
            <Time>2022-06-16T06:47:40.000Z</Time>
            <Position>
              <LatitudeDegrees>36.79685390554368495941162109375</LatitudeDegrees>
              <LongitudeDegrees>-4.3978825025260448455810546875</LongitudeDegrees>
            </Position>
            <AltitudeMeters>440.399993896484375</AltitudeMeters>
            <DistanceMeters>7972.479669463</DistanceMeters>
          </Trackpoint>
          <Trackpoint>
            <Time>2022-06-16T06:47:50.000Z</Time>
            <Position>
              <LatitudeDegrees>36.79692330770194530487060546875</LatitudeDegrees>
              <LongitudeDegrees>-4.39777177758514881134033203125</LongitudeDegrees>
            </Position>
            <AltitudeMeters>442.399993896484375</AltitudeMeters>
            <DistanceMeters>7985.0120323523</DistanceMeters>
          </Trackpoint>
          <Trackpoint>
            <Time>2022-06-16T06:48:00.000Z</Time>
            <Position>
              <LatitudeDegrees>36.7969939671456813812255859375</LatitudeDegrees>
              <LongitudeDegrees>-4.397631548345088958740234375</LongitudeDegrees>
            </Position>
            <AltitudeMeters>444.79998779296875</AltitudeMeters>
            <DistanceMeters>7999.7785233333</DistanceMeters>
          </Trackpoint>
          <Trackpoint>
            <Time>2022-06-16T06:48:10.000Z</Time>
            <Position>
              <LatitudeDegrees>36.79708222858607769012451171875</LatitudeDegrees>
              <LongitudeDegrees>-4.3975071609020233154296875</LongitudeDegrees>
            </Position>
            <AltitudeMeters>445.399993896484375</AltitudeMeters>
            <DistanceMeters>8014.591112487</DistanceMeters>
          </Trackpoint>
          <Trackpoint>
            <Time>2022-06-16T06:48:17.000Z</Time>
            <Position>
              <LatitudeDegrees>36.7971491999924182891845703125</LatitudeDegrees>
              <LongitudeDegrees>-4.3973929993808269500732421875</LongitudeDegrees>
            </Position>
            <AltitudeMeters>446.20001220703125</AltitudeMeters>
            <DistanceMeters>8027.2039177544</DistanceMeters>
          </Trackpoint>
          <Trackpoint>
            <Time>2022-06-16T06:48:20.000Z</Time>
            <Position>
              <LatitudeDegrees>36.7971773631870746612548828125</LatitudeDegrees>
              <LongitudeDegrees>-4.397339522838592529296875</LongitudeDegrees>
            </Position>
            <AltitudeMeters>446.79998779296875</AltitudeMeters>
            <DistanceMeters>8032.9086872944</DistanceMeters>
          </Trackpoint>
          <Trackpoint>
            <Time>2022-06-16T06:48:30.000Z</Time>
            <Position>
              <LatitudeDegrees>36.79726545698940753936767578125</LatitudeDegrees>
              <LongitudeDegrees>-4.397190995514392852783203125</LongitudeDegrees>
            </Position>
            <AltitudeMeters>447.600006103515625</AltitudeMeters>
            <DistanceMeters>8049.3820554167</DistanceMeters>
          </Trackpoint>
          <Trackpoint>
            <Time>2022-06-16T06:48:34.000Z</Time>
            <Position>
              <LatitudeDegrees>36.7972970567643642425537109375</LatitudeDegrees>
              <LongitudeDegrees>-4.39715302549302577972412109375</LongitudeDegrees>
            </Position>
            <AltitudeMeters>447.79998779296875</AltitudeMeters>
            <DistanceMeters>8054.2627666004</DistanceMeters>
          </Trackpoint>
          <Trackpoint>
            <Time>2022-06-16T06:48:35.000Z</Time>
            <Position>
              <LatitudeDegrees>36.79731105454266071319580078125</LatitudeDegrees>
              <LongitudeDegrees>-4.3971425481140613555908203125</LongitudeDegrees>
            </Position>
            <AltitudeMeters>447.600006103515625</AltitudeMeters>
            <DistanceMeters>8056.0807346911</DistanceMeters>
          </Trackpoint>
          <Trackpoint>
            <Time>2022-06-16T06:48:38.000Z</Time>
            <Position>
              <LatitudeDegrees>36.79736771620810031890869140625</LatitudeDegrees>
              <LongitudeDegrees>-4.39711027778685092926025390625</LongitudeDegrees>
            </Position>
            <AltitudeMeters>446.600006103515625</AltitudeMeters>
            <DistanceMeters>8063.0118245535</DistanceMeters>
          </Trackpoint>
          <Trackpoint>
            <Time>2022-06-16T06:48:39.000Z</Time>
            <Position>
              <LatitudeDegrees>36.79736771620810031890869140625</LatitudeDegrees>
              <LongitudeDegrees>-4.39711027778685092926025390625</LongitudeDegrees>
            </Position>
            <AltitudeMeters>446.600006103515625</AltitudeMeters>
            <DistanceMeters>8063.1068512679</DistanceMeters>
          </Trackpoint>
          <Trackpoint>
            <Time>2022-06-16T06:48:40.000Z</Time>
            <Position>
              <LatitudeDegrees>36.797377355396747589111328125</LatitudeDegrees>
              <LongitudeDegrees>-4.397101141512393951416015625</LongitudeDegrees>
            </Position>
            <AltitudeMeters>446.399993896484375</AltitudeMeters>
            <DistanceMeters>8064.4574346388</DistanceMeters>
          </Trackpoint>
          <Trackpoint>
            <Time>2022-06-16T06:48:41.000Z</Time>
            <Position>
              <LatitudeDegrees>36.79739235900342464447021484375</LatitudeDegrees>
              <LongitudeDegrees>-4.3970982916653156280517578125</LongitudeDegrees>
            </Position>
            <AltitudeMeters>446</AltitudeMeters>
            <DistanceMeters>8066.1466664631</DistanceMeters>
          </Trackpoint>
          <Trackpoint>
            <Time>2022-06-16T06:48:44.000Z</Time>
            <Position>
              <LatitudeDegrees>36.7974281497299671173095703125</LatitudeDegrees>
              <LongitudeDegrees>-4.39707423560321331024169921875</LongitudeDegrees>
            </Position>
            <AltitudeMeters>445.399993896484375</AltitudeMeters>
            <DistanceMeters>8070.6701776239</DistanceMeters>
          </Trackpoint>
          <Trackpoint>
            <Time>2022-06-16T06:48:46.000Z</Time>
            <Position>
              <LatitudeDegrees>36.79745891131460666656494140625</LatitudeDegrees>
              <LongitudeDegrees>-4.39704908989369869232177734375</LongitudeDegrees>
            </Position>
            <AltitudeMeters>445</AltitudeMeters>
            <DistanceMeters>8074.7618474208</DistanceMeters>
          </Trackpoint>
          <Trackpoint>
            <Time>2022-06-16T06:48:48.000Z</Time>
            <Position>
              <LatitudeDegrees>36.7974787764251232147216796875</LatitudeDegrees>
              <LongitudeDegrees>-4.3970288895070552825927734375</LongitudeDegrees>
            </Position>
            <AltitudeMeters>445</AltitudeMeters>
            <DistanceMeters>8077.6158146513</DistanceMeters>
          </Trackpoint>
          <Trackpoint>
            <Time>2022-06-16T06:48:50.000Z</Time>
            <Position>
              <LatitudeDegrees>36.79749880917370319366455078125</LatitudeDegrees>
              <LongitudeDegrees>-4.39700198359787464141845703125</LongitudeDegrees>
            </Position>
            <AltitudeMeters>445.20001220703125</AltitudeMeters>
            <DistanceMeters>8080.891136134</DistanceMeters>
          </Trackpoint>
          <Trackpoint>
            <Time>2022-06-16T06:48:52.000Z</Time>
            <Position>
              <LatitudeDegrees>36.79751138202846050262451171875</LatitudeDegrees>
              <LongitudeDegrees>-4.39699150621891021728515625</LongitudeDegrees>
            </Position>
            <AltitudeMeters>445</AltitudeMeters>
            <DistanceMeters>8082.5750138028</DistanceMeters>
          </Trackpoint>
          <Trackpoint>
            <Time>2022-06-16T06:48:56.000Z</Time>
            <Position>
              <LatitudeDegrees>36.797554381191730499267578125</LatitudeDegrees>
              <LongitudeDegrees>-4.39694347791373729705810546875</LongitudeDegrees>
            </Position>
            <AltitudeMeters>445.20001220703125</AltitudeMeters>
            <DistanceMeters>8088.9961763956</DistanceMeters>
          </Trackpoint>
          <Trackpoint>
            <Time>2022-06-16T06:49:00.000Z</Time>
            <Position>
              <LatitudeDegrees>36.7976051755249500274658203125</LatitudeDegrees>
              <LongitudeDegrees>-4.3968884088099002838134765625</LongitudeDegrees>
            </Position>
            <AltitudeMeters>445</AltitudeMeters>
            <DistanceMeters>8096.4828101176</DistanceMeters>
          </Trackpoint>
          <Trackpoint>
            <Time>2022-06-16T06:49:10.000Z</Time>
            <Position>
              <LatitudeDegrees>36.79769343696534633636474609375</LatitudeDegrees>
              <LongitudeDegrees>-4.3967750854790210723876953125</LongitudeDegrees>
            </Position>
            <AltitudeMeters>445.20001220703125</AltitudeMeters>
            <DistanceMeters>8110.5724233325</DistanceMeters>
          </Trackpoint>
          <Trackpoint>
            <Time>2022-06-16T06:49:14.000Z</Time>
            <Position>
              <LatitudeDegrees>36.7977288924157619476318359375</LatitudeDegrees>
              <LongitudeDegrees>-4.3967164121568202972412109375</LongitudeDegrees>
            </Position>
            <AltitudeMeters>445.600006103515625</AltitudeMeters>
            <DistanceMeters>8117.1237555129</DistanceMeters>
          </Trackpoint>
          <Trackpoint>
            <Time>2022-06-16T06:49:19.000Z</Time>
            <Position>
              <LatitudeDegrees>36.7977577261626720428466796875</LatitudeDegrees>
              <LongitudeDegrees>-4.39664608798921108245849609375</LongitudeDegrees>
            </Position>
            <AltitudeMeters>446.79998779296875</AltitudeMeters>
            <DistanceMeters>8124.1659980414</DistanceMeters>
          </Trackpoint>
          <Trackpoint>
            <Time>2022-06-16T06:49:20.000Z</Time>
            <Position>
              <LatitudeDegrees>36.797771640121936798095703125</LatitudeDegrees>
              <LongitudeDegrees>-4.3966354429721832275390625</LongitudeDegrees>
            </Position>
            <AltitudeMeters>446.600006103515625</AltitudeMeters>
            <DistanceMeters>8125.9814808703</DistanceMeters>
          </Trackpoint>
          <Trackpoint>
            <Time>2022-06-16T06:49:23.000Z</Time>
            <Position>
              <LatitudeDegrees>36.79780961014330387115478515625</LatitudeDegrees>
              <LongitudeDegrees>-4.39659722149372100830078125</LongitudeDegrees>
            </Position>
            <AltitudeMeters>445.79998779296875</AltitudeMeters>
            <DistanceMeters>8131.408829151</DistanceMeters>
          </Trackpoint>
          <Trackpoint>
            <Time>2022-06-16T06:49:25.000Z</Time>
            <Position>
              <LatitudeDegrees>36.797820590436458587646484375</LatitudeDegrees>
              <LongitudeDegrees>-4.39658406190574169158935546875</LongitudeDegrees>
            </Position>
            <AltitudeMeters>445.600006103515625</AltitudeMeters>
            <DistanceMeters>8133.103398214</DistanceMeters>
          </Trackpoint>
          <Trackpoint>
            <Time>2022-06-16T06:49:29.000Z</Time>
            <Position>
              <LatitudeDegrees>36.7978787608444690704345703125</LatitudeDegrees>
              <LongitudeDegrees>-4.3965226225554943084716796875</LongitudeDegrees>
            </Position>
            <AltitudeMeters>444.399993896484375</AltitudeMeters>
            <DistanceMeters>8141.5831681827</DistanceMeters>
          </Trackpoint>
          <Trackpoint>
            <Time>2022-06-16T06:49:30.000Z</Time>
            <Position>
              <LatitudeDegrees>36.7978918366134166717529296875</LatitudeDegrees>
              <LongitudeDegrees>-4.3965139053761959075927734375</LongitudeDegrees>
            </Position>
            <AltitudeMeters>444.20001220703125</AltitudeMeters>
            <DistanceMeters>8143.2290791564</DistanceMeters>
          </Trackpoint>
          <Trackpoint>
            <Time>2022-06-16T06:49:40.000Z</Time>
            <Position>
              <LatitudeDegrees>36.7980153858661651611328125</LatitudeDegrees>
              <LongitudeDegrees>-4.396421872079372406005859375</LongitudeDegrees>
            </Position>
            <AltitudeMeters>441.79998779296875</AltitudeMeters>
            <DistanceMeters>8159.241010033</DistanceMeters>
          </Trackpoint>
          <Trackpoint>
            <Time>2022-06-16T06:49:50.000Z</Time>
            <Position>
              <LatitudeDegrees>36.798131726682186126708984375</LatitudeDegrees>
              <LongitudeDegrees>-4.39632070250809192657470703125</LongitudeDegrees>
            </Position>
            <AltitudeMeters>440.20001220703125</AltitudeMeters>
            <DistanceMeters>8175.0203096939</DistanceMeters>
          </Trackpoint>
          <Trackpoint>
            <Time>2022-06-16T06:49:53.000Z</Time>
            <Position>
              <LatitudeDegrees>36.79816835559904575347900390625</LatitudeDegrees>
              <LongitudeDegrees>-4.3962872587144374847412109375</LongitudeDegrees>
            </Position>
            <AltitudeMeters>440</AltitudeMeters>
            <DistanceMeters>8180.070154828</DistanceMeters>
          </Trackpoint>
          <Trackpoint>
            <Time>2022-06-16T06:49:56.000Z</Time>
            <Position>
              <LatitudeDegrees>36.7982029728591442108154296875</LatitudeDegrees>
              <LongitudeDegrees>-4.39624710939824581146240234375</LongitudeDegrees>
            </Position>
            <AltitudeMeters>440.20001220703125</AltitudeMeters>
            <DistanceMeters>8185.328490503</DistanceMeters>
          </Trackpoint>
          <Trackpoint>
            <Time>2022-06-16T06:50:00.000Z</Time>
            <Position>
              <LatitudeDegrees>36.79822568781673908233642578125</LatitudeDegrees>
              <LongitudeDegrees>-4.3962141685187816619873046875</LongitudeDegrees>
            </Position>
            <AltitudeMeters>440.399993896484375</AltitudeMeters>
            <DistanceMeters>8189.2025048357</DistanceMeters>
          </Trackpoint>
          <Trackpoint>
            <Time>2022-06-16T06:50:10.000Z</Time>
            <Position>
              <LatitudeDegrees>36.79829173721373081207275390625</LatitudeDegrees>
              <LongitudeDegrees>-4.3961177766323089599609375</LongitudeDegrees>
            </Position>
            <AltitudeMeters>441.20001220703125</AltitudeMeters>
            <DistanceMeters>8200.5094859665</DistanceMeters>
          </Trackpoint>
          <Trackpoint>
            <Time>2022-06-16T06:50:20.000Z</Time>
            <Position>
              <LatitudeDegrees>36.7983950860798358917236328125</LatitudeDegrees>
              <LongitudeDegrees>-4.3960555829107761383056640625</LongitudeDegrees>
            </Position>
            <AltitudeMeters>440.20001220703125</AltitudeMeters>
            <DistanceMeters>8213.2777669831</DistanceMeters>
          </Trackpoint>
          <Trackpoint>
            <Time>2022-06-16T06:50:21.000Z</Time>
            <Position>
              <LatitudeDegrees>36.7983950860798358917236328125</LatitudeDegrees>
              <LongitudeDegrees>-4.3960555829107761383056640625</LongitudeDegrees>
            </Position>
            <AltitudeMeters>440.20001220703125</AltitudeMeters>
            <DistanceMeters>NAN</DistanceMeters>
          </Trackpoint>
          <Trackpoint>
            <Time>2022-06-16T06:50:30.000Z</Time>
            <Position>
              <LatitudeDegrees>36.7985063977539539337158203125</LatitudeDegrees>
              <LongitudeDegrees>-4.396002106368541717529296875</LongitudeDegrees>
            </Position>
            <AltitudeMeters>438.79998779296875</AltitudeMeters>
            <DistanceMeters>NAN</DistanceMeters>
          </Trackpoint>
          <Trackpoint>
            <Time>2022-06-16T06:50:40.000Z</Time>
            <Position>
              <LatitudeDegrees>36.798623241484165191650390625</LatitudeDegrees>
              <LongitudeDegrees>-4.39593949355185031890869140625</LongitudeDegrees>
            </Position>
            <AltitudeMeters>438</AltitudeMeters>
            <DistanceMeters>NAN</DistanceMeters>
          </Trackpoint>
          <Trackpoint>
            <Time>2022-06-16T06:50:50.000Z</Time>
            <Position>
              <LatitudeDegrees>36.798715777695178985595703125</LatitudeDegrees>
              <LongitudeDegrees>-4.39584259875118732452392578125</LongitudeDegrees>
            </Position>
            <AltitudeMeters>438.20001220703125</AltitudeMeters>
            <DistanceMeters>NAN</DistanceMeters>
          </Trackpoint>
          <Trackpoint>
            <Time>2022-06-16T06:50:55.000Z</Time>
            <Position>
              <LatitudeDegrees>36.79876816459000110626220703125</LatitudeDegrees>
              <LongitudeDegrees>-4.3957850150763988494873046875</LongitudeDegrees>
            </Position>
            <AltitudeMeters>438.399993896484375</AltitudeMeters>
            <DistanceMeters>NAN</DistanceMeters>
          </Trackpoint>
          <Trackpoint>
            <Time>2022-06-16T06:51:00.000Z</Time>
            <Position>
              <LatitudeDegrees>36.79882549680769443511962890625</LatitudeDegrees>
              <LongitudeDegrees>-4.39573447220027446746826171875</LongitudeDegrees>
            </Position>
            <AltitudeMeters>438.600006103515625</AltitudeMeters>
            <DistanceMeters>NAN</DistanceMeters>
          </Trackpoint>
          <Trackpoint>
            <Time>2022-06-16T06:51:10.000Z</Time>
            <Position>
              <LatitudeDegrees>36.798903532326221466064453125</LatitudeDegrees>
              <LongitudeDegrees>-4.39567294903099536895751953125</LongitudeDegrees>
            </Position>
            <AltitudeMeters>438.600006103515625</AltitudeMeters>
            <DistanceMeters>NAN</DistanceMeters>
          </Trackpoint>
          <Trackpoint>
            <Time>2022-06-16T06:51:11.000Z</Time>
            <Position>
              <LatitudeDegrees>36.79890923202037811279296875</LatitudeDegrees>
              <LongitudeDegrees>-4.39566515386104583740234375</LongitudeDegrees>
            </Position>
            <AltitudeMeters>438.600006103515625</AltitudeMeters>
            <DistanceMeters>NAN</DistanceMeters>
          </Trackpoint>
          <Trackpoint>
            <Time>2022-06-16T06:51:20.000Z</Time>
            <Position>
              <LatitudeDegrees>36.79900486953556537628173828125</LatitudeDegrees>
              <LongitudeDegrees>-4.39558544196188449859619140625</LongitudeDegrees>
            </Position>
            <AltitudeMeters>438.79998779296875</AltitudeMeters>
            <DistanceMeters>NAN</DistanceMeters>
          </Trackpoint>
          <Trackpoint>
            <Time>2022-06-16T06:51:24.000Z</Time>
            <Position>
              <LatitudeDegrees>36.799057424068450927734375</LatitudeDegrees>
              <LongitudeDegrees>-4.39555124379694461822509765625</LongitudeDegrees>
            </Position>
            <AltitudeMeters>438.79998779296875</AltitudeMeters>
            <DistanceMeters>NAN</DistanceMeters>
          </Trackpoint>
          <Trackpoint>
            <Time>2022-06-16T06:51:30.000Z</Time>
            <Position>
              <LatitudeDegrees>36.79913143627345561981201171875</LatitudeDegrees>
              <LongitudeDegrees>-4.395496509969234466552734375</LongitudeDegrees>
            </Position>
            <AltitudeMeters>438.600006103515625</AltitudeMeters>
            <DistanceMeters>NAN</DistanceMeters>
          </Trackpoint>
          <Trackpoint>
            <Time>2022-06-16T06:51:40.000Z</Time>
            <Position>
              <LatitudeDegrees>36.79925062693655490875244140625</LatitudeDegrees>
              <LongitudeDegrees>-4.39540456049144268035888671875</LongitudeDegrees>
            </Position>
            <AltitudeMeters>438.399993896484375</AltitudeMeters>
            <DistanceMeters>NAN</DistanceMeters>
          </Trackpoint>
          <Trackpoint>
            <Time>2022-06-16T06:51:50.000Z</Time>
            <Position>
              <LatitudeDegrees>36.79938725195825099945068359375</LatitudeDegrees>
              <LongitudeDegrees>-4.3953474797308444976806640625</LongitudeDegrees>
            </Position>
            <AltitudeMeters>441</AltitudeMeters>
            <DistanceMeters>NAN</DistanceMeters>
          </Trackpoint>
          <Trackpoint>
            <Time>2022-06-16T06:51:54.000Z</Time>
            <Position>
              <LatitudeDegrees>36.79944894276559352874755859375</LatitudeDegrees>
              <LongitudeDegrees>-4.3953426182270050048828125</LongitudeDegrees>
            </Position>
            <AltitudeMeters>441.79998779296875</AltitudeMeters>
            <DistanceMeters>NAN</DistanceMeters>
          </Trackpoint>
          <Trackpoint>
            <Time>2022-06-16T06:52:00.000Z</Time>
            <Position>
              <LatitudeDegrees>36.79953628219664096832275390625</LatitudeDegrees>
              <LongitudeDegrees>-4.39534588716924190521240234375</LongitudeDegrees>
            </Position>
            <AltitudeMeters>442.399993896484375</AltitudeMeters>
            <DistanceMeters>NAN</DistanceMeters>
          </Trackpoint>
          <Trackpoint>
            <Time>2022-06-16T06:52:10.000Z</Time>
            <Position>
              <LatitudeDegrees>36.79959327913820743560791015625</LatitudeDegrees>
              <LongitudeDegrees>-4.39548670314252376556396484375</LongitudeDegrees>
            </Position>
            <AltitudeMeters>440.79998779296875</AltitudeMeters>
            <DistanceMeters>NAN</DistanceMeters>
          </Trackpoint>
          <Trackpoint>
            <Time>2022-06-16T06:52:11.000Z</Time>
            <Position>
              <LatitudeDegrees>36.79959277622401714324951171875</LatitudeDegrees>
              <LongitudeDegrees>-4.39550464041531085968017578125</LongitudeDegrees>
            </Position>
            <AltitudeMeters>440.79998779296875</AltitudeMeters>
            <DistanceMeters>NAN</DistanceMeters>
          </Trackpoint>
          <Trackpoint>
            <Time>2022-06-16T06:52:12.000Z</Time>
            <Position>
              <LatitudeDegrees>36.799591518938541412353515625</LatitudeDegrees>
              <LongitudeDegrees>-4.39552207477390766143798828125</LongitudeDegrees>
            </Position>
            <AltitudeMeters>440.79998779296875</AltitudeMeters>
            <DistanceMeters>NAN</DistanceMeters>
          </Trackpoint>
          <Trackpoint>
            <Time>2022-06-16T06:52:14.000Z</Time>
            <Position>
              <LatitudeDegrees>36.79958439432084560394287109375</LatitudeDegrees>
              <LongitudeDegrees>-4.39555577002465724945068359375</LongitudeDegrees>
            </Position>
            <AltitudeMeters>441.20001220703125</AltitudeMeters>
            <DistanceMeters>NAN</DistanceMeters>
          </Trackpoint>
          <Trackpoint>
            <Time>2022-06-16T06:52:16.000Z</Time>
            <Position>
              <LatitudeDegrees>36.799574084579944610595703125</LatitudeDegrees>
              <LongitudeDegrees>-4.39558175392448902130126953125</LongitudeDegrees>
            </Position>
            <AltitudeMeters>441.399993896484375</AltitudeMeters>
            <DistanceMeters>NAN</DistanceMeters>
          </Trackpoint>
          <Trackpoint>
            <Time>2022-06-16T06:52:18.000Z</Time>
            <Position>
              <LatitudeDegrees>36.79956813342869281768798828125</LatitudeDegrees>
              <LongitudeDegrees>-4.3956103362143039703369140625</LongitudeDegrees>
            </Position>
            <AltitudeMeters>441.600006103515625</AltitudeMeters>
            <DistanceMeters>NAN</DistanceMeters>
          </Trackpoint>
          <Trackpoint>
            <Time>2022-06-16T06:52:20.000Z</Time>
            <Position>
              <LatitudeDegrees>36.799553968012332916259765625</LatitudeDegrees>
              <LongitudeDegrees>-4.3956348113715648651123046875</LongitudeDegrees>
            </Position>
            <AltitudeMeters>441.79998779296875</AltitudeMeters>
            <DistanceMeters>NAN</DistanceMeters>
          </Trackpoint>
          <Trackpoint>
            <Time>2022-06-16T06:52:22.000Z</Time>
            <Position>
              <LatitudeDegrees>36.79954826831817626953125</LatitudeDegrees>
              <LongitudeDegrees>-4.39565702341496944427490234375</LongitudeDegrees>
            </Position>
            <AltitudeMeters>442</AltitudeMeters>
            <DistanceMeters>NAN</DistanceMeters>
          </Trackpoint>
          <Trackpoint>
            <Time>2022-06-16T06:52:25.000Z</Time>
            <Position>
              <LatitudeDegrees>36.79952722974121570587158203125</LatitudeDegrees>
              <LongitudeDegrees>-4.39568971283733844757080078125</LongitudeDegrees>
            </Position>
            <AltitudeMeters>442</AltitudeMeters>
            <DistanceMeters>NAN</DistanceMeters>
          </Trackpoint>
          <Trackpoint>
            <Time>2022-06-16T06:52:29.000Z</Time>
            <Position>
              <LatitudeDegrees>36.7994864098727703094482421875</LatitudeDegrees>
              <LongitudeDegrees>-4.39574000425636768341064453125</LongitudeDegrees>
            </Position>
            <AltitudeMeters>441.600006103515625</AltitudeMeters>
            <DistanceMeters>NAN</DistanceMeters>
          </Trackpoint>
          <Trackpoint>
            <Time>2022-06-16T06:52:30.000Z</Time>
            <Position>
              <LatitudeDegrees>36.79947945289313793182373046875</LatitudeDegrees>
              <LongitudeDegrees>-4.39575475640594959259033203125</LongitudeDegrees>
            </Position>
            <AltitudeMeters>441.600006103515625</AltitudeMeters>
            <DistanceMeters>NAN</DistanceMeters>
          </Trackpoint>
          <Trackpoint>
            <Time>2022-06-16T06:52:40.000Z</Time>
            <Position>
              <LatitudeDegrees>36.799369566142559051513671875</LatitudeDegrees>
              <LongitudeDegrees>-4.39587528817355632781982421875</LongitudeDegrees>
            </Position>
            <AltitudeMeters>439.600006103515625</AltitudeMeters>
            <DistanceMeters>NAN</DistanceMeters>
          </Trackpoint>
          <Trackpoint>
            <Time>2022-06-16T06:52:50.000Z</Time>
            <Position>
              <LatitudeDegrees>36.7992892675101757049560546875</LatitudeDegrees>
              <LongitudeDegrees>-4.39600923098623752593994140625</LongitudeDegrees>
            </Position>
            <AltitudeMeters>438.399993896484375</AltitudeMeters>
            <DistanceMeters>NAN</DistanceMeters>
          </Trackpoint>
          <Trackpoint>
            <Time>2022-06-16T06:52:53.000Z</Time>
            <Position>
              <LatitudeDegrees>36.79927174933254718780517578125</LatitudeDegrees>
              <LongitudeDegrees>-4.39604946412146091461181640625</LongitudeDegrees>
            </Position>
            <AltitudeMeters>438.399993896484375</AltitudeMeters>
            <DistanceMeters>NAN</DistanceMeters>
          </Trackpoint>
          <Trackpoint>
            <Time>2022-06-16T06:52:57.000Z</Time>
            <Position>
              <LatitudeDegrees>36.799250878393650054931640625</LatitudeDegrees>
              <LongitudeDegrees>-4.396105371415615081787109375</LongitudeDegrees>
            </Position>
            <AltitudeMeters>438.20001220703125</AltitudeMeters>
            <DistanceMeters>NAN</DistanceMeters>
          </Trackpoint>
          <Trackpoint>
            <Time>2022-06-16T06:53:00.000Z</Time>
            <Position>
              <LatitudeDegrees>36.7992342822253704071044921875</LatitudeDegrees>
              <LongitudeDegrees>-4.3961474485695362091064453125</LongitudeDegrees>
            </Position>
            <AltitudeMeters>438</AltitudeMeters>
            <DistanceMeters>NAN</DistanceMeters>
          </Trackpoint>
          <Trackpoint>
            <Time>2022-06-16T06:53:06.000Z</Time>
            <Position>
              <LatitudeDegrees>36.79921341128647327423095703125</LatitudeDegrees>
              <LongitudeDegrees>-4.39622850157320499420166015625</LongitudeDegrees>
            </Position>
            <AltitudeMeters>438</AltitudeMeters>
            <DistanceMeters>NAN</DistanceMeters>
          </Trackpoint>
          <Trackpoint>
            <Time>2022-06-16T06:53:09.000Z</Time>
            <Position>
              <LatitudeDegrees>36.799199581146240234375</LatitudeDegrees>
              <LongitudeDegrees>-4.39626672305166721343994140625</LongitudeDegrees>
            </Position>
            <AltitudeMeters>437.79998779296875</AltitudeMeters>
            <DistanceMeters>NAN</DistanceMeters>
          </Trackpoint>
          <Trackpoint>
            <Time>2022-06-16T06:53:10.000Z</Time>
            <Position>
              <LatitudeDegrees>36.79919564165174961090087890625</LatitudeDegrees>
              <LongitudeDegrees>-4.39627795480191707611083984375</LongitudeDegrees>
            </Position>
            <AltitudeMeters>437.79998779296875</AltitudeMeters>
            <DistanceMeters>NAN</DistanceMeters>
          </Trackpoint>
          <Trackpoint>
            <Time>2022-06-16T06:53:12.000Z</Time>
            <Position>
              <LatitudeDegrees>36.7991890199482440948486328125</LatitudeDegrees>
              <LongitudeDegrees>-4.39630351960659027099609375</LongitudeDegrees>
            </Position>
            <AltitudeMeters>437.79998779296875</AltitudeMeters>
            <DistanceMeters>NAN</DistanceMeters>
          </Trackpoint>
          <Trackpoint>
            <Time>2022-06-16T06:53:20.000Z</Time>
            <Position>
              <LatitudeDegrees>36.79913545958697795867919921875</LatitudeDegrees>
              <LongitudeDegrees>-4.396409802138805389404296875</LongitudeDegrees>
            </Position>
            <AltitudeMeters>436.79998779296875</AltitudeMeters>
            <DistanceMeters>NAN</DistanceMeters>
          </Trackpoint>
          <Trackpoint>
            <Time>2022-06-16T06:53:30.000Z</Time>
            <Position>
              <LatitudeDegrees>36.7990659736096858978271484375</LatitudeDegrees>
              <LongitudeDegrees>-4.3965829722583293914794921875</LongitudeDegrees>
            </Position>
            <AltitudeMeters>436</AltitudeMeters>
            <DistanceMeters>NAN</DistanceMeters>
          </Trackpoint>
          <Trackpoint>
            <Time>2022-06-16T06:53:31.000Z</Time>
            <Position>
              <LatitudeDegrees>36.79905231110751628875732421875</LatitudeDegrees>
              <LongitudeDegrees>-4.39659856259822845458984375</LongitudeDegrees>
            </Position>
            <AltitudeMeters>435.600006103515625</AltitudeMeters>
            <DistanceMeters>NAN</DistanceMeters>
          </Trackpoint>
          <Trackpoint>
            <Time>2022-06-16T06:53:40.000Z</Time>
            <Position>
              <LatitudeDegrees>36.79904158227145671844482421875</LatitudeDegrees>
              <LongitudeDegrees>-4.39675488509237766265869140625</LongitudeDegrees>
            </Position>
            <AltitudeMeters>437.399993896484375</AltitudeMeters>
            <DistanceMeters>NAN</DistanceMeters>
          </Trackpoint>
          <Trackpoint>
            <Time>2022-06-16T06:53:45.000Z</Time>
            <Position>
              <LatitudeDegrees>36.7990468628704547882080078125</LatitudeDegrees>
              <LongitudeDegrees>-4.39682864584028720855712890625</LongitudeDegrees>
            </Position>
            <AltitudeMeters>438.79998779296875</AltitudeMeters>
            <DistanceMeters>NAN</DistanceMeters>
          </Trackpoint>
          <Trackpoint>
            <Time>2022-06-16T06:53:49.000Z</Time>
            <Position>
              <LatitudeDegrees>36.7990824021399021148681640625</LatitudeDegrees>
              <LongitudeDegrees>-4.39689033664762973785400390625</LongitudeDegrees>
            </Position>
            <AltitudeMeters>441.399993896484375</AltitudeMeters>
            <DistanceMeters>NAN</DistanceMeters>
          </Trackpoint>
          <Trackpoint>
            <Time>2022-06-16T06:53:50.000Z</Time>
            <Position>
              <LatitudeDegrees>36.7990881018340587615966796875</LatitudeDegrees>
              <LongitudeDegrees>-4.39690056256949901580810546875</LongitudeDegrees>
            </Position>
            <AltitudeMeters>441.79998779296875</AltitudeMeters>
            <DistanceMeters>NAN</DistanceMeters>
          </Trackpoint>
          <Trackpoint>
            <Time>2022-06-16T06:53:55.000Z</Time>
            <Position>
              <LatitudeDegrees>36.799122802913188934326171875</LatitudeDegrees>
              <LongitudeDegrees>-4.39695320092141628265380859375</LongitudeDegrees>
            </Position>
            <AltitudeMeters>444.600006103515625</AltitudeMeters>
            <DistanceMeters>NAN</DistanceMeters>
          </Trackpoint>
          <Trackpoint>
            <Time>2022-06-16T06:54:00.000Z</Time>
            <Position>
              <LatitudeDegrees>36.7991507984697818756103515625</LatitudeDegrees>
              <LongitudeDegrees>-4.39702008850872516632080078125</LongitudeDegrees>
            </Position>
            <AltitudeMeters>447.600006103515625</AltitudeMeters>
            <DistanceMeters>NAN</DistanceMeters>
          </Trackpoint>
          <Trackpoint>
            <Time>2022-06-16T06:54:10.000Z</Time>
            <Position>
              <LatitudeDegrees>36.79917535744607448577880859375</LatitudeDegrees>
              <LongitudeDegrees>-4.39716727472841739654541015625</LongitudeDegrees>
            </Position>
            <AltitudeMeters>451.79998779296875</AltitudeMeters>
            <DistanceMeters>NAN</DistanceMeters>
          </Trackpoint>
          <Trackpoint>
            <Time>2022-06-16T06:54:20.000Z</Time>
            <Position>
              <LatitudeDegrees>36.79911307990550994873046875</LatitudeDegrees>
              <LongitudeDegrees>-4.39726400189101696014404296875</LongitudeDegrees>
            </Position>
            <AltitudeMeters>451.79998779296875</AltitudeMeters>
            <DistanceMeters>NAN</DistanceMeters>
          </Trackpoint>
          <Trackpoint>
            <Time>2022-06-16T06:54:30.000Z</Time>
            <Position>
              <LatitudeDegrees>36.79901844821870326995849609375</LatitudeDegrees>
              <LongitudeDegrees>-4.39733617007732391357421875</LongitudeDegrees>
            </Position>
            <AltitudeMeters>450.20001220703125</AltitudeMeters>
            <DistanceMeters>NAN</DistanceMeters>
          </Trackpoint>
          <Trackpoint>
            <Time>2022-06-16T06:54:34.000Z</Time>
            <Position>
              <LatitudeDegrees>36.79898223839700222015380859375</LatitudeDegrees>
              <LongitudeDegrees>-4.39736676402390003204345703125</LongitudeDegrees>
            </Position>
            <AltitudeMeters>449.79998779296875</AltitudeMeters>
            <DistanceMeters>NAN</DistanceMeters>
          </Trackpoint>
          <Trackpoint>
            <Time>2022-06-16T06:54:39.000Z</Time>
            <Position>
              <LatitudeDegrees>36.79895172826945781707763671875</LatitudeDegrees>
              <LongitudeDegrees>-4.39740967936813831329345703125</LongitudeDegrees>
            </Position>
            <AltitudeMeters>449.600006103515625</AltitudeMeters>
            <DistanceMeters>NAN</DistanceMeters>
          </Trackpoint>
          <Trackpoint>
            <Time>2022-06-16T06:54:40.000Z</Time>
            <Position>
              <LatitudeDegrees>36.79894468747079372406005859375</LatitudeDegrees>
              <LongitudeDegrees>-4.39742040820419788360595703125</LongitudeDegrees>
            </Position>
            <AltitudeMeters>449.600006103515625</AltitudeMeters>
            <DistanceMeters>NAN</DistanceMeters>
          </Trackpoint>
          <Trackpoint>
            <Time>2022-06-16T06:54:44.000Z</Time>
            <Position>
              <LatitudeDegrees>36.79886807687580585479736328125</LatitudeDegrees>
              <LongitudeDegrees>-4.39743985421955585479736328125</LongitudeDegrees>
            </Position>
            <AltitudeMeters>447</AltitudeMeters>
            <DistanceMeters>NAN</DistanceMeters>
          </Trackpoint>
          <Trackpoint>
            <Time>2022-06-16T06:54:50.000Z</Time>
            <Position>
              <LatitudeDegrees>36.79881107993423938751220703125</LatitudeDegrees>
              <LongitudeDegrees>-4.39751579426229000091552734375</LongitudeDegrees>
            </Position>
            <AltitudeMeters>446</AltitudeMeters>
            <DistanceMeters>NAN</DistanceMeters>
          </Trackpoint>
          <Trackpoint>
            <Time>2022-06-16T06:55:00.000Z</Time>
            <Position>
              <LatitudeDegrees>36.79871854372322559356689453125</LatitudeDegrees>
              <LongitudeDegrees>-4.39764152280986309051513671875</LongitudeDegrees>
            </Position>
            <AltitudeMeters>443.20001220703125</AltitudeMeters>
            <DistanceMeters>NAN</DistanceMeters>
          </Trackpoint>
          <Trackpoint>
            <Time>2022-06-16T06:55:04.000Z</Time>
            <Position>
              <LatitudeDegrees>36.79870261810719966888427734375</LatitudeDegrees>
              <LongitudeDegrees>-4.39770162105560302734375</LongitudeDegrees>
            </Position>
            <AltitudeMeters>443</AltitudeMeters>
            <DistanceMeters>NAN</DistanceMeters>
          </Trackpoint>
          <Trackpoint>
            <Time>2022-06-16T06:55:06.000Z</Time>
            <Position>
              <LatitudeDegrees>36.798699013888835906982421875</LatitudeDegrees>
              <LongitudeDegrees>-4.3977302871644496917724609375</LongitudeDegrees>
            </Position>
            <AltitudeMeters>443</AltitudeMeters>
            <DistanceMeters>NAN</DistanceMeters>
          </Trackpoint>
          <Trackpoint>
            <Time>2022-06-16T06:55:09.000Z</Time>
            <Position>
              <LatitudeDegrees>36.79869859479367733001708984375</LatitudeDegrees>
              <LongitudeDegrees>-4.39777831546962261199951171875</LongitudeDegrees>
            </Position>
            <AltitudeMeters>443.399993896484375</AltitudeMeters>
            <DistanceMeters>NAN</DistanceMeters>
          </Trackpoint>
          <Trackpoint>
            <Time>2022-06-16T06:55:10.000Z</Time>
            <Position>
              <LatitudeDegrees>36.79870270192623138427734375</LatitudeDegrees>
              <LongitudeDegrees>-4.3977903015911579132080078125</LongitudeDegrees>
            </Position>
            <AltitudeMeters>443.600006103515625</AltitudeMeters>
            <DistanceMeters>NAN</DistanceMeters>
          </Trackpoint>
          <Trackpoint>
            <Time>2022-06-16T06:55:20.000Z</Time>
            <Position>
              <LatitudeDegrees>36.79874201305210590362548828125</LatitudeDegrees>
              <LongitudeDegrees>-4.39793723635375499725341796875</LongitudeDegrees>
            </Position>
            <AltitudeMeters>445.79998779296875</AltitudeMeters>
            <DistanceMeters>NAN</DistanceMeters>
          </Trackpoint>
          <Trackpoint>
            <Time>2022-06-16T06:55:30.000Z</Time>
            <Position>
              <LatitudeDegrees>36.79881409741938114166259765625</LatitudeDegrees>
              <LongitudeDegrees>-4.39805039204657077789306640625</LongitudeDegrees>
            </Position>
            <AltitudeMeters>447.600006103515625</AltitudeMeters>
            <DistanceMeters>NAN</DistanceMeters>
          </Trackpoint>
          <Trackpoint>
            <Time>2022-06-16T06:55:35.000Z</Time>
            <Position>
              <LatitudeDegrees>36.798852570354938507080078125</LatitudeDegrees>
              <LongitudeDegrees>-4.3981363065540790557861328125</LongitudeDegrees>
            </Position>
            <AltitudeMeters>448</AltitudeMeters>
            <DistanceMeters>NAN</DistanceMeters>
          </Trackpoint>
          <Trackpoint>
            <Time>2022-06-16T06:55:39.000Z</Time>
            <Position>
              <LatitudeDegrees>36.7988929711282253265380859375</LatitudeDegrees>
              <LongitudeDegrees>-4.39818265847861766815185546875</LongitudeDegrees>
            </Position>
            <AltitudeMeters>448.79998779296875</AltitudeMeters>
            <DistanceMeters>NAN</DistanceMeters>
          </Trackpoint>
          <Trackpoint>
            <Time>2022-06-16T06:55:40.000Z</Time>
            <Position>
              <LatitudeDegrees>36.79890495724976062774658203125</LatitudeDegrees>
              <LongitudeDegrees>-4.39819305203855037689208984375</LongitudeDegrees>
            </Position>
            <AltitudeMeters>449</AltitudeMeters>
            <DistanceMeters>NAN</DistanceMeters>
          </Trackpoint>
          <Trackpoint>
            <Time>2022-06-16T06:55:46.000Z</Time>
            <Position>
              <LatitudeDegrees>36.79896346293389797210693359375</LatitudeDegrees>
              <LongitudeDegrees>-4.398254491388797760009765625</LongitudeDegrees>
            </Position>
            <AltitudeMeters>450.20001220703125</AltitudeMeters>
            <DistanceMeters>NAN</DistanceMeters>
          </Trackpoint>
          <Trackpoint>
            <Time>2022-06-16T06:55:50.000Z</Time>
            <Position>
              <LatitudeDegrees>36.79900554008781909942626953125</LatitudeDegrees>
              <LongitudeDegrees>-4.39829195849597454071044921875</LongitudeDegrees>
            </Position>
            <AltitudeMeters>451.20001220703125</AltitudeMeters>
            <DistanceMeters>NAN</DistanceMeters>
          </Trackpoint>
          <Trackpoint>
            <Time>2022-06-16T06:55:55.000Z</Time>
            <Position>
              <LatitudeDegrees>36.79905918426811695098876953125</LatitudeDegrees>
              <LongitudeDegrees>-4.3983388133347034454345703125</LongitudeDegrees>
            </Position>
            <AltitudeMeters>452.600006103515625</AltitudeMeters>
            <DistanceMeters>NAN</DistanceMeters>
          </Trackpoint>
          <Trackpoint>
            <Time>2022-06-16T06:56:00.000Z</Time>
            <Position>
              <LatitudeDegrees>36.79909623228013515472412109375</LatitudeDegrees>
              <LongitudeDegrees>-4.398381225764751434326171875</LongitudeDegrees>
            </Position>
            <AltitudeMeters>453.600006103515625</AltitudeMeters>
            <DistanceMeters>NAN</DistanceMeters>
          </Trackpoint>
          <Trackpoint>
            <Time>2022-06-16T06:56:10.000Z</Time>
            <Position>
              <LatitudeDegrees>36.7992047779262065887451171875</LatitudeDegrees>
              <LongitudeDegrees>-4.39843528904020786285400390625</LongitudeDegrees>
            </Position>
            <AltitudeMeters>457</AltitudeMeters>
            <DistanceMeters>NAN</DistanceMeters>
          </Trackpoint>
          <Trackpoint>
            <Time>2022-06-16T06:56:20.000Z</Time>
            <Position>
              <LatitudeDegrees>36.7992993257939815521240234375</LatitudeDegrees>
              <LongitudeDegrees>-4.39848608337342739105224609375</LongitudeDegrees>
            </Position>
            <AltitudeMeters>460.79998779296875</AltitudeMeters>
            <DistanceMeters>NAN</DistanceMeters>
          </Trackpoint>
          <Trackpoint>
            <Time>2022-06-16T06:56:23.000Z</Time>
            <Position>
              <LatitudeDegrees>36.799330003559589385986328125</LatitudeDegrees>
              <LongitudeDegrees>-4.39851231873035430908203125</LongitudeDegrees>
            </Position>
            <AltitudeMeters>462.20001220703125</AltitudeMeters>
            <DistanceMeters>NAN</DistanceMeters>
          </Trackpoint>
          <Trackpoint>
            <Time>2022-06-16T06:56:30.000Z</Time>
            <Position>
              <LatitudeDegrees>36.7994069494307041168212890625</LatitudeDegrees>
              <LongitudeDegrees>-4.39856738783419132232666015625</LongitudeDegrees>
            </Position>
            <AltitudeMeters>465.20001220703125</AltitudeMeters>
            <DistanceMeters>NAN</DistanceMeters>
          </Trackpoint>
          <Trackpoint>
            <Time>2022-06-16T06:56:40.000Z</Time>
            <Position>
              <LatitudeDegrees>36.79940653033554553985595703125</LatitudeDegrees>
              <LongitudeDegrees>-4.398721866309642791748046875</LongitudeDegrees>
            </Position>
            <AltitudeMeters>467</AltitudeMeters>
            <DistanceMeters>NAN</DistanceMeters>
          </Trackpoint>
          <Trackpoint>
            <Time>2022-06-16T06:56:50.000Z</Time>
            <Position>
              <LatitudeDegrees>36.799356155097484588623046875</LatitudeDegrees>
              <LongitudeDegrees>-4.39884080551564693450927734375</LongitudeDegrees>
            </Position>
            <AltitudeMeters>466</AltitudeMeters>
            <DistanceMeters>NAN</DistanceMeters>
          </Trackpoint>
          <Trackpoint>
            <Time>2022-06-16T06:56:56.000Z</Time>
            <Position>
              <LatitudeDegrees>36.7993120662868022918701171875</LatitudeDegrees>
              <LongitudeDegrees>-4.3989081121981143951416015625</LongitudeDegrees>
            </Position>
            <AltitudeMeters>465.399993896484375</AltitudeMeters>
            <DistanceMeters>NAN</DistanceMeters>
          </Trackpoint>
          <Trackpoint>
            <Time>2022-06-16T06:56:57.000Z</Time>
            <Position>
              <LatitudeDegrees>36.79931097663938999176025390625</LatitudeDegrees>
              <LongitudeDegrees>-4.3989208526909351348876953125</LongitudeDegrees>
            </Position>
            <AltitudeMeters>465.600006103515625</AltitudeMeters>
            <DistanceMeters>NAN</DistanceMeters>
          </Trackpoint>
          <Trackpoint>
            <Time>2022-06-16T06:56:58.000Z</Time>
            <Position>
              <LatitudeDegrees>36.79930846206843852996826171875</LatitudeDegrees>
              <LongitudeDegrees>-4.398930408060550689697265625</LongitudeDegrees>
            </Position>
            <AltitudeMeters>465.600006103515625</AltitudeMeters>
            <DistanceMeters>NAN</DistanceMeters>
          </Trackpoint>
          <Trackpoint>
            <Time>2022-06-16T06:57:00.000Z</Time>
            <Position>
              <LatitudeDegrees>36.79930678568780422210693359375</LatitudeDegrees>
              <LongitudeDegrees>-4.39894624985754489898681640625</LongitudeDegrees>
            </Position>
            <AltitudeMeters>465.79998779296875</AltitudeMeters>
            <DistanceMeters>NAN</DistanceMeters>
          </Trackpoint>
          <Trackpoint>
            <Time>2022-06-16T06:57:03.000Z</Time>
            <Position>
              <LatitudeDegrees>36.7992839030921459197998046875</LatitudeDegrees>
              <LongitudeDegrees>-4.3989661149680614471435546875</LongitudeDegrees>
            </Position>
            <AltitudeMeters>465.399993896484375</AltitudeMeters>
            <DistanceMeters>NAN</DistanceMeters>
          </Trackpoint>
          <Trackpoint>
            <Time>2022-06-16T06:57:10.000Z</Time>
            <Position>
              <LatitudeDegrees>36.799229420721530914306640625</LatitudeDegrees>
              <LongitudeDegrees>-4.39901950769126415252685546875</LongitudeDegrees>
            </Position>
            <AltitudeMeters>465</AltitudeMeters>
            <DistanceMeters>NAN</DistanceMeters>
          </Trackpoint>
          <Trackpoint>
            <Time>2022-06-16T06:57:12.000Z</Time>
            <Position>
              <LatitudeDegrees>36.79920519702136516571044921875</LatitudeDegrees>
              <LongitudeDegrees>-4.39902788959443569183349609375</LongitudeDegrees>
            </Position>
            <AltitudeMeters>464.600006103515625</AltitudeMeters>
            <DistanceMeters>NAN</DistanceMeters>
          </Trackpoint>
          <Trackpoint>
            <Time>2022-06-16T06:57:19.000Z</Time>
            <Position>
              <LatitudeDegrees>36.7991041950881481170654296875</LatitudeDegrees>
              <LongitudeDegrees>-4.3990381993353366851806640625</LongitudeDegrees>
            </Position>
            <AltitudeMeters>463</AltitudeMeters>
            <DistanceMeters>NAN</DistanceMeters>
          </Trackpoint>
          <Trackpoint>
            <Time>2022-06-16T06:57:20.000Z</Time>
            <Position>
              <LatitudeDegrees>36.79909564554691314697265625</LatitudeDegrees>
              <LongitudeDegrees>-4.39904180355370044708251953125</LongitudeDegrees>
            </Position>
            <AltitudeMeters>462.79998779296875</AltitudeMeters>
            <DistanceMeters>NAN</DistanceMeters>
          </Trackpoint>
          <Trackpoint>
            <Time>2022-06-16T06:57:23.000Z</Time>
            <Position>
              <LatitudeDegrees>36.799060441553592681884765625</LatitudeDegrees>
              <LongitudeDegrees>-4.39905387349426746368408203125</LongitudeDegrees>
            </Position>
            <AltitudeMeters>462.399993896484375</AltitudeMeters>
            <DistanceMeters>NAN</DistanceMeters>
          </Trackpoint>
          <Trackpoint>
            <Time>2022-06-16T06:57:25.000Z</Time>
            <Position>
              <LatitudeDegrees>36.7990364693105220794677734375</LatitudeDegrees>
              <LongitudeDegrees>-4.39906192012131214141845703125</LongitudeDegrees>
            </Position>
            <AltitudeMeters>462</AltitudeMeters>
            <DistanceMeters>NAN</DistanceMeters>
          </Trackpoint>
          <Trackpoint>
            <Time>2022-06-16T06:57:26.000Z</Time>
            <Position>
              <LatitudeDegrees>36.79902750067412853240966796875</LatitudeDegrees>
              <LongitudeDegrees>-4.39906979911029338836669921875</LongitudeDegrees>
            </Position>
            <AltitudeMeters>462</AltitudeMeters>
            <DistanceMeters>NAN</DistanceMeters>
          </Trackpoint>
          <Trackpoint>
            <Time>2022-06-16T06:57:30.000Z</Time>
            <Position>
              <LatitudeDegrees>36.79897050373256206512451171875</LatitudeDegrees>
              <LongitudeDegrees>-4.3990931846201419830322265625</LongitudeDegrees>
            </Position>
            <AltitudeMeters>461</AltitudeMeters>
            <DistanceMeters>NAN</DistanceMeters>
          </Trackpoint>
          <Trackpoint>
            <Time>2022-06-16T06:57:35.000Z</Time>
            <Position>
              <LatitudeDegrees>36.79891753010451793670654296875</LatitudeDegrees>
              <LongitudeDegrees>-4.3991367705166339874267578125</LongitudeDegrees>
            </Position>
            <AltitudeMeters>460.79998779296875</AltitudeMeters>
            <DistanceMeters>NAN</DistanceMeters>
          </Trackpoint>
          <Trackpoint>
            <Time>2022-06-16T06:57:39.000Z</Time>
            <Position>
              <LatitudeDegrees>36.79888031445443630218505859375</LatitudeDegrees>
              <LongitudeDegrees>-4.39917675219476222991943359375</LongitudeDegrees>
            </Position>
            <AltitudeMeters>461</AltitudeMeters>
            <DistanceMeters>NAN</DistanceMeters>
          </Trackpoint>
          <Trackpoint>
            <Time>2022-06-16T06:57:40.000Z</Time>
            <Position>
              <LatitudeDegrees>36.79887310601770877838134765625</LatitudeDegrees>
              <LongitudeDegrees>-4.3991897441446781158447265625</LongitudeDegrees>
            </Position>
            <AltitudeMeters>461.20001220703125</AltitudeMeters>
            <DistanceMeters>NAN</DistanceMeters>
          </Trackpoint>
          <Trackpoint>
            <Time>2022-06-16T06:57:43.000Z</Time>
            <Position>
              <LatitudeDegrees>36.798850558698177337646484375</LatitudeDegrees>
              <LongitudeDegrees>-4.39921581186354160308837890625</LongitudeDegrees>
            </Position>
            <AltitudeMeters>461.399993896484375</AltitudeMeters>
            <DistanceMeters>NAN</DistanceMeters>
          </Trackpoint>
          <Trackpoint>
            <Time>2022-06-16T06:57:50.000Z</Time>
            <Position>
              <LatitudeDegrees>36.798770092427730560302734375</LatitudeDegrees>
              <LongitudeDegrees>-4.39926845021545886993408203125</LongitudeDegrees>
            </Position>
            <AltitudeMeters>461</AltitudeMeters>
            <DistanceMeters>NAN</DistanceMeters>
          </Trackpoint>
          <Trackpoint>
            <Time>2022-06-16T06:57:54.000Z</Time>
            <Position>
              <LatitudeDegrees>36.79874435998499393463134765625</LatitudeDegrees>
              <LongitudeDegrees>-4.39930088818073272705078125</LongitudeDegrees>
            </Position>
            <AltitudeMeters>461.20001220703125</AltitudeMeters>
            <DistanceMeters>NAN</DistanceMeters>
          </Trackpoint>
          <Trackpoint>
            <Time>2022-06-16T06:58:00.000Z</Time>
            <Position>
              <LatitudeDegrees>36.7986794002354145050048828125</LatitudeDegrees>
              <LongitudeDegrees>-4.399359561502933502197265625</LongitudeDegrees>
            </Position>
            <AltitudeMeters>461</AltitudeMeters>
            <DistanceMeters>NAN</DistanceMeters>
          </Trackpoint>
          <Trackpoint>
            <Time>2022-06-16T06:58:09.000Z</Time>
            <Position>
              <LatitudeDegrees>36.7986348085105419158935546875</LatitudeDegrees>
              <LongitudeDegrees>-4.399496018886566162109375</LongitudeDegrees>
            </Position>
            <AltitudeMeters>462.399993896484375</AltitudeMeters>
            <DistanceMeters>NAN</DistanceMeters>
          </Trackpoint>
          <Trackpoint>
            <Time>2022-06-16T06:58:10.000Z</Time>
            <Position>
              <LatitudeDegrees>36.7986348085105419158935546875</LatitudeDegrees>
              <LongitudeDegrees>-4.399496018886566162109375</LongitudeDegrees>
            </Position>
            <AltitudeMeters>462.399993896484375</AltitudeMeters>
            <DistanceMeters>NAN</DistanceMeters>
          </Trackpoint>
          <Trackpoint>
            <Time>2022-06-16T06:58:11.000Z</Time>
            <Position>
              <LatitudeDegrees>36.79862952791154384613037109375</LatitudeDegrees>
              <LongitudeDegrees>-4.399529881775379180908203125</LongitudeDegrees>
            </Position>
            <AltitudeMeters>462.79998779296875</AltitudeMeters>
            <DistanceMeters>NAN</DistanceMeters>
          </Trackpoint>
          <Trackpoint>
            <Time>2022-06-16T06:58:20.000Z</Time>
            <Position>
              <LatitudeDegrees>36.7986066453158855438232421875</LatitudeDegrees>
              <LongitudeDegrees>-4.3996802531182765960693359375</LongitudeDegrees>
            </Position>
            <AltitudeMeters>464.20001220703125</AltitudeMeters>
            <DistanceMeters>NAN</DistanceMeters>
          </Trackpoint>
          <Trackpoint>
            <Time>2022-06-16T06:58:25.000Z</Time>
            <Position>
              <LatitudeDegrees>36.79859197698533535003662109375</LatitudeDegrees>
              <LongitudeDegrees>-4.39974890090525150299072265625</LongitudeDegrees>
            </Position>
            <AltitudeMeters>464.399993896484375</AltitudeMeters>
            <DistanceMeters>NAN</DistanceMeters>
          </Trackpoint>
          <Trackpoint>
            <Time>2022-06-16T06:58:26.000Z</Time>
            <Position>
              <LatitudeDegrees>36.7985882051289081573486328125</LatitudeDegrees>
              <LongitudeDegrees>-4.39976222813129425048828125</LongitudeDegrees>
            </Position>
            <AltitudeMeters>464.399993896484375</AltitudeMeters>
            <DistanceMeters>NAN</DistanceMeters>
          </Trackpoint>
          <Trackpoint>
            <Time>2022-06-16T06:58:30.000Z</Time>
            <Position>
              <LatitudeDegrees>36.79854713380336761474609375</LatitudeDegrees>
              <LongitudeDegrees>-4.399827606976032257080078125</LongitudeDegrees>
            </Position>
            <AltitudeMeters>463.79998779296875</AltitudeMeters>
            <DistanceMeters>NAN</DistanceMeters>
          </Trackpoint>
          <Trackpoint>
            <Time>2022-06-16T06:58:33.000Z</Time>
            <Position>
              <LatitudeDegrees>36.79853213019669055938720703125</LatitudeDegrees>
              <LongitudeDegrees>-4.3998492322862148284912109375</LongitudeDegrees>
            </Position>
            <AltitudeMeters>463.399993896484375</AltitudeMeters>
            <DistanceMeters>NAN</DistanceMeters>
          </Trackpoint>
          <Trackpoint>
            <Time>2022-06-16T06:58:34.000Z</Time>
            <Position>
              <LatitudeDegrees>36.798515953123569488525390625</LatitudeDegrees>
              <LongitudeDegrees>-4.39987429417669773101806640625</LongitudeDegrees>
            </Position>
            <AltitudeMeters>463.20001220703125</AltitudeMeters>
            <DistanceMeters>NAN</DistanceMeters>
          </Trackpoint>
          <Trackpoint>
            <Time>2022-06-16T06:58:36.000Z</Time>
            <Position>
              <LatitudeDegrees>36.7985062301158905029296875</LatitudeDegrees>
              <LongitudeDegrees>-4.39988569356501102447509765625</LongitudeDegrees>
            </Position>
            <AltitudeMeters>463</AltitudeMeters>
            <DistanceMeters>NAN</DistanceMeters>
          </Trackpoint>
          <Trackpoint>
            <Time>2022-06-16T06:58:37.000Z</Time>
            <Position>
              <LatitudeDegrees>36.79849726147949695587158203125</LatitudeDegrees>
              <LongitudeDegrees>-4.39990036189556121826171875</LongitudeDegrees>
            </Position>
            <AltitudeMeters>462.79998779296875</AltitudeMeters>
            <DistanceMeters>NAN</DistanceMeters>
          </Trackpoint>
          <Trackpoint>
            <Time>2022-06-16T06:58:40.000Z</Time>
            <Position>
              <LatitudeDegrees>36.79846742190420627593994140625</LatitudeDegrees>
              <LongitudeDegrees>-4.39994051121175289154052734375</LongitudeDegrees>
            </Position>
            <AltitudeMeters>462.399993896484375</AltitudeMeters>
            <DistanceMeters>NAN</DistanceMeters>
          </Trackpoint>
          <Trackpoint>
            <Time>2022-06-16T06:58:43.000Z</Time>
            <Position>
              <LatitudeDegrees>36.79844143800437450408935546875</LatitudeDegrees>
              <LongitudeDegrees>-4.39997856505215167999267578125</LongitudeDegrees>
            </Position>
            <AltitudeMeters>462</AltitudeMeters>
            <DistanceMeters>NAN</DistanceMeters>
          </Trackpoint>
          <Trackpoint>
            <Time>2022-06-16T06:58:44.000Z</Time>
            <Position>
              <LatitudeDegrees>36.7984343133866786956787109375</LatitudeDegrees>
              <LongitudeDegrees>-4.3999890424311161041259765625</LongitudeDegrees>
            </Position>
            <AltitudeMeters>461.79998779296875</AltitudeMeters>
            <DistanceMeters>NAN</DistanceMeters>
          </Trackpoint>
          <Trackpoint>
            <Time>2022-06-16T06:58:50.000Z</Time>
            <Position>
              <LatitudeDegrees>36.79836113937199115753173828125</LatitudeDegrees>
              <LongitudeDegrees>-4.4000450335443019866943359375</LongitudeDegrees>
            </Position>
            <AltitudeMeters>459.20001220703125</AltitudeMeters>
            <DistanceMeters>NAN</DistanceMeters>
          </Trackpoint>
          <Trackpoint>
            <Time>2022-06-16T06:58:53.000Z</Time>
            <Position>
              <LatitudeDegrees>36.79835401475429534912109375</LatitudeDegrees>
              <LongitudeDegrees>-4.40007545985281467437744140625</LongitudeDegrees>
            </Position>
            <AltitudeMeters>459</AltitudeMeters>
            <DistanceMeters>NAN</DistanceMeters>
          </Trackpoint>
          <Trackpoint>
            <Time>2022-06-16T06:58:55.000Z</Time>
            <Position>
              <LatitudeDegrees>36.79834739305078983306884765625</LatitudeDegrees>
              <LongitudeDegrees>-4.40010286867618560791015625</LongitudeDegrees>
            </Position>
            <AltitudeMeters>459</AltitudeMeters>
            <DistanceMeters>NAN</DistanceMeters>
          </Trackpoint>
          <Trackpoint>
            <Time>2022-06-16T06:58:56.000Z</Time>
            <Position>
              <LatitudeDegrees>36.79833917878568172454833984375</LatitudeDegrees>
              <LongitudeDegrees>-4.40013295970857143402099609375</LongitudeDegrees>
            </Position>
            <AltitudeMeters>458.79998779296875</AltitudeMeters>
            <DistanceMeters>NAN</DistanceMeters>
          </Trackpoint>
          <Trackpoint>
            <Time>2022-06-16T06:59:00.000Z</Time>
            <Position>
              <LatitudeDegrees>36.79833683185279369354248046875</LatitudeDegrees>
              <LongitudeDegrees>-4.4001808203756809234619140625</LongitudeDegrees>
            </Position>
            <AltitudeMeters>459</AltitudeMeters>
            <DistanceMeters>NAN</DistanceMeters>
          </Trackpoint>
          <Trackpoint>
            <Time>2022-06-16T06:59:02.000Z</Time>
            <Position>
              <LatitudeDegrees>36.798336245119571685791015625</LatitudeDegrees>
              <LongitudeDegrees>-4.40020521171391010284423828125</LongitudeDegrees>
            </Position>
            <AltitudeMeters>459.20001220703125</AltitudeMeters>
            <DistanceMeters>NAN</DistanceMeters>
          </Trackpoint>
          <Trackpoint>
            <Time>2022-06-16T06:59:03.000Z</Time>
            <Position>
              <LatitudeDegrees>36.7983347363770008087158203125</LatitudeDegrees>
              <LongitudeDegrees>-4.40022029913961887359619140625</LongitudeDegrees>
            </Position>
            <AltitudeMeters>459.20001220703125</AltitudeMeters>
            <DistanceMeters>NAN</DistanceMeters>
          </Trackpoint>
          <Trackpoint>
            <Time>2022-06-16T06:59:04.000Z</Time>
            <Position>
              <LatitudeDegrees>36.7983370833098888397216796875</LatitudeDegrees>
              <LongitudeDegrees>-4.4002492167055606842041015625</LongitudeDegrees>
            </Position>
            <AltitudeMeters>459.600006103515625</AltitudeMeters>
            <DistanceMeters>NAN</DistanceMeters>
          </Trackpoint>
          <Trackpoint>
            <Time>2022-06-16T06:59:07.000Z</Time>
            <Position>
              <LatitudeDegrees>36.7983387596905231475830078125</LatitudeDegrees>
              <LongitudeDegrees>-4.4002820737659931182861328125</LongitudeDegrees>
            </Position>
            <AltitudeMeters>460.399993896484375</AltitudeMeters>
            <DistanceMeters>NAN</DistanceMeters>
          </Trackpoint>
          <Trackpoint>
            <Time>2022-06-16T06:59:10.000Z</Time>
            <Position>
              <LatitudeDegrees>36.798343956470489501953125</LatitudeDegrees>
              <LongitudeDegrees>-4.400325156748294830322265625</LongitudeDegrees>
            </Position>
            <AltitudeMeters>461.399993896484375</AltitudeMeters>
            <DistanceMeters>NAN</DistanceMeters>
          </Trackpoint>
          <Trackpoint>
            <Time>2022-06-16T06:59:12.000Z</Time>
            <Position>
              <LatitudeDegrees>36.79835208691656589508056640625</LatitudeDegrees>
              <LongitudeDegrees>-4.4003583490848541259765625</LongitudeDegrees>
            </Position>
            <AltitudeMeters>462.20001220703125</AltitudeMeters>
            <DistanceMeters>NAN</DistanceMeters>
          </Trackpoint>
          <Trackpoint>
            <Time>2022-06-16T06:59:13.000Z</Time>
            <Position>
              <LatitudeDegrees>36.798360385000705718994140625</LatitudeDegrees>
              <LongitudeDegrees>-4.40037184394896030426025390625</LongitudeDegrees>
            </Position>
            <AltitudeMeters>462.79998779296875</AltitudeMeters>
            <DistanceMeters>NAN</DistanceMeters>
          </Trackpoint>
          <Trackpoint>
            <Time>2022-06-16T06:59:20.000Z</Time>
            <Position>
              <LatitudeDegrees>36.79843573831021785736083984375</LatitudeDegrees>
              <LongitudeDegrees>-4.40044728107750415802001953125</LongitudeDegrees>
            </Position>
            <AltitudeMeters>466.600006103515625</AltitudeMeters>
            <DistanceMeters>NAN</DistanceMeters>
          </Trackpoint>
          <Trackpoint>
            <Time>2022-06-16T06:59:28.000Z</Time>
            <Position>
              <LatitudeDegrees>36.79853112436830997467041015625</LatitudeDegrees>
              <LongitudeDegrees>-4.400423727929592132568359375</LongitudeDegrees>
            </Position>
            <AltitudeMeters>469.79998779296875</AltitudeMeters>
            <DistanceMeters>NAN</DistanceMeters>
          </Trackpoint>
          <Trackpoint>
            <Time>2022-06-16T06:59:30.000Z</Time>
            <Position>
              <LatitudeDegrees>36.798546798527240753173828125</LatitudeDegrees>
              <LongitudeDegrees>-4.4004021026194095611572265625</LongitudeDegrees>
            </Position>
            <AltitudeMeters>470.20001220703125</AltitudeMeters>
            <DistanceMeters>NAN</DistanceMeters>
          </Trackpoint>
          <Trackpoint>
            <Time>2022-06-16T06:59:40.000Z</Time>
            <Position>
              <LatitudeDegrees>36.7985915578901767730712890625</LatitudeDegrees>
              <LongitudeDegrees>-4.400266818702220916748046875</LongitudeDegrees>
            </Position>
            <AltitudeMeters>470.20001220703125</AltitudeMeters>
            <DistanceMeters>NAN</DistanceMeters>
          </Trackpoint>
          <Trackpoint>
            <Time>2022-06-16T06:59:50.000Z</Time>
            <Position>
              <LatitudeDegrees>36.79866707883775234222412109375</LatitudeDegrees>
              <LongitudeDegrees>-4.40013245679438114166259765625</LongitudeDegrees>
            </Position>
            <AltitudeMeters>471.600006103515625</AltitudeMeters>
            <DistanceMeters>NAN</DistanceMeters>
          </Trackpoint>
          <Trackpoint>
            <Time>2022-06-16T06:59:58.000Z</Time>
            <Position>
              <LatitudeDegrees>36.79873614571988582611083984375</LatitudeDegrees>
              <LongitudeDegrees>-4.40003036521375179290771484375</LongitudeDegrees>
            </Position>
            <AltitudeMeters>472</AltitudeMeters>
            <DistanceMeters>NAN</DistanceMeters>
          </Trackpoint>
          <Trackpoint>
            <Time>2022-06-16T07:00:00.000Z</Time>
            <Position>
              <LatitudeDegrees>36.79875659756362438201904296875</LatitudeDegrees>
              <LongitudeDegrees>-4.400007314980030059814453125</LongitudeDegrees>
            </Position>
            <AltitudeMeters>472</AltitudeMeters>
            <DistanceMeters>NAN</DistanceMeters>
          </Trackpoint>
          <Trackpoint>
            <Time>2022-06-16T07:00:10.000Z</Time>
            <Position>
              <LatitudeDegrees>36.798863969743251800537109375</LatitudeDegrees>
              <LongitudeDegrees>-4.39992760308086872100830078125</LongitudeDegrees>
            </Position>
            <AltitudeMeters>472.600006103515625</AltitudeMeters>
            <DistanceMeters>NAN</DistanceMeters>
          </Trackpoint>
          <Trackpoint>
            <Time>2022-06-16T07:00:13.000Z</Time>
            <Position>
              <LatitudeDegrees>36.798891462385654449462890625</LatitudeDegrees>
              <LongitudeDegrees>-4.39989642240107059478759765625</LongitudeDegrees>
            </Position>
            <AltitudeMeters>472.79998779296875</AltitudeMeters>
            <DistanceMeters>NAN</DistanceMeters>
          </Trackpoint>
          <Trackpoint>
            <Time>2022-06-16T07:00:18.000Z</Time>
            <Position>
              <LatitudeDegrees>36.7989435978233814239501953125</LatitudeDegrees>
              <LongitudeDegrees>-4.39985887147486209869384765625</LongitudeDegrees>
            </Position>
            <AltitudeMeters>473.20001220703125</AltitudeMeters>
            <DistanceMeters>NAN</DistanceMeters>
          </Trackpoint>
          <Trackpoint>
            <Time>2022-06-16T07:00:20.000Z</Time>
            <Position>
              <LatitudeDegrees>36.7989670671522617340087890625</LatitudeDegrees>
              <LongitudeDegrees>-4.39984093420207500457763671875</LongitudeDegrees>
            </Position>
            <AltitudeMeters>473.399993896484375</AltitudeMeters>
            <DistanceMeters>NAN</DistanceMeters>
          </Trackpoint>
          <Trackpoint>
            <Time>2022-06-16T07:00:30.000Z</Time>
            <Position>
              <LatitudeDegrees>36.7990736849606037139892578125</LatitudeDegrees>
              <LongitudeDegrees>-4.39974923618137836456298828125</LongitudeDegrees>
            </Position>
            <AltitudeMeters>474</AltitudeMeters>
            <DistanceMeters>NAN</DistanceMeters>
          </Trackpoint>
          <Trackpoint>
            <Time>2022-06-16T07:00:31.000Z</Time>
            <Position>
              <LatitudeDegrees>36.79908282123506069183349609375</LatitudeDegrees>
              <LongitudeDegrees>-4.39974018372595310211181640625</LongitudeDegrees>
            </Position>
            <AltitudeMeters>474</AltitudeMeters>
            <DistanceMeters>NAN</DistanceMeters>
          </Trackpoint>
          <Trackpoint>
            <Time>2022-06-16T07:00:33.000Z</Time>
            <Position>
              <LatitudeDegrees>36.799104027450084686279296875</LatitudeDegrees>
              <LongitudeDegrees>-4.3997231684625148773193359375</LongitudeDegrees>
            </Position>
            <AltitudeMeters>474</AltitudeMeters>
            <DistanceMeters>NAN</DistanceMeters>
          </Trackpoint>
          <Trackpoint>
            <Time>2022-06-16T07:00:37.000Z</Time>
            <Position>
              <LatitudeDegrees>36.79915188811719417572021484375</LatitudeDegrees>
              <LongitudeDegrees>-4.39968980848789215087890625</LongitudeDegrees>
            </Position>
            <AltitudeMeters>474.20001220703125</AltitudeMeters>
            <DistanceMeters>NAN</DistanceMeters>
          </Trackpoint>
          <Trackpoint>
            <Time>2022-06-16T07:00:40.000Z</Time>
            <Position>
              <LatitudeDegrees>36.799185834825038909912109375</LatitudeDegrees>
              <LongitudeDegrees>-4.3996661715209484100341796875</LongitudeDegrees>
            </Position>
            <AltitudeMeters>474.20001220703125</AltitudeMeters>
            <DistanceMeters>NAN</DistanceMeters>
          </Trackpoint>
          <Trackpoint>
            <Time>2022-06-16T07:00:44.000Z</Time>
            <Position>
              <LatitudeDegrees>36.79923084564507007598876953125</LatitudeDegrees>
              <LongitudeDegrees>-4.39963373355567455291748046875</LongitudeDegrees>
            </Position>
            <AltitudeMeters>474.20001220703125</AltitudeMeters>
            <DistanceMeters>NAN</DistanceMeters>
          </Trackpoint>
          <Trackpoint>
            <Time>2022-06-16T07:00:50.000Z</Time>
            <Position>
              <LatitudeDegrees>36.799292452633380889892578125</LatitudeDegrees>
              <LongitudeDegrees>-4.3995739705860614776611328125</LongitudeDegrees>
            </Position>
            <AltitudeMeters>474.399993896484375</AltitudeMeters>
            <DistanceMeters>NAN</DistanceMeters>
          </Trackpoint>
          <Trackpoint>
            <Time>2022-06-16T07:01:00.000Z</Time>
            <Position>
              <LatitudeDegrees>36.79938574321568012237548828125</LatitudeDegrees>
              <LongitudeDegrees>-4.39948436804115772247314453125</LongitudeDegrees>
            </Position>
            <AltitudeMeters>475.20001220703125</AltitudeMeters>
            <DistanceMeters>NAN</DistanceMeters>
          </Trackpoint>
          <Trackpoint>
            <Time>2022-06-16T07:01:10.000Z</Time>
            <Position>
              <LatitudeDegrees>36.79946235381066799163818359375</LatitudeDegrees>
              <LongitudeDegrees>-4.399359561502933502197265625</LongitudeDegrees>
            </Position>
            <AltitudeMeters>475.20001220703125</AltitudeMeters>
            <DistanceMeters>NAN</DistanceMeters>
          </Trackpoint>
          <Trackpoint>
            <Time>2022-06-16T07:01:13.000Z</Time>
            <Position>
              <LatitudeDegrees>36.79945330135524272918701171875</LatitudeDegrees>
              <LongitudeDegrees>-4.3993305601179599761962890625</LongitudeDegrees>
            </Position>
            <AltitudeMeters>474.79998779296875</AltitudeMeters>
            <DistanceMeters>NAN</DistanceMeters>
          </Trackpoint>
          <Trackpoint>
            <Time>2022-06-16T07:01:20.000Z</Time>
            <Position>
              <LatitudeDegrees>36.79946017451584339141845703125</LatitudeDegrees>
              <LongitudeDegrees>-4.39931706525385379791259765625</LongitudeDegrees>
            </Position>
            <AltitudeMeters>474.79998779296875</AltitudeMeters>
            <DistanceMeters>NAN</DistanceMeters>
          </Trackpoint>
          <Trackpoint>
            <Time>2022-06-16T07:01:30.000Z</Time>
            <Position>
              <LatitudeDegrees>36.79943989031016826629638671875</LatitudeDegrees>
              <LongitudeDegrees>-4.3993369303643703460693359375</LongitudeDegrees>
            </Position>
            <AltitudeMeters>474.600006103515625</AltitudeMeters>
            <DistanceMeters>NAN</DistanceMeters>
          </Trackpoint>
          <Trackpoint>
            <Time>2022-06-16T07:01:40.000Z</Time>
            <Position>
              <LatitudeDegrees>36.7994565702974796295166015625</LatitudeDegrees>
              <LongitudeDegrees>-4.39931287430226802825927734375</LongitudeDegrees>
            </Position>
            <AltitudeMeters>474.600006103515625</AltitudeMeters>
            <DistanceMeters>NAN</DistanceMeters>
          </Trackpoint>
          <Trackpoint>
            <Time>2022-06-16T07:01:50.000Z</Time>
            <Position>
              <LatitudeDegrees>36.79952840320765972137451171875</LatitudeDegrees>
              <LongitudeDegrees>-4.39928613603115081787109375</LongitudeDegrees>
            </Position>
            <AltitudeMeters>475.600006103515625</AltitudeMeters>
            <DistanceMeters>NAN</DistanceMeters>
          </Trackpoint>
          <Trackpoint>
            <Time>2022-06-16T07:02:00.000Z</Time>
            <Position>
              <LatitudeDegrees>36.79958892054855823516845703125</LatitudeDegrees>
              <LongitudeDegrees>-4.39926895312964916229248046875</LongitudeDegrees>
            </Position>
            <AltitudeMeters>476.79998779296875</AltitudeMeters>
            <DistanceMeters>NAN</DistanceMeters>
          </Trackpoint>
          <Trackpoint>
            <Time>2022-06-16T07:02:10.000Z</Time>
            <Position>
              <LatitudeDegrees>36.7996624298393726348876953125</LatitudeDegrees>
              <LongitudeDegrees>-4.39925939776003360748291015625</LongitudeDegrees>
            </Position>
            <AltitudeMeters>478.20001220703125</AltitudeMeters>
            <DistanceMeters>NAN</DistanceMeters>
          </Trackpoint>
          <Trackpoint>
            <Time>2022-06-16T07:02:14.000Z</Time>
            <Position>
              <LatitudeDegrees>36.79970492608845233917236328125</LatitudeDegrees>
              <LongitudeDegrees>-4.39924724400043487548828125</LongitudeDegrees>
            </Position>
            <AltitudeMeters>479</AltitudeMeters>
            <DistanceMeters>NAN</DistanceMeters>
          </Trackpoint>
          <Trackpoint>
            <Time>2022-06-16T07:02:20.000Z</Time>
            <Position>
              <LatitudeDegrees>36.79977885447442531585693359375</LatitudeDegrees>
              <LongitudeDegrees>-4.39924078993499279022216796875</LongitudeDegrees>
            </Position>
            <AltitudeMeters>480.20001220703125</AltitudeMeters>
            <DistanceMeters>NAN</DistanceMeters>
          </Trackpoint>
          <Trackpoint>
            <Time>2022-06-16T07:02:30.000Z</Time>
            <Position>
              <LatitudeDegrees>36.7998666130006313323974609375</LatitudeDegrees>
              <LongitudeDegrees>-4.3992179073393344879150390625</LongitudeDegrees>
            </Position>
            <AltitudeMeters>482.20001220703125</AltitudeMeters>
            <DistanceMeters>NAN</DistanceMeters>
          </Trackpoint>
          <Trackpoint>
            <Time>2022-06-16T07:02:40.000Z</Time>
            <Position>
              <LatitudeDegrees>36.79994749836623668670654296875</LatitudeDegrees>
              <LongitudeDegrees>-4.39917054958641529083251953125</LongitudeDegrees>
            </Position>
            <AltitudeMeters>483.79998779296875</AltitudeMeters>
            <DistanceMeters>NAN</DistanceMeters>
          </Trackpoint>
          <Trackpoint>
            <Time>2022-06-16T07:02:50.000Z</Time>
            <Position>
              <LatitudeDegrees>36.80003575980663299560546875</LatitudeDegrees>
              <LongitudeDegrees>-4.39910248853266239166259765625</LongitudeDegrees>
            </Position>
            <AltitudeMeters>486</AltitudeMeters>
            <DistanceMeters>NAN</DistanceMeters>
          </Trackpoint>
          <Trackpoint>
            <Time>2022-06-16T07:03:00.000Z</Time>
            <Position>
              <LatitudeDegrees>36.80013994686305522918701171875</LatitudeDegrees>
              <LongitudeDegrees>-4.399067871272563934326171875</LongitudeDegrees>
            </Position>
            <AltitudeMeters>489</AltitudeMeters>
            <DistanceMeters>NAN</DistanceMeters>
          </Trackpoint>
          <Trackpoint>
            <Time>2022-06-16T07:03:10.000Z</Time>
            <Position>
              <LatitudeDegrees>36.80026651360094547271728515625</LatitudeDegrees>
              <LongitudeDegrees>-4.399067871272563934326171875</LongitudeDegrees>
            </Position>
            <AltitudeMeters>491.20001220703125</AltitudeMeters>
            <DistanceMeters>NAN</DistanceMeters>
          </Trackpoint>
          <Trackpoint>
            <Time>2022-06-16T07:03:20.000Z</Time>
            <Position>
              <LatitudeDegrees>36.80039240978658199310302734375</LatitudeDegrees>
              <LongitudeDegrees>-4.39910433255136013031005859375</LongitudeDegrees>
            </Position>
            <AltitudeMeters>492.600006103515625</AltitudeMeters>
            <DistanceMeters>NAN</DistanceMeters>
          </Trackpoint>
          <Trackpoint>
            <Time>2022-06-16T07:03:29.000Z</Time>
            <Position>
              <LatitudeDegrees>36.800484023988246917724609375</LatitudeDegrees>
              <LongitudeDegrees>-4.39913752488791942596435546875</LongitudeDegrees>
            </Position>
            <AltitudeMeters>492.399993896484375</AltitudeMeters>
            <DistanceMeters>NAN</DistanceMeters>
          </Trackpoint>
          <Trackpoint>
            <Time>2022-06-16T07:03:30.000Z</Time>
            <Position>
              <LatitudeDegrees>36.8004919029772281646728515625</LatitudeDegrees>
              <LongitudeDegrees>-4.3991371057927608489990234375</LongitudeDegrees>
            </Position>
            <AltitudeMeters>492.399993896484375</AltitudeMeters>
            <DistanceMeters>NAN</DistanceMeters>
          </Trackpoint>
          <Trackpoint>
            <Time>2022-06-16T07:03:33.000Z</Time>
            <Position>
              <LatitudeDegrees>36.80051746778190135955810546875</LatitudeDegrees>
              <LongitudeDegrees>-4.39912679605185985565185546875</LongitudeDegrees>
            </Position>
            <AltitudeMeters>493.20001220703125</AltitudeMeters>
            <DistanceMeters>NAN</DistanceMeters>
          </Trackpoint>
          <Trackpoint>
            <Time>2022-06-16T07:03:37.000Z</Time>
            <Position>
              <LatitudeDegrees>36.8005488999187946319580078125</LatitudeDegrees>
              <LongitudeDegrees>-4.39909980632364749908447265625</LongitudeDegrees>
            </Position>
            <AltitudeMeters>494.399993896484375</AltitudeMeters>
            <DistanceMeters>NAN</DistanceMeters>
          </Trackpoint>
          <Trackpoint>
            <Time>2022-06-16T07:03:40.000Z</Time>
            <Position>
              <LatitudeDegrees>36.800559796392917633056640625</LatitudeDegrees>
              <LongitudeDegrees>-4.39909528009593486785888671875</LongitudeDegrees>
            </Position>
            <AltitudeMeters>494.79998779296875</AltitudeMeters>
            <DistanceMeters>NAN</DistanceMeters>
          </Trackpoint>
          <Trackpoint>
            <Time>2022-06-16T07:03:48.000Z</Time>
            <Position>
              <LatitudeDegrees>36.8005861155688762664794921875</LatitudeDegrees>
              <LongitudeDegrees>-4.39908723346889019012451171875</LongitudeDegrees>
            </Position>
            <AltitudeMeters>495.20001220703125</AltitudeMeters>
            <DistanceMeters>NAN</DistanceMeters>
          </Trackpoint>
          <Trackpoint>
            <Time>2022-06-16T07:03:50.000Z</Time>
            <Position>
              <LatitudeDegrees>36.80060178972780704498291015625</LatitudeDegrees>
              <LongitudeDegrees>-4.3990780971944332122802734375</LongitudeDegrees>
            </Position>
            <AltitudeMeters>495.79998779296875</AltitudeMeters>
            <DistanceMeters>NAN</DistanceMeters>
          </Trackpoint>
          <Trackpoint>
            <Time>2022-06-16T07:03:52.000Z</Time>
            <Position>
              <LatitudeDegrees>36.80063682608306407928466796875</LatitudeDegrees>
              <LongitudeDegrees>-4.3990579806268215179443359375</LongitudeDegrees>
            </Position>
            <AltitudeMeters>496.79998779296875</AltitudeMeters>
            <DistanceMeters>NAN</DistanceMeters>
          </Trackpoint>
          <Trackpoint>
            <Time>2022-06-16T07:04:00.000Z</Time>
            <Position>
              <LatitudeDegrees>36.800707988440990447998046875</LatitudeDegrees>
              <LongitudeDegrees>-4.3990143947303295135498046875</LongitudeDegrees>
            </Position>
            <AltitudeMeters>498.20001220703125</AltitudeMeters>
            <DistanceMeters>NAN</DistanceMeters>
          </Trackpoint>
          <Trackpoint>
            <Time>2022-06-16T07:04:10.000Z</Time>
            <Position>
              <LatitudeDegrees>36.80080697871744632720947265625</LatitudeDegrees>
              <LongitudeDegrees>-4.39896762371063232421875</LongitudeDegrees>
            </Position>
            <AltitudeMeters>499.600006103515625</AltitudeMeters>
            <DistanceMeters>NAN</DistanceMeters>
          </Trackpoint>
          <Trackpoint>
            <Time>2022-06-16T07:04:20.000Z</Time>
            <Position>
              <LatitudeDegrees>36.80090010166168212890625</LatitudeDegrees>
              <LongitudeDegrees>-4.3989198468625545501708984375</LongitudeDegrees>
            </Position>
            <AltitudeMeters>500.399993896484375</AltitudeMeters>
            <DistanceMeters>NAN</DistanceMeters>
          </Trackpoint>
          <Trackpoint>
            <Time>2022-06-16T07:04:30.000Z</Time>
            <Position>
              <LatitudeDegrees>36.8010142631828784942626953125</LatitudeDegrees>
              <LongitudeDegrees>-4.39888657070696353912353515625</LongitudeDegrees>
            </Position>
            <AltitudeMeters>500.399993896484375</AltitudeMeters>
            <DistanceMeters>NAN</DistanceMeters>
          </Trackpoint>
          <Trackpoint>
            <Time>2022-06-16T07:04:36.000Z</Time>
            <Position>
              <LatitudeDegrees>36.8011007644236087799072265625</LatitudeDegrees>
              <LongitudeDegrees>-4.39884985797107219696044921875</LongitudeDegrees>
            </Position>
            <AltitudeMeters>500.79998779296875</AltitudeMeters>
            <DistanceMeters>NAN</DistanceMeters>
          </Trackpoint>
          <Trackpoint>
            <Time>2022-06-16T07:04:37.000Z</Time>
            <Position>
              <LatitudeDegrees>36.8011148460209369659423828125</LatitudeDegrees>
              <LongitudeDegrees>-4.398843906819820404052734375</LongitudeDegrees>
            </Position>
            <AltitudeMeters>500.79998779296875</AltitudeMeters>
            <DistanceMeters>NAN</DistanceMeters>
          </Trackpoint>
          <Trackpoint>
            <Time>2022-06-16T07:04:40.000Z</Time>
            <Position>
              <LatitudeDegrees>36.80113990791141986846923828125</LatitudeDegrees>
              <LongitudeDegrees>-4.398836195468902587890625</LongitudeDegrees>
            </Position>
            <AltitudeMeters>500.79998779296875</AltitudeMeters>
            <DistanceMeters>NAN</DistanceMeters>
          </Trackpoint>
          <Trackpoint>
            <Time>2022-06-16T07:04:45.000Z</Time>
            <Position>
              <LatitudeDegrees>36.80120646022260189056396484375</LatitudeDegrees>
              <LongitudeDegrees>-4.39882270060479640960693359375</LongitudeDegrees>
            </Position>
            <AltitudeMeters>500.600006103515625</AltitudeMeters>
            <DistanceMeters>NAN</DistanceMeters>
          </Trackpoint>
          <Trackpoint>
            <Time>2022-06-16T07:04:50.000Z</Time>
            <Position>
              <LatitudeDegrees>36.80126764811575412750244140625</LatitudeDegrees>
              <LongitudeDegrees>-4.39879856072366237640380859375</LongitudeDegrees>
            </Position>
            <AltitudeMeters>501.600006103515625</AltitudeMeters>
            <DistanceMeters>NAN</DistanceMeters>
          </Trackpoint>
          <Trackpoint>
            <Time>2022-06-16T07:05:00.000Z</Time>
            <Position>
              <LatitudeDegrees>36.801374852657318115234375</LatitudeDegrees>
              <LongitudeDegrees>-4.398749358952045440673828125</LongitudeDegrees>
            </Position>
            <AltitudeMeters>503.600006103515625</AltitudeMeters>
            <DistanceMeters>NAN</DistanceMeters>
          </Trackpoint>
          <Trackpoint>
            <Time>2022-06-16T07:05:04.000Z</Time>
            <Position>
              <LatitudeDegrees>36.80138784460723400115966796875</LatitudeDegrees>
              <LongitudeDegrees>-4.39873452298343181610107421875</LongitudeDegrees>
            </Position>
            <AltitudeMeters>504.20001220703125</AltitudeMeters>
            <DistanceMeters>NAN</DistanceMeters>
          </Trackpoint>
          <Trackpoint>
            <Time>2022-06-16T07:05:05.000Z</Time>
            <Position>
              <LatitudeDegrees>36.80138759315013885498046875</LatitudeDegrees>
              <LongitudeDegrees>-4.3987344391644001007080078125</LongitudeDegrees>
            </Position>
            <AltitudeMeters>504.20001220703125</AltitudeMeters>
            <DistanceMeters>NAN</DistanceMeters>
          </Trackpoint>
          <Trackpoint>
            <Time>2022-06-16T07:05:06.000Z</Time>
            <Position>
              <LatitudeDegrees>36.80138759315013885498046875</LatitudeDegrees>
              <LongitudeDegrees>-4.3987344391644001007080078125</LongitudeDegrees>
            </Position>
            <AltitudeMeters>504.20001220703125</AltitudeMeters>
            <DistanceMeters>NAN</DistanceMeters>
          </Trackpoint>
          <Trackpoint>
            <Time>2022-06-16T07:05:10.000Z</Time>
            <Position>
              <LatitudeDegrees>36.8013761937618255615234375</LatitudeDegrees>
              <LongitudeDegrees>-4.398743994534015655517578125</LongitudeDegrees>
            </Position>
            <AltitudeMeters>503.79998779296875</AltitudeMeters>
            <DistanceMeters>NAN</DistanceMeters>
          </Trackpoint>
          <Trackpoint>
            <Time>2022-06-16T07:05:19.000Z</Time>
            <Position>
              <LatitudeDegrees>36.80132665671408176422119140625</LatitudeDegrees>
              <LongitudeDegrees>-4.398740641772747039794921875</LongitudeDegrees>
            </Position>
            <AltitudeMeters>504.20001220703125</AltitudeMeters>
            <DistanceMeters>NAN</DistanceMeters>
          </Trackpoint>
          <Trackpoint>
            <Time>2022-06-16T07:05:20.000Z</Time>
            <Position>
              <LatitudeDegrees>36.80132078938186168670654296875</LatitudeDegrees>
              <LongitudeDegrees>-4.3987431563436985015869140625</LongitudeDegrees>
            </Position>
            <AltitudeMeters>504</AltitudeMeters>
            <DistanceMeters>NAN</DistanceMeters>
          </Trackpoint>
          <Trackpoint>
            <Time>2022-06-16T07:05:25.000Z</Time>
            <Position>
              <LatitudeDegrees>36.80127871222794055938720703125</LatitudeDegrees>
              <LongitudeDegrees>-4.39876654185354709625244140625</LongitudeDegrees>
            </Position>
            <AltitudeMeters>503</AltitudeMeters>
            <DistanceMeters>NAN</DistanceMeters>
          </Trackpoint>
          <Trackpoint>
            <Time>2022-06-16T07:05:30.000Z</Time>
            <Position>
              <LatitudeDegrees>36.801209561526775360107421875</LatitudeDegrees>
              <LongitudeDegrees>-4.39877844415605068206787109375</LongitudeDegrees>
            </Position>
            <AltitudeMeters>502.600006103515625</AltitudeMeters>
            <DistanceMeters>NAN</DistanceMeters>
          </Trackpoint>
          <Trackpoint>
            <Time>2022-06-16T07:05:40.000Z</Time>
            <Position>
              <LatitudeDegrees>36.8010742776095867156982421875</LatitudeDegrees>
              <LongitudeDegrees>-4.39878297038376331329345703125</LongitudeDegrees>
            </Position>
            <AltitudeMeters>504</AltitudeMeters>
            <DistanceMeters>NAN</DistanceMeters>
          </Trackpoint>
          <Trackpoint>
            <Time>2022-06-16T07:05:50.000Z</Time>
            <Position>
              <LatitudeDegrees>36.8009599484503269195556640625</LatitudeDegrees>
              <LongitudeDegrees>-4.3988081999123096466064453125</LongitudeDegrees>
            </Position>
            <AltitudeMeters>504.600006103515625</AltitudeMeters>
            <DistanceMeters>NAN</DistanceMeters>
          </Trackpoint>
          <Trackpoint>
            <Time>2022-06-16T07:06:00.000Z</Time>
            <Position>
              <LatitudeDegrees>36.8008154444396495819091796875</LatitudeDegrees>
              <LongitudeDegrees>-4.39887181855738162994384765625</LongitudeDegrees>
            </Position>
            <AltitudeMeters>503</AltitudeMeters>
            <DistanceMeters>NAN</DistanceMeters>
          </Trackpoint>
          <Trackpoint>
            <Time>2022-06-16T07:06:02.000Z</Time>
            <Position>
              <LatitudeDegrees>36.80080421268939971923828125</LatitudeDegrees>
              <LongitudeDegrees>-4.39887684769928455352783203125</LongitudeDegrees>
            </Position>
            <AltitudeMeters>502.79998779296875</AltitudeMeters>
            <DistanceMeters>NAN</DistanceMeters>
          </Trackpoint>
          <Trackpoint>
            <Time>2022-06-16T07:06:06.000Z</Time>
            <Position>
              <LatitudeDegrees>36.80076263844966888427734375</LatitudeDegrees>
              <LongitudeDegrees>-4.3989077769219875335693359375</LongitudeDegrees>
            </Position>
            <AltitudeMeters>501.79998779296875</AltitudeMeters>
            <DistanceMeters>NAN</DistanceMeters>
          </Trackpoint>
          <Trackpoint>
            <Time>2022-06-16T07:06:07.000Z</Time>
            <Position>
              <LatitudeDegrees>36.80074092932045459747314453125</LatitudeDegrees>
              <LongitudeDegrees>-4.39891892485320568084716796875</LongitudeDegrees>
            </Position>
            <AltitudeMeters>501.600006103515625</AltitudeMeters>
            <DistanceMeters>NAN</DistanceMeters>
          </Trackpoint>
          <Trackpoint>
            <Time>2022-06-16T07:06:09.000Z</Time>
            <Position>
              <LatitudeDegrees>36.8007296137511730194091796875</LatitudeDegrees>
              <LongitudeDegrees>-4.398927055299282073974609375</LongitudeDegrees>
            </Position>
            <AltitudeMeters>501.20001220703125</AltitudeMeters>
            <DistanceMeters>NAN</DistanceMeters>
          </Trackpoint>
          <Trackpoint>
            <Time>2022-06-16T07:06:10.000Z</Time>
            <Position>
              <LatitudeDegrees>36.80071771144866943359375</LatitudeDegrees>
              <LongitudeDegrees>-4.3989408016204833984375</LongitudeDegrees>
            </Position>
            <AltitudeMeters>500.79998779296875</AltitudeMeters>
            <DistanceMeters>NAN</DistanceMeters>
          </Trackpoint>
          <Trackpoint>
            <Time>2022-06-16T07:06:11.000Z</Time>
            <Position>
              <LatitudeDegrees>36.80070572532713413238525390625</LatitudeDegrees>
              <LongitudeDegrees>-4.39894951879978179931640625</LongitudeDegrees>
            </Position>
            <AltitudeMeters>500.600006103515625</AltitudeMeters>
            <DistanceMeters>NAN</DistanceMeters>
          </Trackpoint>
          <Trackpoint>
            <Time>2022-06-16T07:06:20.000Z</Time>
            <Position>
              <LatitudeDegrees>36.800615452229976654052734375</LatitudeDegrees>
              <LongitudeDegrees>-4.39903392456471920013427734375</LongitudeDegrees>
            </Position>
            <AltitudeMeters>497.600006103515625</AltitudeMeters>
            <DistanceMeters>NAN</DistanceMeters>
          </Trackpoint>
          <Trackpoint>
            <Time>2022-06-16T07:06:23.000Z</Time>
            <Position>
              <LatitudeDegrees>36.80058703757822513580322265625</LatitudeDegrees>
              <LongitudeDegrees>-4.39905437640845775604248046875</LongitudeDegrees>
            </Position>
            <AltitudeMeters>496.399993896484375</AltitudeMeters>
            <DistanceMeters>NAN</DistanceMeters>
          </Trackpoint>
          <Trackpoint>
            <Time>2022-06-16T07:06:30.000Z</Time>
            <Position>
              <LatitudeDegrees>36.80051176808774471282958984375</LatitudeDegrees>
              <LongitudeDegrees>-4.39908639527857303619384765625</LongitudeDegrees>
            </Position>
            <AltitudeMeters>494.600006103515625</AltitudeMeters>
            <DistanceMeters>NAN</DistanceMeters>
          </Trackpoint>
          <Trackpoint>
            <Time>2022-06-16T07:06:40.000Z</Time>
            <Position>
              <LatitudeDegrees>36.80037438869476318359375</LatitudeDegrees>
              <LongitudeDegrees>-4.39906460233032703399658203125</LongitudeDegrees>
            </Position>
            <AltitudeMeters>493</AltitudeMeters>
            <DistanceMeters>NAN</DistanceMeters>
          </Trackpoint>
          <Trackpoint>
            <Time>2022-06-16T07:06:50.000Z</Time>
            <Position>
              <LatitudeDegrees>36.80027472786605358123779296875</LatitudeDegrees>
              <LongitudeDegrees>-4.399062506854534149169921875</LongitudeDegrees>
            </Position>
            <AltitudeMeters>491.399993896484375</AltitudeMeters>
            <DistanceMeters>NAN</DistanceMeters>
          </Trackpoint>
          <Trackpoint>
            <Time>2022-06-16T07:07:00.000Z</Time>
            <Position>
              <LatitudeDegrees>36.80014899931848049163818359375</LatitudeDegrees>
              <LongitudeDegrees>-4.3990945257246494293212890625</LongitudeDegrees>
            </Position>
            <AltitudeMeters>488.79998779296875</AltitudeMeters>
            <DistanceMeters>NAN</DistanceMeters>
          </Trackpoint>
          <Trackpoint>
            <Time>2022-06-16T07:07:10.000Z</Time>
            <Position>
              <LatitudeDegrees>36.7999868094921112060546875</LatitudeDegrees>
              <LongitudeDegrees>-4.39912729896605014801025390625</LongitudeDegrees>
            </Position>
            <AltitudeMeters>484.600006103515625</AltitudeMeters>
            <DistanceMeters>NAN</DistanceMeters>
          </Trackpoint>
          <Trackpoint>
            <Time>2022-06-16T07:07:20.000Z</Time>
            <Position>
              <LatitudeDegrees>36.799840293824672698974609375</LatitudeDegrees>
              <LongitudeDegrees>-4.39918496645987033843994140625</LongitudeDegrees>
            </Position>
            <AltitudeMeters>481.20001220703125</AltitudeMeters>
            <DistanceMeters>NAN</DistanceMeters>
          </Trackpoint>
          <Trackpoint>
            <Time>2022-06-16T07:07:30.000Z</Time>
            <Position>
              <LatitudeDegrees>36.79969470016658306121826171875</LatitudeDegrees>
              <LongitudeDegrees>-4.39920256845653057098388671875</LongitudeDegrees>
            </Position>
            <AltitudeMeters>478.20001220703125</AltitudeMeters>
            <DistanceMeters>NAN</DistanceMeters>
          </Trackpoint>
          <Trackpoint>
            <Time>2022-06-16T07:07:40.000Z</Time>
            <Position>
              <LatitudeDegrees>36.7996805347502231597900390625</LatitudeDegrees>
              <LongitudeDegrees>-4.39912428148090839385986328125</LongitudeDegrees>
            </Position>
            <AltitudeMeters>477.399993896484375</AltitudeMeters>
            <DistanceMeters>NAN</DistanceMeters>
          </Trackpoint>
          <Trackpoint>
            <Time>2022-06-16T07:07:46.000Z</Time>
            <Position>
              <LatitudeDegrees>36.7997361905872821807861328125</LatitudeDegrees>
              <LongitudeDegrees>-4.3990910053253173828125</LongitudeDegrees>
            </Position>
            <AltitudeMeters>478.600006103515625</AltitudeMeters>
            <DistanceMeters>NAN</DistanceMeters>
          </Trackpoint>
          <Trackpoint>
            <Time>2022-06-16T07:07:50.000Z</Time>
            <Position>
              <LatitudeDegrees>36.7997680418193340301513671875</LatitudeDegrees>
              <LongitudeDegrees>-4.39907264895737171173095703125</LongitudeDegrees>
            </Position>
            <AltitudeMeters>479.399993896484375</AltitudeMeters>
            <DistanceMeters>NAN</DistanceMeters>
          </Trackpoint>
          <Trackpoint>
            <Time>2022-06-16T07:08:00.000Z</Time>
            <Position>
              <LatitudeDegrees>36.79986434988677501678466796875</LatitudeDegrees>
              <LongitudeDegrees>-4.399035014212131500244140625</LongitudeDegrees>
            </Position>
            <AltitudeMeters>481.79998779296875</AltitudeMeters>
            <DistanceMeters>NAN</DistanceMeters>
          </Trackpoint>
          <Trackpoint>
            <Time>2022-06-16T07:08:02.000Z</Time>
            <Position>
              <LatitudeDegrees>36.79987541399896144866943359375</LatitudeDegrees>
              <LongitudeDegrees>-4.399018585681915283203125</LongitudeDegrees>
            </Position>
            <AltitudeMeters>482.20001220703125</AltitudeMeters>
            <DistanceMeters>NAN</DistanceMeters>
          </Trackpoint>
          <Trackpoint>
            <Time>2022-06-16T07:08:06.000Z</Time>
            <Position>
              <LatitudeDegrees>36.79989226162433624267578125</LatitudeDegrees>
              <LongitudeDegrees>-4.3989641033113002777099609375</LongitudeDegrees>
            </Position>
            <AltitudeMeters>482.79998779296875</AltitudeMeters>
            <DistanceMeters>NAN</DistanceMeters>
          </Trackpoint>
          <Trackpoint>
            <Time>2022-06-16T07:08:08.000Z</Time>
            <Position>
              <LatitudeDegrees>36.799905002117156982421875</LatitudeDegrees>
              <LongitudeDegrees>-4.39894624985754489898681640625</LongitudeDegrees>
            </Position>
            <AltitudeMeters>483.20001220703125</AltitudeMeters>
            <DistanceMeters>NAN</DistanceMeters>
          </Trackpoint>
          <Trackpoint>
            <Time>2022-06-16T07:08:10.000Z</Time>
            <Position>
              <LatitudeDegrees>36.79992252029478549957275390625</LatitudeDegrees>
              <LongitudeDegrees>-4.39893233589828014373779296875</LongitudeDegrees>
            </Position>
            <AltitudeMeters>483.600006103515625</AltitudeMeters>
            <DistanceMeters>NAN</DistanceMeters>
          </Trackpoint>
          <Trackpoint>
            <Time>2022-06-16T07:08:12.000Z</Time>
            <Position>
              <LatitudeDegrees>36.79994280450046062469482421875</LatitudeDegrees>
              <LongitudeDegrees>-4.3989131413400173187255859375</LongitudeDegrees>
            </Position>
            <AltitudeMeters>484.20001220703125</AltitudeMeters>
            <DistanceMeters>NAN</DistanceMeters>
          </Trackpoint>
          <Trackpoint>
            <Time>2022-06-16T07:08:15.000Z</Time>
            <Position>
              <LatitudeDegrees>36.7999745719134807586669921875</LatitudeDegrees>
              <LongitudeDegrees>-4.398892186582088470458984375</LongitudeDegrees>
            </Position>
            <AltitudeMeters>485.20001220703125</AltitudeMeters>
            <DistanceMeters>NAN</DistanceMeters>
          </Trackpoint>
          <Trackpoint>
            <Time>2022-06-16T07:08:20.000Z</Time>
            <Position>
              <LatitudeDegrees>36.80002477951347827911376953125</LatitudeDegrees>
              <LongitudeDegrees>-4.39887517131865024566650390625</LongitudeDegrees>
            </Position>
            <AltitudeMeters>486.399993896484375</AltitudeMeters>
            <DistanceMeters>NAN</DistanceMeters>
          </Trackpoint>
          <Trackpoint>
            <Time>2022-06-16T07:08:30.000Z</Time>
            <Position>
              <LatitudeDegrees>36.8001039884984493255615234375</LatitudeDegrees>
              <LongitudeDegrees>-4.3988320045173168182373046875</LongitudeDegrees>
            </Position>
            <AltitudeMeters>488.79998779296875</AltitudeMeters>
            <DistanceMeters>NAN</DistanceMeters>
          </Trackpoint>
          <Trackpoint>
            <Time>2022-06-16T07:08:39.000Z</Time>
            <Position>
              <LatitudeDegrees>36.80016861297190189361572265625</LatitudeDegrees>
              <LongitudeDegrees>-4.3988135643303394317626953125</LongitudeDegrees>
            </Position>
            <AltitudeMeters>491.20001220703125</AltitudeMeters>
            <DistanceMeters>NAN</DistanceMeters>
          </Trackpoint>
          <Trackpoint>
            <Time>2022-06-16T07:08:40.000Z</Time>
            <Position>
              <LatitudeDegrees>36.800173558294773101806640625</LatitudeDegrees>
              <LongitudeDegrees>-4.3988108821213245391845703125</LongitudeDegrees>
            </Position>
            <AltitudeMeters>491.399993896484375</AltitudeMeters>
            <DistanceMeters>NAN</DistanceMeters>
          </Trackpoint>
          <Trackpoint>
            <Time>2022-06-16T07:08:42.000Z</Time>
            <Position>
              <LatitudeDegrees>36.80018520914018154144287109375</LatitudeDegrees>
              <LongitudeDegrees>-4.398801326751708984375</LongitudeDegrees>
            </Position>
            <AltitudeMeters>492</AltitudeMeters>
            <DistanceMeters>NAN</DistanceMeters>
          </Trackpoint>
          <Trackpoint>
            <Time>2022-06-16T07:08:49.000Z</Time>
            <Position>
              <LatitudeDegrees>36.80022544227540493011474609375</LatitudeDegrees>
              <LongitudeDegrees>-4.3987599201500415802001953125</LongitudeDegrees>
            </Position>
            <AltitudeMeters>493.600006103515625</AltitudeMeters>
            <DistanceMeters>NAN</DistanceMeters>
          </Trackpoint>
          <Trackpoint>
            <Time>2022-06-16T07:08:50.000Z</Time>
            <Position>
              <LatitudeDegrees>36.80022946558892726898193359375</LatitudeDegrees>
              <LongitudeDegrees>-4.398758411407470703125</LongitudeDegrees>
            </Position>
            <AltitudeMeters>493.79998779296875</AltitudeMeters>
            <DistanceMeters>NAN</DistanceMeters>
          </Trackpoint>
          <Trackpoint>
            <Time>2022-06-16T07:09:00.000Z</Time>
            <Position>
              <LatitudeDegrees>36.8002756498754024505615234375</LatitudeDegrees>
              <LongitudeDegrees>-4.3987230397760868072509765625</LongitudeDegrees>
            </Position>
            <AltitudeMeters>495.79998779296875</AltitudeMeters>
            <DistanceMeters>NAN</DistanceMeters>
          </Trackpoint>
          <Trackpoint>
            <Time>2022-06-16T07:09:10.000Z</Time>
            <Position>
              <LatitudeDegrees>36.80032066069543361663818359375</LatitudeDegrees>
              <LongitudeDegrees>-4.3986898474395275115966796875</LongitudeDegrees>
            </Position>
            <AltitudeMeters>497.600006103515625</AltitudeMeters>
            <DistanceMeters>NAN</DistanceMeters>
          </Trackpoint>
          <Trackpoint>
            <Time>2022-06-16T07:09:15.000Z</Time>
            <Position>
              <LatitudeDegrees>36.80034957826137542724609375</LatitudeDegrees>
              <LongitudeDegrees>-4.3986658751964569091796875</LongitudeDegrees>
            </Position>
            <AltitudeMeters>498.79998779296875</AltitudeMeters>
            <DistanceMeters>NAN</DistanceMeters>
          </Trackpoint>
          <Trackpoint>
            <Time>2022-06-16T07:09:20.000Z</Time>
            <Position>
              <LatitudeDegrees>36.80036676116287708282470703125</LatitudeDegrees>
              <LongitudeDegrees>-4.398635365068912506103515625</LongitudeDegrees>
            </Position>
            <AltitudeMeters>499.600006103515625</AltitudeMeters>
            <DistanceMeters>NAN</DistanceMeters>
          </Trackpoint>
          <Trackpoint>
            <Time>2022-06-16T07:09:29.000Z</Time>
            <Position>
              <LatitudeDegrees>36.800402887165546417236328125</LatitudeDegrees>
              <LongitudeDegrees>-4.3985907733440399169921875</LongitudeDegrees>
            </Position>
            <AltitudeMeters>501.79998779296875</AltitudeMeters>
            <DistanceMeters>NAN</DistanceMeters>
          </Trackpoint>
          <Trackpoint>
            <Time>2022-06-16T07:09:30.000Z</Time>
            <Position>
              <LatitudeDegrees>36.80041017942130565643310546875</LatitudeDegrees>
              <LongitudeDegrees>-4.39858498983085155487060546875</LongitudeDegrees>
            </Position>
            <AltitudeMeters>502.20001220703125</AltitudeMeters>
            <DistanceMeters>NAN</DistanceMeters>
          </Trackpoint>
          <Trackpoint>
            <Time>2022-06-16T07:09:33.000Z</Time>
            <Position>
              <LatitudeDegrees>36.80041856132447719573974609375</LatitudeDegrees>
              <LongitudeDegrees>-4.398577697575092315673828125</LongitudeDegrees>
            </Position>
            <AltitudeMeters>502.79998779296875</AltitudeMeters>
            <DistanceMeters>NAN</DistanceMeters>
          </Trackpoint>
          <Trackpoint>
            <Time>2022-06-16T07:09:34.000Z</Time>
            <Position>
              <LatitudeDegrees>36.800423674285411834716796875</LatitudeDegrees>
              <LongitudeDegrees>-4.39857560209929943084716796875</LongitudeDegrees>
            </Position>
            <AltitudeMeters>503</AltitudeMeters>
            <DistanceMeters>NAN</DistanceMeters>
          </Trackpoint>
          <Trackpoint>
            <Time>2022-06-16T07:09:35.000Z</Time>
            <Position>
              <LatitudeDegrees>36.80042803287506103515625</LatitudeDegrees>
              <LongitudeDegrees>-4.398573674261569976806640625</LongitudeDegrees>
            </Position>
            <AltitudeMeters>503.20001220703125</AltitudeMeters>
            <DistanceMeters>NAN</DistanceMeters>
          </Trackpoint>
          <Trackpoint>
            <Time>2022-06-16T07:09:36.000Z</Time>
            <Position>
              <LatitudeDegrees>36.8004328943789005279541015625</LatitudeDegrees>
              <LongitudeDegrees>-4.39857124350965023040771484375</LongitudeDegrees>
            </Position>
            <AltitudeMeters>503.600006103515625</AltitudeMeters>
            <DistanceMeters>NAN</DistanceMeters>
          </Trackpoint>
          <Trackpoint>
            <Time>2022-06-16T07:09:40.000Z</Time>
            <Position>
              <LatitudeDegrees>36.80045016109943389892578125</LatitudeDegrees>
              <LongitudeDegrees>-4.39855850301682949066162109375</LongitudeDegrees>
            </Position>
            <AltitudeMeters>504.600006103515625</AltitudeMeters>
            <DistanceMeters>NAN</DistanceMeters>
          </Trackpoint>
          <Trackpoint>
            <Time>2022-06-16T07:09:47.000Z</Time>
            <Position>
              <LatitudeDegrees>36.80048159323632717132568359375</LatitudeDegrees>
              <LongitudeDegrees>-4.398519694805145263671875</LongitudeDegrees>
            </Position>
            <AltitudeMeters>506.600006103515625</AltitudeMeters>
            <DistanceMeters>NAN</DistanceMeters>
          </Trackpoint>
          <Trackpoint>
            <Time>2022-06-16T07:09:50.000Z</Time>
            <Position>
              <LatitudeDegrees>36.80048394016921520233154296875</LatitudeDegrees>
              <LongitudeDegrees>-4.39850636757910251617431640625</LongitudeDegrees>
            </Position>
            <AltitudeMeters>506.79998779296875</AltitudeMeters>
            <DistanceMeters>NAN</DistanceMeters>
          </Trackpoint>
          <Trackpoint>
            <Time>2022-06-16T07:09:54.000Z</Time>
            <Position>
              <LatitudeDegrees>36.80048234760761260986328125</LatitudeDegrees>
              <LongitudeDegrees>-4.398481808602809906005859375</LongitudeDegrees>
            </Position>
            <AltitudeMeters>507.20001220703125</AltitudeMeters>
            <DistanceMeters>NAN</DistanceMeters>
          </Trackpoint>
          <Trackpoint>
            <Time>2022-06-16T07:10:00.000Z</Time>
            <Position>
              <LatitudeDegrees>36.80049232207238674163818359375</LatitudeDegrees>
              <LongitudeDegrees>-4.3984518013894557952880859375</LongitudeDegrees>
            </Position>
            <AltitudeMeters>508</AltitudeMeters>
            <DistanceMeters>NAN</DistanceMeters>
          </Trackpoint>
          <Trackpoint>
            <Time>2022-06-16T07:10:10.000Z</Time>
            <Position>
              <LatitudeDegrees>36.80051160044968128204345703125</LatitudeDegrees>
              <LongitudeDegrees>-4.39842782914638519287109375</LongitudeDegrees>
            </Position>
            <AltitudeMeters>509.20001220703125</AltitudeMeters>
            <DistanceMeters>NAN</DistanceMeters>
          </Trackpoint>
          <Trackpoint>
            <Time>2022-06-16T07:10:20.000Z</Time>
            <Position>
              <LatitudeDegrees>36.800534985959529876708984375</LatitudeDegrees>
              <LongitudeDegrees>-4.39837611280381679534912109375</LongitudeDegrees>
            </Position>
            <AltitudeMeters>511</AltitudeMeters>
            <DistanceMeters>NAN</DistanceMeters>
          </Trackpoint>
          <Trackpoint>
            <Time>2022-06-16T07:10:30.000Z</Time>
            <Position>
              <LatitudeDegrees>36.80056147277355194091796875</LatitudeDegrees>
              <LongitudeDegrees>-4.39833663403987884521484375</LongitudeDegrees>
            </Position>
            <AltitudeMeters>512.79998779296875</AltitudeMeters>
            <DistanceMeters>NAN</DistanceMeters>
          </Trackpoint>
          <Trackpoint>
            <Time>2022-06-16T07:10:39.000Z</Time>
            <Position>
              <LatitudeDegrees>36.8005931563675403594970703125</LatitudeDegrees>
              <LongitudeDegrees>-4.39825574867427349090576171875</LongitudeDegrees>
            </Position>
            <AltitudeMeters>515.20001220703125</AltitudeMeters>
            <DistanceMeters>NAN</DistanceMeters>
          </Trackpoint>
          <Trackpoint>
            <Time>2022-06-16T07:10:40.000Z</Time>
            <Position>
              <LatitudeDegrees>36.80059743113815784454345703125</LatitudeDegrees>
              <LongitudeDegrees>-4.39824636094272136688232421875</LongitudeDegrees>
            </Position>
            <AltitudeMeters>515.5999755859375</AltitudeMeters>
            <DistanceMeters>NAN</DistanceMeters>
          </Trackpoint>
          <Trackpoint>
            <Time>2022-06-16T07:10:50.000Z</Time>
            <Position>
              <LatitudeDegrees>36.80065090768039226531982421875</LatitudeDegrees>
              <LongitudeDegrees>-4.39816002734005451202392578125</LongitudeDegrees>
            </Position>
            <AltitudeMeters>519</AltitudeMeters>
            <DistanceMeters>NAN</DistanceMeters>
          </Trackpoint>
          <Trackpoint>
            <Time>2022-06-16T07:11:00.000Z</Time>
            <Position>
              <LatitudeDegrees>36.80070488713681697845458984375</LatitudeDegrees>
              <LongitudeDegrees>-4.3980967439711093902587890625</LongitudeDegrees>
            </Position>
            <AltitudeMeters>521.79998779296875</AltitudeMeters>
            <DistanceMeters>NAN</DistanceMeters>
          </Trackpoint>
          <Trackpoint>
            <Time>2022-06-16T07:11:10.000Z</Time>
            <Position>
              <LatitudeDegrees>36.80072835646569728851318359375</LatitudeDegrees>
              <LongitudeDegrees>-4.39804133959114551544189453125</LongitudeDegrees>
            </Position>
            <AltitudeMeters>523.4000244140625</AltitudeMeters>
            <DistanceMeters>NAN</DistanceMeters>
          </Trackpoint>
          <Trackpoint>
            <Time>2022-06-16T07:11:20.000Z</Time>
            <Position>
              <LatitudeDegrees>36.80075098760426044464111328125</LatitudeDegrees>
              <LongitudeDegrees>-4.39801150001585483551025390625</LongitudeDegrees>
            </Position>
            <AltitudeMeters>524.5999755859375</AltitudeMeters>
            <DistanceMeters>NAN</DistanceMeters>
          </Trackpoint>
          <Trackpoint>
            <Time>2022-06-16T07:11:28.000Z</Time>
            <Position>
              <LatitudeDegrees>36.8007561005651950836181640625</LatitudeDegrees>
              <LongitudeDegrees>-4.39795735292136669158935546875</LongitudeDegrees>
            </Position>
            <AltitudeMeters>525.5999755859375</AltitudeMeters>
            <DistanceMeters>NAN</DistanceMeters>
          </Trackpoint>
          <Trackpoint>
            <Time>2022-06-16T07:11:30.000Z</Time>
            <Position>
              <LatitudeDegrees>36.8007607944309711456298828125</LatitudeDegrees>
              <LongitudeDegrees>-4.397952742874622344970703125</LongitudeDegrees>
            </Position>
            <AltitudeMeters>525.79998779296875</AltitudeMeters>
            <DistanceMeters>NAN</DistanceMeters>
          </Trackpoint>
          <Trackpoint>
            <Time>2022-06-16T07:11:40.000Z</Time>
            <Position>
              <LatitudeDegrees>36.800770349800586700439453125</LatitudeDegrees>
              <LongitudeDegrees>-4.39793271012604236602783203125</LongitudeDegrees>
            </Position>
            <AltitudeMeters>526.5999755859375</AltitudeMeters>
            <DistanceMeters>NAN</DistanceMeters>
          </Trackpoint>
          <Trackpoint>
            <Time>2022-06-16T07:11:48.000Z</Time>
            <Position>
              <LatitudeDegrees>36.800800859928131103515625</LatitudeDegrees>
              <LongitudeDegrees>-4.39791284501552581787109375</LongitudeDegrees>
            </Position>
            <AltitudeMeters>528</AltitudeMeters>
            <DistanceMeters>NAN</DistanceMeters>
          </Trackpoint>
          <Trackpoint>
            <Time>2022-06-16T07:11:50.000Z</Time>
            <Position>
              <LatitudeDegrees>36.8008110858500003814697265625</LatitudeDegrees>
              <LongitudeDegrees>-4.39789834432303905487060546875</LongitudeDegrees>
            </Position>
            <AltitudeMeters>528.5999755859375</AltitudeMeters>
            <DistanceMeters>NAN</DistanceMeters>
          </Trackpoint>
          <Trackpoint>
            <Time>2022-06-16T07:12:00.000Z</Time>
            <Position>
              <LatitudeDegrees>36.80085492320358753204345703125</LatitudeDegrees>
              <LongitudeDegrees>-4.39784520305693149566650390625</LongitudeDegrees>
            </Position>
            <AltitudeMeters>531.20001220703125</AltitudeMeters>
            <DistanceMeters>NAN</DistanceMeters>
          </Trackpoint>
          <Trackpoint>
            <Time>2022-06-16T07:12:10.000Z</Time>
            <Position>
              <LatitudeDegrees>36.800889037549495697021484375</LatitudeDegrees>
              <LongitudeDegrees>-4.397790133953094482421875</LongitudeDegrees>
            </Position>
            <AltitudeMeters>533.4000244140625</AltitudeMeters>
            <DistanceMeters>NAN</DistanceMeters>
          </Trackpoint>
          <Trackpoint>
            <Time>2022-06-16T07:12:20.000Z</Time>
            <Position>
              <LatitudeDegrees>36.80091979913413524627685546875</LatitudeDegrees>
              <LongitudeDegrees>-4.39772467128932476043701171875</LongitudeDegrees>
            </Position>
            <AltitudeMeters>535.20001220703125</AltitudeMeters>
            <DistanceMeters>NAN</DistanceMeters>
          </Trackpoint>
          <Trackpoint>
            <Time>2022-06-16T07:12:30.000Z</Time>
            <Position>
              <LatitudeDegrees>36.8009559251368045806884765625</LatitudeDegrees>
              <LongitudeDegrees>-4.39768695272505283355712890625</LongitudeDegrees>
            </Position>
            <AltitudeMeters>536.5999755859375</AltitudeMeters>
            <DistanceMeters>NAN</DistanceMeters>
          </Trackpoint>
          <Trackpoint>
            <Time>2022-06-16T07:12:40.000Z</Time>
            <Position>
              <LatitudeDegrees>36.80099942721426486968994140625</LatitudeDegrees>
              <LongitudeDegrees>-4.397650994360446929931640625</LongitudeDegrees>
            </Position>
            <AltitudeMeters>538.4000244140625</AltitudeMeters>
            <DistanceMeters>NAN</DistanceMeters>
          </Trackpoint>
          <Trackpoint>
            <Time>2022-06-16T07:12:50.000Z</Time>
            <Position>
              <LatitudeDegrees>36.8010575138032436370849609375</LatitudeDegrees>
              <LongitudeDegrees>-4.3975747190415859222412109375</LongitudeDegrees>
            </Position>
            <AltitudeMeters>540.5999755859375</AltitudeMeters>
            <DistanceMeters>NAN</DistanceMeters>
          </Trackpoint>
          <Trackpoint>
            <Time>2022-06-16T07:13:00.000Z</Time>
            <Position>
              <LatitudeDegrees>36.801130436360836029052734375</LatitudeDegrees>
              <LongitudeDegrees>-4.39751646481454372406005859375</LongitudeDegrees>
            </Position>
            <AltitudeMeters>543.5999755859375</AltitudeMeters>
            <DistanceMeters>NAN</DistanceMeters>
          </Trackpoint>
          <Trackpoint>
            <Time>2022-06-16T07:13:10.000Z</Time>
            <Position>
              <LatitudeDegrees>36.80119439028203487396240234375</LatitudeDegrees>
              <LongitudeDegrees>-4.39745795913040637969970703125</LongitudeDegrees>
            </Position>
            <AltitudeMeters>545.79998779296875</AltitudeMeters>
            <DistanceMeters>NAN</DistanceMeters>
          </Trackpoint>
          <Trackpoint>
            <Time>2022-06-16T07:13:20.000Z</Time>
            <Position>
              <LatitudeDegrees>36.8012456037104129791259765625</LatitudeDegrees>
              <LongitudeDegrees>-4.397421665489673614501953125</LongitudeDegrees>
            </Position>
            <AltitudeMeters>547</AltitudeMeters>
            <DistanceMeters>NAN</DistanceMeters>
          </Trackpoint>
          <Trackpoint>
            <Time>2022-06-16T07:13:26.000Z</Time>
            <Position>
              <LatitudeDegrees>36.80127116851508617401123046875</LatitudeDegrees>
              <LongitudeDegrees>-4.3974074162542819976806640625</LongitudeDegrees>
            </Position>
            <AltitudeMeters>547.5999755859375</AltitudeMeters>
            <DistanceMeters>NAN</DistanceMeters>
          </Trackpoint>
          <Trackpoint>
            <Time>2022-06-16T07:13:27.000Z</Time>
            <Position>
              <LatitudeDegrees>36.8012769520282745361328125</LatitudeDegrees>
              <LongitudeDegrees>-4.3974030576646327972412109375</LongitudeDegrees>
            </Position>
            <AltitudeMeters>547.79998779296875</AltitudeMeters>
            <DistanceMeters>NAN</DistanceMeters>
          </Trackpoint>
          <Trackpoint>
            <Time>2022-06-16T07:13:29.000Z</Time>
            <Position>
              <LatitudeDegrees>36.80128843523561954498291015625</LatitudeDegrees>
              <LongitudeDegrees>-4.39739962108433246612548828125</LongitudeDegrees>
            </Position>
            <AltitudeMeters>548</AltitudeMeters>
            <DistanceMeters>NAN</DistanceMeters>
          </Trackpoint>
          <Trackpoint>
            <Time>2022-06-16T07:13:30.000Z</Time>
            <Position>
              <LatitudeDegrees>36.80129706859588623046875</LatitudeDegrees>
              <LongitudeDegrees>-4.39739928580820560455322265625</LongitudeDegrees>
            </Position>
            <AltitudeMeters>548.20001220703125</AltitudeMeters>
            <DistanceMeters>NAN</DistanceMeters>
          </Trackpoint>
          <Trackpoint>
            <Time>2022-06-16T07:13:31.000Z</Time>
            <Position>
              <LatitudeDegrees>36.801304109394550323486328125</LatitudeDegrees>
              <LongitudeDegrees>-4.3973983637988567352294921875</LongitudeDegrees>
            </Position>
            <AltitudeMeters>548.4000244140625</AltitudeMeters>
            <DistanceMeters>NAN</DistanceMeters>
          </Trackpoint>
          <Trackpoint>
            <Time>2022-06-16T07:13:32.000Z</Time>
            <Position>
              <LatitudeDegrees>36.8013146705925464630126953125</LatitudeDegrees>
              <LongitudeDegrees>-4.397399537265300750732421875</LongitudeDegrees>
            </Position>
            <AltitudeMeters>548.5999755859375</AltitudeMeters>
            <DistanceMeters>NAN</DistanceMeters>
          </Trackpoint>
          <Trackpoint>
            <Time>2022-06-16T07:13:36.000Z</Time>
            <Position>
              <LatitudeDegrees>36.8013471923768520355224609375</LatitudeDegrees>
              <LongitudeDegrees>-4.39737950451672077178955078125</LongitudeDegrees>
            </Position>
            <AltitudeMeters>549.20001220703125</AltitudeMeters>
            <DistanceMeters>NAN</DistanceMeters>
          </Trackpoint>
          <Trackpoint>
            <Time>2022-06-16T07:13:39.000Z</Time>
            <Position>
              <LatitudeDegrees>36.80137284100055694580078125</LatitudeDegrees>
              <LongitudeDegrees>-4.39736039377748966217041015625</LongitudeDegrees>
            </Position>
            <AltitudeMeters>549.79998779296875</AltitudeMeters>
            <DistanceMeters>NAN</DistanceMeters>
          </Trackpoint>
          <Trackpoint>
            <Time>2022-06-16T07:13:40.000Z</Time>
            <Position>
              <LatitudeDegrees>36.80138030089437961578369140625</LatitudeDegrees>
              <LongitudeDegrees>-4.397355280816555023193359375</LongitudeDegrees>
            </Position>
            <AltitudeMeters>550</AltitudeMeters>
            <DistanceMeters>NAN</DistanceMeters>
          </Trackpoint>
          <Trackpoint>
            <Time>2022-06-16T07:13:50.000Z</Time>
            <Position>
              <LatitudeDegrees>36.8014645390212535858154296875</LatitudeDegrees>
              <LongitudeDegrees>-4.397321753203868865966796875</LongitudeDegrees>
            </Position>
            <AltitudeMeters>551.79998779296875</AltitudeMeters>
            <DistanceMeters>NAN</DistanceMeters>
          </Trackpoint>
          <Trackpoint>
            <Time>2022-06-16T07:14:00.000Z</Time>
            <Position>
              <LatitudeDegrees>36.8015426583588123321533203125</LatitudeDegrees>
              <LongitudeDegrees>-4.3972944281995296478271484375</LongitudeDegrees>
            </Position>
            <AltitudeMeters>555</AltitudeMeters>
            <DistanceMeters>NAN</DistanceMeters>
          </Trackpoint>
          <Trackpoint>
            <Time>2022-06-16T07:14:10.000Z</Time>
            <Position>
              <LatitudeDegrees>36.80160309188067913055419921875</LatitudeDegrees>
              <LongitudeDegrees>-4.39727825112640857696533203125</LongitudeDegrees>
            </Position>
            <AltitudeMeters>557.5999755859375</AltitudeMeters>
            <DistanceMeters>NAN</DistanceMeters>
          </Trackpoint>
          <Trackpoint>
            <Time>2022-06-16T07:14:16.000Z</Time>
            <Position>
              <LatitudeDegrees>36.8016429059207439422607421875</LatitudeDegrees>
              <LongitudeDegrees>-4.39727137796580791473388671875</LongitudeDegrees>
            </Position>
            <AltitudeMeters>559.4000244140625</AltitudeMeters>
            <DistanceMeters>NAN</DistanceMeters>
          </Trackpoint>
          <Trackpoint>
            <Time>2022-06-16T07:14:20.000Z</Time>
            <Position>
              <LatitudeDegrees>36.80166721343994140625</LatitudeDegrees>
              <LongitudeDegrees>-4.3972702883183956146240234375</LongitudeDegrees>
            </Position>
            <AltitudeMeters>560.4000244140625</AltitudeMeters>
            <DistanceMeters>NAN</DistanceMeters>
          </Trackpoint>
          <Trackpoint>
            <Time>2022-06-16T07:14:30.000Z</Time>
            <Position>
              <LatitudeDegrees>36.80172144435346126556396484375</LatitudeDegrees>
              <LongitudeDegrees>-4.39722795970737934112548828125</LongitudeDegrees>
            </Position>
            <AltitudeMeters>562.5999755859375</AltitudeMeters>
            <DistanceMeters>NAN</DistanceMeters>
          </Trackpoint>
          <Trackpoint>
            <Time>2022-06-16T07:14:39.000Z</Time>
            <Position>
              <LatitudeDegrees>36.80177525617182254791259765625</LatitudeDegrees>
              <LongitudeDegrees>-4.39718856476247310638427734375</LongitudeDegrees>
            </Position>
            <AltitudeMeters>564.79998779296875</AltitudeMeters>
            <DistanceMeters>NAN</DistanceMeters>
          </Trackpoint>
          <Trackpoint>
            <Time>2022-06-16T07:14:40.000Z</Time>
            <Position>
              <LatitudeDegrees>36.801783554255962371826171875</LatitudeDegrees>
              <LongitudeDegrees>-4.3971861340105533599853515625</LongitudeDegrees>
            </Position>
            <AltitudeMeters>565.20001220703125</AltitudeMeters>
            <DistanceMeters>NAN</DistanceMeters>
          </Trackpoint>
          <Trackpoint>
            <Time>2022-06-16T07:14:50.000Z</Time>
            <Position>
              <LatitudeDegrees>36.801823787391185760498046875</LatitudeDegrees>
              <LongitudeDegrees>-4.3971844576299190521240234375</LongitudeDegrees>
            </Position>
            <AltitudeMeters>566.4000244140625</AltitudeMeters>
            <DistanceMeters>NAN</DistanceMeters>
          </Trackpoint>
          <Trackpoint>
            <Time>2022-06-16T07:15:00.000Z</Time>
            <Position>
              <LatitudeDegrees>36.80186712183058261871337890625</LatitudeDegrees>
              <LongitudeDegrees>-4.3972042389214038848876953125</LongitudeDegrees>
            </Position>
            <AltitudeMeters>567.4000244140625</AltitudeMeters>
            <DistanceMeters>NAN</DistanceMeters>
          </Trackpoint>
          <Trackpoint>
            <Time>2022-06-16T07:15:09.000Z</Time>
            <Position>
              <LatitudeDegrees>36.801912300288677215576171875</LatitudeDegrees>
              <LongitudeDegrees>-4.3971978686749935150146484375</LongitudeDegrees>
            </Position>
            <AltitudeMeters>569.20001220703125</AltitudeMeters>
            <DistanceMeters>NAN</DistanceMeters>
          </Trackpoint>
          <Trackpoint>
            <Time>2022-06-16T07:15:10.000Z</Time>
            <Position>
              <LatitudeDegrees>36.8019148148596286773681640625</LatitudeDegrees>
              <LongitudeDegrees>-4.39719292335212230682373046875</LongitudeDegrees>
            </Position>
            <AltitudeMeters>569.4000244140625</AltitudeMeters>
            <DistanceMeters>NAN</DistanceMeters>
          </Trackpoint>
          <Trackpoint>
            <Time>2022-06-16T07:15:20.000Z</Time>
            <Position>
              <LatitudeDegrees>36.801946163177490234375</LatitudeDegrees>
              <LongitudeDegrees>-4.39715646207332611083984375</LongitudeDegrees>
            </Position>
            <AltitudeMeters>570.5999755859375</AltitudeMeters>
            <DistanceMeters>NAN</DistanceMeters>
          </Trackpoint>
          <Trackpoint>
            <Time>2022-06-16T07:15:30.000Z</Time>
            <Position>
              <LatitudeDegrees>36.80196250788867473602294921875</LatitudeDegrees>
              <LongitudeDegrees>-4.39713726751506328582763671875</LongitudeDegrees>
            </Position>
            <AltitudeMeters>571.20001220703125</AltitudeMeters>
            <DistanceMeters>NAN</DistanceMeters>
          </Trackpoint>
          <Trackpoint>
            <Time>2022-06-16T07:15:40.000Z</Time>
            <Position>
              <LatitudeDegrees>36.80200542323291301727294921875</LatitudeDegrees>
              <LongitudeDegrees>-4.39712268300354480743408203125</LongitudeDegrees>
            </Position>
            <AltitudeMeters>572.79998779296875</AltitudeMeters>
            <DistanceMeters>NAN</DistanceMeters>
          </Trackpoint>
          <Trackpoint>
            <Time>2022-06-16T07:15:46.000Z</Time>
            <Position>
              <LatitudeDegrees>36.80202436633408069610595703125</LatitudeDegrees>
              <LongitudeDegrees>-4.3970932625234127044677734375</LongitudeDegrees>
            </Position>
            <AltitudeMeters>573.5999755859375</AltitudeMeters>
            <DistanceMeters>NAN</DistanceMeters>
          </Trackpoint>
          <Trackpoint>
            <Time>2022-06-16T07:15:47.000Z</Time>
            <Position>
              <LatitudeDegrees>36.80202662944793701171875</LatitudeDegrees>
              <LongitudeDegrees>-4.39708664081990718841552734375</LongitudeDegrees>
            </Position>
            <AltitudeMeters>573.79998779296875</AltitudeMeters>
            <DistanceMeters>NAN</DistanceMeters>
          </Trackpoint>
          <Trackpoint>
            <Time>2022-06-16T07:15:50.000Z</Time>
            <Position>
              <LatitudeDegrees>36.8020306527614593505859375</LatitudeDegrees>
              <LongitudeDegrees>-4.39707339741289615631103515625</LongitudeDegrees>
            </Position>
            <AltitudeMeters>574</AltitudeMeters>
            <DistanceMeters>NAN</DistanceMeters>
          </Trackpoint>
          <Trackpoint>
            <Time>2022-06-16T07:15:51.000Z</Time>
            <Position>
              <LatitudeDegrees>36.80203107185661792755126953125</LatitudeDegrees>
              <LongitudeDegrees>-4.3970731459558010101318359375</LongitudeDegrees>
            </Position>
            <AltitudeMeters>574</AltitudeMeters>
            <DistanceMeters>NAN</DistanceMeters>
          </Trackpoint>
          <Trackpoint>
            <Time>2022-06-16T07:15:52.000Z</Time>
            <Position>
              <LatitudeDegrees>36.8020338378846645355224609375</LatitudeDegrees>
              <LongitudeDegrees>-4.39707197248935699462890625</LongitudeDegrees>
            </Position>
            <AltitudeMeters>574.20001220703125</AltitudeMeters>
            <DistanceMeters>NAN</DistanceMeters>
          </Trackpoint>
          <Trackpoint>
            <Time>2022-06-16T07:15:56.000Z</Time>
            <Position>
              <LatitudeDegrees>36.8020281381905078887939453125</LatitudeDegrees>
              <LongitudeDegrees>-4.397070296108722686767578125</LongitudeDegrees>
            </Position>
            <AltitudeMeters>573.79998779296875</AltitudeMeters>
            <DistanceMeters>NAN</DistanceMeters>
          </Trackpoint>
          <Trackpoint>
            <Time>2022-06-16T07:16:00.000Z</Time>
            <Position>
              <LatitudeDegrees>36.80203291587531566619873046875</LatitudeDegrees>
              <LongitudeDegrees>-4.3970547057688236236572265625</LongitudeDegrees>
            </Position>
            <AltitudeMeters>574.20001220703125</AltitudeMeters>
            <DistanceMeters>NAN</DistanceMeters>
          </Trackpoint>
          <Trackpoint>
            <Time>2022-06-16T07:16:10.000Z</Time>
            <Position>
              <LatitudeDegrees>36.80206962861120700836181640625</LatitudeDegrees>
              <LongitudeDegrees>-4.39704649150371551513671875</LongitudeDegrees>
            </Position>
            <AltitudeMeters>576.20001220703125</AltitudeMeters>
            <DistanceMeters>NAN</DistanceMeters>
          </Trackpoint>
          <Trackpoint>
            <Time>2022-06-16T07:16:20.000Z</Time>
            <Position>
              <LatitudeDegrees>36.802132241427898406982421875</LatitudeDegrees>
              <LongitudeDegrees>-4.39704808406531810760498046875</LongitudeDegrees>
            </Position>
            <AltitudeMeters>579.5999755859375</AltitudeMeters>
            <DistanceMeters>NAN</DistanceMeters>
          </Trackpoint>
          <Trackpoint>
            <Time>2022-06-16T07:16:30.000Z</Time>
            <Position>
              <LatitudeDegrees>36.80218010209500789642333984375</LatitudeDegrees>
              <LongitudeDegrees>-4.3970506824553012847900390625</LongitudeDegrees>
            </Position>
            <AltitudeMeters>582</AltitudeMeters>
            <DistanceMeters>NAN</DistanceMeters>
          </Trackpoint>
          <Trackpoint>
            <Time>2022-06-16T07:16:37.000Z</Time>
            <Position>
              <LatitudeDegrees>36.80219493806362152099609375</LatitudeDegrees>
              <LongitudeDegrees>-4.3970469944179058074951171875</LongitudeDegrees>
            </Position>
            <AltitudeMeters>582.4000244140625</AltitudeMeters>
            <DistanceMeters>NAN</DistanceMeters>
          </Trackpoint>
          <Trackpoint>
            <Time>2022-06-16T07:16:40.000Z</Time>
            <Position>
              <LatitudeDegrees>36.80220658890902996063232421875</LatitudeDegrees>
              <LongitudeDegrees>-4.3970399536192417144775390625</LongitudeDegrees>
            </Position>
            <AltitudeMeters>583</AltitudeMeters>
            <DistanceMeters>NAN</DistanceMeters>
          </Trackpoint>
          <Trackpoint>
            <Time>2022-06-16T07:16:50.000Z</Time>
            <Position>
              <LatitudeDegrees>36.8022199161350727081298828125</LatitudeDegrees>
              <LongitudeDegrees>-4.39700533635914325714111328125</LongitudeDegrees>
            </Position>
            <AltitudeMeters>584.5999755859375</AltitudeMeters>
            <DistanceMeters>NAN</DistanceMeters>
          </Trackpoint>
          <Trackpoint>
            <Time>2022-06-16T07:17:00.000Z</Time>
            <Position>
              <LatitudeDegrees>36.802193932235240936279296875</LatitudeDegrees>
              <LongitudeDegrees>-4.396946243941783905029296875</LongitudeDegrees>
            </Position>
            <AltitudeMeters>583.79998779296875</AltitudeMeters>
            <DistanceMeters>NAN</DistanceMeters>
          </Trackpoint>
          <Trackpoint>
            <Time>2022-06-16T07:17:10.000Z</Time>
            <Position>
              <LatitudeDegrees>36.80218110792338848114013671875</LatitudeDegrees>
              <LongitudeDegrees>-4.3968907557427883148193359375</LongitudeDegrees>
            </Position>
            <AltitudeMeters>583.4000244140625</AltitudeMeters>
            <DistanceMeters>NAN</DistanceMeters>
          </Trackpoint>
          <Trackpoint>
            <Time>2022-06-16T07:17:13.000Z</Time>
            <Position>
              <LatitudeDegrees>36.80220021866261959075927734375</LatitudeDegrees>
              <LongitudeDegrees>-4.39687591977417469024658203125</LongitudeDegrees>
            </Position>
            <AltitudeMeters>584.5999755859375</AltitudeMeters>
            <DistanceMeters>NAN</DistanceMeters>
          </Trackpoint>
          <Trackpoint>
            <Time>2022-06-16T07:17:18.000Z</Time>
            <Position>
              <LatitudeDegrees>36.80222653783857822418212890625</LatitudeDegrees>
              <LongitudeDegrees>-4.3968615867197513580322265625</LongitudeDegrees>
            </Position>
            <AltitudeMeters>586</AltitudeMeters>
            <DistanceMeters>NAN</DistanceMeters>
          </Trackpoint>
          <Trackpoint>
            <Time>2022-06-16T07:17:20.000Z</Time>
            <Position>
              <LatitudeDegrees>36.8022346682846546173095703125</LatitudeDegrees>
              <LongitudeDegrees>-4.39685496501624584197998046875</LongitudeDegrees>
            </Position>
            <AltitudeMeters>586.5999755859375</AltitudeMeters>
            <DistanceMeters>NAN</DistanceMeters>
          </Trackpoint>
          <Trackpoint>
            <Time>2022-06-16T07:17:30.000Z</Time>
            <Position>
              <LatitudeDegrees>36.80229929275810718536376953125</LatitudeDegrees>
              <LongitudeDegrees>-4.396844319999217987060546875</LongitudeDegrees>
            </Position>
            <AltitudeMeters>590.20001220703125</AltitudeMeters>
            <DistanceMeters>NAN</DistanceMeters>
          </Trackpoint>
          <Trackpoint>
            <Time>2022-06-16T07:17:40.000Z</Time>
            <Position>
              <LatitudeDegrees>36.80235964246094226837158203125</LatitudeDegrees>
              <LongitudeDegrees>-4.39681976102292537689208984375</LongitudeDegrees>
            </Position>
            <AltitudeMeters>592.5999755859375</AltitudeMeters>
            <DistanceMeters>NAN</DistanceMeters>
          </Trackpoint>
          <Trackpoint>
            <Time>2022-06-16T07:17:50.000Z</Time>
            <Position>
              <LatitudeDegrees>36.80241479538381099700927734375</LatitudeDegrees>
              <LongitudeDegrees>-4.3967962078750133514404296875</LongitudeDegrees>
            </Position>
            <AltitudeMeters>594.79998779296875</AltitudeMeters>
            <DistanceMeters>NAN</DistanceMeters>
          </Trackpoint>
          <Trackpoint>
            <Time>2022-06-16T07:17:51.000Z</Time>
            <Position>
              <LatitudeDegrees>36.8024190701544284820556640625</LatitudeDegrees>
              <LongitudeDegrees>-4.3967895023524761199951171875</LongitudeDegrees>
            </Position>
            <AltitudeMeters>595</AltitudeMeters>
            <DistanceMeters>NAN</DistanceMeters>
          </Trackpoint>
          <Trackpoint>
            <Time>2022-06-16T07:17:58.000Z</Time>
            <Position>
              <LatitudeDegrees>36.802451424300670623779296875</LatitudeDegrees>
              <LongitudeDegrees>-4.39675354398787021636962890625</LongitudeDegrees>
            </Position>
            <AltitudeMeters>596.4000244140625</AltitudeMeters>
            <DistanceMeters>NAN</DistanceMeters>
          </Trackpoint>
          <Trackpoint>
            <Time>2022-06-16T07:18:00.000Z</Time>
            <Position>
              <LatitudeDegrees>36.80245938710868358612060546875</LatitudeDegrees>
              <LongitudeDegrees>-4.3967418931424617767333984375</LongitudeDegrees>
            </Position>
            <AltitudeMeters>596.79998779296875</AltitudeMeters>
            <DistanceMeters>NAN</DistanceMeters>
          </Trackpoint>
          <Trackpoint>
            <Time>2022-06-16T07:18:04.000Z</Time>
            <Position>
              <LatitudeDegrees>36.80246709845960140228271484375</LatitudeDegrees>
              <LongitudeDegrees>-4.39671515487134456634521484375</LongitudeDegrees>
            </Position>
            <AltitudeMeters>597.20001220703125</AltitudeMeters>
            <DistanceMeters>NAN</DistanceMeters>
          </Trackpoint>
          <Trackpoint>
            <Time>2022-06-16T07:18:10.000Z</Time>
            <Position>
              <LatitudeDegrees>36.80248319171369075775146484375</LatitudeDegrees>
              <LongitudeDegrees>-4.396675340831279754638671875</LongitudeDegrees>
            </Position>
            <AltitudeMeters>598.20001220703125</AltitudeMeters>
            <DistanceMeters>NAN</DistanceMeters>
          </Trackpoint>
          <Trackpoint>
            <Time>2022-06-16T07:18:20.000Z</Time>
            <Position>
              <LatitudeDegrees>36.8025080859661102294921875</LatitudeDegrees>
              <LongitudeDegrees>-4.396621696650981903076171875</LongitudeDegrees>
            </Position>
            <AltitudeMeters>599.20001220703125</AltitudeMeters>
            <DistanceMeters>NAN</DistanceMeters>
          </Trackpoint>
          <Trackpoint>
            <Time>2022-06-16T07:18:30.000Z</Time>
            <Position>
              <LatitudeDegrees>36.80252292193472385406494140625</LatitudeDegrees>
              <LongitudeDegrees>-4.3965630233287811279296875</LongitudeDegrees>
            </Position>
            <AltitudeMeters>599.20001220703125</AltitudeMeters>
            <DistanceMeters>NAN</DistanceMeters>
          </Trackpoint>
          <Trackpoint>
            <Time>2022-06-16T07:18:40.000Z</Time>
            <Position>
              <LatitudeDegrees>36.80256583727896213531494140625</LatitudeDegrees>
              <LongitudeDegrees>-4.39650661312043666839599609375</LongitudeDegrees>
            </Position>
            <AltitudeMeters>600.4000244140625</AltitudeMeters>
            <DistanceMeters>NAN</DistanceMeters>
          </Trackpoint>
          <Trackpoint>
            <Time>2022-06-16T07:18:50.000Z</Time>
            <Position>
              <LatitudeDegrees>36.80261671543121337890625</LatitudeDegrees>
              <LongitudeDegrees>-4.39647811464965343475341796875</LongitudeDegrees>
            </Position>
            <AltitudeMeters>601.79998779296875</AltitudeMeters>
            <DistanceMeters>NAN</DistanceMeters>
          </Trackpoint>
          <Trackpoint>
            <Time>2022-06-16T07:19:00.000Z</Time>
            <Position>
              <LatitudeDegrees>36.80265225470066070556640625</LatitudeDegrees>
              <LongitudeDegrees>-4.39645783044397830963134765625</LongitudeDegrees>
            </Position>
            <AltitudeMeters>602.5999755859375</AltitudeMeters>
            <DistanceMeters>NAN</DistanceMeters>
          </Trackpoint>
          <Trackpoint>
            <Time>2022-06-16T07:19:10.000Z</Time>
            <Position>
              <LatitudeDegrees>36.80265091359615325927734375</LatitudeDegrees>
              <LongitudeDegrees>-4.39644559286534786224365234375</LongitudeDegrees>
            </Position>
            <AltitudeMeters>602.5999755859375</AltitudeMeters>
            <DistanceMeters>NAN</DistanceMeters>
          </Trackpoint>
          <Trackpoint>
            <Time>2022-06-16T07:19:20.000Z</Time>
            <Position>
              <LatitudeDegrees>36.80269248783588409423828125</LatitudeDegrees>
              <LongitudeDegrees>-4.39640217460691928863525390625</LongitudeDegrees>
            </Position>
            <AltitudeMeters>603.4000244140625</AltitudeMeters>
            <DistanceMeters>NAN</DistanceMeters>
          </Trackpoint>
          <Trackpoint>
            <Time>2022-06-16T07:19:30.000Z</Time>
            <Position>
              <LatitudeDegrees>36.802758537232875823974609375</LatitudeDegrees>
              <LongitudeDegrees>-4.3963512964546680450439453125</LongitudeDegrees>
            </Position>
            <AltitudeMeters>604.79998779296875</AltitudeMeters>
            <DistanceMeters>NAN</DistanceMeters>
          </Trackpoint>
          <Trackpoint>
            <Time>2022-06-16T07:19:40.000Z</Time>
            <Position>
              <LatitudeDegrees>36.80284562520682811737060546875</LatitudeDegrees>
              <LongitudeDegrees>-4.39629538916051387786865234375</LongitudeDegrees>
            </Position>
            <AltitudeMeters>606.5999755859375</AltitudeMeters>
            <DistanceMeters>NAN</DistanceMeters>
          </Trackpoint>
          <Trackpoint>
            <Time>2022-06-16T07:19:46.000Z</Time>
            <Position>
              <LatitudeDegrees>36.80288217030465602874755859375</LatitudeDegrees>
              <LongitudeDegrees>-4.39625683240592479705810546875</LongitudeDegrees>
            </Position>
            <AltitudeMeters>607</AltitudeMeters>
            <DistanceMeters>NAN</DistanceMeters>
          </Trackpoint>
          <Trackpoint>
            <Time>2022-06-16T07:19:50.000Z</Time>
            <Position>
              <LatitudeDegrees>36.80290278978645801544189453125</LatitudeDegrees>
              <LongitudeDegrees>-4.39622414298355579376220703125</LongitudeDegrees>
            </Position>
            <AltitudeMeters>607</AltitudeMeters>
            <DistanceMeters>NAN</DistanceMeters>
          </Trackpoint>
          <Trackpoint>
            <Time>2022-06-16T07:20:00.000Z</Time>
            <Position>
              <LatitudeDegrees>36.80297286249697208404541015625</LatitudeDegrees>
              <LongitudeDegrees>-4.39614552073180675506591796875</LongitudeDegrees>
            </Position>
            <AltitudeMeters>607.4000244140625</AltitudeMeters>
            <DistanceMeters>NAN</DistanceMeters>
          </Trackpoint>
          <Trackpoint>
            <Time>2022-06-16T07:20:04.000Z</Time>
            <Position>
              <LatitudeDegrees>36.8029977567493915557861328125</LatitudeDegrees>
              <LongitudeDegrees>-4.3961360491812229156494140625</LongitudeDegrees>
            </Position>
            <AltitudeMeters>607.79998779296875</AltitudeMeters>
            <DistanceMeters>NAN</DistanceMeters>
          </Trackpoint>
          <Trackpoint>
            <Time>2022-06-16T07:20:10.000Z</Time>
            <Position>
              <LatitudeDegrees>36.803017370402812957763671875</LatitudeDegrees>
              <LongitudeDegrees>-4.396116435527801513671875</LongitudeDegrees>
            </Position>
            <AltitudeMeters>607.79998779296875</AltitudeMeters>
            <DistanceMeters>NAN</DistanceMeters>
          </Trackpoint>
          <Trackpoint>
            <Time>2022-06-16T07:20:20.000Z</Time>
            <Position>
              <LatitudeDegrees>36.80308350361883640289306640625</LatitudeDegrees>
              <LongitudeDegrees>-4.39605030231177806854248046875</LongitudeDegrees>
            </Position>
            <AltitudeMeters>608</AltitudeMeters>
            <DistanceMeters>NAN</DistanceMeters>
          </Trackpoint>
          <Trackpoint>
            <Time>2022-06-16T07:20:26.000Z</Time>
            <Position>
              <LatitudeDegrees>36.803132034838199615478515625</LatitudeDegrees>
              <LongitudeDegrees>-4.3960109911859035491943359375</LongitudeDegrees>
            </Position>
            <AltitudeMeters>608.20001220703125</AltitudeMeters>
            <DistanceMeters>NAN</DistanceMeters>
          </Trackpoint>
          <Trackpoint>
            <Time>2022-06-16T07:20:30.000Z</Time>
            <Position>
              <LatitudeDegrees>36.80316983722150325775146484375</LatitudeDegrees>
              <LongitudeDegrees>-4.39597587101161479949951171875</LongitudeDegrees>
            </Position>
            <AltitudeMeters>608.4000244140625</AltitudeMeters>
            <DistanceMeters>NAN</DistanceMeters>
          </Trackpoint>
          <Trackpoint>
            <Time>2022-06-16T07:20:38.000Z</Time>
            <Position>
              <LatitudeDegrees>36.8032349646091461181640625</LatitudeDegrees>
              <LongitudeDegrees>-4.39591803587973117828369140625</LongitudeDegrees>
            </Position>
            <AltitudeMeters>608.5999755859375</AltitudeMeters>
            <DistanceMeters>NAN</DistanceMeters>
          </Trackpoint>
          <Trackpoint>
            <Time>2022-06-16T07:20:40.000Z</Time>
            <Position>
              <LatitudeDegrees>36.80325516499578952789306640625</LatitudeDegrees>
              <LongitudeDegrees>-4.3958963267505168914794921875</LongitudeDegrees>
            </Position>
            <AltitudeMeters>608.4000244140625</AltitudeMeters>
            <DistanceMeters>NAN</DistanceMeters>
          </Trackpoint>
          <Trackpoint>
            <Time>2022-06-16T07:20:50.000Z</Time>
            <Position>
              <LatitudeDegrees>36.8033430911600589752197265625</LatitudeDegrees>
              <LongitudeDegrees>-4.39580018632113933563232421875</LongitudeDegrees>
            </Position>
            <AltitudeMeters>608.4000244140625</AltitudeMeters>
            <DistanceMeters>NAN</DistanceMeters>
          </Trackpoint>
          <Trackpoint>
            <Time>2022-06-16T07:21:00.000Z</Time>
            <Position>
              <LatitudeDegrees>36.80342741310596466064453125</LatitudeDegrees>
              <LongitudeDegrees>-4.39571133814752101898193359375</LongitudeDegrees>
            </Position>
            <AltitudeMeters>609</AltitudeMeters>
            <DistanceMeters>NAN</DistanceMeters>
          </Trackpoint>
          <Trackpoint>
            <Time>2022-06-16T07:21:10.000Z</Time>
            <Position>
              <LatitudeDegrees>36.8035124056041240692138671875</LatitudeDegrees>
              <LongitudeDegrees>-4.39561687409877777099609375</LongitudeDegrees>
            </Position>
            <AltitudeMeters>610.79998779296875</AltitudeMeters>
            <DistanceMeters>NAN</DistanceMeters>
          </Trackpoint>
          <Trackpoint>
            <Time>2022-06-16T07:21:20.000Z</Time>
            <Position>
              <LatitudeDegrees>36.80357853882014751434326171875</LatitudeDegrees>
              <LongitudeDegrees>-4.39551821909844875335693359375</LongitudeDegrees>
            </Position>
            <AltitudeMeters>611.79998779296875</AltitudeMeters>
            <DistanceMeters>NAN</DistanceMeters>
          </Trackpoint>
          <Trackpoint>
            <Time>2022-06-16T07:21:30.000Z</Time>
            <Position>
              <LatitudeDegrees>36.80364542640745639801025390625</LatitudeDegrees>
              <LongitudeDegrees>-4.39544395543634891510009765625</LongitudeDegrees>
            </Position>
            <AltitudeMeters>614.79998779296875</AltitudeMeters>
            <DistanceMeters>NAN</DistanceMeters>
          </Trackpoint>
          <Trackpoint>
            <Time>2022-06-16T07:21:40.000Z</Time>
            <Position>
              <LatitudeDegrees>36.8037269823253154754638671875</LatitudeDegrees>
              <LongitudeDegrees>-4.39539181999862194061279296875</LongitudeDegrees>
            </Position>
            <AltitudeMeters>618</AltitudeMeters>
            <DistanceMeters>NAN</DistanceMeters>
          </Trackpoint>
          <Trackpoint>
            <Time>2022-06-16T07:21:50.000Z</Time>
            <Position>
              <LatitudeDegrees>36.80379227735102176666259765625</LatitudeDegrees>
              <LongitudeDegrees>-4.39531453885138034820556640625</LongitudeDegrees>
            </Position>
            <AltitudeMeters>620.5999755859375</AltitudeMeters>
            <DistanceMeters>NAN</DistanceMeters>
          </Trackpoint>
          <Trackpoint>
            <Time>2022-06-16T07:22:00.000Z</Time>
            <Position>
              <LatitudeDegrees>36.80382731370627880096435546875</LatitudeDegrees>
              <LongitudeDegrees>-4.39527648501098155975341796875</LongitudeDegrees>
            </Position>
            <AltitudeMeters>622</AltitudeMeters>
            <DistanceMeters>NAN</DistanceMeters>
          </Trackpoint>
          <Trackpoint>
            <Time>2022-06-16T07:22:10.000Z</Time>
            <Position>
              <LatitudeDegrees>36.8038228712975978851318359375</LatitudeDegrees>
              <LongitudeDegrees>-4.39526550471782684326171875</LongitudeDegrees>
            </Position>
            <AltitudeMeters>622</AltitudeMeters>
            <DistanceMeters>NAN</DistanceMeters>
          </Trackpoint>
          <Trackpoint>
            <Time>2022-06-16T07:22:20.000Z</Time>
            <Position>
              <LatitudeDegrees>36.8038258887827396392822265625</LatitudeDegrees>
              <LongitudeDegrees>-4.39525620080530643463134765625</LongitudeDegrees>
            </Position>
            <AltitudeMeters>622.20001220703125</AltitudeMeters>
            <DistanceMeters>NAN</DistanceMeters>
          </Trackpoint>
          <Trackpoint>
            <Time>2022-06-16T07:22:30.000Z</Time>
            <Position>
              <LatitudeDegrees>36.803824715316295623779296875</LatitudeDegrees>
              <LongitudeDegrees>-4.39525620080530643463134765625</LongitudeDegrees>
            </Position>
            <AltitudeMeters>622.20001220703125</AltitudeMeters>
            <DistanceMeters>NAN</DistanceMeters>
          </Trackpoint>
          <Trackpoint>
            <Time>2022-06-16T07:22:40.000Z</Time>
            <Position>
              <LatitudeDegrees>36.80382144637405872344970703125</LatitudeDegrees>
              <LongitudeDegrees>-4.3952576257288455963134765625</LongitudeDegrees>
            </Position>
            <AltitudeMeters>622</AltitudeMeters>
            <DistanceMeters>NAN</DistanceMeters>
          </Trackpoint>
          <Trackpoint>
            <Time>2022-06-16T07:22:50.000Z</Time>
            <Position>
              <LatitudeDegrees>36.8038196861743927001953125</LatitudeDegrees>
              <LongitudeDegrees>-4.39525938592851161956787109375</LongitudeDegrees>
            </Position>
            <AltitudeMeters>622</AltitudeMeters>
            <DistanceMeters>NAN</DistanceMeters>
          </Trackpoint>
          <Trackpoint>
            <Time>2022-06-16T07:22:57.000Z</Time>
            <Position>
              <LatitudeDegrees>36.80381591431796550750732421875</LatitudeDegrees>
              <LongitudeDegrees>-4.39526625908911228179931640625</LongitudeDegrees>
            </Position>
            <AltitudeMeters>621.79998779296875</AltitudeMeters>
            <DistanceMeters>NAN</DistanceMeters>
          </Trackpoint>
          <Trackpoint>
            <Time>2022-06-16T07:23:00.000Z</Time>
            <Position>
              <LatitudeDegrees>36.8038151599466800689697265625</LatitudeDegrees>
              <LongitudeDegrees>-4.39527145586907863616943359375</LongitudeDegrees>
            </Position>
            <AltitudeMeters>621.79998779296875</AltitudeMeters>
            <DistanceMeters>NAN</DistanceMeters>
          </Trackpoint>
          <Trackpoint>
            <Time>2022-06-16T07:23:09.000Z</Time>
            <Position>
              <LatitudeDegrees>36.80381021462380886077880859375</LatitudeDegrees>
              <LongitudeDegrees>-4.39527061767876148223876953125</LongitudeDegrees>
            </Position>
            <AltitudeMeters>621.5999755859375</AltitudeMeters>
            <DistanceMeters>NAN</DistanceMeters>
          </Trackpoint>
          <Trackpoint>
            <Time>2022-06-16T07:23:10.000Z</Time>
            <Position>
              <LatitudeDegrees>36.80380971170961856842041015625</LatitudeDegrees>
              <LongitudeDegrees>-4.39526977948844432830810546875</LongitudeDegrees>
            </Position>
            <AltitudeMeters>621.5999755859375</AltitudeMeters>
            <DistanceMeters>NAN</DistanceMeters>
          </Trackpoint>
          <Trackpoint>
            <Time>2022-06-16T07:23:20.000Z</Time>
            <Position>
              <LatitudeDegrees>36.80381205864250659942626953125</LatitudeDegrees>
              <LongitudeDegrees>-4.39527329988777637481689453125</LongitudeDegrees>
            </Position>
            <AltitudeMeters>621.5999755859375</AltitudeMeters>
            <DistanceMeters>NAN</DistanceMeters>
          </Trackpoint>
          <Trackpoint>
            <Time>2022-06-16T07:23:26.000Z</Time>
            <Position>
              <LatitudeDegrees>36.803807951509952545166015625</LatitudeDegrees>
              <LongitudeDegrees>-4.39527279697358608245849609375</LongitudeDegrees>
            </Position>
            <AltitudeMeters>621.4000244140625</AltitudeMeters>
            <DistanceMeters>NAN</DistanceMeters>
          </Trackpoint>
          <Trackpoint>
            <Time>2022-06-16T07:23:30.000Z</Time>
            <Position>
              <LatitudeDegrees>36.80380535311996936798095703125</LatitudeDegrees>
              <LongitudeDegrees>-4.39527078531682491302490234375</LongitudeDegrees>
            </Position>
            <AltitudeMeters>621.4000244140625</AltitudeMeters>
            <DistanceMeters>NAN</DistanceMeters>
          </Trackpoint>
          <Trackpoint>
            <Time>2022-06-16T07:23:35.000Z</Time>
            <Position>
              <LatitudeDegrees>36.8038037605583667755126953125</LatitudeDegrees>
              <LongitudeDegrees>-4.39527061767876148223876953125</LongitudeDegrees>
            </Position>
            <AltitudeMeters>621.4000244140625</AltitudeMeters>
            <DistanceMeters>NAN</DistanceMeters>
          </Trackpoint>
          <Trackpoint>
            <Time>2022-06-16T07:23:40.000Z</Time>
            <Position>
              <LatitudeDegrees>36.80380334146320819854736328125</LatitudeDegrees>
              <LongitudeDegrees>-4.39527045004069805145263671875</LongitudeDegrees>
            </Position>
            <AltitudeMeters>621.4000244140625</AltitudeMeters>
            <DistanceMeters>NAN</DistanceMeters>
          </Trackpoint>
          <Trackpoint>
            <Time>2022-06-16T07:23:42.000Z</Time>
            <Position>
              <LatitudeDegrees>36.80380183272063732147216796875</LatitudeDegrees>
              <LongitudeDegrees>-4.39526927657425403594970703125</LongitudeDegrees>
            </Position>
            <AltitudeMeters>621.20001220703125</AltitudeMeters>
            <DistanceMeters>NAN</DistanceMeters>
          </Trackpoint>
          <Trackpoint>
            <Time>2022-06-16T07:23:44.000Z</Time>
            <Position>
              <LatitudeDegrees>36.8038022518157958984375</LatitudeDegrees>
              <LongitudeDegrees>-4.3952690251171588897705078125</LongitudeDegrees>
            </Position>
            <AltitudeMeters>621.4000244140625</AltitudeMeters>
            <DistanceMeters>NAN</DistanceMeters>
          </Trackpoint>
          <Trackpoint>
            <Time>2022-06-16T07:23:50.000Z</Time>
            <Position>
              <LatitudeDegrees>36.8038000725209712982177734375</LatitudeDegrees>
              <LongitudeDegrees>-4.39526307396590709686279296875</LongitudeDegrees>
            </Position>
            <AltitudeMeters>621.20001220703125</AltitudeMeters>
            <DistanceMeters>NAN</DistanceMeters>
          </Trackpoint>
          <Trackpoint>
            <Time>2022-06-16T07:23:54.000Z</Time>
            <Position>
              <LatitudeDegrees>36.8037997372448444366455078125</LatitudeDegrees>
              <LongitudeDegrees>-4.395263828337192535400390625</LongitudeDegrees>
            </Position>
            <AltitudeMeters>621.20001220703125</AltitudeMeters>
            <DistanceMeters>NAN</DistanceMeters>
          </Trackpoint>
          <Trackpoint>
            <Time>2022-06-16T07:23:57.000Z</Time>
            <Position>
              <LatitudeDegrees>36.80379982106387615203857421875</LatitudeDegrees>
              <LongitudeDegrees>-4.39526424743235111236572265625</LongitudeDegrees>
            </Position>
            <AltitudeMeters>621.20001220703125</AltitudeMeters>
            <DistanceMeters>NAN</DistanceMeters>
          </Trackpoint>
          <Trackpoint>
            <Time>2022-06-16T07:23:59.000Z</Time>
            <Position>
              <LatitudeDegrees>36.8038004077970981597900390625</LatitudeDegrees>
              <LongitudeDegrees>-4.3952643312513828277587890625</LongitudeDegrees>
            </Position>
            <AltitudeMeters>621.20001220703125</AltitudeMeters>
            <DistanceMeters>NAN</DistanceMeters>
          </Trackpoint>
          <Trackpoint>
            <Time>2022-06-16T07:24:00.000Z</Time>
            <Position>
              <LatitudeDegrees>36.803800575435161590576171875</LatitudeDegrees>
              <LongitudeDegrees>-4.39526416361331939697265625</LongitudeDegrees>
            </Position>
            <AltitudeMeters>621.20001220703125</AltitudeMeters>
            <DistanceMeters>NAN</DistanceMeters>
          </Trackpoint>
          <Trackpoint>
            <Time>2022-06-16T07:24:02.000Z</Time>
            <Position>
              <LatitudeDegrees>36.80380015634000301361083984375</LatitudeDegrees>
              <LongitudeDegrees>-4.395263828337192535400390625</LongitudeDegrees>
            </Position>
            <AltitudeMeters>621.20001220703125</AltitudeMeters>
            <DistanceMeters>NAN</DistanceMeters>
          </Trackpoint>
          <Trackpoint>
            <Time>2022-06-16T07:24:06.000Z</Time>
            <Position>
              <LatitudeDegrees>36.80379965342581272125244140625</LatitudeDegrees>
              <LongitudeDegrees>-4.395267181098461151123046875</LongitudeDegrees>
            </Position>
            <AltitudeMeters>621.20001220703125</AltitudeMeters>
            <DistanceMeters>NAN</DistanceMeters>
          </Trackpoint>
          <Trackpoint>
            <Time>2022-06-16T07:24:10.000Z</Time>
            <Position>
              <LatitudeDegrees>36.8037994019687175750732421875</LatitudeDegrees>
              <LongitudeDegrees>-4.3952696956694126129150390625</LongitudeDegrees>
            </Position>
            <AltitudeMeters>621.20001220703125</AltitudeMeters>
            <DistanceMeters>NAN</DistanceMeters>
          </Trackpoint>
          <Trackpoint>
            <Time>2022-06-16T07:24:20.000Z</Time>
            <Position>
              <LatitudeDegrees>36.8037983961403369903564453125</LatitudeDegrees>
              <LongitudeDegrees>-4.39527380280196666717529296875</LongitudeDegrees>
            </Position>
            <AltitudeMeters>621.20001220703125</AltitudeMeters>
            <DistanceMeters>NAN</DistanceMeters>
          </Trackpoint>
          <Trackpoint>
            <Time>2022-06-16T07:24:30.000Z</Time>
            <Position>
              <LatitudeDegrees>36.8037953786551952362060546875</LatitudeDegrees>
              <LongitudeDegrees>-4.39527413807809352874755859375</LongitudeDegrees>
            </Position>
            <AltitudeMeters>621</AltitudeMeters>
            <DistanceMeters>NAN</DistanceMeters>
          </Trackpoint>
          <Trackpoint>
            <Time>2022-06-16T07:24:34.000Z</Time>
            <Position>
              <LatitudeDegrees>36.80379127152264118194580078125</LatitudeDegrees>
              <LongitudeDegrees>-4.395273886620998382568359375</LongitudeDegrees>
            </Position>
            <AltitudeMeters>621</AltitudeMeters>
            <DistanceMeters>NAN</DistanceMeters>
          </Trackpoint>
          <Trackpoint>
            <Time>2022-06-16T07:24:40.000Z</Time>
            <Position>
              <LatitudeDegrees>36.8037849850952625274658203125</LatitudeDegrees>
              <LongitudeDegrees>-4.39526558853685855865478515625</LongitudeDegrees>
            </Position>
            <AltitudeMeters>620.79998779296875</AltitudeMeters>
            <DistanceMeters>NAN</DistanceMeters>
          </Trackpoint>
          <Trackpoint>
            <Time>2022-06-16T07:24:50.000Z</Time>
            <Position>
              <LatitudeDegrees>36.80378607474267482757568359375</LatitudeDegrees>
              <LongitudeDegrees>-4.395268857479095458984375</LongitudeDegrees>
            </Position>
            <AltitudeMeters>620.79998779296875</AltitudeMeters>
            <DistanceMeters>NAN</DistanceMeters>
          </Trackpoint>
          <Trackpoint>
            <Time>2022-06-16T07:25:00.000Z</Time>
            <Position>
              <LatitudeDegrees>36.80378925986588001251220703125</LatitudeDegrees>
              <LongitudeDegrees>-4.395268522202968597412109375</LongitudeDegrees>
            </Position>
            <AltitudeMeters>620.79998779296875</AltitudeMeters>
            <DistanceMeters>NAN</DistanceMeters>
          </Trackpoint>
          <Trackpoint>
            <Time>2022-06-16T07:25:08.000Z</Time>
            <Position>
              <LatitudeDegrees>36.80378993041813373565673828125</LatitudeDegrees>
              <LongitudeDegrees>-4.3952596373856067657470703125</LongitudeDegrees>
            </Position>
            <AltitudeMeters>621</AltitudeMeters>
            <DistanceMeters>NAN</DistanceMeters>
          </Trackpoint>
          <Trackpoint>
            <Time>2022-06-16T07:25:10.000Z</Time>
            <Position>
              <LatitudeDegrees>36.8037916906177997589111328125</LatitudeDegrees>
              <LongitudeDegrees>-4.395257122814655303955078125</LongitudeDegrees>
            </Position>
            <AltitudeMeters>621</AltitudeMeters>
            <DistanceMeters>NAN</DistanceMeters>
          </Trackpoint>
          <Trackpoint>
            <Time>2022-06-16T07:25:17.000Z</Time>
            <Position>
              <LatitudeDegrees>36.80379831232130527496337890625</LatitudeDegrees>
              <LongitudeDegrees>-4.3952500820159912109375</LongitudeDegrees>
            </Position>
            <AltitudeMeters>621.4000244140625</AltitudeMeters>
            <DistanceMeters>NAN</DistanceMeters>
          </Trackpoint>
          <Trackpoint>
            <Time>2022-06-16T07:25:20.000Z</Time>
            <Position>
              <LatitudeDegrees>36.80379998870193958282470703125</LatitudeDegrees>
              <LongitudeDegrees>-4.3952415324747562408447265625</LongitudeDegrees>
            </Position>
            <AltitudeMeters>621.4000244140625</AltitudeMeters>
            <DistanceMeters>NAN</DistanceMeters>
          </Trackpoint>
          <Trackpoint>
            <Time>2022-06-16T07:25:24.000Z</Time>
            <Position>
              <LatitudeDegrees>36.803798563778400421142578125</LatitudeDegrees>
              <LongitudeDegrees>-4.39525745809078216552734375</LongitudeDegrees>
            </Position>
            <AltitudeMeters>621.20001220703125</AltitudeMeters>
            <DistanceMeters>NAN</DistanceMeters>
          </Trackpoint>
          <Trackpoint>
            <Time>2022-06-16T07:25:30.000Z</Time>
            <Position>
              <LatitudeDegrees>36.80379680357873439788818359375</LatitudeDegrees>
              <LongitudeDegrees>-4.39525469206273555755615234375</LongitudeDegrees>
            </Position>
            <AltitudeMeters>621.20001220703125</AltitudeMeters>
            <DistanceMeters>NAN</DistanceMeters>
          </Trackpoint>
          <Trackpoint>
            <Time>2022-06-16T07:25:40.000Z</Time>
            <Position>
              <LatitudeDegrees>36.80379621684551239013671875</LatitudeDegrees>
              <LongitudeDegrees>-4.39525033347308635711669921875</LongitudeDegrees>
            </Position>
            <AltitudeMeters>621.20001220703125</AltitudeMeters>
            <DistanceMeters>NAN</DistanceMeters>
          </Trackpoint>
          <Trackpoint>
            <Time>2022-06-16T07:25:45.000Z</Time>
            <Position>
              <LatitudeDegrees>36.80379780940711498260498046875</LatitudeDegrees>
              <LongitudeDegrees>-4.39524966292083263397216796875</LongitudeDegrees>
            </Position>
            <AltitudeMeters>621.4000244140625</AltitudeMeters>
            <DistanceMeters>NAN</DistanceMeters>
          </Trackpoint>
          <Trackpoint>
            <Time>2022-06-16T07:25:48.000Z</Time>
            <Position>
              <LatitudeDegrees>36.80379697121679782867431640625</LatitudeDegrees>
              <LongitudeDegrees>-4.39524899236857891082763671875</LongitudeDegrees>
            </Position>
            <AltitudeMeters>621.20001220703125</AltitudeMeters>
            <DistanceMeters>NAN</DistanceMeters>
          </Trackpoint>
          <Trackpoint>
            <Time>2022-06-16T07:25:50.000Z</Time>
            <Position>
              <LatitudeDegrees>36.80379613302648067474365234375</LatitudeDegrees>
              <LongitudeDegrees>-4.39524698071181774139404296875</LongitudeDegrees>
            </Position>
            <AltitudeMeters>621.20001220703125</AltitudeMeters>
            <DistanceMeters>NAN</DistanceMeters>
          </Trackpoint>
          <Trackpoint>
            <Time>2022-06-16T07:25:56.000Z</Time>
            <Position>
              <LatitudeDegrees>36.80380250327289104461669921875</LatitudeDegrees>
              <LongitudeDegrees>-4.39525100402534008026123046875</LongitudeDegrees>
            </Position>
            <AltitudeMeters>621.4000244140625</AltitudeMeters>
            <DistanceMeters>NAN</DistanceMeters>
          </Trackpoint>
          <Trackpoint>
            <Time>2022-06-16T07:26:00.000Z</Time>
            <Position>
              <LatitudeDegrees>36.803799904882907867431640625</LatitudeDegrees>
              <LongitudeDegrees>-4.39525117166340351104736328125</LongitudeDegrees>
            </Position>
            <AltitudeMeters>621.4000244140625</AltitudeMeters>
            <DistanceMeters>NAN</DistanceMeters>
          </Trackpoint>
          <Trackpoint>
            <Time>2022-06-16T07:26:10.000Z</Time>
            <Position>
              <LatitudeDegrees>36.803795211017131805419921875</LatitudeDegrees>
              <LongitudeDegrees>-4.39526240341365337371826171875</LongitudeDegrees>
            </Position>
            <AltitudeMeters>621.20001220703125</AltitudeMeters>
            <DistanceMeters>NAN</DistanceMeters>
          </Trackpoint>
          <Trackpoint>
            <Time>2022-06-16T07:26:17.000Z</Time>
            <Position>
              <LatitudeDegrees>36.8037967197597026824951171875</LatitudeDegrees>
              <LongitudeDegrees>-4.39526374451816082000732421875</LongitudeDegrees>
            </Position>
            <AltitudeMeters>621.20001220703125</AltitudeMeters>
            <DistanceMeters>NAN</DistanceMeters>
          </Trackpoint>
          <Trackpoint>
            <Time>2022-06-16T07:26:20.000Z</Time>
            <Position>
              <LatitudeDegrees>36.80379412136971950531005859375</LatitudeDegrees>
              <LongitudeDegrees>-4.39526257105171680450439453125</LongitudeDegrees>
            </Position>
            <AltitudeMeters>621</AltitudeMeters>
            <DistanceMeters>NAN</DistanceMeters>
          </Trackpoint>
          <Trackpoint>
            <Time>2022-06-16T07:26:27.000Z</Time>
            <Position>
              <LatitudeDegrees>36.80379345081746578216552734375</LatitudeDegrees>
              <LongitudeDegrees>-4.39526039175689220428466796875</LongitudeDegrees>
            </Position>
            <AltitudeMeters>621</AltitudeMeters>
            <DistanceMeters>NAN</DistanceMeters>
          </Trackpoint>
          <Trackpoint>
            <Time>2022-06-16T07:26:30.000Z</Time>
            <Position>
              <LatitudeDegrees>36.8037933669984340667724609375</LatitudeDegrees>
              <LongitudeDegrees>-4.39526039175689220428466796875</LongitudeDegrees>
            </Position>
            <AltitudeMeters>621</AltitudeMeters>
            <DistanceMeters>NAN</DistanceMeters>
          </Trackpoint>
          <Trackpoint>
            <Time>2022-06-16T07:26:35.000Z</Time>
            <Position>
              <LatitudeDegrees>36.8037937022745609283447265625</LatitudeDegrees>
              <LongitudeDegrees>-4.39525854773819446563720703125</LongitudeDegrees>
            </Position>
            <AltitudeMeters>621.20001220703125</AltitudeMeters>
            <DistanceMeters>NAN</DistanceMeters>
          </Trackpoint>
          <Trackpoint>
            <Time>2022-06-16T07:26:40.000Z</Time>
            <Position>
              <LatitudeDegrees>36.80379621684551239013671875</LatitudeDegrees>
              <LongitudeDegrees>-4.39525955356657505035400390625</LongitudeDegrees>
            </Position>
            <AltitudeMeters>621.20001220703125</AltitudeMeters>
            <DistanceMeters>NAN</DistanceMeters>
          </Trackpoint>
          <Trackpoint>
            <Time>2022-06-16T07:26:47.000Z</Time>
            <Position>
              <LatitudeDegrees>36.803801916539669036865234375</LatitudeDegrees>
              <LongitudeDegrees>-4.39526290632784366607666015625</LongitudeDegrees>
            </Position>
            <AltitudeMeters>621.4000244140625</AltitudeMeters>
            <DistanceMeters>NAN</DistanceMeters>
          </Trackpoint>
          <Trackpoint>
            <Time>2022-06-16T07:26:50.000Z</Time>
            <Position>
              <LatitudeDegrees>36.8038030900061130523681640625</LatitudeDegrees>
              <LongitudeDegrees>-4.395265839993953704833984375</LongitudeDegrees>
            </Position>
            <AltitudeMeters>621.4000244140625</AltitudeMeters>
            <DistanceMeters>NAN</DistanceMeters>
          </Trackpoint>
          <Trackpoint>
            <Time>2022-06-16T07:27:00.000Z</Time>
            <Position>
              <LatitudeDegrees>36.80381138809025287628173828125</LatitudeDegrees>
              <LongitudeDegrees>-4.395267851650714874267578125</LongitudeDegrees>
            </Position>
            <AltitudeMeters>621.5999755859375</AltitudeMeters>
            <DistanceMeters>NAN</DistanceMeters>
          </Trackpoint>
          <Trackpoint>
            <Time>2022-06-16T07:27:10.000Z</Time>
            <Position>
              <LatitudeDegrees>36.803804934024810791015625</LatitudeDegrees>
              <LongitudeDegrees>-4.39527128823101520538330078125</LongitudeDegrees>
            </Position>
            <AltitudeMeters>621.4000244140625</AltitudeMeters>
            <DistanceMeters>NAN</DistanceMeters>
          </Trackpoint>
          <Trackpoint>
            <Time>2022-06-16T07:27:20.000Z</Time>
            <Position>
              <LatitudeDegrees>36.80380166508257389068603515625</LatitudeDegrees>
              <LongitudeDegrees>-4.39527028240263462066650390625</LongitudeDegrees>
            </Position>
            <AltitudeMeters>621.20001220703125</AltitudeMeters>
            <DistanceMeters>NAN</DistanceMeters>
          </Trackpoint>
          <Trackpoint>
            <Time>2022-06-16T07:27:30.000Z</Time>
            <Position>
              <LatitudeDegrees>36.8038047663867473602294921875</LatitudeDegrees>
              <LongitudeDegrees>-4.39526617527008056640625</LongitudeDegrees>
            </Position>
            <AltitudeMeters>621.4000244140625</AltitudeMeters>
            <DistanceMeters>NAN</DistanceMeters>
          </Trackpoint>
          <Trackpoint>
            <Time>2022-06-16T07:27:40.000Z</Time>
            <Position>
              <LatitudeDegrees>36.80380485020577907562255859375</LatitudeDegrees>
              <LongitudeDegrees>-4.39526106230914592742919921875</LongitudeDegrees>
            </Position>
            <AltitudeMeters>621.4000244140625</AltitudeMeters>
            <DistanceMeters>NAN</DistanceMeters>
          </Trackpoint>
          <Trackpoint>
            <Time>2022-06-16T07:27:50.000Z</Time>
            <Position>
              <LatitudeDegrees>36.80380049161612987518310546875</LatitudeDegrees>
              <LongitudeDegrees>-4.39526508562266826629638671875</LongitudeDegrees>
            </Position>
            <AltitudeMeters>621.20001220703125</AltitudeMeters>
            <DistanceMeters>NAN</DistanceMeters>
          </Trackpoint>
          <Trackpoint>
            <Time>2022-06-16T07:28:00.000Z</Time>
            <Position>
              <LatitudeDegrees>36.80380887351930141448974609375</LatitudeDegrees>
              <LongitudeDegrees>-4.395273886620998382568359375</LongitudeDegrees>
            </Position>
            <AltitudeMeters>621.4000244140625</AltitudeMeters>
            <DistanceMeters>NAN</DistanceMeters>
          </Trackpoint>
          <Trackpoint>
            <Time>2022-06-16T07:28:10.000Z</Time>
            <Position>
              <LatitudeDegrees>36.80381423793733119964599609375</LatitudeDegrees>
              <LongitudeDegrees>-4.39524698071181774139404296875</LongitudeDegrees>
            </Position>
            <AltitudeMeters>621.79998779296875</AltitudeMeters>
            <DistanceMeters>NAN</DistanceMeters>
          </Trackpoint>
          <Trackpoint>
            <Time>2022-06-16T07:28:12.000Z</Time>
            <Position>
              <LatitudeDegrees>36.803818680346012115478515625</LatitudeDegrees>
              <LongitudeDegrees>-4.39524061046540737152099609375</LongitudeDegrees>
            </Position>
            <AltitudeMeters>622</AltitudeMeters>
            <DistanceMeters>NAN</DistanceMeters>
          </Trackpoint>
          <Trackpoint>
            <Time>2022-06-16T07:28:14.000Z</Time>
            <Position>
              <LatitudeDegrees>36.803826391696929931640625</LatitudeDegrees>
              <LongitudeDegrees>-4.39523457549512386322021484375</LongitudeDegrees>
            </Position>
            <AltitudeMeters>622.4000244140625</AltitudeMeters>
            <DistanceMeters>NAN</DistanceMeters>
          </Trackpoint>
          <Trackpoint>
            <Time>2022-06-16T07:28:15.000Z</Time>
            <Position>
              <LatitudeDegrees>36.80382815189659595489501953125</LatitudeDegrees>
              <LongitudeDegrees>-4.395228959619998931884765625</LongitudeDegrees>
            </Position>
            <AltitudeMeters>622.4000244140625</AltitudeMeters>
            <DistanceMeters>NAN</DistanceMeters>
          </Trackpoint>
          <Trackpoint>
            <Time>2022-06-16T07:28:18.000Z</Time>
            <Position>
              <LatitudeDegrees>36.803839467465877532958984375</LatitudeDegrees>
              <LongitudeDegrees>-4.3952143751084804534912109375</LongitudeDegrees>
            </Position>
            <AltitudeMeters>623</AltitudeMeters>
            <DistanceMeters>NAN</DistanceMeters>
          </Trackpoint>
          <Trackpoint>
            <Time>2022-06-16T07:28:19.000Z</Time>
            <Position>
              <LatitudeDegrees>36.8038446642458438873291015625</LatitudeDegrees>
              <LongitudeDegrees>-4.39520758576691150665283203125</LongitudeDegrees>
            </Position>
            <AltitudeMeters>623.20001220703125</AltitudeMeters>
            <DistanceMeters>NAN</DistanceMeters>
          </Trackpoint>
          <Trackpoint>
            <Time>2022-06-16T07:28:20.000Z</Time>
            <Position>
              <LatitudeDegrees>36.80384994484484195709228515625</LatitudeDegrees>
              <LongitudeDegrees>-4.39520104788243770599365234375</LongitudeDegrees>
            </Position>
            <AltitudeMeters>623.4000244140625</AltitudeMeters>
            <DistanceMeters>NAN</DistanceMeters>
          </Trackpoint>
          <Trackpoint>
            <Time>2022-06-16T07:28:23.000Z</Time>
            <Position>
              <LatitudeDegrees>36.8038667924702167510986328125</LatitudeDegrees>
              <LongitudeDegrees>-4.3951805122196674346923828125</LongitudeDegrees>
            </Position>
            <AltitudeMeters>624</AltitudeMeters>
            <DistanceMeters>NAN</DistanceMeters>
          </Trackpoint>
          <Trackpoint>
            <Time>2022-06-16T07:28:24.000Z</Time>
            <Position>
              <LatitudeDegrees>36.80387576110661029815673828125</LatitudeDegrees>
              <LongitudeDegrees>-4.39517296850681304931640625</LongitudeDegrees>
            </Position>
            <AltitudeMeters>624.4000244140625</AltitudeMeters>
            <DistanceMeters>NAN</DistanceMeters>
          </Trackpoint>
          <Trackpoint>
            <Time>2022-06-16T07:28:25.000Z</Time>
            <Position>
              <LatitudeDegrees>36.80388112552464008331298828125</LatitudeDegrees>
              <LongitudeDegrees>-4.39516584388911724090576171875</LongitudeDegrees>
            </Position>
            <AltitudeMeters>624.5999755859375</AltitudeMeters>
            <DistanceMeters>NAN</DistanceMeters>
          </Trackpoint>
          <Trackpoint>
            <Time>2022-06-16T07:28:30.000Z</Time>
            <Position>
              <LatitudeDegrees>36.80390216410160064697265625</LatitudeDegrees>
              <LongitudeDegrees>-4.39512737095355987548828125</LongitudeDegrees>
            </Position>
            <AltitudeMeters>625.5999755859375</AltitudeMeters>
            <DistanceMeters>NAN</DistanceMeters>
          </Trackpoint>
          <Trackpoint>
            <Time>2022-06-16T07:28:36.000Z</Time>
            <Position>
              <LatitudeDegrees>36.8039231188595294952392578125</LatitudeDegrees>
              <LongitudeDegrees>-4.3950852937996387481689453125</LongitudeDegrees>
            </Position>
            <AltitudeMeters>626.5999755859375</AltitudeMeters>
            <DistanceMeters>NAN</DistanceMeters>
          </Trackpoint>
          <Trackpoint>
            <Time>2022-06-16T07:28:39.000Z</Time>
            <Position>
              <LatitudeDegrees>36.8039291538298130035400390625</LatitudeDegrees>
              <LongitudeDegrees>-4.39506509341299533843994140625</LongitudeDegrees>
            </Position>
            <AltitudeMeters>626.79998779296875</AltitudeMeters>
            <DistanceMeters>NAN</DistanceMeters>
          </Trackpoint>
          <Trackpoint>
            <Time>2022-06-16T07:28:40.000Z</Time>
            <Position>
              <LatitudeDegrees>36.80393166840076446533203125</LatitudeDegrees>
              <LongitudeDegrees>-4.39505897462368011474609375</LongitudeDegrees>
            </Position>
            <AltitudeMeters>627</AltitudeMeters>
            <DistanceMeters>NAN</DistanceMeters>
          </Trackpoint>
          <Trackpoint>
            <Time>2022-06-16T07:28:46.000Z</Time>
            <Position>
              <LatitudeDegrees>36.8039526231586933135986328125</LatitudeDegrees>
              <LongitudeDegrees>-4.3950363434851169586181640625</LongitudeDegrees>
            </Position>
            <AltitudeMeters>627.79998779296875</AltitudeMeters>
            <DistanceMeters>NAN</DistanceMeters>
          </Trackpoint>
          <Trackpoint>
            <Time>2022-06-16T07:28:48.000Z</Time>
            <Position>
              <LatitudeDegrees>36.80396251380443572998046875</LatitudeDegrees>
              <LongitudeDegrees>-4.39503014087677001953125</LongitudeDegrees>
            </Position>
            <AltitudeMeters>628.20001220703125</AltitudeMeters>
            <DistanceMeters>NAN</DistanceMeters>
          </Trackpoint>
          <Trackpoint>
            <Time>2022-06-16T07:28:49.000Z</Time>
            <Position>
              <LatitudeDegrees>36.80396963842213153839111328125</LatitudeDegrees>
              <LongitudeDegrees>-4.39502385444939136505126953125</LongitudeDegrees>
            </Position>
            <AltitudeMeters>628.4000244140625</AltitudeMeters>
            <DistanceMeters>NAN</DistanceMeters>
          </Trackpoint>
          <Trackpoint>
            <Time>2022-06-16T07:28:50.000Z</Time>
            <Position>
              <LatitudeDegrees>36.80397500284016132354736328125</LatitudeDegrees>
              <LongitudeDegrees>-4.39501899294555187225341796875</LongitudeDegrees>
            </Position>
            <AltitudeMeters>628.79998779296875</AltitudeMeters>
            <DistanceMeters>NAN</DistanceMeters>
          </Trackpoint>
          <Trackpoint>
            <Time>2022-06-16T07:28:53.000Z</Time>
            <Position>
              <LatitudeDegrees>36.80397969670593738555908203125</LatitudeDegrees>
              <LongitudeDegrees>-4.39500407315790653228759765625</LongitudeDegrees>
            </Position>
            <AltitudeMeters>629</AltitudeMeters>
            <DistanceMeters>NAN</DistanceMeters>
          </Trackpoint>
          <Trackpoint>
            <Time>2022-06-16T07:28:55.000Z</Time>
            <Position>
              <LatitudeDegrees>36.80398824624717235565185546875</LatitudeDegrees>
              <LongitudeDegrees>-4.39499686472117900848388671875</LongitudeDegrees>
            </Position>
            <AltitudeMeters>629.4000244140625</AltitudeMeters>
            <DistanceMeters>NAN</DistanceMeters>
          </Trackpoint>
          <Trackpoint>
            <Time>2022-06-16T07:28:57.000Z</Time>
            <Position>
              <LatitudeDegrees>36.803994365036487579345703125</LatitudeDegrees>
              <LongitudeDegrees>-4.3949924223124980926513671875</LongitudeDegrees>
            </Position>
            <AltitudeMeters>629.5999755859375</AltitudeMeters>
            <DistanceMeters>NAN</DistanceMeters>
          </Trackpoint>
          <Trackpoint>
            <Time>2022-06-16T07:29:00.000Z</Time>
            <Position>
              <LatitudeDegrees>36.80400408804416656494140625</LatitudeDegrees>
              <LongitudeDegrees>-4.39497725106775760650634765625</LongitudeDegrees>
            </Position>
            <AltitudeMeters>630.20001220703125</AltitudeMeters>
            <DistanceMeters>NAN</DistanceMeters>
          </Trackpoint>
          <Trackpoint>
            <Time>2022-06-16T07:29:01.000Z</Time>
            <Position>
              <LatitudeDegrees>36.80400785990059375762939453125</LatitudeDegrees>
              <LongitudeDegrees>-4.39497255720198154449462890625</LongitudeDegrees>
            </Position>
            <AltitudeMeters>630.4000244140625</AltitudeMeters>
            <DistanceMeters>NAN</DistanceMeters>
          </Trackpoint>
          <Trackpoint>
            <Time>2022-06-16T07:29:10.000Z</Time>
            <Position>
              <LatitudeDegrees>36.8040444888174533843994140625</LatitudeDegrees>
              <LongitudeDegrees>-4.39492084085941314697265625</LongitudeDegrees>
            </Position>
            <AltitudeMeters>632.79998779296875</AltitudeMeters>
            <DistanceMeters>NAN</DistanceMeters>
          </Trackpoint>
          <Trackpoint>
            <Time>2022-06-16T07:29:20.000Z</Time>
            <Position>
              <LatitudeDegrees>36.8040756694972515106201171875</LatitudeDegrees>
              <LongitudeDegrees>-4.39486627466976642608642578125</LongitudeDegrees>
            </Position>
            <AltitudeMeters>634.79998779296875</AltitudeMeters>
            <DistanceMeters>NAN</DistanceMeters>
          </Trackpoint>
          <Trackpoint>
            <Time>2022-06-16T07:29:30.000Z</Time>
            <Position>
              <LatitudeDegrees>36.80409989319741725921630859375</LatitudeDegrees>
              <LongitudeDegrees>-4.394785724580287933349609375</LongitudeDegrees>
            </Position>
            <AltitudeMeters>636.20001220703125</AltitudeMeters>
            <DistanceMeters>NAN</DistanceMeters>
          </Trackpoint>
          <Trackpoint>
            <Time>2022-06-16T07:29:39.000Z</Time>
            <Position>
              <LatitudeDegrees>36.80410291068255901336669921875</LatitudeDegrees>
              <LongitudeDegrees>-4.394758902490139007568359375</LongitudeDegrees>
            </Position>
            <AltitudeMeters>636.4000244140625</AltitudeMeters>
            <DistanceMeters>NAN</DistanceMeters>
          </Trackpoint>
          <Trackpoint>
            <Time>2022-06-16T07:29:40.000Z</Time>
            <Position>
              <LatitudeDegrees>36.80410324595868587493896484375</LatitudeDegrees>
              <LongitudeDegrees>-4.394752867519855499267578125</LongitudeDegrees>
            </Position>
            <AltitudeMeters>636.4000244140625</AltitudeMeters>
            <DistanceMeters>NAN</DistanceMeters>
          </Trackpoint>
          <Trackpoint>
            <Time>2022-06-16T07:29:50.000Z</Time>
            <Position>
              <LatitudeDegrees>36.8041383661329746246337890625</LatitudeDegrees>
              <LongitudeDegrees>-4.3947225250303745269775390625</LongitudeDegrees>
            </Position>
            <AltitudeMeters>638.5999755859375</AltitudeMeters>
            <DistanceMeters>NAN</DistanceMeters>
          </Trackpoint>
          <Trackpoint>
            <Time>2022-06-16T07:30:00.000Z</Time>
            <Position>
              <LatitudeDegrees>36.80419326759874820709228515625</LatitudeDegrees>
              <LongitudeDegrees>-4.39468019641935825347900390625</LongitudeDegrees>
            </Position>
            <AltitudeMeters>641.79998779296875</AltitudeMeters>
            <DistanceMeters>NAN</DistanceMeters>
          </Trackpoint>
          <Trackpoint>
            <Time>2022-06-16T07:30:10.000Z</Time>
            <Position>
              <LatitudeDegrees>36.80422604084014892578125</LatitudeDegrees>
              <LongitudeDegrees>-4.39462437294423580169677734375</LongitudeDegrees>
            </Position>
            <AltitudeMeters>643.79998779296875</AltitudeMeters>
            <DistanceMeters>NAN</DistanceMeters>
          </Trackpoint>
          <Trackpoint>
            <Time>2022-06-16T07:30:20.000Z</Time>
            <Position>
              <LatitudeDegrees>36.80428110994398593902587890625</LatitudeDegrees>
              <LongitudeDegrees>-4.39459134824573993682861328125</LongitudeDegrees>
            </Position>
            <AltitudeMeters>646.5999755859375</AltitudeMeters>
            <DistanceMeters>NAN</DistanceMeters>
          </Trackpoint>
          <Trackpoint>
            <Time>2022-06-16T07:30:30.000Z</Time>
            <Position>
              <LatitudeDegrees>36.8043334968388080596923828125</LatitudeDegrees>
              <LongitudeDegrees>-4.39455614425241947174072265625</LongitudeDegrees>
            </Position>
            <AltitudeMeters>648.79998779296875</AltitudeMeters>
            <DistanceMeters>NAN</DistanceMeters>
          </Trackpoint>
          <Trackpoint>
            <Time>2022-06-16T07:30:40.000Z</Time>
            <Position>
              <LatitudeDegrees>36.80440030060708522796630859375</LatitudeDegrees>
              <LongitudeDegrees>-4.394522197544574737548828125</LongitudeDegrees>
            </Position>
            <AltitudeMeters>651.5999755859375</AltitudeMeters>
            <DistanceMeters>NAN</DistanceMeters>
          </Trackpoint>
          <Trackpoint>
            <Time>2022-06-16T07:30:49.000Z</Time>
            <Position>
              <LatitudeDegrees>36.8044568784534931182861328125</LatitudeDegrees>
              <LongitudeDegrees>-4.394490681588649749755859375</LongitudeDegrees>
            </Position>
            <AltitudeMeters>653.79998779296875</AltitudeMeters>
            <DistanceMeters>NAN</DistanceMeters>
          </Trackpoint>
          <Trackpoint>
            <Time>2022-06-16T07:30:50.000Z</Time>
            <Position>
              <LatitudeDegrees>36.80446182377636432647705078125</LatitudeDegrees>
              <LongitudeDegrees>-4.39448724500834941864013671875</LongitudeDegrees>
            </Position>
            <AltitudeMeters>654</AltitudeMeters>
            <DistanceMeters>NAN</DistanceMeters>
          </Trackpoint>
          <Trackpoint>
            <Time>2022-06-16T07:31:00.000Z</Time>
            <Position>
              <LatitudeDegrees>36.8045152164995670318603515625</LatitudeDegrees>
              <LongitudeDegrees>-4.39445774070918560028076171875</LongitudeDegrees>
            </Position>
            <AltitudeMeters>656</AltitudeMeters>
            <DistanceMeters>NAN</DistanceMeters>
          </Trackpoint>
          <Trackpoint>
            <Time>2022-06-16T07:31:10.000Z</Time>
            <Position>
              <LatitudeDegrees>36.80450356565415859222412109375</LatitudeDegrees>
              <LongitudeDegrees>-4.39442907460033893585205078125</LongitudeDegrees>
            </Position>
            <AltitudeMeters>656</AltitudeMeters>
            <DistanceMeters>NAN</DistanceMeters>
          </Trackpoint>
          <Trackpoint>
            <Time>2022-06-16T07:31:20.000Z</Time>
            <Position>
              <LatitudeDegrees>36.804562993347644805908203125</LatitudeDegrees>
              <LongitudeDegrees>-4.39441331662237644195556640625</LongitudeDegrees>
            </Position>
            <AltitudeMeters>657.4000244140625</AltitudeMeters>
            <DistanceMeters>NAN</DistanceMeters>
          </Trackpoint>
          <Trackpoint>
            <Time>2022-06-16T07:31:30.000Z</Time>
            <Position>
              <LatitudeDegrees>36.8046270310878753662109375</LatitudeDegrees>
              <LongitudeDegrees>-4.39437291584908962249755859375</LongitudeDegrees>
            </Position>
            <AltitudeMeters>658.5999755859375</AltitudeMeters>
            <DistanceMeters>NAN</DistanceMeters>
          </Trackpoint>
          <Trackpoint>
            <Time>2022-06-16T07:31:40.000Z</Time>
            <Position>
              <LatitudeDegrees>36.80467120371758937835693359375</LatitudeDegrees>
              <LongitudeDegrees>-4.3942920304834842681884765625</LongitudeDegrees>
            </Position>
            <AltitudeMeters>660.4000244140625</AltitudeMeters>
            <DistanceMeters>NAN</DistanceMeters>
          </Trackpoint>
          <Trackpoint>
            <Time>2022-06-16T07:31:48.000Z</Time>
            <Position>
              <LatitudeDegrees>36.80467606522142887115478515625</LatitudeDegrees>
              <LongitudeDegrees>-4.39421919174492359161376953125</LongitudeDegrees>
            </Position>
            <AltitudeMeters>660.5999755859375</AltitudeMeters>
            <DistanceMeters>NAN</DistanceMeters>
          </Trackpoint>
          <Trackpoint>
            <Time>2022-06-16T07:31:50.000Z</Time>
            <Position>
              <LatitudeDegrees>36.804668270051479339599609375</LatitudeDegrees>
              <LongitudeDegrees>-4.39419941045343875885009765625</LongitudeDegrees>
            </Position>
            <AltitudeMeters>660.20001220703125</AltitudeMeters>
            <DistanceMeters>NAN</DistanceMeters>
          </Trackpoint>
          <Trackpoint>
            <Time>2022-06-16T07:31:53.000Z</Time>
            <Position>
              <LatitudeDegrees>36.80466198362410068511962890625</LatitudeDegrees>
              <LongitudeDegrees>-4.39416990615427494049072265625</LongitudeDegrees>
            </Position>
            <AltitudeMeters>660</AltitudeMeters>
            <DistanceMeters>NAN</DistanceMeters>
          </Trackpoint>
          <Trackpoint>
            <Time>2022-06-16T07:31:55.000Z</Time>
            <Position>
              <LatitudeDegrees>36.8046627379953861236572265625</LatitudeDegrees>
              <LongitudeDegrees>-4.394151382148265838623046875</LongitudeDegrees>
            </Position>
            <AltitudeMeters>660</AltitudeMeters>
            <DistanceMeters>NAN</DistanceMeters>
          </Trackpoint>
          <Trackpoint>
            <Time>2022-06-16T07:32:00.000Z</Time>
            <Position>
              <LatitudeDegrees>36.80466382764279842376708984375</LatitudeDegrees>
              <LongitudeDegrees>-4.39411207102239131927490234375</LongitudeDegrees>
            </Position>
            <AltitudeMeters>659.79998779296875</AltitudeMeters>
            <DistanceMeters>NAN</DistanceMeters>
          </Trackpoint>
          <Trackpoint>
            <Time>2022-06-16T07:32:07.000Z</Time>
            <Position>
              <LatitudeDegrees>36.8046808429062366485595703125</LatitudeDegrees>
              <LongitudeDegrees>-4.39403629861772060394287109375</LongitudeDegrees>
            </Position>
            <AltitudeMeters>660</AltitudeMeters>
            <DistanceMeters>NAN</DistanceMeters>
          </Trackpoint>
          <Trackpoint>
            <Time>2022-06-16T07:32:10.000Z</Time>
            <Position>
              <LatitudeDegrees>36.80469953455030918121337890625</LatitudeDegrees>
              <LongitudeDegrees>-4.393995143473148345947265625</LongitudeDegrees>
            </Position>
            <AltitudeMeters>660.4000244140625</AltitudeMeters>
            <DistanceMeters>NAN</DistanceMeters>
          </Trackpoint>
          <Trackpoint>
            <Time>2022-06-16T07:32:20.000Z</Time>
            <Position>
              <LatitudeDegrees>36.804740019142627716064453125</LatitudeDegrees>
              <LongitudeDegrees>-4.39386807382106781005859375</LongitudeDegrees>
            </Position>
            <AltitudeMeters>660.20001220703125</AltitudeMeters>
            <DistanceMeters>NAN</DistanceMeters>
          </Trackpoint>
          <Trackpoint>
            <Time>2022-06-16T07:32:26.000Z</Time>
            <Position>
              <LatitudeDegrees>36.80478326976299285888671875</LatitudeDegrees>
              <LongitudeDegrees>-4.39379858784377574920654296875</LongitudeDegrees>
            </Position>
            <AltitudeMeters>661.20001220703125</AltitudeMeters>
            <DistanceMeters>NAN</DistanceMeters>
          </Trackpoint>
          <Trackpoint>
            <Time>2022-06-16T07:32:30.000Z</Time>
            <Position>
              <LatitudeDegrees>36.80482509545981884002685546875</LatitudeDegrees>
              <LongitudeDegrees>-4.393775202333927154541015625</LongitudeDegrees>
            </Position>
            <AltitudeMeters>662.5999755859375</AltitudeMeters>
            <DistanceMeters>NAN</DistanceMeters>
          </Trackpoint>
          <Trackpoint>
            <Time>2022-06-16T07:32:40.000Z</Time>
            <Position>
              <LatitudeDegrees>36.80492618121206760406494140625</LatitudeDegrees>
              <LongitudeDegrees>-4.3937274254858493804931640625</LongitudeDegrees>
            </Position>
            <AltitudeMeters>666.5999755859375</AltitudeMeters>
            <DistanceMeters>NAN</DistanceMeters>
          </Trackpoint>
          <Trackpoint>
            <Time>2022-06-16T07:32:50.000Z</Time>
            <Position>
              <LatitudeDegrees>36.8050131015479564666748046875</LatitudeDegrees>
              <LongitudeDegrees>-4.3936734460294246673583984375</LongitudeDegrees>
            </Position>
            <AltitudeMeters>669.5999755859375</AltitudeMeters>
            <DistanceMeters>NAN</DistanceMeters>
          </Trackpoint>
          <Trackpoint>
            <Time>2022-06-16T07:33:00.000Z</Time>
            <Position>
              <LatitudeDegrees>36.80502357892692089080810546875</LatitudeDegrees>
              <LongitudeDegrees>-4.393587447702884674072265625</LongitudeDegrees>
            </Position>
            <AltitudeMeters>669.20001220703125</AltitudeMeters>
            <DistanceMeters>NAN</DistanceMeters>
          </Trackpoint>
          <Trackpoint>
            <Time>2022-06-16T07:33:09.000Z</Time>
            <Position>
              <LatitudeDegrees>36.80507697165012359619140625</LatitudeDegrees>
              <LongitudeDegrees>-4.3934950791299343109130859375</LongitudeDegrees>
            </Position>
            <AltitudeMeters>671</AltitudeMeters>
            <DistanceMeters>NAN</DistanceMeters>
          </Trackpoint>
          <Trackpoint>
            <Time>2022-06-16T07:33:10.000Z</Time>
            <Position>
              <LatitudeDegrees>36.80508728139102458953857421875</LatitudeDegrees>
              <LongitudeDegrees>-4.393484853208065032958984375</LongitudeDegrees>
            </Position>
            <AltitudeMeters>671.4000244140625</AltitudeMeters>
            <DistanceMeters>NAN</DistanceMeters>
          </Trackpoint>
          <Trackpoint>
            <Time>2022-06-16T07:33:20.000Z</Time>
            <Position>
              <LatitudeDegrees>36.8051473796367645263671875</LatitudeDegrees>
              <LongitudeDegrees>-4.39339105971157550811767578125</LongitudeDegrees>
            </Position>
            <AltitudeMeters>672.5999755859375</AltitudeMeters>
            <DistanceMeters>NAN</DistanceMeters>
          </Trackpoint>
          <Trackpoint>
            <Time>2022-06-16T07:33:26.000Z</Time>
            <Position>
              <LatitudeDegrees>36.80517260916531085968017578125</LatitudeDegrees>
              <LongitudeDegrees>-4.39332802779972553253173828125</LongitudeDegrees>
            </Position>
            <AltitudeMeters>673</AltitudeMeters>
            <DistanceMeters>NAN</DistanceMeters>
          </Trackpoint>
          <Trackpoint>
            <Time>2022-06-16T07:33:30.000Z</Time>
            <Position>
              <LatitudeDegrees>36.80517889559268951416015625</LatitudeDegrees>
              <LongitudeDegrees>-4.39328410662710666656494140625</LongitudeDegrees>
            </Position>
            <AltitudeMeters>673.20001220703125</AltitudeMeters>
            <DistanceMeters>NAN</DistanceMeters>
          </Trackpoint>
          <Trackpoint>
            <Time>2022-06-16T07:33:40.000Z</Time>
            <Position>
              <LatitudeDegrees>36.805215775966644287109375</LatitudeDegrees>
              <LongitudeDegrees>-4.39320565201342105865478515625</LongitudeDegrees>
            </Position>
            <AltitudeMeters>674.5999755859375</AltitudeMeters>
            <DistanceMeters>NAN</DistanceMeters>
          </Trackpoint>
          <Trackpoint>
            <Time>2022-06-16T07:33:50.000Z</Time>
            <Position>
              <LatitudeDegrees>36.805248297750949859619140625</LatitudeDegrees>
              <LongitudeDegrees>-4.39314664341509342193603515625</LongitudeDegrees>
            </Position>
            <AltitudeMeters>675.79998779296875</AltitudeMeters>
            <DistanceMeters>NAN</DistanceMeters>
          </Trackpoint>
          <Trackpoint>
            <Time>2022-06-16T07:33:54.000Z</Time>
            <Position>
              <LatitudeDegrees>36.8052645586431026458740234375</LatitudeDegrees>
              <LongitudeDegrees>-4.39313055016100406646728515625</LongitudeDegrees>
            </Position>
            <AltitudeMeters>676.4000244140625</AltitudeMeters>
            <DistanceMeters>NAN</DistanceMeters>
          </Trackpoint>
          <Trackpoint>
            <Time>2022-06-16T07:34:00.000Z</Time>
            <Position>
              <LatitudeDegrees>36.8052739463746547698974609375</LatitudeDegrees>
              <LongitudeDegrees>-4.393105991184711456298828125</LongitudeDegrees>
            </Position>
            <AltitudeMeters>676.79998779296875</AltitudeMeters>
            <DistanceMeters>NAN</DistanceMeters>
          </Trackpoint>
          <Trackpoint>
            <Time>2022-06-16T07:34:09.000Z</Time>
            <Position>
              <LatitudeDegrees>36.80529012344777584075927734375</LatitudeDegrees>
              <LongitudeDegrees>-4.39305963926017284393310546875</LongitudeDegrees>
            </Position>
            <AltitudeMeters>677</AltitudeMeters>
            <DistanceMeters>NAN</DistanceMeters>
          </Trackpoint>
          <Trackpoint>
            <Time>2022-06-16T07:34:10.000Z</Time>
            <Position>
              <LatitudeDegrees>36.80529481731355190277099609375</LatitudeDegrees>
              <LongitudeDegrees>-4.39305670559406280517578125</LongitudeDegrees>
            </Position>
            <AltitudeMeters>677.20001220703125</AltitudeMeters>
            <DistanceMeters>NAN</DistanceMeters>
          </Trackpoint>
          <Trackpoint>
            <Time>2022-06-16T07:34:20.000Z</Time>
            <Position>
              <LatitudeDegrees>36.80532784201204776763916015625</LatitudeDegrees>
              <LongitudeDegrees>-4.3929935060441493988037109375</LongitudeDegrees>
            </Position>
            <AltitudeMeters>678.5999755859375</AltitudeMeters>
            <DistanceMeters>NAN</DistanceMeters>
          </Trackpoint>
          <Trackpoint>
            <Time>2022-06-16T07:34:30.000Z</Time>
            <Position>
              <LatitudeDegrees>36.8053270876407623291015625</LatitudeDegrees>
              <LongitudeDegrees>-4.39291848801076412200927734375</LongitudeDegrees>
            </Position>
            <AltitudeMeters>679.20001220703125</AltitudeMeters>
            <DistanceMeters>NAN</DistanceMeters>
          </Trackpoint>
          <Trackpoint>
            <Time>2022-06-16T07:34:40.000Z</Time>
            <Position>
              <LatitudeDegrees>36.80534712038934230804443359375</LatitudeDegrees>
              <LongitudeDegrees>-4.39282008446753025054931640625</LongitudeDegrees>
            </Position>
            <AltitudeMeters>680.79998779296875</AltitudeMeters>
            <DistanceMeters>NAN</DistanceMeters>
          </Trackpoint>
          <Trackpoint>
            <Time>2022-06-16T07:34:50.000Z</Time>
            <Position>
              <LatitudeDegrees>36.805381067097187042236328125</LatitudeDegrees>
              <LongitudeDegrees>-4.39274682663381099700927734375</LongitudeDegrees>
            </Position>
            <AltitudeMeters>682.4000244140625</AltitudeMeters>
            <DistanceMeters>NAN</DistanceMeters>
          </Trackpoint>
          <Trackpoint>
            <Time>2022-06-16T07:35:00.000Z</Time>
            <Position>
              <LatitudeDegrees>36.80538274347782135009765625</LatitudeDegrees>
              <LongitudeDegrees>-4.39267708919942378997802734375</LongitudeDegrees>
            </Position>
            <AltitudeMeters>683</AltitudeMeters>
            <DistanceMeters>NAN</DistanceMeters>
          </Trackpoint>
          <Trackpoint>
            <Time>2022-06-16T07:35:10.000Z</Time>
            <Position>
              <LatitudeDegrees>36.80539087392389774322509765625</LatitudeDegrees>
              <LongitudeDegrees>-4.3926146440207958221435546875</LongitudeDegrees>
            </Position>
            <AltitudeMeters>683.4000244140625</AltitudeMeters>
            <DistanceMeters>NAN</DistanceMeters>
          </Trackpoint>
          <Trackpoint>
            <Time>2022-06-16T07:35:20.000Z</Time>
            <Position>
              <LatitudeDegrees>36.805403195321559906005859375</LatitudeDegrees>
              <LongitudeDegrees>-4.39256049692630767822265625</LongitudeDegrees>
            </Position>
            <AltitudeMeters>684</AltitudeMeters>
            <DistanceMeters>NAN</DistanceMeters>
          </Trackpoint>
          <Trackpoint>
            <Time>2022-06-16T07:35:30.000Z</Time>
            <Position>
              <LatitudeDegrees>36.80542138405144214630126953125</LatitudeDegrees>
              <LongitudeDegrees>-4.392507188022136688232421875</LongitudeDegrees>
            </Position>
            <AltitudeMeters>684.79998779296875</AltitudeMeters>
            <DistanceMeters>NAN</DistanceMeters>
          </Trackpoint>
          <Trackpoint>
            <Time>2022-06-16T07:35:36.000Z</Time>
            <Position>
              <LatitudeDegrees>36.80543060414493083953857421875</LatitudeDegrees>
              <LongitudeDegrees>-4.39247407950460910797119140625</LongitudeDegrees>
            </Position>
            <AltitudeMeters>685.20001220703125</AltitudeMeters>
            <DistanceMeters>NAN</DistanceMeters>
          </Trackpoint>
          <Trackpoint>
            <Time>2022-06-16T07:35:40.000Z</Time>
            <Position>
              <LatitudeDegrees>36.80543513037264347076416015625</LatitudeDegrees>
              <LongitudeDegrees>-4.392452538013458251953125</LongitudeDegrees>
            </Position>
            <AltitudeMeters>685.5999755859375</AltitudeMeters>
            <DistanceMeters>NAN</DistanceMeters>
          </Trackpoint>
          <Trackpoint>
            <Time>2022-06-16T07:35:44.000Z</Time>
            <Position>
              <LatitudeDegrees>36.80543127469718456268310546875</LatitudeDegrees>
              <LongitudeDegrees>-4.39242529682815074920654296875</LongitudeDegrees>
            </Position>
            <AltitudeMeters>685.79998779296875</AltitudeMeters>
            <DistanceMeters>NAN</DistanceMeters>
          </Trackpoint>
          <Trackpoint>
            <Time>2022-06-16T07:35:49.000Z</Time>
            <Position>
              <LatitudeDegrees>36.8054439313709735870361328125</LatitudeDegrees>
              <LongitudeDegrees>-4.392395876348018646240234375</LongitudeDegrees>
            </Position>
            <AltitudeMeters>686.79998779296875</AltitudeMeters>
            <DistanceMeters>NAN</DistanceMeters>
          </Trackpoint>
          <Trackpoint>
            <Time>2022-06-16T07:35:50.000Z</Time>
            <Position>
              <LatitudeDegrees>36.8054523132741451263427734375</LatitudeDegrees>
              <LongitudeDegrees>-4.39238741062581539154052734375</LongitudeDegrees>
            </Position>
            <AltitudeMeters>687.4000244140625</AltitudeMeters>
            <DistanceMeters>NAN</DistanceMeters>
          </Trackpoint>
          <Trackpoint>
            <Time>2022-06-16T07:35:58.000Z</Time>
            <Position>
              <LatitudeDegrees>36.80549405515193939208984375</LatitudeDegrees>
              <LongitudeDegrees>-4.39233460463583469390869140625</LongitudeDegrees>
            </Position>
            <AltitudeMeters>690</AltitudeMeters>
            <DistanceMeters>NAN</DistanceMeters>
          </Trackpoint>
          <Trackpoint>
            <Time>2022-06-16T07:36:00.000Z</Time>
            <Position>
              <LatitudeDegrees>36.805504448711872100830078125</LatitudeDegrees>
              <LongitudeDegrees>-4.3923229537904262542724609375</LongitudeDegrees>
            </Position>
            <AltitudeMeters>690.79998779296875</AltitudeMeters>
            <DistanceMeters>NAN</DistanceMeters>
          </Trackpoint>
          <Trackpoint>
            <Time>2022-06-16T07:36:10.000Z</Time>
            <Position>
              <LatitudeDegrees>36.80553101934492588043212890625</LatitudeDegrees>
              <LongitudeDegrees>-4.3922740034759044647216796875</LongitudeDegrees>
            </Position>
            <AltitudeMeters>692.5999755859375</AltitudeMeters>
            <DistanceMeters>NAN</DistanceMeters>
          </Trackpoint>
          <Trackpoint>
            <Time>2022-06-16T07:36:20.000Z</Time>
            <Position>
              <LatitudeDegrees>36.805547364056110382080078125</LatitudeDegrees>
              <LongitudeDegrees>-4.39223586581647396087646484375</LongitudeDegrees>
            </Position>
            <AltitudeMeters>693.79998779296875</AltitudeMeters>
            <DistanceMeters>NAN</DistanceMeters>
          </Trackpoint>
          <Trackpoint>
            <Time>2022-06-16T07:36:30.000Z</Time>
            <Position>
              <LatitudeDegrees>36.80560042150318622589111328125</LatitudeDegrees>
              <LongitudeDegrees>-4.39218423329293727874755859375</LongitudeDegrees>
            </Position>
            <AltitudeMeters>697</AltitudeMeters>
            <DistanceMeters>NAN</DistanceMeters>
          </Trackpoint>
          <Trackpoint>
            <Time>2022-06-16T07:36:40.000Z</Time>
            <Position>
              <LatitudeDegrees>36.805645264685153961181640625</LatitudeDegrees>
              <LongitudeDegrees>-4.392111562192440032958984375</LongitudeDegrees>
            </Position>
            <AltitudeMeters>700</AltitudeMeters>
            <DistanceMeters>NAN</DistanceMeters>
          </Trackpoint>
          <Trackpoint>
            <Time>2022-06-16T07:36:50.000Z</Time>
            <Position>
              <LatitudeDegrees>36.8056945502758026123046875</LatitudeDegrees>
              <LongitudeDegrees>-4.39204953610897064208984375</LongitudeDegrees>
            </Position>
            <AltitudeMeters>702.4000244140625</AltitudeMeters>
            <DistanceMeters>NAN</DistanceMeters>
          </Trackpoint>
          <Trackpoint>
            <Time>2022-06-16T07:37:00.000Z</Time>
            <Position>
              <LatitudeDegrees>36.80573671124875545501708984375</LatitudeDegrees>
              <LongitudeDegrees>-4.3919960595667362213134765625</LongitudeDegrees>
            </Position>
            <AltitudeMeters>704.5999755859375</AltitudeMeters>
            <DistanceMeters>NAN</DistanceMeters>
          </Trackpoint>
          <Trackpoint>
            <Time>2022-06-16T07:37:10.000Z</Time>
            <Position>
              <LatitudeDegrees>36.80575666017830371856689453125</LatitudeDegrees>
              <LongitudeDegrees>-4.39192925579845905303955078125</LongitudeDegrees>
            </Position>
            <AltitudeMeters>706</AltitudeMeters>
            <DistanceMeters>NAN</DistanceMeters>
          </Trackpoint>
          <Trackpoint>
            <Time>2022-06-16T07:37:20.000Z</Time>
            <Position>
              <LatitudeDegrees>36.8057812191545963287353515625</LatitudeDegrees>
              <LongitudeDegrees>-4.3918767012655735015869140625</LongitudeDegrees>
            </Position>
            <AltitudeMeters>707.79998779296875</AltitudeMeters>
            <DistanceMeters>NAN</DistanceMeters>
          </Trackpoint>
          <Trackpoint>
            <Time>2022-06-16T07:37:30.000Z</Time>
            <Position>
              <LatitudeDegrees>36.8058127351105213165283203125</LatitudeDegrees>
              <LongitudeDegrees>-4.39183839596807956695556640625</LongitudeDegrees>
            </Position>
            <AltitudeMeters>709.79998779296875</AltitudeMeters>
            <DistanceMeters>NAN</DistanceMeters>
          </Trackpoint>
          <Trackpoint>
            <Time>2022-06-16T07:37:40.000Z</Time>
            <Position>
              <LatitudeDegrees>36.80583779700100421905517578125</LatitudeDegrees>
              <LongitudeDegrees>-4.391785003244876861572265625</LongitudeDegrees>
            </Position>
            <AltitudeMeters>711.79998779296875</AltitudeMeters>
            <DistanceMeters>NAN</DistanceMeters>
          </Trackpoint>
          <Trackpoint>
            <Time>2022-06-16T07:37:50.000Z</Time>
            <Position>
              <LatitudeDegrees>36.80586864240467548370361328125</LatitudeDegrees>
              <LongitudeDegrees>-4.39171291887760162353515625</LongitudeDegrees>
            </Position>
            <AltitudeMeters>714.5999755859375</AltitudeMeters>
            <DistanceMeters>NAN</DistanceMeters>
          </Trackpoint>
          <Trackpoint>
            <Time>2022-06-16T07:38:00.000Z</Time>
            <Position>
              <LatitudeDegrees>36.80587668903172016143798828125</LatitudeDegrees>
              <LongitudeDegrees>-4.3916617892682552337646484375</LongitudeDegrees>
            </Position>
            <AltitudeMeters>715.79998779296875</AltitudeMeters>
            <DistanceMeters>NAN</DistanceMeters>
          </Trackpoint>
          <Trackpoint>
            <Time>2022-06-16T07:38:10.000Z</Time>
            <Position>
              <LatitudeDegrees>36.80587626993656158447265625</LatitudeDegrees>
              <LongitudeDegrees>-4.3916071392595767974853515625</LongitudeDegrees>
            </Position>
            <AltitudeMeters>716.20001220703125</AltitudeMeters>
            <DistanceMeters>NAN</DistanceMeters>
          </Trackpoint>
          <Trackpoint>
            <Time>2022-06-16T07:38:20.000Z</Time>
            <Position>
              <LatitudeDegrees>36.8058814667165279388427734375</LatitudeDegrees>
              <LongitudeDegrees>-4.3915390782058238983154296875</LongitudeDegrees>
            </Position>
            <AltitudeMeters>716.79998779296875</AltitudeMeters>
            <DistanceMeters>NAN</DistanceMeters>
          </Trackpoint>
          <Trackpoint>
            <Time>2022-06-16T07:38:30.000Z</Time>
            <Position>
              <LatitudeDegrees>36.8059042654931545257568359375</LatitudeDegrees>
              <LongitudeDegrees>-4.39145081676542758941650390625</LongitudeDegrees>
            </Position>
            <AltitudeMeters>718</AltitudeMeters>
            <DistanceMeters>NAN</DistanceMeters>
          </Trackpoint>
          <Trackpoint>
            <Time>2022-06-16T07:38:40.000Z</Time>
            <Position>
              <LatitudeDegrees>36.80589730851352214813232421875</LatitudeDegrees>
              <LongitudeDegrees>-4.39136062748730182647705078125</LongitudeDegrees>
            </Position>
            <AltitudeMeters>718</AltitudeMeters>
            <DistanceMeters>NAN</DistanceMeters>
          </Trackpoint>
          <Trackpoint>
            <Time>2022-06-16T07:38:50.000Z</Time>
            <Position>
              <LatitudeDegrees>36.80587618611752986907958984375</LatitudeDegrees>
              <LongitudeDegrees>-4.39127379097044467926025390625</LongitudeDegrees>
            </Position>
            <AltitudeMeters>716.20001220703125</AltitudeMeters>
            <DistanceMeters>NAN</DistanceMeters>
          </Trackpoint>
          <Trackpoint>
            <Time>2022-06-16T07:38:59.000Z</Time>
            <Position>
              <LatitudeDegrees>36.805840395390987396240234375</LatitudeDegrees>
              <LongitudeDegrees>-4.39118477515876293182373046875</LongitudeDegrees>
            </Position>
            <AltitudeMeters>713.79998779296875</AltitudeMeters>
            <DistanceMeters>NAN</DistanceMeters>
          </Trackpoint>
          <Trackpoint>
            <Time>2022-06-16T07:39:00.000Z</Time>
            <Position>
              <LatitudeDegrees>36.80583360604941844940185546875</LatitudeDegrees>
              <LongitudeDegrees>-4.39117471687495708465576171875</LongitudeDegrees>
            </Position>
            <AltitudeMeters>713.4000244140625</AltitudeMeters>
            <DistanceMeters>NAN</DistanceMeters>
          </Trackpoint>
          <Trackpoint>
            <Time>2022-06-16T07:39:10.000Z</Time>
            <Position>
              <LatitudeDegrees>36.8058248050510883331298828125</LatitudeDegrees>
              <LongitudeDegrees>-4.391103722155094146728515625</LongitudeDegrees>
            </Position>
            <AltitudeMeters>713.4000244140625</AltitudeMeters>
            <DistanceMeters>NAN</DistanceMeters>
          </Trackpoint>
          <Trackpoint>
            <Time>2022-06-16T07:39:20.000Z</Time>
            <Position>
              <LatitudeDegrees>36.80584408342838287353515625</LatitudeDegrees>
              <LongitudeDegrees>-4.39104781486093997955322265625</LongitudeDegrees>
            </Position>
            <AltitudeMeters>714.4000244140625</AltitudeMeters>
            <DistanceMeters>NAN</DistanceMeters>
          </Trackpoint>
          <Trackpoint>
            <Time>2022-06-16T07:39:30.000Z</Time>
            <Position>
              <LatitudeDegrees>36.805833689868450164794921875</LatitudeDegrees>
              <LongitudeDegrees>-4.39095343463122844696044921875</LongitudeDegrees>
            </Position>
            <AltitudeMeters>714.4000244140625</AltitudeMeters>
            <DistanceMeters>NAN</DistanceMeters>
          </Trackpoint>
          <Trackpoint>
            <Time>2022-06-16T07:39:40.000Z</Time>
            <Position>
              <LatitudeDegrees>36.8058305047452449798583984375</LatitudeDegrees>
              <LongitudeDegrees>-4.39085352234542369842529296875</LongitudeDegrees>
            </Position>
            <AltitudeMeters>714.79998779296875</AltitudeMeters>
            <DistanceMeters>NAN</DistanceMeters>
          </Trackpoint>
          <Trackpoint>
            <Time>2022-06-16T07:39:50.000Z</Time>
            <Position>
              <LatitudeDegrees>36.805809549987316131591796875</LatitudeDegrees>
              <LongitudeDegrees>-4.3907679431140422821044921875</LongitudeDegrees>
            </Position>
            <AltitudeMeters>714.79998779296875</AltitudeMeters>
            <DistanceMeters>NAN</DistanceMeters>
          </Trackpoint>
          <Trackpoint>
            <Time>2022-06-16T07:40:00.000Z</Time>
            <Position>
              <LatitudeDegrees>36.80581013672053813934326171875</LatitudeDegrees>
              <LongitudeDegrees>-4.3906448967754840850830078125</LongitudeDegrees>
            </Position>
            <AltitudeMeters>715.5999755859375</AltitudeMeters>
            <DistanceMeters>NAN</DistanceMeters>
          </Trackpoint>
          <Trackpoint>
            <Time>2022-06-16T07:40:10.000Z</Time>
            <Position>
              <LatitudeDegrees>36.8058003298938274383544921875</LatitudeDegrees>
              <LongitudeDegrees>-4.39053702168166637420654296875</LongitudeDegrees>
            </Position>
            <AltitudeMeters>716</AltitudeMeters>
            <DistanceMeters>NAN</DistanceMeters>
          </Trackpoint>
          <Trackpoint>
            <Time>2022-06-16T07:40:20.000Z</Time>
            <Position>
              <LatitudeDegrees>36.8057792074978351593017578125</LatitudeDegrees>
              <LongitudeDegrees>-4.3904273025691509246826171875</LongitudeDegrees>
            </Position>
            <AltitudeMeters>716.20001220703125</AltitudeMeters>
            <DistanceMeters>NAN</DistanceMeters>
          </Trackpoint>
          <Trackpoint>
            <Time>2022-06-16T07:40:26.000Z</Time>
            <Position>
              <LatitudeDegrees>36.8057765252888202667236328125</LatitudeDegrees>
              <LongitudeDegrees>-4.39036049880087375640869140625</LongitudeDegrees>
            </Position>
            <AltitudeMeters>716.4000244140625</AltitudeMeters>
            <DistanceMeters>NAN</DistanceMeters>
          </Trackpoint>
          <Trackpoint>
            <Time>2022-06-16T07:40:27.000Z</Time>
            <Position>
              <LatitudeDegrees>36.8057765252888202667236328125</LatitudeDegrees>
              <LongitudeDegrees>-4.39036049880087375640869140625</LongitudeDegrees>
            </Position>
            <AltitudeMeters>716.4000244140625</AltitudeMeters>
            <DistanceMeters>NAN</DistanceMeters>
          </Trackpoint>
          <Trackpoint>
            <Time>2022-06-16T07:40:30.000Z</Time>
            <Position>
              <LatitudeDegrees>36.80578381754457950592041015625</LatitudeDegrees>
              <LongitudeDegrees>-4.39031138084828853607177734375</LongitudeDegrees>
            </Position>
            <AltitudeMeters>716.5999755859375</AltitudeMeters>
            <DistanceMeters>NAN</DistanceMeters>
          </Trackpoint>
          <Trackpoint>
            <Time>2022-06-16T07:40:34.000Z</Time>
            <Position>
              <LatitudeDegrees>36.80579245090484619140625</LatitudeDegrees>
              <LongitudeDegrees>-4.39025119878351688385009765625</LongitudeDegrees>
            </Position>
            <AltitudeMeters>717</AltitudeMeters>
            <DistanceMeters>NAN</DistanceMeters>
          </Trackpoint>
          <Trackpoint>
            <Time>2022-06-16T07:40:36.000Z</Time>
            <Position>
              <LatitudeDegrees>36.80579404346644878387451171875</LatitudeDegrees>
              <LongitudeDegrees>-4.3902358599007129669189453125</LongitudeDegrees>
            </Position>
            <AltitudeMeters>717</AltitudeMeters>
            <DistanceMeters>NAN</DistanceMeters>
          </Trackpoint>
          <Trackpoint>
            <Time>2022-06-16T07:40:37.000Z</Time>
            <Position>
              <LatitudeDegrees>36.8057969771325588226318359375</LatitudeDegrees>
              <LongitudeDegrees>-4.3902201019227504730224609375</LongitudeDegrees>
            </Position>
            <AltitudeMeters>717.20001220703125</AltitudeMeters>
            <DistanceMeters>NAN</DistanceMeters>
          </Trackpoint>
          <Trackpoint>
            <Time>2022-06-16T07:40:38.000Z</Time>
            <Position>
              <LatitudeDegrees>36.80580125190317630767822265625</LatitudeDegrees>
              <LongitudeDegrees>-4.3902070261538028717041015625</LongitudeDegrees>
            </Position>
            <AltitudeMeters>717.4000244140625</AltitudeMeters>
            <DistanceMeters>NAN</DistanceMeters>
          </Trackpoint>
          <Trackpoint>
            <Time>2022-06-16T07:40:40.000Z</Time>
            <Position>
              <LatitudeDegrees>36.80580762214958667755126953125</LatitudeDegrees>
              <LongitudeDegrees>-4.39018649049103260040283203125</LongitudeDegrees>
            </Position>
            <AltitudeMeters>717.5999755859375</AltitudeMeters>
            <DistanceMeters>NAN</DistanceMeters>
          </Trackpoint>
          <Trackpoint>
            <Time>2022-06-16T07:40:44.000Z</Time>
            <Position>
              <LatitudeDegrees>36.80581851862370967864990234375</LatitudeDegrees>
              <LongitudeDegrees>-4.39017676748335361480712890625</LongitudeDegrees>
            </Position>
            <AltitudeMeters>718</AltitudeMeters>
            <DistanceMeters>NAN</DistanceMeters>
          </Trackpoint>
          <Trackpoint>
            <Time>2022-06-16T07:40:47.000Z</Time>
            <Position>
              <LatitudeDegrees>36.805820949375629425048828125</LatitudeDegrees>
              <LongitudeDegrees>-4.390167631208896636962890625</LongitudeDegrees>
            </Position>
            <AltitudeMeters>718.20001220703125</AltitudeMeters>
            <DistanceMeters>NAN</DistanceMeters>
          </Trackpoint>
          <Trackpoint>
            <Time>2022-06-16T07:40:50.000Z</Time>
            <Position>
              <LatitudeDegrees>36.805824972689151763916015625</LatitudeDegrees>
              <LongitudeDegrees>-4.39016033895313739776611328125</LongitudeDegrees>
            </Position>
            <AltitudeMeters>718.4000244140625</AltitudeMeters>
            <DistanceMeters>NAN</DistanceMeters>
          </Trackpoint>
          <Trackpoint>
            <Time>2022-06-16T07:41:00.000Z</Time>
            <Position>
              <LatitudeDegrees>36.8058264814317226409912109375</LatitudeDegrees>
              <LongitudeDegrees>-4.3901510350406169891357421875</LongitudeDegrees>
            </Position>
            <AltitudeMeters>718.4000244140625</AltitudeMeters>
            <DistanceMeters>NAN</DistanceMeters>
          </Trackpoint>
          <Trackpoint>
            <Time>2022-06-16T07:41:10.000Z</Time>
            <Position>
              <LatitudeDegrees>36.80580980144441127777099609375</LatitudeDegrees>
              <LongitudeDegrees>-4.39003410749137401580810546875</LongitudeDegrees>
            </Position>
            <AltitudeMeters>717.5999755859375</AltitudeMeters>
            <DistanceMeters>NAN</DistanceMeters>
          </Trackpoint>
          <Trackpoint>
            <Time>2022-06-16T07:41:15.000Z</Time>
            <Position>
              <LatitudeDegrees>36.8058117292821407318115234375</LatitudeDegrees>
              <LongitudeDegrees>-4.38996587879955768585205078125</LongitudeDegrees>
            </Position>
            <AltitudeMeters>717.4000244140625</AltitudeMeters>
            <DistanceMeters>NAN</DistanceMeters>
          </Trackpoint>
          <Trackpoint>
            <Time>2022-06-16T07:41:18.000Z</Time>
            <Position>
              <LatitudeDegrees>36.8058194406330585479736328125</LatitudeDegrees>
              <LongitudeDegrees>-4.38993251882493495941162109375</LongitudeDegrees>
            </Position>
            <AltitudeMeters>718</AltitudeMeters>
            <DistanceMeters>NAN</DistanceMeters>
          </Trackpoint>
          <Trackpoint>
            <Time>2022-06-16T07:41:20.000Z</Time>
            <Position>
              <LatitudeDegrees>36.8058231286704540252685546875</LatitudeDegrees>
              <LongitudeDegrees>-4.3899096362292766571044921875</LongitudeDegrees>
            </Position>
            <AltitudeMeters>718.4000244140625</AltitudeMeters>
            <DistanceMeters>NAN</DistanceMeters>
          </Trackpoint>
          <Trackpoint>
            <Time>2022-06-16T07:41:23.000Z</Time>
            <Position>
              <LatitudeDegrees>36.80583343841135501861572265625</LatitudeDegrees>
              <LongitudeDegrees>-4.389865212142467498779296875</LongitudeDegrees>
            </Position>
            <AltitudeMeters>719</AltitudeMeters>
            <DistanceMeters>NAN</DistanceMeters>
          </Trackpoint>
          <Trackpoint>
            <Time>2022-06-16T07:41:28.000Z</Time>
            <Position>
              <LatitudeDegrees>36.80584584362804889678955078125</LatitudeDegrees>
              <LongitudeDegrees>-4.3898305110633373260498046875</LongitudeDegrees>
            </Position>
            <AltitudeMeters>719.79998779296875</AltitudeMeters>
            <DistanceMeters>NAN</DistanceMeters>
          </Trackpoint>
          <Trackpoint>
            <Time>2022-06-16T07:41:30.000Z</Time>
            <Position>
              <LatitudeDegrees>36.8058516271412372589111328125</LatitudeDegrees>
              <LongitudeDegrees>-4.389822967350482940673828125</LongitudeDegrees>
            </Position>
            <AltitudeMeters>720.20001220703125</AltitudeMeters>
            <DistanceMeters>NAN</DistanceMeters>
          </Trackpoint>
          <Trackpoint>
            <Time>2022-06-16T07:41:40.000Z</Time>
            <Position>
              <LatitudeDegrees>36.80585405789315700531005859375</LatitudeDegrees>
              <LongitudeDegrees>-4.389731101691722869873046875</LongitudeDegrees>
            </Position>
            <AltitudeMeters>720.5999755859375</AltitudeMeters>
            <DistanceMeters>NAN</DistanceMeters>
          </Trackpoint>
          <Trackpoint>
            <Time>2022-06-16T07:41:46.000Z</Time>
            <Position>
              <LatitudeDegrees>36.80586528964340686798095703125</LatitudeDegrees>
              <LongitudeDegrees>-4.38967050053179264068603515625</LongitudeDegrees>
            </Position>
            <AltitudeMeters>721.20001220703125</AltitudeMeters>
            <DistanceMeters>NAN</DistanceMeters>
          </Trackpoint>
          <Trackpoint>
            <Time>2022-06-16T07:41:50.000Z</Time>
            <Position>
              <LatitudeDegrees>36.80586596019566059112548828125</LatitudeDegrees>
              <LongitudeDegrees>-4.38961601816117763519287109375</LongitudeDegrees>
            </Position>
            <AltitudeMeters>721.79998779296875</AltitudeMeters>
            <DistanceMeters>NAN</DistanceMeters>
          </Trackpoint>
          <Trackpoint>
            <Time>2022-06-16T07:41:53.000Z</Time>
            <Position>
              <LatitudeDegrees>36.8058673851191997528076171875</LatitudeDegrees>
              <LongitudeDegrees>-4.3895892798900604248046875</LongitudeDegrees>
            </Position>
            <AltitudeMeters>722</AltitudeMeters>
            <DistanceMeters>NAN</DistanceMeters>
          </Trackpoint>
          <Trackpoint>
            <Time>2022-06-16T07:41:54.000Z</Time>
            <Position>
              <LatitudeDegrees>36.80586646310985088348388671875</LatitudeDegrees>
              <LongitudeDegrees>-4.3895777128636837005615234375</LongitudeDegrees>
            </Position>
            <AltitudeMeters>722</AltitudeMeters>
            <DistanceMeters>NAN</DistanceMeters>
          </Trackpoint>
          <Trackpoint>
            <Time>2022-06-16T07:42:00.000Z</Time>
            <Position>
              <LatitudeDegrees>36.80587803013622760772705078125</LatitudeDegrees>
              <LongitudeDegrees>-4.389513172209262847900390625</LongitudeDegrees>
            </Position>
            <AltitudeMeters>723.20001220703125</AltitudeMeters>
            <DistanceMeters>NAN</DistanceMeters>
          </Trackpoint>
          <Trackpoint>
            <Time>2022-06-16T07:42:10.000Z</Time>
            <Position>
              <LatitudeDegrees>36.80591356940567493438720703125</LatitudeDegrees>
              <LongitudeDegrees>-4.38940823078155517578125</LongitudeDegrees>
            </Position>
            <AltitudeMeters>725.79998779296875</AltitudeMeters>
            <DistanceMeters>NAN</DistanceMeters>
          </Trackpoint>
          <Trackpoint>
            <Time>2022-06-16T07:42:20.000Z</Time>
            <Position>
              <LatitudeDegrees>36.80591926909983158111572265625</LatitudeDegrees>
              <LongitudeDegrees>-4.389326758682727813720703125</LongitudeDegrees>
            </Position>
            <AltitudeMeters>726.5999755859375</AltitudeMeters>
            <DistanceMeters>NAN</DistanceMeters>
          </Trackpoint>
          <Trackpoint>
            <Time>2022-06-16T07:42:29.000Z</Time>
            <Position>
              <LatitudeDegrees>36.80592111311852931976318359375</LatitudeDegrees>
              <LongitudeDegrees>-4.38925744034349918365478515625</LongitudeDegrees>
            </Position>
            <AltitudeMeters>727.20001220703125</AltitudeMeters>
            <DistanceMeters>NAN</DistanceMeters>
          </Trackpoint>
          <Trackpoint>
            <Time>2022-06-16T07:42:30.000Z</Time>
            <Position>
              <LatitudeDegrees>36.80592128075659275054931640625</LatitudeDegrees>
              <LongitudeDegrees>-4.38924729824066162109375</LongitudeDegrees>
            </Position>
            <AltitudeMeters>727.4000244140625</AltitudeMeters>
            <DistanceMeters>NAN</DistanceMeters>
          </Trackpoint>
          <Trackpoint>
            <Time>2022-06-16T07:42:32.000Z</Time>
            <Position>
              <LatitudeDegrees>36.80591960437595844268798828125</LatitudeDegrees>
              <LongitudeDegrees>-4.389228187501430511474609375</LongitudeDegrees>
            </Position>
            <AltitudeMeters>727.4000244140625</AltitudeMeters>
            <DistanceMeters>NAN</DistanceMeters>
          </Trackpoint>
          <Trackpoint>
            <Time>2022-06-16T07:42:33.000Z</Time>
            <Position>
              <LatitudeDegrees>36.8059173412621021270751953125</LatitudeDegrees>
              <LongitudeDegrees>-4.38921938650310039520263671875</LongitudeDegrees>
            </Position>
            <AltitudeMeters>727.4000244140625</AltitudeMeters>
            <DistanceMeters>NAN</DistanceMeters>
          </Trackpoint>
          <Trackpoint>
            <Time>2022-06-16T07:42:34.000Z</Time>
            <Position>
              <LatitudeDegrees>36.8059170059859752655029296875</LatitudeDegrees>
              <LongitudeDegrees>-4.3892092444002628326416015625</LongitudeDegrees>
            </Position>
            <AltitudeMeters>727.4000244140625</AltitudeMeters>
            <DistanceMeters>NAN</DistanceMeters>
          </Trackpoint>
          <Trackpoint>
            <Time>2022-06-16T07:42:40.000Z</Time>
            <Position>
              <LatitudeDegrees>36.8059099651873111724853515625</LatitudeDegrees>
              <LongitudeDegrees>-4.38916121609508991241455078125</LongitudeDegrees>
            </Position>
            <AltitudeMeters>727.4000244140625</AltitudeMeters>
            <DistanceMeters>NAN</DistanceMeters>
          </Trackpoint>
          <Trackpoint>
            <Time>2022-06-16T07:42:50.000Z</Time>
            <Position>
              <LatitudeDegrees>36.805928237736225128173828125</LatitudeDegrees>
              <LongitudeDegrees>-4.3890972621738910675048828125</LongitudeDegrees>
            </Position>
            <AltitudeMeters>728.4000244140625</AltitudeMeters>
            <DistanceMeters>NAN</DistanceMeters>
          </Trackpoint>
          <Trackpoint>
            <Time>2022-06-16T07:43:00.000Z</Time>
            <Position>
              <LatitudeDegrees>36.80597090162336826324462890625</LatitudeDegrees>
              <LongitudeDegrees>-4.3890273571014404296875</LongitudeDegrees>
            </Position>
            <AltitudeMeters>730</AltitudeMeters>
            <DistanceMeters>NAN</DistanceMeters>
          </Trackpoint>
          <Trackpoint>
            <Time>2022-06-16T07:43:10.000Z</Time>
            <Position>
              <LatitudeDegrees>36.80602119304239749908447265625</LatitudeDegrees>
              <LongitudeDegrees>-4.38896189443767070770263671875</LongitudeDegrees>
            </Position>
            <AltitudeMeters>732.20001220703125</AltitudeMeters>
            <DistanceMeters>NAN</DistanceMeters>
          </Trackpoint>
          <Trackpoint>
            <Time>2022-06-16T07:43:16.000Z</Time>
            <Position>
              <LatitudeDegrees>36.80604659020900726318359375</LatitudeDegrees>
              <LongitudeDegrees>-4.38893012702465057373046875</LongitudeDegrees>
            </Position>
            <AltitudeMeters>733.20001220703125</AltitudeMeters>
            <DistanceMeters>NAN</DistanceMeters>
          </Trackpoint>
          <Trackpoint>
            <Time>2022-06-16T07:43:20.000Z</Time>
            <Position>
              <LatitudeDegrees>36.806054301559925079345703125</LatitudeDegrees>
              <LongitudeDegrees>-4.3889014609158039093017578125</LongitudeDegrees>
            </Position>
            <AltitudeMeters>733.5999755859375</AltitudeMeters>
            <DistanceMeters>NAN</DistanceMeters>
          </Trackpoint>
          <Trackpoint>
            <Time>2022-06-16T07:43:30.000Z</Time>
            <Position>
              <LatitudeDegrees>36.806107275187969207763671875</LatitudeDegrees>
              <LongitudeDegrees>-4.38883884809911251068115234375</LongitudeDegrees>
            </Position>
            <AltitudeMeters>736</AltitudeMeters>
            <DistanceMeters>NAN</DistanceMeters>
          </Trackpoint>
          <Trackpoint>
            <Time>2022-06-16T07:43:34.000Z</Time>
            <Position>
              <LatitudeDegrees>36.80612194351851940155029296875</LatitudeDegrees>
              <LongitudeDegrees>-4.38882593996822834014892578125</LongitudeDegrees>
            </Position>
            <AltitudeMeters>736.5999755859375</AltitudeMeters>
            <DistanceMeters>NAN</DistanceMeters>
          </Trackpoint>
          <Trackpoint>
            <Time>2022-06-16T07:43:40.000Z</Time>
            <Position>
              <LatitudeDegrees>36.8061612546443939208984375</LatitudeDegrees>
              <LongitudeDegrees>-4.38878503628075122833251953125</LongitudeDegrees>
            </Position>
            <AltitudeMeters>738.5999755859375</AltitudeMeters>
            <DistanceMeters>NAN</DistanceMeters>
          </Trackpoint>
          <Trackpoint>
            <Time>2022-06-16T07:43:50.000Z</Time>
            <Position>
              <LatitudeDegrees>36.80620710365474224090576171875</LatitudeDegrees>
              <LongitudeDegrees>-4.38873524777591228485107421875</LongitudeDegrees>
            </Position>
            <AltitudeMeters>740.79998779296875</AltitudeMeters>
            <DistanceMeters>NAN</DistanceMeters>
          </Trackpoint>
          <Trackpoint>
            <Time>2022-06-16T07:44:00.000Z</Time>
            <Position>
              <LatitudeDegrees>36.8062395416200160980224609375</LatitudeDegrees>
              <LongitudeDegrees>-4.38867204822599887847900390625</LongitudeDegrees>
            </Position>
            <AltitudeMeters>742.20001220703125</AltitudeMeters>
            <DistanceMeters>NAN</DistanceMeters>
          </Trackpoint>
          <Trackpoint>
            <Time>2022-06-16T07:44:10.000Z</Time>
            <Position>
              <LatitudeDegrees>36.8062750808894634246826171875</LatitudeDegrees>
              <LongitudeDegrees>-4.38859946094453334808349609375</LongitudeDegrees>
            </Position>
            <AltitudeMeters>743.79998779296875</AltitudeMeters>
            <DistanceMeters>NAN</DistanceMeters>
          </Trackpoint>
          <Trackpoint>
            <Time>2022-06-16T07:44:14.000Z</Time>
            <Position>
              <LatitudeDegrees>36.80629410780966281890869140625</LatitudeDegrees>
              <LongitudeDegrees>-4.38856073655188083648681640625</LongitudeDegrees>
            </Position>
            <AltitudeMeters>744.79998779296875</AltitudeMeters>
            <DistanceMeters>NAN</DistanceMeters>
          </Trackpoint>
          <Trackpoint>
            <Time>2022-06-16T07:44:19.000Z</Time>
            <Position>
              <LatitudeDegrees>36.8063210137188434600830078125</LatitudeDegrees>
              <LongitudeDegrees>-4.38852486200630664825439453125</LongitudeDegrees>
            </Position>
            <AltitudeMeters>746.20001220703125</AltitudeMeters>
            <DistanceMeters>NAN</DistanceMeters>
          </Trackpoint>
          <Trackpoint>
            <Time>2022-06-16T07:44:20.000Z</Time>
            <Position>
              <LatitudeDegrees>36.80632553994655609130859375</LatitudeDegrees>
              <LongitudeDegrees>-4.3885168991982936859130859375</LongitudeDegrees>
            </Position>
            <AltitudeMeters>746.5999755859375</AltitudeMeters>
            <DistanceMeters>NAN</DistanceMeters>
          </Trackpoint>
          <Trackpoint>
            <Time>2022-06-16T07:44:30.000Z</Time>
            <Position>
              <LatitudeDegrees>36.80635294876992702484130859375</LatitudeDegrees>
              <LongitudeDegrees>-4.38843928277492523193359375</LongitudeDegrees>
            </Position>
            <AltitudeMeters>748.5999755859375</AltitudeMeters>
            <DistanceMeters>NAN</DistanceMeters>
          </Trackpoint>
          <Trackpoint>
            <Time>2022-06-16T07:44:40.000Z</Time>
            <Position>
              <LatitudeDegrees>36.806392930448055267333984375</LatitudeDegrees>
              <LongitudeDegrees>-4.388364516198635101318359375</LongitudeDegrees>
            </Position>
            <AltitudeMeters>751.4000244140625</AltitudeMeters>
            <DistanceMeters>NAN</DistanceMeters>
          </Trackpoint>
          <Trackpoint>
            <Time>2022-06-16T07:44:50.000Z</Time>
            <Position>
              <LatitudeDegrees>36.80644297040998935699462890625</LatitudeDegrees>
              <LongitudeDegrees>-4.38828329555690288543701171875</LongitudeDegrees>
            </Position>
            <AltitudeMeters>754.4000244140625</AltitudeMeters>
            <DistanceMeters>NAN</DistanceMeters>
          </Trackpoint>
          <Trackpoint>
            <Time>2022-06-16T07:45:00.000Z</Time>
            <Position>
              <LatitudeDegrees>36.806470043957233428955078125</LatitudeDegrees>
              <LongitudeDegrees>-4.38823719508945941925048828125</LongitudeDegrees>
            </Position>
            <AltitudeMeters>755.79998779296875</AltitudeMeters>
            <DistanceMeters>NAN</DistanceMeters>
          </Trackpoint>
          <Trackpoint>
            <Time>2022-06-16T07:45:10.000Z</Time>
            <Position>
              <LatitudeDegrees>36.806488148868083953857421875</LatitudeDegrees>
              <LongitudeDegrees>-4.38820819370448589324951171875</LongitudeDegrees>
            </Position>
            <AltitudeMeters>756.4000244140625</AltitudeMeters>
            <DistanceMeters>NAN</DistanceMeters>
          </Trackpoint>
          <Trackpoint>
            <Time>2022-06-16T07:45:19.000Z</Time>
            <Position>
              <LatitudeDegrees>36.806464008986949920654296875</LatitudeDegrees>
              <LongitudeDegrees>-4.3881739117205142974853515625</LongitudeDegrees>
            </Position>
            <AltitudeMeters>756.5999755859375</AltitudeMeters>
            <DistanceMeters>NAN</DistanceMeters>
          </Trackpoint>
          <Trackpoint>
            <Time>2022-06-16T07:45:20.000Z</Time>
            <Position>
              <LatitudeDegrees>36.8064631707966327667236328125</LatitudeDegrees>
              <LongitudeDegrees>-4.388166703283786773681640625</LongitudeDegrees>
            </Position>
            <AltitudeMeters>756.5999755859375</AltitudeMeters>
            <DistanceMeters>NAN</DistanceMeters>
          </Trackpoint>
          <Trackpoint>
            <Time>2022-06-16T07:45:24.000Z</Time>
            <Position>
              <LatitudeDegrees>36.80646057240664958953857421875</LatitudeDegrees>
              <LongitudeDegrees>-4.38812269829213619232177734375</LongitudeDegrees>
            </Position>
            <AltitudeMeters>757.20001220703125</AltitudeMeters>
            <DistanceMeters>NAN</DistanceMeters>
          </Trackpoint>
          <Trackpoint>
            <Time>2022-06-16T07:45:30.000Z</Time>
            <Position>
              <LatitudeDegrees>36.80647079832851886749267578125</LatitudeDegrees>
              <LongitudeDegrees>-4.388067461550235748291015625</LongitudeDegrees>
            </Position>
            <AltitudeMeters>758.20001220703125</AltitudeMeters>
            <DistanceMeters>NAN</DistanceMeters>
          </Trackpoint>
          <Trackpoint>
            <Time>2022-06-16T07:45:37.000Z</Time>
            <Position>
              <LatitudeDegrees>36.806466691195964813232421875</LatitudeDegrees>
              <LongitudeDegrees>-4.3880035914480686187744140625</LongitudeDegrees>
            </Position>
            <AltitudeMeters>758.79998779296875</AltitudeMeters>
            <DistanceMeters>NAN</DistanceMeters>
          </Trackpoint>
          <Trackpoint>
            <Time>2022-06-16T07:45:40.000Z</Time>
            <Position>
              <LatitudeDegrees>36.80645923130214214324951171875</LatitudeDegrees>
              <LongitudeDegrees>-4.38798624090850353240966796875</LongitudeDegrees>
            </Position>
            <AltitudeMeters>758.4000244140625</AltitudeMeters>
            <DistanceMeters>NAN</DistanceMeters>
          </Trackpoint>
          <Trackpoint>
            <Time>2022-06-16T07:45:50.000Z</Time>
            <Position>
              <LatitudeDegrees>36.8064537830650806427001953125</LatitudeDegrees>
              <LongitudeDegrees>-4.3879217840731143951416015625</LongitudeDegrees>
            </Position>
            <AltitudeMeters>758.20001220703125</AltitudeMeters>
            <DistanceMeters>NAN</DistanceMeters>
          </Trackpoint>
          <Trackpoint>
            <Time>2022-06-16T07:46:00.000Z</Time>
            <Position>
              <LatitudeDegrees>36.80640340782701969146728515625</LatitudeDegrees>
              <LongitudeDegrees>-4.38785581849515438079833984375</LongitudeDegrees>
            </Position>
            <AltitudeMeters>756.4000244140625</AltitudeMeters>
            <DistanceMeters>NAN</DistanceMeters>
          </Trackpoint>
          <Trackpoint>
            <Time>2022-06-16T07:46:10.000Z</Time>
            <Position>
              <LatitudeDegrees>36.806368120014667510986328125</LatitudeDegrees>
              <LongitudeDegrees>-4.38779890537261962890625</LongitudeDegrees>
            </Position>
            <AltitudeMeters>755.5999755859375</AltitudeMeters>
            <DistanceMeters>NAN</DistanceMeters>
          </Trackpoint>
          <Trackpoint>
            <Time>2022-06-16T07:46:20.000Z</Time>
            <Position>
              <LatitudeDegrees>36.80631347000598907470703125</LatitudeDegrees>
              <LongitudeDegrees>-4.3877243064343929290771484375</LongitudeDegrees>
            </Position>
            <AltitudeMeters>754.20001220703125</AltitudeMeters>
            <DistanceMeters>NAN</DistanceMeters>
          </Trackpoint>
          <Trackpoint>
            <Time>2022-06-16T07:46:30.000Z</Time>
            <Position>
              <LatitudeDegrees>36.80626007728278636932373046875</LatitudeDegrees>
              <LongitudeDegrees>-4.387613497674465179443359375</LongitudeDegrees>
            </Position>
            <AltitudeMeters>752.20001220703125</AltitudeMeters>
            <DistanceMeters>NAN</DistanceMeters>
          </Trackpoint>
          <Trackpoint>
            <Time>2022-06-16T07:46:39.000Z</Time>
            <Position>
              <LatitudeDegrees>36.8062174133956432342529296875</LatitudeDegrees>
              <LongitudeDegrees>-4.3875033594667911529541015625</LongitudeDegrees>
            </Position>
            <AltitudeMeters>751.4000244140625</AltitudeMeters>
            <DistanceMeters>NAN</DistanceMeters>
          </Trackpoint>
          <Trackpoint>
            <Time>2022-06-16T07:46:40.000Z</Time>
            <Position>
              <LatitudeDegrees>36.80621246807277202606201171875</LatitudeDegrees>
              <LongitudeDegrees>-4.38747796230018138885498046875</LongitudeDegrees>
            </Position>
            <AltitudeMeters>751.20001220703125</AltitudeMeters>
            <DistanceMeters>NAN</DistanceMeters>
          </Trackpoint>
          <Trackpoint>
            <Time>2022-06-16T07:46:46.000Z</Time>
            <Position>
              <LatitudeDegrees>36.80619821883738040924072265625</LatitudeDegrees>
              <LongitudeDegrees>-4.38742917962372303009033203125</LongitudeDegrees>
            </Position>
            <AltitudeMeters>750.5999755859375</AltitudeMeters>
            <DistanceMeters>NAN</DistanceMeters>
          </Trackpoint>
          <Trackpoint>
            <Time>2022-06-16T07:46:50.000Z</Time>
            <Position>
              <LatitudeDegrees>36.80618732236325740814208984375</LatitudeDegrees>
              <LongitudeDegrees>-4.387405626475811004638671875</LongitudeDegrees>
            </Position>
            <AltitudeMeters>749.79998779296875</AltitudeMeters>
            <DistanceMeters>NAN</DistanceMeters>
          </Trackpoint>
          <Trackpoint>
            <Time>2022-06-16T07:46:55.000Z</Time>
            <Position>
              <LatitudeDegrees>36.80617307312786579132080078125</LatitudeDegrees>
              <LongitudeDegrees>-4.38739783130586147308349609375</LongitudeDegrees>
            </Position>
            <AltitudeMeters>749</AltitudeMeters>
            <DistanceMeters>NAN</DistanceMeters>
          </Trackpoint>
          <Trackpoint>
            <Time>2022-06-16T07:47:00.000Z</Time>
            <Position>
              <LatitudeDegrees>36.80616301484405994415283203125</LatitudeDegrees>
              <LongitudeDegrees>-4.3873769603669643402099609375</LongitudeDegrees>
            </Position>
            <AltitudeMeters>748.20001220703125</AltitudeMeters>
            <DistanceMeters>NAN</DistanceMeters>
          </Trackpoint>
          <Trackpoint>
            <Time>2022-06-16T07:47:10.000Z</Time>
            <Position>
              <LatitudeDegrees>36.80616997182369232177734375</LatitudeDegrees>
              <LongitudeDegrees>-4.38735877163708209991455078125</LongitudeDegrees>
            </Position>
            <AltitudeMeters>748.4000244140625</AltitudeMeters>
            <DistanceMeters>NAN</DistanceMeters>
          </Trackpoint>
          <Trackpoint>
            <Time>2022-06-16T07:47:14.000Z</Time>
            <Position>
              <LatitudeDegrees>36.8061560578644275665283203125</LatitudeDegrees>
              <LongitudeDegrees>-4.38733957707881927490234375</LongitudeDegrees>
            </Position>
            <AltitudeMeters>747.20001220703125</AltitudeMeters>
            <DistanceMeters>NAN</DistanceMeters>
          </Trackpoint>
          <Trackpoint>
            <Time>2022-06-16T07:47:20.000Z</Time>
            <Position>
              <LatitudeDegrees>36.80614692158997058868408203125</LatitudeDegrees>
              <LongitudeDegrees>-4.38731535337865352630615234375</LongitudeDegrees>
            </Position>
            <AltitudeMeters>746.5999755859375</AltitudeMeters>
            <DistanceMeters>NAN</DistanceMeters>
          </Trackpoint>
          <Trackpoint>
            <Time>2022-06-16T07:47:24.000Z</Time>
            <Position>
              <LatitudeDegrees>36.80615480057895183563232421875</LatitudeDegrees>
              <LongitudeDegrees>-4.38729263842105865478515625</LongitudeDegrees>
            </Position>
            <AltitudeMeters>746.79998779296875</AltitudeMeters>
            <DistanceMeters>NAN</DistanceMeters>
          </Trackpoint>
          <Trackpoint>
            <Time>2022-06-16T07:47:30.000Z</Time>
            <Position>
              <LatitudeDegrees>36.80616058409214019775390625</LatitudeDegrees>
              <LongitudeDegrees>-4.38724963925778865814208984375</LongitudeDegrees>
            </Position>
            <AltitudeMeters>746.5999755859375</AltitudeMeters>
            <DistanceMeters>NAN</DistanceMeters>
          </Trackpoint>
          <Trackpoint>
            <Time>2022-06-16T07:47:33.000Z</Time>
            <Position>
              <LatitudeDegrees>36.80616586469113826751708984375</LatitudeDegrees>
              <LongitudeDegrees>-4.3872234039008617401123046875</LongitudeDegrees>
            </Position>
            <AltitudeMeters>746.5999755859375</AltitudeMeters>
            <DistanceMeters>NAN</DistanceMeters>
          </Trackpoint>
          <Trackpoint>
            <Time>2022-06-16T07:47:36.000Z</Time>
            <Position>
              <LatitudeDegrees>36.80617659352719783782958984375</LatitudeDegrees>
              <LongitudeDegrees>-4.38719348050653934478759765625</LongitudeDegrees>
            </Position>
            <AltitudeMeters>747</AltitudeMeters>
            <DistanceMeters>NAN</DistanceMeters>
          </Trackpoint>
          <Trackpoint>
            <Time>2022-06-16T07:47:38.000Z</Time>
            <Position>
              <LatitudeDegrees>36.80617743171751499176025390625</LatitudeDegrees>
              <LongitudeDegrees>-4.38717654906213283538818359375</LongitudeDegrees>
            </Position>
            <AltitudeMeters>747</AltitudeMeters>
            <DistanceMeters>NAN</DistanceMeters>
          </Trackpoint>
          <Trackpoint>
            <Time>2022-06-16T07:47:39.000Z</Time>
            <Position>
              <LatitudeDegrees>36.80617759935557842254638671875</LatitudeDegrees>
              <LongitudeDegrees>-4.3871672451496124267578125</LongitudeDegrees>
            </Position>
            <AltitudeMeters>746.79998779296875</AltitudeMeters>
            <DistanceMeters>NAN</DistanceMeters>
          </Trackpoint>
          <Trackpoint>
            <Time>2022-06-16T07:47:40.000Z</Time>
            <Position>
              <LatitudeDegrees>36.80618061684072017669677734375</LatitudeDegrees>
              <LongitudeDegrees>-4.3871573545038700103759765625</LongitudeDegrees>
            </Position>
            <AltitudeMeters>747</AltitudeMeters>
            <DistanceMeters>NAN</DistanceMeters>
          </Trackpoint>
          <Trackpoint>
            <Time>2022-06-16T07:47:41.000Z</Time>
            <Position>
              <LatitudeDegrees>36.80618480779230594635009765625</LatitudeDegrees>
              <LongitudeDegrees>-4.38714821822941303253173828125</LongitudeDegrees>
            </Position>
            <AltitudeMeters>747</AltitudeMeters>
            <DistanceMeters>NAN</DistanceMeters>
          </Trackpoint>
          <Trackpoint>
            <Time>2022-06-16T07:47:42.000Z</Time>
            <Position>
              <LatitudeDegrees>36.806185059249401092529296875</LatitudeDegrees>
              <LongitudeDegrees>-4.38713966868817806243896484375</LongitudeDegrees>
            </Position>
            <AltitudeMeters>747</AltitudeMeters>
            <DistanceMeters>NAN</DistanceMeters>
          </Trackpoint>
          <Trackpoint>
            <Time>2022-06-16T07:47:44.000Z</Time>
            <Position>
              <LatitudeDegrees>36.80618698708713054656982421875</LatitudeDegrees>
              <LongitudeDegrees>-4.387120641767978668212890625</LongitudeDegrees>
            </Position>
            <AltitudeMeters>746.79998779296875</AltitudeMeters>
            <DistanceMeters>NAN</DistanceMeters>
          </Trackpoint>
          <Trackpoint>
            <Time>2022-06-16T07:47:46.000Z</Time>
            <Position>
              <LatitudeDegrees>36.80618740618228912353515625</LatitudeDegrees>
              <LongitudeDegrees>-4.3871043808758258819580078125</LongitudeDegrees>
            </Position>
            <AltitudeMeters>746.5999755859375</AltitudeMeters>
            <DistanceMeters>NAN</DistanceMeters>
          </Trackpoint>
          <Trackpoint>
            <Time>2022-06-16T07:47:50.000Z</Time>
            <Position>
              <LatitudeDegrees>36.806191094219684600830078125</LatitudeDegrees>
              <LongitudeDegrees>-4.38705853186547756195068359375</LongitudeDegrees>
            </Position>
            <AltitudeMeters>746.4000244140625</AltitudeMeters>
            <DistanceMeters>NAN</DistanceMeters>
          </Trackpoint>
          <Trackpoint>
            <Time>2022-06-16T07:47:57.000Z</Time>
            <Position>
              <LatitudeDegrees>36.80618145503103733062744140625</LatitudeDegrees>
              <LongitudeDegrees>-4.38698141835629940032958984375</LongitudeDegrees>
            </Position>
            <AltitudeMeters>745</AltitudeMeters>
            <DistanceMeters>NAN</DistanceMeters>
          </Trackpoint>
          <Trackpoint>
            <Time>2022-06-16T07:48:00.000Z</Time>
            <Position>
              <LatitudeDegrees>36.806168295443058013916015625</LatitudeDegrees>
              <LongitudeDegrees>-4.386953003704547882080078125</LongitudeDegrees>
            </Position>
            <AltitudeMeters>744.20001220703125</AltitudeMeters>
            <DistanceMeters>NAN</DistanceMeters>
          </Trackpoint>
          <Trackpoint>
            <Time>2022-06-16T07:48:10.000Z</Time>
            <Position>
              <LatitudeDegrees>36.80614474229514598846435546875</LatitudeDegrees>
              <LongitudeDegrees>-4.38685535453259944915771484375</LongitudeDegrees>
            </Position>
            <AltitudeMeters>743</AltitudeMeters>
            <DistanceMeters>NAN</DistanceMeters>
          </Trackpoint>
          <Trackpoint>
            <Time>2022-06-16T07:48:20.000Z</Time>
            <Position>
              <LatitudeDegrees>36.80614021606743335723876953125</LatitudeDegrees>
              <LongitudeDegrees>-4.386766254901885986328125</LongitudeDegrees>
            </Position>
            <AltitudeMeters>742.4000244140625</AltitudeMeters>
            <DistanceMeters>NAN</DistanceMeters>
          </Trackpoint>
          <Trackpoint>
            <Time>2022-06-16T07:48:30.000Z</Time>
            <Position>
              <LatitudeDegrees>36.80607818998396396636962890625</LatitudeDegrees>
              <LongitudeDegrees>-4.386655949056148529052734375</LongitudeDegrees>
            </Position>
            <AltitudeMeters>740.5999755859375</AltitudeMeters>
            <DistanceMeters>NAN</DistanceMeters>
          </Trackpoint>
          <Trackpoint>
            <Time>2022-06-16T07:48:38.000Z</Time>
            <Position>
              <LatitudeDegrees>36.8060249648988246917724609375</LatitudeDegrees>
              <LongitudeDegrees>-4.38655863516032695770263671875</LongitudeDegrees>
            </Position>
            <AltitudeMeters>738.5999755859375</AltitudeMeters>
            <DistanceMeters>NAN</DistanceMeters>
          </Trackpoint>
          <Trackpoint>
            <Time>2022-06-16T07:48:40.000Z</Time>
            <Position>
              <LatitudeDegrees>36.806016750633716583251953125</LatitudeDegrees>
              <LongitudeDegrees>-4.3865293823182582855224609375</LongitudeDegrees>
            </Position>
            <AltitudeMeters>738.20001220703125</AltitudeMeters>
            <DistanceMeters>NAN</DistanceMeters>
          </Trackpoint>
          <Trackpoint>
            <Time>2022-06-16T07:48:50.000Z</Time>
            <Position>
              <LatitudeDegrees>36.80604449473321437835693359375</LatitudeDegrees>
              <LongitudeDegrees>-4.386452771723270416259765625</LongitudeDegrees>
            </Position>
            <AltitudeMeters>739.5999755859375</AltitudeMeters>
            <DistanceMeters>NAN</DistanceMeters>
          </Trackpoint>
          <Trackpoint>
            <Time>2022-06-16T07:48:58.000Z</Time>
            <Position>
              <LatitudeDegrees>36.80603921413421630859375</LatitudeDegrees>
              <LongitudeDegrees>-4.38636057078838348388671875</LongitudeDegrees>
            </Position>
            <AltitudeMeters>740.79998779296875</AltitudeMeters>
            <DistanceMeters>NAN</DistanceMeters>
          </Trackpoint>
          <Trackpoint>
            <Time>2022-06-16T07:48:59.000Z</Time>
            <Position>
              <LatitudeDegrees>36.806041561067104339599609375</LatitudeDegrees>
              <LongitudeDegrees>-4.386351518332958221435546875</LongitudeDegrees>
            </Position>
            <AltitudeMeters>740.79998779296875</AltitudeMeters>
            <DistanceMeters>NAN</DistanceMeters>
          </Trackpoint>
          <Trackpoint>
            <Time>2022-06-16T07:49:00.000Z</Time>
            <Position>
              <LatitudeDegrees>36.80604399181902408599853515625</LatitudeDegrees>
              <LongitudeDegrees>-4.38634221442043781280517578125</LongitudeDegrees>
            </Position>
            <AltitudeMeters>740.79998779296875</AltitudeMeters>
            <DistanceMeters>NAN</DistanceMeters>
          </Trackpoint>
          <Trackpoint>
            <Time>2022-06-16T07:49:05.000Z</Time>
            <Position>
              <LatitudeDegrees>36.80603510700166225433349609375</LatitudeDegrees>
              <LongitudeDegrees>-4.386331737041473388671875</LongitudeDegrees>
            </Position>
            <AltitudeMeters>740.5999755859375</AltitudeMeters>
            <DistanceMeters>NAN</DistanceMeters>
          </Trackpoint>
          <Trackpoint>
            <Time>2022-06-16T07:49:10.000Z</Time>
            <Position>
              <LatitudeDegrees>36.80603007785975933074951171875</LatitudeDegrees>
              <LongitudeDegrees>-4.38634338788688182830810546875</LongitudeDegrees>
            </Position>
            <AltitudeMeters>740.79998779296875</AltitudeMeters>
            <DistanceMeters>NAN</DistanceMeters>
          </Trackpoint>
          <Trackpoint>
            <Time>2022-06-16T07:49:17.000Z</Time>
            <Position>
              <LatitudeDegrees>36.80603611283004283905029296875</LatitudeDegrees>
              <LongitudeDegrees>-4.3863490037620067596435546875</LongitudeDegrees>
            </Position>
            <AltitudeMeters>740.79998779296875</AltitudeMeters>
            <DistanceMeters>NAN</DistanceMeters>
          </Trackpoint>
          <Trackpoint>
            <Time>2022-06-16T07:49:20.000Z</Time>
            <Position>
              <LatitudeDegrees>36.80603410117328166961669921875</LatitudeDegrees>
              <LongitudeDegrees>-4.38634003512561321258544921875</LongitudeDegrees>
            </Position>
            <AltitudeMeters>740.79998779296875</AltitudeMeters>
            <DistanceMeters>NAN</DistanceMeters>
          </Trackpoint>
          <Trackpoint>
            <Time>2022-06-16T07:49:30.000Z</Time>
            <Position>
              <LatitudeDegrees>36.806034184992313385009765625</LatitudeDegrees>
              <LongitudeDegrees>-4.38634053803980350494384765625</LongitudeDegrees>
            </Position>
            <AltitudeMeters>740.79998779296875</AltitudeMeters>
            <DistanceMeters>NAN</DistanceMeters>
          </Trackpoint>
          <Trackpoint>
            <Time>2022-06-16T07:49:40.000Z</Time>
            <Position>
              <LatitudeDegrees>36.80603577755391597747802734375</LatitudeDegrees>
              <LongitudeDegrees>-4.38635294325649738311767578125</LongitudeDegrees>
            </Position>
            <AltitudeMeters>740.79998779296875</AltitudeMeters>
            <DistanceMeters>NAN</DistanceMeters>
          </Trackpoint>
          <Trackpoint>
            <Time>2022-06-16T07:49:50.000Z</Time>
            <Position>
              <LatitudeDegrees>36.80603259243071079254150390625</LatitudeDegrees>
              <LongitudeDegrees>-4.38636065460741519927978515625</LongitudeDegrees>
            </Position>
            <AltitudeMeters>740.79998779296875</AltitudeMeters>
            <DistanceMeters>NAN</DistanceMeters>
          </Trackpoint>
          <Trackpoint>
            <Time>2022-06-16T07:50:00.000Z</Time>
            <Position>
              <LatitudeDegrees>36.80602672509849071502685546875</LatitudeDegrees>
              <LongitudeDegrees>-4.3863666057586669921875</LongitudeDegrees>
            </Position>
            <AltitudeMeters>740.5999755859375</AltitudeMeters>
            <DistanceMeters>NAN</DistanceMeters>
          </Trackpoint>
          <Trackpoint>
            <Time>2022-06-16T07:50:10.000Z</Time>
            <Position>
              <LatitudeDegrees>36.80602890439331531524658203125</LatitudeDegrees>
              <LongitudeDegrees>-4.386366270482540130615234375</LongitudeDegrees>
            </Position>
            <AltitudeMeters>740.5999755859375</AltitudeMeters>
            <DistanceMeters>NAN</DistanceMeters>
          </Trackpoint>
          <Trackpoint>
            <Time>2022-06-16T07:50:16.000Z</Time>
            <Position>
              <LatitudeDegrees>36.80602781474590301513671875</LatitudeDegrees>
              <LongitudeDegrees>-4.3863704614341259002685546875</LongitudeDegrees>
            </Position>
            <AltitudeMeters>740.5999755859375</AltitudeMeters>
            <DistanceMeters>NAN</DistanceMeters>
          </Trackpoint>
          <Trackpoint>
            <Time>2022-06-16T07:50:20.000Z</Time>
            <Position>
              <LatitudeDegrees>36.8060283176600933074951171875</LatitudeDegrees>
              <LongitudeDegrees>-4.3863687850534915924072265625</LongitudeDegrees>
            </Position>
            <AltitudeMeters>740.5999755859375</AltitudeMeters>
            <DistanceMeters>NAN</DistanceMeters>
          </Trackpoint>
          <Trackpoint>
            <Time>2022-06-16T07:50:30.000Z</Time>
            <Position>
              <LatitudeDegrees>36.8060356937348842620849609375</LatitudeDegrees>
              <LongitudeDegrees>-4.386370964348316192626953125</LongitudeDegrees>
            </Position>
            <AltitudeMeters>740.5999755859375</AltitudeMeters>
            <DistanceMeters>NAN</DistanceMeters>
          </Trackpoint>
          <Trackpoint>
            <Time>2022-06-16T07:50:40.000Z</Time>
            <Position>
              <LatitudeDegrees>36.8060330115258693695068359375</LatitudeDegrees>
              <LongitudeDegrees>-4.3863842077553272247314453125</LongitudeDegrees>
            </Position>
            <AltitudeMeters>740.4000244140625</AltitudeMeters>
            <DistanceMeters>NAN</DistanceMeters>
          </Trackpoint>
          <Trackpoint>
            <Time>2022-06-16T07:50:50.000Z</Time>
            <Position>
              <LatitudeDegrees>36.8060336820781230926513671875</LatitudeDegrees>
              <LongitudeDegrees>-4.38635780476033687591552734375</LongitudeDegrees>
            </Position>
            <AltitudeMeters>740.79998779296875</AltitudeMeters>
            <DistanceMeters>NAN</DistanceMeters>
          </Trackpoint>
          <Trackpoint>
            <Time>2022-06-16T07:50:52.000Z</Time>
            <Position>
              <LatitudeDegrees>36.80603695102035999298095703125</LatitudeDegrees>
              <LongitudeDegrees>-4.3863577209413051605224609375</LongitudeDegrees>
            </Position>
            <AltitudeMeters>740.79998779296875</AltitudeMeters>
            <DistanceMeters>NAN</DistanceMeters>
          </Trackpoint>
          <Trackpoint>
            <Time>2022-06-16T07:51:00.000Z</Time>
            <Position>
              <LatitudeDegrees>36.80603317916393280029296875</LatitudeDegrees>
              <LongitudeDegrees>-4.38634875230491161346435546875</LongitudeDegrees>
            </Position>
            <AltitudeMeters>740.79998779296875</AltitudeMeters>
            <DistanceMeters>NAN</DistanceMeters>
          </Trackpoint>
          <Trackpoint>
            <Time>2022-06-16T07:51:01.000Z</Time>
            <Position>
              <LatitudeDegrees>36.80603317916393280029296875</LatitudeDegrees>
              <LongitudeDegrees>-4.38634875230491161346435546875</LongitudeDegrees>
            </Position>
            <AltitudeMeters>740.79998779296875</AltitudeMeters>
            <DistanceMeters>NAN</DistanceMeters>
          </Trackpoint>
          <Trackpoint>
            <Time>2022-06-16T07:51:03.000Z</Time>
            <Position>
              <LatitudeDegrees>36.80603058077394962310791015625</LatitudeDegrees>
              <LongitudeDegrees>-4.38635478727519512176513671875</LongitudeDegrees>
            </Position>
            <AltitudeMeters>740.79998779296875</AltitudeMeters>
            <DistanceMeters>NAN</DistanceMeters>
          </Trackpoint>
          <Trackpoint>
            <Time>2022-06-16T07:51:08.000Z</Time>
            <Position>
              <LatitudeDegrees>36.806026808917522430419921875</LatitudeDegrees>
              <LongitudeDegrees>-4.3863604031503200531005859375</LongitudeDegrees>
            </Position>
            <AltitudeMeters>740.79998779296875</AltitudeMeters>
            <DistanceMeters>NAN</DistanceMeters>
          </Trackpoint>
          <Trackpoint>
            <Time>2022-06-16T07:51:09.000Z</Time>
            <Position>
              <LatitudeDegrees>36.8060273118317127227783203125</LatitudeDegrees>
              <LongitudeDegrees>-4.38636057078838348388671875</LongitudeDegrees>
            </Position>
            <AltitudeMeters>740.79998779296875</AltitudeMeters>
            <DistanceMeters>NAN</DistanceMeters>
          </Trackpoint>
          <Trackpoint>
            <Time>2022-06-16T07:51:10.000Z</Time>
            <Position>
              <LatitudeDegrees>36.8060259707272052764892578125</LatitudeDegrees>
              <LongitudeDegrees>-4.38635981641709804534912109375</LongitudeDegrees>
            </Position>
            <AltitudeMeters>740.79998779296875</AltitudeMeters>
            <DistanceMeters>NAN</DistanceMeters>
          </Trackpoint>
          <Trackpoint>
            <Time>2022-06-16T07:51:16.000Z</Time>
            <Position>
              <LatitudeDegrees>36.80603259243071079254150390625</LatitudeDegrees>
              <LongitudeDegrees>-4.3863530270755290985107421875</LongitudeDegrees>
            </Position>
            <AltitudeMeters>740.79998779296875</AltitudeMeters>
            <DistanceMeters>NAN</DistanceMeters>
          </Trackpoint>
          <Trackpoint>
            <Time>2022-06-16T07:51:20.000Z</Time>
            <Position>
              <LatitudeDegrees>36.80602605454623699188232421875</LatitudeDegrees>
              <LongitudeDegrees>-4.3863451480865478515625</LongitudeDegrees>
            </Position>
            <AltitudeMeters>740.5999755859375</AltitudeMeters>
            <DistanceMeters>NAN</DistanceMeters>
          </Trackpoint>
          <Trackpoint>
            <Time>2022-06-16T07:51:26.000Z</Time>
            <Position>
              <LatitudeDegrees>36.8060353584587574005126953125</LatitudeDegrees>
              <LongitudeDegrees>-4.38633433543145656585693359375</LongitudeDegrees>
            </Position>
            <AltitudeMeters>740.5999755859375</AltitudeMeters>
            <DistanceMeters>NAN</DistanceMeters>
          </Trackpoint>
          <Trackpoint>
            <Time>2022-06-16T07:51:30.000Z</Time>
            <Position>
              <LatitudeDegrees>36.80603007785975933074951171875</LatitudeDegrees>
              <LongitudeDegrees>-4.386317320168018341064453125</LongitudeDegrees>
            </Position>
            <AltitudeMeters>740.5999755859375</AltitudeMeters>
            <DistanceMeters>NAN</DistanceMeters>
          </Trackpoint>
          <Trackpoint>
            <Time>2022-06-16T07:51:40.000Z</Time>
            <Position>
              <LatitudeDegrees>36.806010715663433074951171875</LatitudeDegrees>
              <LongitudeDegrees>-4.386302568018436431884765625</LongitudeDegrees>
            </Position>
            <AltitudeMeters>740.20001220703125</AltitudeMeters>
            <DistanceMeters>NAN</DistanceMeters>
          </Trackpoint>
          <Trackpoint>
            <Time>2022-06-16T07:51:50.000Z</Time>
            <Position>
              <LatitudeDegrees>36.8059924431145191192626953125</LatitudeDegrees>
              <LongitudeDegrees>-4.38633550889790058135986328125</LongitudeDegrees>
            </Position>
            <AltitudeMeters>740.4000244140625</AltitudeMeters>
            <DistanceMeters>NAN</DistanceMeters>
          </Trackpoint>
          <Trackpoint>
            <Time>2022-06-16T07:52:00.000Z</Time>
            <Position>
              <LatitudeDegrees>36.80599428713321685791015625</LatitudeDegrees>
              <LongitudeDegrees>-4.38635646365582942962646484375</LongitudeDegrees>
            </Position>
            <AltitudeMeters>740.5999755859375</AltitudeMeters>
            <DistanceMeters>NAN</DistanceMeters>
          </Trackpoint>
          <Trackpoint>
            <Time>2022-06-16T07:52:10.000Z</Time>
            <Position>
              <LatitudeDegrees>36.80599629878997802734375</LatitudeDegrees>
              <LongitudeDegrees>-4.38634581863880157470703125</LongitudeDegrees>
            </Position>
            <AltitudeMeters>740.4000244140625</AltitudeMeters>
            <DistanceMeters>NAN</DistanceMeters>
          </Trackpoint>
          <Trackpoint>
            <Time>2022-06-16T07:52:20.000Z</Time>
            <Position>
              <LatitudeDegrees>36.806010715663433074951171875</LatitudeDegrees>
              <LongitudeDegrees>-4.3863196671009063720703125</LongitudeDegrees>
            </Position>
            <AltitudeMeters>740.4000244140625</AltitudeMeters>
            <DistanceMeters>NAN</DistanceMeters>
          </Trackpoint>
          <Trackpoint>
            <Time>2022-06-16T07:52:30.000Z</Time>
            <Position>
              <LatitudeDegrees>36.80601968429982662200927734375</LatitudeDegrees>
              <LongitudeDegrees>-4.38631254248321056365966796875</LongitudeDegrees>
            </Position>
            <AltitudeMeters>740.4000244140625</AltitudeMeters>
            <DistanceMeters>NAN</DistanceMeters>
          </Trackpoint>
          <Trackpoint>
            <Time>2022-06-16T07:52:40.000Z</Time>
            <Position>
              <LatitudeDegrees>36.80601348169147968292236328125</LatitudeDegrees>
              <LongitudeDegrees>-4.38628789968788623809814453125</LongitudeDegrees>
            </Position>
            <AltitudeMeters>740.20001220703125</AltitudeMeters>
            <DistanceMeters>NAN</DistanceMeters>
          </Trackpoint>
          <Trackpoint>
            <Time>2022-06-16T07:52:50.000Z</Time>
            <Position>
              <LatitudeDegrees>36.80600929073989391326904296875</LatitudeDegrees>
              <LongitudeDegrees>-4.38626493327319622039794921875</LongitudeDegrees>
            </Position>
            <AltitudeMeters>740</AltitudeMeters>
            <DistanceMeters>NAN</DistanceMeters>
          </Trackpoint>
          <Trackpoint>
            <Time>2022-06-16T07:53:00.000Z</Time>
            <Position>
              <LatitudeDegrees>36.80602169595658779144287109375</LatitudeDegrees>
              <LongitudeDegrees>-4.38627381809055805206298828125</LongitudeDegrees>
            </Position>
            <AltitudeMeters>740.20001220703125</AltitudeMeters>
            <DistanceMeters>NAN</DistanceMeters>
          </Trackpoint>
          <Trackpoint>
            <Time>2022-06-16T07:53:08.000Z</Time>
            <Position>
              <LatitudeDegrees>36.80603845976293087005615234375</LatitudeDegrees>
              <LongitudeDegrees>-4.3862618319690227508544921875</LongitudeDegrees>
            </Position>
            <AltitudeMeters>740.20001220703125</AltitudeMeters>
            <DistanceMeters>NAN</DistanceMeters>
          </Trackpoint>
          <Trackpoint>
            <Time>2022-06-16T07:53:10.000Z</Time>
            <Position>
              <LatitudeDegrees>36.80603720247745513916015625</LatitudeDegrees>
              <LongitudeDegrees>-4.38625973649322986602783203125</LongitudeDegrees>
            </Position>
            <AltitudeMeters>740.20001220703125</AltitudeMeters>
            <DistanceMeters>NAN</DistanceMeters>
          </Trackpoint>
          <Trackpoint>
            <Time>2022-06-16T07:53:16.000Z</Time>
            <Position>
              <LatitudeDegrees>36.80603586137294769287109375</LatitudeDegrees>
              <LongitudeDegrees>-4.38626225106418132781982421875</LongitudeDegrees>
            </Position>
            <AltitudeMeters>740.20001220703125</AltitudeMeters>
            <DistanceMeters>NAN</DistanceMeters>
          </Trackpoint>
          <Trackpoint>
            <Time>2022-06-16T07:53:19.000Z</Time>
            <Position>
              <LatitudeDegrees>36.80602823384106159210205078125</LatitudeDegrees>
              <LongitudeDegrees>-4.38626023940742015838623046875</LongitudeDegrees>
            </Position>
            <AltitudeMeters>740</AltitudeMeters>
            <DistanceMeters>NAN</DistanceMeters>
          </Trackpoint>
          <Trackpoint>
            <Time>2022-06-16T07:53:20.000Z</Time>
            <Position>
              <LatitudeDegrees>36.806028150022029876708984375</LatitudeDegrees>
              <LongitudeDegrees>-4.3862601555883884429931640625</LongitudeDegrees>
            </Position>
            <AltitudeMeters>740</AltitudeMeters>
            <DistanceMeters>NAN</DistanceMeters>
          </Trackpoint>
          <Trackpoint>
            <Time>2022-06-16T07:53:25.000Z</Time>
            <Position>
              <LatitudeDegrees>36.80603024549782276153564453125</LatitudeDegrees>
              <LongitudeDegrees>-4.38627029769122600555419921875</LongitudeDegrees>
            </Position>
            <AltitudeMeters>740.20001220703125</AltitudeMeters>
            <DistanceMeters>NAN</DistanceMeters>
          </Trackpoint>
          <Trackpoint>
            <Time>2022-06-16T07:53:28.000Z</Time>
            <Position>
              <LatitudeDegrees>36.80603276006877422332763671875</LatitudeDegrees>
              <LongitudeDegrees>-4.3862816132605075836181640625</LongitudeDegrees>
            </Position>
            <AltitudeMeters>740.20001220703125</AltitudeMeters>
            <DistanceMeters>NAN</DistanceMeters>
          </Trackpoint>
          <Trackpoint>
            <Time>2022-06-16T07:53:30.000Z</Time>
            <Position>
              <LatitudeDegrees>36.806035526096820831298828125</LatitudeDegrees>
              <LongitudeDegrees>-4.38628949224948883056640625</LongitudeDegrees>
            </Position>
            <AltitudeMeters>740.4000244140625</AltitudeMeters>
            <DistanceMeters>NAN</DistanceMeters>
          </Trackpoint>
          <Trackpoint>
            <Time>2022-06-16T07:53:32.000Z</Time>
            <Position>
              <LatitudeDegrees>36.80602454580366611480712890625</LatitudeDegrees>
              <LongitudeDegrees>-4.38630424439907073974609375</LongitudeDegrees>
            </Position>
            <AltitudeMeters>740.4000244140625</AltitudeMeters>
            <DistanceMeters>NAN</DistanceMeters>
          </Trackpoint>
          <Trackpoint>
            <Time>2022-06-16T07:53:39.000Z</Time>
            <Position>
              <LatitudeDegrees>36.806020773947238922119140625</LatitudeDegrees>
              <LongitudeDegrees>-4.3863518536090850830078125</LongitudeDegrees>
            </Position>
            <AltitudeMeters>740.5999755859375</AltitudeMeters>
            <DistanceMeters>NAN</DistanceMeters>
          </Trackpoint>
          <Trackpoint>
            <Time>2022-06-16T07:53:40.000Z</Time>
            <Position>
              <LatitudeDegrees>36.8060196004807949066162109375</LatitudeDegrees>
              <LongitudeDegrees>-4.38636484555900096893310546875</LongitudeDegrees>
            </Position>
            <AltitudeMeters>740.5999755859375</AltitudeMeters>
            <DistanceMeters>NAN</DistanceMeters>
          </Trackpoint>
          <Trackpoint>
            <Time>2022-06-16T07:53:44.000Z</Time>
            <Position>
              <LatitudeDegrees>36.8060048483312129974365234375</LatitudeDegrees>
              <LongitudeDegrees>-4.386405162513256072998046875</LongitudeDegrees>
            </Position>
            <AltitudeMeters>740</AltitudeMeters>
            <DistanceMeters>NAN</DistanceMeters>
          </Trackpoint>
          <Trackpoint>
            <Time>2022-06-16T07:53:46.000Z</Time>
            <Position>
              <LatitudeDegrees>36.80599403567612171173095703125</LatitudeDegrees>
              <LongitudeDegrees>-4.38641547225415706634521484375</LongitudeDegrees>
            </Position>
            <AltitudeMeters>739.79998779296875</AltitudeMeters>
            <DistanceMeters>NAN</DistanceMeters>
          </Trackpoint>
          <Trackpoint>
            <Time>2022-06-16T07:53:50.000Z</Time>
            <Position>
              <LatitudeDegrees>36.80598556995391845703125</LatitudeDegrees>
              <LongitudeDegrees>-4.3864291347563266754150390625</LongitudeDegrees>
            </Position>
            <AltitudeMeters>739.4000244140625</AltitudeMeters>
            <DistanceMeters>NAN</DistanceMeters>
          </Trackpoint>
          <Trackpoint>
            <Time>2022-06-16T07:53:55.000Z</Time>
            <Position>
              <LatitudeDegrees>36.8059820495545864105224609375</LatitudeDegrees>
              <LongitudeDegrees>-4.38642485998570919036865234375</LongitudeDegrees>
            </Position>
            <AltitudeMeters>739.4000244140625</AltitudeMeters>
            <DistanceMeters>NAN</DistanceMeters>
          </Trackpoint>
          <Trackpoint>
            <Time>2022-06-16T07:54:00.000Z</Time>
            <Position>
              <LatitudeDegrees>36.805978529155254364013671875</LatitudeDegrees>
              <LongitudeDegrees>-4.38642284832894802093505859375</LongitudeDegrees>
            </Position>
            <AltitudeMeters>739.4000244140625</AltitudeMeters>
            <DistanceMeters>NAN</DistanceMeters>
          </Trackpoint>
          <Trackpoint>
            <Time>2022-06-16T07:54:10.000Z</Time>
            <Position>
              <LatitudeDegrees>36.80597475729882717132568359375</LatitudeDegrees>
              <LongitudeDegrees>-4.38642016611993312835693359375</LongitudeDegrees>
            </Position>
            <AltitudeMeters>739.5999755859375</AltitudeMeters>
            <DistanceMeters>NAN</DistanceMeters>
          </Trackpoint>
          <Trackpoint>
            <Time>2022-06-16T07:54:20.000Z</Time>
            <Position>
              <LatitudeDegrees>36.8059797026216983795166015625</LatitudeDegrees>
              <LongitudeDegrees>-4.38641429878771305084228515625</LongitudeDegrees>
            </Position>
            <AltitudeMeters>739.5999755859375</AltitudeMeters>
            <DistanceMeters>NAN</DistanceMeters>
          </Trackpoint>
          <Trackpoint>
            <Time>2022-06-16T07:54:30.000Z</Time>
            <Position>
              <LatitudeDegrees>36.80598179809749126434326171875</LatitudeDegrees>
              <LongitudeDegrees>-4.38641044311225414276123046875</LongitudeDegrees>
            </Position>
            <AltitudeMeters>739.5999755859375</AltitudeMeters>
            <DistanceMeters>NAN</DistanceMeters>
          </Trackpoint>
          <Trackpoint>
            <Time>2022-06-16T07:54:40.000Z</Time>
            <Position>
              <LatitudeDegrees>36.80598163045942783355712890625</LatitudeDegrees>
              <LongitudeDegrees>-4.386410526931285858154296875</LongitudeDegrees>
            </Position>
            <AltitudeMeters>739.5999755859375</AltitudeMeters>
            <DistanceMeters>NAN</DistanceMeters>
          </Trackpoint>
          <Trackpoint>
            <Time>2022-06-16T07:54:50.000Z</Time>
            <Position>
              <LatitudeDegrees>36.80598766542971134185791015625</LatitudeDegrees>
              <LongitudeDegrees>-4.38641111366450786590576171875</LongitudeDegrees>
            </Position>
            <AltitudeMeters>739.79998779296875</AltitudeMeters>
            <DistanceMeters>NAN</DistanceMeters>
          </Trackpoint>
          <Trackpoint>
            <Time>2022-06-16T07:55:00.000Z</Time>
            <Position>
              <LatitudeDegrees>36.80599269457161426544189453125</LatitudeDegrees>
              <LongitudeDegrees>-4.38640482723712921142578125</LongitudeDegrees>
            </Position>
            <AltitudeMeters>739.79998779296875</AltitudeMeters>
            <DistanceMeters>NAN</DistanceMeters>
          </Trackpoint>
          <Trackpoint>
            <Time>2022-06-16T07:55:06.000Z</Time>
            <Position>
              <LatitudeDegrees>36.8059964664280414581298828125</LatitudeDegrees>
              <LongitudeDegrees>-4.3864039890468120574951171875</LongitudeDegrees>
            </Position>
            <AltitudeMeters>739.79998779296875</AltitudeMeters>
            <DistanceMeters>NAN</DistanceMeters>
          </Trackpoint>
          <Trackpoint>
            <Time>2022-06-16T07:55:10.000Z</Time>
            <Position>
              <LatitudeDegrees>36.8059957958757877349853515625</LatitudeDegrees>
              <LongitudeDegrees>-4.38640256412327289581298828125</LongitudeDegrees>
            </Position>
            <AltitudeMeters>740</AltitudeMeters>
            <DistanceMeters>NAN</DistanceMeters>
          </Trackpoint>
          <Trackpoint>
            <Time>2022-06-16T07:55:16.000Z</Time>
            <Position>
              <LatitudeDegrees>36.80599336512386798858642578125</LatitudeDegrees>
              <LongitudeDegrees>-4.3863996304571628570556640625</LongitudeDegrees>
            </Position>
            <AltitudeMeters>740</AltitudeMeters>
            <DistanceMeters>NAN</DistanceMeters>
          </Trackpoint>
          <Trackpoint>
            <Time>2022-06-16T07:55:20.000Z</Time>
            <Position>
              <LatitudeDegrees>36.8059931136667728424072265625</LatitudeDegrees>
              <LongitudeDegrees>-4.38639904372394084930419921875</LongitudeDegrees>
            </Position>
            <AltitudeMeters>740</AltitudeMeters>
            <DistanceMeters>NAN</DistanceMeters>
          </Trackpoint>
          <Trackpoint>
            <Time>2022-06-16T07:55:30.000Z</Time>
            <Position>
              <LatitudeDegrees>36.80599822662770748138427734375</LatitudeDegrees>
              <LongitudeDegrees>-4.38640424050390720367431640625</LongitudeDegrees>
            </Position>
            <AltitudeMeters>740</AltitudeMeters>
            <DistanceMeters>NAN</DistanceMeters>
          </Trackpoint>
          <Trackpoint>
            <Time>2022-06-16T07:55:39.000Z</Time>
            <Position>
              <LatitudeDegrees>36.8060011602938175201416015625</LatitudeDegrees>
              <LongitudeDegrees>-4.3864066712558269500732421875</LongitudeDegrees>
            </Position>
            <AltitudeMeters>739.79998779296875</AltitudeMeters>
            <DistanceMeters>NAN</DistanceMeters>
          </Trackpoint>
          <Trackpoint>
            <Time>2022-06-16T07:55:40.000Z</Time>
            <Position>
              <LatitudeDegrees>36.80600099265575408935546875</LatitudeDegrees>
              <LongitudeDegrees>-4.386406503617763519287109375</LongitudeDegrees>
            </Position>
            <AltitudeMeters>739.79998779296875</AltitudeMeters>
            <DistanceMeters>NAN</DistanceMeters>
          </Trackpoint>
          <Trackpoint>
            <Time>2022-06-16T07:55:47.000Z</Time>
            <Position>
              <LatitudeDegrees>36.80600090883672237396240234375</LatitudeDegrees>
              <LongitudeDegrees>-4.3864060007035732269287109375</LongitudeDegrees>
            </Position>
            <AltitudeMeters>739.79998779296875</AltitudeMeters>
            <DistanceMeters>NAN</DistanceMeters>
          </Trackpoint>
          <Trackpoint>
            <Time>2022-06-16T07:55:50.000Z</Time>
            <Position>
              <LatitudeDegrees>36.80600233376026153564453125</LatitudeDegrees>
              <LongitudeDegrees>-4.38640709035098552703857421875</LongitudeDegrees>
            </Position>
            <AltitudeMeters>739.79998779296875</AltitudeMeters>
            <DistanceMeters>NAN</DistanceMeters>
          </Trackpoint>
          <Trackpoint>
            <Time>2022-06-16T07:55:57.000Z</Time>
            <Position>
              <LatitudeDegrees>36.8060038425028324127197265625</LatitudeDegrees>
              <LongitudeDegrees>-4.386412538588047027587890625</LongitudeDegrees>
            </Position>
            <AltitudeMeters>739.79998779296875</AltitudeMeters>
            <DistanceMeters>NAN</DistanceMeters>
          </Trackpoint>
          <Trackpoint>
            <Time>2022-06-16T07:56:00.000Z</Time>
            <Position>
              <LatitudeDegrees>36.80600040592253208160400390625</LatitudeDegrees>
              <LongitudeDegrees>-4.38641287386417388916015625</LongitudeDegrees>
            </Position>
            <AltitudeMeters>739.79998779296875</AltitudeMeters>
            <DistanceMeters>NAN</DistanceMeters>
          </Trackpoint>
          <Trackpoint>
            <Time>2022-06-16T07:56:10.000Z</Time>
            <Position>
              <LatitudeDegrees>36.805999316275119781494140625</LatitudeDegrees>
              <LongitudeDegrees>-4.3864108622074127197265625</LongitudeDegrees>
            </Position>
            <AltitudeMeters>739.79998779296875</AltitudeMeters>
            <DistanceMeters>NAN</DistanceMeters>
          </Trackpoint>
          <Trackpoint>
            <Time>2022-06-16T07:56:20.000Z</Time>
            <Position>
              <LatitudeDegrees>36.8059988133609294891357421875</LatitudeDegrees>
              <LongitudeDegrees>-4.38639669679105281829833984375</LongitudeDegrees>
            </Position>
            <AltitudeMeters>740</AltitudeMeters>
            <DistanceMeters>NAN</DistanceMeters>
          </Trackpoint>
          <Trackpoint>
            <Time>2022-06-16T07:56:24.000Z</Time>
            <Position>
              <LatitudeDegrees>36.8060014955699443817138671875</LatitudeDegrees>
              <LongitudeDegrees>-4.38638915307819843292236328125</LongitudeDegrees>
            </Position>
            <AltitudeMeters>740.20001220703125</AltitudeMeters>
            <DistanceMeters>NAN</DistanceMeters>
          </Trackpoint>
          <Trackpoint>
            <Time>2022-06-16T07:56:30.000Z</Time>
            <Position>
              <LatitudeDegrees>36.80599805898964405059814453125</LatitudeDegrees>
              <LongitudeDegrees>-4.38639150001108646392822265625</LongitudeDegrees>
            </Position>
            <AltitudeMeters>740</AltitudeMeters>
            <DistanceMeters>NAN</DistanceMeters>
          </Trackpoint>
          <Trackpoint>
            <Time>2022-06-16T07:56:35.000Z</Time>
            <Position>
              <LatitudeDegrees>36.80599822662770748138427734375</LatitudeDegrees>
              <LongitudeDegrees>-4.38638999126851558685302734375</LongitudeDegrees>
            </Position>
            <AltitudeMeters>740.20001220703125</AltitudeMeters>
            <DistanceMeters>NAN</DistanceMeters>
          </Trackpoint>
          <Trackpoint>
            <Time>2022-06-16T07:56:40.000Z</Time>
            <Position>
              <LatitudeDegrees>36.80600007064640522003173828125</LatitudeDegrees>
              <LongitudeDegrees>-4.386387728154659271240234375</LongitudeDegrees>
            </Position>
            <AltitudeMeters>740.20001220703125</AltitudeMeters>
            <DistanceMeters>NAN</DistanceMeters>
          </Trackpoint>
          <Trackpoint>
            <Time>2022-06-16T07:56:41.000Z</Time>
            <Position>
              <LatitudeDegrees>36.80600023828446865081787109375</LatitudeDegrees>
              <LongitudeDegrees>-4.38638764433562755584716796875</LongitudeDegrees>
            </Position>
            <AltitudeMeters>740.20001220703125</AltitudeMeters>
            <DistanceMeters>NAN</DistanceMeters>
          </Trackpoint>
          <Trackpoint>
            <Time>2022-06-16T07:56:42.000Z</Time>
            <Position>
              <LatitudeDegrees>36.8060003221035003662109375</LatitudeDegrees>
              <LongitudeDegrees>-4.38638747669756412506103515625</LongitudeDegrees>
            </Position>
            <AltitudeMeters>740.20001220703125</AltitudeMeters>
            <DistanceMeters>NAN</DistanceMeters>
          </Trackpoint>
          <Trackpoint>
            <Time>2022-06-16T07:56:43.000Z</Time>
            <Position>
              <LatitudeDegrees>36.80600057356059551239013671875</LatitudeDegrees>
              <LongitudeDegrees>-4.38638714142143726348876953125</LongitudeDegrees>
            </Position>
            <AltitudeMeters>740.20001220703125</AltitudeMeters>
            <DistanceMeters>NAN</DistanceMeters>
          </Trackpoint>
          <Trackpoint>
            <Time>2022-06-16T07:56:50.000Z</Time>
            <Position>
              <LatitudeDegrees>36.80600224994122982025146484375</LatitudeDegrees>
              <LongitudeDegrees>-4.38638362102210521697998046875</LongitudeDegrees>
            </Position>
            <AltitudeMeters>740.20001220703125</AltitudeMeters>
            <DistanceMeters>NAN</DistanceMeters>
          </Trackpoint>
          <Trackpoint>
            <Time>2022-06-16T07:57:00.000Z</Time>
            <Position>
              <LatitudeDegrees>36.806010045111179351806640625</LatitudeDegrees>
              <LongitudeDegrees>-4.3863825313746929168701171875</LongitudeDegrees>
            </Position>
            <AltitudeMeters>740.20001220703125</AltitudeMeters>
            <DistanceMeters>NAN</DistanceMeters>
          </Trackpoint>
          <Trackpoint>
            <Time>2022-06-16T07:57:10.000Z</Time>
            <Position>
              <LatitudeDegrees>36.80601113475859165191650390625</LatitudeDegrees>
              <LongitudeDegrees>-4.38638077117502689361572265625</LongitudeDegrees>
            </Position>
            <AltitudeMeters>740.4000244140625</AltitudeMeters>
            <DistanceMeters>NAN</DistanceMeters>
          </Trackpoint>
          <Trackpoint>
            <Time>2022-06-16T07:57:16.000Z</Time>
            <Position>
              <LatitudeDegrees>36.8060190975666046142578125</LatitudeDegrees>
              <LongitudeDegrees>-4.3863840401172637939453125</LongitudeDegrees>
            </Position>
            <AltitudeMeters>740.4000244140625</AltitudeMeters>
            <DistanceMeters>NAN</DistanceMeters>
          </Trackpoint>
          <Trackpoint>
            <Time>2022-06-16T07:57:20.000Z</Time>
            <Position>
              <LatitudeDegrees>36.8060189299285411834716796875</LatitudeDegrees>
              <LongitudeDegrees>-4.3863842077553272247314453125</LongitudeDegrees>
            </Position>
            <AltitudeMeters>740.4000244140625</AltitudeMeters>
            <DistanceMeters>NAN</DistanceMeters>
          </Trackpoint>
          <Trackpoint>
            <Time>2022-06-16T07:57:30.000Z</Time>
            <Position>
              <LatitudeDegrees>36.80601633153855800628662109375</LatitudeDegrees>
              <LongitudeDegrees>-4.3863852135837078094482421875</LongitudeDegrees>
            </Position>
            <AltitudeMeters>740.4000244140625</AltitudeMeters>
            <DistanceMeters>NAN</DistanceMeters>
          </Trackpoint>
          <Trackpoint>
            <Time>2022-06-16T07:57:40.000Z</Time>
            <Position>
              <LatitudeDegrees>36.8060289882123470306396484375</LatitudeDegrees>
              <LongitudeDegrees>-4.38636057078838348388671875</LongitudeDegrees>
            </Position>
            <AltitudeMeters>740.79998779296875</AltitudeMeters>
            <DistanceMeters>NAN</DistanceMeters>
          </Trackpoint>
          <Trackpoint>
            <Time>2022-06-16T07:57:50.000Z</Time>
            <Position>
              <LatitudeDegrees>36.80602471344172954559326171875</LatitudeDegrees>
              <LongitudeDegrees>-4.386354871094226837158203125</LongitudeDegrees>
            </Position>
            <AltitudeMeters>740.79998779296875</AltitudeMeters>
            <DistanceMeters>NAN</DistanceMeters>
          </Trackpoint>
          <Trackpoint>
            <Time>2022-06-16T07:58:00.000Z</Time>
            <Position>
              <LatitudeDegrees>36.8060172535479068756103515625</LatitudeDegrees>
              <LongitudeDegrees>-4.38635386526584625244140625</LongitudeDegrees>
            </Position>
            <AltitudeMeters>740.5999755859375</AltitudeMeters>
            <DistanceMeters>NAN</DistanceMeters>
          </Trackpoint>
          <Trackpoint>
            <Time>2022-06-16T07:58:05.000Z</Time>
            <Position>
              <LatitudeDegrees>36.8060165829956531524658203125</LatitudeDegrees>
              <LongitudeDegrees>-4.38634975813329219818115234375</LongitudeDegrees>
            </Position>
            <AltitudeMeters>740.5999755859375</AltitudeMeters>
            <DistanceMeters>NAN</DistanceMeters>
          </Trackpoint>
          <Trackpoint>
            <Time>2022-06-16T07:58:10.000Z</Time>
            <Position>
              <LatitudeDegrees>36.806016750633716583251953125</LatitudeDegrees>
              <LongitudeDegrees>-4.38634992577135562896728515625</LongitudeDegrees>
            </Position>
            <AltitudeMeters>740.5999755859375</AltitudeMeters>
            <DistanceMeters>NAN</DistanceMeters>
          </Trackpoint>
          <Trackpoint>
            <Time>2022-06-16T07:58:20.000Z</Time>
            <Position>
              <LatitudeDegrees>36.8060212768614292144775390625</LatitudeDegrees>
              <LongitudeDegrees>-4.38635461963713169097900390625</LongitudeDegrees>
            </Position>
            <AltitudeMeters>740.79998779296875</AltitudeMeters>
            <DistanceMeters>NAN</DistanceMeters>
          </Trackpoint>
          <Trackpoint>
            <Time>2022-06-16T07:58:30.000Z</Time>
            <Position>
              <LatitudeDegrees>36.80602186359465122222900390625</LatitudeDegrees>
              <LongitudeDegrees>-4.3863580562174320220947265625</LongitudeDegrees>
            </Position>
            <AltitudeMeters>740.79998779296875</AltitudeMeters>
            <DistanceMeters>NAN</DistanceMeters>
          </Trackpoint>
          <Trackpoint>
            <Time>2022-06-16T07:58:40.000Z</Time>
            <Position>
              <LatitudeDegrees>36.80601716972887516021728515625</LatitudeDegrees>
              <LongitudeDegrees>-4.3863677792251110076904296875</LongitudeDegrees>
            </Position>
            <AltitudeMeters>740.5999755859375</AltitudeMeters>
            <DistanceMeters>NAN</DistanceMeters>
          </Trackpoint>
          <Trackpoint>
            <Time>2022-06-16T07:58:50.000Z</Time>
            <Position>
              <LatitudeDegrees>36.8060110509395599365234375</LatitudeDegrees>
              <LongitudeDegrees>-4.38637674786150455474853515625</LongitudeDegrees>
            </Position>
            <AltitudeMeters>740.4000244140625</AltitudeMeters>
            <DistanceMeters>NAN</DistanceMeters>
          </Trackpoint>
          <Trackpoint>
            <Time>2022-06-16T07:58:53.000Z</Time>
            <Position>
              <LatitudeDegrees>36.806011386215686798095703125</LatitudeDegrees>
              <LongitudeDegrees>-4.38637523911893367767333984375</LongitudeDegrees>
            </Position>
            <AltitudeMeters>740.4000244140625</AltitudeMeters>
            <DistanceMeters>NAN</DistanceMeters>
          </Trackpoint>
          <Trackpoint>
            <Time>2022-06-16T07:58:56.000Z</Time>
            <Position>
              <LatitudeDegrees>36.8060105480253696441650390625</LatitudeDegrees>
              <LongitudeDegrees>-4.38637875951826572418212890625</LongitudeDegrees>
            </Position>
            <AltitudeMeters>740.4000244140625</AltitudeMeters>
            <DistanceMeters>NAN</DistanceMeters>
          </Trackpoint>
          <Trackpoint>
            <Time>2022-06-16T07:59:00.000Z</Time>
            <Position>
              <LatitudeDegrees>36.806001327931880950927734375</LatitudeDegrees>
              <LongitudeDegrees>-4.38638680614531040191650390625</LongitudeDegrees>
            </Position>
            <AltitudeMeters>740.20001220703125</AltitudeMeters>
            <DistanceMeters>NAN</DistanceMeters>
          </Trackpoint>
          <Trackpoint>
            <Time>2022-06-16T07:59:06.000Z</Time>
            <Position>
              <LatitudeDegrees>36.80598816834390163421630859375</LatitudeDegrees>
              <LongitudeDegrees>-4.38638999126851558685302734375</LongitudeDegrees>
            </Position>
            <AltitudeMeters>740</AltitudeMeters>
            <DistanceMeters>NAN</DistanceMeters>
          </Trackpoint>
          <Trackpoint>
            <Time>2022-06-16T07:59:08.000Z</Time>
            <Position>
              <LatitudeDegrees>36.80598263628780841827392578125</LatitudeDegrees>
              <LongitudeDegrees>-4.38639066182076930999755859375</LongitudeDegrees>
            </Position>
            <AltitudeMeters>740</AltitudeMeters>
            <DistanceMeters>NAN</DistanceMeters>
          </Trackpoint>
          <Trackpoint>
            <Time>2022-06-16T07:59:09.000Z</Time>
            <Position>
              <LatitudeDegrees>36.80598045699298381805419921875</LatitudeDegrees>
              <LongitudeDegrees>-4.386389739811420440673828125</LongitudeDegrees>
            </Position>
            <AltitudeMeters>740</AltitudeMeters>
            <DistanceMeters>NAN</DistanceMeters>
          </Trackpoint>
          <Trackpoint>
            <Time>2022-06-16T07:59:10.000Z</Time>
            <Position>
              <LatitudeDegrees>36.80597794242203235626220703125</LatitudeDegrees>
              <LongitudeDegrees>-4.3863905780017375946044921875</LongitudeDegrees>
            </Position>
            <AltitudeMeters>740</AltitudeMeters>
            <DistanceMeters>NAN</DistanceMeters>
          </Trackpoint>
          <Trackpoint>
            <Time>2022-06-16T07:59:11.000Z</Time>
            <Position>
              <LatitudeDegrees>36.80597811006009578704833984375</LatitudeDegrees>
              <LongitudeDegrees>-4.38639284111559391021728515625</LongitudeDegrees>
            </Position>
            <AltitudeMeters>740</AltitudeMeters>
            <DistanceMeters>NAN</DistanceMeters>
          </Trackpoint>
          <Trackpoint>
            <Time>2022-06-16T07:59:14.000Z</Time>
            <Position>
              <LatitudeDegrees>36.8059854023158550262451171875</LatitudeDegrees>
              <LongitudeDegrees>-4.3863905780017375946044921875</LongitudeDegrees>
            </Position>
            <AltitudeMeters>740</AltitudeMeters>
            <DistanceMeters>NAN</DistanceMeters>
          </Trackpoint>
          <Trackpoint>
            <Time>2022-06-16T07:59:18.000Z</Time>
            <Position>
              <LatitudeDegrees>36.80600191466510295867919921875</LatitudeDegrees>
              <LongitudeDegrees>-4.38637976534664630889892578125</LongitudeDegrees>
            </Position>
            <AltitudeMeters>740.20001220703125</AltitudeMeters>
            <DistanceMeters>NAN</DistanceMeters>
          </Trackpoint>
          <Trackpoint>
            <Time>2022-06-16T07:59:20.000Z</Time>
            <Position>
              <LatitudeDegrees>36.80600526742637157440185546875</LatitudeDegrees>
              <LongitudeDegrees>-4.3863721378147602081298828125</LongitudeDegrees>
            </Position>
            <AltitudeMeters>740.4000244140625</AltitudeMeters>
            <DistanceMeters>NAN</DistanceMeters>
          </Trackpoint>
          <Trackpoint>
            <Time>2022-06-16T07:59:21.000Z</Time>
            <Position>
              <LatitudeDegrees>36.80600945837795734405517578125</LatitudeDegrees>
              <LongitudeDegrees>-4.38636501319706439971923828125</LongitudeDegrees>
            </Position>
            <AltitudeMeters>740.5999755859375</AltitudeMeters>
            <DistanceMeters>NAN</DistanceMeters>
          </Trackpoint>
          <Trackpoint>
            <Time>2022-06-16T07:59:24.000Z</Time>
            <Position>
              <LatitudeDegrees>36.80602102540433406829833984375</LatitudeDegrees>
              <LongitudeDegrees>-4.3863451480865478515625</LongitudeDegrees>
            </Position>
            <AltitudeMeters>740.5999755859375</AltitudeMeters>
            <DistanceMeters>NAN</DistanceMeters>
          </Trackpoint>
          <Trackpoint>
            <Time>2022-06-16T07:59:26.000Z</Time>
            <Position>
              <LatitudeDegrees>36.806022115051746368408203125</LatitudeDegrees>
              <LongitudeDegrees>-4.386330060660839080810546875</LongitudeDegrees>
            </Position>
            <AltitudeMeters>740.5999755859375</AltitudeMeters>
            <DistanceMeters>NAN</DistanceMeters>
          </Trackpoint>
          <Trackpoint>
            <Time>2022-06-16T07:59:28.000Z</Time>
            <Position>
              <LatitudeDegrees>36.80601834319531917572021484375</LatitudeDegrees>
              <LongitudeDegrees>-4.38631405122578144073486328125</LongitudeDegrees>
            </Position>
            <AltitudeMeters>740.4000244140625</AltitudeMeters>
            <DistanceMeters>NAN</DistanceMeters>
          </Trackpoint>
          <Trackpoint>
            <Time>2022-06-16T07:59:30.000Z</Time>
            <Position>
              <LatitudeDegrees>36.806012056767940521240234375</LatitudeDegrees>
              <LongitudeDegrees>-4.3863013945519924163818359375</LongitudeDegrees>
            </Position>
            <AltitudeMeters>740.20001220703125</AltitudeMeters>
            <DistanceMeters>NAN</DistanceMeters>
          </Trackpoint>
          <Trackpoint>
            <Time>2022-06-16T07:59:34.000Z</Time>
            <Position>
              <LatitudeDegrees>36.80599554441869258880615234375</LatitudeDegrees>
              <LongitudeDegrees>-4.38627339899539947509765625</LongitudeDegrees>
            </Position>
            <AltitudeMeters>740</AltitudeMeters>
            <DistanceMeters>NAN</DistanceMeters>
          </Trackpoint>
          <Trackpoint>
            <Time>2022-06-16T07:59:38.000Z</Time>
            <Position>
              <LatitudeDegrees>36.805982552468776702880859375</LatitudeDegrees>
              <LongitudeDegrees>-4.386230148375034332275390625</LongitudeDegrees>
            </Position>
            <AltitudeMeters>740.4000244140625</AltitudeMeters>
            <DistanceMeters>NAN</DistanceMeters>
          </Trackpoint>
          <Trackpoint>
            <Time>2022-06-16T07:59:40.000Z</Time>
            <Position>
              <LatitudeDegrees>36.80597282946109771728515625</LatitudeDegrees>
              <LongitudeDegrees>-4.386197961866855621337890625</LongitudeDegrees>
            </Position>
            <AltitudeMeters>740.79998779296875</AltitudeMeters>
            <DistanceMeters>NAN</DistanceMeters>
          </Trackpoint>
          <Trackpoint>
            <Time>2022-06-16T07:59:46.000Z</Time>
            <Position>
              <LatitudeDegrees>36.80595547892153263092041015625</LatitudeDegrees>
              <LongitudeDegrees>-4.38614808954298496246337890625</LongitudeDegrees>
            </Position>
            <AltitudeMeters>741.20001220703125</AltitudeMeters>
            <DistanceMeters>NAN</DistanceMeters>
          </Trackpoint>
          <Trackpoint>
            <Time>2022-06-16T07:59:48.000Z</Time>
            <Position>
              <LatitudeDegrees>36.805953048169612884521484375</LatitudeDegrees>
              <LongitudeDegrees>-4.38612294383347034454345703125</LongitudeDegrees>
            </Position>
            <AltitudeMeters>741.4000244140625</AltitudeMeters>
            <DistanceMeters>NAN</DistanceMeters>
          </Trackpoint>
          <Trackpoint>
            <Time>2022-06-16T07:59:49.000Z</Time>
            <Position>
              <LatitudeDegrees>36.8059434927999973297119140625</LatitudeDegrees>
              <LongitudeDegrees>-4.38610182143747806549072265625</LongitudeDegrees>
            </Position>
            <AltitudeMeters>741.5999755859375</AltitudeMeters>
            <DistanceMeters>NAN</DistanceMeters>
          </Trackpoint>
          <Trackpoint>
            <Time>2022-06-16T07:59:50.000Z</Time>
            <Position>
              <LatitudeDegrees>36.80593620054423809051513671875</LatitudeDegrees>
              <LongitudeDegrees>-4.3860861472785472869873046875</LongitudeDegrees>
            </Position>
            <AltitudeMeters>741.79998779296875</AltitudeMeters>
            <DistanceMeters>NAN</DistanceMeters>
          </Trackpoint>
          <Trackpoint>
            <Time>2022-06-16T07:59:54.000Z</Time>
            <Position>
              <LatitudeDegrees>36.80591021664440631866455078125</LatitudeDegrees>
              <LongitudeDegrees>-4.386035017669200897216796875</LongitudeDegrees>
            </Position>
            <AltitudeMeters>741.79998779296875</AltitudeMeters>
            <DistanceMeters>NAN</DistanceMeters>
          </Trackpoint>
          <Trackpoint>
            <Time>2022-06-16T08:00:00.000Z</Time>
            <Position>
              <LatitudeDegrees>36.805886328220367431640625</LatitudeDegrees>
              <LongitudeDegrees>-4.38594910316169261932373046875</LongitudeDegrees>
            </Position>
            <AltitudeMeters>741</AltitudeMeters>
            <DistanceMeters>NAN</DistanceMeters>
          </Trackpoint>
          <Trackpoint>
            <Time>2022-06-16T08:00:06.000Z</Time>
            <Position>
              <LatitudeDegrees>36.8058573268353939056396484375</LatitudeDegrees>
              <LongitudeDegrees>-4.38585991971194744110107421875</LongitudeDegrees>
            </Position>
            <AltitudeMeters>740.20001220703125</AltitudeMeters>
            <DistanceMeters>NAN</DistanceMeters>
          </Trackpoint>
          <Trackpoint>
            <Time>2022-06-16T08:00:10.000Z</Time>
            <Position>
              <LatitudeDegrees>36.8058318458497524261474609375</LatitudeDegrees>
              <LongitudeDegrees>-4.3858035095036029815673828125</LongitudeDegrees>
            </Position>
            <AltitudeMeters>740.79998779296875</AltitudeMeters>
            <DistanceMeters>NAN</DistanceMeters>
          </Trackpoint>
          <Trackpoint>
            <Time>2022-06-16T08:00:20.000Z</Time>
            <Position>
              <LatitudeDegrees>36.8057761900126934051513671875</LatitudeDegrees>
              <LongitudeDegrees>-4.38567216508090496063232421875</LongitudeDegrees>
            </Position>
            <AltitudeMeters>740.79998779296875</AltitudeMeters>
            <DistanceMeters>NAN</DistanceMeters>
          </Trackpoint>
          <Trackpoint>
            <Time>2022-06-16T08:00:30.000Z</Time>
            <Position>
              <LatitudeDegrees>36.80574081838130950927734375</LatitudeDegrees>
              <LongitudeDegrees>-4.3855289183557033538818359375</LongitudeDegrees>
            </Position>
            <AltitudeMeters>742.5999755859375</AltitudeMeters>
            <DistanceMeters>NAN</DistanceMeters>
          </Trackpoint>
          <Trackpoint>
            <Time>2022-06-16T08:00:40.000Z</Time>
            <Position>
              <LatitudeDegrees>36.80573319084942340850830078125</LatitudeDegrees>
              <LongitudeDegrees>-4.38537896610796451568603515625</LongitudeDegrees>
            </Position>
            <AltitudeMeters>743.5999755859375</AltitudeMeters>
            <DistanceMeters>NAN</DistanceMeters>
          </Trackpoint>
          <Trackpoint>
            <Time>2022-06-16T08:00:50.000Z</Time>
            <Position>
              <LatitudeDegrees>36.80574626661837100982666015625</LatitudeDegrees>
              <LongitudeDegrees>-4.38522406853735446929931640625</LongitudeDegrees>
            </Position>
            <AltitudeMeters>745.20001220703125</AltitudeMeters>
            <DistanceMeters>NAN</DistanceMeters>
          </Trackpoint>
          <Trackpoint>
            <Time>2022-06-16T08:00:57.000Z</Time>
            <Position>
              <LatitudeDegrees>36.8057664670050144195556640625</LatitudeDegrees>
              <LongitudeDegrees>-4.38512901775538921356201171875</LongitudeDegrees>
            </Position>
            <AltitudeMeters>746.20001220703125</AltitudeMeters>
            <DistanceMeters>NAN</DistanceMeters>
          </Trackpoint>
          <Trackpoint>
            <Time>2022-06-16T08:01:00.000Z</Time>
            <Position>
              <LatitudeDegrees>36.80577862076461315155029296875</LatitudeDegrees>
              <LongitudeDegrees>-4.3850933946669101715087890625</LongitudeDegrees>
            </Position>
            <AltitudeMeters>746.5999755859375</AltitudeMeters>
            <DistanceMeters>NAN</DistanceMeters>
          </Trackpoint>
          <Trackpoint>
            <Time>2022-06-16T08:01:01.000Z</Time>
            <Position>
              <LatitudeDegrees>36.80578172206878662109375</LatitudeDegrees>
              <LongitudeDegrees>-4.38508241437375545501708984375</LongitudeDegrees>
            </Position>
            <AltitudeMeters>746.5999755859375</AltitudeMeters>
            <DistanceMeters>NAN</DistanceMeters>
          </Trackpoint>
          <Trackpoint>
            <Time>2022-06-16T08:01:02.000Z</Time>
            <Position>
              <LatitudeDegrees>36.8057857453823089599609375</LatitudeDegrees>
              <LongitudeDegrees>-4.3850697576999664306640625</LongitudeDegrees>
            </Position>
            <AltitudeMeters>746.5999755859375</AltitudeMeters>
            <DistanceMeters>NAN</DistanceMeters>
          </Trackpoint>
          <Trackpoint>
            <Time>2022-06-16T08:01:10.000Z</Time>
            <Position>
              <LatitudeDegrees>36.8058248050510883331298828125</LatitudeDegrees>
              <LongitudeDegrees>-4.38497043214738368988037109375</LongitudeDegrees>
            </Position>
            <AltitudeMeters>747.4000244140625</AltitudeMeters>
            <DistanceMeters>NAN</DistanceMeters>
          </Trackpoint>
          <Trackpoint>
            <Time>2022-06-16T08:01:20.000Z</Time>
            <Position>
              <LatitudeDegrees>36.8058714084327220916748046875</LatitudeDegrees>
              <LongitudeDegrees>-4.3848503194749355316162109375</LongitudeDegrees>
            </Position>
            <AltitudeMeters>749.79998779296875</AltitudeMeters>
            <DistanceMeters>NAN</DistanceMeters>
          </Trackpoint>
          <Trackpoint>
            <Time>2022-06-16T08:01:30.000Z</Time>
            <Position>
              <LatitudeDegrees>36.8058985657989978790283203125</LatitudeDegrees>
              <LongitudeDegrees>-4.38471729867160320281982421875</LongitudeDegrees>
            </Position>
            <AltitudeMeters>752.4000244140625</AltitudeMeters>
            <DistanceMeters>NAN</DistanceMeters>
          </Trackpoint>
          <Trackpoint>
            <Time>2022-06-16T08:01:37.000Z</Time>
            <Position>
              <LatitudeDegrees>36.805922202765941619873046875</LatitudeDegrees>
              <LongitudeDegrees>-4.38461973331868648529052734375</LongitudeDegrees>
            </Position>
            <AltitudeMeters>753.5999755859375</AltitudeMeters>
            <DistanceMeters>NAN</DistanceMeters>
          </Trackpoint>
          <Trackpoint>
            <Time>2022-06-16T08:01:39.000Z</Time>
            <Position>
              <LatitudeDegrees>36.80593133904039859771728515625</LatitudeDegrees>
              <LongitudeDegrees>-4.38459165394306182861328125</LongitudeDegrees>
            </Position>
            <AltitudeMeters>753.79998779296875</AltitudeMeters>
            <DistanceMeters>NAN</DistanceMeters>
          </Trackpoint>
          <Trackpoint>
            <Time>2022-06-16T08:01:40.000Z</Time>
            <Position>
              <LatitudeDegrees>36.80593854747712612152099609375</LatitudeDegrees>
              <LongitudeDegrees>-4.384575225412845611572265625</LongitudeDegrees>
            </Position>
            <AltitudeMeters>753.79998779296875</AltitudeMeters>
            <DistanceMeters>NAN</DistanceMeters>
          </Trackpoint>
          <Trackpoint>
            <Time>2022-06-16T08:01:50.000Z</Time>
            <Position>
              <LatitudeDegrees>36.80597106926143169403076171875</LatitudeDegrees>
              <LongitudeDegrees>-4.384432397782802581787109375</LongitudeDegrees>
            </Position>
            <AltitudeMeters>754.5999755859375</AltitudeMeters>
            <DistanceMeters>NAN</DistanceMeters>
          </Trackpoint>
          <Trackpoint>
            <Time>2022-06-16T08:02:00.000Z</Time>
            <Position>
              <LatitudeDegrees>36.80599956773221492767333984375</LatitudeDegrees>
              <LongitudeDegrees>-4.38427574001252651214599609375</LongitudeDegrees>
            </Position>
            <AltitudeMeters>755.20001220703125</AltitudeMeters>
            <DistanceMeters>NAN</DistanceMeters>
          </Trackpoint>
          <Trackpoint>
            <Time>2022-06-16T08:02:05.000Z</Time>
            <Position>
              <LatitudeDegrees>36.80599437095224857330322265625</LatitudeDegrees>
              <LongitudeDegrees>-4.3842082656919956207275390625</LongitudeDegrees>
            </Position>
            <AltitudeMeters>755.79998779296875</AltitudeMeters>
            <DistanceMeters>NAN</DistanceMeters>
          </Trackpoint>
          <Trackpoint>
            <Time>2022-06-16T08:02:10.000Z</Time>
            <Position>
              <LatitudeDegrees>36.8059894256293773651123046875</LatitudeDegrees>
              <LongitudeDegrees>-4.384130649268627166748046875</LongitudeDegrees>
            </Position>
            <AltitudeMeters>756.4000244140625</AltitudeMeters>
            <DistanceMeters>NAN</DistanceMeters>
          </Trackpoint>
          <Trackpoint>
            <Time>2022-06-16T08:02:17.000Z</Time>
            <Position>
              <LatitudeDegrees>36.80597526021301746368408203125</LatitudeDegrees>
              <LongitudeDegrees>-4.38403048552572727203369140625</LongitudeDegrees>
            </Position>
            <AltitudeMeters>757.4000244140625</AltitudeMeters>
            <DistanceMeters>NAN</DistanceMeters>
          </Trackpoint>
          <Trackpoint>
            <Time>2022-06-16T08:02:20.000Z</Time>
            <Position>
              <LatitudeDegrees>36.80596453137695789337158203125</LatitudeDegrees>
              <LongitudeDegrees>-4.38398949801921844482421875</LongitudeDegrees>
            </Position>
            <AltitudeMeters>757.5999755859375</AltitudeMeters>
            <DistanceMeters>NAN</DistanceMeters>
          </Trackpoint>
          <Trackpoint>
            <Time>2022-06-16T08:02:30.000Z</Time>
            <Position>
              <LatitudeDegrees>36.80591289885342121124267578125</LatitudeDegrees>
              <LongitudeDegrees>-4.38384138979017734527587890625</LongitudeDegrees>
            </Position>
            <AltitudeMeters>759</AltitudeMeters>
            <DistanceMeters>NAN</DistanceMeters>
          </Trackpoint>
          <Trackpoint>
            <Time>2022-06-16T08:02:40.000Z</Time>
            <Position>
              <LatitudeDegrees>36.80586897768080234527587890625</LatitudeDegrees>
              <LongitudeDegrees>-4.3836838938295841217041015625</LongitudeDegrees>
            </Position>
            <AltitudeMeters>758.20001220703125</AltitudeMeters>
            <DistanceMeters>NAN</DistanceMeters>
          </Trackpoint>
          <Trackpoint>
            <Time>2022-06-16T08:02:50.000Z</Time>
            <Position>
              <LatitudeDegrees>36.8058415688574314117431640625</LatitudeDegrees>
              <LongitudeDegrees>-4.38354601152241230010986328125</LongitudeDegrees>
            </Position>
            <AltitudeMeters>757.79998779296875</AltitudeMeters>
            <DistanceMeters>NAN</DistanceMeters>
          </Trackpoint>
          <Trackpoint>
            <Time>2022-06-16T08:03:00.000Z</Time>
            <Position>
              <LatitudeDegrees>36.80583477951586246490478515625</LatitudeDegrees>
              <LongitudeDegrees>-4.38338541425764560699462890625</LongitudeDegrees>
            </Position>
            <AltitudeMeters>758.20001220703125</AltitudeMeters>
            <DistanceMeters>NAN</DistanceMeters>
          </Trackpoint>
          <Trackpoint>
            <Time>2022-06-16T08:03:02.000Z</Time>
            <Position>
              <LatitudeDegrees>36.805831007659435272216796875</LatitudeDegrees>
              <LongitudeDegrees>-4.38335875980556011199951171875</LongitudeDegrees>
            </Position>
            <AltitudeMeters>758</AltitudeMeters>
            <DistanceMeters>NAN</DistanceMeters>
          </Trackpoint>
          <Trackpoint>
            <Time>2022-06-16T08:03:10.000Z</Time>
            <Position>
              <LatitudeDegrees>36.80583201348781585693359375</LatitudeDegrees>
              <LongitudeDegrees>-4.38324376009404659271240234375</LongitudeDegrees>
            </Position>
            <AltitudeMeters>758.5999755859375</AltitudeMeters>
            <DistanceMeters>NAN</DistanceMeters>
          </Trackpoint>
          <Trackpoint>
            <Time>2022-06-16T08:03:20.000Z</Time>
            <Position>
              <LatitudeDegrees>36.80584182031452655792236328125</LatitudeDegrees>
              <LongitudeDegrees>-4.383092634379863739013671875</LongitudeDegrees>
            </Position>
            <AltitudeMeters>761</AltitudeMeters>
            <DistanceMeters>NAN</DistanceMeters>
          </Trackpoint>
          <Trackpoint>
            <Time>2022-06-16T08:03:30.000Z</Time>
            <Position>
              <LatitudeDegrees>36.8058539740741252899169921875</LatitudeDegrees>
              <LongitudeDegrees>-4.38295441679656505584716796875</LongitudeDegrees>
            </Position>
            <AltitudeMeters>762.5999755859375</AltitudeMeters>
            <DistanceMeters>NAN</DistanceMeters>
          </Trackpoint>
          <Trackpoint>
            <Time>2022-06-16T08:03:34.000Z</Time>
            <Position>
              <LatitudeDegrees>36.805875599384307861328125</LatitudeDegrees>
              <LongitudeDegrees>-4.38289088197052478790283203125</LongitudeDegrees>
            </Position>
            <AltitudeMeters>763.79998779296875</AltitudeMeters>
            <DistanceMeters>NAN</DistanceMeters>
          </Trackpoint>
          <Trackpoint>
            <Time>2022-06-16T08:03:37.000Z</Time>
            <Position>
              <LatitudeDegrees>36.80588725022971630096435546875</LatitudeDegrees>
              <LongitudeDegrees>-4.3828490562736988067626953125</LongitudeDegrees>
            </Position>
            <AltitudeMeters>764.4000244140625</AltitudeMeters>
            <DistanceMeters>NAN</DistanceMeters>
          </Trackpoint>
          <Trackpoint>
            <Time>2022-06-16T08:03:40.000Z</Time>
            <Position>
              <LatitudeDegrees>36.80589395575225353240966796875</LatitudeDegrees>
              <LongitudeDegrees>-4.38281963579356670379638671875</LongitudeDegrees>
            </Position>
            <AltitudeMeters>764.79998779296875</AltitudeMeters>
            <DistanceMeters>NAN</DistanceMeters>
          </Trackpoint>
          <Trackpoint>
            <Time>2022-06-16T08:03:46.000Z</Time>
            <Position>
              <LatitudeDegrees>36.805924214422702789306640625</LatitudeDegrees>
              <LongitudeDegrees>-4.38276465050876140594482421875</LongitudeDegrees>
            </Position>
            <AltitudeMeters>765.79998779296875</AltitudeMeters>
            <DistanceMeters>NAN</DistanceMeters>
          </Trackpoint>
          <Trackpoint>
            <Time>2022-06-16T08:03:50.000Z</Time>
            <Position>
              <LatitudeDegrees>36.80595028214156627655029296875</LatitudeDegrees>
              <LongitudeDegrees>-4.3827223218977451324462890625</LongitudeDegrees>
            </Position>
            <AltitudeMeters>766.4000244140625</AltitudeMeters>
            <DistanceMeters>NAN</DistanceMeters>
          </Trackpoint>
          <Trackpoint>
            <Time>2022-06-16T08:03:56.000Z</Time>
            <Position>
              <LatitudeDegrees>36.80596922524273395538330078125</LatitudeDegrees>
              <LongitudeDegrees>-4.382683932781219482421875</LongitudeDegrees>
            </Position>
            <AltitudeMeters>767.20001220703125</AltitudeMeters>
            <DistanceMeters>NAN</DistanceMeters>
          </Trackpoint>
          <Trackpoint>
            <Time>2022-06-16T08:03:57.000Z</Time>
            <Position>
              <LatitudeDegrees>36.80597542785108089447021484375</LatitudeDegrees>
              <LongitudeDegrees>-4.38267496414482593536376953125</LongitudeDegrees>
            </Position>
            <AltitudeMeters>767.20001220703125</AltitudeMeters>
            <DistanceMeters>NAN</DistanceMeters>
          </Trackpoint>
          <Trackpoint>
            <Time>2022-06-16T08:04:00.000Z</Time>
            <Position>
              <LatitudeDegrees>36.80599789135158061981201171875</LatitudeDegrees>
              <LongitudeDegrees>-4.382650740444660186767578125</LongitudeDegrees>
            </Position>
            <AltitudeMeters>767.79998779296875</AltitudeMeters>
            <DistanceMeters>NAN</DistanceMeters>
          </Trackpoint>
          <Trackpoint>
            <Time>2022-06-16T08:04:04.000Z</Time>
            <Position>
              <LatitudeDegrees>36.8060236237943172454833984375</LatitudeDegrees>
              <LongitudeDegrees>-4.38260472379624843597412109375</LongitudeDegrees>
            </Position>
            <AltitudeMeters>768.5999755859375</AltitudeMeters>
            <DistanceMeters>NAN</DistanceMeters>
          </Trackpoint>
          <Trackpoint>
            <Time>2022-06-16T08:04:08.000Z</Time>
            <Position>
              <LatitudeDegrees>36.80605019442737102508544921875</LatitudeDegrees>
              <LongitudeDegrees>-4.3825647421181201934814453125</LongitudeDegrees>
            </Position>
            <AltitudeMeters>769.20001220703125</AltitudeMeters>
            <DistanceMeters>NAN</DistanceMeters>
          </Trackpoint>
          <Trackpoint>
            <Time>2022-06-16T08:04:10.000Z</Time>
            <Position>
              <LatitudeDegrees>36.806061677634716033935546875</LatitudeDegrees>
              <LongitudeDegrees>-4.3825436197221279144287109375</LongitudeDegrees>
            </Position>
            <AltitudeMeters>769.5999755859375</AltitudeMeters>
            <DistanceMeters>NAN</DistanceMeters>
          </Trackpoint>
          <Trackpoint>
            <Time>2022-06-16T08:04:18.000Z</Time>
            <Position>
              <LatitudeDegrees>36.80611104704439640045166015625</LatitudeDegrees>
              <LongitudeDegrees>-4.38245250843465328216552734375</LongitudeDegrees>
            </Position>
            <AltitudeMeters>771.4000244140625</AltitudeMeters>
            <DistanceMeters>NAN</DistanceMeters>
          </Trackpoint>
          <Trackpoint>
            <Time>2022-06-16T08:04:20.000Z</Time>
            <Position>
              <LatitudeDegrees>36.806118004024028778076171875</LatitudeDegrees>
              <LongitudeDegrees>-4.3824286200106143951416015625</LongitudeDegrees>
            </Position>
            <AltitudeMeters>771.79998779296875</AltitudeMeters>
            <DistanceMeters>NAN</DistanceMeters>
          </Trackpoint>
          <Trackpoint>
            <Time>2022-06-16T08:04:30.000Z</Time>
            <Position>
              <LatitudeDegrees>36.80616267956793308258056640625</LatitudeDegrees>
              <LongitudeDegrees>-4.3823075853288173675537109375</LongitudeDegrees>
            </Position>
            <AltitudeMeters>774.4000244140625</AltitudeMeters>
            <DistanceMeters>NAN</DistanceMeters>
          </Trackpoint>
          <Trackpoint>
            <Time>2022-06-16T08:04:40.000Z</Time>
            <Position>
              <LatitudeDegrees>36.80617843754589557647705078125</LatitudeDegrees>
              <LongitudeDegrees>-4.38217288814485073089599609375</LongitudeDegrees>
            </Position>
            <AltitudeMeters>777</AltitudeMeters>
            <DistanceMeters>NAN</DistanceMeters>
          </Trackpoint>
          <Trackpoint>
            <Time>2022-06-16T08:04:45.000Z</Time>
            <Position>
              <LatitudeDegrees>36.8061909265816211700439453125</LatitudeDegrees>
              <LongitudeDegrees>-4.38210499472916126251220703125</LongitudeDegrees>
            </Position>
            <AltitudeMeters>778.4000244140625</AltitudeMeters>
            <DistanceMeters>NAN</DistanceMeters>
          </Trackpoint>
          <Trackpoint>
            <Time>2022-06-16T08:04:50.000Z</Time>
            <Position>
              <LatitudeDegrees>36.80619536899030208587646484375</LatitudeDegrees>
              <LongitudeDegrees>-4.382034502923488616943359375</LongitudeDegrees>
            </Position>
            <AltitudeMeters>779.79998779296875</AltitudeMeters>
            <DistanceMeters>NAN</DistanceMeters>
          </Trackpoint>
          <Trackpoint>
            <Time>2022-06-16T08:04:58.000Z</Time>
            <Position>
              <LatitudeDegrees>36.806189753115177154541015625</LatitudeDegrees>
              <LongitudeDegrees>-4.38192076049745082855224609375</LongitudeDegrees>
            </Position>
            <AltitudeMeters>781.79998779296875</AltitudeMeters>
            <DistanceMeters>NAN</DistanceMeters>
          </Trackpoint>
          <Trackpoint>
            <Time>2022-06-16T08:05:00.000Z</Time>
            <Position>
              <LatitudeDegrees>36.806187741458415985107421875</LatitudeDegrees>
              <LongitudeDegrees>-4.38189192675054073333740234375</LongitudeDegrees>
            </Position>
            <AltitudeMeters>782.20001220703125</AltitudeMeters>
            <DistanceMeters>NAN</DistanceMeters>
          </Trackpoint>
          <Trackpoint>
            <Time>2022-06-16T08:05:09.000Z</Time>
            <Position>
              <LatitudeDegrees>36.8061423115432262420654296875</LatitudeDegrees>
              <LongitudeDegrees>-4.3817758373916149139404296875</LongitudeDegrees>
            </Position>
            <AltitudeMeters>782.79998779296875</AltitudeMeters>
            <DistanceMeters>NAN</DistanceMeters>
          </Trackpoint>
          <Trackpoint>
            <Time>2022-06-16T08:05:10.000Z</Time>
            <Position>
              <LatitudeDegrees>36.806137450039386749267578125</LatitudeDegrees>
              <LongitudeDegrees>-4.3817630968987941741943359375</LongitudeDegrees>
            </Position>
            <AltitudeMeters>782.79998779296875</AltitudeMeters>
            <DistanceMeters>NAN</DistanceMeters>
          </Trackpoint>
          <Trackpoint>
            <Time>2022-06-16T08:05:13.000Z</Time>
            <Position>
              <LatitudeDegrees>36.80612361989915370941162109375</LatitudeDegrees>
              <LongitudeDegrees>-4.38172646798193454742431640625</LongitudeDegrees>
            </Position>
            <AltitudeMeters>783</AltitudeMeters>
            <DistanceMeters>NAN</DistanceMeters>
          </Trackpoint>
          <Trackpoint>
            <Time>2022-06-16T08:05:15.000Z</Time>
            <Position>
              <LatitudeDegrees>36.8061124719679355621337890625</LatitudeDegrees>
              <LongitudeDegrees>-4.3817024119198322296142578125</LongitudeDegrees>
            </Position>
            <AltitudeMeters>783.20001220703125</AltitudeMeters>
            <DistanceMeters>NAN</DistanceMeters>
          </Trackpoint>
          <Trackpoint>
            <Time>2022-06-16T08:05:17.000Z</Time>
            <Position>
              <LatitudeDegrees>36.8060997314751148223876953125</LatitudeDegrees>
              <LongitudeDegrees>-4.3816819600760936737060546875</LongitudeDegrees>
            </Position>
            <AltitudeMeters>783.20001220703125</AltitudeMeters>
            <DistanceMeters>NAN</DistanceMeters>
          </Trackpoint>
          <Trackpoint>
            <Time>2022-06-16T08:05:18.000Z</Time>
            <Position>
              <LatitudeDegrees>36.80609352886676788330078125</LatitudeDegrees>
              <LongitudeDegrees>-4.381669051945209503173828125</LongitudeDegrees>
            </Position>
            <AltitudeMeters>783.20001220703125</AltitudeMeters>
            <DistanceMeters>NAN</DistanceMeters>
          </Trackpoint>
          <Trackpoint>
            <Time>2022-06-16T08:05:19.000Z</Time>
            <Position>
              <LatitudeDegrees>36.80608640424907207489013671875</LatitudeDegrees>
              <LongitudeDegrees>-4.38165840692818164825439453125</LongitudeDegrees>
            </Position>
            <AltitudeMeters>783.20001220703125</AltitudeMeters>
            <DistanceMeters>NAN</DistanceMeters>
          </Trackpoint>
          <Trackpoint>
            <Time>2022-06-16T08:05:20.000Z</Time>
            <Position>
              <LatitudeDegrees>36.806081123650074005126953125</LatitudeDegrees>
              <LongitudeDegrees>-4.38164600171148777008056640625</LongitudeDegrees>
            </Position>
            <AltitudeMeters>783.4000244140625</AltitudeMeters>
            <DistanceMeters>NAN</DistanceMeters>
          </Trackpoint>
          <Trackpoint>
            <Time>2022-06-16T08:05:23.000Z</Time>
            <Position>
              <LatitudeDegrees>36.806073747575283050537109375</LatitudeDegrees>
              <LongitudeDegrees>-4.38161314465105533599853515625</LongitudeDegrees>
            </Position>
            <AltitudeMeters>783.5999755859375</AltitudeMeters>
            <DistanceMeters>NAN</DistanceMeters>
          </Trackpoint>
          <Trackpoint>
            <Time>2022-06-16T08:05:24.000Z</Time>
            <Position>
              <LatitudeDegrees>36.80607165209949016571044921875</LatitudeDegrees>
              <LongitudeDegrees>-4.38160325400531291961669921875</LongitudeDegrees>
            </Position>
            <AltitudeMeters>783.5999755859375</AltitudeMeters>
            <DistanceMeters>NAN</DistanceMeters>
          </Trackpoint>
          <Trackpoint>
            <Time>2022-06-16T08:05:30.000Z</Time>
            <Position>
              <LatitudeDegrees>36.80608489550650119781494140625</LatitudeDegrees>
              <LongitudeDegrees>-4.3815391324460506439208984375</LongitudeDegrees>
            </Position>
            <AltitudeMeters>784.5999755859375</AltitudeMeters>
            <DistanceMeters>NAN</DistanceMeters>
          </Trackpoint>
          <Trackpoint>
            <Time>2022-06-16T08:05:36.000Z</Time>
            <Position>
              <LatitudeDegrees>36.806104592978954315185546875</LatitudeDegrees>
              <LongitudeDegrees>-4.38146428205072879791259765625</LongitudeDegrees>
            </Position>
            <AltitudeMeters>785.79998779296875</AltitudeMeters>
            <DistanceMeters>NAN</DistanceMeters>
          </Trackpoint>
          <Trackpoint>
            <Time>2022-06-16T08:05:40.000Z</Time>
            <Position>
              <LatitudeDegrees>36.80612211115658283233642578125</LatitudeDegrees>
              <LongitudeDegrees>-4.381414242088794708251953125</LongitudeDegrees>
            </Position>
            <AltitudeMeters>787</AltitudeMeters>
            <DistanceMeters>NAN</DistanceMeters>
          </Trackpoint>
          <Trackpoint>
            <Time>2022-06-16T08:05:50.000Z</Time>
            <Position>
              <LatitudeDegrees>36.8061651103198528289794921875</LatitudeDegrees>
              <LongitudeDegrees>-4.3813024275004863739013671875</LongitudeDegrees>
            </Position>
            <AltitudeMeters>790</AltitudeMeters>
            <DistanceMeters>NAN</DistanceMeters>
          </Trackpoint>
          <Trackpoint>
            <Time>2022-06-16T08:06:00.000Z</Time>
            <Position>
              <LatitudeDegrees>36.8062040023505687713623046875</LatitudeDegrees>
              <LongitudeDegrees>-4.38118935562670230865478515625</LongitudeDegrees>
            </Position>
            <AltitudeMeters>792.20001220703125</AltitudeMeters>
            <DistanceMeters>NAN</DistanceMeters>
          </Trackpoint>
          <Trackpoint>
            <Time>2022-06-16T08:06:10.000Z</Time>
            <Position>
              <LatitudeDegrees>36.80621682666242122650146484375</LatitudeDegrees>
              <LongitudeDegrees>-4.38106320798397064208984375</LongitudeDegrees>
            </Position>
            <AltitudeMeters>794.4000244140625</AltitudeMeters>
            <DistanceMeters>NAN</DistanceMeters>
          </Trackpoint>
          <Trackpoint>
            <Time>2022-06-16T08:06:20.000Z</Time>
            <Position>
              <LatitudeDegrees>36.806213222444057464599609375</LatitudeDegrees>
              <LongitudeDegrees>-4.380928091704845428466796875</LongitudeDegrees>
            </Position>
            <AltitudeMeters>796.4000244140625</AltitudeMeters>
            <DistanceMeters>NAN</DistanceMeters>
          </Trackpoint>
          <Trackpoint>
            <Time>2022-06-16T08:06:30.000Z</Time>
            <Position>
              <LatitudeDegrees>36.80620391853153705596923828125</LatitudeDegrees>
              <LongitudeDegrees>-4.3807840906083583831787109375</LongitudeDegrees>
            </Position>
            <AltitudeMeters>799</AltitudeMeters>
            <DistanceMeters>NAN</DistanceMeters>
          </Trackpoint>
          <Trackpoint>
            <Time>2022-06-16T08:06:39.000Z</Time>
            <Position>
              <LatitudeDegrees>36.8062103725969791412353515625</LatitudeDegrees>
              <LongitudeDegrees>-4.380665905773639678955078125</LongitudeDegrees>
            </Position>
            <AltitudeMeters>800.79998779296875</AltitudeMeters>
            <DistanceMeters>NAN</DistanceMeters>
          </Trackpoint>
          <Trackpoint>
            <Time>2022-06-16T08:06:40.000Z</Time>
            <Position>
              <LatitudeDegrees>36.80621154606342315673828125</LatitudeDegrees>
              <LongitudeDegrees>-4.38065291382372379302978515625</LongitudeDegrees>
            </Position>
            <AltitudeMeters>801</AltitudeMeters>
            <DistanceMeters>NAN</DistanceMeters>
          </Trackpoint>
          <Trackpoint>
            <Time>2022-06-16T08:06:44.000Z</Time>
            <Position>
              <LatitudeDegrees>36.80621883831918239593505859375</LatitudeDegrees>
              <LongitudeDegrees>-4.3805923126637935638427734375</LongitudeDegrees>
            </Position>
            <AltitudeMeters>801.79998779296875</AltitudeMeters>
            <DistanceMeters>NAN</DistanceMeters>
          </Trackpoint>
          <Trackpoint>
            <Time>2022-06-16T08:06:50.000Z</Time>
            <Position>
              <LatitudeDegrees>36.80621917359530925750732421875</LatitudeDegrees>
              <LongitudeDegrees>-4.3805105052888393402099609375</LongitudeDegrees>
            </Position>
            <AltitudeMeters>803</AltitudeMeters>
            <DistanceMeters>NAN</DistanceMeters>
          </Trackpoint>
          <Trackpoint>
            <Time>2022-06-16T08:07:00.000Z</Time>
            <Position>
              <LatitudeDegrees>36.80622386746108531951904296875</LatitudeDegrees>
              <LongitudeDegrees>-4.38036122359335422515869140625</LongitudeDegrees>
            </Position>
            <AltitudeMeters>804.4000244140625</AltitudeMeters>
            <DistanceMeters>NAN</DistanceMeters>
          </Trackpoint>
          <Trackpoint>
            <Time>2022-06-16T08:07:10.000Z</Time>
            <Position>
              <LatitudeDegrees>36.80623576976358890533447265625</LatitudeDegrees>
              <LongitudeDegrees>-4.38021604903042316436767578125</LongitudeDegrees>
            </Position>
            <AltitudeMeters>805.4000244140625</AltitudeMeters>
            <DistanceMeters>NAN</DistanceMeters>
          </Trackpoint>
          <Trackpoint>
            <Time>2022-06-16T08:07:20.000Z</Time>
            <Position>
              <LatitudeDegrees>36.80622789077460765838623046875</LatitudeDegrees>
              <LongitudeDegrees>-4.38007213175296783447265625</LongitudeDegrees>
            </Position>
            <AltitudeMeters>807.79998779296875</AltitudeMeters>
            <DistanceMeters>NAN</DistanceMeters>
          </Trackpoint>
          <Trackpoint>
            <Time>2022-06-16T08:07:30.000Z</Time>
            <Position>
              <LatitudeDegrees>36.8062288127839565277099609375</LatitudeDegrees>
              <LongitudeDegrees>-4.379931986331939697265625</LongitudeDegrees>
            </Position>
            <AltitudeMeters>810.20001220703125</AltitudeMeters>
            <DistanceMeters>NAN</DistanceMeters>
          </Trackpoint>
          <Trackpoint>
            <Time>2022-06-16T08:07:37.000Z</Time>
            <Position>
              <LatitudeDegrees>36.80623291991651058197021484375</LatitudeDegrees>
              <LongitudeDegrees>-4.3798314034938812255859375</LongitudeDegrees>
            </Position>
            <AltitudeMeters>812</AltitudeMeters>
            <DistanceMeters>NAN</DistanceMeters>
          </Trackpoint>
          <Trackpoint>
            <Time>2022-06-16T08:07:40.000Z</Time>
            <Position>
              <LatitudeDegrees>36.80623032152652740478515625</LatitudeDegrees>
              <LongitudeDegrees>-4.3797839619219303131103515625</LongitudeDegrees>
            </Position>
            <AltitudeMeters>813.20001220703125</AltitudeMeters>
            <DistanceMeters>NAN</DistanceMeters>
          </Trackpoint>
          <Trackpoint>
            <Time>2022-06-16T08:07:50.000Z</Time>
            <Position>
              <LatitudeDegrees>36.8062318302690982818603515625</LatitudeDegrees>
              <LongitudeDegrees>-4.3796300701797008514404296875</LongitudeDegrees>
            </Position>
            <AltitudeMeters>817.4000244140625</AltitudeMeters>
            <DistanceMeters>NAN</DistanceMeters>
          </Trackpoint>
          <Trackpoint>
            <Time>2022-06-16T08:08:00.000Z</Time>
            <Position>
              <LatitudeDegrees>36.80626695044338703155517578125</LatitudeDegrees>
              <LongitudeDegrees>-4.37950082123279571533203125</LongitudeDegrees>
            </Position>
            <AltitudeMeters>820</AltitudeMeters>
            <DistanceMeters>NAN</DistanceMeters>
          </Trackpoint>
          <Trackpoint>
            <Time>2022-06-16T08:08:10.000Z</Time>
            <Position>
              <LatitudeDegrees>36.80634221993386745452880859375</LatitudeDegrees>
              <LongitudeDegrees>-4.37939093448221683502197265625</LongitudeDegrees>
            </Position>
            <AltitudeMeters>820.4000244140625</AltitudeMeters>
            <DistanceMeters>NAN</DistanceMeters>
          </Trackpoint>
          <Trackpoint>
            <Time>2022-06-16T08:08:20.000Z</Time>
            <Position>
              <LatitudeDegrees>36.806447915732860565185546875</LatitudeDegrees>
              <LongitudeDegrees>-4.37931214459240436553955078125</LongitudeDegrees>
            </Position>
            <AltitudeMeters>818.4000244140625</AltitudeMeters>
            <DistanceMeters>NAN</DistanceMeters>
          </Trackpoint>
          <Trackpoint>
            <Time>2022-06-16T08:08:30.000Z</Time>
            <Position>
              <LatitudeDegrees>36.80654170922935009002685546875</LatitudeDegrees>
              <LongitudeDegrees>-4.37921625562012195587158203125</LongitudeDegrees>
            </Position>
            <AltitudeMeters>817.4000244140625</AltitudeMeters>
            <DistanceMeters>NAN</DistanceMeters>
          </Trackpoint>
          <Trackpoint>
            <Time>2022-06-16T08:08:40.000Z</Time>
            <Position>
              <LatitudeDegrees>36.80662184022367000579833984375</LatitudeDegrees>
              <LongitudeDegrees>-4.37913461588323116302490234375</LongitudeDegrees>
            </Position>
            <AltitudeMeters>816.5999755859375</AltitudeMeters>
            <DistanceMeters>NAN</DistanceMeters>
          </Trackpoint>
          <Trackpoint>
            <Time>2022-06-16T08:08:50.000Z</Time>
            <Position>
              <LatitudeDegrees>36.80666240863502025604248046875</LatitudeDegrees>
              <LongitudeDegrees>-4.379027076065540313720703125</LongitudeDegrees>
            </Position>
            <AltitudeMeters>818.20001220703125</AltitudeMeters>
            <DistanceMeters>NAN</DistanceMeters>
          </Trackpoint>
          <Trackpoint>
            <Time>2022-06-16T08:09:00.000Z</Time>
            <Position>
              <LatitudeDegrees>36.8066869676113128662109375</LatitudeDegrees>
              <LongitudeDegrees>-4.37891752459108829498291015625</LongitudeDegrees>
            </Position>
            <AltitudeMeters>820.79998779296875</AltitudeMeters>
            <DistanceMeters>NAN</DistanceMeters>
          </Trackpoint>
          <Trackpoint>
            <Time>2022-06-16T08:09:10.000Z</Time>
            <Position>
              <LatitudeDegrees>36.80675192736089229583740234375</LatitudeDegrees>
              <LongitudeDegrees>-4.37876279465854167938232421875</LongitudeDegrees>
            </Position>
            <AltitudeMeters>823</AltitudeMeters>
            <DistanceMeters>NAN</DistanceMeters>
          </Trackpoint>
          <Trackpoint>
            <Time>2022-06-16T08:09:20.000Z</Time>
            <Position>
              <LatitudeDegrees>36.80685133673250675201416015625</LatitudeDegrees>
              <LongitudeDegrees>-4.378630779683589935302734375</LongitudeDegrees>
            </Position>
            <AltitudeMeters>825.20001220703125</AltitudeMeters>
            <DistanceMeters>NAN</DistanceMeters>
          </Trackpoint>
          <Trackpoint>
            <Time>2022-06-16T08:09:30.000Z</Time>
            <Position>
              <LatitudeDegrees>36.80696683935821056365966796875</LatitudeDegrees>
              <LongitudeDegrees>-4.37861812300980091094970703125</LongitudeDegrees>
            </Position>
            <AltitudeMeters>823</AltitudeMeters>
            <DistanceMeters>NAN</DistanceMeters>
          </Trackpoint>
          <Trackpoint>
            <Time>2022-06-16T08:09:40.000Z</Time>
            <Position>
              <LatitudeDegrees>36.8070812523365020751953125</LatitudeDegrees>
              <LongitudeDegrees>-4.37863354571163654327392578125</LongitudeDegrees>
            </Position>
            <AltitudeMeters>819.79998779296875</AltitudeMeters>
            <DistanceMeters>NAN</DistanceMeters>
          </Trackpoint>
          <Trackpoint>
            <Time>2022-06-16T08:09:48.000Z</Time>
            <Position>
              <LatitudeDegrees>36.80715836584568023681640625</LatitudeDegrees>
              <LongitudeDegrees>-4.37860722653567790985107421875</LongitudeDegrees>
            </Position>
            <AltitudeMeters>819.20001220703125</AltitudeMeters>
            <DistanceMeters>NAN</DistanceMeters>
          </Trackpoint>
          <Trackpoint>
            <Time>2022-06-16T08:09:50.000Z</Time>
            <Position>
              <LatitudeDegrees>36.8071913905441761016845703125</LatitudeDegrees>
              <LongitudeDegrees>-4.37858979217708110809326171875</LongitudeDegrees>
            </Position>
            <AltitudeMeters>819</AltitudeMeters>
            <DistanceMeters>NAN</DistanceMeters>
          </Trackpoint>
          <Trackpoint>
            <Time>2022-06-16T08:10:00.000Z</Time>
            <Position>
              <LatitudeDegrees>36.80730882100760936737060546875</LatitudeDegrees>
              <LongitudeDegrees>-4.378522150218486785888671875</LongitudeDegrees>
            </Position>
            <AltitudeMeters>819.20001220703125</AltitudeMeters>
            <DistanceMeters>NAN</DistanceMeters>
          </Trackpoint>
          <Trackpoint>
            <Time>2022-06-16T08:10:10.000Z</Time>
            <Position>
              <LatitudeDegrees>36.807427592575550079345703125</LatitudeDegrees>
              <LongitudeDegrees>-4.3785166181623935699462890625</LongitudeDegrees>
            </Position>
            <AltitudeMeters>817.4000244140625</AltitudeMeters>
            <DistanceMeters>NAN</DistanceMeters>
          </Trackpoint>
          <Trackpoint>
            <Time>2022-06-16T08:10:13.000Z</Time>
            <Position>
              <LatitudeDegrees>36.80745550431311130523681640625</LatitudeDegrees>
              <LongitudeDegrees>-4.37853329814970493316650390625</LongitudeDegrees>
            </Position>
            <AltitudeMeters>816.20001220703125</AltitudeMeters>
            <DistanceMeters>NAN</DistanceMeters>
          </Trackpoint>
          <Trackpoint>
            <Time>2022-06-16T08:10:16.000Z</Time>
            <Position>
              <LatitudeDegrees>36.807485930621623992919921875</LatitudeDegrees>
              <LongitudeDegrees>-4.37855894677340984344482421875</LongitudeDegrees>
            </Position>
            <AltitudeMeters>814.5999755859375</AltitudeMeters>
            <DistanceMeters>NAN</DistanceMeters>
          </Trackpoint>
          <Trackpoint>
            <Time>2022-06-16T08:10:18.000Z</Time>
            <Position>
              <LatitudeDegrees>36.80750437080860137939453125</LatitudeDegrees>
              <LongitudeDegrees>-4.37857755459845066070556640625</LongitudeDegrees>
            </Position>
            <AltitudeMeters>813.4000244140625</AltitudeMeters>
            <DistanceMeters>NAN</DistanceMeters>
          </Trackpoint>
          <Trackpoint>
            <Time>2022-06-16T08:10:20.000Z</Time>
            <Position>
              <LatitudeDegrees>36.807528845965862274169921875</LatitudeDegrees>
              <LongitudeDegrees>-4.37860320322215557098388671875</LongitudeDegrees>
            </Position>
            <AltitudeMeters>812</AltitudeMeters>
            <DistanceMeters>NAN</DistanceMeters>
          </Trackpoint>
          <Trackpoint>
            <Time>2022-06-16T08:10:30.000Z</Time>
            <Position>
              <LatitudeDegrees>36.807646863162517547607421875</LatitudeDegrees>
              <LongitudeDegrees>-4.3786906264722347259521484375</LongitudeDegrees>
            </Position>
            <AltitudeMeters>808.20001220703125</AltitudeMeters>
            <DistanceMeters>NAN</DistanceMeters>
          </Trackpoint>
          <Trackpoint>
            <Time>2022-06-16T08:10:40.000Z</Time>
            <Position>
              <LatitudeDegrees>36.80778575129806995391845703125</LatitudeDegrees>
              <LongitudeDegrees>-4.3786936439573764801025390625</LongitudeDegrees>
            </Position>
            <AltitudeMeters>808.5999755859375</AltitudeMeters>
            <DistanceMeters>NAN</DistanceMeters>
          </Trackpoint>
          <Trackpoint>
            <Time>2022-06-16T08:10:50.000Z</Time>
            <Position>
              <LatitudeDegrees>36.80792992003262042999267578125</LatitudeDegrees>
              <LongitudeDegrees>-4.3786674924194812774658203125</LongitudeDegrees>
            </Position>
            <AltitudeMeters>810.5999755859375</AltitudeMeters>
            <DistanceMeters>NAN</DistanceMeters>
          </Trackpoint>
          <Trackpoint>
            <Time>2022-06-16T08:10:57.000Z</Time>
            <Position>
              <LatitudeDegrees>36.80802404880523681640625</LatitudeDegrees>
              <LongitudeDegrees>-4.3786190450191497802734375</LongitudeDegrees>
            </Position>
            <AltitudeMeters>812.79998779296875</AltitudeMeters>
            <DistanceMeters>NAN</DistanceMeters>
          </Trackpoint>
          <Trackpoint>
            <Time>2022-06-16T08:11:00.000Z</Time>
            <Position>
              <LatitudeDegrees>36.8080540560185909271240234375</LatitudeDegrees>
              <LongitudeDegrees>-4.37861326150596141815185546875</LongitudeDegrees>
            </Position>
            <AltitudeMeters>813.20001220703125</AltitudeMeters>
            <DistanceMeters>NAN</DistanceMeters>
          </Trackpoint>
          <Trackpoint>
            <Time>2022-06-16T08:11:01.000Z</Time>
            <Position>
              <LatitudeDegrees>36.80806520394980907440185546875</LatitudeDegrees>
              <LongitudeDegrees>-4.37861569225788116455078125</LongitudeDegrees>
            </Position>
            <AltitudeMeters>813.20001220703125</AltitudeMeters>
            <DistanceMeters>NAN</DistanceMeters>
          </Trackpoint>
          <Trackpoint>
            <Time>2022-06-16T08:11:10.000Z</Time>
            <Position>
              <LatitudeDegrees>36.80816310457885265350341796875</LatitudeDegrees>
              <LongitudeDegrees>-4.37870127148926258087158203125</LongitudeDegrees>
            </Position>
            <AltitudeMeters>811.5999755859375</AltitudeMeters>
            <DistanceMeters>NAN</DistanceMeters>
          </Trackpoint>
          <Trackpoint>
            <Time>2022-06-16T08:11:20.000Z</Time>
            <Position>
              <LatitudeDegrees>36.80823334492743015289306640625</LatitudeDegrees>
              <LongitudeDegrees>-4.3788290955126285552978515625</LongitudeDegrees>
            </Position>
            <AltitudeMeters>809.20001220703125</AltitudeMeters>
            <DistanceMeters>NAN</DistanceMeters>
          </Trackpoint>
          <Trackpoint>
            <Time>2022-06-16T08:11:30.000Z</Time>
            <Position>
              <LatitudeDegrees>36.80830090306699275970458984375</LatitudeDegrees>
              <LongitudeDegrees>-4.37893596477806568145751953125</LongitudeDegrees>
            </Position>
            <AltitudeMeters>807.20001220703125</AltitudeMeters>
            <DistanceMeters>NAN</DistanceMeters>
          </Trackpoint>
          <Trackpoint>
            <Time>2022-06-16T08:11:39.000Z</Time>
            <Position>
              <LatitudeDegrees>36.80837533436715602874755859375</LatitudeDegrees>
              <LongitudeDegrees>-4.3790634535253047943115234375</LongitudeDegrees>
            </Position>
            <AltitudeMeters>805</AltitudeMeters>
            <DistanceMeters>NAN</DistanceMeters>
          </Trackpoint>
          <Trackpoint>
            <Time>2022-06-16T08:11:40.000Z</Time>
            <Position>
              <LatitudeDegrees>36.80838145315647125244140625</LatitudeDegrees>
              <LongitudeDegrees>-4.3790768645703792572021484375</LongitudeDegrees>
            </Position>
            <AltitudeMeters>804.79998779296875</AltitudeMeters>
            <DistanceMeters>NAN</DistanceMeters>
          </Trackpoint>
          <Trackpoint>
            <Time>2022-06-16T08:11:50.000Z</Time>
            <Position>
              <LatitudeDegrees>36.80844725109636783599853515625</LatitudeDegrees>
              <LongitudeDegrees>-4.3792129866778850555419921875</LongitudeDegrees>
            </Position>
            <AltitudeMeters>802.4000244140625</AltitudeMeters>
            <DistanceMeters>NAN</DistanceMeters>
          </Trackpoint>
          <Trackpoint>
            <Time>2022-06-16T08:11:51.000Z</Time>
            <Position>
              <LatitudeDegrees>36.80845345370471477508544921875</LatitudeDegrees>
              <LongitudeDegrees>-4.37923260033130645751953125</LongitudeDegrees>
            </Position>
            <AltitudeMeters>802</AltitudeMeters>
            <DistanceMeters>NAN</DistanceMeters>
          </Trackpoint>
          <Trackpoint>
            <Time>2022-06-16T08:11:52.000Z</Time>
            <Position>
              <LatitudeDegrees>36.80846066214144229888916015625</LatitudeDegrees>
              <LongitudeDegrees>-4.37924743629992008209228515625</LongitudeDegrees>
            </Position>
            <AltitudeMeters>801.79998779296875</AltitudeMeters>
            <DistanceMeters>NAN</DistanceMeters>
          </Trackpoint>
          <Trackpoint>
            <Time>2022-06-16T08:12:00.000Z</Time>
            <Position>
              <LatitudeDegrees>36.80852218531072139739990234375</LatitudeDegrees>
              <LongitudeDegrees>-4.379341900348663330078125</LongitudeDegrees>
            </Position>
            <AltitudeMeters>800.79998779296875</AltitudeMeters>
            <DistanceMeters>NAN</DistanceMeters>
          </Trackpoint>
          <Trackpoint>
            <Time>2022-06-16T08:12:10.000Z</Time>
            <Position>
              <LatitudeDegrees>36.80861740373075008392333984375</LatitudeDegrees>
              <LongitudeDegrees>-4.37939219176769256591796875</LongitudeDegrees>
            </Position>
            <AltitudeMeters>802.79998779296875</AltitudeMeters>
            <DistanceMeters>NAN</DistanceMeters>
          </Trackpoint>
          <Trackpoint>
            <Time>2022-06-16T08:12:12.000Z</Time>
            <Position>
              <LatitudeDegrees>36.808648668229579925537109375</LatitudeDegrees>
              <LongitudeDegrees>-4.3793779425323009490966796875</LongitudeDegrees>
            </Position>
            <AltitudeMeters>804.20001220703125</AltitudeMeters>
            <DistanceMeters>NAN</DistanceMeters>
          </Trackpoint>
          <Trackpoint>
            <Time>2022-06-16T08:12:15.000Z</Time>
            <Position>
              <LatitudeDegrees>36.80867523886263370513916015625</LatitudeDegrees>
              <LongitudeDegrees>-4.37939194031059741973876953125</LongitudeDegrees>
            </Position>
            <AltitudeMeters>804.79998779296875</AltitudeMeters>
            <DistanceMeters>NAN</DistanceMeters>
          </Trackpoint>
          <Trackpoint>
            <Time>2022-06-16T08:12:17.000Z</Time>
            <Position>
              <LatitudeDegrees>36.80869988165795803070068359375</LatitudeDegrees>
              <LongitudeDegrees>-4.3794175051152706146240234375</LongitudeDegrees>
            </Position>
            <AltitudeMeters>804.79998779296875</AltitudeMeters>
            <DistanceMeters>NAN</DistanceMeters>
          </Trackpoint>
          <Trackpoint>
            <Time>2022-06-16T08:12:18.000Z</Time>
            <Position>
              <LatitudeDegrees>36.80871362797915935516357421875</LatitudeDegrees>
              <LongitudeDegrees>-4.3794185109436511993408203125</LongitudeDegrees>
            </Position>
            <AltitudeMeters>804.5999755859375</AltitudeMeters>
            <DistanceMeters>NAN</DistanceMeters>
          </Trackpoint>
          <Trackpoint>
            <Time>2022-06-16T08:12:20.000Z</Time>
            <Position>
              <LatitudeDegrees>36.80873282253742218017578125</LatitudeDegrees>
              <LongitudeDegrees>-4.37941633164882659912109375</LongitudeDegrees>
            </Position>
            <AltitudeMeters>804.5999755859375</AltitudeMeters>
            <DistanceMeters>NAN</DistanceMeters>
          </Trackpoint>
          <Trackpoint>
            <Time>2022-06-16T08:12:21.000Z</Time>
            <Position>
              <LatitudeDegrees>36.8087415397167205810546875</LatitudeDegrees>
              <LongitudeDegrees>-4.379413314163684844970703125</LongitudeDegrees>
            </Position>
            <AltitudeMeters>804.5999755859375</AltitudeMeters>
            <DistanceMeters>NAN</DistanceMeters>
          </Trackpoint>
          <Trackpoint>
            <Time>2022-06-16T08:12:22.000Z</Time>
            <Position>
              <LatitudeDegrees>36.80875453166663646697998046875</LatitudeDegrees>
              <LongitudeDegrees>-4.37940828502178192138671875</LongitudeDegrees>
            </Position>
            <AltitudeMeters>804.5999755859375</AltitudeMeters>
            <DistanceMeters>NAN</DistanceMeters>
          </Trackpoint>
          <Trackpoint>
            <Time>2022-06-16T08:12:24.000Z</Time>
            <Position>
              <LatitudeDegrees>36.80877783335745334625244140625</LatitudeDegrees>
              <LongitudeDegrees>-4.379395209252834320068359375</LongitudeDegrees>
            </Position>
            <AltitudeMeters>805</AltitudeMeters>
            <DistanceMeters>NAN</DistanceMeters>
          </Trackpoint>
          <Trackpoint>
            <Time>2022-06-16T08:12:25.000Z</Time>
            <Position>
              <LatitudeDegrees>36.8087889812886714935302734375</LatitudeDegrees>
              <LongitudeDegrees>-4.379390180110931396484375</LongitudeDegrees>
            </Position>
            <AltitudeMeters>805.20001220703125</AltitudeMeters>
            <DistanceMeters>NAN</DistanceMeters>
          </Trackpoint>
          <Trackpoint>
            <Time>2022-06-16T08:12:26.000Z</Time>
            <Position>
              <LatitudeDegrees>36.8088023923337459564208984375</LatitudeDegrees>
              <LongitudeDegrees>-4.37938674353063106536865234375</LongitudeDegrees>
            </Position>
            <AltitudeMeters>805.20001220703125</AltitudeMeters>
            <DistanceMeters>NAN</DistanceMeters>
          </Trackpoint>
          <Trackpoint>
            <Time>2022-06-16T08:12:27.000Z</Time>
            <Position>
              <LatitudeDegrees>36.8088124506175518035888671875</LatitudeDegrees>
              <LongitudeDegrees>-4.37938389368355274200439453125</LongitudeDegrees>
            </Position>
            <AltitudeMeters>805.20001220703125</AltitudeMeters>
            <DistanceMeters>NAN</DistanceMeters>
          </Trackpoint>
          <Trackpoint>
            <Time>2022-06-16T08:12:28.000Z</Time>
            <Position>
              <LatitudeDegrees>36.80882208980619907379150390625</LatitudeDegrees>
              <LongitudeDegrees>-4.37937886454164981842041015625</LongitudeDegrees>
            </Position>
            <AltitudeMeters>805.4000244140625</AltitudeMeters>
            <DistanceMeters>NAN</DistanceMeters>
          </Trackpoint>
          <Trackpoint>
            <Time>2022-06-16T08:12:29.000Z</Time>
            <Position>
              <LatitudeDegrees>36.8088315613567829132080078125</LatitudeDegrees>
              <LongitudeDegrees>-4.37937132082879543304443359375</LongitudeDegrees>
            </Position>
            <AltitudeMeters>805.5999755859375</AltitudeMeters>
            <DistanceMeters>NAN</DistanceMeters>
          </Trackpoint>
          <Trackpoint>
            <Time>2022-06-16T08:12:30.000Z</Time>
            <Position>
              <LatitudeDegrees>36.80884136818349361419677734375</LatitudeDegrees>
              <LongitudeDegrees>-4.3793638609349727630615234375</LongitudeDegrees>
            </Position>
            <AltitudeMeters>805.79998779296875</AltitudeMeters>
            <DistanceMeters>NAN</DistanceMeters>
          </Trackpoint>
          <Trackpoint>
            <Time>2022-06-16T08:12:40.000Z</Time>
            <Position>
              <LatitudeDegrees>36.8089569546282291412353515625</LatitudeDegrees>
              <LongitudeDegrees>-4.3792803771793842315673828125</LongitudeDegrees>
            </Position>
            <AltitudeMeters>808.20001220703125</AltitudeMeters>
            <DistanceMeters>NAN</DistanceMeters>
          </Trackpoint>
          <Trackpoint>
            <Time>2022-06-16T08:12:50.000Z</Time>
            <Position>
              <LatitudeDegrees>36.809069775044918060302734375</LatitudeDegrees>
              <LongitudeDegrees>-4.3791938759386539459228515625</LongitudeDegrees>
            </Position>
            <AltitudeMeters>807.79998779296875</AltitudeMeters>
            <DistanceMeters>NAN</DistanceMeters>
          </Trackpoint>
          <Trackpoint>
            <Time>2022-06-16T08:13:00.000Z</Time>
            <Position>
              <LatitudeDegrees>36.8091893009841442108154296875</LatitudeDegrees>
              <LongitudeDegrees>-4.379102177917957305908203125</LongitudeDegrees>
            </Position>
            <AltitudeMeters>806.79998779296875</AltitudeMeters>
            <DistanceMeters>NAN</DistanceMeters>
          </Trackpoint>
          <Trackpoint>
            <Time>2022-06-16T08:13:10.000Z</Time>
            <Position>
              <LatitudeDegrees>36.80927773006260395050048828125</LatitudeDegrees>
              <LongitudeDegrees>-4.3789974041283130645751953125</LongitudeDegrees>
            </Position>
            <AltitudeMeters>806.79998779296875</AltitudeMeters>
            <DistanceMeters>NAN</DistanceMeters>
          </Trackpoint>
          <Trackpoint>
            <Time>2022-06-16T08:13:20.000Z</Time>
            <Position>
              <LatitudeDegrees>36.8093814142048358917236328125</LatitudeDegrees>
              <LongitudeDegrees>-4.378901012241840362548828125</LongitudeDegrees>
            </Position>
            <AltitudeMeters>804.4000244140625</AltitudeMeters>
            <DistanceMeters>NAN</DistanceMeters>
          </Trackpoint>
          <Trackpoint>
            <Time>2022-06-16T08:13:30.000Z</Time>
            <Position>
              <LatitudeDegrees>36.809451319277286529541015625</LatitudeDegrees>
              <LongitudeDegrees>-4.3787415884435176849365234375</LongitudeDegrees>
            </Position>
            <AltitudeMeters>806</AltitudeMeters>
            <DistanceMeters>NAN</DistanceMeters>
          </Trackpoint>
          <Trackpoint>
            <Time>2022-06-16T08:13:40.000Z</Time>
            <Position>
              <LatitudeDegrees>36.80950404144823551177978515625</LatitudeDegrees>
              <LongitudeDegrees>-4.3785975873470306396484375</LongitudeDegrees>
            </Position>
            <AltitudeMeters>807.79998779296875</AltitudeMeters>
            <DistanceMeters>NAN</DistanceMeters>
          </Trackpoint>
          <Trackpoint>
            <Time>2022-06-16T08:13:50.000Z</Time>
            <Position>
              <LatitudeDegrees>36.80958174169063568115234375</LatitudeDegrees>
              <LongitudeDegrees>-4.3784810788929462432861328125</LongitudeDegrees>
            </Position>
            <AltitudeMeters>809.5999755859375</AltitudeMeters>
            <DistanceMeters>NAN</DistanceMeters>
          </Trackpoint>
          <Trackpoint>
            <Time>2022-06-16T08:13:59.000Z</Time>
            <Position>
              <LatitudeDegrees>36.8097012676298618316650390625</LatitudeDegrees>
              <LongitudeDegrees>-4.378502033650875091552734375</LongitudeDegrees>
            </Position>
            <AltitudeMeters>806.20001220703125</AltitudeMeters>
            <DistanceMeters>NAN</DistanceMeters>
          </Trackpoint>
          <Trackpoint>
            <Time>2022-06-16T08:14:00.000Z</Time>
            <Position>
              <LatitudeDegrees>36.809712834656238555908203125</LatitudeDegrees>
              <LongitudeDegrees>-4.3785085715353488922119140625</LongitudeDegrees>
            </Position>
            <AltitudeMeters>805.79998779296875</AltitudeMeters>
            <DistanceMeters>NAN</DistanceMeters>
          </Trackpoint>
          <Trackpoint>
            <Time>2022-06-16T08:14:01.000Z</Time>
            <Position>
              <LatitudeDegrees>36.80972415022552013397216796875</LatitudeDegrees>
              <LongitudeDegrees>-4.3785125948488712310791015625</LongitudeDegrees>
            </Position>
            <AltitudeMeters>805.4000244140625</AltitudeMeters>
            <DistanceMeters>NAN</DistanceMeters>
          </Trackpoint>
          <Trackpoint>
            <Time>2022-06-16T08:14:02.000Z</Time>
            <Position>
              <LatitudeDegrees>36.80973596870899200439453125</LatitudeDegrees>
              <LongitudeDegrees>-4.37851971946656703948974609375</LongitudeDegrees>
            </Position>
            <AltitudeMeters>804.79998779296875</AltitudeMeters>
            <DistanceMeters>NAN</DistanceMeters>
          </Trackpoint>
          <Trackpoint>
            <Time>2022-06-16T08:14:03.000Z</Time>
            <Position>
              <LatitudeDegrees>36.809745021164417266845703125</LatitudeDegrees>
              <LongitudeDegrees>-4.37852474860846996307373046875</LongitudeDegrees>
            </Position>
            <AltitudeMeters>804.4000244140625</AltitudeMeters>
            <DistanceMeters>NAN</DistanceMeters>
          </Trackpoint>
          <Trackpoint>
            <Time>2022-06-16T08:14:04.000Z</Time>
            <Position>
              <LatitudeDegrees>36.80975616909563541412353515625</LatitudeDegrees>
              <LongitudeDegrees>-4.3785340525209903717041015625</LongitudeDegrees>
            </Position>
            <AltitudeMeters>803.79998779296875</AltitudeMeters>
            <DistanceMeters>NAN</DistanceMeters>
          </Trackpoint>
          <Trackpoint>
            <Time>2022-06-16T08:14:06.000Z</Time>
            <Position>
              <LatitudeDegrees>36.80978165008127689361572265625</LatitudeDegrees>
              <LongitudeDegrees>-4.3785518221557140350341796875</LongitudeDegrees>
            </Position>
            <AltitudeMeters>802.5999755859375</AltitudeMeters>
            <DistanceMeters>NAN</DistanceMeters>
          </Trackpoint>
          <Trackpoint>
            <Time>2022-06-16T08:14:08.000Z</Time>
            <Position>
              <LatitudeDegrees>36.80981785990297794342041015625</LatitudeDegrees>
              <LongitudeDegrees>-4.378563053905963897705078125</LongitudeDegrees>
            </Position>
            <AltitudeMeters>801.5999755859375</AltitudeMeters>
            <DistanceMeters>NAN</DistanceMeters>
          </Trackpoint>
          <Trackpoint>
            <Time>2022-06-16T08:14:10.000Z</Time>
            <Position>
              <LatitudeDegrees>36.80984786711633205413818359375</LatitudeDegrees>
              <LongitudeDegrees>-4.37857671640813350677490234375</LongitudeDegrees>
            </Position>
            <AltitudeMeters>800.79998779296875</AltitudeMeters>
            <DistanceMeters>NAN</DistanceMeters>
          </Trackpoint>
          <Trackpoint>
            <Time>2022-06-16T08:14:20.000Z</Time>
            <Position>
              <LatitudeDegrees>36.8099778704345226287841796875</LatitudeDegrees>
              <LongitudeDegrees>-4.37863991595804691314697265625</LongitudeDegrees>
            </Position>
            <AltitudeMeters>797.5999755859375</AltitudeMeters>
            <DistanceMeters>NAN</DistanceMeters>
          </Trackpoint>
          <Trackpoint>
            <Time>2022-06-16T08:14:30.000Z</Time>
            <Position>
              <LatitudeDegrees>36.810093037784099578857421875</LatitudeDegrees>
              <LongitudeDegrees>-4.3785897083580493927001953125</LongitudeDegrees>
            </Position>
            <AltitudeMeters>799.79998779296875</AltitudeMeters>
            <DistanceMeters>NAN</DistanceMeters>
          </Trackpoint>
          <Trackpoint>
            <Time>2022-06-16T08:14:35.000Z</Time>
            <Position>
              <LatitudeDegrees>36.8101626075804233551025390625</LatitudeDegrees>
              <LongitudeDegrees>-4.378564059734344482421875</LongitudeDegrees>
            </Position>
            <AltitudeMeters>801.5999755859375</AltitudeMeters>
            <DistanceMeters>NAN</DistanceMeters>
          </Trackpoint>
          <Trackpoint>
            <Time>2022-06-16T08:14:38.000Z</Time>
            <Position>
              <LatitudeDegrees>36.8101978115737438201904296875</LatitudeDegrees>
              <LongitudeDegrees>-4.3785625509917736053466796875</LongitudeDegrees>
            </Position>
            <AltitudeMeters>802</AltitudeMeters>
            <DistanceMeters>NAN</DistanceMeters>
          </Trackpoint>
          <Trackpoint>
            <Time>2022-06-16T08:14:40.000Z</Time>
            <Position>
              <LatitudeDegrees>36.81021633557975292205810546875</LatitudeDegrees>
              <LongitudeDegrees>-4.37857034616172313690185546875</LongitudeDegrees>
            </Position>
            <AltitudeMeters>802.20001220703125</AltitudeMeters>
            <DistanceMeters>NAN</DistanceMeters>
          </Trackpoint>
          <Trackpoint>
            <Time>2022-06-16T08:14:47.000Z</Time>
            <Position>
              <LatitudeDegrees>36.8103000707924365997314453125</LatitudeDegrees>
              <LongitudeDegrees>-4.3786249123513698577880859375</LongitudeDegrees>
            </Position>
            <AltitudeMeters>801.5999755859375</AltitudeMeters>
            <DistanceMeters>NAN</DistanceMeters>
          </Trackpoint>
          <Trackpoint>
            <Time>2022-06-16T08:14:50.000Z</Time>
            <Position>
              <LatitudeDegrees>36.81033401750028133392333984375</LatitudeDegrees>
              <LongitudeDegrees>-4.37865751795470714569091796875</LongitudeDegrees>
            </Position>
            <AltitudeMeters>801.20001220703125</AltitudeMeters>
            <DistanceMeters>NAN</DistanceMeters>
          </Trackpoint>
          <Trackpoint>
            <Time>2022-06-16T08:14:59.000Z</Time>
            <Position>
              <LatitudeDegrees>36.8104375340044498443603515625</LatitudeDegrees>
              <LongitudeDegrees>-4.37873102724552154541015625</LongitudeDegrees>
            </Position>
            <AltitudeMeters>800.5999755859375</AltitudeMeters>
            <DistanceMeters>NAN</DistanceMeters>
          </Trackpoint>
          <Trackpoint>
            <Time>2022-06-16T08:15:00.000Z</Time>
            <Position>
              <LatitudeDegrees>36.81044876575469970703125</LatitudeDegrees>
              <LongitudeDegrees>-4.37873966060578823089599609375</LongitudeDegrees>
            </Position>
            <AltitudeMeters>800.5999755859375</AltitudeMeters>
            <DistanceMeters>NAN</DistanceMeters>
          </Trackpoint>
          <Trackpoint>
            <Time>2022-06-16T08:15:07.000Z</Time>
            <Position>
              <LatitudeDegrees>36.81052294559776782989501953125</LatitudeDegrees>
              <LongitudeDegrees>-4.37878743745386600494384765625</LongitudeDegrees>
            </Position>
            <AltitudeMeters>800</AltitudeMeters>
            <DistanceMeters>NAN</DistanceMeters>
          </Trackpoint>
          <Trackpoint>
            <Time>2022-06-16T08:15:10.000Z</Time>
            <Position>
              <LatitudeDegrees>36.81055982597172260284423828125</LatitudeDegrees>
              <LongitudeDegrees>-4.37880503945052623748779296875</LongitudeDegrees>
            </Position>
            <AltitudeMeters>799.79998779296875</AltitudeMeters>
            <DistanceMeters>NAN</DistanceMeters>
          </Trackpoint>
          <Trackpoint>
            <Time>2022-06-16T08:15:20.000Z</Time>
            <Position>
              <LatitudeDegrees>36.81065470911562442779541015625</LatitudeDegrees>
              <LongitudeDegrees>-4.37877402640879154205322265625</LongitudeDegrees>
            </Position>
            <AltitudeMeters>801.5999755859375</AltitudeMeters>
            <DistanceMeters>NAN</DistanceMeters>
          </Trackpoint>
          <Trackpoint>
            <Time>2022-06-16T08:15:30.000Z</Time>
            <Position>
              <LatitudeDegrees>36.81070935912430286407470703125</LatitudeDegrees>
              <LongitudeDegrees>-4.378612339496612548828125</LongitudeDegrees>
            </Position>
            <AltitudeMeters>806.5999755859375</AltitudeMeters>
            <DistanceMeters>NAN</DistanceMeters>
          </Trackpoint>
          <Trackpoint>
            <Time>2022-06-16T08:15:40.000Z</Time>
            <Position>
              <LatitudeDegrees>36.810762919485569000244140625</LatitudeDegrees>
              <LongitudeDegrees>-4.37845082022249698638916015625</LongitudeDegrees>
            </Position>
            <AltitudeMeters>811.5999755859375</AltitudeMeters>
            <DistanceMeters>NAN</DistanceMeters>
          </Trackpoint>
          <Trackpoint>
            <Time>2022-06-16T08:15:50.000Z</Time>
            <Position>
              <LatitudeDegrees>36.8107838742434978485107421875</LatitudeDegrees>
              <LongitudeDegrees>-4.37830732204020023345947265625</LongitudeDegrees>
            </Position>
            <AltitudeMeters>816.5999755859375</AltitudeMeters>
            <DistanceMeters>NAN</DistanceMeters>
          </Trackpoint>
          <Trackpoint>
            <Time>2022-06-16T08:15:53.000Z</Time>
            <Position>
              <LatitudeDegrees>36.81079301051795482635498046875</LatitudeDegrees>
              <LongitudeDegrees>-4.3782685138285160064697265625</LongitudeDegrees>
            </Position>
            <AltitudeMeters>818</AltitudeMeters>
            <DistanceMeters>NAN</DistanceMeters>
          </Trackpoint>
          <Trackpoint>
            <Time>2022-06-16T08:15:54.000Z</Time>
            <Position>
              <LatitudeDegrees>36.81079502217471599578857421875</LatitudeDegrees>
              <LongitudeDegrees>-4.37825501896440982818603515625</LongitudeDegrees>
            </Position>
            <AltitudeMeters>818.4000244140625</AltitudeMeters>
            <DistanceMeters>NAN</DistanceMeters>
          </Trackpoint>
          <Trackpoint>
            <Time>2022-06-16T08:15:58.000Z</Time>
            <Position>
              <LatitudeDegrees>36.8108207546174526214599609375</LatitudeDegrees>
              <LongitudeDegrees>-4.378198273479938507080078125</LongitudeDegrees>
            </Position>
            <AltitudeMeters>820.4000244140625</AltitudeMeters>
            <DistanceMeters>NAN</DistanceMeters>
          </Trackpoint>
          <Trackpoint>
            <Time>2022-06-16T08:16:00.000Z</Time>
            <Position>
              <LatitudeDegrees>36.81083408184349536895751953125</LatitudeDegrees>
              <LongitudeDegrees>-4.37816776335239410400390625</LongitudeDegrees>
            </Position>
            <AltitudeMeters>821.4000244140625</AltitudeMeters>
            <DistanceMeters>NAN</DistanceMeters>
          </Trackpoint>
          <Trackpoint>
            <Time>2022-06-16T08:16:03.000Z</Time>
            <Position>
              <LatitudeDegrees>36.81085034273564815521240234375</LatitudeDegrees>
              <LongitudeDegrees>-4.37812442891299724578857421875</LongitudeDegrees>
            </Position>
            <AltitudeMeters>822.79998779296875</AltitudeMeters>
            <DistanceMeters>NAN</DistanceMeters>
          </Trackpoint>
          <Trackpoint>
            <Time>2022-06-16T08:16:10.000Z</Time>
            <Position>
              <LatitudeDegrees>36.81092477403581142425537109375</LatitudeDegrees>
              <LongitudeDegrees>-4.37804345972836017608642578125</LongitudeDegrees>
            </Position>
            <AltitudeMeters>825.20001220703125</AltitudeMeters>
            <DistanceMeters>NAN</DistanceMeters>
          </Trackpoint>
          <Trackpoint>
            <Time>2022-06-16T08:16:15.000Z</Time>
            <Position>
              <LatitudeDegrees>36.8109877221286296844482421875</LatitudeDegrees>
              <LongitudeDegrees>-4.37803474254906177520751953125</LongitudeDegrees>
            </Position>
            <AltitudeMeters>824.5999755859375</AltitudeMeters>
            <DistanceMeters>NAN</DistanceMeters>
          </Trackpoint>
          <Trackpoint>
            <Time>2022-06-16T08:16:16.000Z</Time>
            <Position>
              <LatitudeDegrees>36.81099819950759410858154296875</LatitudeDegrees>
              <LongitudeDegrees>-4.3780405260622501373291015625</LongitudeDegrees>
            </Position>
            <AltitudeMeters>824.20001220703125</AltitudeMeters>
            <DistanceMeters>NAN</DistanceMeters>
          </Trackpoint>
          <Trackpoint>
            <Time>2022-06-16T08:16:20.000Z</Time>
            <Position>
              <LatitudeDegrees>36.8110296316444873809814453125</LatitudeDegrees>
              <LongitudeDegrees>-4.378073215484619140625</LongitudeDegrees>
            </Position>
            <AltitudeMeters>822.5999755859375</AltitudeMeters>
            <DistanceMeters>NAN</DistanceMeters>
          </Trackpoint>
          <Trackpoint>
            <Time>2022-06-16T08:16:29.000Z</Time>
            <Position>
              <LatitudeDegrees>36.81112174876034259796142578125</LatitudeDegrees>
              <LongitudeDegrees>-4.37814404256641864776611328125</LongitudeDegrees>
            </Position>
            <AltitudeMeters>819</AltitudeMeters>
            <DistanceMeters>NAN</DistanceMeters>
          </Trackpoint>
          <Trackpoint>
            <Time>2022-06-16T08:16:30.000Z</Time>
            <Position>
              <LatitudeDegrees>36.8111345730721950531005859375</LatitudeDegrees>
              <LongitudeDegrees>-4.3781518377363681793212890625</LongitudeDegrees>
            </Position>
            <AltitudeMeters>818.79998779296875</AltitudeMeters>
            <DistanceMeters>NAN</DistanceMeters>
          </Trackpoint>
          <Trackpoint>
            <Time>2022-06-16T08:16:38.000Z</Time>
            <Position>
              <LatitudeDegrees>36.81121394969522953033447265625</LatitudeDegrees>
              <LongitudeDegrees>-4.37822400592267513275146484375</LongitudeDegrees>
            </Position>
            <AltitudeMeters>816.20001220703125</AltitudeMeters>
            <DistanceMeters>NAN</DistanceMeters>
          </Trackpoint>
          <Trackpoint>
            <Time>2022-06-16T08:16:39.000Z</Time>
            <Position>
              <LatitudeDegrees>36.81122300215065479278564453125</LatitudeDegrees>
              <LongitudeDegrees>-4.378235153853893280029296875</LongitudeDegrees>
            </Position>
            <AltitudeMeters>816</AltitudeMeters>
            <DistanceMeters>NAN</DistanceMeters>
          </Trackpoint>
          <Trackpoint>
            <Time>2022-06-16T08:16:40.000Z</Time>
            <Position>
              <LatitudeDegrees>36.811233647167682647705078125</LatitudeDegrees>
              <LongitudeDegrees>-4.37824177555739879608154296875</LongitudeDegrees>
            </Position>
            <AltitudeMeters>816</AltitudeMeters>
            <DistanceMeters>NAN</DistanceMeters>
          </Trackpoint>
          <Trackpoint>
            <Time>2022-06-16T08:16:41.000Z</Time>
            <Position>
              <LatitudeDegrees>36.81124395690858364105224609375</LatitudeDegrees>
              <LongitudeDegrees>-4.37824546359479427337646484375</LongitudeDegrees>
            </Position>
            <AltitudeMeters>815.79998779296875</AltitudeMeters>
            <DistanceMeters>NAN</DistanceMeters>
          </Trackpoint>
          <Trackpoint>
            <Time>2022-06-16T08:16:47.000Z</Time>
            <Position>
              <LatitudeDegrees>36.8113149516284465789794921875</LatitudeDegrees>
              <LongitudeDegrees>-4.3782732076942920684814453125</LongitudeDegrees>
            </Position>
            <AltitudeMeters>816</AltitudeMeters>
            <DistanceMeters>NAN</DistanceMeters>
          </Trackpoint>
          <Trackpoint>
            <Time>2022-06-16T08:16:48.000Z</Time>
            <Position>
              <LatitudeDegrees>36.8113245069980621337890625</LatitudeDegrees>
              <LongitudeDegrees>-4.3782705254852771759033203125</LongitudeDegrees>
            </Position>
            <AltitudeMeters>816.20001220703125</AltitudeMeters>
            <DistanceMeters>NAN</DistanceMeters>
          </Trackpoint>
          <Trackpoint>
            <Time>2022-06-16T08:16:49.000Z</Time>
            <Position>
              <LatitudeDegrees>36.81133297272026538848876953125</LatitudeDegrees>
              <LongitudeDegrees>-4.37826809473335742950439453125</LongitudeDegrees>
            </Position>
            <AltitudeMeters>816.20001220703125</AltitudeMeters>
            <DistanceMeters>NAN</DistanceMeters>
          </Trackpoint>
          <Trackpoint>
            <Time>2022-06-16T08:16:50.000Z</Time>
            <Position>
              <LatitudeDegrees>36.81134453974664211273193359375</LatitudeDegrees>
              <LongitudeDegrees>-4.3782628141343593597412109375</LongitudeDegrees>
            </Position>
            <AltitudeMeters>816.5999755859375</AltitudeMeters>
            <DistanceMeters>NAN</DistanceMeters>
          </Trackpoint>
          <Trackpoint>
            <Time>2022-06-16T08:17:00.000Z</Time>
            <Position>
              <LatitudeDegrees>36.81144990026950836181640625</LatitudeDegrees>
              <LongitudeDegrees>-4.3782735429704189300537109375</LongitudeDegrees>
            </Position>
            <AltitudeMeters>817.4000244140625</AltitudeMeters>
            <DistanceMeters>NAN</DistanceMeters>
          </Trackpoint>
          <Trackpoint>
            <Time>2022-06-16T08:17:10.000Z</Time>
            <Position>
              <LatitudeDegrees>36.8115737847983837127685546875</LatitudeDegrees>
              <LongitudeDegrees>-4.37829491682350635528564453125</LongitudeDegrees>
            </Position>
            <AltitudeMeters>818.5999755859375</AltitudeMeters>
            <DistanceMeters>NAN</DistanceMeters>
          </Trackpoint>
          <Trackpoint>
            <Time>2022-06-16T08:17:20.000Z</Time>
            <Position>
              <LatitudeDegrees>36.8116911314427852630615234375</LatitudeDegrees>
              <LongitudeDegrees>-4.37825786881148815155029296875</LongitudeDegrees>
            </Position>
            <AltitudeMeters>821.20001220703125</AltitudeMeters>
            <DistanceMeters>NAN</DistanceMeters>
          </Trackpoint>
          <Trackpoint>
            <Time>2022-06-16T08:17:30.000Z</Time>
            <Position>
              <LatitudeDegrees>36.811825074255466461181640625</LatitudeDegrees>
              <LongitudeDegrees>-4.37823054380714893341064453125</LongitudeDegrees>
            </Position>
            <AltitudeMeters>823</AltitudeMeters>
            <DistanceMeters>NAN</DistanceMeters>
          </Trackpoint>
          <Trackpoint>
            <Time>2022-06-16T08:17:40.000Z</Time>
            <Position>
              <LatitudeDegrees>36.8119311891496181488037109375</LatitudeDegrees>
              <LongitudeDegrees>-4.378206320106983184814453125</LongitudeDegrees>
            </Position>
            <AltitudeMeters>824.20001220703125</AltitudeMeters>
            <DistanceMeters>NAN</DistanceMeters>
          </Trackpoint>
          <Trackpoint>
            <Time>2022-06-16T08:17:50.000Z</Time>
            <Position>
              <LatitudeDegrees>36.81204744614660739898681640625</LatitudeDegrees>
              <LongitudeDegrees>-4.3781867064535617828369140625</LongitudeDegrees>
            </Position>
            <AltitudeMeters>825.5999755859375</AltitudeMeters>
            <DistanceMeters>NAN</DistanceMeters>
          </Trackpoint>
          <Trackpoint>
            <Time>2022-06-16T08:17:58.000Z</Time>
            <Position>
              <LatitudeDegrees>36.8121333606541156768798828125</LatitudeDegrees>
              <LongitudeDegrees>-4.37819165177643299102783203125</LongitudeDegrees>
            </Position>
            <AltitudeMeters>826.79998779296875</AltitudeMeters>
            <DistanceMeters>NAN</DistanceMeters>
          </Trackpoint>
          <Trackpoint>
            <Time>2022-06-16T08:18:00.000Z</Time>
            <Position>
              <LatitudeDegrees>36.8121608532965183258056640625</LatitudeDegrees>
              <LongitudeDegrees>-4.378187544643878936767578125</LongitudeDegrees>
            </Position>
            <AltitudeMeters>827.20001220703125</AltitudeMeters>
            <DistanceMeters>NAN</DistanceMeters>
          </Trackpoint>
          <Trackpoint>
            <Time>2022-06-16T08:18:02.000Z</Time>
            <Position>
              <LatitudeDegrees>36.81218641810119152069091796875</LatitudeDegrees>
              <LongitudeDegrees>-4.37819014303386211395263671875</LongitudeDegrees>
            </Position>
            <AltitudeMeters>827.4000244140625</AltitudeMeters>
            <DistanceMeters>NAN</DistanceMeters>
          </Trackpoint>
          <Trackpoint>
            <Time>2022-06-16T08:18:10.000Z</Time>
            <Position>
              <LatitudeDegrees>36.81227895431220531463623046875</LatitudeDegrees>
              <LongitudeDegrees>-4.378184862434864044189453125</LongitudeDegrees>
            </Position>
            <AltitudeMeters>828.5999755859375</AltitudeMeters>
            <DistanceMeters>NAN</DistanceMeters>
          </Trackpoint>
          <Trackpoint>
            <Time>2022-06-16T08:18:20.000Z</Time>
            <Position>
              <LatitudeDegrees>36.812404431402683258056640625</LatitudeDegrees>
              <LongitudeDegrees>-4.378220736980438232421875</LongitudeDegrees>
            </Position>
            <AltitudeMeters>828.79998779296875</AltitudeMeters>
            <DistanceMeters>NAN</DistanceMeters>
          </Trackpoint>
          <Trackpoint>
            <Time>2022-06-16T08:18:30.000Z</Time>
            <Position>
              <LatitudeDegrees>36.81252839975059032440185546875</LatitudeDegrees>
              <LongitudeDegrees>-4.37822878360748291015625</LongitudeDegrees>
            </Position>
            <AltitudeMeters>829</AltitudeMeters>
            <DistanceMeters>NAN</DistanceMeters>
          </Trackpoint>
          <Trackpoint>
            <Time>2022-06-16T08:18:38.000Z</Time>
            <Position>
              <LatitudeDegrees>36.81262873113155364990234375</LatitudeDegrees>
              <LongitudeDegrees>-4.3781981058418750762939453125</LongitudeDegrees>
            </Position>
            <AltitudeMeters>829</AltitudeMeters>
            <DistanceMeters>NAN</DistanceMeters>
          </Trackpoint>
          <Trackpoint>
            <Time>2022-06-16T08:18:40.000Z</Time>
            <Position>
              <LatitudeDegrees>36.8126543797552585601806640625</LatitudeDegrees>
              <LongitudeDegrees>-4.37817824073135852813720703125</LongitudeDegrees>
            </Position>
            <AltitudeMeters>829</AltitudeMeters>
            <DistanceMeters>NAN</DistanceMeters>
          </Trackpoint>
          <Trackpoint>
            <Time>2022-06-16T08:18:47.000Z</Time>
            <Position>
              <LatitudeDegrees>36.81270626373589038848876953125</LatitudeDegrees>
              <LongitudeDegrees>-4.37811939977109432220458984375</LongitudeDegrees>
            </Position>
            <AltitudeMeters>829.4000244140625</AltitudeMeters>
            <DistanceMeters>NAN</DistanceMeters>
          </Trackpoint>
          <Trackpoint>
            <Time>2022-06-16T08:18:50.000Z</Time>
            <Position>
              <LatitudeDegrees>36.81272453628480434417724609375</LatitudeDegrees>
              <LongitudeDegrees>-4.37809224240481853485107421875</LongitudeDegrees>
            </Position>
            <AltitudeMeters>829.79998779296875</AltitudeMeters>
            <DistanceMeters>NAN</DistanceMeters>
          </Trackpoint>
          <Trackpoint>
            <Time>2022-06-16T08:18:51.000Z</Time>
            <Position>
              <LatitudeDegrees>36.81273065507411956787109375</LatitudeDegrees>
              <LongitudeDegrees>-4.37808193266391754150390625</LongitudeDegrees>
            </Position>
            <AltitudeMeters>830</AltitudeMeters>
            <DistanceMeters>NAN</DistanceMeters>
          </Trackpoint>
          <Trackpoint>
            <Time>2022-06-16T08:18:52.000Z</Time>
            <Position>
              <LatitudeDegrees>36.81273979134857654571533203125</LatitudeDegrees>
              <LongitudeDegrees>-4.3780707009136676788330078125</LongitudeDegrees>
            </Position>
            <AltitudeMeters>830</AltitudeMeters>
            <DistanceMeters>NAN</DistanceMeters>
          </Trackpoint>
          <Trackpoint>
            <Time>2022-06-16T08:18:53.000Z</Time>
            <Position>
              <LatitudeDegrees>36.8127482570707798004150390625</LatitudeDegrees>
              <LongitudeDegrees>-4.37805837951600551605224609375</LongitudeDegrees>
            </Position>
            <AltitudeMeters>830.20001220703125</AltitudeMeters>
            <DistanceMeters>NAN</DistanceMeters>
          </Trackpoint>
          <Trackpoint>
            <Time>2022-06-16T08:19:00.000Z</Time>
            <Position>
              <LatitudeDegrees>36.81280265562236309051513671875</LatitudeDegrees>
              <LongitudeDegrees>-4.37799207866191864013671875</LongitudeDegrees>
            </Position>
            <AltitudeMeters>831.20001220703125</AltitudeMeters>
            <DistanceMeters>NAN</DistanceMeters>
          </Trackpoint>
          <Trackpoint>
            <Time>2022-06-16T08:19:03.000Z</Time>
            <Position>
              <LatitudeDegrees>36.8128230236470699310302734375</LatitudeDegrees>
              <LongitudeDegrees>-4.37795897014439105987548828125</LongitudeDegrees>
            </Position>
            <AltitudeMeters>832.20001220703125</AltitudeMeters>
            <DistanceMeters>NAN</DistanceMeters>
          </Trackpoint>
          <Trackpoint>
            <Time>2022-06-16T08:19:10.000Z</Time>
            <Position>
              <LatitudeDegrees>36.8128652684390544891357421875</LatitudeDegrees>
              <LongitudeDegrees>-4.37788604758679866790771484375</LongitudeDegrees>
            </Position>
            <AltitudeMeters>834.4000244140625</AltitudeMeters>
            <DistanceMeters>NAN</DistanceMeters>
          </Trackpoint>
          <Trackpoint>
            <Time>2022-06-16T08:19:13.000Z</Time>
            <Position>
              <LatitudeDegrees>36.8128855526447296142578125</LatitudeDegrees>
              <LongitudeDegrees>-4.37784832902252674102783203125</LongitudeDegrees>
            </Position>
            <AltitudeMeters>835.5999755859375</AltitudeMeters>
            <DistanceMeters>NAN</DistanceMeters>
          </Trackpoint>
          <Trackpoint>
            <Time>2022-06-16T08:19:20.000Z</Time>
            <Position>
              <LatitudeDegrees>36.81290508247911930084228515625</LatitudeDegrees>
              <LongitudeDegrees>-4.37779418192803859710693359375</LongitudeDegrees>
            </Position>
            <AltitudeMeters>837.4000244140625</AltitudeMeters>
            <DistanceMeters>NAN</DistanceMeters>
          </Trackpoint>
          <Trackpoint>
            <Time>2022-06-16T08:19:30.000Z</Time>
            <Position>
              <LatitudeDegrees>36.8129953555762767791748046875</LatitudeDegrees>
              <LongitudeDegrees>-4.37773349694907665252685546875</LongitudeDegrees>
            </Position>
            <AltitudeMeters>837.79998779296875</AltitudeMeters>
            <DistanceMeters>NAN</DistanceMeters>
          </Trackpoint>
          <Trackpoint>
            <Time>2022-06-16T08:19:38.000Z</Time>
            <Position>
              <LatitudeDegrees>36.8130818568170070648193359375</LatitudeDegrees>
              <LongitudeDegrees>-4.37765856273472309112548828125</LongitudeDegrees>
            </Position>
            <AltitudeMeters>839.4000244140625</AltitudeMeters>
            <DistanceMeters>NAN</DistanceMeters>
          </Trackpoint>
          <Trackpoint>
            <Time>2022-06-16T08:19:40.000Z</Time>
            <Position>
              <LatitudeDegrees>36.81310004554688930511474609375</LatitudeDegrees>
              <LongitudeDegrees>-4.37763308174908161163330078125</LongitudeDegrees>
            </Position>
            <AltitudeMeters>840.20001220703125</AltitudeMeters>
            <DistanceMeters>NAN</DistanceMeters>
          </Trackpoint>
          <Trackpoint>
            <Time>2022-06-16T08:19:45.000Z</Time>
            <Position>
              <LatitudeDegrees>36.81315536610782146453857421875</LatitudeDegrees>
              <LongitudeDegrees>-4.3775744922459125518798828125</LongitudeDegrees>
            </Position>
            <AltitudeMeters>841.79998779296875</AltitudeMeters>
            <DistanceMeters>NAN</DistanceMeters>
          </Trackpoint>
          <Trackpoint>
            <Time>2022-06-16T08:19:50.000Z</Time>
            <Position>
              <LatitudeDegrees>36.81319023482501506805419921875</LatitudeDegrees>
              <LongitudeDegrees>-4.3775144778192043304443359375</LongitudeDegrees>
            </Position>
            <AltitudeMeters>844.20001220703125</AltitudeMeters>
            <DistanceMeters>NAN</DistanceMeters>
          </Trackpoint>
          <Trackpoint>
            <Time>2022-06-16T08:19:56.000Z</Time>
            <Position>
              <LatitudeDegrees>36.8132394365966320037841796875</LatitudeDegrees>
              <LongitudeDegrees>-4.37744566239416599273681640625</LongitudeDegrees>
            </Position>
            <AltitudeMeters>845.79998779296875</AltitudeMeters>
            <DistanceMeters>NAN</DistanceMeters>
          </Trackpoint>
          <Trackpoint>
            <Time>2022-06-16T08:20:00.000Z</Time>
            <Position>
              <LatitudeDegrees>36.813254021108150482177734375</LatitudeDegrees>
              <LongitudeDegrees>-4.3773944489657878875732421875</LongitudeDegrees>
            </Position>
            <AltitudeMeters>846.20001220703125</AltitudeMeters>
            <DistanceMeters>NAN</DistanceMeters>
          </Trackpoint>
          <Trackpoint>
            <Time>2022-06-16T08:20:06.000Z</Time>
            <Position>
              <LatitudeDegrees>36.8132756464183330535888671875</LatitudeDegrees>
              <LongitudeDegrees>-4.37730719335377216339111328125</LongitudeDegrees>
            </Position>
            <AltitudeMeters>847.20001220703125</AltitudeMeters>
            <DistanceMeters>NAN</DistanceMeters>
          </Trackpoint>
          <Trackpoint>
            <Time>2022-06-16T08:20:10.000Z</Time>
            <Position>
              <LatitudeDegrees>36.813275814056396484375</LatitudeDegrees>
              <LongitudeDegrees>-4.3772556446492671966552734375</LongitudeDegrees>
            </Position>
            <AltitudeMeters>848.5999755859375</AltitudeMeters>
            <DistanceMeters>NAN</DistanceMeters>
          </Trackpoint>
          <Trackpoint>
            <Time>2022-06-16T08:20:20.000Z</Time>
            <Position>
              <LatitudeDegrees>36.81330355815589427947998046875</LatitudeDegrees>
              <LongitudeDegrees>-4.37713569961488246917724609375</LongitudeDegrees>
            </Position>
            <AltitudeMeters>849.4000244140625</AltitudeMeters>
            <DistanceMeters>NAN</DistanceMeters>
          </Trackpoint>
          <Trackpoint>
            <Time>2022-06-16T08:20:21.000Z</Time>
            <Position>
              <LatitudeDegrees>36.81330741383135318756103515625</LatitudeDegrees>
              <LongitudeDegrees>-4.37712371349334716796875</LongitudeDegrees>
            </Position>
            <AltitudeMeters>849.20001220703125</AltitudeMeters>
            <DistanceMeters>NAN</DistanceMeters>
          </Trackpoint>
          <Trackpoint>
            <Time>2022-06-16T08:20:24.000Z</Time>
            <Position>
              <LatitudeDegrees>36.81331462226808071136474609375</LatitudeDegrees>
              <LongitudeDegrees>-4.37708205543458461761474609375</LongitudeDegrees>
            </Position>
            <AltitudeMeters>849.20001220703125</AltitudeMeters>
            <DistanceMeters>NAN</DistanceMeters>
          </Trackpoint>
          <Trackpoint>
            <Time>2022-06-16T08:20:30.000Z</Time>
            <Position>
              <LatitudeDegrees>36.813327111303806304931640625</LatitudeDegrees>
              <LongitudeDegrees>-4.37698231078684329986572265625</LongitudeDegrees>
            </Position>
            <AltitudeMeters>849.4000244140625</AltitudeMeters>
            <DistanceMeters>NAN</DistanceMeters>
          </Trackpoint>
          <Trackpoint>
            <Time>2022-06-16T08:20:33.000Z</Time>
            <Position>
              <LatitudeDegrees>36.8133195675909519195556640625</LatitudeDegrees>
              <LongitudeDegrees>-4.376940988004207611083984375</LongitudeDegrees>
            </Position>
            <AltitudeMeters>850.5999755859375</AltitudeMeters>
            <DistanceMeters>NAN</DistanceMeters>
          </Trackpoint>
          <Trackpoint>
            <Time>2022-06-16T08:20:40.000Z</Time>
            <Position>
              <LatitudeDegrees>36.81331403553485870361328125</LatitudeDegrees>
              <LongitudeDegrees>-4.3768801353871822357177734375</LongitudeDegrees>
            </Position>
            <AltitudeMeters>852</AltitudeMeters>
            <DistanceMeters>NAN</DistanceMeters>
          </Trackpoint>
          <Trackpoint>
            <Time>2022-06-16T08:20:42.000Z</Time>
            <Position>
              <LatitudeDegrees>36.81332116015255451202392578125</LatitudeDegrees>
              <LongitudeDegrees>-4.37685607932507991790771484375</LongitudeDegrees>
            </Position>
            <AltitudeMeters>852.20001220703125</AltitudeMeters>
            <DistanceMeters>NAN</DistanceMeters>
          </Trackpoint>
          <Trackpoint>
            <Time>2022-06-16T08:20:48.000Z</Time>
            <Position>
              <LatitudeDegrees>36.8133366666734218597412109375</LatitudeDegrees>
              <LongitudeDegrees>-4.3767584301531314849853515625</LongitudeDegrees>
            </Position>
            <AltitudeMeters>853.4000244140625</AltitudeMeters>
            <DistanceMeters>NAN</DistanceMeters>
          </Trackpoint>
          <Trackpoint>
            <Time>2022-06-16T08:20:50.000Z</Time>
            <Position>
              <LatitudeDegrees>36.81334144435822963714599609375</LatitudeDegrees>
              <LongitudeDegrees>-4.37672582454979419708251953125</LongitudeDegrees>
            </Position>
            <AltitudeMeters>854</AltitudeMeters>
            <DistanceMeters>NAN</DistanceMeters>
          </Trackpoint>
          <Trackpoint>
            <Time>2022-06-16T08:20:58.000Z</Time>
            <Position>
              <LatitudeDegrees>36.813348568975925445556640625</LatitudeDegrees>
              <LongitudeDegrees>-4.37664720229804515838623046875</LongitudeDegrees>
            </Position>
            <AltitudeMeters>854.79998779296875</AltitudeMeters>
            <DistanceMeters>NAN</DistanceMeters>
          </Trackpoint>
          <Trackpoint>
            <Time>2022-06-16T08:20:59.000Z</Time>
            <Position>
              <LatitudeDegrees>36.81334747932851314544677734375</LatitudeDegrees>
              <LongitudeDegrees>-4.37663622200489044189453125</LongitudeDegrees>
            </Position>
            <AltitudeMeters>855</AltitudeMeters>
            <DistanceMeters>NAN</DistanceMeters>
          </Trackpoint>
          <Trackpoint>
            <Time>2022-06-16T08:21:00.000Z</Time>
            <Position>
              <LatitudeDegrees>36.81334764696657657623291015625</LatitudeDegrees>
              <LongitudeDegrees>-4.3766259960830211639404296875</LongitudeDegrees>
            </Position>
            <AltitudeMeters>855.20001220703125</AltitudeMeters>
            <DistanceMeters>NAN</DistanceMeters>
          </Trackpoint>
          <Trackpoint>
            <Time>2022-06-16T08:21:02.000Z</Time>
            <Position>
              <LatitudeDegrees>36.8133490718901157379150390625</LatitudeDegrees>
              <LongitudeDegrees>-4.3766021914780139923095703125</LongitudeDegrees>
            </Position>
            <AltitudeMeters>855.20001220703125</AltitudeMeters>
            <DistanceMeters>NAN</DistanceMeters>
          </Trackpoint>
          <Trackpoint>
            <Time>2022-06-16T08:21:10.000Z</Time>
            <Position>
              <LatitudeDegrees>36.8133936636149883270263671875</LatitudeDegrees>
              <LongitudeDegrees>-4.3764871917665004730224609375</LongitudeDegrees>
            </Position>
            <AltitudeMeters>854.20001220703125</AltitudeMeters>
            <DistanceMeters>NAN</DistanceMeters>
          </Trackpoint>
          <Trackpoint>
            <Time>2022-06-16T08:21:20.000Z</Time>
            <Position>
              <LatitudeDegrees>36.81344822980463504791259765625</LatitudeDegrees>
              <LongitudeDegrees>-4.37635014764964580535888671875</LongitudeDegrees>
            </Position>
            <AltitudeMeters>853.5999755859375</AltitudeMeters>
            <DistanceMeters>NAN</DistanceMeters>
          </Trackpoint>
          <Trackpoint>
            <Time>2022-06-16T08:21:28.000Z</Time>
            <Position>
              <LatitudeDegrees>36.81350849568843841552734375</LatitudeDegrees>
              <LongitudeDegrees>-4.37626498751342296600341796875</LongitudeDegrees>
            </Position>
            <AltitudeMeters>854.4000244140625</AltitudeMeters>
            <DistanceMeters>NAN</DistanceMeters>
          </Trackpoint>
          <Trackpoint>
            <Time>2022-06-16T08:21:30.000Z</Time>
            <Position>
              <LatitudeDegrees>36.8135307915508747100830078125</LatitudeDegrees>
              <LongitudeDegrees>-4.376268424093723297119140625</LongitudeDegrees>
            </Position>
            <AltitudeMeters>853.79998779296875</AltitudeMeters>
            <DistanceMeters>NAN</DistanceMeters>
          </Trackpoint>
          <Trackpoint>
            <Time>2022-06-16T08:21:34.000Z</Time>
            <Position>
              <LatitudeDegrees>36.813589632511138916015625</LatitudeDegrees>
              <LongitudeDegrees>-4.37628476880490779876708984375</LongitudeDegrees>
            </Position>
            <AltitudeMeters>852.4000244140625</AltitudeMeters>
            <DistanceMeters>NAN</DistanceMeters>
          </Trackpoint>
          <Trackpoint>
            <Time>2022-06-16T08:21:36.000Z</Time>
            <Position>
              <LatitudeDegrees>36.81361083872616291046142578125</LatitudeDegrees>
              <LongitudeDegrees>-4.37630924396216869354248046875</LongitudeDegrees>
            </Position>
            <AltitudeMeters>851.5999755859375</AltitudeMeters>
            <DistanceMeters>NAN</DistanceMeters>
          </Trackpoint>
          <Trackpoint>
            <Time>2022-06-16T08:21:38.000Z</Time>
            <Position>
              <LatitudeDegrees>36.81361201219260692596435546875</LatitudeDegrees>
              <LongitudeDegrees>-4.37634008936583995819091796875</LongitudeDegrees>
            </Position>
            <AltitudeMeters>850.79998779296875</AltitudeMeters>
            <DistanceMeters>NAN</DistanceMeters>
          </Trackpoint>
          <Trackpoint>
            <Time>2022-06-16T08:21:40.000Z</Time>
            <Position>
              <LatitudeDegrees>36.81361067108809947967529296875</LatitudeDegrees>
              <LongitudeDegrees>-4.37637395225465297698974609375</LongitudeDegrees>
            </Position>
            <AltitudeMeters>850.4000244140625</AltitudeMeters>
            <DistanceMeters>NAN</DistanceMeters>
          </Trackpoint>
          <Trackpoint>
            <Time>2022-06-16T08:21:50.000Z</Time>
            <Position>
              <LatitudeDegrees>36.813572533428668975830078125</LatitudeDegrees>
              <LongitudeDegrees>-4.3765591084957122802734375</LongitudeDegrees>
            </Position>
            <AltitudeMeters>849.20001220703125</AltitudeMeters>
            <DistanceMeters>NAN</DistanceMeters>
          </Trackpoint>
          <Trackpoint>
            <Time>2022-06-16T08:21:57.000Z</Time>
            <Position>
              <LatitudeDegrees>36.81357580237090587615966796875</LatitudeDegrees>
              <LongitudeDegrees>-4.37668726779520511627197265625</LongitudeDegrees>
            </Position>
            <AltitudeMeters>846.79998779296875</AltitudeMeters>
            <DistanceMeters>NAN</DistanceMeters>
          </Trackpoint>
          <Trackpoint>
            <Time>2022-06-16T08:22:00.000Z</Time>
            <Position>
              <LatitudeDegrees>36.81358418427407741546630859375</LatitudeDegrees>
              <LongitudeDegrees>-4.376735799014568328857421875</LongitudeDegrees>
            </Position>
            <AltitudeMeters>845.5999755859375</AltitudeMeters>
            <DistanceMeters>NAN</DistanceMeters>
          </Trackpoint>
          <Trackpoint>
            <Time>2022-06-16T08:22:10.000Z</Time>
            <Position>
              <LatitudeDegrees>36.813627518713474273681640625</LatitudeDegrees>
              <LongitudeDegrees>-4.37686697579920291900634765625</LongitudeDegrees>
            </Position>
            <AltitudeMeters>843.4000244140625</AltitudeMeters>
            <DistanceMeters>NAN</DistanceMeters>
          </Trackpoint>
          <Trackpoint>
            <Time>2022-06-16T08:22:20.000Z</Time>
            <Position>
              <LatitudeDegrees>36.81364168412983417510986328125</LatitudeDegrees>
              <LongitudeDegrees>-4.3770306743681430816650390625</LongitudeDegrees>
            </Position>
            <AltitudeMeters>842</AltitudeMeters>
            <DistanceMeters>NAN</DistanceMeters>
          </Trackpoint>
          <Trackpoint>
            <Time>2022-06-16T08:22:22.000Z</Time>
            <Position>
              <LatitudeDegrees>36.813648641109466552734375</LatitudeDegrees>
              <LongitudeDegrees>-4.37707367353141307830810546875</LongitudeDegrees>
            </Position>
            <AltitudeMeters>841.4000244140625</AltitudeMeters>
            <DistanceMeters>NAN</DistanceMeters>
          </Trackpoint>
          <Trackpoint>
            <Time>2022-06-16T08:22:30.000Z</Time>
            <Position>
              <LatitudeDegrees>36.8136531673371791839599609375</LatitudeDegrees>
              <LongitudeDegrees>-4.37721532769501209259033203125</LongitudeDegrees>
            </Position>
            <AltitudeMeters>839.5999755859375</AltitudeMeters>
            <DistanceMeters>NAN</DistanceMeters>
          </Trackpoint>
          <Trackpoint>
            <Time>2022-06-16T08:22:40.000Z</Time>
            <Position>
              <LatitudeDegrees>36.813670434057712554931640625</LatitudeDegrees>
              <LongitudeDegrees>-4.377348013222217559814453125</LongitudeDegrees>
            </Position>
            <AltitudeMeters>838.20001220703125</AltitudeMeters>
            <DistanceMeters>NAN</DistanceMeters>
          </Trackpoint>
          <Trackpoint>
            <Time>2022-06-16T08:22:50.000Z</Time>
            <Position>
              <LatitudeDegrees>36.8137161992490291595458984375</LatitudeDegrees>
              <LongitudeDegrees>-4.37748916447162628173828125</LongitudeDegrees>
            </Position>
            <AltitudeMeters>836.79998779296875</AltitudeMeters>
            <DistanceMeters>NAN</DistanceMeters>
          </Trackpoint>
          <Trackpoint>
            <Time>2022-06-16T08:23:00.000Z</Time>
            <Position>
              <LatitudeDegrees>36.8137393333017826080322265625</LatitudeDegrees>
              <LongitudeDegrees>-4.3776368536055088043212890625</LongitudeDegrees>
            </Position>
            <AltitudeMeters>834.4000244140625</AltitudeMeters>
            <DistanceMeters>NAN</DistanceMeters>
          </Trackpoint>
          <Trackpoint>
            <Time>2022-06-16T08:23:10.000Z</Time>
            <Position>
              <LatitudeDegrees>36.81376841850578784942626953125</LatitudeDegrees>
              <LongitudeDegrees>-4.37779032625257968902587890625</LongitudeDegrees>
            </Position>
            <AltitudeMeters>831.20001220703125</AltitudeMeters>
            <DistanceMeters>NAN</DistanceMeters>
          </Trackpoint>
          <Trackpoint>
            <Time>2022-06-16T08:23:14.000Z</Time>
            <Position>
              <LatitudeDegrees>36.81377478875219821929931640625</LatitudeDegrees>
              <LongitudeDegrees>-4.37784816138446331024169921875</LongitudeDegrees>
            </Position>
            <AltitudeMeters>829.4000244140625</AltitudeMeters>
            <DistanceMeters>NAN</DistanceMeters>
          </Trackpoint>
          <Trackpoint>
            <Time>2022-06-16T08:23:17.000Z</Time>
            <Position>
              <LatitudeDegrees>36.8137859366834163665771484375</LatitudeDegrees>
              <LongitudeDegrees>-4.3778919987380504608154296875</LongitudeDegrees>
            </Position>
            <AltitudeMeters>828.20001220703125</AltitudeMeters>
            <DistanceMeters>NAN</DistanceMeters>
          </Trackpoint>
          <Trackpoint>
            <Time>2022-06-16T08:23:19.000Z</Time>
            <Position>
              <LatitudeDegrees>36.81379540823400020599365234375</LatitudeDegrees>
              <LongitudeDegrees>-4.37792862765491008758544921875</LongitudeDegrees>
            </Position>
            <AltitudeMeters>827.20001220703125</AltitudeMeters>
            <DistanceMeters>NAN</DistanceMeters>
          </Trackpoint>
          <Trackpoint>
            <Time>2022-06-16T08:23:20.000Z</Time>
            <Position>
              <LatitudeDegrees>36.81380161084234714508056640625</LatitudeDegrees>
              <LongitudeDegrees>-4.37794438563287258148193359375</LongitudeDegrees>
            </Position>
            <AltitudeMeters>827.20001220703125</AltitudeMeters>
            <DistanceMeters>NAN</DistanceMeters>
          </Trackpoint>
          <Trackpoint>
            <Time>2022-06-16T08:23:30.000Z</Time>
            <Position>
              <LatitudeDegrees>36.81391007266938686370849609375</LatitudeDegrees>
              <LongitudeDegrees>-4.37808335758745670318603515625</LongitudeDegrees>
            </Position>
            <AltitudeMeters>827.79998779296875</AltitudeMeters>
            <DistanceMeters>NAN</DistanceMeters>
          </Trackpoint>
          <Trackpoint>
            <Time>2022-06-16T08:23:40.000Z</Time>
            <Position>
              <LatitudeDegrees>36.8139904551208019256591796875</LatitudeDegrees>
              <LongitudeDegrees>-4.37822434119880199432373046875</LongitudeDegrees>
            </Position>
            <AltitudeMeters>826.4000244140625</AltitudeMeters>
            <DistanceMeters>NAN</DistanceMeters>
          </Trackpoint>
          <Trackpoint>
            <Time>2022-06-16T08:23:50.000Z</Time>
            <Position>
              <LatitudeDegrees>36.8140806443989276885986328125</LatitudeDegrees>
              <LongitudeDegrees>-4.37833833508193492889404296875</LongitudeDegrees>
            </Position>
            <AltitudeMeters>825</AltitudeMeters>
            <DistanceMeters>NAN</DistanceMeters>
          </Trackpoint>
          <Trackpoint>
            <Time>2022-06-16T08:24:00.000Z</Time>
            <Position>
              <LatitudeDegrees>36.814184077084064483642578125</LatitudeDegrees>
              <LongitudeDegrees>-4.37841779552400112152099609375</LongitudeDegrees>
            </Position>
            <AltitudeMeters>824.79998779296875</AltitudeMeters>
            <DistanceMeters>NAN</DistanceMeters>
          </Trackpoint>
          <Trackpoint>
            <Time>2022-06-16T08:24:03.000Z</Time>
            <Position>
              <LatitudeDegrees>36.814198829233646392822265625</LatitudeDegrees>
              <LongitudeDegrees>-4.37843196094036102294921875</LongitudeDegrees>
            </Position>
            <AltitudeMeters>824.5999755859375</AltitudeMeters>
            <DistanceMeters>NAN</DistanceMeters>
          </Trackpoint>
          <Trackpoint>
            <Time>2022-06-16T08:24:10.000Z</Time>
            <Position>
              <LatitudeDegrees>36.81423864327371120452880859375</LatitudeDegrees>
              <LongitudeDegrees>-4.37843707390129566192626953125</LongitudeDegrees>
            </Position>
            <AltitudeMeters>825.5999755859375</AltitudeMeters>
            <DistanceMeters>NAN</DistanceMeters>
          </Trackpoint>
          <Trackpoint>
            <Time>2022-06-16T08:24:14.000Z</Time>
            <Position>
              <LatitudeDegrees>36.81427535600960254669189453125</LatitudeDegrees>
              <LongitudeDegrees>-4.37845568172633647918701171875</LongitudeDegrees>
            </Position>
            <AltitudeMeters>825.5999755859375</AltitudeMeters>
            <DistanceMeters>NAN</DistanceMeters>
          </Trackpoint>
          <Trackpoint>
            <Time>2022-06-16T08:24:20.000Z</Time>
            <Position>
              <LatitudeDegrees>36.81435112841427326202392578125</LatitudeDegrees>
              <LongitudeDegrees>-4.3784619681537151336669921875</LongitudeDegrees>
            </Position>
            <AltitudeMeters>826.5999755859375</AltitudeMeters>
            <DistanceMeters>NAN</DistanceMeters>
          </Trackpoint>
          <Trackpoint>
            <Time>2022-06-16T08:24:30.000Z</Time>
            <Position>
              <LatitudeDegrees>36.8143875896930694580078125</LatitudeDegrees>
              <LongitudeDegrees>-4.37846012413501739501953125</LongitudeDegrees>
            </Position>
            <AltitudeMeters>827.20001220703125</AltitudeMeters>
            <DistanceMeters>NAN</DistanceMeters>
          </Trackpoint>
          <Trackpoint>
            <Time>2022-06-16T08:24:35.000Z</Time>
            <Position>
              <LatitudeDegrees>36.814389266073703765869140625</LatitudeDegrees>
              <LongitudeDegrees>-4.3784599564969539642333984375</LongitudeDegrees>
            </Position>
            <AltitudeMeters>827.20001220703125</AltitudeMeters>
            <DistanceMeters>NAN</DistanceMeters>
          </Trackpoint>
          <Trackpoint>
            <Time>2022-06-16T08:24:40.000Z</Time>
            <Position>
              <LatitudeDegrees>36.81440007872879505157470703125</LatitudeDegrees>
              <LongitudeDegrees>-4.37844830565154552459716796875</LongitudeDegrees>
            </Position>
            <AltitudeMeters>827.79998779296875</AltitudeMeters>
            <DistanceMeters>NAN</DistanceMeters>
          </Trackpoint>
          <Trackpoint>
            <Time>2022-06-16T08:24:50.000Z</Time>
            <Position>
              <LatitudeDegrees>36.8143934570252895355224609375</LatitudeDegrees>
              <LongitudeDegrees>-4.3784411810338497161865234375</LongitudeDegrees>
            </Position>
            <AltitudeMeters>828</AltitudeMeters>
            <DistanceMeters>NAN</DistanceMeters>
          </Trackpoint>
          <Trackpoint>
            <Time>2022-06-16T08:25:00.000Z</Time>
            <Position>
              <LatitudeDegrees>36.8143907748162746429443359375</LatitudeDegrees>
              <LongitudeDegrees>-4.378447048366069793701171875</LongitudeDegrees>
            </Position>
            <AltitudeMeters>827.5999755859375</AltitudeMeters>
            <DistanceMeters>NAN</DistanceMeters>
          </Trackpoint>
          <Trackpoint>
            <Time>2022-06-16T08:25:10.000Z</Time>
            <Position>
              <LatitudeDegrees>36.81438700295984745025634765625</LatitudeDegrees>
              <LongitudeDegrees>-4.378471858799457550048828125</LongitudeDegrees>
            </Position>
            <AltitudeMeters>826.79998779296875</AltitudeMeters>
            <DistanceMeters>NAN</DistanceMeters>
          </Trackpoint>
          <Trackpoint>
            <Time>2022-06-16T08:25:16.000Z</Time>
            <Position>
              <LatitudeDegrees>36.81437526829540729522705078125</LatitudeDegrees>
              <LongitudeDegrees>-4.37848820351064205169677734375</LongitudeDegrees>
            </Position>
            <AltitudeMeters>826</AltitudeMeters>
            <DistanceMeters>NAN</DistanceMeters>
          </Trackpoint>
          <Trackpoint>
            <Time>2022-06-16T08:25:20.000Z</Time>
            <Position>
              <LatitudeDegrees>36.81436546146869659423828125</LatitudeDegrees>
              <LongitudeDegrees>-4.3784991838037967681884765625</LongitudeDegrees>
            </Position>
            <AltitudeMeters>825.5999755859375</AltitudeMeters>
            <DistanceMeters>NAN</DistanceMeters>
          </Trackpoint>
          <Trackpoint>
            <Time>2022-06-16T08:25:30.000Z</Time>
            <Position>
              <LatitudeDegrees>36.814340315759181976318359375</LatitudeDegrees>
              <LongitudeDegrees>-4.37848686240613460540771484375</LongitudeDegrees>
            </Position>
            <AltitudeMeters>825.5999755859375</AltitudeMeters>
            <DistanceMeters>NAN</DistanceMeters>
          </Trackpoint>
          <Trackpoint>
            <Time>2022-06-16T08:25:38.000Z</Time>
            <Position>
              <LatitudeDegrees>36.81437308900058269500732421875</LatitudeDegrees>
              <LongitudeDegrees>-4.3784592859447002410888671875</LongitudeDegrees>
            </Position>
            <AltitudeMeters>827</AltitudeMeters>
            <DistanceMeters>NAN</DistanceMeters>
          </Trackpoint>
          <Trackpoint>
            <Time>2022-06-16T08:25:39.000Z</Time>
            <Position>
              <LatitudeDegrees>36.814382560551166534423828125</LatitudeDegrees>
              <LongitudeDegrees>-4.37845207750797271728515625</LongitudeDegrees>
            </Position>
            <AltitudeMeters>827.4000244140625</AltitudeMeters>
            <DistanceMeters>NAN</DistanceMeters>
          </Trackpoint>
          <Trackpoint>
            <Time>2022-06-16T08:25:40.000Z</Time>
            <Position>
              <LatitudeDegrees>36.81438733823597431182861328125</LatitudeDegrees>
              <LongitudeDegrees>-4.3784492276608943939208984375</LongitudeDegrees>
            </Position>
            <AltitudeMeters>827.5999755859375</AltitudeMeters>
            <DistanceMeters>NAN</DistanceMeters>
          </Trackpoint>
          <Trackpoint>
            <Time>2022-06-16T08:25:47.000Z</Time>
            <Position>
              <LatitudeDegrees>36.814489848911762237548828125</LatitudeDegrees>
              <LongitudeDegrees>-4.37841226346790790557861328125</LongitudeDegrees>
            </Position>
            <AltitudeMeters>830.5999755859375</AltitudeMeters>
            <DistanceMeters>NAN</DistanceMeters>
          </Trackpoint>
          <Trackpoint>
            <Time>2022-06-16T08:25:50.000Z</Time>
            <Position>
              <LatitudeDegrees>36.81451256386935710906982421875</LatitudeDegrees>
              <LongitudeDegrees>-4.3783942423760890960693359375</LongitudeDegrees>
            </Position>
            <AltitudeMeters>831.5999755859375</AltitudeMeters>
            <DistanceMeters>NAN</DistanceMeters>
          </Trackpoint>
          <Trackpoint>
            <Time>2022-06-16T08:25:53.000Z</Time>
            <Position>
              <LatitudeDegrees>36.81454156525433063507080078125</LatitudeDegrees>
              <LongitudeDegrees>-4.37836666591465473175048828125</LongitudeDegrees>
            </Position>
            <AltitudeMeters>832.5999755859375</AltitudeMeters>
            <DistanceMeters>NAN</DistanceMeters>
          </Trackpoint>
          <Trackpoint>
            <Time>2022-06-16T08:25:58.000Z</Time>
            <Position>
              <LatitudeDegrees>36.8145879171788692474365234375</LatitudeDegrees>
              <LongitudeDegrees>-4.37831805087625980377197265625</LongitudeDegrees>
            </Position>
            <AltitudeMeters>833.5999755859375</AltitudeMeters>
            <DistanceMeters>NAN</DistanceMeters>
          </Trackpoint>
          <Trackpoint>
            <Time>2022-06-16T08:26:00.000Z</Time>
            <Position>
              <LatitudeDegrees>36.81460828520357608795166015625</LatitudeDegrees>
              <LongitudeDegrees>-4.3783000297844409942626953125</LongitudeDegrees>
            </Position>
            <AltitudeMeters>833.79998779296875</AltitudeMeters>
            <DistanceMeters>NAN</DistanceMeters>
          </Trackpoint>
          <Trackpoint>
            <Time>2022-06-16T08:26:09.000Z</Time>
            <Position>
              <LatitudeDegrees>36.8146938644349575042724609375</LatitudeDegrees>
              <LongitudeDegrees>-4.37821394763886928558349609375</LongitudeDegrees>
            </Position>
            <AltitudeMeters>836</AltitudeMeters>
            <DistanceMeters>NAN</DistanceMeters>
          </Trackpoint>
          <Trackpoint>
            <Time>2022-06-16T08:26:10.000Z</Time>
            <Position>
              <LatitudeDegrees>36.81470450945198535919189453125</LatitudeDegrees>
              <LongitudeDegrees>-4.3782078288495540618896484375</LongitudeDegrees>
            </Position>
            <AltitudeMeters>836.20001220703125</AltitudeMeters>
            <DistanceMeters>NAN</DistanceMeters>
          </Trackpoint>
          <Trackpoint>
            <Time>2022-06-16T08:26:20.000Z</Time>
            <Position>
              <LatitudeDegrees>36.81482152082026004791259765625</LatitudeDegrees>
              <LongitudeDegrees>-4.37817824073135852813720703125</LongitudeDegrees>
            </Position>
            <AltitudeMeters>835.79998779296875</AltitudeMeters>
            <DistanceMeters>NAN</DistanceMeters>
          </Trackpoint>
          <Trackpoint>
            <Time>2022-06-16T08:26:24.000Z</Time>
            <Position>
              <LatitudeDegrees>36.81486644782125949859619140625</LatitudeDegrees>
              <LongitudeDegrees>-4.37819215469062328338623046875</LongitudeDegrees>
            </Position>
            <AltitudeMeters>835.5999755859375</AltitudeMeters>
            <DistanceMeters>NAN</DistanceMeters>
          </Trackpoint>
          <Trackpoint>
            <Time>2022-06-16T08:26:30.000Z</Time>
            <Position>
              <LatitudeDegrees>36.8149355985224246978759765625</LatitudeDegrees>
              <LongitudeDegrees>-4.37824579887092113494873046875</LongitudeDegrees>
            </Position>
            <AltitudeMeters>833.79998779296875</AltitudeMeters>
            <DistanceMeters>NAN</DistanceMeters>
          </Trackpoint>
          <Trackpoint>
            <Time>2022-06-16T08:26:33.000Z</Time>
            <Position>
              <LatitudeDegrees>36.8149647675454616546630859375</LatitudeDegrees>
              <LongitudeDegrees>-4.37828569673001766204833984375</LongitudeDegrees>
            </Position>
            <AltitudeMeters>832.20001220703125</AltitudeMeters>
            <DistanceMeters>NAN</DistanceMeters>
          </Trackpoint>
          <Trackpoint>
            <Time>2022-06-16T08:26:34.000Z</Time>
            <Position>
              <LatitudeDegrees>36.81497390381991863250732421875</LatitudeDegrees>
              <LongitudeDegrees>-4.37829776667058467864990234375</LongitudeDegrees>
            </Position>
            <AltitudeMeters>831.5999755859375</AltitudeMeters>
            <DistanceMeters>NAN</DistanceMeters>
          </Trackpoint>
          <Trackpoint>
            <Time>2022-06-16T08:26:35.000Z</Time>
            <Position>
              <LatitudeDegrees>36.8149852193892002105712890625</LatitudeDegrees>
              <LongitudeDegrees>-4.37830698676407337188720703125</LongitudeDegrees>
            </Position>
            <AltitudeMeters>831.4000244140625</AltitudeMeters>
            <DistanceMeters>NAN</DistanceMeters>
          </Trackpoint>
          <Trackpoint>
            <Time>2022-06-16T08:26:36.000Z</Time>
            <Position>
              <LatitudeDegrees>36.81499619968235492706298828125</LatitudeDegrees>
              <LongitudeDegrees>-4.37831972725689411163330078125</LongitudeDegrees>
            </Position>
            <AltitudeMeters>831</AltitudeMeters>
            <DistanceMeters>NAN</DistanceMeters>
          </Trackpoint>
          <Trackpoint>
            <Time>2022-06-16T08:26:37.000Z</Time>
            <Position>
              <LatitudeDegrees>36.81500106118619441986083984375</LatitudeDegrees>
              <LongitudeDegrees>-4.3783308751881122589111328125</LongitudeDegrees>
            </Position>
            <AltitudeMeters>830.79998779296875</AltitudeMeters>
            <DistanceMeters>NAN</DistanceMeters>
          </Trackpoint>
          <Trackpoint>
            <Time>2022-06-16T08:26:38.000Z</Time>
            <Position>
              <LatitudeDegrees>36.81500785052776336669921875</LatitudeDegrees>
              <LongitudeDegrees>-4.37834252603352069854736328125</LongitudeDegrees>
            </Position>
            <AltitudeMeters>830.4000244140625</AltitudeMeters>
            <DistanceMeters>NAN</DistanceMeters>
          </Trackpoint>
          <Trackpoint>
            <Time>2022-06-16T08:26:40.000Z</Time>
            <Position>
              <LatitudeDegrees>36.8150246143341064453125</LatitudeDegrees>
              <LongitudeDegrees>-4.378365911543369293212890625</LongitudeDegrees>
            </Position>
            <AltitudeMeters>829.79998779296875</AltitudeMeters>
            <DistanceMeters>NAN</DistanceMeters>
          </Trackpoint>
          <Trackpoint>
            <Time>2022-06-16T08:26:50.000Z</Time>
            <Position>
              <LatitudeDegrees>36.81512695737183094024658203125</LatitudeDegrees>
              <LongitudeDegrees>-4.3784760497510433197021484375</LongitudeDegrees>
            </Position>
            <AltitudeMeters>826.79998779296875</AltitudeMeters>
            <DistanceMeters>NAN</DistanceMeters>
          </Trackpoint>
          <Trackpoint>
            <Time>2022-06-16T08:26:54.000Z</Time>
            <Position>
              <LatitudeDegrees>36.8151692859828472137451171875</LatitudeDegrees>
              <LongitudeDegrees>-4.37851586379110813140869140625</LongitudeDegrees>
            </Position>
            <AltitudeMeters>825.79998779296875</AltitudeMeters>
            <DistanceMeters>NAN</DistanceMeters>
          </Trackpoint>
          <Trackpoint>
            <Time>2022-06-16T08:27:00.000Z</Time>
            <Position>
              <LatitudeDegrees>36.81521094404160976409912109375</LatitudeDegrees>
              <LongitudeDegrees>-4.37853245995938777923583984375</LongitudeDegrees>
            </Position>
            <AltitudeMeters>825.20001220703125</AltitudeMeters>
            <DistanceMeters>NAN</DistanceMeters>
          </Trackpoint>
          <Trackpoint>
            <Time>2022-06-16T08:27:06.000Z</Time>
            <Position>
              <LatitudeDegrees>36.81526592932641506195068359375</LatitudeDegrees>
              <LongitudeDegrees>-4.37851653434336185455322265625</LongitudeDegrees>
            </Position>
            <AltitudeMeters>825.79998779296875</AltitudeMeters>
            <DistanceMeters>NAN</DistanceMeters>
          </Trackpoint>
          <Trackpoint>
            <Time>2022-06-16T08:27:10.000Z</Time>
            <Position>
              <LatitudeDegrees>36.81531923823058605194091796875</LatitudeDegrees>
              <LongitudeDegrees>-4.37850010581314563751220703125</LongitudeDegrees>
            </Position>
            <AltitudeMeters>826.5999755859375</AltitudeMeters>
            <DistanceMeters>NAN</DistanceMeters>
          </Trackpoint>
          <Trackpoint>
            <Time>2022-06-16T08:27:17.000Z</Time>
            <Position>
              <LatitudeDegrees>36.81540875695645809173583984375</LatitudeDegrees>
              <LongitudeDegrees>-4.37844193540513515472412109375</LongitudeDegrees>
            </Position>
            <AltitudeMeters>829.20001220703125</AltitudeMeters>
            <DistanceMeters>NAN</DistanceMeters>
          </Trackpoint>
          <Trackpoint>
            <Time>2022-06-16T08:27:19.000Z</Time>
            <Position>
              <LatitudeDegrees>36.8154304660856723785400390625</LatitudeDegrees>
              <LongitudeDegrees>-4.3784170411527156829833984375</LongitudeDegrees>
            </Position>
            <AltitudeMeters>830.20001220703125</AltitudeMeters>
            <DistanceMeters>NAN</DistanceMeters>
          </Trackpoint>
          <Trackpoint>
            <Time>2022-06-16T08:27:20.000Z</Time>
            <Position>
              <LatitudeDegrees>36.81544060818850994110107421875</LatitudeDegrees>
              <LongitudeDegrees>-4.37840321101248264312744140625</LongitudeDegrees>
            </Position>
            <AltitudeMeters>830.79998779296875</AltitudeMeters>
            <DistanceMeters>NAN</DistanceMeters>
          </Trackpoint>
          <Trackpoint>
            <Time>2022-06-16T08:27:30.000Z</Time>
            <Position>
              <LatitudeDegrees>36.815539263188838958740234375</LatitudeDegrees>
              <LongitudeDegrees>-4.37829793430864810943603515625</LongitudeDegrees>
            </Position>
            <AltitudeMeters>835.4000244140625</AltitudeMeters>
            <DistanceMeters>NAN</DistanceMeters>
          </Trackpoint>
          <Trackpoint>
            <Time>2022-06-16T08:27:40.000Z</Time>
            <Position>
              <LatitudeDegrees>36.8156262673437595367431640625</LatitudeDegrees>
              <LongitudeDegrees>-4.3781779892742633819580078125</LongitudeDegrees>
            </Position>
            <AltitudeMeters>839.79998779296875</AltitudeMeters>
            <DistanceMeters>NAN</DistanceMeters>
          </Trackpoint>
          <Trackpoint>
            <Time>2022-06-16T08:27:50.000Z</Time>
            <Position>
              <LatitudeDegrees>36.81572324596345424652099609375</LatitudeDegrees>
              <LongitudeDegrees>-4.37807212583720684051513671875</LongitudeDegrees>
            </Position>
            <AltitudeMeters>842</AltitudeMeters>
            <DistanceMeters>NAN</DistanceMeters>
          </Trackpoint>
          <Trackpoint>
            <Time>2022-06-16T08:28:00.000Z</Time>
            <Position>
              <LatitudeDegrees>36.8158281035721302032470703125</LatitudeDegrees>
              <LongitudeDegrees>-4.37797841615974903106689453125</LongitudeDegrees>
            </Position>
            <AltitudeMeters>843</AltitudeMeters>
            <DistanceMeters>NAN</DistanceMeters>
          </Trackpoint>
          <Trackpoint>
            <Time>2022-06-16T08:28:10.000Z</Time>
            <Position>
              <LatitudeDegrees>36.81592910550534725189208984375</LatitudeDegrees>
              <LongitudeDegrees>-4.3779054097831249237060546875</LongitudeDegrees>
            </Position>
            <AltitudeMeters>843.5999755859375</AltitudeMeters>
            <DistanceMeters>NAN</DistanceMeters>
          </Trackpoint>
          <Trackpoint>
            <Time>2022-06-16T08:28:13.000Z</Time>
            <Position>
              <LatitudeDegrees>36.815966069698333740234375</LatitudeDegrees>
              <LongitudeDegrees>-4.3778975307941436767578125</LongitudeDegrees>
            </Position>
            <AltitudeMeters>843.5999755859375</AltitudeMeters>
            <DistanceMeters>NAN</DistanceMeters>
          </Trackpoint>
          <Trackpoint>
            <Time>2022-06-16T08:28:18.000Z</Time>
            <Position>
              <LatitudeDegrees>36.81601460091769695281982421875</LatitudeDegrees>
              <LongitudeDegrees>-4.3779315613210201263427734375</LongitudeDegrees>
            </Position>
            <AltitudeMeters>842</AltitudeMeters>
            <DistanceMeters>NAN</DistanceMeters>
          </Trackpoint>
          <Trackpoint>
            <Time>2022-06-16T08:28:20.000Z</Time>
            <Position>
              <LatitudeDegrees>36.81602046824991703033447265625</LatitudeDegrees>
              <LongitudeDegrees>-4.37796299345791339874267578125</LongitudeDegrees>
            </Position>
            <AltitudeMeters>840.79998779296875</AltitudeMeters>
            <DistanceMeters>NAN</DistanceMeters>
          </Trackpoint>
          <Trackpoint>
            <Time>2022-06-16T08:28:28.000Z</Time>
            <Position>
              <LatitudeDegrees>36.81598694063723087310791015625</LatitudeDegrees>
              <LongitudeDegrees>-4.3780931644141674041748046875</LongitudeDegrees>
            </Position>
            <AltitudeMeters>836.79998779296875</AltitudeMeters>
            <DistanceMeters>NAN</DistanceMeters>
          </Trackpoint>
          <Trackpoint>
            <Time>2022-06-16T08:28:30.000Z</Time>
            <Position>
              <LatitudeDegrees>36.8159776367247104644775390625</LatitudeDegrees>
              <LongitudeDegrees>-4.3781313858926296234130859375</LongitudeDegrees>
            </Position>
            <AltitudeMeters>835.5999755859375</AltitudeMeters>
            <DistanceMeters>NAN</DistanceMeters>
          </Trackpoint>
          <Trackpoint>
            <Time>2022-06-16T08:28:40.000Z</Time>
            <Position>
              <LatitudeDegrees>36.81599934585392475128173828125</LatitudeDegrees>
              <LongitudeDegrees>-4.37831721268594264984130859375</LongitudeDegrees>
            </Position>
            <AltitudeMeters>830</AltitudeMeters>
            <DistanceMeters>NAN</DistanceMeters>
          </Trackpoint>
          <Trackpoint>
            <Time>2022-06-16T08:28:46.000Z</Time>
            <Position>
              <LatitudeDegrees>36.8160463683307170867919921875</LatitudeDegrees>
              <LongitudeDegrees>-4.378380663692951202392578125</LongitudeDegrees>
            </Position>
            <AltitudeMeters>827.5999755859375</AltitudeMeters>
            <DistanceMeters>NAN</DistanceMeters>
          </Trackpoint>
          <Trackpoint>
            <Time>2022-06-16T08:28:47.000Z</Time>
            <Position>
              <LatitudeDegrees>36.8160567618906497955322265625</LatitudeDegrees>
              <LongitudeDegrees>-4.37838728539645671844482421875</LongitudeDegrees>
            </Position>
            <AltitudeMeters>827.4000244140625</AltitudeMeters>
            <DistanceMeters>NAN</DistanceMeters>
          </Trackpoint>
          <Trackpoint>
            <Time>2022-06-16T08:28:49.000Z</Time>
            <Position>
              <LatitudeDegrees>36.81607763282954692840576171875</LatitudeDegrees>
              <LongitudeDegrees>-4.37840245664119720458984375</LongitudeDegrees>
            </Position>
            <AltitudeMeters>826.79998779296875</AltitudeMeters>
            <DistanceMeters>NAN</DistanceMeters>
          </Trackpoint>
          <Trackpoint>
            <Time>2022-06-16T08:28:50.000Z</Time>
            <Position>
              <LatitudeDegrees>36.81608886457979679107666015625</LatitudeDegrees>
              <LongitudeDegrees>-4.37840689904987812042236328125</LongitudeDegrees>
            </Position>
            <AltitudeMeters>826.5999755859375</AltitudeMeters>
            <DistanceMeters>NAN</DistanceMeters>
          </Trackpoint>
          <Trackpoint>
            <Time>2022-06-16T08:29:00.000Z</Time>
            <Position>
              <LatitudeDegrees>36.81620755232870578765869140625</LatitudeDegrees>
              <LongitudeDegrees>-4.3784354813396930694580078125</LongitudeDegrees>
            </Position>
            <AltitudeMeters>826.20001220703125</AltitudeMeters>
            <DistanceMeters>NAN</DistanceMeters>
          </Trackpoint>
          <Trackpoint>
            <Time>2022-06-16T08:29:10.000Z</Time>
            <Position>
              <LatitudeDegrees>36.8163575045764446258544921875</LatitudeDegrees>
              <LongitudeDegrees>-4.3784666620194911956787109375</LongitudeDegrees>
            </Position>
            <AltitudeMeters>827.5999755859375</AltitudeMeters>
            <DistanceMeters>NAN</DistanceMeters>
          </Trackpoint>
          <Trackpoint>
            <Time>2022-06-16T08:29:20.000Z</Time>
            <Position>
              <LatitudeDegrees>36.8164470233023166656494140625</LatitudeDegrees>
              <LongitudeDegrees>-4.37855668365955352783203125</LongitudeDegrees>
            </Position>
            <AltitudeMeters>827</AltitudeMeters>
            <DistanceMeters>NAN</DistanceMeters>
          </Trackpoint>
          <Trackpoint>
            <Time>2022-06-16T08:29:28.000Z</Time>
            <Position>
              <LatitudeDegrees>36.816459931433200836181640625</LatitudeDegrees>
              <LongitudeDegrees>-4.3786695040762424468994140625</LongitudeDegrees>
            </Position>
            <AltitudeMeters>824.4000244140625</AltitudeMeters>
            <DistanceMeters>NAN</DistanceMeters>
          </Trackpoint>
          <Trackpoint>
            <Time>2022-06-16T08:29:30.000Z</Time>
            <Position>
              <LatitudeDegrees>36.81645649485290050506591796875</LatitudeDegrees>
              <LongitudeDegrees>-4.378692805767059326171875</LongitudeDegrees>
            </Position>
            <AltitudeMeters>823.5999755859375</AltitudeMeters>
            <DistanceMeters>NAN</DistanceMeters>
          </Trackpoint>
          <Trackpoint>
            <Time>2022-06-16T08:29:40.000Z</Time>
            <Position>
              <LatitudeDegrees>36.81649622507393360137939453125</LatitudeDegrees>
              <LongitudeDegrees>-4.3788160197436809539794921875</LongitudeDegrees>
            </Position>
            <AltitudeMeters>821.79998779296875</AltitudeMeters>
            <DistanceMeters>NAN</DistanceMeters>
          </Trackpoint>
          <Trackpoint>
            <Time>2022-06-16T08:29:50.000Z</Time>
            <Position>
              <LatitudeDegrees>36.81658876128494739532470703125</LatitudeDegrees>
              <LongitudeDegrees>-4.3790118210017681121826171875</LongitudeDegrees>
            </Position>
            <AltitudeMeters>820.4000244140625</AltitudeMeters>
            <DistanceMeters>NAN</DistanceMeters>
          </Trackpoint>
          <Trackpoint>
            <Time>2022-06-16T08:29:58.000Z</Time>
            <Position>
              <LatitudeDegrees>36.81666855700314044952392578125</LatitudeDegrees>
              <LongitudeDegrees>-4.379094131290912628173828125</LongitudeDegrees>
            </Position>
            <AltitudeMeters>823</AltitudeMeters>
            <DistanceMeters>NAN</DistanceMeters>
          </Trackpoint>
          <Trackpoint>
            <Time>2022-06-16T08:30:00.000Z</Time>
            <Position>
              <LatitudeDegrees>36.81668423116207122802734375</LatitudeDegrees>
              <LongitudeDegrees>-4.37911734916269779205322265625</LongitudeDegrees>
            </Position>
            <AltitudeMeters>823.4000244140625</AltitudeMeters>
            <DistanceMeters>NAN</DistanceMeters>
          </Trackpoint>
          <Trackpoint>
            <Time>2022-06-16T08:30:06.000Z</Time>
            <Position>
              <LatitudeDegrees>36.8167390488088130950927734375</LatitudeDegrees>
              <LongitudeDegrees>-4.37919781543314456939697265625</LongitudeDegrees>
            </Position>
            <AltitudeMeters>825.20001220703125</AltitudeMeters>
            <DistanceMeters>NAN</DistanceMeters>
          </Trackpoint>
          <Trackpoint>
            <Time>2022-06-16T08:30:08.000Z</Time>
            <Position>
              <LatitudeDegrees>36.8167504481971263885498046875</LatitudeDegrees>
              <LongitudeDegrees>-4.379227571189403533935546875</LongitudeDegrees>
            </Position>
            <AltitudeMeters>825.4000244140625</AltitudeMeters>
            <DistanceMeters>NAN</DistanceMeters>
          </Trackpoint>
          <Trackpoint>
            <Time>2022-06-16T08:30:10.000Z</Time>
            <Position>
              <LatitudeDegrees>36.81675606407225131988525390625</LatitudeDegrees>
              <LongitudeDegrees>-4.37925229780375957489013671875</LongitudeDegrees>
            </Position>
            <AltitudeMeters>825.4000244140625</AltitudeMeters>
            <DistanceMeters>NAN</DistanceMeters>
          </Trackpoint>
          <Trackpoint>
            <Time>2022-06-16T08:30:15.000Z</Time>
            <Position>
              <LatitudeDegrees>36.816758997738361358642578125</LatitudeDegrees>
              <LongitudeDegrees>-4.37936143018305301666259765625</LongitudeDegrees>
            </Position>
            <AltitudeMeters>824</AltitudeMeters>
            <DistanceMeters>NAN</DistanceMeters>
          </Trackpoint>
          <Trackpoint>
            <Time>2022-06-16T08:30:20.000Z</Time>
            <Position>
              <LatitudeDegrees>36.81675665080547332763671875</LatitudeDegrees>
              <LongitudeDegrees>-4.3794610910117626190185546875</LongitudeDegrees>
            </Position>
            <AltitudeMeters>822.5999755859375</AltitudeMeters>
            <DistanceMeters>NAN</DistanceMeters>
          </Trackpoint>
          <Trackpoint>
            <Time>2022-06-16T08:30:30.000Z</Time>
            <Position>
              <LatitudeDegrees>36.81674399413168430328369140625</LatitudeDegrees>
              <LongitudeDegrees>-4.37961213290691375732421875</LongitudeDegrees>
            </Position>
            <AltitudeMeters>820</AltitudeMeters>
            <DistanceMeters>NAN</DistanceMeters>
          </Trackpoint>
          <Trackpoint>
            <Time>2022-06-16T08:30:40.000Z</Time>
            <Position>
              <LatitudeDegrees>36.81674399413168430328369140625</LatitudeDegrees>
              <LongitudeDegrees>-4.37977583147585391998291015625</LongitudeDegrees>
            </Position>
            <AltitudeMeters>816.20001220703125</AltitudeMeters>
            <DistanceMeters>NAN</DistanceMeters>
          </Trackpoint>
          <Trackpoint>
            <Time>2022-06-16T08:30:50.000Z</Time>
            <Position>
              <LatitudeDegrees>36.8168382905423641204833984375</LatitudeDegrees>
              <LongitudeDegrees>-4.3799100257456302642822265625</LongitudeDegrees>
            </Position>
            <AltitudeMeters>815.20001220703125</AltitudeMeters>
            <DistanceMeters>NAN</DistanceMeters>
          </Trackpoint>
          <Trackpoint>
            <Time>2022-06-16T08:30:55.000Z</Time>
            <Position>
              <LatitudeDegrees>36.81687533855438232421875</LatitudeDegrees>
              <LongitudeDegrees>-4.3799626640975475311279296875</LongitudeDegrees>
            </Position>
            <AltitudeMeters>815</AltitudeMeters>
            <DistanceMeters>NAN</DistanceMeters>
          </Trackpoint>
          <Trackpoint>
            <Time>2022-06-16T08:31:00.000Z</Time>
            <Position>
              <LatitudeDegrees>36.81691850535571575164794921875</LatitudeDegrees>
              <LongitudeDegrees>-4.380013458430767059326171875</LongitudeDegrees>
            </Position>
            <AltitudeMeters>814.5999755859375</AltitudeMeters>
            <DistanceMeters>NAN</DistanceMeters>
          </Trackpoint>
          <Trackpoint>
            <Time>2022-06-16T08:31:10.000Z</Time>
            <Position>
              <LatitudeDegrees>36.81700718589127063751220703125</LatitudeDegrees>
              <LongitudeDegrees>-4.380112700164318084716796875</LongitudeDegrees>
            </Position>
            <AltitudeMeters>813.79998779296875</AltitudeMeters>
            <DistanceMeters>NAN</DistanceMeters>
          </Trackpoint>
          <Trackpoint>
            <Time>2022-06-16T08:31:20.000Z</Time>
            <Position>
              <LatitudeDegrees>36.81711765937507152557373046875</LatitudeDegrees>
              <LongitudeDegrees>-4.380203224718570709228515625</LongitudeDegrees>
            </Position>
            <AltitudeMeters>814</AltitudeMeters>
            <DistanceMeters>NAN</DistanceMeters>
          </Trackpoint>
          <Trackpoint>
            <Time>2022-06-16T08:31:30.000Z</Time>
            <Position>
              <LatitudeDegrees>36.8172231875360012054443359375</LatitudeDegrees>
              <LongitudeDegrees>-4.3802684359252452850341796875</LongitudeDegrees>
            </Position>
            <AltitudeMeters>816</AltitudeMeters>
            <DistanceMeters>NAN</DistanceMeters>
          </Trackpoint>
          <Trackpoint>
            <Time>2022-06-16T08:31:40.000Z</Time>
            <Position>
              <LatitudeDegrees>36.81733869016170501708984375</LatitudeDegrees>
              <LongitudeDegrees>-4.38033926300704479217529296875</LongitudeDegrees>
            </Position>
            <AltitudeMeters>818.4000244140625</AltitudeMeters>
            <DistanceMeters>NAN</DistanceMeters>
          </Trackpoint>
          <Trackpoint>
            <Time>2022-06-16T08:31:50.000Z</Time>
            <Position>
              <LatitudeDegrees>36.817466430366039276123046875</LatitudeDegrees>
              <LongitudeDegrees>-4.38038687221705913543701171875</LongitudeDegrees>
            </Position>
            <AltitudeMeters>822</AltitudeMeters>
            <DistanceMeters>NAN</DistanceMeters>
          </Trackpoint>
          <Trackpoint>
            <Time>2022-06-16T08:32:00.000Z</Time>
            <Position>
              <LatitudeDegrees>36.8175919912755489349365234375</LatitudeDegrees>
              <LongitudeDegrees>-4.38041050918400287628173828125</LongitudeDegrees>
            </Position>
            <AltitudeMeters>825.79998779296875</AltitudeMeters>
            <DistanceMeters>NAN</DistanceMeters>
          </Trackpoint>
          <Trackpoint>
            <Time>2022-06-16T08:32:10.000Z</Time>
            <Position>
              <LatitudeDegrees>36.81768109090626239776611328125</LatitudeDegrees>
              <LongitudeDegrees>-4.3804360739886760711669921875</LongitudeDegrees>
            </Position>
            <AltitudeMeters>828.4000244140625</AltitudeMeters>
            <DistanceMeters>NAN</DistanceMeters>
          </Trackpoint>
          <Trackpoint>
            <Time>2022-06-16T08:32:11.000Z</Time>
            <Position>
              <LatitudeDegrees>36.81769073009490966796875</LatitudeDegrees>
              <LongitudeDegrees>-4.38044437207281589508056640625</LongitudeDegrees>
            </Position>
            <AltitudeMeters>828.4000244140625</AltitudeMeters>
            <DistanceMeters>NAN</DistanceMeters>
          </Trackpoint>
          <Trackpoint>
            <Time>2022-06-16T08:32:20.000Z</Time>
            <Position>
              <LatitudeDegrees>36.81779600679874420166015625</LatitudeDegrees>
              <LongitudeDegrees>-4.38058418221771717071533203125</LongitudeDegrees>
            </Position>
            <AltitudeMeters>828.4000244140625</AltitudeMeters>
            <DistanceMeters>NAN</DistanceMeters>
          </Trackpoint>
          <Trackpoint>
            <Time>2022-06-16T08:32:30.000Z</Time>
            <Position>
              <LatitudeDegrees>36.817897260189056396484375</LatitudeDegrees>
              <LongitudeDegrees>-4.38076171092689037322998046875</LongitudeDegrees>
            </Position>
            <AltitudeMeters>826</AltitudeMeters>
            <DistanceMeters>NAN</DistanceMeters>
          </Trackpoint>
          <Trackpoint>
            <Time>2022-06-16T08:32:35.000Z</Time>
            <Position>
              <LatitudeDegrees>36.81794009171426296234130859375</LatitudeDegrees>
              <LongitudeDegrees>-4.38082105480134487152099609375</LongitudeDegrees>
            </Position>
            <AltitudeMeters>826</AltitudeMeters>
            <DistanceMeters>NAN</DistanceMeters>
          </Trackpoint>
          <Trackpoint>
            <Time>2022-06-16T08:32:40.000Z</Time>
            <Position>
              <LatitudeDegrees>36.81792953051626682281494140625</LatitudeDegrees>
              <LongitudeDegrees>-4.38089414499700069427490234375</LongitudeDegrees>
            </Position>
            <AltitudeMeters>824.79998779296875</AltitudeMeters>
            <DistanceMeters>NAN</DistanceMeters>
          </Trackpoint>
          <Trackpoint>
            <Time>2022-06-16T08:32:50.000Z</Time>
            <Position>
              <LatitudeDegrees>36.81781746447086334228515625</LatitudeDegrees>
              <LongitudeDegrees>-4.38104183413088321685791015625</LongitudeDegrees>
            </Position>
            <AltitudeMeters>819.79998779296875</AltitudeMeters>
            <DistanceMeters>NAN</DistanceMeters>
          </Trackpoint>
          <Trackpoint>
            <Time>2022-06-16T08:33:00.000Z</Time>
            <Position>
              <LatitudeDegrees>36.81774311698973178863525390625</LatitudeDegrees>
              <LongitudeDegrees>-4.38113403506577014923095703125</LongitudeDegrees>
            </Position>
            <AltitudeMeters>816.79998779296875</AltitudeMeters>
            <DistanceMeters>NAN</DistanceMeters>
          </Trackpoint>
          <Trackpoint>
            <Time>2022-06-16T08:33:01.000Z</Time>
            <Position>
              <LatitudeDegrees>36.81772266514599323272705078125</LatitudeDegrees>
              <LongitudeDegrees>-4.38115079887211322784423828125</LongitudeDegrees>
            </Position>
            <AltitudeMeters>816</AltitudeMeters>
            <DistanceMeters>NAN</DistanceMeters>
          </Trackpoint>
          <Trackpoint>
            <Time>2022-06-16T08:33:02.000Z</Time>
            <Position>
              <LatitudeDegrees>36.81772266514599323272705078125</LatitudeDegrees>
              <LongitudeDegrees>-4.38115079887211322784423828125</LongitudeDegrees>
            </Position>
            <AltitudeMeters>816</AltitudeMeters>
            <DistanceMeters>NAN</DistanceMeters>
          </Trackpoint>
          <Trackpoint>
            <Time>2022-06-16T08:33:03.000Z</Time>
            <Position>
              <LatitudeDegrees>36.81771428324282169342041015625</LatitudeDegrees>
              <LongitudeDegrees>-4.38116270117461681365966796875</LongitudeDegrees>
            </Position>
            <AltitudeMeters>815.79998779296875</AltitudeMeters>
            <DistanceMeters>NAN</DistanceMeters>
          </Trackpoint>
          <Trackpoint>
            <Time>2022-06-16T08:33:10.000Z</Time>
            <Position>
              <LatitudeDegrees>36.81766650639474391937255859375</LatitudeDegrees>
              <LongitudeDegrees>-4.38126529566943645477294921875</LongitudeDegrees>
            </Position>
            <AltitudeMeters>813.79998779296875</AltitudeMeters>
            <DistanceMeters>NAN</DistanceMeters>
          </Trackpoint>
          <Trackpoint>
            <Time>2022-06-16T08:33:20.000Z</Time>
            <Position>
              <LatitudeDegrees>36.817645467817783355712890625</LatitudeDegrees>
              <LongitudeDegrees>-4.38137845136225223541259765625</LongitudeDegrees>
            </Position>
            <AltitudeMeters>812.4000244140625</AltitudeMeters>
            <DistanceMeters>NAN</DistanceMeters>
          </Trackpoint>
          <Trackpoint>
            <Time>2022-06-16T08:33:30.000Z</Time>
            <Position>
              <LatitudeDegrees>36.8176818452775478363037109375</LatitudeDegrees>
              <LongitudeDegrees>-4.381406195461750030517578125</LongitudeDegrees>
            </Position>
            <AltitudeMeters>813.20001220703125</AltitudeMeters>
            <DistanceMeters>NAN</DistanceMeters>
          </Trackpoint>
          <Trackpoint>
            <Time>2022-06-16T08:33:34.000Z</Time>
            <Position>
              <LatitudeDegrees>36.81770824827253818511962890625</LatitudeDegrees>
              <LongitudeDegrees>-4.38141851685941219329833984375</LongitudeDegrees>
            </Position>
            <AltitudeMeters>813.79998779296875</AltitudeMeters>
            <DistanceMeters>NAN</DistanceMeters>
          </Trackpoint>
          <Trackpoint>
            <Time>2022-06-16T08:33:35.000Z</Time>
            <Position>
              <LatitudeDegrees>36.817717887461185455322265625</LatitudeDegrees>
              <LongitudeDegrees>-4.381419606506824493408203125</LongitudeDegrees>
            </Position>
            <AltitudeMeters>814</AltitudeMeters>
            <DistanceMeters>NAN</DistanceMeters>
          </Trackpoint>
          <Trackpoint>
            <Time>2022-06-16T08:33:36.000Z</Time>
            <Position>
              <LatitudeDegrees>36.817726604640483856201171875</LatitudeDegrees>
              <LongitudeDegrees>-4.38142488710582256317138671875</LongitudeDegrees>
            </Position>
            <AltitudeMeters>814.20001220703125</AltitudeMeters>
            <DistanceMeters>NAN</DistanceMeters>
          </Trackpoint>
          <Trackpoint>
            <Time>2022-06-16T08:33:37.000Z</Time>
            <Position>
              <LatitudeDegrees>36.81773423217236995697021484375</LatitudeDegrees>
              <LongitudeDegrees>-4.38142522238194942474365234375</LongitudeDegrees>
            </Position>
            <AltitudeMeters>814.4000244140625</AltitudeMeters>
            <DistanceMeters>NAN</DistanceMeters>
          </Trackpoint>
          <Trackpoint>
            <Time>2022-06-16T08:33:38.000Z</Time>
            <Position>
              <LatitudeDegrees>36.8177418597042560577392578125</LatitudeDegrees>
              <LongitudeDegrees>-4.38142036087810993194580078125</LongitudeDegrees>
            </Position>
            <AltitudeMeters>814.5999755859375</AltitudeMeters>
            <DistanceMeters>NAN</DistanceMeters>
          </Trackpoint>
          <Trackpoint>
            <Time>2022-06-16T08:33:40.000Z</Time>
            <Position>
              <LatitudeDegrees>36.81775711476802825927734375</LatitudeDegrees>
              <LongitudeDegrees>-4.38141164369881153106689453125</LongitudeDegrees>
            </Position>
            <AltitudeMeters>815</AltitudeMeters>
            <DistanceMeters>NAN</DistanceMeters>
          </Trackpoint>
          <Trackpoint>
            <Time>2022-06-16T08:33:43.000Z</Time>
            <Position>
              <LatitudeDegrees>36.81777991354465484619140625</LatitudeDegrees>
              <LongitudeDegrees>-4.3814056925475597381591796875</LongitudeDegrees>
            </Position>
            <AltitudeMeters>815.5999755859375</AltitudeMeters>
            <DistanceMeters>NAN</DistanceMeters>
          </Trackpoint>
          <Trackpoint>
            <Time>2022-06-16T08:33:45.000Z</Time>
            <Position>
              <LatitudeDegrees>36.8177968449890613555908203125</LatitudeDegrees>
              <LongitudeDegrees>-4.38140158541500568389892578125</LongitudeDegrees>
            </Position>
            <AltitudeMeters>816</AltitudeMeters>
            <DistanceMeters>NAN</DistanceMeters>
          </Trackpoint>
          <Trackpoint>
            <Time>2022-06-16T08:33:46.000Z</Time>
            <Position>
              <LatitudeDegrees>36.8178008683025836944580078125</LatitudeDegrees>
              <LongitudeDegrees>-4.38139270059764385223388671875</LongitudeDegrees>
            </Position>
            <AltitudeMeters>816.20001220703125</AltitudeMeters>
            <DistanceMeters>NAN</DistanceMeters>
          </Trackpoint>
          <Trackpoint>
            <Time>2022-06-16T08:33:47.000Z</Time>
            <Position>
              <LatitudeDegrees>36.81780631653964519500732421875</LatitudeDegrees>
              <LongitudeDegrees>-4.381385743618011474609375</LongitudeDegrees>
            </Position>
            <AltitudeMeters>816.4000244140625</AltitudeMeters>
            <DistanceMeters>NAN</DistanceMeters>
          </Trackpoint>
          <Trackpoint>
            <Time>2022-06-16T08:33:50.000Z</Time>
            <Position>
              <LatitudeDegrees>36.817823164165019989013671875</LatitudeDegrees>
              <LongitudeDegrees>-4.3813736736774444580078125</LongitudeDegrees>
            </Position>
            <AltitudeMeters>816.79998779296875</AltitudeMeters>
            <DistanceMeters>NAN</DistanceMeters>
          </Trackpoint>
          <Trackpoint>
            <Time>2022-06-16T08:33:56.000Z</Time>
            <Position>
              <LatitudeDegrees>36.81787605397403240203857421875</LatitudeDegrees>
              <LongitudeDegrees>-4.38135129399597644805908203125</LongitudeDegrees>
            </Position>
            <AltitudeMeters>818.4000244140625</AltitudeMeters>
            <DistanceMeters>NAN</DistanceMeters>
          </Trackpoint>
          <Trackpoint>
            <Time>2022-06-16T08:34:00.000Z</Time>
            <Position>
              <LatitudeDegrees>36.81790907867252826690673828125</LatitudeDegrees>
              <LongitudeDegrees>-4.38133972696959972381591796875</LongitudeDegrees>
            </Position>
            <AltitudeMeters>819.4000244140625</AltitudeMeters>
            <DistanceMeters>NAN</DistanceMeters>
          </Trackpoint>
          <Trackpoint>
            <Time>2022-06-16T08:34:04.000Z</Time>
            <Position>
              <LatitudeDegrees>36.8179390020668506622314453125</LatitudeDegrees>
              <LongitudeDegrees>-4.3813322670757770538330078125</LongitudeDegrees>
            </Position>
            <AltitudeMeters>820.20001220703125</AltitudeMeters>
            <DistanceMeters>NAN</DistanceMeters>
          </Trackpoint>
          <Trackpoint>
            <Time>2022-06-16T08:34:10.000Z</Time>
            <Position>
              <LatitudeDegrees>36.8179835937917232513427734375</LatitudeDegrees>
              <LongitudeDegrees>-4.38129195012152194976806640625</LongitudeDegrees>
            </Position>
            <AltitudeMeters>821.5999755859375</AltitudeMeters>
            <DistanceMeters>NAN</DistanceMeters>
          </Trackpoint>
          <Trackpoint>
            <Time>2022-06-16T08:34:11.000Z</Time>
            <Position>
              <LatitudeDegrees>36.8179923109710216522216796875</LatitudeDegrees>
              <LongitudeDegrees>-4.38128239475190639495849609375</LongitudeDegrees>
            </Position>
            <AltitudeMeters>821.79998779296875</AltitudeMeters>
            <DistanceMeters>NAN</DistanceMeters>
          </Trackpoint>
          <Trackpoint>
            <Time>2022-06-16T08:34:18.000Z</Time>
            <Position>
              <LatitudeDegrees>36.81803715415298938751220703125</LatitudeDegrees>
              <LongitudeDegrees>-4.38125691376626491546630859375</LongitudeDegrees>
            </Position>
            <AltitudeMeters>823.20001220703125</AltitudeMeters>
            <DistanceMeters>NAN</DistanceMeters>
          </Trackpoint>
          <Trackpoint>
            <Time>2022-06-16T08:34:20.000Z</Time>
            <Position>
              <LatitudeDegrees>36.81805081665515899658203125</LatitudeDegrees>
              <LongitudeDegrees>-4.38125188462436199188232421875</LongitudeDegrees>
            </Position>
            <AltitudeMeters>823.5999755859375</AltitudeMeters>
            <DistanceMeters>NAN</DistanceMeters>
          </Trackpoint>
          <Trackpoint>
            <Time>2022-06-16T08:34:30.000Z</Time>
            <Position>
              <LatitudeDegrees>36.8181073106825351715087890625</LatitudeDegrees>
              <LongitudeDegrees>-4.38120176084339618682861328125</LongitudeDegrees>
            </Position>
            <AltitudeMeters>825.20001220703125</AltitudeMeters>
            <DistanceMeters>NAN</DistanceMeters>
          </Trackpoint>
          <Trackpoint>
            <Time>2022-06-16T08:34:40.000Z</Time>
            <Position>
              <LatitudeDegrees>36.81818400509655475616455078125</LatitudeDegrees>
              <LongitudeDegrees>-4.3812082149088382720947265625</LongitudeDegrees>
            </Position>
            <AltitudeMeters>828</AltitudeMeters>
            <DistanceMeters>NAN</DistanceMeters>
          </Trackpoint>
          <Trackpoint>
            <Time>2022-06-16T08:34:49.000Z</Time>
            <Position>
              <LatitudeDegrees>36.81826380081474781036376953125</LatitudeDegrees>
              <LongitudeDegrees>-4.38119421713054180145263671875</LongitudeDegrees>
            </Position>
            <AltitudeMeters>831.20001220703125</AltitudeMeters>
            <DistanceMeters>NAN</DistanceMeters>
          </Trackpoint>
          <Trackpoint>
            <Time>2022-06-16T08:34:50.000Z</Time>
            <Position>
              <LatitudeDegrees>36.81827084161341190338134765625</LatitudeDegrees>
              <LongitudeDegrees>-4.38119572587311267852783203125</LongitudeDegrees>
            </Position>
            <AltitudeMeters>831.4000244140625</AltitudeMeters>
            <DistanceMeters>NAN</DistanceMeters>
          </Trackpoint>
          <Trackpoint>
            <Time>2022-06-16T08:35:00.000Z</Time>
            <Position>
              <LatitudeDegrees>36.818331778049468994140625</LatitudeDegrees>
              <LongitudeDegrees>-4.38117108307778835296630859375</LongitudeDegrees>
            </Position>
            <AltitudeMeters>833.79998779296875</AltitudeMeters>
            <DistanceMeters>NAN</DistanceMeters>
          </Trackpoint>
          <Trackpoint>
            <Time>2022-06-16T08:35:10.000Z</Time>
            <Position>
              <LatitudeDegrees>36.81839950382709503173828125</LatitudeDegrees>
              <LongitudeDegrees>-4.38115498982369899749755859375</LongitudeDegrees>
            </Position>
            <AltitudeMeters>835.79998779296875</AltitudeMeters>
            <DistanceMeters>NAN</DistanceMeters>
          </Trackpoint>
          <Trackpoint>
            <Time>2022-06-16T08:35:20.000Z</Time>
            <Position>
              <LatitudeDegrees>36.81846010498702526092529296875</LatitudeDegrees>
              <LongitudeDegrees>-4.3811451829969882965087890625</LongitudeDegrees>
            </Position>
            <AltitudeMeters>838.4000244140625</AltitudeMeters>
            <DistanceMeters>NAN</DistanceMeters>
          </Trackpoint>
          <Trackpoint>
            <Time>2022-06-16T08:35:30.000Z</Time>
            <Position>
              <LatitudeDegrees>36.8185160122811794281005859375</LatitudeDegrees>
              <LongitudeDegrees>-4.38116521574556827545166015625</LongitudeDegrees>
            </Position>
            <AltitudeMeters>840.79998779296875</AltitudeMeters>
            <DistanceMeters>NAN</DistanceMeters>
          </Trackpoint>
          <Trackpoint>
            <Time>2022-06-16T08:35:40.000Z</Time>
            <Position>
              <LatitudeDegrees>36.81856387294828891754150390625</LatitudeDegrees>
              <LongitudeDegrees>-4.3811730109155178070068359375</LongitudeDegrees>
            </Position>
            <AltitudeMeters>843</AltitudeMeters>
            <DistanceMeters>NAN</DistanceMeters>
          </Trackpoint>
          <Trackpoint>
            <Time>2022-06-16T08:35:44.000Z</Time>
            <Position>
              <LatitudeDegrees>36.81858600117266178131103515625</LatitudeDegrees>
              <LongitudeDegrees>-4.381171502172946929931640625</LongitudeDegrees>
            </Position>
            <AltitudeMeters>844</AltitudeMeters>
            <DistanceMeters>NAN</DistanceMeters>
          </Trackpoint>
          <Trackpoint>
            <Time>2022-06-16T08:35:46.000Z</Time>
            <Position>
              <LatitudeDegrees>36.81859287433326244354248046875</LatitudeDegrees>
              <LongitudeDegrees>-4.3811760284006595611572265625</LongitudeDegrees>
            </Position>
            <AltitudeMeters>844.4000244140625</AltitudeMeters>
            <DistanceMeters>NAN</DistanceMeters>
          </Trackpoint>
          <Trackpoint>
            <Time>2022-06-16T08:35:47.000Z</Time>
            <Position>
              <LatitudeDegrees>36.8185954727232456207275390625</LatitudeDegrees>
              <LongitudeDegrees>-4.38117695041000843048095703125</LongitudeDegrees>
            </Position>
            <AltitudeMeters>844.4000244140625</AltitudeMeters>
            <DistanceMeters>NAN</DistanceMeters>
          </Trackpoint>
          <Trackpoint>
            <Time>2022-06-16T08:35:50.000Z</Time>
            <Position>
              <LatitudeDegrees>36.8186080455780029296875</LatitudeDegrees>
              <LongitudeDegrees>-4.381175525486469268798828125</LongitudeDegrees>
            </Position>
            <AltitudeMeters>845</AltitudeMeters>
            <DistanceMeters>NAN</DistanceMeters>
          </Trackpoint>
          <Trackpoint>
            <Time>2022-06-16T08:36:00.000Z</Time>
            <Position>
              <LatitudeDegrees>36.8186397291719913482666015625</LatitudeDegrees>
              <LongitudeDegrees>-4.3811374716460704803466796875</LongitudeDegrees>
            </Position>
            <AltitudeMeters>846.79998779296875</AltitudeMeters>
            <DistanceMeters>NAN</DistanceMeters>
          </Trackpoint>
          <Trackpoint>
            <Time>2022-06-16T08:36:07.000Z</Time>
            <Position>
              <LatitudeDegrees>36.8186776153743267059326171875</LatitudeDegrees>
              <LongitudeDegrees>-4.381125234067440032958984375</LongitudeDegrees>
            </Position>
            <AltitudeMeters>848.4000244140625</AltitudeMeters>
            <DistanceMeters>NAN</DistanceMeters>
          </Trackpoint>
          <Trackpoint>
            <Time>2022-06-16T08:36:10.000Z</Time>
            <Position>
              <LatitudeDegrees>36.8187004141509532928466796875</LatitudeDegrees>
              <LongitudeDegrees>-4.38112162984907627105712890625</LongitudeDegrees>
            </Position>
            <AltitudeMeters>849.4000244140625</AltitudeMeters>
            <DistanceMeters>NAN</DistanceMeters>
          </Trackpoint>
          <Trackpoint>
            <Time>2022-06-16T08:36:13.000Z</Time>
            <Position>
              <LatitudeDegrees>36.81871809996664524078369140625</LatitudeDegrees>
              <LongitudeDegrees>-4.3811331130564212799072265625</LongitudeDegrees>
            </Position>
            <AltitudeMeters>850</AltitudeMeters>
            <DistanceMeters>NAN</DistanceMeters>
          </Trackpoint>
          <Trackpoint>
            <Time>2022-06-16T08:36:20.000Z</Time>
            <Position>
              <LatitudeDegrees>36.81876026093959808349609375</LatitudeDegrees>
              <LongitudeDegrees>-4.3811537325382232666015625</LongitudeDegrees>
            </Position>
            <AltitudeMeters>851.4000244140625</AltitudeMeters>
            <DistanceMeters>NAN</DistanceMeters>
          </Trackpoint>
          <Trackpoint>
            <Time>2022-06-16T08:36:30.000Z</Time>
            <Position>
              <LatitudeDegrees>36.8187889270484447479248046875</LatitudeDegrees>
              <LongitudeDegrees>-4.38119170255959033966064453125</LongitudeDegrees>
            </Position>
            <AltitudeMeters>852</AltitudeMeters>
            <DistanceMeters>NAN</DistanceMeters>
          </Trackpoint>
          <Trackpoint>
            <Time>2022-06-16T08:36:40.000Z</Time>
            <Position>
              <LatitudeDegrees>36.81880041025578975677490234375</LatitudeDegrees>
              <LongitudeDegrees>-4.38118181191384792327880859375</LongitudeDegrees>
            </Position>
            <AltitudeMeters>852.4000244140625</AltitudeMeters>
            <DistanceMeters>NAN</DistanceMeters>
          </Trackpoint>
          <Trackpoint>
            <Time>2022-06-16T08:36:50.000Z</Time>
            <Position>
              <LatitudeDegrees>36.818859837949275970458984375</LatitudeDegrees>
              <LongitudeDegrees>-4.38114493153989315032958984375</LongitudeDegrees>
            </Position>
            <AltitudeMeters>855.4000244140625</AltitudeMeters>
            <DistanceMeters>NAN</DistanceMeters>
          </Trackpoint>
          <Trackpoint>
            <Time>2022-06-16T08:36:58.000Z</Time>
            <Position>
              <LatitudeDegrees>36.81888657622039318084716796875</LatitudeDegrees>
              <LongitudeDegrees>-4.38112867064774036407470703125</LongitudeDegrees>
            </Position>
            <AltitudeMeters>856.5999755859375</AltitudeMeters>
            <DistanceMeters>NAN</DistanceMeters>
          </Trackpoint>
          <Trackpoint>
            <Time>2022-06-16T08:37:00.000Z</Time>
            <Position>
              <LatitudeDegrees>36.81890065781772136688232421875</LatitudeDegrees>
              <LongitudeDegrees>-4.381124563515186309814453125</LongitudeDegrees>
            </Position>
            <AltitudeMeters>857.20001220703125</AltitudeMeters>
            <DistanceMeters>NAN</DistanceMeters>
          </Trackpoint>
          <Trackpoint>
            <Time>2022-06-16T08:37:10.000Z</Time>
            <Position>
              <LatitudeDegrees>36.8189535476267337799072265625</LatitudeDegrees>
              <LongitudeDegrees>-4.38111693598330020904541015625</LongitudeDegrees>
            </Position>
            <AltitudeMeters>859.4000244140625</AltitudeMeters>
            <DistanceMeters>NAN</DistanceMeters>
          </Trackpoint>
          <Trackpoint>
            <Time>2022-06-16T08:37:14.000Z</Time>
            <Position>
              <LatitudeDegrees>36.81897575967013835906982421875</LatitudeDegrees>
              <LongitudeDegrees>-4.38109673559665679931640625</LongitudeDegrees>
            </Position>
            <AltitudeMeters>860.5999755859375</AltitudeMeters>
            <DistanceMeters>NAN</DistanceMeters>
          </Trackpoint>
          <Trackpoint>
            <Time>2022-06-16T08:37:20.000Z</Time>
            <Position>
              <LatitudeDegrees>36.81900442577898502349853515625</LatitudeDegrees>
              <LongitudeDegrees>-4.38109983690083026885986328125</LongitudeDegrees>
            </Position>
            <AltitudeMeters>861.79998779296875</AltitudeMeters>
            <DistanceMeters>NAN</DistanceMeters>
          </Trackpoint>
          <Trackpoint>
            <Time>2022-06-16T08:37:28.000Z</Time>
            <Position>
              <LatitudeDegrees>36.81904365308582782745361328125</LatitudeDegrees>
              <LongitudeDegrees>-4.38106915913522243499755859375</LongitudeDegrees>
            </Position>
            <AltitudeMeters>864</AltitudeMeters>
            <DistanceMeters>NAN</DistanceMeters>
          </Trackpoint>
          <Trackpoint>
            <Time>2022-06-16T08:37:29.000Z</Time>
            <Position>
              <LatitudeDegrees>36.819048263132572174072265625</LatitudeDegrees>
              <LongitudeDegrees>-4.38106245361268520355224609375</LongitudeDegrees>
            </Position>
            <AltitudeMeters>864.20001220703125</AltitudeMeters>
            <DistanceMeters>NAN</DistanceMeters>
          </Trackpoint>
          <Trackpoint>
            <Time>2022-06-16T08:37:30.000Z</Time>
            <Position>
              <LatitudeDegrees>36.819050945341587066650390625</LatitudeDegrees>
              <LongitudeDegrees>-4.38106027431786060333251953125</LongitudeDegrees>
            </Position>
            <AltitudeMeters>864.4000244140625</AltitudeMeters>
            <DistanceMeters>NAN</DistanceMeters>
          </Trackpoint>
          <Trackpoint>
            <Time>2022-06-16T08:37:31.000Z</Time>
            <Position>
              <LatitudeDegrees>36.81905656121671199798583984375</LatitudeDegrees>
              <LongitudeDegrees>-4.38104937784373760223388671875</LongitudeDegrees>
            </Position>
            <AltitudeMeters>864.79998779296875</AltitudeMeters>
            <DistanceMeters>NAN</DistanceMeters>
          </Trackpoint>
          <Trackpoint>
            <Time>2022-06-16T08:37:32.000Z</Time>
            <Position>
              <LatitudeDegrees>36.81906024925410747528076171875</LatitudeDegrees>
              <LongitudeDegrees>-4.38104443252086639404296875</LongitudeDegrees>
            </Position>
            <AltitudeMeters>865</AltitudeMeters>
            <DistanceMeters>NAN</DistanceMeters>
          </Trackpoint>
          <Trackpoint>
            <Time>2022-06-16T08:37:33.000Z</Time>
            <Position>
              <LatitudeDegrees>36.81906309910118579864501953125</LatitudeDegrees>
              <LongitudeDegrees>-4.381038062274456024169921875</LongitudeDegrees>
            </Position>
            <AltitudeMeters>865.20001220703125</AltitudeMeters>
            <DistanceMeters>NAN</DistanceMeters>
          </Trackpoint>
          <Trackpoint>
            <Time>2022-06-16T08:37:34.000Z</Time>
            <Position>
              <LatitudeDegrees>36.81906946934759616851806640625</LatitudeDegrees>
              <LongitudeDegrees>-4.38103328458964824676513671875</LongitudeDegrees>
            </Position>
            <AltitudeMeters>865.5999755859375</AltitudeMeters>
            <DistanceMeters>NAN</DistanceMeters>
          </Trackpoint>
          <Trackpoint>
            <Time>2022-06-16T08:37:40.000Z</Time>
            <Position>
              <LatitudeDegrees>36.81910685263574123382568359375</LatitudeDegrees>
              <LongitudeDegrees>-4.38100746832787990570068359375</LongitudeDegrees>
            </Position>
            <AltitudeMeters>867.5999755859375</AltitudeMeters>
            <DistanceMeters>NAN</DistanceMeters>
          </Trackpoint>
          <Trackpoint>
            <Time>2022-06-16T08:37:42.000Z</Time>
            <Position>
              <LatitudeDegrees>36.81911657564342021942138671875</LatitudeDegrees>
              <LongitudeDegrees>-4.38100210390985012054443359375</LongitudeDegrees>
            </Position>
            <AltitudeMeters>868.20001220703125</AltitudeMeters>
            <DistanceMeters>NAN</DistanceMeters>
          </Trackpoint>
          <Trackpoint>
            <Time>2022-06-16T08:37:44.000Z</Time>
            <Position>
              <LatitudeDegrees>36.81912311352789402008056640625</LatitudeDegrees>
              <LongitudeDegrees>-4.38099573366343975067138671875</LongitudeDegrees>
            </Position>
            <AltitudeMeters>868.4000244140625</AltitudeMeters>
            <DistanceMeters>NAN</DistanceMeters>
          </Trackpoint>
          <Trackpoint>
            <Time>2022-06-16T08:37:46.000Z</Time>
            <Position>
              <LatitudeDegrees>36.8191319145262241363525390625</LatitudeDegrees>
              <LongitudeDegrees>-4.38098668120801448822021484375</LongitudeDegrees>
            </Position>
            <AltitudeMeters>869</AltitudeMeters>
            <DistanceMeters>NAN</DistanceMeters>
          </Trackpoint>
          <Trackpoint>
            <Time>2022-06-16T08:37:50.000Z</Time>
            <Position>
              <LatitudeDegrees>36.81914591230452060699462890625</LatitudeDegrees>
              <LongitudeDegrees>-4.38097829930484294891357421875</LongitudeDegrees>
            </Position>
            <AltitudeMeters>869.79998779296875</AltitudeMeters>
            <DistanceMeters>NAN</DistanceMeters>
          </Trackpoint>
          <Trackpoint>
            <Time>2022-06-16T08:37:51.000Z</Time>
            <Position>
              <LatitudeDegrees>36.8191485106945037841796875</LatitudeDegrees>
              <LongitudeDegrees>-4.38097544945776462554931640625</LongitudeDegrees>
            </Position>
            <AltitudeMeters>869.79998779296875</AltitudeMeters>
            <DistanceMeters>NAN</DistanceMeters>
          </Trackpoint>
          <Trackpoint>
            <Time>2022-06-16T08:38:00.000Z</Time>
            <Position>
              <LatitudeDegrees>36.819179020822048187255859375</LatitudeDegrees>
              <LongitudeDegrees>-4.380972683429718017578125</LongitudeDegrees>
            </Position>
            <AltitudeMeters>871.20001220703125</AltitudeMeters>
            <DistanceMeters>NAN</DistanceMeters>
          </Trackpoint>
          <Trackpoint>
            <Time>2022-06-16T08:38:10.000Z</Time>
            <Position>
              <LatitudeDegrees>36.8192224390804767608642578125</LatitudeDegrees>
              <LongitudeDegrees>-4.38095181249082088470458984375</LongitudeDegrees>
            </Position>
            <AltitudeMeters>873.4000244140625</AltitudeMeters>
            <DistanceMeters>NAN</DistanceMeters>
          </Trackpoint>
          <Trackpoint>
            <Time>2022-06-16T08:38:18.000Z</Time>
            <Position>
              <LatitudeDegrees>36.81922621093690395355224609375</LatitudeDegrees>
              <LongitudeDegrees>-4.3809057958424091339111328125</LongitudeDegrees>
            </Position>
            <AltitudeMeters>874.20001220703125</AltitudeMeters>
            <DistanceMeters>NAN</DistanceMeters>
          </Trackpoint>
          <Trackpoint>
            <Time>2022-06-16T08:38:19.000Z</Time>
            <Position>
              <LatitudeDegrees>36.8192254565656185150146484375</LatitudeDegrees>
              <LongitudeDegrees>-4.38090068288147449493408203125</LongitudeDegrees>
            </Position>
            <AltitudeMeters>874.20001220703125</AltitudeMeters>
            <DistanceMeters>NAN</DistanceMeters>
          </Trackpoint>
          <Trackpoint>
            <Time>2022-06-16T08:38:20.000Z</Time>
            <Position>
              <LatitudeDegrees>36.81922554038465023040771484375</LatitudeDegrees>
              <LongitudeDegrees>-4.38089665956795215606689453125</LongitudeDegrees>
            </Position>
            <AltitudeMeters>874.4000244140625</AltitudeMeters>
            <DistanceMeters>NAN</DistanceMeters>
          </Trackpoint>
          <Trackpoint>
            <Time>2022-06-16T08:38:26.000Z</Time>
            <Position>
              <LatitudeDegrees>36.819229312241077423095703125</LatitudeDegrees>
              <LongitudeDegrees>-4.380875118076801300048828125</LongitudeDegrees>
            </Position>
            <AltitudeMeters>874.79998779296875</AltitudeMeters>
            <DistanceMeters>NAN</DistanceMeters>
          </Trackpoint>
          <Trackpoint>
            <Time>2022-06-16T08:38:30.000Z</Time>
            <Position>
              <LatitudeDegrees>36.8192402087152004241943359375</LatitudeDegrees>
              <LongitudeDegrees>-4.380867742002010345458984375</LongitudeDegrees>
            </Position>
            <AltitudeMeters>875.4000244140625</AltitudeMeters>
            <DistanceMeters>NAN</DistanceMeters>
          </Trackpoint>
          <Trackpoint>
            <Time>2022-06-16T08:38:31.000Z</Time>
            <Position>
              <LatitudeDegrees>36.81924280710518360137939453125</LatitudeDegrees>
              <LongitudeDegrees>-4.38086614944040775299072265625</LongitudeDegrees>
            </Position>
            <AltitudeMeters>875.5999755859375</AltitudeMeters>
            <DistanceMeters>NAN</DistanceMeters>
          </Trackpoint>
          <Trackpoint>
            <Time>2022-06-16T08:38:32.000Z</Time>
            <Position>
              <LatitudeDegrees>36.8192452378571033477783203125</LatitudeDegrees>
              <LongitudeDegrees>-4.380865730345249176025390625</LongitudeDegrees>
            </Position>
            <AltitudeMeters>875.5999755859375</AltitudeMeters>
            <DistanceMeters>NAN</DistanceMeters>
          </Trackpoint>
          <Trackpoint>
            <Time>2022-06-16T08:38:34.000Z</Time>
            <Position>
              <LatitudeDegrees>36.819248758256435394287109375</LatitudeDegrees>
              <LongitudeDegrees>-4.380866400897502899169921875</LongitudeDegrees>
            </Position>
            <AltitudeMeters>875.79998779296875</AltitudeMeters>
            <DistanceMeters>NAN</DistanceMeters>
          </Trackpoint>
          <Trackpoint>
            <Time>2022-06-16T08:38:40.000Z</Time>
            <Position>
              <LatitudeDegrees>36.81927314959466457366943359375</LatitudeDegrees>
              <LongitudeDegrees>-4.38086472451686859130859375</LongitudeDegrees>
            </Position>
            <AltitudeMeters>876.4000244140625</AltitudeMeters>
            <DistanceMeters>NAN</DistanceMeters>
          </Trackpoint>
          <Trackpoint>
            <Time>2022-06-16T08:38:50.000Z</Time>
            <Position>
              <LatitudeDegrees>36.81930852122604846954345703125</LatitudeDegrees>
              <LongitudeDegrees>-4.38085055910050868988037109375</LongitudeDegrees>
            </Position>
            <AltitudeMeters>877.4000244140625</AltitudeMeters>
            <DistanceMeters>NAN</DistanceMeters>
          </Trackpoint>
          <Trackpoint>
            <Time>2022-06-16T08:38:54.000Z</Time>
            <Position>
              <LatitudeDegrees>36.81932763196527957916259765625</LatitudeDegrees>
              <LongitudeDegrees>-4.38084955327212810516357421875</LongitudeDegrees>
            </Position>
            <AltitudeMeters>877.79998779296875</AltitudeMeters>
            <DistanceMeters>NAN</DistanceMeters>
          </Trackpoint>
          <Trackpoint>
            <Time>2022-06-16T08:38:59.000Z</Time>
            <Position>
              <LatitudeDegrees>36.8193461559712886810302734375</LatitudeDegrees>
              <LongitudeDegrees>-4.38083480112254619598388671875</LongitudeDegrees>
            </Position>
            <AltitudeMeters>878.4000244140625</AltitudeMeters>
            <DistanceMeters>NAN</DistanceMeters>
          </Trackpoint>
          <Trackpoint>
            <Time>2022-06-16T08:39:00.000Z</Time>
            <Position>
              <LatitudeDegrees>36.81934892199933528900146484375</LatitudeDegrees>
              <LongitudeDegrees>-4.38082977198064327239990234375</LongitudeDegrees>
            </Position>
            <AltitudeMeters>878.5999755859375</AltitudeMeters>
            <DistanceMeters>NAN</DistanceMeters>
          </Trackpoint>
          <Trackpoint>
            <Time>2022-06-16T08:39:05.000Z</Time>
            <Position>
              <LatitudeDegrees>36.81936149485409259796142578125</LatitudeDegrees>
              <LongitudeDegrees>-4.380791969597339630126953125</LongitudeDegrees>
            </Position>
            <AltitudeMeters>879.4000244140625</AltitudeMeters>
            <DistanceMeters>NAN</DistanceMeters>
          </Trackpoint>
          <Trackpoint>
            <Time>2022-06-16T08:39:10.000Z</Time>
            <Position>
              <LatitudeDegrees>36.81935973465442657470703125</LatitudeDegrees>
              <LongitudeDegrees>-4.3807569332420825958251953125</LongitudeDegrees>
            </Position>
            <AltitudeMeters>879.79998779296875</AltitudeMeters>
            <DistanceMeters>NAN</DistanceMeters>
          </Trackpoint>
          <Trackpoint>
            <Time>2022-06-16T08:39:18.000Z</Time>
            <Position>
              <LatitudeDegrees>36.81932796724140644073486328125</LatitudeDegrees>
              <LongitudeDegrees>-4.38066163100302219390869140625</LongitudeDegrees>
            </Position>
            <AltitudeMeters>880.5999755859375</AltitudeMeters>
            <DistanceMeters>NAN</DistanceMeters>
          </Trackpoint>
          <Trackpoint>
            <Time>2022-06-16T08:39:20.000Z</Time>
            <Position>
              <LatitudeDegrees>36.81932193227112293243408203125</LatitudeDegrees>
              <LongitudeDegrees>-4.38063464127480983734130859375</LongitudeDegrees>
            </Position>
            <AltitudeMeters>881</AltitudeMeters>
            <DistanceMeters>NAN</DistanceMeters>
          </Trackpoint>
          <Trackpoint>
            <Time>2022-06-16T08:39:26.000Z</Time>
            <Position>
              <LatitudeDegrees>36.81931187398731708526611328125</LatitudeDegrees>
              <LongitudeDegrees>-4.3805618025362491607666015625</LongitudeDegrees>
            </Position>
            <AltitudeMeters>882.20001220703125</AltitudeMeters>
            <DistanceMeters>NAN</DistanceMeters>
          </Trackpoint>
          <Trackpoint>
            <Time>2022-06-16T08:39:30.000Z</Time>
            <Position>
              <LatitudeDegrees>36.81929963640868663787841796875</LatitudeDegrees>
              <LongitudeDegrees>-4.38051712699234485626220703125</LongitudeDegrees>
            </Position>
            <AltitudeMeters>882.5999755859375</AltitudeMeters>
            <DistanceMeters>NAN</DistanceMeters>
          </Trackpoint>
          <Trackpoint>
            <Time>2022-06-16T08:39:36.000Z</Time>
            <Position>
              <LatitudeDegrees>36.81929075159132480621337890625</LatitudeDegrees>
              <LongitudeDegrees>-4.3804300390183925628662109375</LongitudeDegrees>
            </Position>
            <AltitudeMeters>883.4000244140625</AltitudeMeters>
            <DistanceMeters>NAN</DistanceMeters>
          </Trackpoint>
          <Trackpoint>
            <Time>2022-06-16T08:39:40.000Z</Time>
            <Position>
              <LatitudeDegrees>36.8192687071859836578369140625</LatitudeDegrees>
              <LongitudeDegrees>-4.38037656247615814208984375</LongitudeDegrees>
            </Position>
            <AltitudeMeters>884.20001220703125</AltitudeMeters>
            <DistanceMeters>NAN</DistanceMeters>
          </Trackpoint>
          <Trackpoint>
            <Time>2022-06-16T08:39:50.000Z</Time>
            <Position>
              <LatitudeDegrees>36.8192128837108612060546875</LatitudeDegrees>
              <LongitudeDegrees>-4.38023616559803485870361328125</LongitudeDegrees>
            </Position>
            <AltitudeMeters>885.5999755859375</AltitudeMeters>
            <DistanceMeters>NAN</DistanceMeters>
          </Trackpoint>
          <Trackpoint>
            <Time>2022-06-16T08:40:00.000Z</Time>
            <Position>
              <LatitudeDegrees>36.81915664114058017730712890625</LatitudeDegrees>
              <LongitudeDegrees>-4.3801108561456203460693359375</LongitudeDegrees>
            </Position>
            <AltitudeMeters>886.4000244140625</AltitudeMeters>
            <DistanceMeters>NAN</DistanceMeters>
          </Trackpoint>
          <Trackpoint>
            <Time>2022-06-16T08:40:10.000Z</Time>
            <Position>
              <LatitudeDegrees>36.819074414670467376708984375</LatitudeDegrees>
              <LongitudeDegrees>-4.37998437322676181793212890625</LongitudeDegrees>
            </Position>
            <AltitudeMeters>887.4000244140625</AltitudeMeters>
            <DistanceMeters>NAN</DistanceMeters>
          </Trackpoint>
          <Trackpoint>
            <Time>2022-06-16T08:40:18.000Z</Time>
            <Position>
              <LatitudeDegrees>36.8190098740160465240478515625</LatitudeDegrees>
              <LongitudeDegrees>-4.3798989616334438323974609375</LongitudeDegrees>
            </Position>
            <AltitudeMeters>887.79998779296875</AltitudeMeters>
            <DistanceMeters>NAN</DistanceMeters>
          </Trackpoint>
          <Trackpoint>
            <Time>2022-06-16T08:40:20.000Z</Time>
            <Position>
              <LatitudeDegrees>36.8190009891986846923828125</LatitudeDegrees>
              <LongitudeDegrees>-4.3798770010471343994140625</LongitudeDegrees>
            </Position>
            <AltitudeMeters>888.20001220703125</AltitudeMeters>
            <DistanceMeters>NAN</DistanceMeters>
          </Trackpoint>
          <Trackpoint>
            <Time>2022-06-16T08:40:30.000Z</Time>
            <Position>
              <LatitudeDegrees>36.81889847852289676666259765625</LatitudeDegrees>
              <LongitudeDegrees>-4.37975957058370113372802734375</LongitudeDegrees>
            </Position>
            <AltitudeMeters>888</AltitudeMeters>
            <DistanceMeters>NAN</DistanceMeters>
          </Trackpoint>
          <Trackpoint>
            <Time>2022-06-16T08:40:40.000Z</Time>
            <Position>
              <LatitudeDegrees>36.81882890872657299041748046875</LatitudeDegrees>
              <LongitudeDegrees>-4.37967784702777862548828125</LongitudeDegrees>
            </Position>
            <AltitudeMeters>889</AltitudeMeters>
            <DistanceMeters>NAN</DistanceMeters>
          </Trackpoint>
          <Trackpoint>
            <Time>2022-06-16T08:40:50.000Z</Time>
            <Position>
              <LatitudeDegrees>36.81877124123275279998779296875</LatitudeDegrees>
              <LongitudeDegrees>-4.379601068794727325439453125</LongitudeDegrees>
            </Position>
            <AltitudeMeters>888.4000244140625</AltitudeMeters>
            <DistanceMeters>NAN</DistanceMeters>
          </Trackpoint>
          <Trackpoint>
            <Time>2022-06-16T08:41:00.000Z</Time>
            <Position>
              <LatitudeDegrees>36.81869546882808208465576171875</LatitudeDegrees>
              <LongitudeDegrees>-4.3794721551239490509033203125</LongitudeDegrees>
            </Position>
            <AltitudeMeters>889.20001220703125</AltitudeMeters>
            <DistanceMeters>NAN</DistanceMeters>
          </Trackpoint>
          <Trackpoint>
            <Time>2022-06-16T08:41:10.000Z</Time>
            <Position>
              <LatitudeDegrees>36.81865138001739978790283203125</LatitudeDegrees>
              <LongitudeDegrees>-4.37933385372161865234375</LongitudeDegrees>
            </Position>
            <AltitudeMeters>889.4000244140625</AltitudeMeters>
            <DistanceMeters>NAN</DistanceMeters>
          </Trackpoint>
          <Trackpoint>
            <Time>2022-06-16T08:41:20.000Z</Time>
            <Position>
              <LatitudeDegrees>36.818589270114898681640625</LatitudeDegrees>
              <LongitudeDegrees>-4.37922698445618152618408203125</LongitudeDegrees>
            </Position>
            <AltitudeMeters>888.79998779296875</AltitudeMeters>
            <DistanceMeters>NAN</DistanceMeters>
          </Trackpoint>
          <Trackpoint>
            <Time>2022-06-16T08:41:27.000Z</Time>
            <Position>
              <LatitudeDegrees>36.8185505457222461700439453125</LatitudeDegrees>
              <LongitudeDegrees>-4.37913411296904087066650390625</LongitudeDegrees>
            </Position>
            <AltitudeMeters>890</AltitudeMeters>
            <DistanceMeters>NAN</DistanceMeters>
          </Trackpoint>
          <Trackpoint>
            <Time>2022-06-16T08:41:30.000Z</Time>
            <Position>
              <LatitudeDegrees>36.8185371346771717071533203125</LatitudeDegrees>
              <LongitudeDegrees>-4.379094131290912628173828125</LongitudeDegrees>
            </Position>
            <AltitudeMeters>889.5999755859375</AltitudeMeters>
            <DistanceMeters>NAN</DistanceMeters>
          </Trackpoint>
          <Trackpoint>
            <Time>2022-06-16T08:41:40.000Z</Time>
            <Position>
              <LatitudeDegrees>36.8184513039886951446533203125</LatitudeDegrees>
              <LongitudeDegrees>-4.378970079123973846435546875</LongitudeDegrees>
            </Position>
            <AltitudeMeters>890</AltitudeMeters>
            <DistanceMeters>NAN</DistanceMeters>
          </Trackpoint>
          <Trackpoint>
            <Time>2022-06-16T08:41:50.000Z</Time>
            <Position>
              <LatitudeDegrees>36.81836823932826519012451171875</LatitudeDegrees>
              <LongitudeDegrees>-4.37884745188057422637939453125</LongitudeDegrees>
            </Position>
            <AltitudeMeters>890.5999755859375</AltitudeMeters>
            <DistanceMeters>NAN</DistanceMeters>
          </Trackpoint>
          <Trackpoint>
            <Time>2022-06-16T08:42:00.000Z</Time>
            <Position>
              <LatitudeDegrees>36.81828844361007213592529296875</LatitudeDegrees>
              <LongitudeDegrees>-4.37874569557607173919677734375</LongitudeDegrees>
            </Position>
            <AltitudeMeters>890</AltitudeMeters>
            <DistanceMeters>NAN</DistanceMeters>
          </Trackpoint>
          <Trackpoint>
            <Time>2022-06-16T08:42:10.000Z</Time>
            <Position>
              <LatitudeDegrees>36.81822105310857295989990234375</LatitudeDegrees>
              <LongitudeDegrees>-4.37863907776772975921630859375</LongitudeDegrees>
            </Position>
            <AltitudeMeters>891</AltitudeMeters>
            <DistanceMeters>NAN</DistanceMeters>
          </Trackpoint>
          <Trackpoint>
            <Time>2022-06-16T08:42:20.000Z</Time>
            <Position>
              <LatitudeDegrees>36.8181324563920497894287109375</LatitudeDegrees>
              <LongitudeDegrees>-4.378518797457218170166015625</LongitudeDegrees>
            </Position>
            <AltitudeMeters>892</AltitudeMeters>
            <DistanceMeters>NAN</DistanceMeters>
          </Trackpoint>
          <Trackpoint>
            <Time>2022-06-16T08:42:30.000Z</Time>
            <Position>
              <LatitudeDegrees>36.818055175244808197021484375</LatitudeDegrees>
              <LongitudeDegrees>-4.37839281745254993438720703125</LongitudeDegrees>
            </Position>
            <AltitudeMeters>891</AltitudeMeters>
            <DistanceMeters>NAN</DistanceMeters>
          </Trackpoint>
          <Trackpoint>
            <Time>2022-06-16T08:42:40.000Z</Time>
            <Position>
              <LatitudeDegrees>36.81797931902110576629638671875</LatitudeDegrees>
              <LongitudeDegrees>-4.3782631494104862213134765625</LongitudeDegrees>
            </Position>
            <AltitudeMeters>891.79998779296875</AltitudeMeters>
            <DistanceMeters>NAN</DistanceMeters>
          </Trackpoint>
          <Trackpoint>
            <Time>2022-06-16T08:42:50.000Z</Time>
            <Position>
              <LatitudeDegrees>36.81790270842611789703369140625</LatitudeDegrees>
              <LongitudeDegrees>-4.3781421147286891937255859375</LongitudeDegrees>
            </Position>
            <AltitudeMeters>892.5999755859375</AltitudeMeters>
            <DistanceMeters>NAN</DistanceMeters>
          </Trackpoint>
          <Trackpoint>
            <Time>2022-06-16T08:42:53.000Z</Time>
            <Position>
              <LatitudeDegrees>36.8178863637149333953857421875</LatitudeDegrees>
              <LongitudeDegrees>-4.37810473144054412841796875</LongitudeDegrees>
            </Position>
            <AltitudeMeters>893</AltitudeMeters>
            <DistanceMeters>NAN</DistanceMeters>
          </Trackpoint>
          <Trackpoint>
            <Time>2022-06-16T08:43:00.000Z</Time>
            <Position>
              <LatitudeDegrees>36.81783883832395076751708984375</LatitudeDegrees>
              <LongitudeDegrees>-4.37801328487694263458251953125</LongitudeDegrees>
            </Position>
            <AltitudeMeters>893.5999755859375</AltitudeMeters>
            <DistanceMeters>NAN</DistanceMeters>
          </Trackpoint>
          <Trackpoint>
            <Time>2022-06-16T08:43:10.000Z</Time>
            <Position>
              <LatitudeDegrees>36.81778930127620697021484375</LatitudeDegrees>
              <LongitudeDegrees>-4.37787137925624847412109375</LongitudeDegrees>
            </Position>
            <AltitudeMeters>894.5999755859375</AltitudeMeters>
            <DistanceMeters>NAN</DistanceMeters>
          </Trackpoint>
          <Trackpoint>
            <Time>2022-06-16T08:43:20.000Z</Time>
            <Position>
              <LatitudeDegrees>36.817745380103588104248046875</LatitudeDegrees>
              <LongitudeDegrees>-4.377731569111347198486328125</LongitudeDegrees>
            </Position>
            <AltitudeMeters>896.4000244140625</AltitudeMeters>
            <DistanceMeters>NAN</DistanceMeters>
          </Trackpoint>
          <Trackpoint>
            <Time>2022-06-16T08:43:30.000Z</Time>
            <Position>
              <LatitudeDegrees>36.81770958937704563140869140625</LatitudeDegrees>
              <LongitudeDegrees>-4.3775791861116886138916015625</LongitudeDegrees>
            </Position>
            <AltitudeMeters>897.4000244140625</AltitudeMeters>
            <DistanceMeters>NAN</DistanceMeters>
          </Trackpoint>
          <Trackpoint>
            <Time>2022-06-16T08:43:40.000Z</Time>
            <Position>
              <LatitudeDegrees>36.81766181252896785736083984375</LatitudeDegrees>
              <LongitudeDegrees>-4.3774289824068546295166015625</LongitudeDegrees>
            </Position>
            <AltitudeMeters>899.20001220703125</AltitudeMeters>
            <DistanceMeters>NAN</DistanceMeters>
          </Trackpoint>
          <Trackpoint>
            <Time>2022-06-16T08:43:43.000Z</Time>
            <Position>
              <LatitudeDegrees>36.81764773093163967132568359375</LatitudeDegrees>
              <LongitudeDegrees>-4.3773931078612804412841796875</LongitudeDegrees>
            </Position>
            <AltitudeMeters>899.4000244140625</AltitudeMeters>
            <DistanceMeters>NAN</DistanceMeters>
          </Trackpoint>
          <Trackpoint>
            <Time>2022-06-16T08:43:50.000Z</Time>
            <Position>
              <LatitudeDegrees>36.81760163046419620513916015625</LatitudeDegrees>
              <LongitudeDegrees>-4.37730920501053333282470703125</LongitudeDegrees>
            </Position>
            <AltitudeMeters>900</AltitudeMeters>
            <DistanceMeters>NAN</DistanceMeters>
          </Trackpoint>
          <Trackpoint>
            <Time>2022-06-16T08:43:52.000Z</Time>
            <Position>
              <LatitudeDegrees>36.81758319027721881866455078125</LatitudeDegrees>
              <LongitudeDegrees>-4.37728623859584331512451171875</LongitudeDegrees>
            </Position>
            <AltitudeMeters>900.20001220703125</AltitudeMeters>
            <DistanceMeters>NAN</DistanceMeters>
          </Trackpoint>
          <Trackpoint>
            <Time>2022-06-16T08:43:55.000Z</Time>
            <Position>
              <LatitudeDegrees>36.81756525300443172454833984375</LatitudeDegrees>
              <LongitudeDegrees>-4.37724240124225616455078125</LongitudeDegrees>
            </Position>
            <AltitudeMeters>900.20001220703125</AltitudeMeters>
            <DistanceMeters>NAN</DistanceMeters>
          </Trackpoint>
          <Trackpoint>
            <Time>2022-06-16T08:43:57.000Z</Time>
            <Position>
              <LatitudeDegrees>36.81755485944449901580810546875</LatitudeDegrees>
              <LongitudeDegrees>-4.37720962800085544586181640625</LongitudeDegrees>
            </Position>
            <AltitudeMeters>900.4000244140625</AltitudeMeters>
            <DistanceMeters>NAN</DistanceMeters>
          </Trackpoint>
          <Trackpoint>
            <Time>2022-06-16T08:43:59.000Z</Time>
            <Position>
              <LatitudeDegrees>36.8175445497035980224609375</LatitudeDegrees>
              <LongitudeDegrees>-4.37717442400753498077392578125</LongitudeDegrees>
            </Position>
            <AltitudeMeters>900.5999755859375</AltitudeMeters>
            <DistanceMeters>NAN</DistanceMeters>
          </Trackpoint>
          <Trackpoint>
            <Time>2022-06-16T08:44:00.000Z</Time>
            <Position>
              <LatitudeDegrees>36.81753960438072681427001953125</LatitudeDegrees>
              <LongitudeDegrees>-4.37716067768633365631103515625</LongitudeDegrees>
            </Position>
            <AltitudeMeters>900.4000244140625</AltitudeMeters>
            <DistanceMeters>NAN</DistanceMeters>
          </Trackpoint>
          <Trackpoint>
            <Time>2022-06-16T08:44:01.000Z</Time>
            <Position>
              <LatitudeDegrees>36.81753449141979217529296875</LatitudeDegrees>
              <LongitudeDegrees>-4.37714877538383007049560546875</LongitudeDegrees>
            </Position>
            <AltitudeMeters>900.4000244140625</AltitudeMeters>
            <DistanceMeters>NAN</DistanceMeters>
          </Trackpoint>
          <Trackpoint>
            <Time>2022-06-16T08:44:10.000Z</Time>
            <Position>
              <LatitudeDegrees>36.817491911351680755615234375</LatitudeDegrees>
              <LongitudeDegrees>-4.37702707014977931976318359375</LongitudeDegrees>
            </Position>
            <AltitudeMeters>900</AltitudeMeters>
            <DistanceMeters>NAN</DistanceMeters>
          </Trackpoint>
          <Trackpoint>
            <Time>2022-06-16T08:44:20.000Z</Time>
            <Position>
              <LatitudeDegrees>36.8174384348094463348388671875</LatitudeDegrees>
              <LongitudeDegrees>-4.37689899466931819915771484375</LongitudeDegrees>
            </Position>
            <AltitudeMeters>901</AltitudeMeters>
            <DistanceMeters>NAN</DistanceMeters>
          </Trackpoint>
          <Trackpoint>
            <Time>2022-06-16T08:44:30.000Z</Time>
            <Position>
              <LatitudeDegrees>36.81741136126220226287841796875</LatitudeDegrees>
              <LongitudeDegrees>-4.37677728943526744842529296875</LongitudeDegrees>
            </Position>
            <AltitudeMeters>901.5999755859375</AltitudeMeters>
            <DistanceMeters>NAN</DistanceMeters>
          </Trackpoint>
          <Trackpoint>
            <Time>2022-06-16T08:44:36.000Z</Time>
            <Position>
              <LatitudeDegrees>36.81737967766821384429931640625</LatitudeDegrees>
              <LongitudeDegrees>-4.37669883482158184051513671875</LongitudeDegrees>
            </Position>
            <AltitudeMeters>902.20001220703125</AltitudeMeters>
            <DistanceMeters>NAN</DistanceMeters>
          </Trackpoint>
          <Trackpoint>
            <Time>2022-06-16T08:44:40.000Z</Time>
            <Position>
              <LatitudeDegrees>36.81736375205218791961669921875</LatitudeDegrees>
              <LongitudeDegrees>-4.3766414187848567962646484375</LongitudeDegrees>
            </Position>
            <AltitudeMeters>902.79998779296875</AltitudeMeters>
            <DistanceMeters>NAN</DistanceMeters>
          </Trackpoint>
          <Trackpoint>
            <Time>2022-06-16T08:44:46.000Z</Time>
            <Position>
              <LatitudeDegrees>36.8173435516655445098876953125</LatitudeDegrees>
              <LongitudeDegrees>-4.37655684538185596466064453125</LongitudeDegrees>
            </Position>
            <AltitudeMeters>903.5999755859375</AltitudeMeters>
            <DistanceMeters>NAN</DistanceMeters>
          </Trackpoint>
          <Trackpoint>
            <Time>2022-06-16T08:44:50.000Z</Time>
            <Position>
              <LatitudeDegrees>36.81732838042080402374267578125</LatitudeDegrees>
              <LongitudeDegrees>-4.3764985911548137664794921875</LongitudeDegrees>
            </Position>
            <AltitudeMeters>904.5999755859375</AltitudeMeters>
            <DistanceMeters>NAN</DistanceMeters>
          </Trackpoint>
          <Trackpoint>
            <Time>2022-06-16T08:44:51.000Z</Time>
            <Position>
              <LatitudeDegrees>36.8173210881650447845458984375</LatitudeDegrees>
              <LongitudeDegrees>-4.37648442573845386505126953125</LongitudeDegrees>
            </Position>
            <AltitudeMeters>905</AltitudeMeters>
            <DistanceMeters>NAN</DistanceMeters>
          </Trackpoint>
          <Trackpoint>
            <Time>2022-06-16T08:44:52.000Z</Time>
            <Position>
              <LatitudeDegrees>36.81731480173766613006591796875</LatitudeDegrees>
              <LongitudeDegrees>-4.37647051177918910980224609375</LongitudeDegrees>
            </Position>
            <AltitudeMeters>905.20001220703125</AltitudeMeters>
            <DistanceMeters>NAN</DistanceMeters>
          </Trackpoint>
          <Trackpoint>
            <Time>2022-06-16T08:44:53.000Z</Time>
            <Position>
              <LatitudeDegrees>36.817309856414794921875</LatitudeDegrees>
              <LongitudeDegrees>-4.37645643018186092376708984375</LongitudeDegrees>
            </Position>
            <AltitudeMeters>905.5999755859375</AltitudeMeters>
            <DistanceMeters>NAN</DistanceMeters>
          </Trackpoint>
          <Trackpoint>
            <Time>2022-06-16T08:44:57.000Z</Time>
            <Position>
              <LatitudeDegrees>36.8172902427613735198974609375</LatitudeDegrees>
              <LongitudeDegrees>-4.376403205096721649169921875</LongitudeDegrees>
            </Position>
            <AltitudeMeters>906</AltitudeMeters>
            <DistanceMeters>NAN</DistanceMeters>
          </Trackpoint>
          <Trackpoint>
            <Time>2022-06-16T08:45:00.000Z</Time>
            <Position>
              <LatitudeDegrees>36.8172821961343288421630859375</LatitudeDegrees>
              <LongitudeDegrees>-4.3763628043234348297119140625</LongitudeDegrees>
            </Position>
            <AltitudeMeters>906.5999755859375</AltitudeMeters>
            <DistanceMeters>NAN</DistanceMeters>
          </Trackpoint>
          <Trackpoint>
            <Time>2022-06-16T08:45:04.000Z</Time>
            <Position>
              <LatitudeDegrees>36.8172548711299896240234375</LatitudeDegrees>
              <LongitudeDegrees>-4.3763081543147563934326171875</LongitudeDegrees>
            </Position>
            <AltitudeMeters>907</AltitudeMeters>
            <DistanceMeters>NAN</DistanceMeters>
          </Trackpoint>
          <Trackpoint>
            <Time>2022-06-16T08:45:10.000Z</Time>
            <Position>
              <LatitudeDegrees>36.8172255344688892364501953125</LatitudeDegrees>
              <LongitudeDegrees>-4.37623632140457630157470703125</LongitudeDegrees>
            </Position>
            <AltitudeMeters>907.79998779296875</AltitudeMeters>
            <DistanceMeters>NAN</DistanceMeters>
          </Trackpoint>
          <Trackpoint>
            <Time>2022-06-16T08:45:14.000Z</Time>
            <Position>
              <LatitudeDegrees>36.8172054179012775421142578125</LatitudeDegrees>
              <LongitudeDegrees>-4.37619441188871860504150390625</LongitudeDegrees>
            </Position>
            <AltitudeMeters>908.20001220703125</AltitudeMeters>
            <DistanceMeters>NAN</DistanceMeters>
          </Trackpoint>
          <Trackpoint>
            <Time>2022-06-16T08:45:20.000Z</Time>
            <Position>
              <LatitudeDegrees>36.81717884726822376251220703125</LatitudeDegrees>
              <LongitudeDegrees>-4.376111514866352081298828125</LongitudeDegrees>
            </Position>
            <AltitudeMeters>909</AltitudeMeters>
            <DistanceMeters>NAN</DistanceMeters>
          </Trackpoint>
          <Trackpoint>
            <Time>2022-06-16T08:45:27.000Z</Time>
            <Position>
              <LatitudeDegrees>36.81715303100645542144775390625</LatitudeDegrees>
              <LongitudeDegrees>-4.37602576799690723419189453125</LongitudeDegrees>
            </Position>
            <AltitudeMeters>910</AltitudeMeters>
            <DistanceMeters>NAN</DistanceMeters>
          </Trackpoint>
          <Trackpoint>
            <Time>2022-06-16T08:45:30.000Z</Time>
            <Position>
              <LatitudeDegrees>36.81714749895036220550537109375</LatitudeDegrees>
              <LongitudeDegrees>-4.37600322067737579345703125</LongitudeDegrees>
            </Position>
            <AltitudeMeters>910.20001220703125</AltitudeMeters>
            <DistanceMeters>NAN</DistanceMeters>
          </Trackpoint>
          <Trackpoint>
            <Time>2022-06-16T08:45:40.000Z</Time>
            <Position>
              <LatitudeDegrees>36.817139200866222381591796875</LatitudeDegrees>
              <LongitudeDegrees>-4.37583901919424533843994140625</LongitudeDegrees>
            </Position>
            <AltitudeMeters>913.5999755859375</AltitudeMeters>
            <DistanceMeters>NAN</DistanceMeters>
          </Trackpoint>
          <Trackpoint>
            <Time>2022-06-16T08:45:50.000Z</Time>
            <Position>
              <LatitudeDegrees>36.81711128912866115570068359375</LatitudeDegrees>
              <LongitudeDegrees>-4.3757046572864055633544921875</LongitudeDegrees>
            </Position>
            <AltitudeMeters>915</AltitudeMeters>
            <DistanceMeters>NAN</DistanceMeters>
          </Trackpoint>
          <Trackpoint>
            <Time>2022-06-16T08:46:00.000Z</Time>
            <Position>
              <LatitudeDegrees>36.81705395691096782684326171875</LatitudeDegrees>
              <LongitudeDegrees>-4.3756084330379962921142578125</LongitudeDegrees>
            </Position>
            <AltitudeMeters>916.5999755859375</AltitudeMeters>
            <DistanceMeters>NAN</DistanceMeters>
          </Trackpoint>
          <Trackpoint>
            <Time>2022-06-16T08:46:01.000Z</Time>
            <Position>
              <LatitudeDegrees>36.8170483410358428955078125</LatitudeDegrees>
              <LongitudeDegrees>-4.3755970336496829986572265625</LongitudeDegrees>
            </Position>
            <AltitudeMeters>916.79998779296875</AltitudeMeters>
            <DistanceMeters>NAN</DistanceMeters>
          </Trackpoint>
          <Trackpoint>
            <Time>2022-06-16T08:46:06.000Z</Time>
            <Position>
              <LatitudeDegrees>36.817018501460552215576171875</LatitudeDegrees>
              <LongitudeDegrees>-4.37553660012781620025634765625</LongitudeDegrees>
            </Position>
            <AltitudeMeters>917.4000244140625</AltitudeMeters>
            <DistanceMeters>NAN</DistanceMeters>
          </Trackpoint>
          <Trackpoint>
            <Time>2022-06-16T08:46:10.000Z</Time>
            <Position>
              <LatitudeDegrees>36.8169975467026233673095703125</LatitudeDegrees>
              <LongitudeDegrees>-4.3754934333264827728271484375</LongitudeDegrees>
            </Position>
            <AltitudeMeters>917.79998779296875</AltitudeMeters>
            <DistanceMeters>NAN</DistanceMeters>
          </Trackpoint>
          <Trackpoint>
            <Time>2022-06-16T08:46:20.000Z</Time>
            <Position>
              <LatitudeDegrees>36.816941387951374053955078125</LatitudeDegrees>
              <LongitudeDegrees>-4.37536493875086307525634765625</LongitudeDegrees>
            </Position>
            <AltitudeMeters>919.20001220703125</AltitudeMeters>
            <DistanceMeters>NAN</DistanceMeters>
          </Trackpoint>
          <Trackpoint>
            <Time>2022-06-16T08:46:30.000Z</Time>
            <Position>
              <LatitudeDegrees>36.81686854921281337738037109375</LatitudeDegrees>
              <LongitudeDegrees>-4.37523736618459224700927734375</LongitudeDegrees>
            </Position>
            <AltitudeMeters>920.5999755859375</AltitudeMeters>
            <DistanceMeters>NAN</DistanceMeters>
          </Trackpoint>
          <Trackpoint>
            <Time>2022-06-16T08:46:37.000Z</Time>
            <Position>
              <LatitudeDegrees>36.81680819950997829437255859375</LatitudeDegrees>
              <LongitudeDegrees>-4.37517366372048854827880859375</LongitudeDegrees>
            </Position>
            <AltitudeMeters>920.4000244140625</AltitudeMeters>
            <DistanceMeters>NAN</DistanceMeters>
          </Trackpoint>
          <Trackpoint>
            <Time>2022-06-16T08:46:40.000Z</Time>
            <Position>
              <LatitudeDegrees>36.8167839758098125457763671875</LatitudeDegrees>
              <LongitudeDegrees>-4.37513862736523151397705078125</LongitudeDegrees>
            </Position>
            <AltitudeMeters>920.79998779296875</AltitudeMeters>
            <DistanceMeters>NAN</DistanceMeters>
          </Trackpoint>
          <Trackpoint>
            <Time>2022-06-16T08:46:50.000Z</Time>
            <Position>
              <LatitudeDegrees>36.81670661084353923797607421875</LatitudeDegrees>
              <LongitudeDegrees>-4.3750002421438694000244140625</LongitudeDegrees>
            </Position>
            <AltitudeMeters>920.79998779296875</AltitudeMeters>
            <DistanceMeters>NAN</DistanceMeters>
          </Trackpoint>
          <Trackpoint>
            <Time>2022-06-16T08:47:00.000Z</Time>
            <Position>
              <LatitudeDegrees>36.8166186846792697906494140625</LatitudeDegrees>
              <LongitudeDegrees>-4.374898485839366912841796875</LongitudeDegrees>
            </Position>
            <AltitudeMeters>918.5999755859375</AltitudeMeters>
            <DistanceMeters>NAN</DistanceMeters>
          </Trackpoint>
          <Trackpoint>
            <Time>2022-06-16T08:47:10.000Z</Time>
            <Position>
              <LatitudeDegrees>36.816557161509990692138671875</LatitudeDegrees>
              <LongitudeDegrees>-4.374756328761577606201171875</LongitudeDegrees>
            </Position>
            <AltitudeMeters>919.20001220703125</AltitudeMeters>
            <DistanceMeters>NAN</DistanceMeters>
          </Trackpoint>
          <Trackpoint>
            <Time>2022-06-16T08:47:20.000Z</Time>
            <Position>
              <LatitudeDegrees>36.8164771981537342071533203125</LatitudeDegrees>
              <LongitudeDegrees>-4.3746324442327022552490234375</LongitudeDegrees>
            </Position>
            <AltitudeMeters>920</AltitudeMeters>
            <DistanceMeters>NAN</DistanceMeters>
          </Trackpoint>
          <Trackpoint>
            <Time>2022-06-16T08:47:25.000Z</Time>
            <Position>
              <LatitudeDegrees>36.81643554009497165679931640625</LatitudeDegrees>
              <LongitudeDegrees>-4.3745838291943073272705078125</LongitudeDegrees>
            </Position>
            <AltitudeMeters>920.20001220703125</AltitudeMeters>
            <DistanceMeters>NAN</DistanceMeters>
          </Trackpoint>
          <Trackpoint>
            <Time>2022-06-16T08:47:26.000Z</Time>
            <Position>
              <LatitudeDegrees>36.81642732582986354827880859375</LatitudeDegrees>
              <LongitudeDegrees>-4.3745720945298671722412109375</LongitudeDegrees>
            </Position>
            <AltitudeMeters>920.4000244140625</AltitudeMeters>
            <DistanceMeters>NAN</DistanceMeters>
          </Trackpoint>
          <Trackpoint>
            <Time>2022-06-16T08:47:27.000Z</Time>
            <Position>
              <LatitudeDegrees>36.81641793809831142425537109375</LatitudeDegrees>
              <LongitudeDegrees>-4.37455876730382442474365234375</LongitudeDegrees>
            </Position>
            <AltitudeMeters>920.4000244140625</AltitudeMeters>
            <DistanceMeters>NAN</DistanceMeters>
          </Trackpoint>
          <Trackpoint>
            <Time>2022-06-16T08:47:30.000Z</Time>
            <Position>
              <LatitudeDegrees>36.81639698334038257598876953125</LatitudeDegrees>
              <LongitudeDegrees>-4.374536387622356414794921875</LongitudeDegrees>
            </Position>
            <AltitudeMeters>920.5999755859375</AltitudeMeters>
            <DistanceMeters>NAN</DistanceMeters>
          </Trackpoint>
          <Trackpoint>
            <Time>2022-06-16T08:47:33.000Z</Time>
            <Position>
              <LatitudeDegrees>36.81636043824255466461181640625</LatitudeDegrees>
              <LongitudeDegrees>-4.374508224427700042724609375</LongitudeDegrees>
            </Position>
            <AltitudeMeters>920.5999755859375</AltitudeMeters>
            <DistanceMeters>NAN</DistanceMeters>
          </Trackpoint>
          <Trackpoint>
            <Time>2022-06-16T08:47:40.000Z</Time>
            <Position>
              <LatitudeDegrees>36.81626538746058940887451171875</LatitudeDegrees>
              <LongitudeDegrees>-4.3744503892958164215087890625</LongitudeDegrees>
            </Position>
            <AltitudeMeters>920.79998779296875</AltitudeMeters>
            <DistanceMeters>NAN</DistanceMeters>
          </Trackpoint>
          <Trackpoint>
            <Time>2022-06-16T08:47:50.000Z</Time>
            <Position>
              <LatitudeDegrees>36.8161580152809619903564453125</LatitudeDegrees>
              <LongitudeDegrees>-4.374375455081462860107421875</LongitudeDegrees>
            </Position>
            <AltitudeMeters>922</AltitudeMeters>
            <DistanceMeters>NAN</DistanceMeters>
          </Trackpoint>
          <Trackpoint>
            <Time>2022-06-16T08:48:00.000Z</Time>
            <Position>
              <LatitudeDegrees>36.81607428006827831268310546875</LatitudeDegrees>
              <LongitudeDegrees>-4.37429599463939666748046875</LongitudeDegrees>
            </Position>
            <AltitudeMeters>924</AltitudeMeters>
            <DistanceMeters>NAN</DistanceMeters>
          </Trackpoint>
          <Trackpoint>
            <Time>2022-06-16T08:48:02.000Z</Time>
            <Position>
              <LatitudeDegrees>36.81605583988130092620849609375</LatitudeDegrees>
              <LongitudeDegrees>-4.37428987585008144378662109375</LongitudeDegrees>
            </Position>
            <AltitudeMeters>924.20001220703125</AltitudeMeters>
            <DistanceMeters>NAN</DistanceMeters>
          </Trackpoint>
          <Trackpoint>
            <Time>2022-06-16T08:48:04.000Z</Time>
            <Position>
              <LatitudeDegrees>36.81604058481752872467041015625</LatitudeDegrees>
              <LongitudeDegrees>-4.3742904625833034515380859375</LongitudeDegrees>
            </Position>
            <AltitudeMeters>924.20001220703125</AltitudeMeters>
            <DistanceMeters>NAN</DistanceMeters>
          </Trackpoint>
          <Trackpoint>
            <Time>2022-06-16T08:48:05.000Z</Time>
            <Position>
              <LatitudeDegrees>36.81602901779115200042724609375</LatitudeDegrees>
              <LongitudeDegrees>-4.37428954057395458221435546875</LongitudeDegrees>
            </Position>
            <AltitudeMeters>924.5999755859375</AltitudeMeters>
            <DistanceMeters>NAN</DistanceMeters>
          </Trackpoint>
          <Trackpoint>
            <Time>2022-06-16T08:48:06.000Z</Time>
            <Position>
              <LatitudeDegrees>36.81601443327963352203369140625</LatitudeDegrees>
              <LongitudeDegrees>-4.37428970821201801300048828125</LongitudeDegrees>
            </Position>
            <AltitudeMeters>924.79998779296875</AltitudeMeters>
            <DistanceMeters>NAN</DistanceMeters>
          </Trackpoint>
          <Trackpoint>
            <Time>2022-06-16T08:48:10.000Z</Time>
            <Position>
              <LatitudeDegrees>36.81597403250634670257568359375</LatitudeDegrees>
              <LongitudeDegrees>-4.37428585253655910491943359375</LongitudeDegrees>
            </Position>
            <AltitudeMeters>925.5999755859375</AltitudeMeters>
            <DistanceMeters>NAN</DistanceMeters>
          </Trackpoint>
          <Trackpoint>
            <Time>2022-06-16T08:48:19.000Z</Time>
            <Position>
              <LatitudeDegrees>36.81585232727229595184326171875</LatitudeDegrees>
              <LongitudeDegrees>-4.37426649034023284912109375</LongitudeDegrees>
            </Position>
            <AltitudeMeters>927.4000244140625</AltitudeMeters>
            <DistanceMeters>NAN</DistanceMeters>
          </Trackpoint>
          <Trackpoint>
            <Time>2022-06-16T08:48:20.000Z</Time>
            <Position>
              <LatitudeDegrees>36.81582399643957614898681640625</LatitudeDegrees>
              <LongitudeDegrees>-4.37425618059933185577392578125</LongitudeDegrees>
            </Position>
            <AltitudeMeters>927.79998779296875</AltitudeMeters>
            <DistanceMeters>NAN</DistanceMeters>
          </Trackpoint>
          <Trackpoint>
            <Time>2022-06-16T08:48:30.000Z</Time>
            <Position>
              <LatitudeDegrees>36.815720982849597930908203125</LatitudeDegrees>
              <LongitudeDegrees>-4.37425785697996616363525390625</LongitudeDegrees>
            </Position>
            <AltitudeMeters>928</AltitudeMeters>
            <DistanceMeters>NAN</DistanceMeters>
          </Trackpoint>
          <Trackpoint>
            <Time>2022-06-16T08:48:40.000Z</Time>
            <Position>
              <LatitudeDegrees>36.8156098388135433197021484375</LatitudeDegrees>
              <LongitudeDegrees>-4.3742658197879791259765625</LongitudeDegrees>
            </Position>
            <AltitudeMeters>927.79998779296875</AltitudeMeters>
            <DistanceMeters>NAN</DistanceMeters>
          </Trackpoint>
          <Trackpoint>
            <Time>2022-06-16T08:48:50.000Z</Time>
            <Position>
              <LatitudeDegrees>36.815497018396854400634765625</LatitudeDegrees>
              <LongitudeDegrees>-4.37425978481769561767578125</LongitudeDegrees>
            </Position>
            <AltitudeMeters>926.5999755859375</AltitudeMeters>
            <DistanceMeters>NAN</DistanceMeters>
          </Trackpoint>
          <Trackpoint>
            <Time>2022-06-16T08:49:00.000Z</Time>
            <Position>
              <LatitudeDegrees>36.8153513409197330474853515625</LatitudeDegrees>
              <LongitudeDegrees>-4.37420773319900035858154296875</LongitudeDegrees>
            </Position>
            <AltitudeMeters>924.20001220703125</AltitudeMeters>
            <DistanceMeters>NAN</DistanceMeters>
          </Trackpoint>
          <Trackpoint>
            <Time>2022-06-16T08:49:07.000Z</Time>
            <Position>
              <LatitudeDegrees>36.81527498178184032440185546875</LatitudeDegrees>
              <LongitudeDegrees>-4.37414101324975490570068359375</LongitudeDegrees>
            </Position>
            <AltitudeMeters>922.5999755859375</AltitudeMeters>
            <DistanceMeters>NAN</DistanceMeters>
          </Trackpoint>
          <Trackpoint>
            <Time>2022-06-16T08:49:10.000Z</Time>
            <Position>
              <LatitudeDegrees>36.81525888852775096893310546875</LatitudeDegrees>
              <LongitudeDegrees>-4.37412810511887073516845703125</LongitudeDegrees>
            </Position>
            <AltitudeMeters>922.20001220703125</AltitudeMeters>
            <DistanceMeters>NAN</DistanceMeters>
          </Trackpoint>
          <Trackpoint>
            <Time>2022-06-16T08:49:11.000Z</Time>
            <Position>
              <LatitudeDegrees>36.81524254381656646728515625</LatitudeDegrees>
              <LongitudeDegrees>-4.3741075694561004638671875</LongitudeDegrees>
            </Position>
            <AltitudeMeters>922.20001220703125</AltitudeMeters>
            <DistanceMeters>NAN</DistanceMeters>
          </Trackpoint>
          <Trackpoint>
            <Time>2022-06-16T08:49:12.000Z</Time>
            <Position>
              <LatitudeDegrees>36.81524254381656646728515625</LatitudeDegrees>
              <LongitudeDegrees>-4.3741075694561004638671875</LongitudeDegrees>
            </Position>
            <AltitudeMeters>922.20001220703125</AltitudeMeters>
            <DistanceMeters>NAN</DistanceMeters>
          </Trackpoint>
          <Trackpoint>
            <Time>2022-06-16T08:49:20.000Z</Time>
            <Position>
              <LatitudeDegrees>36.815225444734096527099609375</LatitudeDegrees>
              <LongitudeDegrees>-4.37396968714892864227294921875</LongitudeDegrees>
            </Position>
            <AltitudeMeters>924.4000244140625</AltitudeMeters>
            <DistanceMeters>NAN</DistanceMeters>
          </Trackpoint>
          <Trackpoint>
            <Time>2022-06-16T08:49:30.000Z</Time>
            <Position>
              <LatitudeDegrees>36.8152182362973690032958984375</LatitudeDegrees>
              <LongitudeDegrees>-4.373793415725231170654296875</LongitudeDegrees>
            </Position>
            <AltitudeMeters>927.20001220703125</AltitudeMeters>
            <DistanceMeters>NAN</DistanceMeters>
          </Trackpoint>
          <Trackpoint>
            <Time>2022-06-16T08:49:40.000Z</Time>
            <Position>
              <LatitudeDegrees>36.815157718956470489501953125</LatitudeDegrees>
              <LongitudeDegrees>-4.37365050427615642547607421875</LongitudeDegrees>
            </Position>
            <AltitudeMeters>928.4000244140625</AltitudeMeters>
            <DistanceMeters>NAN</DistanceMeters>
          </Trackpoint>
          <Trackpoint>
            <Time>2022-06-16T08:49:50.000Z</Time>
            <Position>
              <LatitudeDegrees>36.815049089491367340087890625</LatitudeDegrees>
              <LongitudeDegrees>-4.3735552020370960235595703125</LongitudeDegrees>
            </Position>
            <AltitudeMeters>927.4000244140625</AltitudeMeters>
            <DistanceMeters>NAN</DistanceMeters>
          </Trackpoint>
          <Trackpoint>
            <Time>2022-06-16T08:50:00.000Z</Time>
            <Position>
              <LatitudeDegrees>36.815009526908397674560546875</LatitudeDegrees>
              <LongitudeDegrees>-4.3735012225806713104248046875</LongitudeDegrees>
            </Position>
            <AltitudeMeters>927.5999755859375</AltitudeMeters>
            <DistanceMeters>NAN</DistanceMeters>
          </Trackpoint>
          <Trackpoint>
            <Time>2022-06-16T08:50:10.000Z</Time>
            <Position>
              <LatitudeDegrees>36.81492662988603115081787109375</LatitudeDegrees>
              <LongitudeDegrees>-4.37344883568584918975830078125</LongitudeDegrees>
            </Position>
            <AltitudeMeters>926.5999755859375</AltitudeMeters>
            <DistanceMeters>NAN</DistanceMeters>
          </Trackpoint>
          <Trackpoint>
            <Time>2022-06-16T08:50:14.000Z</Time>
            <Position>
              <LatitudeDegrees>36.81488572619855403900146484375</LatitudeDegrees>
              <LongitudeDegrees>-4.37341162003576755523681640625</LongitudeDegrees>
            </Position>
            <AltitudeMeters>926.5999755859375</AltitudeMeters>
            <DistanceMeters>NAN</DistanceMeters>
          </Trackpoint>
          <Trackpoint>
            <Time>2022-06-16T08:50:20.000Z</Time>
            <Position>
              <LatitudeDegrees>36.8148423917591571807861328125</LatitudeDegrees>
              <LongitudeDegrees>-4.37337708659470081329345703125</LongitudeDegrees>
            </Position>
            <AltitudeMeters>926.5999755859375</AltitudeMeters>
            <DistanceMeters>NAN</DistanceMeters>
          </Trackpoint>
          <Trackpoint>
            <Time>2022-06-16T08:50:30.000Z</Time>
            <Position>
              <LatitudeDegrees>36.814827136695384979248046875</LatitudeDegrees>
              <LongitudeDegrees>-4.37334540300071239471435546875</LongitudeDegrees>
            </Position>
            <AltitudeMeters>927</AltitudeMeters>
            <DistanceMeters>NAN</DistanceMeters>
          </Trackpoint>
          <Trackpoint>
            <Time>2022-06-16T08:50:40.000Z</Time>
            <Position>
              <LatitudeDegrees>36.81470476090908050537109375</LatitudeDegrees>
              <LongitudeDegrees>-4.373244903981685638427734375</LongitudeDegrees>
            </Position>
            <AltitudeMeters>928</AltitudeMeters>
            <DistanceMeters>NAN</DistanceMeters>
          </Trackpoint>
          <Trackpoint>
            <Time>2022-06-16T08:50:49.000Z</Time>
            <Position>
              <LatitudeDegrees>36.81460996158421039581298828125</LatitudeDegrees>
              <LongitudeDegrees>-4.3731679581105709075927734375</LongitudeDegrees>
            </Position>
            <AltitudeMeters>929.4000244140625</AltitudeMeters>
            <DistanceMeters>NAN</DistanceMeters>
          </Trackpoint>
          <Trackpoint>
            <Time>2022-06-16T08:50:50.000Z</Time>
            <Position>
              <LatitudeDegrees>36.8145986460149288177490234375</LatitudeDegrees>
              <LongitudeDegrees>-4.373165108263492584228515625</LongitudeDegrees>
            </Position>
            <AltitudeMeters>929.4000244140625</AltitudeMeters>
            <DistanceMeters>NAN</DistanceMeters>
          </Trackpoint>
          <Trackpoint>
            <Time>2022-06-16T08:50:59.000Z</Time>
            <Position>
              <LatitudeDegrees>36.81450200267136096954345703125</LatitudeDegrees>
              <LongitudeDegrees>-4.37312546186149120330810546875</LongitudeDegrees>
            </Position>
            <AltitudeMeters>930.5999755859375</AltitudeMeters>
            <DistanceMeters>NAN</DistanceMeters>
          </Trackpoint>
          <Trackpoint>
            <Time>2022-06-16T08:51:00.000Z</Time>
            <Position>
              <LatitudeDegrees>36.81449211202561855316162109375</LatitudeDegrees>
              <LongitudeDegrees>-4.37312060035765171051025390625</LongitudeDegrees>
            </Position>
            <AltitudeMeters>931</AltitudeMeters>
            <DistanceMeters>NAN</DistanceMeters>
          </Trackpoint>
          <Trackpoint>
            <Time>2022-06-16T08:51:05.000Z</Time>
            <Position>
              <LatitudeDegrees>36.81441516615450382232666015625</LatitudeDegrees>
              <LongitudeDegrees>-4.37310165725648403167724609375</LongitudeDegrees>
            </Position>
            <AltitudeMeters>932.20001220703125</AltitudeMeters>
            <DistanceMeters>NAN</DistanceMeters>
          </Trackpoint>
          <Trackpoint>
            <Time>2022-06-16T08:51:10.000Z</Time>
            <Position>
              <LatitudeDegrees>36.8143505416810512542724609375</LatitudeDegrees>
              <LongitudeDegrees>-4.37308388762176036834716796875</LongitudeDegrees>
            </Position>
            <AltitudeMeters>933.20001220703125</AltitudeMeters>
            <DistanceMeters>NAN</DistanceMeters>
          </Trackpoint>
          <Trackpoint>
            <Time>2022-06-16T08:51:19.000Z</Time>
            <Position>
              <LatitudeDegrees>36.81424878537654876708984375</LatitudeDegrees>
              <LongitudeDegrees>-4.37306008301675319671630859375</LongitudeDegrees>
            </Position>
            <AltitudeMeters>934.4000244140625</AltitudeMeters>
            <DistanceMeters>NAN</DistanceMeters>
          </Trackpoint>
          <Trackpoint>
            <Time>2022-06-16T08:51:20.000Z</Time>
            <Position>
              <LatitudeDegrees>36.814237721264362335205078125</LatitudeDegrees>
              <LongitudeDegrees>-4.37306092120707035064697265625</LongitudeDegrees>
            </Position>
            <AltitudeMeters>934.5999755859375</AltitudeMeters>
            <DistanceMeters>NAN</DistanceMeters>
          </Trackpoint>
          <Trackpoint>
            <Time>2022-06-16T08:51:30.000Z</Time>
            <Position>
              <LatitudeDegrees>36.81410436518490314483642578125</LatitudeDegrees>
              <LongitudeDegrees>-4.37306712381541728973388671875</LongitudeDegrees>
            </Position>
            <AltitudeMeters>935.4000244140625</AltitudeMeters>
            <DistanceMeters>NAN</DistanceMeters>
          </Trackpoint>
          <Trackpoint>
            <Time>2022-06-16T08:51:40.000Z</Time>
            <Position>
              <LatitudeDegrees>36.8139713443815708160400390625</LatitudeDegrees>
              <LongitudeDegrees>-4.3731151521205902099609375</LongitudeDegrees>
            </Position>
            <AltitudeMeters>934.5999755859375</AltitudeMeters>
            <DistanceMeters>NAN</DistanceMeters>
          </Trackpoint>
          <Trackpoint>
            <Time>2022-06-16T08:51:50.000Z</Time>
            <Position>
              <LatitudeDegrees>36.813832707703113555908203125</LatitudeDegrees>
              <LongitudeDegrees>-4.37315228395164012908935546875</LongitudeDegrees>
            </Position>
            <AltitudeMeters>933.5999755859375</AltitudeMeters>
            <DistanceMeters>NAN</DistanceMeters>
          </Trackpoint>
          <Trackpoint>
            <Time>2022-06-16T08:51:52.000Z</Time>
            <Position>
              <LatitudeDegrees>36.8138127587735652923583984375</LatitudeDegrees>
              <LongitudeDegrees>-4.37315999530255794525146484375</LongitudeDegrees>
            </Position>
            <AltitudeMeters>933.4000244140625</AltitudeMeters>
            <DistanceMeters>NAN</DistanceMeters>
          </Trackpoint>
          <Trackpoint>
            <Time>2022-06-16T08:51:54.000Z</Time>
            <Position>
              <LatitudeDegrees>36.8137852661311626434326171875</LatitudeDegrees>
              <LongitudeDegrees>-4.37316334806382656097412109375</LongitudeDegrees>
            </Position>
            <AltitudeMeters>933</AltitudeMeters>
            <DistanceMeters>NAN</DistanceMeters>
          </Trackpoint>
          <Trackpoint>
            <Time>2022-06-16T08:51:57.000Z</Time>
            <Position>
              <LatitudeDegrees>36.8137450329959392547607421875</LatitudeDegrees>
              <LongitudeDegrees>-4.37316820956766605377197265625</LongitudeDegrees>
            </Position>
            <AltitudeMeters>932.5999755859375</AltitudeMeters>
            <DistanceMeters>NAN</DistanceMeters>
          </Trackpoint>
          <Trackpoint>
            <Time>2022-06-16T08:52:00.000Z</Time>
            <Position>
              <LatitudeDegrees>36.8137089908123016357421875</LatitudeDegrees>
              <LongitudeDegrees>-4.37317206524312496185302734375</LongitudeDegrees>
            </Position>
            <AltitudeMeters>932.20001220703125</AltitudeMeters>
            <DistanceMeters>NAN</DistanceMeters>
          </Trackpoint>
          <Trackpoint>
            <Time>2022-06-16T08:52:10.000Z</Time>
            <Position>
              <LatitudeDegrees>36.81359239853918552398681640625</LatitudeDegrees>
              <LongitudeDegrees>-4.37316812574863433837890625</LongitudeDegrees>
            </Position>
            <AltitudeMeters>932.20001220703125</AltitudeMeters>
            <DistanceMeters>NAN</DistanceMeters>
          </Trackpoint>
          <Trackpoint>
            <Time>2022-06-16T08:52:20.000Z</Time>
            <Position>
              <LatitudeDegrees>36.813465915620326995849609375</LatitudeDegrees>
              <LongitudeDegrees>-4.37310165725648403167724609375</LongitudeDegrees>
            </Position>
            <AltitudeMeters>932.4000244140625</AltitudeMeters>
            <DistanceMeters>NAN</DistanceMeters>
          </Trackpoint>
          <Trackpoint>
            <Time>2022-06-16T08:52:30.000Z</Time>
            <Position>
              <LatitudeDegrees>36.8133468925952911376953125</LatitudeDegrees>
              <LongitudeDegrees>-4.37302370555698871612548828125</LongitudeDegrees>
            </Position>
            <AltitudeMeters>931.4000244140625</AltitudeMeters>
            <DistanceMeters>NAN</DistanceMeters>
          </Trackpoint>
          <Trackpoint>
            <Time>2022-06-16T08:52:36.000Z</Time>
            <Position>
              <LatitudeDegrees>36.81328117847442626953125</LatitudeDegrees>
              <LongitudeDegrees>-4.3729567341506481170654296875</LongitudeDegrees>
            </Position>
            <AltitudeMeters>931.4000244140625</AltitudeMeters>
            <DistanceMeters>NAN</DistanceMeters>
          </Trackpoint>
          <Trackpoint>
            <Time>2022-06-16T08:52:40.000Z</Time>
            <Position>
              <LatitudeDegrees>36.81324253790080547332763671875</LatitudeDegrees>
              <LongitudeDegrees>-4.37290350906550884246826171875</LongitudeDegrees>
            </Position>
            <AltitudeMeters>931.4000244140625</AltitudeMeters>
            <DistanceMeters>NAN</DistanceMeters>
          </Trackpoint>
          <Trackpoint>
            <Time>2022-06-16T08:52:50.000Z</Time>
            <Position>
              <LatitudeDegrees>36.81315151043236255645751953125</LatitudeDegrees>
              <LongitudeDegrees>-4.37278884463012218475341796875</LongitudeDegrees>
            </Position>
            <AltitudeMeters>928.20001220703125</AltitudeMeters>
            <DistanceMeters>NAN</DistanceMeters>
          </Trackpoint>
          <Trackpoint>
            <Time>2022-06-16T08:52:51.000Z</Time>
            <Position>
              <LatitudeDegrees>36.81315151043236255645751953125</LatitudeDegrees>
              <LongitudeDegrees>-4.37278884463012218475341796875</LongitudeDegrees>
            </Position>
            <AltitudeMeters>928.20001220703125</AltitudeMeters>
            <DistanceMeters>NAN</DistanceMeters>
          </Trackpoint>
          <Trackpoint>
            <Time>2022-06-16T08:52:52.000Z</Time>
            <Position>
              <LatitudeDegrees>36.81313491426408290863037109375</LatitudeDegrees>
              <LongitudeDegrees>-4.37276780605316162109375</LongitudeDegrees>
            </Position>
            <AltitudeMeters>927.5999755859375</AltitudeMeters>
            <DistanceMeters>NAN</DistanceMeters>
          </Trackpoint>
          <Trackpoint>
            <Time>2022-06-16T08:53:00.000Z</Time>
            <Position>
              <LatitudeDegrees>36.813097782433032989501953125</LatitudeDegrees>
              <LongitudeDegrees>-4.37264853157103061676025390625</LongitudeDegrees>
            </Position>
            <AltitudeMeters>926</AltitudeMeters>
            <DistanceMeters>NAN</DistanceMeters>
          </Trackpoint>
          <Trackpoint>
            <Time>2022-06-16T08:53:10.000Z</Time>
            <Position>
              <LatitudeDegrees>36.81308462284505367279052734375</LatitudeDegrees>
              <LongitudeDegrees>-4.3724880181252956390380859375</LongitudeDegrees>
            </Position>
            <AltitudeMeters>925.5999755859375</AltitudeMeters>
            <DistanceMeters>NAN</DistanceMeters>
          </Trackpoint>
          <Trackpoint>
            <Time>2022-06-16T08:53:20.000Z</Time>
            <Position>
              <LatitudeDegrees>36.813095100224018096923828125</LatitudeDegrees>
              <LongitudeDegrees>-4.37231912277638912200927734375</LongitudeDegrees>
            </Position>
            <AltitudeMeters>925.79998779296875</AltitudeMeters>
            <DistanceMeters>NAN</DistanceMeters>
          </Trackpoint>
          <Trackpoint>
            <Time>2022-06-16T08:53:30.000Z</Time>
            <Position>
              <LatitudeDegrees>36.81306014768779277801513671875</LatitudeDegrees>
              <LongitudeDegrees>-4.37215852551162242889404296875</LongitudeDegrees>
            </Position>
            <AltitudeMeters>925.20001220703125</AltitudeMeters>
            <DistanceMeters>NAN</DistanceMeters>
          </Trackpoint>
          <Trackpoint>
            <Time>2022-06-16T08:53:40.000Z</Time>
            <Position>
              <LatitudeDegrees>36.813091076910495758056640625</LatitudeDegrees>
              <LongitudeDegrees>-4.37204017303884029388427734375</LongitudeDegrees>
            </Position>
            <AltitudeMeters>928</AltitudeMeters>
            <DistanceMeters>NAN</DistanceMeters>
          </Trackpoint>
          <Trackpoint>
            <Time>2022-06-16T08:53:50.000Z</Time>
            <Position>
              <LatitudeDegrees>36.8131465651094913482666015625</LatitudeDegrees>
              <LongitudeDegrees>-4.37202148139476776123046875</LongitudeDegrees>
            </Position>
            <AltitudeMeters>930.5999755859375</AltitudeMeters>
            <DistanceMeters>NAN</DistanceMeters>
          </Trackpoint>
          <Trackpoint>
            <Time>2022-06-16T08:54:00.000Z</Time>
            <Position>
              <LatitudeDegrees>36.81315050460398197174072265625</LatitudeDegrees>
              <LongitudeDegrees>-4.3720159493386745452880859375</LongitudeDegrees>
            </Position>
            <AltitudeMeters>930.79998779296875</AltitudeMeters>
            <DistanceMeters>NAN</DistanceMeters>
          </Trackpoint>
          <Trackpoint>
            <Time>2022-06-16T08:54:06.000Z</Time>
            <Position>
              <LatitudeDegrees>36.81311882100999355316162109375</LatitudeDegrees>
              <LongitudeDegrees>-4.37200932763516902923583984375</LongitudeDegrees>
            </Position>
            <AltitudeMeters>929.5999755859375</AltitudeMeters>
            <DistanceMeters>NAN</DistanceMeters>
          </Trackpoint>
          <Trackpoint>
            <Time>2022-06-16T08:54:10.000Z</Time>
            <Position>
              <LatitudeDegrees>36.81309945881366729736328125</LatitudeDegrees>
              <LongitudeDegrees>-4.3719911389052867889404296875</LongitudeDegrees>
            </Position>
            <AltitudeMeters>929.20001220703125</AltitudeMeters>
            <DistanceMeters>NAN</DistanceMeters>
          </Trackpoint>
          <Trackpoint>
            <Time>2022-06-16T08:54:20.000Z</Time>
            <Position>
              <LatitudeDegrees>36.813095770776271820068359375</LatitudeDegrees>
              <LongitudeDegrees>-4.37199197709560394287109375</LongitudeDegrees>
            </Position>
            <AltitudeMeters>929</AltitudeMeters>
            <DistanceMeters>NAN</DistanceMeters>
          </Trackpoint>
          <Trackpoint>
            <Time>2022-06-16T08:54:23.000Z</Time>
            <Position>
              <LatitudeDegrees>36.813099794089794158935546875</LatitudeDegrees>
              <LongitudeDegrees>-4.3719747103750705718994140625</LongitudeDegrees>
            </Position>
            <AltitudeMeters>929.4000244140625</AltitudeMeters>
            <DistanceMeters>NAN</DistanceMeters>
          </Trackpoint>
          <Trackpoint>
            <Time>2022-06-16T08:54:24.000Z</Time>
            <Position>
              <LatitudeDegrees>36.8130956031382083892822265625</LatitudeDegrees>
              <LongitudeDegrees>-4.37196775339543819427490234375</LongitudeDegrees>
            </Position>
            <AltitudeMeters>929.20001220703125</AltitudeMeters>
            <DistanceMeters>NAN</DistanceMeters>
          </Trackpoint>
          <Trackpoint>
            <Time>2022-06-16T08:54:30.000Z</Time>
            <Position>
              <LatitudeDegrees>36.81308881379663944244384765625</LatitudeDegrees>
              <LongitudeDegrees>-4.3719281069934368133544921875</LongitudeDegrees>
            </Position>
            <AltitudeMeters>929.79998779296875</AltitudeMeters>
            <DistanceMeters>NAN</DistanceMeters>
          </Trackpoint>
          <Trackpoint>
            <Time>2022-06-16T08:54:40.000Z</Time>
            <Position>
              <LatitudeDegrees>36.8131006322801113128662109375</LatitudeDegrees>
              <LongitudeDegrees>-4.3719227425754070281982421875</LongitudeDegrees>
            </Position>
            <AltitudeMeters>930.4000244140625</AltitudeMeters>
            <DistanceMeters>NAN</DistanceMeters>
          </Trackpoint>
          <Trackpoint>
            <Time>2022-06-16T08:54:42.000Z</Time>
            <Position>
              <LatitudeDegrees>36.8131013028323650360107421875</LatitudeDegrees>
              <LongitudeDegrees>-4.3719170428812503814697265625</LongitudeDegrees>
            </Position>
            <AltitudeMeters>930.4000244140625</AltitudeMeters>
            <DistanceMeters>NAN</DistanceMeters>
          </Trackpoint>
          <Trackpoint>
            <Time>2022-06-16T08:54:43.000Z</Time>
            <Position>
              <LatitudeDegrees>36.81310172192752361297607421875</LatitudeDegrees>
              <LongitudeDegrees>-4.37191159464418888092041015625</LongitudeDegrees>
            </Position>
            <AltitudeMeters>930.5999755859375</AltitudeMeters>
            <DistanceMeters>NAN</DistanceMeters>
          </Trackpoint>
          <Trackpoint>
            <Time>2022-06-16T08:54:46.000Z</Time>
            <Position>
              <LatitudeDegrees>36.81311278603971004486083984375</LatitudeDegrees>
              <LongitudeDegrees>-4.371890723705291748046875</LongitudeDegrees>
            </Position>
            <AltitudeMeters>931.4000244140625</AltitudeMeters>
            <DistanceMeters>NAN</DistanceMeters>
          </Trackpoint>
          <Trackpoint>
            <Time>2022-06-16T08:54:50.000Z</Time>
            <Position>
              <LatitudeDegrees>36.81311421096324920654296875</LatitudeDegrees>
              <LongitudeDegrees>-4.37188695184886455535888671875</LongitudeDegrees>
            </Position>
            <AltitudeMeters>931.5999755859375</AltitudeMeters>
            <DistanceMeters>NAN</DistanceMeters>
          </Trackpoint>
          <Trackpoint>
            <Time>2022-06-16T08:55:00.000Z</Time>
            <Position>
              <LatitudeDegrees>36.81310188956558704376220703125</LatitudeDegrees>
              <LongitudeDegrees>-4.37197630293667316436767578125</LongitudeDegrees>
            </Position>
            <AltitudeMeters>929.4000244140625</AltitudeMeters>
            <DistanceMeters>NAN</DistanceMeters>
          </Trackpoint>
          <Trackpoint>
            <Time>2022-06-16T08:55:04.000Z</Time>
            <Position>
              <LatitudeDegrees>36.81309141218662261962890625</LatitudeDegrees>
              <LongitudeDegrees>-4.37200781889259815216064453125</LongitudeDegrees>
            </Position>
            <AltitudeMeters>928.5999755859375</AltitudeMeters>
            <DistanceMeters>NAN</DistanceMeters>
          </Trackpoint>
          <Trackpoint>
            <Time>2022-06-16T08:55:08.000Z</Time>
            <Position>
              <LatitudeDegrees>36.81308805942535400390625</LatitudeDegrees>
              <LongitudeDegrees>-4.37201200984418392181396484375</LongitudeDegrees>
            </Position>
            <AltitudeMeters>928.4000244140625</AltitudeMeters>
            <DistanceMeters>NAN</DistanceMeters>
          </Trackpoint>
          <Trackpoint>
            <Time>2022-06-16T08:55:10.000Z</Time>
            <Position>
              <LatitudeDegrees>36.813079006969928741455078125</LatitudeDegrees>
              <LongitudeDegrees>-4.3720193020999431610107421875</LongitudeDegrees>
            </Position>
            <AltitudeMeters>927.79998779296875</AltitudeMeters>
            <DistanceMeters>NAN</DistanceMeters>
          </Trackpoint>
          <Trackpoint>
            <Time>2022-06-16T08:55:16.000Z</Time>
            <Position>
              <LatitudeDegrees>36.81305863894522190093994140625</LatitudeDegrees>
              <LongitudeDegrees>-4.3720545060932636260986328125</LongitudeDegrees>
            </Position>
            <AltitudeMeters>926.5999755859375</AltitudeMeters>
            <DistanceMeters>NAN</DistanceMeters>
          </Trackpoint>
          <Trackpoint>
            <Time>2022-06-16T08:55:20.000Z</Time>
            <Position>
              <LatitudeDegrees>36.81302578188478946685791015625</LatitudeDegrees>
              <LongitudeDegrees>-4.3720850162208080291748046875</LongitudeDegrees>
            </Position>
            <AltitudeMeters>924.79998779296875</AltitudeMeters>
            <DistanceMeters>NAN</DistanceMeters>
          </Trackpoint>
          <Trackpoint>
            <Time>2022-06-16T08:55:26.000Z</Time>
            <Position>
              <LatitudeDegrees>36.8130148015916347503662109375</LatitudeDegrees>
              <LongitudeDegrees>-4.372072778642177581787109375</LongitudeDegrees>
            </Position>
            <AltitudeMeters>924.5999755859375</AltitudeMeters>
            <DistanceMeters>NAN</DistanceMeters>
          </Trackpoint>
          <Trackpoint>
            <Time>2022-06-16T08:55:30.000Z</Time>
            <Position>
              <LatitudeDegrees>36.81301069445908069610595703125</LatitudeDegrees>
              <LongitudeDegrees>-4.3720736168324947357177734375</LongitudeDegrees>
            </Position>
            <AltitudeMeters>924.4000244140625</AltitudeMeters>
            <DistanceMeters>NAN</DistanceMeters>
          </Trackpoint>
          <Trackpoint>
            <Time>2022-06-16T08:55:37.000Z</Time>
            <Position>
              <LatitudeDegrees>36.81305713020265102386474609375</LatitudeDegrees>
              <LongitudeDegrees>-4.3720766343176364898681640625</LongitudeDegrees>
            </Position>
            <AltitudeMeters>926.20001220703125</AltitudeMeters>
            <DistanceMeters>NAN</DistanceMeters>
          </Trackpoint>
          <Trackpoint>
            <Time>2022-06-16T08:55:38.000Z</Time>
            <Position>
              <LatitudeDegrees>36.813066266477108001708984375</LatitudeDegrees>
              <LongitudeDegrees>-4.37207755632698535919189453125</LongitudeDegrees>
            </Position>
            <AltitudeMeters>926.5999755859375</AltitudeMeters>
            <DistanceMeters>NAN</DistanceMeters>
          </Trackpoint>
          <Trackpoint>
            <Time>2022-06-16T08:55:39.000Z</Time>
            <Position>
              <LatitudeDegrees>36.81307204999029636383056640625</LatitudeDegrees>
              <LongitudeDegrees>-4.3720783106982707977294921875</LongitudeDegrees>
            </Position>
            <AltitudeMeters>926.79998779296875</AltitudeMeters>
            <DistanceMeters>NAN</DistanceMeters>
          </Trackpoint>
          <Trackpoint>
            <Time>2022-06-16T08:55:40.000Z</Time>
            <Position>
              <LatitudeDegrees>36.8130818568170070648193359375</LatitudeDegrees>
              <LongitudeDegrees>-4.372077472507953643798828125</LongitudeDegrees>
            </Position>
            <AltitudeMeters>927.20001220703125</AltitudeMeters>
            <DistanceMeters>NAN</DistanceMeters>
          </Trackpoint>
          <Trackpoint>
            <Time>2022-06-16T08:55:50.000Z</Time>
            <Position>
              <LatitudeDegrees>36.81311831809580326080322265625</LatitudeDegrees>
              <LongitudeDegrees>-4.37205157242715358734130859375</LongitudeDegrees>
            </Position>
            <AltitudeMeters>929</AltitudeMeters>
            <DistanceMeters>NAN</DistanceMeters>
          </Trackpoint>
          <Trackpoint>
            <Time>2022-06-16T08:56:00.000Z</Time>
            <Position>
              <LatitudeDegrees>36.81308361701667308807373046875</LatitudeDegrees>
              <LongitudeDegrees>-4.3720491416752338409423828125</LongitudeDegrees>
            </Position>
            <AltitudeMeters>927.5999755859375</AltitudeMeters>
            <DistanceMeters>NAN</DistanceMeters>
          </Trackpoint>
          <Trackpoint>
            <Time>2022-06-16T08:56:10.000Z</Time>
            <Position>
              <LatitudeDegrees>36.81307255290448665618896484375</LatitudeDegrees>
              <LongitudeDegrees>-4.37204201705753803253173828125</LongitudeDegrees>
            </Position>
            <AltitudeMeters>927.4000244140625</AltitudeMeters>
            <DistanceMeters>NAN</DistanceMeters>
          </Trackpoint>
          <Trackpoint>
            <Time>2022-06-16T08:56:20.000Z</Time>
            <Position>
              <LatitudeDegrees>36.81305629201233386993408203125</LatitudeDegrees>
              <LongitudeDegrees>-4.3719421885907649993896484375</LongitudeDegrees>
            </Position>
            <AltitudeMeters>928.4000244140625</AltitudeMeters>
            <DistanceMeters>NAN</DistanceMeters>
          </Trackpoint>
          <Trackpoint>
            <Time>2022-06-16T08:56:30.000Z</Time>
            <Position>
              <LatitudeDegrees>36.813040114939212799072265625</LatitudeDegrees>
              <LongitudeDegrees>-4.37194009311497211456298828125</LongitudeDegrees>
            </Position>
            <AltitudeMeters>928</AltitudeMeters>
            <DistanceMeters>NAN</DistanceMeters>
          </Trackpoint>
          <Trackpoint>
            <Time>2022-06-16T08:56:40.000Z</Time>
            <Position>
              <LatitudeDegrees>36.8130540288984775543212890625</LatitudeDegrees>
              <LongitudeDegrees>-4.371920563280582427978515625</LongitudeDegrees>
            </Position>
            <AltitudeMeters>928.79998779296875</AltitudeMeters>
            <DistanceMeters>NAN</DistanceMeters>
          </Trackpoint>
          <Trackpoint>
            <Time>2022-06-16T08:56:50.000Z</Time>
            <Position>
              <LatitudeDegrees>36.813060902059078216552734375</LatitudeDegrees>
              <LongitudeDegrees>-4.37193154357373714447021484375</LongitudeDegrees>
            </Position>
            <AltitudeMeters>928.79998779296875</AltitudeMeters>
            <DistanceMeters>NAN</DistanceMeters>
          </Trackpoint>
          <Trackpoint>
            <Time>2022-06-16T08:56:55.000Z</Time>
            <Position>
              <LatitudeDegrees>36.81305930949747562408447265625</LatitudeDegrees>
              <LongitudeDegrees>-4.3719403445720672607421875</LongitudeDegrees>
            </Position>
            <AltitudeMeters>928.5999755859375</AltitudeMeters>
            <DistanceMeters>NAN</DistanceMeters>
          </Trackpoint>
          <Trackpoint>
            <Time>2022-06-16T08:57:00.000Z</Time>
            <Position>
              <LatitudeDegrees>36.81305880658328533172607421875</LatitudeDegrees>
              <LongitudeDegrees>-4.3719438649713993072509765625</LongitudeDegrees>
            </Position>
            <AltitudeMeters>928.5999755859375</AltitudeMeters>
            <DistanceMeters>NAN</DistanceMeters>
          </Trackpoint>
          <Trackpoint>
            <Time>2022-06-16T08:57:10.000Z</Time>
            <Position>
              <LatitudeDegrees>36.81305260397493839263916015625</LatitudeDegrees>
              <LongitudeDegrees>-4.3718872033059597015380859375</LongitudeDegrees>
            </Position>
            <AltitudeMeters>929.5999755859375</AltitudeMeters>
            <DistanceMeters>NAN</DistanceMeters>
          </Trackpoint>
          <Trackpoint>
            <Time>2022-06-16T08:57:15.000Z</Time>
            <Position>
              <LatitudeDegrees>36.8130506761372089385986328125</LatitudeDegrees>
              <LongitudeDegrees>-4.371891058981418609619140625</LongitudeDegrees>
            </Position>
            <AltitudeMeters>929.4000244140625</AltitudeMeters>
            <DistanceMeters>NAN</DistanceMeters>
          </Trackpoint>
          <Trackpoint>
            <Time>2022-06-16T08:57:20.000Z</Time>
            <Position>
              <LatitudeDegrees>36.81304807774722576141357421875</LatitudeDegrees>
              <LongitudeDegrees>-4.37188913114368915557861328125</LongitudeDegrees>
            </Position>
            <AltitudeMeters>929.4000244140625</AltitudeMeters>
            <DistanceMeters>NAN</DistanceMeters>
          </Trackpoint>
          <Trackpoint>
            <Time>2022-06-16T08:57:25.000Z</Time>
            <Position>
              <LatitudeDegrees>36.8130352534353733062744140625</LatitudeDegrees>
              <LongitudeDegrees>-4.37189248390495777130126953125</LongitudeDegrees>
            </Position>
            <AltitudeMeters>928.79998779296875</AltitudeMeters>
            <DistanceMeters>NAN</DistanceMeters>
          </Trackpoint>
          <Trackpoint>
            <Time>2022-06-16T08:57:26.000Z</Time>
            <Position>
              <LatitudeDegrees>36.81303533725440502166748046875</LatitudeDegrees>
              <LongitudeDegrees>-4.37189114280045032501220703125</LongitudeDegrees>
            </Position>
            <AltitudeMeters>929</AltitudeMeters>
            <DistanceMeters>NAN</DistanceMeters>
          </Trackpoint>
          <Trackpoint>
            <Time>2022-06-16T08:57:27.000Z</Time>
            <Position>
              <LatitudeDegrees>36.81303441524505615234375</LatitudeDegrees>
              <LongitudeDegrees>-4.37189097516238689422607421875</LongitudeDegrees>
            </Position>
            <AltitudeMeters>928.79998779296875</AltitudeMeters>
            <DistanceMeters>NAN</DistanceMeters>
          </Trackpoint>
          <Trackpoint>
            <Time>2022-06-16T08:57:28.000Z</Time>
            <Position>
              <LatitudeDegrees>36.81303533725440502166748046875</LatitudeDegrees>
              <LongitudeDegrees>-4.371893741190433502197265625</LongitudeDegrees>
            </Position>
            <AltitudeMeters>928.79998779296875</AltitudeMeters>
            <DistanceMeters>NAN</DistanceMeters>
          </Trackpoint>
          <Trackpoint>
            <Time>2022-06-16T08:57:29.000Z</Time>
            <Position>
              <LatitudeDegrees>36.81303969584405422210693359375</LatitudeDegrees>
              <LongitudeDegrees>-4.37189583666622638702392578125</LongitudeDegrees>
            </Position>
            <AltitudeMeters>929</AltitudeMeters>
            <DistanceMeters>NAN</DistanceMeters>
          </Trackpoint>
          <Trackpoint>
            <Time>2022-06-16T08:57:30.000Z</Time>
            <Position>
              <LatitudeDegrees>36.813042126595973968505859375</LatitudeDegrees>
              <LongitudeDegrees>-4.37189734540879726409912109375</LongitudeDegrees>
            </Position>
            <AltitudeMeters>929</AltitudeMeters>
            <DistanceMeters>NAN</DistanceMeters>
          </Trackpoint>
          <Trackpoint>
            <Time>2022-06-16T08:57:39.000Z</Time>
            <Position>
              <LatitudeDegrees>36.81306819431483745574951171875</LatitudeDegrees>
              <LongitudeDegrees>-4.371911175549030303955078125</LongitudeDegrees>
            </Position>
            <AltitudeMeters>929.5999755859375</AltitudeMeters>
            <DistanceMeters>NAN</DistanceMeters>
          </Trackpoint>
          <Trackpoint>
            <Time>2022-06-16T08:57:40.000Z</Time>
            <Position>
              <LatitudeDegrees>36.8130717985332012176513671875</LatitudeDegrees>
              <LongitudeDegrees>-4.3719120137393474578857421875</LongitudeDegrees>
            </Position>
            <AltitudeMeters>929.5999755859375</AltitudeMeters>
            <DistanceMeters>NAN</DistanceMeters>
          </Trackpoint>
          <Trackpoint>
            <Time>2022-06-16T08:57:43.000Z</Time>
            <Position>
              <LatitudeDegrees>36.81307129561901092529296875</LatitudeDegrees>
              <LongitudeDegrees>-4.3719108402729034423828125</LongitudeDegrees>
            </Position>
            <AltitudeMeters>929.5999755859375</AltitudeMeters>
            <DistanceMeters>NAN</DistanceMeters>
          </Trackpoint>
          <Trackpoint>
            <Time>2022-06-16T08:57:46.000Z</Time>
            <Position>
              <LatitudeDegrees>36.81307808496057987213134765625</LatitudeDegrees>
              <LongitudeDegrees>-4.371905140578746795654296875</LongitudeDegrees>
            </Position>
            <AltitudeMeters>930</AltitudeMeters>
            <DistanceMeters>NAN</DistanceMeters>
          </Trackpoint>
          <Trackpoint>
            <Time>2022-06-16T08:57:50.000Z</Time>
            <Position>
              <LatitudeDegrees>36.81309199891984462738037109375</LatitudeDegrees>
              <LongitudeDegrees>-4.37188577838242053985595703125</LongitudeDegrees>
            </Position>
            <AltitudeMeters>930.79998779296875</AltitudeMeters>
            <DistanceMeters>NAN</DistanceMeters>
          </Trackpoint>
          <Trackpoint>
            <Time>2022-06-16T08:57:53.000Z</Time>
            <Position>
              <LatitudeDegrees>36.81308294646441936492919921875</LatitudeDegrees>
              <LongitudeDegrees>-4.37188544310629367828369140625</LongitudeDegrees>
            </Position>
            <AltitudeMeters>930.5999755859375</AltitudeMeters>
            <DistanceMeters>NAN</DistanceMeters>
          </Trackpoint>
          <Trackpoint>
            <Time>2022-06-16T08:57:55.000Z</Time>
            <Position>
              <LatitudeDegrees>36.813074648380279541015625</LatitudeDegrees>
              <LongitudeDegrees>-4.37189432792365550994873046875</LongitudeDegrees>
            </Position>
            <AltitudeMeters>930.20001220703125</AltitudeMeters>
            <DistanceMeters>NAN</DistanceMeters>
          </Trackpoint>
          <Trackpoint>
            <Time>2022-06-16T08:57:59.000Z</Time>
            <Position>
              <LatitudeDegrees>36.8130550347268581390380859375</LatitudeDegrees>
              <LongitudeDegrees>-4.37194227240979671478271484375</LongitudeDegrees>
            </Position>
            <AltitudeMeters>928.4000244140625</AltitudeMeters>
            <DistanceMeters>NAN</DistanceMeters>
          </Trackpoint>
          <Trackpoint>
            <Time>2022-06-16T08:58:00.000Z</Time>
            <Position>
              <LatitudeDegrees>36.8130563758313655853271484375</LatitudeDegrees>
              <LongitudeDegrees>-4.37195249833166599273681640625</LongitudeDegrees>
            </Position>
            <AltitudeMeters>928.20001220703125</AltitudeMeters>
            <DistanceMeters>NAN</DistanceMeters>
          </Trackpoint>
          <Trackpoint>
            <Time>2022-06-16T08:58:04.000Z</Time>
            <Position>
              <LatitudeDegrees>36.8130637519061565399169921875</LatitudeDegrees>
              <LongitudeDegrees>-4.3719646520912647247314453125</LongitudeDegrees>
            </Position>
            <AltitudeMeters>928.20001220703125</AltitudeMeters>
            <DistanceMeters>NAN</DistanceMeters>
          </Trackpoint>
          <Trackpoint>
            <Time>2022-06-16T08:58:10.000Z</Time>
            <Position>
              <LatitudeDegrees>36.81306769140064716339111328125</LatitudeDegrees>
              <LongitudeDegrees>-4.37198619358241558074951171875</LongitudeDegrees>
            </Position>
            <AltitudeMeters>928</AltitudeMeters>
            <DistanceMeters>NAN</DistanceMeters>
          </Trackpoint>
          <Trackpoint>
            <Time>2022-06-16T08:58:20.000Z</Time>
            <Position>
              <LatitudeDegrees>36.81307959370315074920654296875</LatitudeDegrees>
              <LongitudeDegrees>-4.3719899654388427734375</LongitudeDegrees>
            </Position>
            <AltitudeMeters>928.4000244140625</AltitudeMeters>
            <DistanceMeters>NAN</DistanceMeters>
          </Trackpoint>
          <Trackpoint>
            <Time>2022-06-16T08:58:30.000Z</Time>
            <Position>
              <LatitudeDegrees>36.81313441134989261627197265625</LatitudeDegrees>
              <LongitudeDegrees>-4.3720089085400104522705078125</LongitudeDegrees>
            </Position>
            <AltitudeMeters>930.20001220703125</AltitudeMeters>
            <DistanceMeters>NAN</DistanceMeters>
          </Trackpoint>
          <Trackpoint>
            <Time>2022-06-16T08:58:40.000Z</Time>
            <Position>
              <LatitudeDegrees>36.8131666816771030426025390625</LatitudeDegrees>
              <LongitudeDegrees>-4.37200446613132953643798828125</LongitudeDegrees>
            </Position>
            <AltitudeMeters>931.4000244140625</AltitudeMeters>
            <DistanceMeters>NAN</DistanceMeters>
          </Trackpoint>
          <Trackpoint>
            <Time>2022-06-16T08:58:50.000Z</Time>
            <Position>
              <LatitudeDegrees>36.813117899000644683837890625</LatitudeDegrees>
              <LongitudeDegrees>-4.372024834156036376953125</LongitudeDegrees>
            </Position>
            <AltitudeMeters>929.4000244140625</AltitudeMeters>
            <DistanceMeters>NAN</DistanceMeters>
          </Trackpoint>
          <Trackpoint>
            <Time>2022-06-16T08:59:00.000Z</Time>
            <Position>
              <LatitudeDegrees>36.8130840361118316650390625</LatitudeDegrees>
              <LongitudeDegrees>-4.37204838730394840240478515625</LongitudeDegrees>
            </Position>
            <AltitudeMeters>927.5999755859375</AltitudeMeters>
            <DistanceMeters>NAN</DistanceMeters>
          </Trackpoint>
          <Trackpoint>
            <Time>2022-06-16T08:59:10.000Z</Time>
            <Position>
              <LatitudeDegrees>36.8130587227642536163330078125</LatitudeDegrees>
              <LongitudeDegrees>-4.3720223195850849151611328125</LongitudeDegrees>
            </Position>
            <AltitudeMeters>927</AltitudeMeters>
            <DistanceMeters>NAN</DistanceMeters>
          </Trackpoint>
          <Trackpoint>
            <Time>2022-06-16T08:59:20.000Z</Time>
            <Position>
              <LatitudeDegrees>36.81307188235223293304443359375</LatitudeDegrees>
              <LongitudeDegrees>-4.3720182962715625762939453125</LongitudeDegrees>
            </Position>
            <AltitudeMeters>927.5999755859375</AltitudeMeters>
            <DistanceMeters>NAN</DistanceMeters>
          </Trackpoint>
          <Trackpoint>
            <Time>2022-06-16T08:59:21.000Z</Time>
            <Position>
              <LatitudeDegrees>36.8130759894847869873046875</LatitudeDegrees>
              <LongitudeDegrees>-4.37201770953834056854248046875</LongitudeDegrees>
            </Position>
            <AltitudeMeters>927.79998779296875</AltitudeMeters>
            <DistanceMeters>NAN</DistanceMeters>
          </Trackpoint>
          <Trackpoint>
            <Time>2022-06-16T08:59:22.000Z</Time>
            <Position>
              <LatitudeDegrees>36.813074983656406402587890625</LatitudeDegrees>
              <LongitudeDegrees>-4.3720125965774059295654296875</LongitudeDegrees>
            </Position>
            <AltitudeMeters>927.79998779296875</AltitudeMeters>
            <DistanceMeters>NAN</DistanceMeters>
          </Trackpoint>
          <Trackpoint>
            <Time>2022-06-16T08:59:23.000Z</Time>
            <Position>
              <LatitudeDegrees>36.8130774982273578643798828125</LatitudeDegrees>
              <LongitudeDegrees>-4.3720092438161373138427734375</LongitudeDegrees>
            </Position>
            <AltitudeMeters>928</AltitudeMeters>
            <DistanceMeters>NAN</DistanceMeters>
          </Trackpoint>
          <Trackpoint>
            <Time>2022-06-16T08:59:24.000Z</Time>
            <Position>
              <LatitudeDegrees>36.81307758204638957977294921875</LatitudeDegrees>
              <LongitudeDegrees>-4.3720068968832492828369140625</LongitudeDegrees>
            </Position>
            <AltitudeMeters>928</AltitudeMeters>
            <DistanceMeters>NAN</DistanceMeters>
          </Trackpoint>
          <Trackpoint>
            <Time>2022-06-16T08:59:29.000Z</Time>
            <Position>
              <LatitudeDegrees>36.8130845390260219573974609375</LatitudeDegrees>
              <LongitudeDegrees>-4.3720092438161373138427734375</LongitudeDegrees>
            </Position>
            <AltitudeMeters>928.20001220703125</AltitudeMeters>
            <DistanceMeters>NAN</DistanceMeters>
          </Trackpoint>
          <Trackpoint>
            <Time>2022-06-16T08:59:30.000Z</Time>
            <Position>
              <LatitudeDegrees>36.81308378465473651885986328125</LatitudeDegrees>
              <LongitudeDegrees>-4.37200949527323246002197265625</LongitudeDegrees>
            </Position>
            <AltitudeMeters>928.20001220703125</AltitudeMeters>
            <DistanceMeters>NAN</DistanceMeters>
          </Trackpoint>
          <Trackpoint>
            <Time>2022-06-16T08:59:31.000Z</Time>
            <Position>
              <LatitudeDegrees>36.8130821920931339263916015625</LatitudeDegrees>
              <LongitudeDegrees>-4.372010417282581329345703125</LongitudeDegrees>
            </Position>
            <AltitudeMeters>928.20001220703125</AltitudeMeters>
            <DistanceMeters>NAN</DistanceMeters>
          </Trackpoint>
          <Trackpoint>
            <Time>2022-06-16T08:59:33.000Z</Time>
            <Position>
              <LatitudeDegrees>36.81308294646441936492919921875</LatitudeDegrees>
              <LongitudeDegrees>-4.37201200984418392181396484375</LongitudeDegrees>
            </Position>
            <AltitudeMeters>928.20001220703125</AltitudeMeters>
            <DistanceMeters>NAN</DistanceMeters>
          </Trackpoint>
          <Trackpoint>
            <Time>2022-06-16T08:59:34.000Z</Time>
            <Position>
              <LatitudeDegrees>36.81308068335056304931640625</LatitudeDegrees>
              <LongitudeDegrees>-4.3720169551670551300048828125</LongitudeDegrees>
            </Position>
            <AltitudeMeters>928</AltitudeMeters>
            <DistanceMeters>NAN</DistanceMeters>
          </Trackpoint>
          <Trackpoint>
            <Time>2022-06-16T08:59:39.000Z</Time>
            <Position>
              <LatitudeDegrees>36.813083030283451080322265625</LatitudeDegrees>
              <LongitudeDegrees>-4.3720229901373386383056640625</LongitudeDegrees>
            </Position>
            <AltitudeMeters>928</AltitudeMeters>
            <DistanceMeters>NAN</DistanceMeters>
          </Trackpoint>
          <Trackpoint>
            <Time>2022-06-16T08:59:40.000Z</Time>
            <Position>
              <LatitudeDegrees>36.81308562867343425750732421875</LatitudeDegrees>
              <LongitudeDegrees>-4.372022151947021484375</LongitudeDegrees>
            </Position>
            <AltitudeMeters>928.20001220703125</AltitudeMeters>
            <DistanceMeters>NAN</DistanceMeters>
          </Trackpoint>
          <Trackpoint>
            <Time>2022-06-16T08:59:50.000Z</Time>
            <Position>
              <LatitudeDegrees>36.81309635750949382781982421875</LatitudeDegrees>
              <LongitudeDegrees>-4.372024834156036376953125</LongitudeDegrees>
            </Position>
            <AltitudeMeters>928.5999755859375</AltitudeMeters>
            <DistanceMeters>NAN</DistanceMeters>
          </Trackpoint>
          <Trackpoint>
            <Time>2022-06-16T09:00:00.000Z</Time>
            <Position>
              <LatitudeDegrees>36.81307707913219928741455078125</LatitudeDegrees>
              <LongitudeDegrees>-4.372027181088924407958984375</LongitudeDegrees>
            </Position>
            <AltitudeMeters>927.79998779296875</AltitudeMeters>
            <DistanceMeters>NAN</DistanceMeters>
          </Trackpoint>
          <Trackpoint>
            <Time>2022-06-16T09:00:06.000Z</Time>
            <Position>
              <LatitudeDegrees>36.8130774982273578643798828125</LatitudeDegrees>
              <LongitudeDegrees>-4.3720427714288234710693359375</LongitudeDegrees>
            </Position>
            <AltitudeMeters>927.4000244140625</AltitudeMeters>
            <DistanceMeters>NAN</DistanceMeters>
          </Trackpoint>
          <Trackpoint>
            <Time>2022-06-16T09:00:10.000Z</Time>
            <Position>
              <LatitudeDegrees>36.81308872997760772705078125</LatitudeDegrees>
              <LongitudeDegrees>-4.372035562992095947265625</LongitudeDegrees>
            </Position>
            <AltitudeMeters>928</AltitudeMeters>
            <DistanceMeters>NAN</DistanceMeters>
          </Trackpoint>
          <Trackpoint>
            <Time>2022-06-16T09:00:12.000Z</Time>
            <Position>
              <LatitudeDegrees>36.81308562867343425750732421875</LatitudeDegrees>
              <LongitudeDegrees>-4.37203212641179561614990234375</LongitudeDegrees>
            </Position>
            <AltitudeMeters>928</AltitudeMeters>
            <DistanceMeters>NAN</DistanceMeters>
          </Trackpoint>
          <Trackpoint>
            <Time>2022-06-16T09:00:14.000Z</Time>
            <Position>
              <LatitudeDegrees>36.81308336555957794189453125</LatitudeDegrees>
              <LongitudeDegrees>-4.37203581444919109344482421875</LongitudeDegrees>
            </Position>
            <AltitudeMeters>927.79998779296875</AltitudeMeters>
            <DistanceMeters>NAN</DistanceMeters>
          </Trackpoint>
          <Trackpoint>
            <Time>2022-06-16T09:00:20.000Z</Time>
            <Position>
              <LatitudeDegrees>36.8130840361118316650390625</LatitudeDegrees>
              <LongitudeDegrees>-4.3720454536378383636474609375</LongitudeDegrees>
            </Position>
            <AltitudeMeters>927.79998779296875</AltitudeMeters>
            <DistanceMeters>NAN</DistanceMeters>
          </Trackpoint>
          <Trackpoint>
            <Time>2022-06-16T09:00:27.000Z</Time>
            <Position>
              <LatitudeDegrees>36.8130640871822834014892578125</LatitudeDegrees>
              <LongitudeDegrees>-4.3720417656004428863525390625</LongitudeDegrees>
            </Position>
            <AltitudeMeters>927</AltitudeMeters>
            <DistanceMeters>NAN</DistanceMeters>
          </Trackpoint>
          <Trackpoint>
            <Time>2022-06-16T09:00:30.000Z</Time>
            <Position>
              <LatitudeDegrees>36.8130597285926342010498046875</LatitudeDegrees>
              <LongitudeDegrees>-4.37204151414334774017333984375</LongitudeDegrees>
            </Position>
            <AltitudeMeters>926.79998779296875</AltitudeMeters>
            <DistanceMeters>NAN</DistanceMeters>
          </Trackpoint>
          <Trackpoint>
            <Time>2022-06-16T09:00:40.000Z</Time>
            <Position>
              <LatitudeDegrees>36.81306852959096431732177734375</LatitudeDegrees>
              <LongitudeDegrees>-4.37204101122915744781494140625</LongitudeDegrees>
            </Position>
            <AltitudeMeters>927.20001220703125</AltitudeMeters>
            <DistanceMeters>NAN</DistanceMeters>
          </Trackpoint>
          <Trackpoint>
            <Time>2022-06-16T09:00:50.000Z</Time>
            <Position>
              <LatitudeDegrees>36.8130758218467235565185546875</LatitudeDegrees>
              <LongitudeDegrees>-4.3720819987356662750244140625</LongitudeDegrees>
            </Position>
            <AltitudeMeters>926.79998779296875</AltitudeMeters>
            <DistanceMeters>NAN</DistanceMeters>
          </Trackpoint>
          <Trackpoint>
            <Time>2022-06-16T09:01:00.000Z</Time>
            <Position>
              <LatitudeDegrees>36.813056878745555877685546875</LatitudeDegrees>
              <LongitudeDegrees>-4.3721215613186359405517578125</LongitudeDegrees>
            </Position>
            <AltitudeMeters>925.5999755859375</AltitudeMeters>
            <DistanceMeters>NAN</DistanceMeters>
          </Trackpoint>
          <Trackpoint>
            <Time>2022-06-16T09:01:10.000Z</Time>
            <Position>
              <LatitudeDegrees>36.81305377744138240814208984375</LatitudeDegrees>
              <LongitudeDegrees>-4.372165314853191375732421875</LongitudeDegrees>
            </Position>
            <AltitudeMeters>924.79998779296875</AltitudeMeters>
            <DistanceMeters>NAN</DistanceMeters>
          </Trackpoint>
          <Trackpoint>
            <Time>2022-06-16T09:01:17.000Z</Time>
            <Position>
              <LatitudeDegrees>36.81304849684238433837890625</LatitudeDegrees>
              <LongitudeDegrees>-4.37221887521445751190185546875</LongitudeDegrees>
            </Position>
            <AltitudeMeters>923.79998779296875</AltitudeMeters>
            <DistanceMeters>NAN</DistanceMeters>
          </Trackpoint>
          <Trackpoint>
            <Time>2022-06-16T09:01:20.000Z</Time>
            <Position>
              <LatitudeDegrees>36.8130598962306976318359375</LatitudeDegrees>
              <LongitudeDegrees>-4.37226497568190097808837890625</LongitudeDegrees>
            </Position>
            <AltitudeMeters>923.5999755859375</AltitudeMeters>
            <DistanceMeters>NAN</DistanceMeters>
          </Trackpoint>
          <Trackpoint>
            <Time>2022-06-16T09:01:23.000Z</Time>
            <Position>
              <LatitudeDegrees>36.81306836195290088653564453125</LatitudeDegrees>
              <LongitudeDegrees>-4.37229732982814311981201171875</LongitudeDegrees>
            </Position>
            <AltitudeMeters>924.20001220703125</AltitudeMeters>
            <DistanceMeters>NAN</DistanceMeters>
          </Trackpoint>
          <Trackpoint>
            <Time>2022-06-16T09:01:30.000Z</Time>
            <Position>
              <LatitudeDegrees>36.8130694516003131866455078125</LatitudeDegrees>
              <LongitudeDegrees>-4.37238064594566822052001953125</LongitudeDegrees>
            </Position>
            <AltitudeMeters>924.4000244140625</AltitudeMeters>
            <DistanceMeters>NAN</DistanceMeters>
          </Trackpoint>
          <Trackpoint>
            <Time>2022-06-16T09:01:40.000Z</Time>
            <Position>
              <LatitudeDegrees>36.81308378465473651885986328125</LatitudeDegrees>
              <LongitudeDegrees>-4.3724866770207881927490234375</LongitudeDegrees>
            </Position>
            <AltitudeMeters>925.5999755859375</AltitudeMeters>
            <DistanceMeters>NAN</DistanceMeters>
          </Trackpoint>
          <Trackpoint>
            <Time>2022-06-16T09:01:50.000Z</Time>
            <Position>
              <LatitudeDegrees>36.8130858801305294036865234375</LatitudeDegrees>
              <LongitudeDegrees>-4.37258030287921428680419921875</LongitudeDegrees>
            </Position>
            <AltitudeMeters>925.5999755859375</AltitudeMeters>
            <DistanceMeters>NAN</DistanceMeters>
          </Trackpoint>
          <Trackpoint>
            <Time>2022-06-16T09:02:00.000Z</Time>
            <Position>
              <LatitudeDegrees>36.81311798281967639923095703125</LatitudeDegrees>
              <LongitudeDegrees>-4.3726818077266216278076171875</LongitudeDegrees>
            </Position>
            <AltitudeMeters>926.79998779296875</AltitudeMeters>
            <DistanceMeters>NAN</DistanceMeters>
          </Trackpoint>
          <Trackpoint>
            <Time>2022-06-16T09:02:10.000Z</Time>
            <Position>
              <LatitudeDegrees>36.81317179463803768157958984375</LatitudeDegrees>
              <LongitudeDegrees>-4.37278398312628269195556640625</LongitudeDegrees>
            </Position>
            <AltitudeMeters>929</AltitudeMeters>
            <DistanceMeters>NAN</DistanceMeters>
          </Trackpoint>
          <Trackpoint>
            <Time>2022-06-16T09:02:20.000Z</Time>
            <Position>
              <LatitudeDegrees>36.8131913244724273681640625</LatitudeDegrees>
              <LongitudeDegrees>-4.37281901948153972625732421875</LongitudeDegrees>
            </Position>
            <AltitudeMeters>929.5999755859375</AltitudeMeters>
            <DistanceMeters>NAN</DistanceMeters>
          </Trackpoint>
          <Trackpoint>
            <Time>2022-06-16T09:02:30.000Z</Time>
            <Position>
              <LatitudeDegrees>36.8132149614393711090087890625</LatitudeDegrees>
              <LongitudeDegrees>-4.37281499616801738739013671875</LongitudeDegrees>
            </Position>
            <AltitudeMeters>930.5999755859375</AltitudeMeters>
            <DistanceMeters>NAN</DistanceMeters>
          </Trackpoint>
          <Trackpoint>
            <Time>2022-06-16T09:02:40.000Z</Time>
            <Position>
              <LatitudeDegrees>36.8132515065371990203857421875</LatitudeDegrees>
              <LongitudeDegrees>-4.37285321764647960662841796875</LongitudeDegrees>
            </Position>
            <AltitudeMeters>932</AltitudeMeters>
            <DistanceMeters>NAN</DistanceMeters>
          </Trackpoint>
          <Trackpoint>
            <Time>2022-06-16T09:02:50.000Z</Time>
            <Position>
              <LatitudeDegrees>36.81330473162233829498291015625</LatitudeDegrees>
              <LongitudeDegrees>-4.3729252181947231292724609375</LongitudeDegrees>
            </Position>
            <AltitudeMeters>932.5999755859375</AltitudeMeters>
            <DistanceMeters>NAN</DistanceMeters>
          </Trackpoint>
          <Trackpoint>
            <Time>2022-06-16T09:02:57.000Z</Time>
            <Position>
              <LatitudeDegrees>36.81334219872951507568359375</LatitudeDegrees>
              <LongitudeDegrees>-4.37298213131725788116455078125</LongitudeDegrees>
            </Position>
            <AltitudeMeters>932.20001220703125</AltitudeMeters>
            <DistanceMeters>NAN</DistanceMeters>
          </Trackpoint>
          <Trackpoint>
            <Time>2022-06-16T09:02:58.000Z</Time>
            <Position>
              <LatitudeDegrees>36.8133504129946231842041015625</LatitudeDegrees>
              <LongitudeDegrees>-4.3729917705059051513671875</LongitudeDegrees>
            </Position>
            <AltitudeMeters>932.20001220703125</AltitudeMeters>
            <DistanceMeters>NAN</DistanceMeters>
          </Trackpoint>
          <Trackpoint>
            <Time>2022-06-16T09:02:59.000Z</Time>
            <Position>
              <LatitudeDegrees>36.813358962535858154296875</LatitudeDegrees>
              <LongitudeDegrees>-4.3730053491890430450439453125</LongitudeDegrees>
            </Position>
            <AltitudeMeters>932</AltitudeMeters>
            <DistanceMeters>NAN</DistanceMeters>
          </Trackpoint>
          <Trackpoint>
            <Time>2022-06-16T09:03:00.000Z</Time>
            <Position>
              <LatitudeDegrees>36.81336927227675914764404296875</LatitudeDegrees>
              <LongitudeDegrees>-4.37302085570991039276123046875</LongitudeDegrees>
            </Position>
            <AltitudeMeters>931.79998779296875</AltitudeMeters>
            <DistanceMeters>NAN</DistanceMeters>
          </Trackpoint>
          <Trackpoint>
            <Time>2022-06-16T09:03:03.000Z</Time>
            <Position>
              <LatitudeDegrees>36.813412606716156005859375</LatitudeDegrees>
              <LongitudeDegrees>-4.37306544743478298187255859375</LongitudeDegrees>
            </Position>
            <AltitudeMeters>932.20001220703125</AltitudeMeters>
            <DistanceMeters>NAN</DistanceMeters>
          </Trackpoint>
          <Trackpoint>
            <Time>2022-06-16T09:03:06.000Z</Time>
            <Position>
              <LatitudeDegrees>36.81343565694987773895263671875</LatitudeDegrees>
              <LongitudeDegrees>-4.373087994754314422607421875</LongitudeDegrees>
            </Position>
            <AltitudeMeters>932.20001220703125</AltitudeMeters>
            <DistanceMeters>NAN</DistanceMeters>
          </Trackpoint>
          <Trackpoint>
            <Time>2022-06-16T09:03:10.000Z</Time>
            <Position>
              <LatitudeDegrees>36.81348360143601894378662109375</LatitudeDegrees>
              <LongitudeDegrees>-4.37311825342476367950439453125</LongitudeDegrees>
            </Position>
            <AltitudeMeters>932.20001220703125</AltitudeMeters>
            <DistanceMeters>NAN</DistanceMeters>
          </Trackpoint>
          <Trackpoint>
            <Time>2022-06-16T09:03:14.000Z</Time>
            <Position>
              <LatitudeDegrees>36.8135291151702404022216796875</LatitudeDegrees>
              <LongitudeDegrees>-4.3731528706848621368408203125</LongitudeDegrees>
            </Position>
            <AltitudeMeters>932.20001220703125</AltitudeMeters>
            <DistanceMeters>NAN</DistanceMeters>
          </Trackpoint>
          <Trackpoint>
            <Time>2022-06-16T09:03:17.000Z</Time>
            <Position>
              <LatitudeDegrees>36.8135502375662326812744140625</LatitudeDegrees>
              <LongitudeDegrees>-4.373161755502223968505859375</LongitudeDegrees>
            </Position>
            <AltitudeMeters>932.4000244140625</AltitudeMeters>
            <DistanceMeters>NAN</DistanceMeters>
          </Trackpoint>
          <Trackpoint>
            <Time>2022-06-16T09:03:20.000Z</Time>
            <Position>
              <LatitudeDegrees>36.8135963380336761474609375</LatitudeDegrees>
              <LongitudeDegrees>-4.3731917627155780792236328125</LongitudeDegrees>
            </Position>
            <AltitudeMeters>931.5999755859375</AltitudeMeters>
            <DistanceMeters>NAN</DistanceMeters>
          </Trackpoint>
          <Trackpoint>
            <Time>2022-06-16T09:03:28.000Z</Time>
            <Position>
              <LatitudeDegrees>36.81368040852248668670654296875</LatitudeDegrees>
              <LongitudeDegrees>-4.3732118792831897735595703125</LongitudeDegrees>
            </Position>
            <AltitudeMeters>931.20001220703125</AltitudeMeters>
            <DistanceMeters>NAN</DistanceMeters>
          </Trackpoint>
          <Trackpoint>
            <Time>2022-06-16T09:03:30.000Z</Time>
            <Position>
              <LatitudeDegrees>36.8137218989431858062744140625</LatitudeDegrees>
              <LongitudeDegrees>-4.3732122145593166351318359375</LongitudeDegrees>
            </Position>
            <AltitudeMeters>931.4000244140625</AltitudeMeters>
            <DistanceMeters>NAN</DistanceMeters>
          </Trackpoint>
          <Trackpoint>
            <Time>2022-06-16T09:03:40.000Z</Time>
            <Position>
              <LatitudeDegrees>36.8138023652136325836181640625</LatitudeDegrees>
              <LongitudeDegrees>-4.37319268472492694854736328125</LongitudeDegrees>
            </Position>
            <AltitudeMeters>932.4000244140625</AltitudeMeters>
            <DistanceMeters>NAN</DistanceMeters>
          </Trackpoint>
          <Trackpoint>
            <Time>2022-06-16T09:03:50.000Z</Time>
            <Position>
              <LatitudeDegrees>36.81392549537122249603271484375</LatitudeDegrees>
              <LongitudeDegrees>-4.37315027229487895965576171875</LongitudeDegrees>
            </Position>
            <AltitudeMeters>933.5999755859375</AltitudeMeters>
            <DistanceMeters>NAN</DistanceMeters>
          </Trackpoint>
          <Trackpoint>
            <Time>2022-06-16T09:04:00.000Z</Time>
            <Position>
              <LatitudeDegrees>36.81406907737255096435546875</LatitudeDegrees>
              <LongitudeDegrees>-4.3731176666915416717529296875</LongitudeDegrees>
            </Position>
            <AltitudeMeters>933.79998779296875</AltitudeMeters>
            <DistanceMeters>NAN</DistanceMeters>
          </Trackpoint>
          <Trackpoint>
            <Time>2022-06-16T09:04:10.000Z</Time>
            <Position>
              <LatitudeDegrees>36.81422489695250988006591796875</LatitudeDegrees>
              <LongitudeDegrees>-4.37311339192092418670654296875</LongitudeDegrees>
            </Position>
            <AltitudeMeters>932.5999755859375</AltitudeMeters>
            <DistanceMeters>NAN</DistanceMeters>
          </Trackpoint>
          <Trackpoint>
            <Time>2022-06-16T09:04:13.000Z</Time>
            <Position>
              <LatitudeDegrees>36.81426311843097209930419921875</LatitudeDegrees>
              <LongitudeDegrees>-4.3731166608631610870361328125</LongitudeDegrees>
            </Position>
            <AltitudeMeters>932.20001220703125</AltitudeMeters>
            <DistanceMeters>NAN</DistanceMeters>
          </Trackpoint>
          <Trackpoint>
            <Time>2022-06-16T09:04:20.000Z</Time>
            <Position>
              <LatitudeDegrees>36.81436420418322086334228515625</LatitudeDegrees>
              <LongitudeDegrees>-4.3731032498180866241455078125</LongitudeDegrees>
            </Position>
            <AltitudeMeters>932.4000244140625</AltitudeMeters>
            <DistanceMeters>NAN</DistanceMeters>
          </Trackpoint>
          <Trackpoint>
            <Time>2022-06-16T09:04:29.000Z</Time>
            <Position>
              <LatitudeDegrees>36.81447266601026058197021484375</LatitudeDegrees>
              <LongitudeDegrees>-4.373110793530941009521484375</LongitudeDegrees>
            </Position>
            <AltitudeMeters>931.5999755859375</AltitudeMeters>
            <DistanceMeters>NAN</DistanceMeters>
          </Trackpoint>
          <Trackpoint>
            <Time>2022-06-16T09:04:30.000Z</Time>
            <Position>
              <LatitudeDegrees>36.814483813941478729248046875</LatitudeDegrees>
              <LongitudeDegrees>-4.37311657704412937164306640625</LongitudeDegrees>
            </Position>
            <AltitudeMeters>931.20001220703125</AltitudeMeters>
            <DistanceMeters>NAN</DistanceMeters>
          </Trackpoint>
          <Trackpoint>
            <Time>2022-06-16T09:04:40.000Z</Time>
            <Position>
              <LatitudeDegrees>36.8146130628883838653564453125</LatitudeDegrees>
              <LongitudeDegrees>-4.37317483127117156982421875</LongitudeDegrees>
            </Position>
            <AltitudeMeters>929.20001220703125</AltitudeMeters>
            <DistanceMeters>NAN</DistanceMeters>
          </Trackpoint>
          <Trackpoint>
            <Time>2022-06-16T09:04:47.000Z</Time>
            <Position>
              <LatitudeDegrees>36.814709790050983428955078125</LatitudeDegrees>
              <LongitudeDegrees>-4.373209364712238311767578125</LongitudeDegrees>
            </Position>
            <AltitudeMeters>929.4000244140625</AltitudeMeters>
            <DistanceMeters>NAN</DistanceMeters>
          </Trackpoint>
          <Trackpoint>
            <Time>2022-06-16T09:04:50.000Z</Time>
            <Position>
              <LatitudeDegrees>36.81474608369171619415283203125</LatitudeDegrees>
              <LongitudeDegrees>-4.3732283078134059906005859375</LongitudeDegrees>
            </Position>
            <AltitudeMeters>929.4000244140625</AltitudeMeters>
            <DistanceMeters>NAN</DistanceMeters>
          </Trackpoint>
          <Trackpoint>
            <Time>2022-06-16T09:05:00.000Z</Time>
            <Position>
              <LatitudeDegrees>36.8148501031100749969482421875</LatitudeDegrees>
              <LongitudeDegrees>-4.37329553067684173583984375</LongitudeDegrees>
            </Position>
            <AltitudeMeters>929.20001220703125</AltitudeMeters>
            <DistanceMeters>NAN</DistanceMeters>
          </Trackpoint>
          <Trackpoint>
            <Time>2022-06-16T09:05:10.000Z</Time>
            <Position>
              <LatitudeDegrees>36.8149791844189167022705078125</LatitudeDegrees>
              <LongitudeDegrees>-4.37339284457266330718994140625</LongitudeDegrees>
            </Position>
            <AltitudeMeters>929.5999755859375</AltitudeMeters>
            <DistanceMeters>NAN</DistanceMeters>
          </Trackpoint>
          <Trackpoint>
            <Time>2022-06-16T09:05:20.000Z</Time>
            <Position>
              <LatitudeDegrees>36.815097033977508544921875</LatitudeDegrees>
              <LongitudeDegrees>-4.3734931759536266326904296875</LongitudeDegrees>
            </Position>
            <AltitudeMeters>930.4000244140625</AltitudeMeters>
            <DistanceMeters>NAN</DistanceMeters>
          </Trackpoint>
          <Trackpoint>
            <Time>2022-06-16T09:05:30.000Z</Time>
            <Position>
              <LatitudeDegrees>36.81519568897783756256103515625</LatitudeDegrees>
              <LongitudeDegrees>-4.373608343303203582763671875</LongitudeDegrees>
            </Position>
            <AltitudeMeters>930.5999755859375</AltitudeMeters>
            <DistanceMeters>NAN</DistanceMeters>
          </Trackpoint>
          <Trackpoint>
            <Time>2022-06-16T09:05:40.000Z</Time>
            <Position>
              <LatitudeDegrees>36.81520826183259487152099609375</LatitudeDegrees>
              <LongitudeDegrees>-4.3737872131168842315673828125</LongitudeDegrees>
            </Position>
            <AltitudeMeters>927</AltitudeMeters>
            <DistanceMeters>NAN</DistanceMeters>
          </Trackpoint>
          <Trackpoint>
            <Time>2022-06-16T09:05:50.000Z</Time>
            <Position>
              <LatitudeDegrees>36.81521580554544925689697265625</LatitudeDegrees>
              <LongitudeDegrees>-4.3739742971956729888916015625</LongitudeDegrees>
            </Position>
            <AltitudeMeters>924</AltitudeMeters>
            <DistanceMeters>NAN</DistanceMeters>
          </Trackpoint>
          <Trackpoint>
            <Time>2022-06-16T09:05:53.000Z</Time>
            <Position>
              <LatitudeDegrees>36.81522502563893795013427734375</LatitudeDegrees>
              <LongitudeDegrees>-4.37402802519500255584716796875</LongitudeDegrees>
            </Position>
            <AltitudeMeters>923.20001220703125</AltitudeMeters>
            <DistanceMeters>NAN</DistanceMeters>
          </Trackpoint>
          <Trackpoint>
            <Time>2022-06-16T09:06:00.000Z</Time>
            <Position>
              <LatitudeDegrees>36.81528956629335880279541015625</LatitudeDegrees>
              <LongitudeDegrees>-4.374129362404346466064453125</LongitudeDegrees>
            </Position>
            <AltitudeMeters>923.4000244140625</AltitudeMeters>
            <DistanceMeters>NAN</DistanceMeters>
          </Trackpoint>
          <Trackpoint>
            <Time>2022-06-16T09:06:07.000Z</Time>
            <Position>
              <LatitudeDegrees>36.81538931094110012054443359375</LatitudeDegrees>
              <LongitudeDegrees>-4.37420689500868320465087890625</LongitudeDegrees>
            </Position>
            <AltitudeMeters>925.20001220703125</AltitudeMeters>
            <DistanceMeters>NAN</DistanceMeters>
          </Trackpoint>
          <Trackpoint>
            <Time>2022-06-16T09:06:08.000Z</Time>
            <Position>
              <LatitudeDegrees>36.815406493842601776123046875</LatitudeDegrees>
              <LongitudeDegrees>-4.374212510883808135986328125</LongitudeDegrees>
            </Position>
            <AltitudeMeters>925.4000244140625</AltitudeMeters>
            <DistanceMeters>NAN</DistanceMeters>
          </Trackpoint>
          <Trackpoint>
            <Time>2022-06-16T09:06:09.000Z</Time>
            <Position>
              <LatitudeDegrees>36.8154234252870082855224609375</LatitudeDegrees>
              <LongitudeDegrees>-4.3742167018353939056396484375</LongitudeDegrees>
            </Position>
            <AltitudeMeters>925.79998779296875</AltitudeMeters>
            <DistanceMeters>NAN</DistanceMeters>
          </Trackpoint>
          <Trackpoint>
            <Time>2022-06-16T09:06:10.000Z</Time>
            <Position>
              <LatitudeDegrees>36.815440692007541656494140625</LatitudeDegrees>
              <LongitudeDegrees>-4.374218545854091644287109375</LongitudeDegrees>
            </Position>
            <AltitudeMeters>926</AltitudeMeters>
            <DistanceMeters>NAN</DistanceMeters>
          </Trackpoint>
          <Trackpoint>
            <Time>2022-06-16T09:06:13.000Z</Time>
            <Position>
              <LatitudeDegrees>36.8154861219227313995361328125</LatitudeDegrees>
              <LongitudeDegrees>-4.37422265298664569854736328125</LongitudeDegrees>
            </Position>
            <AltitudeMeters>927</AltitudeMeters>
            <DistanceMeters>NAN</DistanceMeters>
          </Trackpoint>
          <Trackpoint>
            <Time>2022-06-16T09:06:14.000Z</Time>
            <Position>
              <LatitudeDegrees>36.8155005387961864471435546875</LatitudeDegrees>
              <LongitudeDegrees>-4.374224580824375152587890625</LongitudeDegrees>
            </Position>
            <AltitudeMeters>927.20001220703125</AltitudeMeters>
            <DistanceMeters>NAN</DistanceMeters>
          </Trackpoint>
          <Trackpoint>
            <Time>2022-06-16T09:06:15.000Z</Time>
            <Position>
              <LatitudeDegrees>36.8155173026025295257568359375</LatitudeDegrees>
              <LongitudeDegrees>-4.37422935850918292999267578125</LongitudeDegrees>
            </Position>
            <AltitudeMeters>927.5999755859375</AltitudeMeters>
            <DistanceMeters>NAN</DistanceMeters>
          </Trackpoint>
          <Trackpoint>
            <Time>2022-06-16T09:06:18.000Z</Time>
            <Position>
              <LatitudeDegrees>36.8155588768422603607177734375</LatitudeDegrees>
              <LongitudeDegrees>-4.37424360774457454681396484375</LongitudeDegrees>
            </Position>
            <AltitudeMeters>927.79998779296875</AltitudeMeters>
            <DistanceMeters>NAN</DistanceMeters>
          </Trackpoint>
          <Trackpoint>
            <Time>2022-06-16T09:06:20.000Z</Time>
            <Position>
              <LatitudeDegrees>36.81558854877948760986328125</LatitudeDegrees>
              <LongitudeDegrees>-4.37424696050584316253662109375</LongitudeDegrees>
            </Position>
            <AltitudeMeters>928</AltitudeMeters>
            <DistanceMeters>NAN</DistanceMeters>
          </Trackpoint>
          <Trackpoint>
            <Time>2022-06-16T09:06:23.000Z</Time>
            <Position>
              <LatitudeDegrees>36.81562920100986957550048828125</LatitudeDegrees>
              <LongitudeDegrees>-4.37424771487712860107421875</LongitudeDegrees>
            </Position>
            <AltitudeMeters>928.5999755859375</AltitudeMeters>
            <DistanceMeters>NAN</DistanceMeters>
          </Trackpoint>
          <Trackpoint>
            <Time>2022-06-16T09:06:30.000Z</Time>
            <Position>
              <LatitudeDegrees>36.81572240777313709259033203125</LatitudeDegrees>
              <LongitudeDegrees>-4.37425299547612667083740234375</LongitudeDegrees>
            </Position>
            <AltitudeMeters>928.20001220703125</AltitudeMeters>
            <DistanceMeters>NAN</DistanceMeters>
          </Trackpoint>
          <Trackpoint>
            <Time>2022-06-16T09:06:40.000Z</Time>
            <Position>
              <LatitudeDegrees>36.815859116613864898681640625</LatitudeDegrees>
              <LongitudeDegrees>-4.37426917254924774169921875</LongitudeDegrees>
            </Position>
            <AltitudeMeters>927.20001220703125</AltitudeMeters>
            <DistanceMeters>NAN</DistanceMeters>
          </Trackpoint>
          <Trackpoint>
            <Time>2022-06-16T09:06:48.000Z</Time>
            <Position>
              <LatitudeDegrees>36.81596271693706512451171875</LatitudeDegrees>
              <LongitudeDegrees>-4.37428736127912998199462890625</LongitudeDegrees>
            </Position>
            <AltitudeMeters>925.79998779296875</AltitudeMeters>
            <DistanceMeters>NAN</DistanceMeters>
          </Trackpoint>
          <Trackpoint>
            <Time>2022-06-16T09:06:50.000Z</Time>
            <Position>
              <LatitudeDegrees>36.815989874303340911865234375</LatitudeDegrees>
              <LongitudeDegrees>-4.37429591082036495208740234375</LongitudeDegrees>
            </Position>
            <AltitudeMeters>925</AltitudeMeters>
            <DistanceMeters>NAN</DistanceMeters>
          </Trackpoint>
          <Trackpoint>
            <Time>2022-06-16T09:06:56.000Z</Time>
            <Position>
              <LatitudeDegrees>36.81606740690767765045166015625</LatitudeDegrees>
              <LongitudeDegrees>-4.37431485392153263092041015625</LongitudeDegrees>
            </Position>
            <AltitudeMeters>923.5999755859375</AltitudeMeters>
            <DistanceMeters>NAN</DistanceMeters>
          </Trackpoint>
          <Trackpoint>
            <Time>2022-06-16T09:06:58.000Z</Time>
            <Position>
              <LatitudeDegrees>36.8160879425704479217529296875</LatitudeDegrees>
              <LongitudeDegrees>-4.37432491220533847808837890625</LongitudeDegrees>
            </Position>
            <AltitudeMeters>923.4000244140625</AltitudeMeters>
            <DistanceMeters>NAN</DistanceMeters>
          </Trackpoint>
          <Trackpoint>
            <Time>2022-06-16T09:07:00.000Z</Time>
            <Position>
              <LatitudeDegrees>36.81611132808029651641845703125</LatitudeDegrees>
              <LongitudeDegrees>-4.374337904155254364013671875</LongitudeDegrees>
            </Position>
            <AltitudeMeters>923</AltitudeMeters>
            <DistanceMeters>NAN</DistanceMeters>
          </Trackpoint>
          <Trackpoint>
            <Time>2022-06-16T09:07:05.000Z</Time>
            <Position>
              <LatitudeDegrees>36.816165558993816375732421875</LatitudeDegrees>
              <LongitudeDegrees>-4.374387525022029876708984375</LongitudeDegrees>
            </Position>
            <AltitudeMeters>921.5999755859375</AltitudeMeters>
            <DistanceMeters>NAN</DistanceMeters>
          </Trackpoint>
          <Trackpoint>
            <Time>2022-06-16T09:07:10.000Z</Time>
            <Position>
              <LatitudeDegrees>36.816221214830875396728515625</LatitudeDegrees>
              <LongitudeDegrees>-4.37443002127110958099365234375</LongitudeDegrees>
            </Position>
            <AltitudeMeters>920.79998779296875</AltitudeMeters>
            <DistanceMeters>NAN</DistanceMeters>
          </Trackpoint>
          <Trackpoint>
            <Time>2022-06-16T09:07:20.000Z</Time>
            <Position>
              <LatitudeDegrees>36.81635758839547634124755859375</LatitudeDegrees>
              <LongitudeDegrees>-4.37450126744806766510009765625</LongitudeDegrees>
            </Position>
            <AltitudeMeters>920.79998779296875</AltitudeMeters>
            <DistanceMeters>NAN</DistanceMeters>
          </Trackpoint>
          <Trackpoint>
            <Time>2022-06-16T09:07:30.000Z</Time>
            <Position>
              <LatitudeDegrees>36.81648817844688892364501953125</LatitudeDegrees>
              <LongitudeDegrees>-4.3746129982173442840576171875</LongitudeDegrees>
            </Position>
            <AltitudeMeters>920.4000244140625</AltitudeMeters>
            <DistanceMeters>NAN</DistanceMeters>
          </Trackpoint>
          <Trackpoint>
            <Time>2022-06-16T09:07:40.000Z</Time>
            <Position>
              <LatitudeDegrees>36.81659194640815258026123046875</LatitudeDegrees>
              <LongitudeDegrees>-4.37472858466207981109619140625</LongitudeDegrees>
            </Position>
            <AltitudeMeters>920.5999755859375</AltitudeMeters>
            <DistanceMeters>NAN</DistanceMeters>
          </Trackpoint>
          <Trackpoint>
            <Time>2022-06-16T09:07:50.000Z</Time>
            <Position>
              <LatitudeDegrees>36.81668632663786411285400390625</LatitudeDegrees>
              <LongitudeDegrees>-4.37484224326908588409423828125</LongitudeDegrees>
            </Position>
            <AltitudeMeters>921.4000244140625</AltitudeMeters>
            <DistanceMeters>NAN</DistanceMeters>
          </Trackpoint>
          <Trackpoint>
            <Time>2022-06-16T09:07:59.000Z</Time>
            <Position>
              <LatitudeDegrees>36.81674432940781116485595703125</LatitudeDegrees>
              <LongitudeDegrees>-4.37492958270013332366943359375</LongitudeDegrees>
            </Position>
            <AltitudeMeters>922.79998779296875</AltitudeMeters>
            <DistanceMeters>NAN</DistanceMeters>
          </Trackpoint>
          <Trackpoint>
            <Time>2022-06-16T09:08:00.000Z</Time>
            <Position>
              <LatitudeDegrees>36.81674432940781116485595703125</LatitudeDegrees>
              <LongitudeDegrees>-4.37492958270013332366943359375</LongitudeDegrees>
            </Position>
            <AltitudeMeters>922.79998779296875</AltitudeMeters>
            <DistanceMeters>NAN</DistanceMeters>
          </Trackpoint>
          <Trackpoint>
            <Time>2022-06-16T09:08:06.000Z</Time>
            <Position>
              <LatitudeDegrees>36.8167881667613983154296875</LatitudeDegrees>
              <LongitudeDegrees>-4.3750015832483768463134765625</LongitudeDegrees>
            </Position>
            <AltitudeMeters>922.79998779296875</AltitudeMeters>
            <DistanceMeters>NAN</DistanceMeters>
          </Trackpoint>
          <Trackpoint>
            <Time>2022-06-16T09:08:07.000Z</Time>
            <Position>
              <LatitudeDegrees>36.8167890049517154693603515625</LatitudeDegrees>
              <LongitudeDegrees>-4.3750243820250034332275390625</LongitudeDegrees>
            </Position>
            <AltitudeMeters>922.4000244140625</AltitudeMeters>
            <DistanceMeters>NAN</DistanceMeters>
          </Trackpoint>
          <Trackpoint>
            <Time>2022-06-16T09:08:10.000Z</Time>
            <Position>
              <LatitudeDegrees>36.81680400855839252471923828125</LatitudeDegrees>
              <LongitudeDegrees>-4.375067465007305145263671875</LongitudeDegrees>
            </Position>
            <AltitudeMeters>921.79998779296875</AltitudeMeters>
            <DistanceMeters>NAN</DistanceMeters>
          </Trackpoint>
          <Trackpoint>
            <Time>2022-06-16T09:08:20.000Z</Time>
            <Position>
              <LatitudeDegrees>36.8168520368635654449462890625</LatitudeDegrees>
              <LongitudeDegrees>-4.37524616718292236328125</LongitudeDegrees>
            </Position>
            <AltitudeMeters>920.4000244140625</AltitudeMeters>
            <DistanceMeters>NAN</DistanceMeters>
          </Trackpoint>
          <Trackpoint>
            <Time>2022-06-16T09:08:30.000Z</Time>
            <Position>
              <LatitudeDegrees>36.81691381148993968963623046875</LatitudeDegrees>
              <LongitudeDegrees>-4.3754193373024463653564453125</LongitudeDegrees>
            </Position>
            <AltitudeMeters>917.5999755859375</AltitudeMeters>
            <DistanceMeters>NAN</DistanceMeters>
          </Trackpoint>
          <Trackpoint>
            <Time>2022-06-16T09:08:40.000Z</Time>
            <Position>
              <LatitudeDegrees>36.81697986088693141937255859375</LatitudeDegrees>
              <LongitudeDegrees>-4.37555068172514438629150390625</LongitudeDegrees>
            </Position>
            <AltitudeMeters>916.4000244140625</AltitudeMeters>
            <DistanceMeters>NAN</DistanceMeters>
          </Trackpoint>
          <Trackpoint>
            <Time>2022-06-16T09:08:50.000Z</Time>
            <Position>
              <LatitudeDegrees>36.8170582316815853118896484375</LatitudeDegrees>
              <LongitudeDegrees>-4.3756862170994281768798828125</LongitudeDegrees>
            </Position>
            <AltitudeMeters>915.5999755859375</AltitudeMeters>
            <DistanceMeters>NAN</DistanceMeters>
          </Trackpoint>
          <Trackpoint>
            <Time>2022-06-16T09:08:56.000Z</Time>
            <Position>
              <LatitudeDegrees>36.81710173375904560089111328125</LatitudeDegrees>
              <LongitudeDegrees>-4.37576861120760440826416015625</LongitudeDegrees>
            </Position>
            <AltitudeMeters>914.4000244140625</AltitudeMeters>
            <DistanceMeters>NAN</DistanceMeters>
          </Trackpoint>
          <Trackpoint>
            <Time>2022-06-16T09:09:00.000Z</Time>
            <Position>
              <LatitudeDegrees>36.81710860691964626312255859375</LatitudeDegrees>
              <LongitudeDegrees>-4.37583298422396183013916015625</LongitudeDegrees>
            </Position>
            <AltitudeMeters>913.5999755859375</AltitudeMeters>
            <DistanceMeters>NAN</DistanceMeters>
          </Trackpoint>
          <Trackpoint>
            <Time>2022-06-16T09:09:10.000Z</Time>
            <Position>
              <LatitudeDegrees>36.81713274680078029632568359375</LatitudeDegrees>
              <LongitudeDegrees>-4.37598603777587413787841796875</LongitudeDegrees>
            </Position>
            <AltitudeMeters>910.4000244140625</AltitudeMeters>
            <DistanceMeters>NAN</DistanceMeters>
          </Trackpoint>
          <Trackpoint>
            <Time>2022-06-16T09:09:20.000Z</Time>
            <Position>
              <LatitudeDegrees>36.81714934296905994415283203125</LatitudeDegrees>
              <LongitudeDegrees>-4.37612660229206085205078125</LongitudeDegrees>
            </Position>
            <AltitudeMeters>908.5999755859375</AltitudeMeters>
            <DistanceMeters>NAN</DistanceMeters>
          </Trackpoint>
          <Trackpoint>
            <Time>2022-06-16T09:09:23.000Z</Time>
            <Position>
              <LatitudeDegrees>36.81716124527156352996826171875</LatitudeDegrees>
              <LongitudeDegrees>-4.3761857785284519195556640625</LongitudeDegrees>
            </Position>
            <AltitudeMeters>907.79998779296875</AltitudeMeters>
            <DistanceMeters>NAN</DistanceMeters>
          </Trackpoint>
          <Trackpoint>
            <Time>2022-06-16T09:09:30.000Z</Time>
            <Position>
              <LatitudeDegrees>36.81719711981713771820068359375</LatitudeDegrees>
              <LongitudeDegrees>-4.37631175853312015533447265625</LongitudeDegrees>
            </Position>
            <AltitudeMeters>906.4000244140625</AltitudeMeters>
            <DistanceMeters>NAN</DistanceMeters>
          </Trackpoint>
          <Trackpoint>
            <Time>2022-06-16T09:09:40.000Z</Time>
            <Position>
              <LatitudeDegrees>36.81725361384451389312744140625</LatitudeDegrees>
              <LongitudeDegrees>-4.3764303624629974365234375</LongitudeDegrees>
            </Position>
            <AltitudeMeters>905</AltitudeMeters>
            <DistanceMeters>NAN</DistanceMeters>
          </Trackpoint>
          <Trackpoint>
            <Time>2022-06-16T09:09:50.000Z</Time>
            <Position>
              <LatitudeDegrees>36.81731295771896839141845703125</LatitudeDegrees>
              <LongitudeDegrees>-4.37655843794345855712890625</LongitudeDegrees>
            </Position>
            <AltitudeMeters>904</AltitudeMeters>
            <DistanceMeters>NAN</DistanceMeters>
          </Trackpoint>
          <Trackpoint>
            <Time>2022-06-16T09:10:00.000Z</Time>
            <Position>
              <LatitudeDegrees>36.81736727245151996612548828125</LatitudeDegrees>
              <LongitudeDegrees>-4.37673336826264858245849609375</LongitudeDegrees>
            </Position>
            <AltitudeMeters>902</AltitudeMeters>
            <DistanceMeters>NAN</DistanceMeters>
          </Trackpoint>
          <Trackpoint>
            <Time>2022-06-16T09:10:05.000Z</Time>
            <Position>
              <LatitudeDegrees>36.81737967766821384429931640625</LatitudeDegrees>
              <LongitudeDegrees>-4.3768177740275859832763671875</LongitudeDegrees>
            </Position>
            <AltitudeMeters>901.4000244140625</AltitudeMeters>
            <DistanceMeters>NAN</DistanceMeters>
          </Trackpoint>
          <Trackpoint>
            <Time>2022-06-16T09:10:10.000Z</Time>
            <Position>
              <LatitudeDegrees>36.817396692931652069091796875</LatitudeDegrees>
              <LongitudeDegrees>-4.3768943846225738525390625</LongitudeDegrees>
            </Position>
            <AltitudeMeters>901</AltitudeMeters>
            <DistanceMeters>NAN</DistanceMeters>
          </Trackpoint>
          <Trackpoint>
            <Time>2022-06-16T09:10:20.000Z</Time>
            <Position>
              <LatitudeDegrees>36.81744866073131561279296875</LatitudeDegrees>
              <LongitudeDegrees>-4.37701667658984661102294921875</LongitudeDegrees>
            </Position>
            <AltitudeMeters>899.79998779296875</AltitudeMeters>
            <DistanceMeters>NAN</DistanceMeters>
          </Trackpoint>
          <Trackpoint>
            <Time>2022-06-16T09:10:23.000Z</Time>
            <Position>
              <LatitudeDegrees>36.81747137568891048431396484375</LatitudeDegrees>
              <LongitudeDegrees>-4.3770782835781574249267578125</LongitudeDegrees>
            </Position>
            <AltitudeMeters>899.79998779296875</AltitudeMeters>
            <DistanceMeters>NAN</DistanceMeters>
          </Trackpoint>
          <Trackpoint>
            <Time>2022-06-16T09:10:30.000Z</Time>
            <Position>
              <LatitudeDegrees>36.817519403994083404541015625</LatitudeDegrees>
              <LongitudeDegrees>-4.3771946243941783905029296875</LongitudeDegrees>
            </Position>
            <AltitudeMeters>900.20001220703125</AltitudeMeters>
            <DistanceMeters>NAN</DistanceMeters>
          </Trackpoint>
          <Trackpoint>
            <Time>2022-06-16T09:10:34.000Z</Time>
            <Position>
              <LatitudeDegrees>36.81753273122012615203857421875</LatitudeDegrees>
              <LongitudeDegrees>-4.37724248506128787994384765625</LongitudeDegrees>
            </Position>
            <AltitudeMeters>899.79998779296875</AltitudeMeters>
            <DistanceMeters>NAN</DistanceMeters>
          </Trackpoint>
          <Trackpoint>
            <Time>2022-06-16T09:10:40.000Z</Time>
            <Position>
              <LatitudeDegrees>36.81756257079541683197021484375</LatitudeDegrees>
              <LongitudeDegrees>-4.37736033461987972259521484375</LongitudeDegrees>
            </Position>
            <AltitudeMeters>899.4000244140625</AltitudeMeters>
            <DistanceMeters>NAN</DistanceMeters>
          </Trackpoint>
          <Trackpoint>
            <Time>2022-06-16T09:10:50.000Z</Time>
            <Position>
              <LatitudeDegrees>36.81761168874800205230712890625</LatitudeDegrees>
              <LongitudeDegrees>-4.37750785611569881439208984375</LongitudeDegrees>
            </Position>
            <AltitudeMeters>898.4000244140625</AltitudeMeters>
            <DistanceMeters>NAN</DistanceMeters>
          </Trackpoint>
          <Trackpoint>
            <Time>2022-06-16T09:10:55.000Z</Time>
            <Position>
              <LatitudeDegrees>36.81763431988656520843505859375</LatitudeDegrees>
              <LongitudeDegrees>-4.37760047614574432373046875</LongitudeDegrees>
            </Position>
            <AltitudeMeters>896.79998779296875</AltitudeMeters>
            <DistanceMeters>NAN</DistanceMeters>
          </Trackpoint>
          <Trackpoint>
            <Time>2022-06-16T09:11:00.000Z</Time>
            <Position>
              <LatitudeDegrees>36.8176577053964138031005859375</LatitudeDegrees>
              <LongitudeDegrees>-4.37764917500317096710205078125</LongitudeDegrees>
            </Position>
            <AltitudeMeters>896</AltitudeMeters>
            <DistanceMeters>NAN</DistanceMeters>
          </Trackpoint>
          <Trackpoint>
            <Time>2022-06-16T09:11:10.000Z</Time>
            <Position>
              <LatitudeDegrees>36.8177237547934055328369140625</LatitudeDegrees>
              <LongitudeDegrees>-4.377777837216854095458984375</LongitudeDegrees>
            </Position>
            <AltitudeMeters>895.20001220703125</AltitudeMeters>
            <DistanceMeters>NAN</DistanceMeters>
          </Trackpoint>
          <Trackpoint>
            <Time>2022-06-16T09:11:20.000Z</Time>
            <Position>
              <LatitudeDegrees>36.81778770871460437774658203125</LatitudeDegrees>
              <LongitudeDegrees>-4.3778980337083339691162109375</LongitudeDegrees>
            </Position>
            <AltitudeMeters>894</AltitudeMeters>
            <DistanceMeters>NAN</DistanceMeters>
          </Trackpoint>
          <Trackpoint>
            <Time>2022-06-16T09:11:30.000Z</Time>
            <Position>
              <LatitudeDegrees>36.8178625591099262237548828125</LatitudeDegrees>
              <LongitudeDegrees>-4.3780599720776081085205078125</LongitudeDegrees>
            </Position>
            <AltitudeMeters>893.4000244140625</AltitudeMeters>
            <DistanceMeters>NAN</DistanceMeters>
          </Trackpoint>
          <Trackpoint>
            <Time>2022-06-16T09:11:40.000Z</Time>
            <Position>
              <LatitudeDegrees>36.8179416842758655548095703125</LatitudeDegrees>
              <LongitudeDegrees>-4.37822735868394374847412109375</LongitudeDegrees>
            </Position>
            <AltitudeMeters>891.5999755859375</AltitudeMeters>
            <DistanceMeters>NAN</DistanceMeters>
          </Trackpoint>
          <Trackpoint>
            <Time>2022-06-16T09:11:50.000Z</Time>
            <Position>
              <LatitudeDegrees>36.8180248327553272247314453125</LatitudeDegrees>
              <LongitudeDegrees>-4.37834453769028186798095703125</LongitudeDegrees>
            </Position>
            <AltitudeMeters>891.4000244140625</AltitudeMeters>
            <DistanceMeters>NAN</DistanceMeters>
          </Trackpoint>
          <Trackpoint>
            <Time>2022-06-16T09:12:00.000Z</Time>
            <Position>
              <LatitudeDegrees>36.81810454465448856353759765625</LatitudeDegrees>
              <LongitudeDegrees>-4.37845651991665363311767578125</LongitudeDegrees>
            </Position>
            <AltitudeMeters>891.79998779296875</AltitudeMeters>
            <DistanceMeters>NAN</DistanceMeters>
          </Trackpoint>
          <Trackpoint>
            <Time>2022-06-16T09:12:10.000Z</Time>
            <Position>
              <LatitudeDegrees>36.81820278055965900421142578125</LatitudeDegrees>
              <LongitudeDegrees>-4.3785568512976169586181640625</LongitudeDegrees>
            </Position>
            <AltitudeMeters>891.79998779296875</AltitudeMeters>
            <DistanceMeters>NAN</DistanceMeters>
          </Trackpoint>
          <Trackpoint>
            <Time>2022-06-16T09:12:20.000Z</Time>
            <Position>
              <LatitudeDegrees>36.8182662315666675567626953125</LatitudeDegrees>
              <LongitudeDegrees>-4.3787023611366748809814453125</LongitudeDegrees>
            </Position>
            <AltitudeMeters>890.20001220703125</AltitudeMeters>
            <DistanceMeters>NAN</DistanceMeters>
          </Trackpoint>
          <Trackpoint>
            <Time>2022-06-16T09:12:30.000Z</Time>
            <Position>
              <LatitudeDegrees>36.81833781301975250244140625</LatitudeDegrees>
              <LongitudeDegrees>-4.3788636289536952972412109375</LongitudeDegrees>
            </Position>
            <AltitudeMeters>890.20001220703125</AltitudeMeters>
            <DistanceMeters>NAN</DistanceMeters>
          </Trackpoint>
          <Trackpoint>
            <Time>2022-06-16T09:12:40.000Z</Time>
            <Position>
              <LatitudeDegrees>36.8184043653309345245361328125</LatitudeDegrees>
              <LongitudeDegrees>-4.37900469638407230377197265625</LongitudeDegrees>
            </Position>
            <AltitudeMeters>889.5999755859375</AltitudeMeters>
            <DistanceMeters>NAN</DistanceMeters>
          </Trackpoint>
          <Trackpoint>
            <Time>2022-06-16T09:12:50.000Z</Time>
            <Position>
              <LatitudeDegrees>36.8184667266905307769775390625</LatitudeDegrees>
              <LongitudeDegrees>-4.37913008965551853179931640625</LongitudeDegrees>
            </Position>
            <AltitudeMeters>889.4000244140625</AltitudeMeters>
            <DistanceMeters>NAN</DistanceMeters>
          </Trackpoint>
          <Trackpoint>
            <Time>2022-06-16T09:12:52.000Z</Time>
            <Position>
              <LatitudeDegrees>36.81848692707717418670654296875</LatitudeDegrees>
              <LongitudeDegrees>-4.3791677244007587432861328125</LongitudeDegrees>
            </Position>
            <AltitudeMeters>889</AltitudeMeters>
            <DistanceMeters>NAN</DistanceMeters>
          </Trackpoint>
          <Trackpoint>
            <Time>2022-06-16T09:13:00.000Z</Time>
            <Position>
              <LatitudeDegrees>36.81852917186915874481201171875</LatitudeDegrees>
              <LongitudeDegrees>-4.37925833277404308319091796875</LongitudeDegrees>
            </Position>
            <AltitudeMeters>888</AltitudeMeters>
            <DistanceMeters>NAN</DistanceMeters>
          </Trackpoint>
          <Trackpoint>
            <Time>2022-06-16T09:13:08.000Z</Time>
            <Position>
              <LatitudeDegrees>36.818601675331592559814453125</LatitudeDegrees>
              <LongitudeDegrees>-4.37936444766819477081298828125</LongitudeDegrees>
            </Position>
            <AltitudeMeters>888.4000244140625</AltitudeMeters>
            <DistanceMeters>NAN</DistanceMeters>
          </Trackpoint>
          <Trackpoint>
            <Time>2022-06-16T09:13:10.000Z</Time>
            <Position>
              <LatitudeDegrees>36.81862019933760166168212890625</LatitudeDegrees>
              <LongitudeDegrees>-4.37938682734966278076171875</LongitudeDegrees>
            </Position>
            <AltitudeMeters>888.5999755859375</AltitudeMeters>
            <DistanceMeters>NAN</DistanceMeters>
          </Trackpoint>
          <Trackpoint>
            <Time>2022-06-16T09:13:16.000Z</Time>
            <Position>
              <LatitudeDegrees>36.81866210885345935821533203125</LatitudeDegrees>
              <LongitudeDegrees>-4.3794563971459865570068359375</LongitudeDegrees>
            </Position>
            <AltitudeMeters>888.4000244140625</AltitudeMeters>
            <DistanceMeters>NAN</DistanceMeters>
          </Trackpoint>
          <Trackpoint>
            <Time>2022-06-16T09:13:20.000Z</Time>
            <Position>
              <LatitudeDegrees>36.8187158368527889251708984375</LatitudeDegrees>
              <LongitudeDegrees>-4.37951850704848766326904296875</LongitudeDegrees>
            </Position>
            <AltitudeMeters>889</AltitudeMeters>
            <DistanceMeters>NAN</DistanceMeters>
          </Trackpoint>
          <Trackpoint>
            <Time>2022-06-16T09:13:30.000Z</Time>
            <Position>
              <LatitudeDegrees>36.81879806332290172576904296875</LatitudeDegrees>
              <LongitudeDegrees>-4.37963048927485942840576171875</LongitudeDegrees>
            </Position>
            <AltitudeMeters>888.5999755859375</AltitudeMeters>
            <DistanceMeters>NAN</DistanceMeters>
          </Trackpoint>
          <Trackpoint>
            <Time>2022-06-16T09:13:40.000Z</Time>
            <Position>
              <LatitudeDegrees>36.81889160536229610443115234375</LatitudeDegrees>
              <LongitudeDegrees>-4.37976024113595485687255859375</LongitudeDegrees>
            </Position>
            <AltitudeMeters>888</AltitudeMeters>
            <DistanceMeters>NAN</DistanceMeters>
          </Trackpoint>
          <Trackpoint>
            <Time>2022-06-16T09:13:45.000Z</Time>
            <Position>
              <LatitudeDegrees>36.81892764754593372344970703125</LatitudeDegrees>
              <LongitudeDegrees>-4.379833750426769256591796875</LongitudeDegrees>
            </Position>
            <AltitudeMeters>887.5999755859375</AltitudeMeters>
            <DistanceMeters>NAN</DistanceMeters>
          </Trackpoint>
          <Trackpoint>
            <Time>2022-06-16T09:13:50.000Z</Time>
            <Position>
              <LatitudeDegrees>36.8189693056046962738037109375</LatitudeDegrees>
              <LongitudeDegrees>-4.37989384867250919342041015625</LongitudeDegrees>
            </Position>
            <AltitudeMeters>887.79998779296875</AltitudeMeters>
            <DistanceMeters>NAN</DistanceMeters>
          </Trackpoint>
          <Trackpoint>
            <Time>2022-06-16T09:13:59.000Z</Time>
            <Position>
              <LatitudeDegrees>36.81903208605945110321044921875</LatitudeDegrees>
              <LongitudeDegrees>-4.37997029162943363189697265625</LongitudeDegrees>
            </Position>
            <AltitudeMeters>887.4000244140625</AltitudeMeters>
            <DistanceMeters>NAN</DistanceMeters>
          </Trackpoint>
          <Trackpoint>
            <Time>2022-06-16T09:14:00.000Z</Time>
            <Position>
              <LatitudeDegrees>36.8190403841435909271240234375</LatitudeDegrees>
              <LongitudeDegrees>-4.37998202629387378692626953125</LongitudeDegrees>
            </Position>
            <AltitudeMeters>887.20001220703125</AltitudeMeters>
            <DistanceMeters>NAN</DistanceMeters>
          </Trackpoint>
          <Trackpoint>
            <Time>2022-06-16T09:14:08.000Z</Time>
            <Position>
              <LatitudeDegrees>36.81907986290752887725830078125</LatitudeDegrees>
              <LongitudeDegrees>-4.380085878074169158935546875</LongitudeDegrees>
            </Position>
            <AltitudeMeters>886</AltitudeMeters>
            <DistanceMeters>NAN</DistanceMeters>
          </Trackpoint>
          <Trackpoint>
            <Time>2022-06-16T09:14:10.000Z</Time>
            <Position>
              <LatitudeDegrees>36.8190863169729709625244140625</LatitudeDegrees>
              <LongitudeDegrees>-4.38009920530021190643310546875</LongitudeDegrees>
            </Position>
            <AltitudeMeters>885.79998779296875</AltitudeMeters>
            <DistanceMeters>NAN</DistanceMeters>
          </Trackpoint>
          <Trackpoint>
            <Time>2022-06-16T09:14:20.000Z</Time>
            <Position>
              <LatitudeDegrees>36.819158233702182769775390625</LatitudeDegrees>
              <LongitudeDegrees>-4.3802390992641448974609375</LongitudeDegrees>
            </Position>
            <AltitudeMeters>885</AltitudeMeters>
            <DistanceMeters>NAN</DistanceMeters>
          </Trackpoint>
          <Trackpoint>
            <Time>2022-06-16T09:14:30.000Z</Time>
            <Position>
              <LatitudeDegrees>36.81923526339232921600341796875</LatitudeDegrees>
              <LongitudeDegrees>-4.380393326282501220703125</LongitudeDegrees>
            </Position>
            <AltitudeMeters>883.4000244140625</AltitudeMeters>
            <DistanceMeters>NAN</DistanceMeters>
          </Trackpoint>
          <Trackpoint>
            <Time>2022-06-16T09:14:40.000Z</Time>
            <Position>
              <LatitudeDegrees>36.819288991391658782958984375</LatitudeDegrees>
              <LongitudeDegrees>-4.38052969984710216522216796875</LongitudeDegrees>
            </Position>
            <AltitudeMeters>882.4000244140625</AltitudeMeters>
            <DistanceMeters>NAN</DistanceMeters>
          </Trackpoint>
          <Trackpoint>
            <Time>2022-06-16T09:14:50.000Z</Time>
            <Position>
              <LatitudeDegrees>36.81933668442070484161376953125</LatitudeDegrees>
              <LongitudeDegrees>-4.38069641590118408203125</LongitudeDegrees>
            </Position>
            <AltitudeMeters>880</AltitudeMeters>
            <DistanceMeters>NAN</DistanceMeters>
          </Trackpoint>
          <Trackpoint>
            <Time>2022-06-16T09:15:00.000Z</Time>
            <Position>
              <LatitudeDegrees>36.81940608657896518707275390625</LatitudeDegrees>
              <LongitudeDegrees>-4.38083195127546787261962890625</LongitudeDegrees>
            </Position>
            <AltitudeMeters>879.79998779296875</AltitudeMeters>
            <DistanceMeters>NAN</DistanceMeters>
          </Trackpoint>
          <Trackpoint>
            <Time>2022-06-16T09:15:10.000Z</Time>
            <Position>
              <LatitudeDegrees>36.8194943480193614959716796875</LatitudeDegrees>
              <LongitudeDegrees>-4.38093773089349269866943359375</LongitudeDegrees>
            </Position>
            <AltitudeMeters>880.20001220703125</AltitudeMeters>
            <DistanceMeters>NAN</DistanceMeters>
          </Trackpoint>
          <Trackpoint>
            <Time>2022-06-16T09:15:20.000Z</Time>
            <Position>
              <LatitudeDegrees>36.8195811845362186431884765625</LatitudeDegrees>
              <LongitudeDegrees>-4.3810492940247058868408203125</LongitudeDegrees>
            </Position>
            <AltitudeMeters>879.79998779296875</AltitudeMeters>
            <DistanceMeters>NAN</DistanceMeters>
          </Trackpoint>
          <Trackpoint>
            <Time>2022-06-16T09:15:30.000Z</Time>
            <Position>
              <LatitudeDegrees>36.8196849524974822998046875</LatitudeDegrees>
              <LongitudeDegrees>-4.38117586076259613037109375</LongitudeDegrees>
            </Position>
            <AltitudeMeters>878.5999755859375</AltitudeMeters>
            <DistanceMeters>NAN</DistanceMeters>
          </Trackpoint>
          <Trackpoint>
            <Time>2022-06-16T09:15:40.000Z</Time>
            <Position>
              <LatitudeDegrees>36.8197779916226863861083984375</LatitudeDegrees>
              <LongitudeDegrees>-4.381299912929534912109375</LongitudeDegrees>
            </Position>
            <AltitudeMeters>877.5999755859375</AltitudeMeters>
            <DistanceMeters>NAN</DistanceMeters>
          </Trackpoint>
          <Trackpoint>
            <Time>2022-06-16T09:15:50.000Z</Time>
            <Position>
              <LatitudeDegrees>36.819823421537876129150390625</LatitudeDegrees>
              <LongitudeDegrees>-4.38144265674054622650146484375</LongitudeDegrees>
            </Position>
            <AltitudeMeters>876</AltitudeMeters>
            <DistanceMeters>NAN</DistanceMeters>
          </Trackpoint>
          <Trackpoint>
            <Time>2022-06-16T09:15:54.000Z</Time>
            <Position>
              <LatitudeDegrees>36.819843538105487823486328125</LatitudeDegrees>
              <LongitudeDegrees>-4.3815116398036479949951171875</LongitudeDegrees>
            </Position>
            <AltitudeMeters>875.20001220703125</AltitudeMeters>
            <DistanceMeters>NAN</DistanceMeters>
          </Trackpoint>
          <Trackpoint>
            <Time>2022-06-16T09:16:00.000Z</Time>
            <Position>
              <LatitudeDegrees>36.81986331939697265625</LatitudeDegrees>
              <LongitudeDegrees>-4.38156318850815296173095703125</LongitudeDegrees>
            </Position>
            <AltitudeMeters>874.79998779296875</AltitudeMeters>
            <DistanceMeters>NAN</DistanceMeters>
          </Trackpoint>
          <Trackpoint>
            <Time>2022-06-16T09:16:10.000Z</Time>
            <Position>
              <LatitudeDegrees>36.81991721503436565399169921875</LatitudeDegrees>
              <LongitudeDegrees>-4.38172747381031513214111328125</LongitudeDegrees>
            </Position>
            <AltitudeMeters>873.20001220703125</AltitudeMeters>
            <DistanceMeters>NAN</DistanceMeters>
          </Trackpoint>
          <Trackpoint>
            <Time>2022-06-16T09:16:18.000Z</Time>
            <Position>
              <LatitudeDegrees>36.8199553526937961578369140625</LatitudeDegrees>
              <LongitudeDegrees>-4.38183526508510112762451171875</LongitudeDegrees>
            </Position>
            <AltitudeMeters>872.4000244140625</AltitudeMeters>
            <DistanceMeters>NAN</DistanceMeters>
          </Trackpoint>
          <Trackpoint>
            <Time>2022-06-16T09:16:20.000Z</Time>
            <Position>
              <LatitudeDegrees>36.81996549479663372039794921875</LatitudeDegrees>
              <LongitudeDegrees>-4.38188128173351287841796875</LongitudeDegrees>
            </Position>
            <AltitudeMeters>872.20001220703125</AltitudeMeters>
            <DistanceMeters>NAN</DistanceMeters>
          </Trackpoint>
          <Trackpoint>
            <Time>2022-06-16T09:16:30.000Z</Time>
            <Position>
              <LatitudeDegrees>36.82000807486474514007568359375</LatitudeDegrees>
              <LongitudeDegrees>-4.3820437230169773101806640625</LongitudeDegrees>
            </Position>
            <AltitudeMeters>871.20001220703125</AltitudeMeters>
            <DistanceMeters>NAN</DistanceMeters>
          </Trackpoint>
          <Trackpoint>
            <Time>2022-06-16T09:16:40.000Z</Time>
            <Position>
              <LatitudeDegrees>36.82002433575689792633056640625</LatitudeDegrees>
              <LongitudeDegrees>-4.3821664340794086456298828125</LongitudeDegrees>
            </Position>
            <AltitudeMeters>870.79998779296875</AltitudeMeters>
            <DistanceMeters>NAN</DistanceMeters>
          </Trackpoint>
          <Trackpoint>
            <Time>2022-06-16T09:16:50.000Z</Time>
            <Position>
              <LatitudeDegrees>36.82003120891749858856201171875</LatitudeDegrees>
              <LongitudeDegrees>-4.3823038972914218902587890625</LongitudeDegrees>
            </Position>
            <AltitudeMeters>870.4000244140625</AltitudeMeters>
            <DistanceMeters>NAN</DistanceMeters>
          </Trackpoint>
          <Trackpoint>
            <Time>2022-06-16T09:17:00.000Z</Time>
            <Position>
              <LatitudeDegrees>36.82000078260898590087890625</LatitudeDegrees>
              <LongitudeDegrees>-4.38249995000660419464111328125</LongitudeDegrees>
            </Position>
            <AltitudeMeters>868.5999755859375</AltitudeMeters>
            <DistanceMeters>NAN</DistanceMeters>
          </Trackpoint>
          <Trackpoint>
            <Time>2022-06-16T09:17:10.000Z</Time>
            <Position>
              <LatitudeDegrees>36.81998334825038909912109375</LatitudeDegrees>
              <LongitudeDegrees>-4.38264294527471065521240234375</LongitudeDegrees>
            </Position>
            <AltitudeMeters>867.79998779296875</AltitudeMeters>
            <DistanceMeters>NAN</DistanceMeters>
          </Trackpoint>
          <Trackpoint>
            <Time>2022-06-16T09:17:20.000Z</Time>
            <Position>
              <LatitudeDegrees>36.81995878927409648895263671875</LatitudeDegrees>
              <LongitudeDegrees>-4.38279784284532070159912109375</LongitudeDegrees>
            </Position>
            <AltitudeMeters>866.20001220703125</AltitudeMeters>
            <DistanceMeters>NAN</DistanceMeters>
          </Trackpoint>
          <Trackpoint>
            <Time>2022-06-16T09:17:30.000Z</Time>
            <Position>
              <LatitudeDegrees>36.819930374622344970703125</LatitudeDegrees>
              <LongitudeDegrees>-4.382939077913761138916015625</LongitudeDegrees>
            </Position>
            <AltitudeMeters>863.5999755859375</AltitudeMeters>
            <DistanceMeters>NAN</DistanceMeters>
          </Trackpoint>
          <Trackpoint>
            <Time>2022-06-16T09:17:40.000Z</Time>
            <Position>
              <LatitudeDegrees>36.81990128941833972930908203125</LatitudeDegrees>
              <LongitudeDegrees>-4.38308869488537311553955078125</LongitudeDegrees>
            </Position>
            <AltitudeMeters>861.5999755859375</AltitudeMeters>
            <DistanceMeters>NAN</DistanceMeters>
          </Trackpoint>
          <Trackpoint>
            <Time>2022-06-16T09:17:50.000Z</Time>
            <Position>
              <LatitudeDegrees>36.8198738805949687957763671875</LatitudeDegrees>
              <LongitudeDegrees>-4.3832513876259326934814453125</LongitudeDegrees>
            </Position>
            <AltitudeMeters>860.4000244140625</AltitudeMeters>
            <DistanceMeters>NAN</DistanceMeters>
          </Trackpoint>
          <Trackpoint>
            <Time>2022-06-16T09:18:00.000Z</Time>
            <Position>
              <LatitudeDegrees>36.81983171962201595306396484375</LatitudeDegrees>
              <LongitudeDegrees>-4.38339396379888057708740234375</LongitudeDegrees>
            </Position>
            <AltitudeMeters>858.5999755859375</AltitudeMeters>
            <DistanceMeters>NAN</DistanceMeters>
          </Trackpoint>
          <Trackpoint>
            <Time>2022-06-16T09:18:10.000Z</Time>
            <Position>
              <LatitudeDegrees>36.81981327943503856658935546875</LatitudeDegrees>
              <LongitudeDegrees>-4.3835434131324291229248046875</LongitudeDegrees>
            </Position>
            <AltitudeMeters>858</AltitudeMeters>
            <DistanceMeters>NAN</DistanceMeters>
          </Trackpoint>
          <Trackpoint>
            <Time>2022-06-16T09:18:20.000Z</Time>
            <Position>
              <LatitudeDegrees>36.81984521448612213134765625</LatitudeDegrees>
              <LongitudeDegrees>-4.3837180919945240020751953125</LongitudeDegrees>
            </Position>
            <AltitudeMeters>858.20001220703125</AltitudeMeters>
            <DistanceMeters>NAN</DistanceMeters>
          </Trackpoint>
          <Trackpoint>
            <Time>2022-06-16T09:18:30.000Z</Time>
            <Position>
              <LatitudeDegrees>36.8198752216994762420654296875</LatitudeDegrees>
              <LongitudeDegrees>-4.3838817067444324493408203125</LongitudeDegrees>
            </Position>
            <AltitudeMeters>857.5999755859375</AltitudeMeters>
            <DistanceMeters>NAN</DistanceMeters>
          </Trackpoint>
          <Trackpoint>
            <Time>2022-06-16T09:18:40.000Z</Time>
            <Position>
              <LatitudeDegrees>36.8198946677148342132568359375</LatitudeDegrees>
              <LongitudeDegrees>-4.3840252049267292022705078125</LongitudeDegrees>
            </Position>
            <AltitudeMeters>857.20001220703125</AltitudeMeters>
            <DistanceMeters>NAN</DistanceMeters>
          </Trackpoint>
          <Trackpoint>
            <Time>2022-06-16T09:18:48.000Z</Time>
            <Position>
              <LatitudeDegrees>36.81989860720932483673095703125</LatitudeDegrees>
              <LongitudeDegrees>-4.38411346636712551116943359375</LongitudeDegrees>
            </Position>
            <AltitudeMeters>856.4000244140625</AltitudeMeters>
            <DistanceMeters>NAN</DistanceMeters>
          </Trackpoint>
          <Trackpoint>
            <Time>2022-06-16T09:18:50.000Z</Time>
            <Position>
              <LatitudeDegrees>36.819903887808322906494140625</LatitudeDegrees>
              <LongitudeDegrees>-4.38414908945560455322265625</LongitudeDegrees>
            </Position>
            <AltitudeMeters>855.79998779296875</AltitudeMeters>
            <DistanceMeters>NAN</DistanceMeters>
          </Trackpoint>
          <Trackpoint>
            <Time>2022-06-16T09:19:00.000Z</Time>
            <Position>
              <LatitudeDegrees>36.8199305422604084014892578125</LatitudeDegrees>
              <LongitudeDegrees>-4.3842860497534275054931640625</LongitudeDegrees>
            </Position>
            <AltitudeMeters>855</AltitudeMeters>
            <DistanceMeters>NAN</DistanceMeters>
          </Trackpoint>
          <Trackpoint>
            <Time>2022-06-16T09:19:02.000Z</Time>
            <Position>
              <LatitudeDegrees>36.8199298717081546783447265625</LatitudeDegrees>
              <LongitudeDegrees>-4.384318403899669647216796875</LongitudeDegrees>
            </Position>
            <AltitudeMeters>854.79998779296875</AltitudeMeters>
            <DistanceMeters>NAN</DistanceMeters>
          </Trackpoint>
          <Trackpoint>
            <Time>2022-06-16T09:19:10.000Z</Time>
            <Position>
              <LatitudeDegrees>36.81992433965206146240234375</LatitudeDegrees>
              <LongitudeDegrees>-4.384436421096324920654296875</LongitudeDegrees>
            </Position>
            <AltitudeMeters>854.79998779296875</AltitudeMeters>
            <DistanceMeters>NAN</DistanceMeters>
          </Trackpoint>
          <Trackpoint>
            <Time>2022-06-16T09:19:17.000Z</Time>
            <Position>
              <LatitudeDegrees>36.819919645786285400390625</LatitudeDegrees>
              <LongitudeDegrees>-4.38452837057411670684814453125</LongitudeDegrees>
            </Position>
            <AltitudeMeters>854.4000244140625</AltitudeMeters>
            <DistanceMeters>NAN</DistanceMeters>
          </Trackpoint>
          <Trackpoint>
            <Time>2022-06-16T09:19:20.000Z</Time>
            <Position>
              <LatitudeDegrees>36.8199137784540653228759765625</LatitudeDegrees>
              <LongitudeDegrees>-4.38457681797444820404052734375</LongitudeDegrees>
            </Position>
            <AltitudeMeters>854.20001220703125</AltitudeMeters>
            <DistanceMeters>NAN</DistanceMeters>
          </Trackpoint>
          <Trackpoint>
            <Time>2022-06-16T09:19:21.000Z</Time>
            <Position>
              <LatitudeDegrees>36.8199102580547332763671875</LatitudeDegrees>
              <LongitudeDegrees>-4.38459165394306182861328125</LongitudeDegrees>
            </Position>
            <AltitudeMeters>854</AltitudeMeters>
            <DistanceMeters>NAN</DistanceMeters>
          </Trackpoint>
          <Trackpoint>
            <Time>2022-06-16T09:19:23.000Z</Time>
            <Position>
              <LatitudeDegrees>36.819897852838039398193359375</LatitudeDegrees>
              <LongitudeDegrees>-4.3846325576305389404296875</LongitudeDegrees>
            </Position>
            <AltitudeMeters>853.79998779296875</AltitudeMeters>
            <DistanceMeters>NAN</DistanceMeters>
          </Trackpoint>
          <Trackpoint>
            <Time>2022-06-16T09:19:24.000Z</Time>
            <Position>
              <LatitudeDegrees>36.819891817867755889892578125</LatitudeDegrees>
              <LongitudeDegrees>-4.38465191982686519622802734375</LongitudeDegrees>
            </Position>
            <AltitudeMeters>853.79998779296875</AltitudeMeters>
            <DistanceMeters>NAN</DistanceMeters>
          </Trackpoint>
          <Trackpoint>
            <Time>2022-06-16T09:19:25.000Z</Time>
            <Position>
              <LatitudeDegrees>36.819891817867755889892578125</LatitudeDegrees>
              <LongitudeDegrees>-4.38465191982686519622802734375</LongitudeDegrees>
            </Position>
            <AltitudeMeters>853.79998779296875</AltitudeMeters>
            <DistanceMeters>NAN</DistanceMeters>
          </Trackpoint>
          <Trackpoint>
            <Time>2022-06-16T09:19:26.000Z</Time>
            <Position>
              <LatitudeDegrees>36.81988737545907497406005859375</LatitudeDegrees>
              <LongitudeDegrees>-4.38466717489063739776611328125</LongitudeDegrees>
            </Position>
            <AltitudeMeters>853.5999755859375</AltitudeMeters>
            <DistanceMeters>NAN</DistanceMeters>
          </Trackpoint>
          <Trackpoint>
            <Time>2022-06-16T09:19:30.000Z</Time>
            <Position>
              <LatitudeDegrees>36.819858290255069732666015625</LatitudeDegrees>
              <LongitudeDegrees>-4.38473490066826343536376953125</LongitudeDegrees>
            </Position>
            <AltitudeMeters>852.79998779296875</AltitudeMeters>
            <DistanceMeters>NAN</DistanceMeters>
          </Trackpoint>
          <Trackpoint>
            <Time>2022-06-16T09:19:40.000Z</Time>
            <Position>
              <LatitudeDegrees>36.81988008320331573486328125</LatitudeDegrees>
              <LongitudeDegrees>-4.38487823121249675750732421875</LongitudeDegrees>
            </Position>
            <AltitudeMeters>851.4000244140625</AltitudeMeters>
            <DistanceMeters>NAN</DistanceMeters>
          </Trackpoint>
          <Trackpoint>
            <Time>2022-06-16T09:19:41.000Z</Time>
            <Position>
              <LatitudeDegrees>36.8199057318270206451416015625</LatitudeDegrees>
              <LongitudeDegrees>-4.38488862477242946624755859375</LongitudeDegrees>
            </Position>
            <AltitudeMeters>851.4000244140625</AltitudeMeters>
            <DistanceMeters>NAN</DistanceMeters>
          </Trackpoint>
          <Trackpoint>
            <Time>2022-06-16T09:19:46.000Z</Time>
            <Position>
              <LatitudeDegrees>36.81996180675923824310302734375</LatitudeDegrees>
              <LongitudeDegrees>-4.38486364670097827911376953125</LongitudeDegrees>
            </Position>
            <AltitudeMeters>852</AltitudeMeters>
            <DistanceMeters>NAN</DistanceMeters>
          </Trackpoint>
          <Trackpoint>
            <Time>2022-06-16T09:19:49.000Z</Time>
            <Position>
              <LatitudeDegrees>36.819981671869754791259765625</LatitudeDegrees>
              <LongitudeDegrees>-4.3848177976906299591064453125</LongitudeDegrees>
            </Position>
            <AltitudeMeters>852.79998779296875</AltitudeMeters>
            <DistanceMeters>NAN</DistanceMeters>
          </Trackpoint>
          <Trackpoint>
            <Time>2022-06-16T09:19:50.000Z</Time>
            <Position>
              <LatitudeDegrees>36.819984018802642822265625</LatitudeDegrees>
              <LongitudeDegrees>-4.38480296172201633453369140625</LongitudeDegrees>
            </Position>
            <AltitudeMeters>853</AltitudeMeters>
            <DistanceMeters>NAN</DistanceMeters>
          </Trackpoint>
          <Trackpoint>
            <Time>2022-06-16T09:19:51.000Z</Time>
            <Position>
              <LatitudeDegrees>36.8199880421161651611328125</LatitudeDegrees>
              <LongitudeDegrees>-4.3847881257534027099609375</LongitudeDegrees>
            </Position>
            <AltitudeMeters>853.20001220703125</AltitudeMeters>
            <DistanceMeters>NAN</DistanceMeters>
          </Trackpoint>
          <Trackpoint>
            <Time>2022-06-16T09:20:00.000Z</Time>
            <Position>
              <LatitudeDegrees>36.8200361542403697967529296875</LatitudeDegrees>
              <LongitudeDegrees>-4.3846437893807888031005859375</LongitudeDegrees>
            </Position>
            <AltitudeMeters>854.79998779296875</AltitudeMeters>
            <DistanceMeters>NAN</DistanceMeters>
          </Trackpoint>
          <Trackpoint>
            <Time>2022-06-16T09:20:10.000Z</Time>
            <Position>
              <LatitudeDegrees>36.82008485309779644012451171875</LatitudeDegrees>
              <LongitudeDegrees>-4.38449643552303314208984375</LongitudeDegrees>
            </Position>
            <AltitudeMeters>855.5999755859375</AltitudeMeters>
            <DistanceMeters>NAN</DistanceMeters>
          </Trackpoint>
          <Trackpoint>
            <Time>2022-06-16T09:20:12.000Z</Time>
            <Position>
              <LatitudeDegrees>36.82010463438928127288818359375</LatitudeDegrees>
              <LongitudeDegrees>-4.38446433283388614654541015625</LongitudeDegrees>
            </Position>
            <AltitudeMeters>855.5999755859375</AltitudeMeters>
            <DistanceMeters>NAN</DistanceMeters>
          </Trackpoint>
          <Trackpoint>
            <Time>2022-06-16T09:20:13.000Z</Time>
            <Position>
              <LatitudeDegrees>36.820112429559230804443359375</LatitudeDegrees>
              <LongitudeDegrees>-4.3844530172646045684814453125</LongitudeDegrees>
            </Position>
            <AltitudeMeters>855.4000244140625</AltitudeMeters>
            <DistanceMeters>NAN</DistanceMeters>
          </Trackpoint>
          <Trackpoint>
            <Time>2022-06-16T09:20:19.000Z</Time>
            <Position>
              <LatitudeDegrees>36.820163391530513763427734375</LatitudeDegrees>
              <LongitudeDegrees>-4.38439040444791316986083984375</LongitudeDegrees>
            </Position>
            <AltitudeMeters>854.79998779296875</AltitudeMeters>
            <DistanceMeters>NAN</DistanceMeters>
          </Trackpoint>
          <Trackpoint>
            <Time>2022-06-16T09:20:20.000Z</Time>
            <Position>
              <LatitudeDegrees>36.82017621584236621856689453125</LatitudeDegrees>
              <LongitudeDegrees>-4.38438436947762966156005859375</LongitudeDegrees>
            </Position>
            <AltitudeMeters>854.79998779296875</AltitudeMeters>
            <DistanceMeters>NAN</DistanceMeters>
          </Trackpoint>
          <Trackpoint>
            <Time>2022-06-16T09:20:22.000Z</Time>
            <Position>
              <LatitudeDegrees>36.8202024511992931365966796875</LatitudeDegrees>
              <LongitudeDegrees>-4.384379424154758453369140625</LongitudeDegrees>
            </Position>
            <AltitudeMeters>854.4000244140625</AltitudeMeters>
            <DistanceMeters>NAN</DistanceMeters>
          </Trackpoint>
          <Trackpoint>
            <Time>2022-06-16T09:20:30.000Z</Time>
            <Position>
              <LatitudeDegrees>36.82026221416890621185302734375</LatitudeDegrees>
              <LongitudeDegrees>-4.384366683661937713623046875</LongitudeDegrees>
            </Position>
            <AltitudeMeters>853.4000244140625</AltitudeMeters>
            <DistanceMeters>NAN</DistanceMeters>
          </Trackpoint>
          <Trackpoint>
            <Time>2022-06-16T09:20:40.000Z</Time>
            <Position>
              <LatitudeDegrees>36.82023421861231327056884765625</LatitudeDegrees>
              <LongitudeDegrees>-4.3843792565166950225830078125</LongitudeDegrees>
            </Position>
            <AltitudeMeters>853.79998779296875</AltitudeMeters>
            <DistanceMeters>NAN</DistanceMeters>
          </Trackpoint>
          <Trackpoint>
            <Time>2022-06-16T09:20:41.000Z</Time>
            <Position>
              <LatitudeDegrees>36.8202279321849346160888671875</LatitudeDegrees>
              <LongitudeDegrees>-4.3843748979270458221435546875</LongitudeDegrees>
            </Position>
            <AltitudeMeters>854</AltitudeMeters>
            <DistanceMeters>NAN</DistanceMeters>
          </Trackpoint>
          <Trackpoint>
            <Time>2022-06-16T09:20:48.000Z</Time>
            <Position>
              <LatitudeDegrees>36.82019683532416820526123046875</LatitudeDegrees>
              <LongitudeDegrees>-4.38430608250200748443603515625</LongitudeDegrees>
            </Position>
            <AltitudeMeters>855.20001220703125</AltitudeMeters>
            <DistanceMeters>NAN</DistanceMeters>
          </Trackpoint>
          <Trackpoint>
            <Time>2022-06-16T09:20:50.000Z</Time>
            <Position>
              <LatitudeDegrees>36.8201840110123157501220703125</LatitudeDegrees>
              <LongitudeDegrees>-4.3842867203056812286376953125</LongitudeDegrees>
            </Position>
            <AltitudeMeters>855.4000244140625</AltitudeMeters>
            <DistanceMeters>NAN</DistanceMeters>
          </Trackpoint>
          <Trackpoint>
            <Time>2022-06-16T09:21:00.000Z</Time>
            <Position>
              <LatitudeDegrees>36.82021091692149639129638671875</LatitudeDegrees>
              <LongitudeDegrees>-4.38422025181353092193603515625</LongitudeDegrees>
            </Position>
            <AltitudeMeters>855.20001220703125</AltitudeMeters>
            <DistanceMeters>NAN</DistanceMeters>
          </Trackpoint>
          <Trackpoint>
            <Time>2022-06-16T09:21:09.000Z</Time>
            <Position>
              <LatitudeDegrees>36.8202617950737476348876953125</LatitudeDegrees>
              <LongitudeDegrees>-4.38410793431103229522705078125</LongitudeDegrees>
            </Position>
            <AltitudeMeters>855</AltitudeMeters>
            <DistanceMeters>NAN</DistanceMeters>
          </Trackpoint>
          <Trackpoint>
            <Time>2022-06-16T09:21:10.000Z</Time>
            <Position>
              <LatitudeDegrees>36.820269338786602020263671875</LatitudeDegrees>
              <LongitudeDegrees>-4.384097121655941009521484375</LongitudeDegrees>
            </Position>
            <AltitudeMeters>855</AltitudeMeters>
            <DistanceMeters>NAN</DistanceMeters>
          </Trackpoint>
          <Trackpoint>
            <Time>2022-06-16T09:21:20.000Z</Time>
            <Position>
              <LatitudeDegrees>36.82036832906305789947509765625</LatitudeDegrees>
              <LongitudeDegrees>-4.38402864150702953338623046875</LongitudeDegrees>
            </Position>
            <AltitudeMeters>854.79998779296875</AltitudeMeters>
            <DistanceMeters>NAN</DistanceMeters>
          </Trackpoint>
          <Trackpoint>
            <Time>2022-06-16T09:21:25.000Z</Time>
            <Position>
              <LatitudeDegrees>36.82042323052883148193359375</LatitudeDegrees>
              <LongitudeDegrees>-4.38396996818482875823974609375</LongitudeDegrees>
            </Position>
            <AltitudeMeters>853.5999755859375</AltitudeMeters>
            <DistanceMeters>NAN</DistanceMeters>
          </Trackpoint>
          <Trackpoint>
            <Time>2022-06-16T09:21:27.000Z</Time>
            <Position>
              <LatitudeDegrees>36.8204522319138050079345703125</LatitudeDegrees>
              <LongitudeDegrees>-4.3839534558355808258056640625</LongitudeDegrees>
            </Position>
            <AltitudeMeters>852.79998779296875</AltitudeMeters>
            <DistanceMeters>NAN</DistanceMeters>
          </Trackpoint>
          <Trackpoint>
            <Time>2022-06-16T09:21:30.000Z</Time>
            <Position>
              <LatitudeDegrees>36.82049573399126529693603515625</LatitudeDegrees>
              <LongitudeDegrees>-4.3839259631931781768798828125</LongitudeDegrees>
            </Position>
            <AltitudeMeters>851.79998779296875</AltitudeMeters>
            <DistanceMeters>NAN</DistanceMeters>
          </Trackpoint>
          <Trackpoint>
            <Time>2022-06-16T09:21:31.000Z</Time>
            <Position>
              <LatitudeDegrees>36.82051132433116436004638671875</LatitudeDegrees>
              <LongitudeDegrees>-4.38391749747097492218017578125</LongitudeDegrees>
            </Position>
            <AltitudeMeters>851.4000244140625</AltitudeMeters>
            <DistanceMeters>NAN</DistanceMeters>
          </Trackpoint>
          <Trackpoint>
            <Time>2022-06-16T09:21:40.000Z</Time>
            <Position>
              <LatitudeDegrees>36.82061425410211086273193359375</LatitudeDegrees>
              <LongitudeDegrees>-4.3838196806609630584716796875</LongitudeDegrees>
            </Position>
            <AltitudeMeters>849.5999755859375</AltitudeMeters>
            <DistanceMeters>NAN</DistanceMeters>
          </Trackpoint>
          <Trackpoint>
            <Time>2022-06-16T09:21:50.000Z</Time>
            <Position>
              <LatitudeDegrees>36.8207160942256450653076171875</LatitudeDegrees>
              <LongitudeDegrees>-4.38371834345161914825439453125</LongitudeDegrees>
            </Position>
            <AltitudeMeters>847.5999755859375</AltitudeMeters>
            <DistanceMeters>NAN</DistanceMeters>
          </Trackpoint>
          <Trackpoint>
            <Time>2022-06-16T09:22:00.000Z</Time>
            <Position>
              <LatitudeDegrees>36.82079228572547435760498046875</LatitudeDegrees>
              <LongitudeDegrees>-4.38362379558384418487548828125</LongitudeDegrees>
            </Position>
            <AltitudeMeters>846.20001220703125</AltitudeMeters>
            <DistanceMeters>NAN</DistanceMeters>
          </Trackpoint>
          <Trackpoint>
            <Time>2022-06-16T09:22:03.000Z</Time>
            <Position>
              <LatitudeDegrees>36.8208096362650394439697265625</LatitudeDegrees>
              <LongitudeDegrees>-4.383576773107051849365234375</LongitudeDegrees>
            </Position>
            <AltitudeMeters>846.4000244140625</AltitudeMeters>
            <DistanceMeters>NAN</DistanceMeters>
          </Trackpoint>
          <Trackpoint>
            <Time>2022-06-16T09:22:10.000Z</Time>
            <Position>
              <LatitudeDegrees>36.82085816748440265655517578125</LatitudeDegrees>
              <LongitudeDegrees>-4.3835092149674892425537109375</LongitudeDegrees>
            </Position>
            <AltitudeMeters>845.5999755859375</AltitudeMeters>
            <DistanceMeters>NAN</DistanceMeters>
          </Trackpoint>
          <Trackpoint>
            <Time>2022-06-16T09:22:20.000Z</Time>
            <Position>
              <LatitudeDegrees>36.8209202773869037628173828125</LatitudeDegrees>
              <LongitudeDegrees>-4.38337066210806369781494140625</LongitudeDegrees>
            </Position>
            <AltitudeMeters>845.5999755859375</AltitudeMeters>
            <DistanceMeters>NAN</DistanceMeters>
          </Trackpoint>
          <Trackpoint>
            <Time>2022-06-16T09:22:23.000Z</Time>
            <Position>
              <LatitudeDegrees>36.82093561626970767974853515625</LatitudeDegrees>
              <LongitudeDegrees>-4.3833311833441257476806640625</LongitudeDegrees>
            </Position>
            <AltitudeMeters>845.5999755859375</AltitudeMeters>
            <DistanceMeters>NAN</DistanceMeters>
          </Trackpoint>
          <Trackpoint>
            <Time>2022-06-16T09:22:30.000Z</Time>
            <Position>
              <LatitudeDegrees>36.82098858989775180816650390625</LatitudeDegrees>
              <LongitudeDegrees>-4.383214674890041351318359375</LongitudeDegrees>
            </Position>
            <AltitudeMeters>845.79998779296875</AltitudeMeters>
            <DistanceMeters>NAN</DistanceMeters>
          </Trackpoint>
          <Trackpoint>
            <Time>2022-06-16T09:22:40.000Z</Time>
            <Position>
              <LatitudeDegrees>36.82108330540359020233154296875</LatitudeDegrees>
              <LongitudeDegrees>-4.383115433156490325927734375</LongitudeDegrees>
            </Position>
            <AltitudeMeters>843.5999755859375</AltitudeMeters>
            <DistanceMeters>NAN</DistanceMeters>
          </Trackpoint>
          <Trackpoint>
            <Time>2022-06-16T09:22:49.000Z</Time>
            <Position>
              <LatitudeDegrees>36.82114742696285247802734375</LatitudeDegrees>
              <LongitudeDegrees>-4.38306723721325397491455078125</LongitudeDegrees>
            </Position>
            <AltitudeMeters>841.5999755859375</AltitudeMeters>
            <DistanceMeters>NAN</DistanceMeters>
          </Trackpoint>
          <Trackpoint>
            <Time>2022-06-16T09:22:50.000Z</Time>
            <Position>
              <LatitudeDegrees>36.82115958072245121002197265625</LatitudeDegrees>
              <LongitudeDegrees>-4.3830653093755245208740234375</LongitudeDegrees>
            </Position>
            <AltitudeMeters>841</AltitudeMeters>
            <DistanceMeters>NAN</DistanceMeters>
          </Trackpoint>
          <Trackpoint>
            <Time>2022-06-16T09:23:00.000Z</Time>
            <Position>
              <LatitudeDegrees>36.82127793319523334503173828125</LatitudeDegrees>
              <LongitudeDegrees>-4.38306304626166820526123046875</LongitudeDegrees>
            </Position>
            <AltitudeMeters>836.4000244140625</AltitudeMeters>
            <DistanceMeters>NAN</DistanceMeters>
          </Trackpoint>
          <Trackpoint>
            <Time>2022-06-16T09:23:10.000Z</Time>
            <Position>
              <LatitudeDegrees>36.821394860744476318359375</LatitudeDegrees>
              <LongitudeDegrees>-4.38308232463896274566650390625</LongitudeDegrees>
            </Position>
            <AltitudeMeters>832.20001220703125</AltitudeMeters>
            <DistanceMeters>NAN</DistanceMeters>
          </Trackpoint>
          <Trackpoint>
            <Time>2022-06-16T09:23:14.000Z</Time>
            <Position>
              <LatitudeDegrees>36.82144087739288806915283203125</LatitudeDegrees>
              <LongitudeDegrees>-4.3830750323832035064697265625</LongitudeDegrees>
            </Position>
            <AltitudeMeters>831</AltitudeMeters>
            <DistanceMeters>NAN</DistanceMeters>
          </Trackpoint>
          <Trackpoint>
            <Time>2022-06-16T09:23:20.000Z</Time>
            <Position>
              <LatitudeDegrees>36.82152159512042999267578125</LatitudeDegrees>
              <LongitudeDegrees>-4.38308559358119964599609375</LongitudeDegrees>
            </Position>
            <AltitudeMeters>829.20001220703125</AltitudeMeters>
            <DistanceMeters>NAN</DistanceMeters>
          </Trackpoint>
          <Trackpoint>
            <Time>2022-06-16T09:23:27.000Z</Time>
            <Position>
              <LatitudeDegrees>36.8215938471257686614990234375</LatitudeDegrees>
              <LongitudeDegrees>-4.38309204764664173126220703125</LongitudeDegrees>
            </Position>
            <AltitudeMeters>828.5999755859375</AltitudeMeters>
            <DistanceMeters>NAN</DistanceMeters>
          </Trackpoint>
          <Trackpoint>
            <Time>2022-06-16T09:23:30.000Z</Time>
            <Position>
              <LatitudeDegrees>36.82163751684129238128662109375</LatitudeDegrees>
              <LongitudeDegrees>-4.38310713507235050201416015625</LongitudeDegrees>
            </Position>
            <AltitudeMeters>827.79998779296875</AltitudeMeters>
            <DistanceMeters>NAN</DistanceMeters>
          </Trackpoint>
          <Trackpoint>
            <Time>2022-06-16T09:23:40.000Z</Time>
            <Position>
              <LatitudeDegrees>36.8217470683157444000244140625</LatitudeDegrees>
              <LongitudeDegrees>-4.38314326107501983642578125</LongitudeDegrees>
            </Position>
            <AltitudeMeters>824.5999755859375</AltitudeMeters>
            <DistanceMeters>NAN</DistanceMeters>
          </Trackpoint>
          <Trackpoint>
            <Time>2022-06-16T09:23:50.000Z</Time>
            <Position>
              <LatitudeDegrees>36.8219009600579738616943359375</LatitudeDegrees>
              <LongitudeDegrees>-4.38317687250673770904541015625</LongitudeDegrees>
            </Position>
            <AltitudeMeters>819.4000244140625</AltitudeMeters>
            <DistanceMeters>NAN</DistanceMeters>
          </Trackpoint>
          <Trackpoint>
            <Time>2022-06-16T09:24:00.000Z</Time>
            <Position>
              <LatitudeDegrees>36.82202358730137348175048828125</LatitudeDegrees>
              <LongitudeDegrees>-4.38326127827167510986328125</LongitudeDegrees>
            </Position>
            <AltitudeMeters>814.5999755859375</AltitudeMeters>
            <DistanceMeters>NAN</DistanceMeters>
          </Trackpoint>
          <Trackpoint>
            <Time>2022-06-16T09:24:10.000Z</Time>
            <Position>
              <LatitudeDegrees>36.8221145309507846832275390625</LatitudeDegrees>
              <LongitudeDegrees>-4.383339397609233856201171875</LongitudeDegrees>
            </Position>
            <AltitudeMeters>811.4000244140625</AltitudeMeters>
            <DistanceMeters>NAN</DistanceMeters>
          </Trackpoint>
          <Trackpoint>
            <Time>2022-06-16T09:24:20.000Z</Time>
            <Position>
              <LatitudeDegrees>36.822191812098026275634765625</LatitudeDegrees>
              <LongitudeDegrees>-4.38341550529003143310546875</LongitudeDegrees>
            </Position>
            <AltitudeMeters>808.20001220703125</AltitudeMeters>
            <DistanceMeters>NAN</DistanceMeters>
          </Trackpoint>
          <Trackpoint>
            <Time>2022-06-16T09:24:30.000Z</Time>
            <Position>
              <LatitudeDegrees>36.82231695391237735748291015625</LatitudeDegrees>
              <LongitudeDegrees>-4.383469484746456146240234375</LongitudeDegrees>
            </Position>
            <AltitudeMeters>807.4000244140625</AltitudeMeters>
            <DistanceMeters>NAN</DistanceMeters>
          </Trackpoint>
          <Trackpoint>
            <Time>2022-06-16T09:24:40.000Z</Time>
            <Position>
              <LatitudeDegrees>36.822447292506694793701171875</LatitudeDegrees>
              <LongitudeDegrees>-4.38350577838718891143798828125</LongitudeDegrees>
            </Position>
            <AltitudeMeters>807.5999755859375</AltitudeMeters>
            <DistanceMeters>NAN</DistanceMeters>
          </Trackpoint>
          <Trackpoint>
            <Time>2022-06-16T09:24:50.000Z</Time>
            <Position>
              <LatitudeDegrees>36.822559274733066558837890625</LatitudeDegrees>
              <LongitudeDegrees>-4.383535198867321014404296875</LongitudeDegrees>
            </Position>
            <AltitudeMeters>808.79998779296875</AltitudeMeters>
            <DistanceMeters>NAN</DistanceMeters>
          </Trackpoint>
          <Trackpoint>
            <Time>2022-06-16T09:24:57.000Z</Time>
            <Position>
              <LatitudeDegrees>36.8226425908505916595458984375</LatitudeDegrees>
              <LongitudeDegrees>-4.38353897072374820709228515625</LongitudeDegrees>
            </Position>
            <AltitudeMeters>809</AltitudeMeters>
            <DistanceMeters>NAN</DistanceMeters>
          </Trackpoint>
          <Trackpoint>
            <Time>2022-06-16T09:25:00.000Z</Time>
            <Position>
              <LatitudeDegrees>36.82270042598247528076171875</LatitudeDegrees>
              <LongitudeDegrees>-4.38355271704494953155517578125</LongitudeDegrees>
            </Position>
            <AltitudeMeters>809.20001220703125</AltitudeMeters>
            <DistanceMeters>NAN</DistanceMeters>
          </Trackpoint>
          <Trackpoint>
            <Time>2022-06-16T09:25:01.000Z</Time>
            <Position>
              <LatitudeDegrees>36.82271593250334262847900390625</LatitudeDegrees>
              <LongitudeDegrees>-4.3835538066923618316650390625</LongitudeDegrees>
            </Position>
            <AltitudeMeters>809.4000244140625</AltitudeMeters>
            <DistanceMeters>NAN</DistanceMeters>
          </Trackpoint>
          <Trackpoint>
            <Time>2022-06-16T09:25:03.000Z</Time>
            <Position>
              <LatitudeDegrees>36.82274711318314075469970703125</LatitudeDegrees>
              <LongitudeDegrees>-4.38355456106364727020263671875</LongitudeDegrees>
            </Position>
            <AltitudeMeters>809.5999755859375</AltitudeMeters>
            <DistanceMeters>NAN</DistanceMeters>
          </Trackpoint>
          <Trackpoint>
            <Time>2022-06-16T09:25:04.000Z</Time>
            <Position>
              <LatitudeDegrees>36.822763122618198394775390625</LatitudeDegrees>
              <LongitudeDegrees>-4.38355472870171070098876953125</LongitudeDegrees>
            </Position>
            <AltitudeMeters>809.5999755859375</AltitudeMeters>
            <DistanceMeters>NAN</DistanceMeters>
          </Trackpoint>
          <Trackpoint>
            <Time>2022-06-16T09:25:05.000Z</Time>
            <Position>
              <LatitudeDegrees>36.82278064079582691192626953125</LatitudeDegrees>
              <LongitudeDegrees>-4.38355498015880584716796875</LongitudeDegrees>
            </Position>
            <AltitudeMeters>809.79998779296875</AltitudeMeters>
            <DistanceMeters>NAN</DistanceMeters>
          </Trackpoint>
          <Trackpoint>
            <Time>2022-06-16T09:25:06.000Z</Time>
            <Position>
              <LatitudeDegrees>36.8227961473166942596435546875</LatitudeDegrees>
              <LongitudeDegrees>-4.3835521303117275238037109375</LongitudeDegrees>
            </Position>
            <AltitudeMeters>810</AltitudeMeters>
            <DistanceMeters>NAN</DistanceMeters>
          </Trackpoint>
          <Trackpoint>
            <Time>2022-06-16T09:25:10.000Z</Time>
            <Position>
              <LatitudeDegrees>36.82284350506961345672607421875</LatitudeDegrees>
              <LongitudeDegrees>-4.3835420720279216766357421875</LongitudeDegrees>
            </Position>
            <AltitudeMeters>810.4000244140625</AltitudeMeters>
            <DistanceMeters>NAN</DistanceMeters>
          </Trackpoint>
          <Trackpoint>
            <Time>2022-06-16T09:25:20.000Z</Time>
            <Position>
              <LatitudeDegrees>36.822978369891643524169921875</LatitudeDegrees>
              <LongitudeDegrees>-4.38352723605930805206298828125</LongitudeDegrees>
            </Position>
            <AltitudeMeters>809.79998779296875</AltitudeMeters>
            <DistanceMeters>NAN</DistanceMeters>
          </Trackpoint>
          <Trackpoint>
            <Time>2022-06-16T09:25:25.000Z</Time>
            <Position>
              <LatitudeDegrees>36.8230351991951465606689453125</LatitudeDegrees>
              <LongitudeDegrees>-4.38351382501423358917236328125</LongitudeDegrees>
            </Position>
            <AltitudeMeters>809.4000244140625</AltitudeMeters>
            <DistanceMeters>NAN</DistanceMeters>
          </Trackpoint>
          <Trackpoint>
            <Time>2022-06-16T09:25:30.000Z</Time>
            <Position>
              <LatitudeDegrees>36.82308255694806575775146484375</LatitudeDegrees>
              <LongitudeDegrees>-4.38349957577884197235107421875</LongitudeDegrees>
            </Position>
            <AltitudeMeters>809.20001220703125</AltitudeMeters>
            <DistanceMeters>NAN</DistanceMeters>
          </Trackpoint>
          <Trackpoint>
            <Time>2022-06-16T09:25:33.000Z</Time>
            <Position>
              <LatitudeDegrees>36.82311608456075191497802734375</LatitudeDegrees>
              <LongitudeDegrees>-4.383498989045619964599609375</LongitudeDegrees>
            </Position>
            <AltitudeMeters>808.79998779296875</AltitudeMeters>
            <DistanceMeters>NAN</DistanceMeters>
          </Trackpoint>
          <Trackpoint>
            <Time>2022-06-16T09:25:36.000Z</Time>
            <Position>
              <LatitudeDegrees>36.8231515400111675262451171875</LatitudeDegrees>
              <LongitudeDegrees>-4.38348733820021152496337890625</LongitudeDegrees>
            </Position>
            <AltitudeMeters>808.5999755859375</AltitudeMeters>
            <DistanceMeters>NAN</DistanceMeters>
          </Trackpoint>
          <Trackpoint>
            <Time>2022-06-16T09:25:40.000Z</Time>
            <Position>
              <LatitudeDegrees>36.823182217776775360107421875</LatitudeDegrees>
              <LongitudeDegrees>-4.38347744755446910858154296875</LongitudeDegrees>
            </Position>
            <AltitudeMeters>808.20001220703125</AltitudeMeters>
            <DistanceMeters>NAN</DistanceMeters>
          </Trackpoint>
          <Trackpoint>
            <Time>2022-06-16T09:25:46.000Z</Time>
            <Position>
              <LatitudeDegrees>36.82323829270899295806884765625</LatitudeDegrees>
              <LongitudeDegrees>-4.38347493298351764678955078125</LongitudeDegrees>
            </Position>
            <AltitudeMeters>807.5999755859375</AltitudeMeters>
            <DistanceMeters>NAN</DistanceMeters>
          </Trackpoint>
          <Trackpoint>
            <Time>2022-06-16T09:25:50.000Z</Time>
            <Position>
              <LatitudeDegrees>36.82332194410264492034912109375</LatitudeDegrees>
              <LongitudeDegrees>-4.383479543030261993408203125</LongitudeDegrees>
            </Position>
            <AltitudeMeters>806.5999755859375</AltitudeMeters>
            <DistanceMeters>NAN</DistanceMeters>
          </Trackpoint>
          <Trackpoint>
            <Time>2022-06-16T09:25:56.000Z</Time>
            <Position>
              <LatitudeDegrees>36.82340157218277454376220703125</LatitudeDegrees>
              <LongitudeDegrees>-4.38346638344228267669677734375</LongitudeDegrees>
            </Position>
            <AltitudeMeters>805.79998779296875</AltitudeMeters>
            <DistanceMeters>NAN</DistanceMeters>
          </Trackpoint>
          <Trackpoint>
            <Time>2022-06-16T09:25:57.000Z</Time>
            <Position>
              <LatitudeDegrees>36.82343157939612865447998046875</LatitudeDegrees>
              <LongitudeDegrees>-4.38346319831907749176025390625</LongitudeDegrees>
            </Position>
            <AltitudeMeters>805.5999755859375</AltitudeMeters>
            <DistanceMeters>NAN</DistanceMeters>
          </Trackpoint>
          <Trackpoint>
            <Time>2022-06-16T09:25:58.000Z</Time>
            <Position>
              <LatitudeDegrees>36.82344784028828144073486328125</LatitudeDegrees>
              <LongitudeDegrees>-4.3834631145000457763671875</LongitudeDegrees>
            </Position>
            <AltitudeMeters>805.5999755859375</AltitudeMeters>
            <DistanceMeters>NAN</DistanceMeters>
          </Trackpoint>
          <Trackpoint>
            <Time>2022-06-16T09:26:00.000Z</Time>
            <Position>
              <LatitudeDegrees>36.82346242479979991912841796875</LatitudeDegrees>
              <LongitudeDegrees>-4.38346252776682376861572265625</LongitudeDegrees>
            </Position>
            <AltitudeMeters>805.5999755859375</AltitudeMeters>
            <DistanceMeters>NAN</DistanceMeters>
          </Trackpoint>
          <Trackpoint>
            <Time>2022-06-16T09:26:03.000Z</Time>
            <Position>
              <LatitudeDegrees>36.82352931238710880279541015625</LatitudeDegrees>
              <LongitudeDegrees>-4.38347719609737396240234375</LongitudeDegrees>
            </Position>
            <AltitudeMeters>805</AltitudeMeters>
            <DistanceMeters>NAN</DistanceMeters>
          </Trackpoint>
          <Trackpoint>
            <Time>2022-06-16T09:26:10.000Z</Time>
            <Position>
              <LatitudeDegrees>36.82359133847057819366455078125</LatitudeDegrees>
              <LongitudeDegrees>-4.3834713287651538848876953125</LongitudeDegrees>
            </Position>
            <AltitudeMeters>805</AltitudeMeters>
            <DistanceMeters>NAN</DistanceMeters>
          </Trackpoint>
          <Trackpoint>
            <Time>2022-06-16T09:26:20.000Z</Time>
            <Position>
              <LatitudeDegrees>36.82371430099010467529296875</LatitudeDegrees>
              <LongitudeDegrees>-4.3834602646529674530029296875</LongitudeDegrees>
            </Position>
            <AltitudeMeters>804.5999755859375</AltitudeMeters>
            <DistanceMeters>NAN</DistanceMeters>
          </Trackpoint>
          <Trackpoint>
            <Time>2022-06-16T09:26:30.000Z</Time>
            <Position>
              <LatitudeDegrees>36.8238334916532039642333984375</LatitudeDegrees>
              <LongitudeDegrees>-4.3834384717047214508056640625</LongitudeDegrees>
            </Position>
            <AltitudeMeters>804.5999755859375</AltitudeMeters>
            <DistanceMeters>NAN</DistanceMeters>
          </Trackpoint>
          <Trackpoint>
            <Time>2022-06-16T09:26:40.000Z</Time>
            <Position>
              <LatitudeDegrees>36.82399325072765350341796875</LatitudeDegrees>
              <LongitudeDegrees>-4.38342849723994731903076171875</LongitudeDegrees>
            </Position>
            <AltitudeMeters>804.4000244140625</AltitudeMeters>
            <DistanceMeters>NAN</DistanceMeters>
          </Trackpoint>
          <Trackpoint>
            <Time>2022-06-16T09:26:50.000Z</Time>
            <Position>
              <LatitudeDegrees>36.82412476278841495513916015625</LatitudeDegrees>
              <LongitudeDegrees>-4.38342933543026447296142578125</LongitudeDegrees>
            </Position>
            <AltitudeMeters>802</AltitudeMeters>
            <DistanceMeters>NAN</DistanceMeters>
          </Trackpoint>
          <Trackpoint>
            <Time>2022-06-16T09:26:55.000Z</Time>
            <Position>
              <LatitudeDegrees>36.824187375605106353759765625</LatitudeDegrees>
              <LongitudeDegrees>-4.38343101181089878082275390625</LongitudeDegrees>
            </Position>
            <AltitudeMeters>801.79998779296875</AltitudeMeters>
            <DistanceMeters>NAN</DistanceMeters>
          </Trackpoint>
          <Trackpoint>
            <Time>2022-06-16T09:27:00.000Z</Time>
            <Position>
              <LatitudeDegrees>36.82426541112363338470458984375</LatitudeDegrees>
              <LongitudeDegrees>-4.38343604095280170440673828125</LongitudeDegrees>
            </Position>
            <AltitudeMeters>801.5999755859375</AltitudeMeters>
            <DistanceMeters>NAN</DistanceMeters>
          </Trackpoint>
          <Trackpoint>
            <Time>2022-06-16T09:27:10.000Z</Time>
            <Position>
              <LatitudeDegrees>36.824408657848834991455078125</LatitudeDegrees>
              <LongitudeDegrees>-4.38349052332341670989990234375</LongitudeDegrees>
            </Position>
            <AltitudeMeters>801.5999755859375</AltitudeMeters>
            <DistanceMeters>NAN</DistanceMeters>
          </Trackpoint>
          <Trackpoint>
            <Time>2022-06-16T09:27:20.000Z</Time>
            <Position>
              <LatitudeDegrees>36.8245290219783782958984375</LatitudeDegrees>
              <LongitudeDegrees>-4.383515417575836181640625</LongitudeDegrees>
            </Position>
            <AltitudeMeters>800.4000244140625</AltitudeMeters>
            <DistanceMeters>NAN</DistanceMeters>
          </Trackpoint>
          <Trackpoint>
            <Time>2022-06-16T09:27:30.000Z</Time>
            <Position>
              <LatitudeDegrees>36.82462935335934162139892578125</LatitudeDegrees>
              <LongitudeDegrees>-4.3835457600653171539306640625</LongitudeDegrees>
            </Position>
            <AltitudeMeters>800.5999755859375</AltitudeMeters>
            <DistanceMeters>NAN</DistanceMeters>
          </Trackpoint>
          <Trackpoint>
            <Time>2022-06-16T09:27:40.000Z</Time>
            <Position>
              <LatitudeDegrees>36.8247715942561626434326171875</LatitudeDegrees>
              <LongitudeDegrees>-4.3835856579244136810302734375</LongitudeDegrees>
            </Position>
            <AltitudeMeters>800.5999755859375</AltitudeMeters>
            <DistanceMeters>NAN</DistanceMeters>
          </Trackpoint>
          <Trackpoint>
            <Time>2022-06-16T09:27:49.000Z</Time>
            <Position>
              <LatitudeDegrees>36.824904195964336395263671875</LatitudeDegrees>
              <LongitudeDegrees>-4.383628070354461669921875</LongitudeDegrees>
            </Position>
            <AltitudeMeters>800.79998779296875</AltitudeMeters>
            <DistanceMeters>NAN</DistanceMeters>
          </Trackpoint>
          <Trackpoint>
            <Time>2022-06-16T09:27:50.000Z</Time>
            <Position>
              <LatitudeDegrees>36.82491953484714031219482421875</LatitudeDegrees>
              <LongitudeDegrees>-4.38362932763993740081787109375</LongitudeDegrees>
            </Position>
            <AltitudeMeters>800.79998779296875</AltitudeMeters>
            <DistanceMeters>NAN</DistanceMeters>
          </Trackpoint>
          <Trackpoint>
            <Time>2022-06-16T09:28:00.000Z</Time>
            <Position>
              <LatitudeDegrees>36.82503889314830303192138671875</LatitudeDegrees>
              <LongitudeDegrees>-4.38362396322190761566162109375</LongitudeDegrees>
            </Position>
            <AltitudeMeters>802.4000244140625</AltitudeMeters>
            <DistanceMeters>NAN</DistanceMeters>
          </Trackpoint>
          <Trackpoint>
            <Time>2022-06-16T09:28:10.000Z</Time>
            <Position>
              <LatitudeDegrees>36.82513746432960033416748046875</LatitudeDegrees>
              <LongitudeDegrees>-4.38364223577082157135009765625</LongitudeDegrees>
            </Position>
            <AltitudeMeters>802.20001220703125</AltitudeMeters>
            <DistanceMeters>NAN</DistanceMeters>
          </Trackpoint>
          <Trackpoint>
            <Time>2022-06-16T09:28:20.000Z</Time>
            <Position>
              <LatitudeDegrees>36.82528180070221424102783203125</LatitudeDegrees>
              <LongitudeDegrees>-4.38362262211740016937255859375</LongitudeDegrees>
            </Position>
            <AltitudeMeters>801.5999755859375</AltitudeMeters>
            <DistanceMeters>NAN</DistanceMeters>
          </Trackpoint>
          <Trackpoint>
            <Time>2022-06-16T09:28:30.000Z</Time>
            <Position>
              <LatitudeDegrees>36.8253871612250804901123046875</LatitudeDegrees>
              <LongitudeDegrees>-4.38364022411406040191650390625</LongitudeDegrees>
            </Position>
            <AltitudeMeters>801.5999755859375</AltitudeMeters>
            <DistanceMeters>NAN</DistanceMeters>
          </Trackpoint>
          <Trackpoint>
            <Time>2022-06-16T09:28:40.000Z</Time>
            <Position>
              <LatitudeDegrees>36.82537903077900409698486328125</LatitudeDegrees>
              <LongitudeDegrees>-4.3836379610002040863037109375</LongitudeDegrees>
            </Position>
            <AltitudeMeters>801.5999755859375</AltitudeMeters>
            <DistanceMeters>NAN</DistanceMeters>
          </Trackpoint>
          <Trackpoint>
            <Time>2022-06-16T09:28:50.000Z</Time>
            <Position>
              <LatitudeDegrees>36.8253650330007076263427734375</LatitudeDegrees>
              <LongitudeDegrees>-4.383623041212558746337890625</LongitudeDegrees>
            </Position>
            <AltitudeMeters>801.5999755859375</AltitudeMeters>
            <DistanceMeters>NAN</DistanceMeters>
          </Trackpoint>
          <Trackpoint>
            <Time>2022-06-16T09:29:00.000Z</Time>
            <Position>
              <LatitudeDegrees>36.82541993446648120880126953125</LatitudeDegrees>
              <LongitudeDegrees>-4.38360820524394512176513671875</LongitudeDegrees>
            </Position>
            <AltitudeMeters>802.5999755859375</AltitudeMeters>
            <DistanceMeters>NAN</DistanceMeters>
          </Trackpoint>
          <Trackpoint>
            <Time>2022-06-16T09:29:10.000Z</Time>
            <Position>
              <LatitudeDegrees>36.82547374628484249114990234375</LatitudeDegrees>
              <LongitudeDegrees>-4.38360460102558135986328125</LongitudeDegrees>
            </Position>
            <AltitudeMeters>803.5999755859375</AltitudeMeters>
            <DistanceMeters>NAN</DistanceMeters>
          </Trackpoint>
          <Trackpoint>
            <Time>2022-06-16T09:29:20.000Z</Time>
            <Position>
              <LatitudeDegrees>36.8254592455923557281494140625</LatitudeDegrees>
              <LongitudeDegrees>-4.3836235441267490386962890625</LongitudeDegrees>
            </Position>
            <AltitudeMeters>803.20001220703125</AltitudeMeters>
            <DistanceMeters>NAN</DistanceMeters>
          </Trackpoint>
          <Trackpoint>
            <Time>2022-06-16T09:29:28.000Z</Time>
            <Position>
              <LatitudeDegrees>36.82547877542674541473388671875</LatitudeDegrees>
              <LongitudeDegrees>-4.3836024217307567596435546875</LongitudeDegrees>
            </Position>
            <AltitudeMeters>803.79998779296875</AltitudeMeters>
            <DistanceMeters>NAN</DistanceMeters>
          </Trackpoint>
          <Trackpoint>
            <Time>2022-06-16T09:29:30.000Z</Time>
            <Position>
              <LatitudeDegrees>36.82548849843442440032958984375</LatitudeDegrees>
              <LongitudeDegrees>-4.38358582556247711181640625</LongitudeDegrees>
            </Position>
            <AltitudeMeters>804</AltitudeMeters>
            <DistanceMeters>NAN</DistanceMeters>
          </Trackpoint>
          <Trackpoint>
            <Time>2022-06-16T09:29:40.000Z</Time>
            <Position>
              <LatitudeDegrees>36.82561590336263179779052734375</LatitudeDegrees>
              <LongitudeDegrees>-4.38358674757182598114013671875</LongitudeDegrees>
            </Position>
            <AltitudeMeters>806.4000244140625</AltitudeMeters>
            <DistanceMeters>NAN</DistanceMeters>
          </Trackpoint>
          <Trackpoint>
            <Time>2022-06-16T09:29:47.000Z</Time>
            <Position>
              <LatitudeDegrees>36.825694777071475982666015625</LatitudeDegrees>
              <LongitudeDegrees>-4.3835970573127269744873046875</LongitudeDegrees>
            </Position>
            <AltitudeMeters>807.4000244140625</AltitudeMeters>
            <DistanceMeters>NAN</DistanceMeters>
          </Trackpoint>
          <Trackpoint>
            <Time>2022-06-16T09:29:50.000Z</Time>
            <Position>
              <LatitudeDegrees>36.82572017423808574676513671875</LatitudeDegrees>
              <LongitudeDegrees>-4.38361340202391147613525390625</LongitudeDegrees>
            </Position>
            <AltitudeMeters>807.5999755859375</AltitudeMeters>
            <DistanceMeters>NAN</DistanceMeters>
          </Trackpoint>
          <Trackpoint>
            <Time>2022-06-16T09:29:52.000Z</Time>
            <Position>
              <LatitudeDegrees>36.825744397938251495361328125</LatitudeDegrees>
              <LongitudeDegrees>-4.38361264765262603759765625</LongitudeDegrees>
            </Position>
            <AltitudeMeters>807.79998779296875</AltitudeMeters>
            <DistanceMeters>NAN</DistanceMeters>
          </Trackpoint>
          <Trackpoint>
            <Time>2022-06-16T09:29:53.000Z</Time>
            <Position>
              <LatitudeDegrees>36.8257576413452625274658203125</LatitudeDegrees>
              <LongitudeDegrees>-4.383612982928752899169921875</LongitudeDegrees>
            </Position>
            <AltitudeMeters>808</AltitudeMeters>
            <DistanceMeters>NAN</DistanceMeters>
          </Trackpoint>
          <Trackpoint>
            <Time>2022-06-16T09:29:54.000Z</Time>
            <Position>
              <LatitudeDegrees>36.825768537819385528564453125</LatitudeDegrees>
              <LongitudeDegrees>-4.38361675478518009185791015625</LongitudeDegrees>
            </Position>
            <AltitudeMeters>808</AltitudeMeters>
            <DistanceMeters>NAN</DistanceMeters>
          </Trackpoint>
          <Trackpoint>
            <Time>2022-06-16T09:29:55.000Z</Time>
            <Position>
              <LatitudeDegrees>36.82577826082706451416015625</LatitudeDegrees>
              <LongitudeDegrees>-4.38361977227032184600830078125</LongitudeDegrees>
            </Position>
            <AltitudeMeters>808.20001220703125</AltitudeMeters>
            <DistanceMeters>NAN</DistanceMeters>
          </Trackpoint>
          <Trackpoint>
            <Time>2022-06-16T09:29:56.000Z</Time>
            <Position>
              <LatitudeDegrees>36.8257898278534412384033203125</LatitudeDegrees>
              <LongitudeDegrees>-4.38362346030771732330322265625</LongitudeDegrees>
            </Position>
            <AltitudeMeters>808.20001220703125</AltitudeMeters>
            <DistanceMeters>NAN</DistanceMeters>
          </Trackpoint>
          <Trackpoint>
            <Time>2022-06-16T09:29:57.000Z</Time>
            <Position>
              <LatitudeDegrees>36.82579929940402507781982421875</LatitudeDegrees>
              <LongitudeDegrees>-4.3836294114589691162109375</LongitudeDegrees>
            </Position>
            <AltitudeMeters>808.20001220703125</AltitudeMeters>
            <DistanceMeters>NAN</DistanceMeters>
          </Trackpoint>
          <Trackpoint>
            <Time>2022-06-16T09:30:00.000Z</Time>
            <Position>
              <LatitudeDegrees>36.82582779787480831146240234375</LatitudeDegrees>
              <LongitudeDegrees>-4.3836403079330921173095703125</LongitudeDegrees>
            </Position>
            <AltitudeMeters>808.5999755859375</AltitudeMeters>
            <DistanceMeters>NAN</DistanceMeters>
          </Trackpoint>
          <Trackpoint>
            <Time>2022-06-16T09:30:08.000Z</Time>
            <Position>
              <LatitudeDegrees>36.82592175900936126708984375</LatitudeDegrees>
              <LongitudeDegrees>-4.38367702066898345947265625</LongitudeDegrees>
            </Position>
            <AltitudeMeters>809.20001220703125</AltitudeMeters>
            <DistanceMeters>NAN</DistanceMeters>
          </Trackpoint>
          <Trackpoint>
            <Time>2022-06-16T09:30:10.000Z</Time>
            <Position>
              <LatitudeDegrees>36.8259329907596111297607421875</LatitudeDegrees>
              <LongitudeDegrees>-4.3836808763444423675537109375</LongitudeDegrees>
            </Position>
            <AltitudeMeters>809.20001220703125</AltitudeMeters>
            <DistanceMeters>NAN</DistanceMeters>
          </Trackpoint>
          <Trackpoint>
            <Time>2022-06-16T09:30:11.000Z</Time>
            <Position>
              <LatitudeDegrees>36.82595453225076198577880859375</LatitudeDegrees>
              <LongitudeDegrees>-4.38369370065629482269287109375</LongitudeDegrees>
            </Position>
            <AltitudeMeters>809.20001220703125</AltitudeMeters>
            <DistanceMeters>NAN</DistanceMeters>
          </Trackpoint>
          <Trackpoint>
            <Time>2022-06-16T09:30:17.000Z</Time>
            <Position>
              <LatitudeDegrees>36.8260256946086883544921875</LatitudeDegrees>
              <LongitudeDegrees>-4.38371364958584308624267578125</LongitudeDegrees>
            </Position>
            <AltitudeMeters>809.4000244140625</AltitudeMeters>
            <DistanceMeters>NAN</DistanceMeters>
          </Trackpoint>
          <Trackpoint>
            <Time>2022-06-16T09:30:20.000Z</Time>
            <Position>
              <LatitudeDegrees>36.82606182061135768890380859375</LatitudeDegrees>
              <LongitudeDegrees>-4.3837197683751583099365234375</LongitudeDegrees>
            </Position>
            <AltitudeMeters>809.4000244140625</AltitudeMeters>
            <DistanceMeters>NAN</DistanceMeters>
          </Trackpoint>
          <Trackpoint>
            <Time>2022-06-16T09:30:24.000Z</Time>
            <Position>
              <LatitudeDegrees>36.8261053226888179779052734375</LatitudeDegrees>
              <LongitudeDegrees>-4.38372672535479068756103515625</LongitudeDegrees>
            </Position>
            <AltitudeMeters>810</AltitudeMeters>
            <DistanceMeters>NAN</DistanceMeters>
          </Trackpoint>
          <Trackpoint>
            <Time>2022-06-16T09:30:30.000Z</Time>
            <Position>
              <LatitudeDegrees>36.82617011480033397674560546875</LatitudeDegrees>
              <LongitudeDegrees>-4.383750446140766143798828125</LongitudeDegrees>
            </Position>
            <AltitudeMeters>810.5999755859375</AltitudeMeters>
            <DistanceMeters>NAN</DistanceMeters>
          </Trackpoint>
          <Trackpoint>
            <Time>2022-06-16T09:30:40.000Z</Time>
            <Position>
              <LatitudeDegrees>36.82628092356026172637939453125</LatitudeDegrees>
              <LongitudeDegrees>-4.383762516081333160400390625</LongitudeDegrees>
            </Position>
            <AltitudeMeters>811.79998779296875</AltitudeMeters>
            <DistanceMeters>NAN</DistanceMeters>
          </Trackpoint>
          <Trackpoint>
            <Time>2022-06-16T09:30:43.000Z</Time>
            <Position>
              <LatitudeDegrees>36.826317720115184783935546875</LatitudeDegrees>
              <LongitudeDegrees>-4.38375874422490596771240234375</LongitudeDegrees>
            </Position>
            <AltitudeMeters>812.20001220703125</AltitudeMeters>
            <DistanceMeters>NAN</DistanceMeters>
          </Trackpoint>
          <Trackpoint>
            <Time>2022-06-16T09:30:50.000Z</Time>
            <Position>
              <LatitudeDegrees>36.82641453109681606292724609375</LatitudeDegrees>
              <LongitudeDegrees>-4.38375078141689300537109375</LongitudeDegrees>
            </Position>
            <AltitudeMeters>813</AltitudeMeters>
            <DistanceMeters>NAN</DistanceMeters>
          </Trackpoint>
          <Trackpoint>
            <Time>2022-06-16T09:30:53.000Z</Time>
            <Position>
              <LatitudeDegrees>36.8264657445251941680908203125</LatitudeDegrees>
              <LongitudeDegrees>-4.38374432735145092010498046875</LongitudeDegrees>
            </Position>
            <AltitudeMeters>813.4000244140625</AltitudeMeters>
            <DistanceMeters>NAN</DistanceMeters>
          </Trackpoint>
          <Trackpoint>
            <Time>2022-06-16T09:31:00.000Z</Time>
            <Position>
              <LatitudeDegrees>36.8265700154006481170654296875</LatitudeDegrees>
              <LongitudeDegrees>-4.3837600015103816986083984375</LongitudeDegrees>
            </Position>
            <AltitudeMeters>813</AltitudeMeters>
            <DistanceMeters>NAN</DistanceMeters>
          </Trackpoint>
          <Trackpoint>
            <Time>2022-06-16T09:31:10.000Z</Time>
            <Position>
              <LatitudeDegrees>36.82668359018862247467041015625</LatitudeDegrees>
              <LongitudeDegrees>-4.383783303201198577880859375</LongitudeDegrees>
            </Position>
            <AltitudeMeters>815.4000244140625</AltitudeMeters>
            <DistanceMeters>NAN</DistanceMeters>
          </Trackpoint>
          <Trackpoint>
            <Time>2022-06-16T09:31:20.000Z</Time>
            <Position>
              <LatitudeDegrees>36.826779730618000030517578125</LatitudeDegrees>
              <LongitudeDegrees>-4.38380853272974491119384765625</LongitudeDegrees>
            </Position>
            <AltitudeMeters>817.20001220703125</AltitudeMeters>
            <DistanceMeters>NAN</DistanceMeters>
          </Trackpoint>
          <Trackpoint>
            <Time>2022-06-16T09:31:30.000Z</Time>
            <Position>
              <LatitudeDegrees>36.82686916552484035491943359375</LatitudeDegrees>
              <LongitudeDegrees>-4.3839145638048648834228515625</LongitudeDegrees>
            </Position>
            <AltitudeMeters>818.79998779296875</AltitudeMeters>
            <DistanceMeters>NAN</DistanceMeters>
          </Trackpoint>
          <Trackpoint>
            <Time>2022-06-16T09:31:40.000Z</Time>
            <Position>
              <LatitudeDegrees>36.8269589357078075408935546875</LatitudeDegrees>
              <LongitudeDegrees>-4.3840129673480987548828125</LongitudeDegrees>
            </Position>
            <AltitudeMeters>820.4000244140625</AltitudeMeters>
            <DistanceMeters>NAN</DistanceMeters>
          </Trackpoint>
          <Trackpoint>
            <Time>2022-06-16T09:31:50.000Z</Time>
            <Position>
              <LatitudeDegrees>36.827008724212646484375</LatitudeDegrees>
              <LongitudeDegrees>-4.38413609750568866729736328125</LongitudeDegrees>
            </Position>
            <AltitudeMeters>823.20001220703125</AltitudeMeters>
            <DistanceMeters>NAN</DistanceMeters>
          </Trackpoint>
          <Trackpoint>
            <Time>2022-06-16T09:32:00.000Z</Time>
            <Position>
              <LatitudeDegrees>36.8270290084183216094970703125</LatitudeDegrees>
              <LongitudeDegrees>-4.384270124137401580810546875</LongitudeDegrees>
            </Position>
            <AltitudeMeters>821.4000244140625</AltitudeMeters>
            <DistanceMeters>NAN</DistanceMeters>
          </Trackpoint>
          <Trackpoint>
            <Time>2022-06-16T09:32:04.000Z</Time>
            <Position>
              <LatitudeDegrees>36.82705239392817020416259765625</LatitudeDegrees>
              <LongitudeDegrees>-4.38430331647396087646484375</LongitudeDegrees>
            </Position>
            <AltitudeMeters>821.4000244140625</AltitudeMeters>
            <DistanceMeters>NAN</DistanceMeters>
          </Trackpoint>
          <Trackpoint>
            <Time>2022-06-16T09:32:09.000Z</Time>
            <Position>
              <LatitudeDegrees>36.82708508335053920745849609375</LatitudeDegrees>
              <LongitudeDegrees>-4.38434346579015254974365234375</LongitudeDegrees>
            </Position>
            <AltitudeMeters>821.4000244140625</AltitudeMeters>
            <DistanceMeters>NAN</DistanceMeters>
          </Trackpoint>
          <Trackpoint>
            <Time>2022-06-16T09:32:10.000Z</Time>
            <Position>
              <LatitudeDegrees>36.82709547691047191619873046875</LatitudeDegrees>
              <LongitudeDegrees>-4.38435318879783153533935546875</LongitudeDegrees>
            </Position>
            <AltitudeMeters>821.4000244140625</AltitudeMeters>
            <DistanceMeters>NAN</DistanceMeters>
          </Trackpoint>
          <Trackpoint>
            <Time>2022-06-16T09:32:15.000Z</Time>
            <Position>
              <LatitudeDegrees>36.827131099998950958251953125</LatitudeDegrees>
              <LongitudeDegrees>-4.38440700061619281768798828125</LongitudeDegrees>
            </Position>
            <AltitudeMeters>822.20001220703125</AltitudeMeters>
            <DistanceMeters>NAN</DistanceMeters>
          </Trackpoint>
          <Trackpoint>
            <Time>2022-06-16T09:32:20.000Z</Time>
            <Position>
              <LatitudeDegrees>36.82715197093784809112548828125</LatitudeDegrees>
              <LongitudeDegrees>-4.38447589986026287078857421875</LongitudeDegrees>
            </Position>
            <AltitudeMeters>821.20001220703125</AltitudeMeters>
            <DistanceMeters>NAN</DistanceMeters>
          </Trackpoint>
          <Trackpoint>
            <Time>2022-06-16T09:32:30.000Z</Time>
            <Position>
              <LatitudeDegrees>36.82721667923033237457275390625</LatitudeDegrees>
              <LongitudeDegrees>-4.3845807574689388275146484375</LongitudeDegrees>
            </Position>
            <AltitudeMeters>821.20001220703125</AltitudeMeters>
            <DistanceMeters>NAN</DistanceMeters>
          </Trackpoint>
          <Trackpoint>
            <Time>2022-06-16T09:32:40.000Z</Time>
            <Position>
              <LatitudeDegrees>36.8273183517158031463623046875</LatitudeDegrees>
              <LongitudeDegrees>-4.3847359903156757354736328125</LongitudeDegrees>
            </Position>
            <AltitudeMeters>822</AltitudeMeters>
            <DistanceMeters>NAN</DistanceMeters>
          </Trackpoint>
          <Trackpoint>
            <Time>2022-06-16T09:32:50.000Z</Time>
            <Position>
              <LatitudeDegrees>36.8274071998894214630126953125</LatitudeDegrees>
              <LongitudeDegrees>-4.384839423000812530517578125</LongitudeDegrees>
            </Position>
            <AltitudeMeters>822.79998779296875</AltitudeMeters>
            <DistanceMeters>NAN</DistanceMeters>
          </Trackpoint>
          <Trackpoint>
            <Time>2022-06-16T09:33:00.000Z</Time>
            <Position>
              <LatitudeDegrees>36.827499568462371826171875</LatitudeDegrees>
              <LongitudeDegrees>-4.3849143572151660919189453125</LongitudeDegrees>
            </Position>
            <AltitudeMeters>825.5999755859375</AltitudeMeters>
            <DistanceMeters>NAN</DistanceMeters>
          </Trackpoint>
          <Trackpoint>
            <Time>2022-06-16T09:33:10.000Z</Time>
            <Position>
              <LatitudeDegrees>36.82759252376854419708251953125</LatitudeDegrees>
              <LongitudeDegrees>-4.3849973380565643310546875</LongitudeDegrees>
            </Position>
            <AltitudeMeters>827.5999755859375</AltitudeMeters>
            <DistanceMeters>NAN</DistanceMeters>
          </Trackpoint>
          <Trackpoint>
            <Time>2022-06-16T09:33:15.000Z</Time>
            <Position>
              <LatitudeDegrees>36.827638708055019378662109375</LatitudeDegrees>
              <LongitudeDegrees>-4.38503664918243885040283203125</LongitudeDegrees>
            </Position>
            <AltitudeMeters>827.5999755859375</AltitudeMeters>
            <DistanceMeters>NAN</DistanceMeters>
          </Trackpoint>
          <Trackpoint>
            <Time>2022-06-16T09:33:20.000Z</Time>
            <Position>
              <LatitudeDegrees>36.82767919264733791351318359375</LatitudeDegrees>
              <LongitudeDegrees>-4.3850850127637386322021484375</LongitudeDegrees>
            </Position>
            <AltitudeMeters>826.79998779296875</AltitudeMeters>
            <DistanceMeters>NAN</DistanceMeters>
          </Trackpoint>
          <Trackpoint>
            <Time>2022-06-16T09:33:30.000Z</Time>
            <Position>
              <LatitudeDegrees>36.82778832502663135528564453125</LatitudeDegrees>
              <LongitudeDegrees>-4.3851507268846035003662109375</LongitudeDegrees>
            </Position>
            <AltitudeMeters>828</AltitudeMeters>
            <DistanceMeters>NAN</DistanceMeters>
          </Trackpoint>
          <Trackpoint>
            <Time>2022-06-16T09:33:34.000Z</Time>
            <Position>
              <LatitudeDegrees>36.8278316594660282135009765625</LatitudeDegrees>
              <LongitudeDegrees>-4.38516438938677310943603515625</LongitudeDegrees>
            </Position>
            <AltitudeMeters>829</AltitudeMeters>
            <DistanceMeters>NAN</DistanceMeters>
          </Trackpoint>
          <Trackpoint>
            <Time>2022-06-16T09:33:35.000Z</Time>
            <Position>
              <LatitudeDegrees>36.82784230448305606842041015625</LatitudeDegrees>
              <LongitudeDegrees>-4.3851695023477077484130859375</LongitudeDegrees>
            </Position>
            <AltitudeMeters>829.20001220703125</AltitudeMeters>
            <DistanceMeters>NAN</DistanceMeters>
          </Trackpoint>
          <Trackpoint>
            <Time>2022-06-16T09:33:37.000Z</Time>
            <Position>
              <LatitudeDegrees>36.82786024175584316253662109375</LatitudeDegrees>
              <LongitudeDegrees>-4.385184086859226226806640625</LongitudeDegrees>
            </Position>
            <AltitudeMeters>829.4000244140625</AltitudeMeters>
            <DistanceMeters>NAN</DistanceMeters>
          </Trackpoint>
          <Trackpoint>
            <Time>2022-06-16T09:33:40.000Z</Time>
            <Position>
              <LatitudeDegrees>36.82787834666669368743896484375</LatitudeDegrees>
              <LongitudeDegrees>-4.38520764000713825225830078125</LongitudeDegrees>
            </Position>
            <AltitudeMeters>828.79998779296875</AltitudeMeters>
            <DistanceMeters>NAN</DistanceMeters>
          </Trackpoint>
          <Trackpoint>
            <Time>2022-06-16T09:33:46.000Z</Time>
            <Position>
              <LatitudeDegrees>36.82796828448772430419921875</LatitudeDegrees>
              <LongitudeDegrees>-4.38524753786623477935791015625</LongitudeDegrees>
            </Position>
            <AltitudeMeters>829.4000244140625</AltitudeMeters>
            <DistanceMeters>NAN</DistanceMeters>
          </Trackpoint>
          <Trackpoint>
            <Time>2022-06-16T09:33:50.000Z</Time>
            <Position>
              <LatitudeDegrees>36.8280157260596752166748046875</LatitudeDegrees>
              <LongitudeDegrees>-4.385301433503627777099609375</LongitudeDegrees>
            </Position>
            <AltitudeMeters>828.20001220703125</AltitudeMeters>
            <DistanceMeters>NAN</DistanceMeters>
          </Trackpoint>
          <Trackpoint>
            <Time>2022-06-16T09:34:00.000Z</Time>
            <Position>
              <LatitudeDegrees>36.8281414546072483062744140625</LatitudeDegrees>
              <LongitudeDegrees>-4.38536270521581172943115234375</LongitudeDegrees>
            </Position>
            <AltitudeMeters>829.5999755859375</AltitudeMeters>
            <DistanceMeters>NAN</DistanceMeters>
          </Trackpoint>
          <Trackpoint>
            <Time>2022-06-16T09:34:04.000Z</Time>
            <Position>
              <LatitudeDegrees>36.82818353176116943359375</LatitudeDegrees>
              <LongitudeDegrees>-4.38535901717841625213623046875</LongitudeDegrees>
            </Position>
            <AltitudeMeters>830.79998779296875</AltitudeMeters>
            <DistanceMeters>NAN</DistanceMeters>
          </Trackpoint>
          <Trackpoint>
            <Time>2022-06-16T09:34:10.000Z</Time>
            <Position>
              <LatitudeDegrees>36.828256957232952117919921875</LatitudeDegrees>
              <LongitudeDegrees>-4.3853663094341754913330078125</LongitudeDegrees>
            </Position>
            <AltitudeMeters>832</AltitudeMeters>
            <DistanceMeters>NAN</DistanceMeters>
          </Trackpoint>
          <Trackpoint>
            <Time>2022-06-16T09:34:20.000Z</Time>
            <Position>
              <LatitudeDegrees>36.82835527695715427398681640625</LatitudeDegrees>
              <LongitudeDegrees>-4.3853891082108020782470703125</LongitudeDegrees>
            </Position>
            <AltitudeMeters>833.4000244140625</AltitudeMeters>
            <DistanceMeters>NAN</DistanceMeters>
          </Trackpoint>
          <Trackpoint>
            <Time>2022-06-16T09:34:30.000Z</Time>
            <Position>
              <LatitudeDegrees>36.828443706035614013671875</LatitudeDegrees>
              <LongitudeDegrees>-4.38537745736539363861083984375</LongitudeDegrees>
            </Position>
            <AltitudeMeters>835.5999755859375</AltitudeMeters>
            <DistanceMeters>NAN</DistanceMeters>
          </Trackpoint>
          <Trackpoint>
            <Time>2022-06-16T09:34:40.000Z</Time>
            <Position>
              <LatitudeDegrees>36.82856029830873012542724609375</LatitudeDegrees>
              <LongitudeDegrees>-4.3854008428752422332763671875</LongitudeDegrees>
            </Position>
            <AltitudeMeters>836.79998779296875</AltitudeMeters>
            <DistanceMeters>NAN</DistanceMeters>
          </Trackpoint>
          <Trackpoint>
            <Time>2022-06-16T09:34:43.000Z</Time>
            <Position>
              <LatitudeDegrees>36.8285924009978771209716796875</LatitudeDegrees>
              <LongitudeDegrees>-4.3854050338268280029296875</LongitudeDegrees>
            </Position>
            <AltitudeMeters>837.20001220703125</AltitudeMeters>
            <DistanceMeters>NAN</DistanceMeters>
          </Trackpoint>
          <Trackpoint>
            <Time>2022-06-16T09:34:50.000Z</Time>
            <Position>
              <LatitudeDegrees>36.8286805786192417144775390625</LatitudeDegrees>
              <LongitudeDegrees>-4.38541500829160213470458984375</LongitudeDegrees>
            </Position>
            <AltitudeMeters>838.5999755859375</AltitudeMeters>
            <DistanceMeters>NAN</DistanceMeters>
          </Trackpoint>
          <Trackpoint>
            <Time>2022-06-16T09:35:00.000Z</Time>
            <Position>
              <LatitudeDegrees>36.82881209068000316619873046875</LatitudeDegrees>
              <LongitudeDegrees>-4.3854130804538726806640625</LongitudeDegrees>
            </Position>
            <AltitudeMeters>841.4000244140625</AltitudeMeters>
            <DistanceMeters>NAN</DistanceMeters>
          </Trackpoint>
          <Trackpoint>
            <Time>2022-06-16T09:35:09.000Z</Time>
            <Position>
              <LatitudeDegrees>36.82892591692507266998291015625</LatitudeDegrees>
              <LongitudeDegrees>-4.385414756834506988525390625</LongitudeDegrees>
            </Position>
            <AltitudeMeters>844.20001220703125</AltitudeMeters>
            <DistanceMeters>NAN</DistanceMeters>
          </Trackpoint>
          <Trackpoint>
            <Time>2022-06-16T09:35:10.000Z</Time>
            <Position>
              <LatitudeDegrees>36.8289360590279102325439453125</LatitudeDegrees>
              <LongitudeDegrees>-4.385414421558380126953125</LongitudeDegrees>
            </Position>
            <AltitudeMeters>844.4000244140625</AltitudeMeters>
            <DistanceMeters>NAN</DistanceMeters>
          </Trackpoint>
          <Trackpoint>
            <Time>2022-06-16T09:35:11.000Z</Time>
            <Position>
              <LatitudeDegrees>36.8289487995207309722900390625</LatitudeDegrees>
              <LongitudeDegrees>-4.38541777431964874267578125</LongitudeDegrees>
            </Position>
            <AltitudeMeters>844.5999755859375</AltitudeMeters>
            <DistanceMeters>NAN</DistanceMeters>
          </Trackpoint>
          <Trackpoint>
            <Time>2022-06-16T09:35:12.000Z</Time>
            <Position>
              <LatitudeDegrees>36.82896296493709087371826171875</LatitudeDegrees>
              <LongitudeDegrees>-4.3854223005473613739013671875</LongitudeDegrees>
            </Position>
            <AltitudeMeters>844.79998779296875</AltitudeMeters>
            <DistanceMeters>NAN</DistanceMeters>
          </Trackpoint>
          <Trackpoint>
            <Time>2022-06-16T09:35:20.000Z</Time>
            <Position>
              <LatitudeDegrees>36.829065978527069091796875</LatitudeDegrees>
              <LongitudeDegrees>-4.38545725308358669281005859375</LongitudeDegrees>
            </Position>
            <AltitudeMeters>846.5999755859375</AltitudeMeters>
            <DistanceMeters>NAN</DistanceMeters>
          </Trackpoint>
          <Trackpoint>
            <Time>2022-06-16T09:35:23.000Z</Time>
            <Position>
              <LatitudeDegrees>36.82909774594008922576904296875</LatitudeDegrees>
              <LongitudeDegrees>-4.38546312041580677032470703125</LongitudeDegrees>
            </Position>
            <AltitudeMeters>848.20001220703125</AltitudeMeters>
            <DistanceMeters>NAN</DistanceMeters>
          </Trackpoint>
          <Trackpoint>
            <Time>2022-06-16T09:35:24.000Z</Time>
            <Position>
              <LatitudeDegrees>36.82910763658583164215087890625</LatitudeDegrees>
              <LongitudeDegrees>-4.3854675628244876861572265625</LongitudeDegrees>
            </Position>
            <AltitudeMeters>848.5999755859375</AltitudeMeters>
            <DistanceMeters>NAN</DistanceMeters>
          </Trackpoint>
          <Trackpoint>
            <Time>2022-06-16T09:35:25.000Z</Time>
            <Position>
              <LatitudeDegrees>36.82911895215511322021484375</LatitudeDegrees>
              <LongitudeDegrees>-4.3854702450335025787353515625</LongitudeDegrees>
            </Position>
            <AltitudeMeters>849.20001220703125</AltitudeMeters>
            <DistanceMeters>NAN</DistanceMeters>
          </Trackpoint>
          <Trackpoint>
            <Time>2022-06-16T09:35:26.000Z</Time>
            <Position>
              <LatitudeDegrees>36.82913278229534626007080078125</LatitudeDegrees>
              <LongitudeDegrees>-4.38547267578542232513427734375</LongitudeDegrees>
            </Position>
            <AltitudeMeters>849.79998779296875</AltitudeMeters>
            <DistanceMeters>NAN</DistanceMeters>
          </Trackpoint>
          <Trackpoint>
            <Time>2022-06-16T09:35:28.000Z</Time>
            <Position>
              <LatitudeDegrees>36.82915910147130489349365234375</LatitudeDegrees>
              <LongitudeDegrees>-4.38547016121447086334228515625</LongitudeDegrees>
            </Position>
            <AltitudeMeters>851.20001220703125</AltitudeMeters>
            <DistanceMeters>NAN</DistanceMeters>
          </Trackpoint>
          <Trackpoint>
            <Time>2022-06-16T09:35:30.000Z</Time>
            <Position>
              <LatitudeDegrees>36.8291727639734745025634765625</LatitudeDegrees>
              <LongitudeDegrees>-4.3854823149740695953369140625</LongitudeDegrees>
            </Position>
            <AltitudeMeters>851.79998779296875</AltitudeMeters>
            <DistanceMeters>NAN</DistanceMeters>
          </Trackpoint>
          <Trackpoint>
            <Time>2022-06-16T09:35:36.000Z</Time>
            <Position>
              <LatitudeDegrees>36.82923420332372188568115234375</LatitudeDegrees>
              <LongitudeDegrees>-4.38551777042448520660400390625</LongitudeDegrees>
            </Position>
            <AltitudeMeters>854.79998779296875</AltitudeMeters>
            <DistanceMeters>NAN</DistanceMeters>
          </Trackpoint>
          <Trackpoint>
            <Time>2022-06-16T09:35:40.000Z</Time>
            <Position>
              <LatitudeDegrees>36.82925968430936336517333984375</LatitudeDegrees>
              <LongitudeDegrees>-4.38557342626154422760009765625</LongitudeDegrees>
            </Position>
            <AltitudeMeters>853.20001220703125</AltitudeMeters>
            <DistanceMeters>NAN</DistanceMeters>
          </Trackpoint>
          <Trackpoint>
            <Time>2022-06-16T09:35:48.000Z</Time>
            <Position>
              <LatitudeDegrees>36.82932187803089618682861328125</LatitudeDegrees>
              <LongitudeDegrees>-4.3856546469032764434814453125</LongitudeDegrees>
            </Position>
            <AltitudeMeters>849.79998779296875</AltitudeMeters>
            <DistanceMeters>NAN</DistanceMeters>
          </Trackpoint>
          <Trackpoint>
            <Time>2022-06-16T09:35:50.000Z</Time>
            <Position>
              <LatitudeDegrees>36.82933562435209751129150390625</LatitudeDegrees>
              <LongitudeDegrees>-4.3856754340231418609619140625</LongitudeDegrees>
            </Position>
            <AltitudeMeters>849</AltitudeMeters>
            <DistanceMeters>NAN</DistanceMeters>
          </Trackpoint>
          <Trackpoint>
            <Time>2022-06-16T09:35:54.000Z</Time>
            <Position>
              <LatitudeDegrees>36.82935305871069431304931640625</LatitudeDegrees>
              <LongitudeDegrees>-4.38574098050594329833984375</LongitudeDegrees>
            </Position>
            <AltitudeMeters>846.20001220703125</AltitudeMeters>
            <DistanceMeters>NAN</DistanceMeters>
          </Trackpoint>
          <Trackpoint>
            <Time>2022-06-16T09:36:00.000Z</Time>
            <Position>
              <LatitudeDegrees>36.82937485165894031524658203125</LatitudeDegrees>
              <LongitudeDegrees>-4.38582479953765869140625</LongitudeDegrees>
            </Position>
            <AltitudeMeters>843.20001220703125</AltitudeMeters>
            <DistanceMeters>NAN</DistanceMeters>
          </Trackpoint>
          <Trackpoint>
            <Time>2022-06-16T09:36:10.000Z</Time>
            <Position>
              <LatitudeDegrees>36.82941290549933910369873046875</LatitudeDegrees>
              <LongitudeDegrees>-4.38598103821277618408203125</LongitudeDegrees>
            </Position>
            <AltitudeMeters>836</AltitudeMeters>
            <DistanceMeters>NAN</DistanceMeters>
          </Trackpoint>
          <Trackpoint>
            <Time>2022-06-16T09:36:20.000Z</Time>
            <Position>
              <LatitudeDegrees>36.8294641189277172088623046875</LatitudeDegrees>
              <LongitudeDegrees>-4.38608832657337188720703125</LongitudeDegrees>
            </Position>
            <AltitudeMeters>833.79998779296875</AltitudeMeters>
            <DistanceMeters>NAN</DistanceMeters>
          </Trackpoint>
          <Trackpoint>
            <Time>2022-06-16T09:36:30.000Z</Time>
            <Position>
              <LatitudeDegrees>36.82955623604357242584228515625</LatitudeDegrees>
              <LongitudeDegrees>-4.3862138874828815460205078125</LongitudeDegrees>
            </Position>
            <AltitudeMeters>836.4000244140625</AltitudeMeters>
            <DistanceMeters>NAN</DistanceMeters>
          </Trackpoint>
          <Trackpoint>
            <Time>2022-06-16T09:36:40.000Z</Time>
            <Position>
              <LatitudeDegrees>36.82965346612036228179931640625</LatitudeDegrees>
              <LongitudeDegrees>-4.3863174878060817718505859375</LongitudeDegrees>
            </Position>
            <AltitudeMeters>840</AltitudeMeters>
            <DistanceMeters>NAN</DistanceMeters>
          </Trackpoint>
          <Trackpoint>
            <Time>2022-06-16T09:36:50.000Z</Time>
            <Position>
              <LatitudeDegrees>36.8297454155981540679931640625</LatitudeDegrees>
              <LongitudeDegrees>-4.38640206120908260345458984375</LongitudeDegrees>
            </Position>
            <AltitudeMeters>843.20001220703125</AltitudeMeters>
            <DistanceMeters>NAN</DistanceMeters>
          </Trackpoint>
          <Trackpoint>
            <Time>2022-06-16T09:36:55.000Z</Time>
            <Position>
              <LatitudeDegrees>36.82979696430265903472900390625</LatitudeDegrees>
              <LongitudeDegrees>-4.38645000569522380828857421875</LongitudeDegrees>
            </Position>
            <AltitudeMeters>845</AltitudeMeters>
            <DistanceMeters>NAN</DistanceMeters>
          </Trackpoint>
          <Trackpoint>
            <Time>2022-06-16T09:37:00.000Z</Time>
            <Position>
              <LatitudeDegrees>36.82982160709798336029052734375</LatitudeDegrees>
              <LongitudeDegrees>-4.38650985248386859893798828125</LongitudeDegrees>
            </Position>
            <AltitudeMeters>845.20001220703125</AltitudeMeters>
            <DistanceMeters>NAN</DistanceMeters>
          </Trackpoint>
          <Trackpoint>
            <Time>2022-06-16T09:37:04.000Z</Time>
            <Position>
              <LatitudeDegrees>36.829839460551738739013671875</LatitudeDegrees>
              <LongitudeDegrees>-4.38654706813395023345947265625</LongitudeDegrees>
            </Position>
            <AltitudeMeters>845.4000244140625</AltitudeMeters>
            <DistanceMeters>NAN</DistanceMeters>
          </Trackpoint>
          <Trackpoint>
            <Time>2022-06-16T09:37:09.000Z</Time>
            <Position>
              <LatitudeDegrees>36.82987240143120288848876953125</LatitudeDegrees>
              <LongitudeDegrees>-4.38661227934062480926513671875</LongitudeDegrees>
            </Position>
            <AltitudeMeters>846.20001220703125</AltitudeMeters>
            <DistanceMeters>NAN</DistanceMeters>
          </Trackpoint>
          <Trackpoint>
            <Time>2022-06-16T09:37:10.000Z</Time>
            <Position>
              <LatitudeDegrees>36.82987994514405727386474609375</LatitudeDegrees>
              <LongitudeDegrees>-4.38662216998636722564697265625</LongitudeDegrees>
            </Position>
            <AltitudeMeters>846.4000244140625</AltitudeMeters>
            <DistanceMeters>NAN</DistanceMeters>
          </Trackpoint>
          <Trackpoint>
            <Time>2022-06-16T09:37:13.000Z</Time>
            <Position>
              <LatitudeDegrees>36.82989100925624370574951171875</LatitudeDegrees>
              <LongitudeDegrees>-4.3866611458361148834228515625</LongitudeDegrees>
            </Position>
            <AltitudeMeters>847</AltitudeMeters>
            <DistanceMeters>NAN</DistanceMeters>
          </Trackpoint>
          <Trackpoint>
            <Time>2022-06-16T09:37:20.000Z</Time>
            <Position>
              <LatitudeDegrees>36.8299023248255252838134765625</LatitudeDegrees>
              <LongitudeDegrees>-4.386785030364990234375</LongitudeDegrees>
            </Position>
            <AltitudeMeters>847.20001220703125</AltitudeMeters>
            <DistanceMeters>NAN</DistanceMeters>
          </Trackpoint>
          <Trackpoint>
            <Time>2022-06-16T09:37:30.000Z</Time>
            <Position>
              <LatitudeDegrees>36.8299345113337039947509765625</LatitudeDegrees>
              <LongitudeDegrees>-4.386921823024749755859375</LongitudeDegrees>
            </Position>
            <AltitudeMeters>848.4000244140625</AltitudeMeters>
            <DistanceMeters>NAN</DistanceMeters>
          </Trackpoint>
          <Trackpoint>
            <Time>2022-06-16T09:37:37.000Z</Time>
            <Position>
              <LatitudeDegrees>36.8299395404756069183349609375</LatitudeDegrees>
              <LongitudeDegrees>-4.3870089948177337646484375</LongitudeDegrees>
            </Position>
            <AltitudeMeters>848</AltitudeMeters>
            <DistanceMeters>NAN</DistanceMeters>
          </Trackpoint>
          <Trackpoint>
            <Time>2022-06-16T09:37:40.000Z</Time>
            <Position>
              <LatitudeDegrees>36.82994146831333637237548828125</LatitudeDegrees>
              <LongitudeDegrees>-4.38704495318233966827392578125</LongitudeDegrees>
            </Position>
            <AltitudeMeters>847.79998779296875</AltitudeMeters>
            <DistanceMeters>NAN</DistanceMeters>
          </Trackpoint>
          <Trackpoint>
            <Time>2022-06-16T09:37:41.000Z</Time>
            <Position>
              <LatitudeDegrees>36.82994582690298557281494140625</LatitudeDegrees>
              <LongitudeDegrees>-4.3870500661432743072509765625</LongitudeDegrees>
            </Position>
            <AltitudeMeters>848</AltitudeMeters>
            <DistanceMeters>NAN</DistanceMeters>
          </Trackpoint>
          <Trackpoint>
            <Time>2022-06-16T09:37:50.000Z</Time>
            <Position>
              <LatitudeDegrees>36.82995353825390338897705078125</LatitudeDegrees>
              <LongitudeDegrees>-4.38714168034493923187255859375</LongitudeDegrees>
            </Position>
            <AltitudeMeters>848.20001220703125</AltitudeMeters>
            <DistanceMeters>NAN</DistanceMeters>
          </Trackpoint>
          <Trackpoint>
            <Time>2022-06-16T09:38:00.000Z</Time>
            <Position>
              <LatitudeDegrees>36.82989452965557575225830078125</LatitudeDegrees>
              <LongitudeDegrees>-4.387303702533245086669921875</LongitudeDegrees>
            </Position>
            <AltitudeMeters>845.4000244140625</AltitudeMeters>
            <DistanceMeters>NAN</DistanceMeters>
          </Trackpoint>
          <Trackpoint>
            <Time>2022-06-16T09:38:02.000Z</Time>
            <Position>
              <LatitudeDegrees>36.82988882996141910552978515625</LatitudeDegrees>
              <LongitudeDegrees>-4.38733513467013835906982421875</LongitudeDegrees>
            </Position>
            <AltitudeMeters>845.4000244140625</AltitudeMeters>
            <DistanceMeters>NAN</DistanceMeters>
          </Trackpoint>
          <Trackpoint>
            <Time>2022-06-16T09:38:10.000Z</Time>
            <Position>
              <LatitudeDegrees>36.82985681109130382537841796875</LatitudeDegrees>
              <LongitudeDegrees>-4.3874748609960079193115234375</LongitudeDegrees>
            </Position>
            <AltitudeMeters>844.4000244140625</AltitudeMeters>
            <DistanceMeters>NAN</DistanceMeters>
          </Trackpoint>
          <Trackpoint>
            <Time>2022-06-16T09:38:20.000Z</Time>
            <Position>
              <LatitudeDegrees>36.82979579083621501922607421875</LatitudeDegrees>
              <LongitudeDegrees>-4.387672506272792816162109375</LongitudeDegrees>
            </Position>
            <AltitudeMeters>843</AltitudeMeters>
            <DistanceMeters>NAN</DistanceMeters>
          </Trackpoint>
          <Trackpoint>
            <Time>2022-06-16T09:38:30.000Z</Time>
            <Position>
              <LatitudeDegrees>36.82978640310466289520263671875</LatitudeDegrees>
              <LongitudeDegrees>-4.3878030963242053985595703125</LongitudeDegrees>
            </Position>
            <AltitudeMeters>843.5999755859375</AltitudeMeters>
            <DistanceMeters>NAN</DistanceMeters>
          </Trackpoint>
          <Trackpoint>
            <Time>2022-06-16T09:38:40.000Z</Time>
            <Position>
              <LatitudeDegrees>36.82984692044556140899658203125</LatitudeDegrees>
              <LongitudeDegrees>-4.38794902525842189788818359375</LongitudeDegrees>
            </Position>
            <AltitudeMeters>846.5999755859375</AltitudeMeters>
            <DistanceMeters>NAN</DistanceMeters>
          </Trackpoint>
          <Trackpoint>
            <Time>2022-06-16T09:38:50.000Z</Time>
            <Position>
              <LatitudeDegrees>36.829944737255573272705078125</LatitudeDegrees>
              <LongitudeDegrees>-4.38805614598095417022705078125</LongitudeDegrees>
            </Position>
            <AltitudeMeters>849.20001220703125</AltitudeMeters>
            <DistanceMeters>NAN</DistanceMeters>
          </Trackpoint>
          <Trackpoint>
            <Time>2022-06-16T09:39:00.000Z</Time>
            <Position>
              <LatitudeDegrees>36.8300572223961353302001953125</LatitudeDegrees>
              <LongitudeDegrees>-4.38813342712819576263427734375</LongitudeDegrees>
            </Position>
            <AltitudeMeters>850.5999755859375</AltitudeMeters>
            <DistanceMeters>NAN</DistanceMeters>
          </Trackpoint>
          <Trackpoint>
            <Time>2022-06-16T09:39:10.000Z</Time>
            <Position>
              <LatitudeDegrees>36.8301641754806041717529296875</LatitudeDegrees>
              <LongitudeDegrees>-4.38818338327109813690185546875</LongitudeDegrees>
            </Position>
            <AltitudeMeters>851.5999755859375</AltitudeMeters>
            <DistanceMeters>NAN</DistanceMeters>
          </Trackpoint>
          <Trackpoint>
            <Time>2022-06-16T09:39:20.000Z</Time>
            <Position>
              <LatitudeDegrees>36.83027473278343677520751953125</LatitudeDegrees>
              <LongitudeDegrees>-4.3882493488490581512451171875</LongitudeDegrees>
            </Position>
            <AltitudeMeters>854.5999755859375</AltitudeMeters>
            <DistanceMeters>NAN</DistanceMeters>
          </Trackpoint>
          <Trackpoint>
            <Time>2022-06-16T09:39:23.000Z</Time>
            <Position>
              <LatitudeDegrees>36.83030574582517147064208984375</LatitudeDegrees>
              <LongitudeDegrees>-4.3882550485432147979736328125</LongitudeDegrees>
            </Position>
            <AltitudeMeters>855.79998779296875</AltitudeMeters>
            <DistanceMeters>NAN</DistanceMeters>
          </Trackpoint>
          <Trackpoint>
            <Time>2022-06-16T09:39:30.000Z</Time>
            <Position>
              <LatitudeDegrees>36.8303978629410266876220703125</LatitudeDegrees>
              <LongitudeDegrees>-4.3882912583649158477783203125</LongitudeDegrees>
            </Position>
            <AltitudeMeters>858.79998779296875</AltitudeMeters>
            <DistanceMeters>NAN</DistanceMeters>
          </Trackpoint>
          <Trackpoint>
            <Time>2022-06-16T09:39:40.000Z</Time>
            <Position>
              <LatitudeDegrees>36.83049894869327545166015625</LatitudeDegrees>
              <LongitudeDegrees>-4.38841053284704685211181640625</LongitudeDegrees>
            </Position>
            <AltitudeMeters>857</AltitudeMeters>
            <DistanceMeters>NAN</DistanceMeters>
          </Trackpoint>
          <Trackpoint>
            <Time>2022-06-16T09:39:50.000Z</Time>
            <Position>
              <LatitudeDegrees>36.83058201335370540618896484375</LatitudeDegrees>
              <LongitudeDegrees>-4.3885083496570587158203125</LongitudeDegrees>
            </Position>
            <AltitudeMeters>856.20001220703125</AltitudeMeters>
            <DistanceMeters>NAN</DistanceMeters>
          </Trackpoint>
          <Trackpoint>
            <Time>2022-06-16T09:40:00.000Z</Time>
            <Position>
              <LatitudeDegrees>36.83067102916538715362548828125</LatitudeDegrees>
              <LongitudeDegrees>-4.3886134587228298187255859375</LongitudeDegrees>
            </Position>
            <AltitudeMeters>855.4000244140625</AltitudeMeters>
            <DistanceMeters>NAN</DistanceMeters>
          </Trackpoint>
          <Trackpoint>
            <Time>2022-06-16T09:40:10.000Z</Time>
            <Position>
              <LatitudeDegrees>36.830743364989757537841796875</LatitudeDegrees>
              <LongitudeDegrees>-4.38876056112349033355712890625</LongitudeDegrees>
            </Position>
            <AltitudeMeters>851.79998779296875</AltitudeMeters>
            <DistanceMeters>NAN</DistanceMeters>
          </Trackpoint>
          <Trackpoint>
            <Time>2022-06-16T09:40:12.000Z</Time>
            <Position>
              <LatitudeDegrees>36.83076004497706890106201171875</LatitudeDegrees>
              <LongitudeDegrees>-4.38879408873617649078369140625</LongitudeDegrees>
            </Position>
            <AltitudeMeters>851.5999755859375</AltitudeMeters>
            <DistanceMeters>NAN</DistanceMeters>
          </Trackpoint>
          <Trackpoint>
            <Time>2022-06-16T09:40:15.000Z</Time>
            <Position>
              <LatitudeDegrees>36.83078862726688385009765625</LatitudeDegrees>
              <LongitudeDegrees>-4.38883650116622447967529296875</LongitudeDegrees>
            </Position>
            <AltitudeMeters>851.5999755859375</AltitudeMeters>
            <DistanceMeters>NAN</DistanceMeters>
          </Trackpoint>
          <Trackpoint>
            <Time>2022-06-16T09:40:17.000Z</Time>
            <Position>
              <LatitudeDegrees>36.83080480434000492095947265625</LatitudeDegrees>
              <LongitudeDegrees>-4.3888585455715656280517578125</LongitudeDegrees>
            </Position>
            <AltitudeMeters>851.5999755859375</AltitudeMeters>
            <DistanceMeters>NAN</DistanceMeters>
          </Trackpoint>
          <Trackpoint>
            <Time>2022-06-16T09:40:19.000Z</Time>
            <Position>
              <LatitudeDegrees>36.8308169580996036529541015625</LatitudeDegrees>
              <LongitudeDegrees>-4.3888865411281585693359375</LongitudeDegrees>
            </Position>
            <AltitudeMeters>850.5999755859375</AltitudeMeters>
            <DistanceMeters>NAN</DistanceMeters>
          </Trackpoint>
          <Trackpoint>
            <Time>2022-06-16T09:40:20.000Z</Time>
            <Position>
              <LatitudeDegrees>36.83082240633666515350341796875</LatitudeDegrees>
              <LongitudeDegrees>-4.38889852724969387054443359375</LongitudeDegrees>
            </Position>
            <AltitudeMeters>850.20001220703125</AltitudeMeters>
            <DistanceMeters>NAN</DistanceMeters>
          </Trackpoint>
          <Trackpoint>
            <Time>2022-06-16T09:40:21.000Z</Time>
            <Position>
              <LatitudeDegrees>36.830828525125980377197265625</LatitudeDegrees>
              <LongitudeDegrees>-4.3889115191996097564697265625</LongitudeDegrees>
            </Position>
            <AltitudeMeters>850</AltitudeMeters>
            <DistanceMeters>NAN</DistanceMeters>
          </Trackpoint>
          <Trackpoint>
            <Time>2022-06-16T09:40:25.000Z</Time>
            <Position>
              <LatitudeDegrees>36.83086146600544452667236328125</LatitudeDegrees>
              <LongitudeDegrees>-4.3889587931334972381591796875</LongitudeDegrees>
            </Position>
            <AltitudeMeters>849.4000244140625</AltitudeMeters>
            <DistanceMeters>NAN</DistanceMeters>
          </Trackpoint>
          <Trackpoint>
            <Time>2022-06-16T09:40:28.000Z</Time>
            <Position>
              <LatitudeDegrees>36.83087672106921672821044921875</LatitudeDegrees>
              <LongitudeDegrees>-4.3889832682907581329345703125</LongitudeDegrees>
            </Position>
            <AltitudeMeters>849.5999755859375</AltitudeMeters>
            <DistanceMeters>NAN</DistanceMeters>
          </Trackpoint>
          <Trackpoint>
            <Time>2022-06-16T09:40:30.000Z</Time>
            <Position>
              <LatitudeDegrees>36.830884180963039398193359375</LatitudeDegrees>
              <LongitudeDegrees>-4.38900246284902095794677734375</LongitudeDegrees>
            </Position>
            <AltitudeMeters>849.4000244140625</AltitudeMeters>
            <DistanceMeters>NAN</DistanceMeters>
          </Trackpoint>
          <Trackpoint>
            <Time>2022-06-16T09:40:31.000Z</Time>
            <Position>
              <LatitudeDegrees>36.83089029975235462188720703125</LatitudeDegrees>
              <LongitudeDegrees>-4.389013610780239105224609375</LongitudeDegrees>
            </Position>
            <AltitudeMeters>849.4000244140625</AltitudeMeters>
            <DistanceMeters>NAN</DistanceMeters>
          </Trackpoint>
          <Trackpoint>
            <Time>2022-06-16T09:40:32.000Z</Time>
            <Position>
              <LatitudeDegrees>36.8308957479894161224365234375</LatitudeDegrees>
              <LongitudeDegrees>-4.389025680720806121826171875</LongitudeDegrees>
            </Position>
            <AltitudeMeters>849.4000244140625</AltitudeMeters>
            <DistanceMeters>NAN</DistanceMeters>
          </Trackpoint>
          <Trackpoint>
            <Time>2022-06-16T09:40:33.000Z</Time>
            <Position>
              <LatitudeDegrees>36.8309017829596996307373046875</LatitudeDegrees>
              <LongitudeDegrees>-4.38903800211846828460693359375</LongitudeDegrees>
            </Position>
            <AltitudeMeters>849.4000244140625</AltitudeMeters>
            <DistanceMeters>NAN</DistanceMeters>
          </Trackpoint>
          <Trackpoint>
            <Time>2022-06-16T09:40:34.000Z</Time>
            <Position>
              <LatitudeDegrees>36.8309081532061100006103515625</LatitudeDegrees>
              <LongitudeDegrees>-4.38905292190611362457275390625</LongitudeDegrees>
            </Position>
            <AltitudeMeters>849.20001220703125</AltitudeMeters>
            <DistanceMeters>NAN</DistanceMeters>
          </Trackpoint>
          <Trackpoint>
            <Time>2022-06-16T09:40:37.000Z</Time>
            <Position>
              <LatitudeDegrees>36.830931119620800018310546875</LatitudeDegrees>
              <LongitudeDegrees>-4.38909432850778102874755859375</LongitudeDegrees>
            </Position>
            <AltitudeMeters>849.20001220703125</AltitudeMeters>
            <DistanceMeters>NAN</DistanceMeters>
          </Trackpoint>
          <Trackpoint>
            <Time>2022-06-16T09:40:39.000Z</Time>
            <Position>
              <LatitudeDegrees>36.8309423513710498809814453125</LatitudeDegrees>
              <LongitudeDegrees>-4.38911964185535907745361328125</LongitudeDegrees>
            </Position>
            <AltitudeMeters>848.79998779296875</AltitudeMeters>
            <DistanceMeters>NAN</DistanceMeters>
          </Trackpoint>
          <Trackpoint>
            <Time>2022-06-16T09:40:40.000Z</Time>
            <Position>
              <LatitudeDegrees>36.8309477157890796661376953125</LatitudeDegrees>
              <LongitudeDegrees>-4.3891328014433383941650390625</LongitudeDegrees>
            </Position>
            <AltitudeMeters>849</AltitudeMeters>
            <DistanceMeters>NAN</DistanceMeters>
          </Trackpoint>
          <Trackpoint>
            <Time>2022-06-16T09:40:44.000Z</Time>
            <Position>
              <LatitudeDegrees>36.8309678323566913604736328125</LatitudeDegrees>
              <LongitudeDegrees>-4.38916825689375400543212890625</LongitudeDegrees>
            </Position>
            <AltitudeMeters>849.5999755859375</AltitudeMeters>
            <DistanceMeters>NAN</DistanceMeters>
          </Trackpoint>
          <Trackpoint>
            <Time>2022-06-16T09:40:50.000Z</Time>
            <Position>
              <LatitudeDegrees>36.830994151532649993896484375</LatitudeDegrees>
              <LongitudeDegrees>-4.389230199158191680908203125</LongitudeDegrees>
            </Position>
            <AltitudeMeters>850.4000244140625</AltitudeMeters>
            <DistanceMeters>NAN</DistanceMeters>
          </Trackpoint>
          <Trackpoint>
            <Time>2022-06-16T09:41:00.000Z</Time>
            <Position>
              <LatitudeDegrees>36.831046454608440399169921875</LatitudeDegrees>
              <LongitudeDegrees>-4.38934318721294403076171875</LongitudeDegrees>
            </Position>
            <AltitudeMeters>851.79998779296875</AltitudeMeters>
            <DistanceMeters>NAN</DistanceMeters>
          </Trackpoint>
          <Trackpoint>
            <Time>2022-06-16T09:41:10.000Z</Time>
            <Position>
              <LatitudeDegrees>36.83106900192797183990478515625</LatitudeDegrees>
              <LongitudeDegrees>-4.38950370065867900848388671875</LongitudeDegrees>
            </Position>
            <AltitudeMeters>851.20001220703125</AltitudeMeters>
            <DistanceMeters>NAN</DistanceMeters>
          </Trackpoint>
          <Trackpoint>
            <Time>2022-06-16T09:41:15.000Z</Time>
            <Position>
              <LatitudeDegrees>36.8310523219406604766845703125</LatitudeDegrees>
              <LongitudeDegrees>-4.3896214663982391357421875</LongitudeDegrees>
            </Position>
            <AltitudeMeters>850</AltitudeMeters>
            <DistanceMeters>NAN</DistanceMeters>
          </Trackpoint>
          <Trackpoint>
            <Time>2022-06-16T09:41:20.000Z</Time>
            <Position>
              <LatitudeDegrees>36.831055842339992523193359375</LatitudeDegrees>
              <LongitudeDegrees>-4.38971894793212413787841796875</LongitudeDegrees>
            </Position>
            <AltitudeMeters>849.79998779296875</AltitudeMeters>
            <DistanceMeters>NAN</DistanceMeters>
          </Trackpoint>
          <Trackpoint>
            <Time>2022-06-16T09:41:30.000Z</Time>
            <Position>
              <LatitudeDegrees>36.8310570158064365386962890625</LatitudeDegrees>
              <LongitudeDegrees>-4.38988138921558856964111328125</LongitudeDegrees>
            </Position>
            <AltitudeMeters>848.20001220703125</AltitudeMeters>
            <DistanceMeters>NAN</DistanceMeters>
          </Trackpoint>
          <Trackpoint>
            <Time>2022-06-16T09:41:40.000Z</Time>
            <Position>
              <LatitudeDegrees>36.8310905434191226959228515625</LatitudeDegrees>
              <LongitudeDegrees>-4.3900313414633274078369140625</LongitudeDegrees>
            </Position>
            <AltitudeMeters>848.79998779296875</AltitudeMeters>
            <DistanceMeters>NAN</DistanceMeters>
          </Trackpoint>
          <Trackpoint>
            <Time>2022-06-16T09:41:50.000Z</Time>
            <Position>
              <LatitudeDegrees>36.831136308610439300537109375</LatitudeDegrees>
              <LongitudeDegrees>-4.3901282362639904022216796875</LongitudeDegrees>
            </Position>
            <AltitudeMeters>850.20001220703125</AltitudeMeters>
            <DistanceMeters>NAN</DistanceMeters>
          </Trackpoint>
          <Trackpoint>
            <Time>2022-06-16T09:41:52.000Z</Time>
            <Position>
              <LatitudeDegrees>36.8311415053904056549072265625</LatitudeDegrees>
              <LongitudeDegrees>-4.390161596238613128662109375</LongitudeDegrees>
            </Position>
            <AltitudeMeters>850</AltitudeMeters>
            <DistanceMeters>NAN</DistanceMeters>
          </Trackpoint>
          <Trackpoint>
            <Time>2022-06-16T09:41:53.000Z</Time>
            <Position>
              <LatitudeDegrees>36.83114293031394481658935546875</LatitudeDegrees>
              <LongitudeDegrees>-4.39017190597951412200927734375</LongitudeDegrees>
            </Position>
            <AltitudeMeters>850</AltitudeMeters>
            <DistanceMeters>NAN</DistanceMeters>
          </Trackpoint>
          <Trackpoint>
            <Time>2022-06-16T09:41:57.000Z</Time>
            <Position>
              <LatitudeDegrees>36.8311468698084354400634765625</LatitudeDegrees>
              <LongitudeDegrees>-4.3902107141911983489990234375</LongitudeDegrees>
            </Position>
            <AltitudeMeters>849.79998779296875</AltitudeMeters>
            <DistanceMeters>NAN</DistanceMeters>
          </Trackpoint>
          <Trackpoint>
            <Time>2022-06-16T09:42:00.000Z</Time>
            <Position>
              <LatitudeDegrees>36.83114980347454547882080078125</LatitudeDegrees>
              <LongitudeDegrees>-4.3902462534606456756591796875</LongitudeDegrees>
            </Position>
            <AltitudeMeters>849.5999755859375</AltitudeMeters>
            <DistanceMeters>NAN</DistanceMeters>
          </Trackpoint>
          <Trackpoint>
            <Time>2022-06-16T09:42:02.000Z</Time>
            <Position>
              <LatitudeDegrees>36.831155754625797271728515625</LatitudeDegrees>
              <LongitudeDegrees>-4.390270225703716278076171875</LongitudeDegrees>
            </Position>
            <AltitudeMeters>849.5999755859375</AltitudeMeters>
            <DistanceMeters>NAN</DistanceMeters>
          </Trackpoint>
          <Trackpoint>
            <Time>2022-06-16T09:42:03.000Z</Time>
            <Position>
              <LatitudeDegrees>36.83115852065384387969970703125</LatitudeDegrees>
              <LongitudeDegrees>-4.39028539694845676422119140625</LongitudeDegrees>
            </Position>
            <AltitudeMeters>849.5999755859375</AltitudeMeters>
            <DistanceMeters>NAN</DistanceMeters>
          </Trackpoint>
          <Trackpoint>
            <Time>2022-06-16T09:42:04.000Z</Time>
            <Position>
              <LatitudeDegrees>36.831163130700588226318359375</LatitudeDegrees>
              <LongitudeDegrees>-4.39030182547867298126220703125</LongitudeDegrees>
            </Position>
            <AltitudeMeters>849.79998779296875</AltitudeMeters>
            <DistanceMeters>NAN</DistanceMeters>
          </Trackpoint>
          <Trackpoint>
            <Time>2022-06-16T09:42:05.000Z</Time>
            <Position>
              <LatitudeDegrees>36.83116539381444454193115234375</LatitudeDegrees>
              <LongitudeDegrees>-4.3903186731040477752685546875</LongitudeDegrees>
            </Position>
            <AltitudeMeters>849.79998779296875</AltitudeMeters>
            <DistanceMeters>NAN</DistanceMeters>
          </Trackpoint>
          <Trackpoint>
            <Time>2022-06-16T09:42:06.000Z</Time>
            <Position>
              <LatitudeDegrees>36.83116623200476169586181640625</LatitudeDegrees>
              <LongitudeDegrees>-4.39033518545329570770263671875</LongitudeDegrees>
            </Position>
            <AltitudeMeters>849.79998779296875</AltitudeMeters>
            <DistanceMeters>NAN</DistanceMeters>
          </Trackpoint>
          <Trackpoint>
            <Time>2022-06-16T09:42:07.000Z</Time>
            <Position>
              <LatitudeDegrees>36.831161789596080780029296875</LatitudeDegrees>
              <LongitudeDegrees>-4.39035077579319477081298828125</LongitudeDegrees>
            </Position>
            <AltitudeMeters>849.5999755859375</AltitudeMeters>
            <DistanceMeters>NAN</DistanceMeters>
          </Trackpoint>
          <Trackpoint>
            <Time>2022-06-16T09:42:08.000Z</Time>
            <Position>
              <LatitudeDegrees>36.83115701191127300262451171875</LatitudeDegrees>
              <LongitudeDegrees>-4.39036720432341098785400390625</LongitudeDegrees>
            </Position>
            <AltitudeMeters>849.20001220703125</AltitudeMeters>
            <DistanceMeters>NAN</DistanceMeters>
          </Trackpoint>
          <Trackpoint>
            <Time>2022-06-16T09:42:10.000Z</Time>
            <Position>
              <LatitudeDegrees>36.83115416206419467926025390625</LatitudeDegrees>
              <LongitudeDegrees>-4.3904068507254123687744140625</LongitudeDegrees>
            </Position>
            <AltitudeMeters>849</AltitudeMeters>
            <DistanceMeters>NAN</DistanceMeters>
          </Trackpoint>
          <Trackpoint>
            <Time>2022-06-16T09:42:20.000Z</Time>
            <Position>
              <LatitudeDegrees>36.8311498872935771942138671875</LatitudeDegrees>
              <LongitudeDegrees>-4.3905459903180599212646484375</LongitudeDegrees>
            </Position>
            <AltitudeMeters>848.4000244140625</AltitudeMeters>
            <DistanceMeters>NAN</DistanceMeters>
          </Trackpoint>
          <Trackpoint>
            <Time>2022-06-16T09:42:27.000Z</Time>
            <Position>
              <LatitudeDegrees>36.83113656006753444671630859375</LatitudeDegrees>
              <LongitudeDegrees>-4.390610195696353912353515625</LongitudeDegrees>
            </Position>
            <AltitudeMeters>847.5999755859375</AltitudeMeters>
            <DistanceMeters>NAN</DistanceMeters>
          </Trackpoint>
          <Trackpoint>
            <Time>2022-06-16T09:42:30.000Z</Time>
            <Position>
              <LatitudeDegrees>36.8311166949570178985595703125</LatitudeDegrees>
              <LongitudeDegrees>-4.3906586430966854095458984375</LongitudeDegrees>
            </Position>
            <AltitudeMeters>846.4000244140625</AltitudeMeters>
            <DistanceMeters>NAN</DistanceMeters>
          </Trackpoint>
          <Trackpoint>
            <Time>2022-06-16T09:42:40.000Z</Time>
            <Position>
              <LatitudeDegrees>36.83105927892029285430908203125</LatitudeDegrees>
              <LongitudeDegrees>-4.39088545739650726318359375</LongitudeDegrees>
            </Position>
            <AltitudeMeters>843.5999755859375</AltitudeMeters>
            <DistanceMeters>NAN</DistanceMeters>
          </Trackpoint>
          <Trackpoint>
            <Time>2022-06-16T09:42:50.000Z</Time>
            <Position>
              <LatitudeDegrees>36.83100094087421894073486328125</LatitudeDegrees>
              <LongitudeDegrees>-4.3910311348736286163330078125</LongitudeDegrees>
            </Position>
            <AltitudeMeters>841</AltitudeMeters>
            <DistanceMeters>NAN</DistanceMeters>
          </Trackpoint>
          <Trackpoint>
            <Time>2022-06-16T09:43:00.000Z</Time>
            <Position>
              <LatitudeDegrees>36.83093371801078319549560546875</LatitudeDegrees>
              <LongitudeDegrees>-4.3911639042198657989501953125</LongitudeDegrees>
            </Position>
            <AltitudeMeters>838.5999755859375</AltitudeMeters>
            <DistanceMeters>NAN</DistanceMeters>
          </Trackpoint>
          <Trackpoint>
            <Time>2022-06-16T09:43:08.000Z</Time>
            <Position>
              <LatitudeDegrees>36.83087990619242191314697265625</LatitudeDegrees>
              <LongitudeDegrees>-4.3912805803120136260986328125</LongitudeDegrees>
            </Position>
            <AltitudeMeters>837.79998779296875</AltitudeMeters>
            <DistanceMeters>NAN</DistanceMeters>
          </Trackpoint>
          <Trackpoint>
            <Time>2022-06-16T09:43:10.000Z</Time>
            <Position>
              <LatitudeDegrees>36.83086934499442577362060546875</LatitudeDegrees>
              <LongitudeDegrees>-4.39130564220249652862548828125</LongitudeDegrees>
            </Position>
            <AltitudeMeters>837.5999755859375</AltitudeMeters>
            <DistanceMeters>NAN</DistanceMeters>
          </Trackpoint>
          <Trackpoint>
            <Time>2022-06-16T09:43:20.000Z</Time>
            <Position>
              <LatitudeDegrees>36.83089725673198699951171875</LatitudeDegrees>
              <LongitudeDegrees>-4.39147914759814739227294921875</LongitudeDegrees>
            </Position>
            <AltitudeMeters>837.79998779296875</AltitudeMeters>
            <DistanceMeters>NAN</DistanceMeters>
          </Trackpoint>
          <Trackpoint>
            <Time>2022-06-16T09:43:30.000Z</Time>
            <Position>
              <LatitudeDegrees>36.8310275115072727203369140625</LatitudeDegrees>
              <LongitudeDegrees>-4.3915256671607494354248046875</LongitudeDegrees>
            </Position>
            <AltitudeMeters>840</AltitudeMeters>
            <DistanceMeters>NAN</DistanceMeters>
          </Trackpoint>
          <Trackpoint>
            <Time>2022-06-16T09:43:40.000Z</Time>
            <Position>
              <LatitudeDegrees>36.83109833858907222747802734375</LatitudeDegrees>
              <LongitudeDegrees>-4.3915179558098316192626953125</LongitudeDegrees>
            </Position>
            <AltitudeMeters>840.5999755859375</AltitudeMeters>
            <DistanceMeters>NAN</DistanceMeters>
          </Trackpoint>
          <Trackpoint>
            <Time>2022-06-16T09:43:50.000Z</Time>
            <Position>
              <LatitudeDegrees>36.83110035024583339691162109375</LatitudeDegrees>
              <LongitudeDegrees>-4.39148300327360630035400390625</LongitudeDegrees>
            </Position>
            <AltitudeMeters>841.4000244140625</AltitudeMeters>
            <DistanceMeters>NAN</DistanceMeters>
          </Trackpoint>
          <Trackpoint>
            <Time>2022-06-16T09:44:00.000Z</Time>
            <Position>
              <LatitudeDegrees>36.83112884871661663055419921875</LatitudeDegrees>
              <LongitudeDegrees>-4.39147956669330596923828125</LongitudeDegrees>
            </Position>
            <AltitudeMeters>841.5999755859375</AltitudeMeters>
            <DistanceMeters>NAN</DistanceMeters>
          </Trackpoint>
          <Trackpoint>
            <Time>2022-06-16T09:44:10.000Z</Time>
            <Position>
              <LatitudeDegrees>36.83115181513130664825439453125</LatitudeDegrees>
              <LongitudeDegrees>-4.3914695084095001220703125</LongitudeDegrees>
            </Position>
            <AltitudeMeters>842</AltitudeMeters>
            <DistanceMeters>NAN</DistanceMeters>
          </Trackpoint>
          <Trackpoint>
            <Time>2022-06-16T09:44:17.000Z</Time>
            <Position>
              <LatitudeDegrees>36.83114913292229175567626953125</LatitudeDegrees>
              <LongitudeDegrees>-4.3914612941443920135498046875</LongitudeDegrees>
            </Position>
            <AltitudeMeters>842.20001220703125</AltitudeMeters>
            <DistanceMeters>NAN</DistanceMeters>
          </Trackpoint>
          <Trackpoint>
            <Time>2022-06-16T09:44:20.000Z</Time>
            <Position>
              <LatitudeDegrees>36.83114469051361083984375</LatitudeDegrees>
              <LongitudeDegrees>-4.39146481454372406005859375</LongitudeDegrees>
            </Position>
            <AltitudeMeters>842.20001220703125</AltitudeMeters>
            <DistanceMeters>NAN</DistanceMeters>
          </Trackpoint>
          <Trackpoint>
            <Time>2022-06-16T09:44:30.000Z</Time>
            <Position>
              <LatitudeDegrees>36.83112415485084056854248046875</LatitudeDegrees>
              <LongitudeDegrees>-4.39146506600081920623779296875</LongitudeDegrees>
            </Position>
            <AltitudeMeters>842</AltitudeMeters>
            <DistanceMeters>NAN</DistanceMeters>
          </Trackpoint>
          <Trackpoint>
            <Time>2022-06-16T09:44:40.000Z</Time>
            <Position>
              <LatitudeDegrees>36.83114963583648204803466796875</LatitudeDegrees>
              <LongitudeDegrees>-4.3914663232862949371337890625</LongitudeDegrees>
            </Position>
            <AltitudeMeters>842</AltitudeMeters>
            <DistanceMeters>NAN</DistanceMeters>
          </Trackpoint>
          <Trackpoint>
            <Time>2022-06-16T09:44:50.000Z</Time>
            <Position>
              <LatitudeDegrees>36.83116354979574680328369140625</LatitudeDegrees>
              <LongitudeDegrees>-4.39145148731768131256103515625</LongitudeDegrees>
            </Position>
            <AltitudeMeters>842.5999755859375</AltitudeMeters>
            <DistanceMeters>NAN</DistanceMeters>
          </Trackpoint>
          <Trackpoint>
            <Time>2022-06-16T09:44:59.000Z</Time>
            <Position>
              <LatitudeDegrees>36.831136643886566162109375</LatitudeDegrees>
              <LongitudeDegrees>-4.391451738774776458740234375</LongitudeDegrees>
            </Position>
            <AltitudeMeters>842.4000244140625</AltitudeMeters>
            <DistanceMeters>NAN</DistanceMeters>
          </Trackpoint>
          <Trackpoint>
            <Time>2022-06-16T09:45:00.000Z</Time>
            <Position>
              <LatitudeDegrees>36.831131279468536376953125</LatitudeDegrees>
              <LongitudeDegrees>-4.3914520740509033203125</LongitudeDegrees>
            </Position>
            <AltitudeMeters>842.4000244140625</AltitudeMeters>
            <DistanceMeters>NAN</DistanceMeters>
          </Trackpoint>
          <Trackpoint>
            <Time>2022-06-16T09:45:10.000Z</Time>
            <Position>
              <LatitudeDegrees>36.83115181513130664825439453125</LatitudeDegrees>
              <LongitudeDegrees>-4.391455762088298797607421875</LongitudeDegrees>
            </Position>
            <AltitudeMeters>842.4000244140625</AltitudeMeters>
            <DistanceMeters>NAN</DistanceMeters>
          </Trackpoint>
          <Trackpoint>
            <Time>2022-06-16T09:45:20.000Z</Time>
            <Position>
              <LatitudeDegrees>36.83118852786719799041748046875</LatitudeDegrees>
              <LongitudeDegrees>-4.3914324603974819183349609375</LongitudeDegrees>
            </Position>
            <AltitudeMeters>843</AltitudeMeters>
            <DistanceMeters>NAN</DistanceMeters>
          </Trackpoint>
          <Trackpoint>
            <Time>2022-06-16T09:45:29.000Z</Time>
            <Position>
              <LatitudeDegrees>36.83117561973631381988525390625</LatitudeDegrees>
              <LongitudeDegrees>-4.39141192473471164703369140625</LongitudeDegrees>
            </Position>
            <AltitudeMeters>843.5999755859375</AltitudeMeters>
            <DistanceMeters>NAN</DistanceMeters>
          </Trackpoint>
          <Trackpoint>
            <Time>2022-06-16T09:45:30.000Z</Time>
            <Position>
              <LatitudeDegrees>36.83117687702178955078125</LatitudeDegrees>
              <LongitudeDegrees>-4.39141343347728252410888671875</LongitudeDegrees>
            </Position>
            <AltitudeMeters>843.5999755859375</AltitudeMeters>
            <DistanceMeters>NAN</DistanceMeters>
          </Trackpoint>
          <Trackpoint>
            <Time>2022-06-16T09:45:32.000Z</Time>
            <Position>
              <LatitudeDegrees>36.83118349872529506683349609375</LatitudeDegrees>
              <LongitudeDegrees>-4.39141259528696537017822265625</LongitudeDegrees>
            </Position>
            <AltitudeMeters>843.5999755859375</AltitudeMeters>
            <DistanceMeters>NAN</DistanceMeters>
          </Trackpoint>
          <Trackpoint>
            <Time>2022-06-16T09:45:34.000Z</Time>
            <Position>
              <LatitudeDegrees>36.83118249289691448211669921875</LatitudeDegrees>
              <LongitudeDegrees>-4.3914093263447284698486328125</LongitudeDegrees>
            </Position>
            <AltitudeMeters>843.5999755859375</AltitudeMeters>
            <DistanceMeters>NAN</DistanceMeters>
          </Trackpoint>
          <Trackpoint>
            <Time>2022-06-16T09:45:35.000Z</Time>
            <Position>
              <LatitudeDegrees>36.8311835825443267822265625</LatitudeDegrees>
              <LongitudeDegrees>-4.39140672795474529266357421875</LongitudeDegrees>
            </Position>
            <AltitudeMeters>843.79998779296875</AltitudeMeters>
            <DistanceMeters>NAN</DistanceMeters>
          </Trackpoint>
          <Trackpoint>
            <Time>2022-06-16T09:45:36.000Z</Time>
            <Position>
              <LatitudeDegrees>36.83119037188589572906494140625</LatitudeDegrees>
              <LongitudeDegrees>-4.3914063088595867156982421875</LongitudeDegrees>
            </Position>
            <AltitudeMeters>843.79998779296875</AltitudeMeters>
            <DistanceMeters>NAN</DistanceMeters>
          </Trackpoint>
          <Trackpoint>
            <Time>2022-06-16T09:45:38.000Z</Time>
            <Position>
              <LatitudeDegrees>36.83121283538639545440673828125</LatitudeDegrees>
              <LongitudeDegrees>-4.39141360111534595489501953125</LongitudeDegrees>
            </Position>
            <AltitudeMeters>843.5999755859375</AltitudeMeters>
            <DistanceMeters>NAN</DistanceMeters>
          </Trackpoint>
          <Trackpoint>
            <Time>2022-06-16T09:45:40.000Z</Time>
            <Position>
              <LatitudeDegrees>36.8312357179820537567138671875</LatitudeDegrees>
              <LongitudeDegrees>-4.3914170376956462860107421875</LongitudeDegrees>
            </Position>
            <AltitudeMeters>843.4000244140625</AltitudeMeters>
            <DistanceMeters>NAN</DistanceMeters>
          </Trackpoint>
          <Trackpoint>
            <Time>2022-06-16T09:45:43.000Z</Time>
            <Position>
              <LatitudeDegrees>36.83120462112128734588623046875</LatitudeDegrees>
              <LongitudeDegrees>-4.39140119589865207672119140625</LongitudeDegrees>
            </Position>
            <AltitudeMeters>844</AltitudeMeters>
            <DistanceMeters>NAN</DistanceMeters>
          </Trackpoint>
          <Trackpoint>
            <Time>2022-06-16T09:45:47.000Z</Time>
            <Position>
              <LatitudeDegrees>36.83111661113798618316650390625</LatitudeDegrees>
              <LongitudeDegrees>-4.39139197580516338348388671875</LongitudeDegrees>
            </Position>
            <AltitudeMeters>842.79998779296875</AltitudeMeters>
            <DistanceMeters>NAN</DistanceMeters>
          </Trackpoint>
          <Trackpoint>
            <Time>2022-06-16T09:45:50.000Z</Time>
            <Position>
              <LatitudeDegrees>36.8310717679560184478759765625</LatitudeDegrees>
              <LongitudeDegrees>-4.391384683549404144287109375</LongitudeDegrees>
            </Position>
            <AltitudeMeters>842</AltitudeMeters>
            <DistanceMeters>NAN</DistanceMeters>
          </Trackpoint>
          <Trackpoint>
            <Time>2022-06-16T09:46:00.000Z</Time>
            <Position>
              <LatitudeDegrees>36.83107889257371425628662109375</LatitudeDegrees>
              <LongitudeDegrees>-4.39141594804823398590087890625</LongitudeDegrees>
            </Position>
            <AltitudeMeters>842</AltitudeMeters>
            <DistanceMeters>NAN</DistanceMeters>
          </Trackpoint>
          <Trackpoint>
            <Time>2022-06-16T09:46:10.000Z</Time>
            <Position>
              <LatitudeDegrees>36.831161789596080780029296875</LatitudeDegrees>
              <LongitudeDegrees>-4.3914281018078327178955078125</LongitudeDegrees>
            </Position>
            <AltitudeMeters>843.20001220703125</AltitudeMeters>
            <DistanceMeters>NAN</DistanceMeters>
          </Trackpoint>
          <Trackpoint>
            <Time>2022-06-16T09:46:20.000Z</Time>
            <Position>
              <LatitudeDegrees>36.83120512403547763824462890625</LatitudeDegrees>
              <LongitudeDegrees>-4.39142516814172267913818359375</LongitudeDegrees>
            </Position>
            <AltitudeMeters>843.4000244140625</AltitudeMeters>
            <DistanceMeters>NAN</DistanceMeters>
          </Trackpoint>
          <Trackpoint>
            <Time>2022-06-16T09:46:30.000Z</Time>
            <Position>
              <LatitudeDegrees>36.8312157690525054931640625</LatitudeDegrees>
              <LongitudeDegrees>-4.3914297781884670257568359375</LongitudeDegrees>
            </Position>
            <AltitudeMeters>843.20001220703125</AltitudeMeters>
            <DistanceMeters>NAN</DistanceMeters>
          </Trackpoint>
          <Trackpoint>
            <Time>2022-06-16T09:46:40.000Z</Time>
            <Position>
              <LatitudeDegrees>36.8311988376080989837646484375</LatitudeDegrees>
              <LongitudeDegrees>-4.39146171323955059051513671875</LongitudeDegrees>
            </Position>
            <AltitudeMeters>842.4000244140625</AltitudeMeters>
            <DistanceMeters>NAN</DistanceMeters>
          </Trackpoint>
          <Trackpoint>
            <Time>2022-06-16T09:46:50.000Z</Time>
            <Position>
              <LatitudeDegrees>36.8312533199787139892578125</LatitudeDegrees>
              <LongitudeDegrees>-4.3914802372455596923828125</LongitudeDegrees>
            </Position>
            <AltitudeMeters>841.79998779296875</AltitudeMeters>
            <DistanceMeters>NAN</DistanceMeters>
          </Trackpoint>
          <Trackpoint>
            <Time>2022-06-16T09:46:53.000Z</Time>
            <Position>
              <LatitudeDegrees>36.8312747776508331298828125</LatitudeDegrees>
              <LongitudeDegrees>-4.39148384146392345428466796875</LongitudeDegrees>
            </Position>
            <AltitudeMeters>841.5999755859375</AltitudeMeters>
            <DistanceMeters>NAN</DistanceMeters>
          </Trackpoint>
          <Trackpoint>
            <Time>2022-06-16T09:46:54.000Z</Time>
            <Position>
              <LatitudeDegrees>36.83128525502979755401611328125</LatitudeDegrees>
              <LongitudeDegrees>-4.391482584178447723388671875</LongitudeDegrees>
            </Position>
            <AltitudeMeters>841.5999755859375</AltitudeMeters>
            <DistanceMeters>NAN</DistanceMeters>
          </Trackpoint>
          <Trackpoint>
            <Time>2022-06-16T09:46:55.000Z</Time>
            <Position>
              <LatitudeDegrees>36.831292212009429931640625</LatitudeDegrees>
              <LongitudeDegrees>-4.3914857693016529083251953125</LongitudeDegrees>
            </Position>
            <AltitudeMeters>841.4000244140625</AltitudeMeters>
            <DistanceMeters>NAN</DistanceMeters>
          </Trackpoint>
          <Trackpoint>
            <Time>2022-06-16T09:46:57.000Z</Time>
            <Position>
              <LatitudeDegrees>36.8313044495880603790283203125</LatitudeDegrees>
              <LongitudeDegrees>-4.391482584178447723388671875</LongitudeDegrees>
            </Position>
            <AltitudeMeters>841.5999755859375</AltitudeMeters>
            <DistanceMeters>NAN</DistanceMeters>
          </Trackpoint>
          <Trackpoint>
            <Time>2022-06-16T09:46:58.000Z</Time>
            <Position>
              <LatitudeDegrees>36.8313131667673587799072265625</LatitudeDegrees>
              <LongitudeDegrees>-4.39148082397878170013427734375</LongitudeDegrees>
            </Position>
            <AltitudeMeters>841.5999755859375</AltitudeMeters>
            <DistanceMeters>NAN</DistanceMeters>
          </Trackpoint>
          <Trackpoint>
            <Time>2022-06-16T09:46:59.000Z</Time>
            <Position>
              <LatitudeDegrees>36.831316016614437103271484375</LatitudeDegrees>
              <LongitudeDegrees>-4.39147579483687877655029296875</LongitudeDegrees>
            </Position>
            <AltitudeMeters>841.5999755859375</AltitudeMeters>
            <DistanceMeters>NAN</DistanceMeters>
          </Trackpoint>
          <Trackpoint>
            <Time>2022-06-16T09:47:00.000Z</Time>
            <Position>
              <LatitudeDegrees>36.83132213540375232696533203125</LatitudeDegrees>
              <LongitudeDegrees>-4.39147411845624446868896484375</LongitudeDegrees>
            </Position>
            <AltitudeMeters>841.5999755859375</AltitudeMeters>
            <DistanceMeters>NAN</DistanceMeters>
          </Trackpoint>
          <Trackpoint>
            <Time>2022-06-16T09:47:02.000Z</Time>
            <Position>
              <LatitudeDegrees>36.83133789338171482086181640625</LatitudeDegrees>
              <LongitudeDegrees>-4.3914696760475635528564453125</LongitudeDegrees>
            </Position>
            <AltitudeMeters>841.79998779296875</AltitudeMeters>
            <DistanceMeters>NAN</DistanceMeters>
          </Trackpoint>
          <Trackpoint>
            <Time>2022-06-16T09:47:06.000Z</Time>
            <Position>
              <LatitudeDegrees>36.83137443847954273223876953125</LatitudeDegrees>
              <LongitudeDegrees>-4.39146523363888263702392578125</LongitudeDegrees>
            </Position>
            <AltitudeMeters>841.5999755859375</AltitudeMeters>
            <DistanceMeters>NAN</DistanceMeters>
          </Trackpoint>
          <Trackpoint>
            <Time>2022-06-16T09:47:07.000Z</Time>
            <Position>
              <LatitudeDegrees>36.831382401287555694580078125</LatitudeDegrees>
              <LongitudeDegrees>-4.39146640710532665252685546875</LongitudeDegrees>
            </Position>
            <AltitudeMeters>841.5999755859375</AltitudeMeters>
            <DistanceMeters>NAN</DistanceMeters>
          </Trackpoint>
          <Trackpoint>
            <Time>2022-06-16T09:47:09.000Z</Time>
            <Position>
              <LatitudeDegrees>36.83139556087553501129150390625</LatitudeDegrees>
              <LongitudeDegrees>-4.39146741293370723724365234375</LongitudeDegrees>
            </Position>
            <AltitudeMeters>841.4000244140625</AltitudeMeters>
            <DistanceMeters>NAN</DistanceMeters>
          </Trackpoint>
          <Trackpoint>
            <Time>2022-06-16T09:47:10.000Z</Time>
            <Position>
              <LatitudeDegrees>36.831401176750659942626953125</LatitudeDegrees>
              <LongitudeDegrees>-4.3914695084095001220703125</LongitudeDegrees>
            </Position>
            <AltitudeMeters>841.20001220703125</AltitudeMeters>
            <DistanceMeters>NAN</DistanceMeters>
          </Trackpoint>
          <Trackpoint>
            <Time>2022-06-16T09:47:13.000Z</Time>
            <Position>
              <LatitudeDegrees>36.83141450397670269012451171875</LatitudeDegrees>
              <LongitudeDegrees>-4.39147378318011760711669921875</LongitudeDegrees>
            </Position>
            <AltitudeMeters>840.79998779296875</AltitudeMeters>
            <DistanceMeters>NAN</DistanceMeters>
          </Trackpoint>
          <Trackpoint>
            <Time>2022-06-16T09:47:14.000Z</Time>
            <Position>
              <LatitudeDegrees>36.83141894638538360595703125</LatitudeDegrees>
              <LongitudeDegrees>-4.39147395081818103790283203125</LongitudeDegrees>
            </Position>
            <AltitudeMeters>840.79998779296875</AltitudeMeters>
            <DistanceMeters>NAN</DistanceMeters>
          </Trackpoint>
          <Trackpoint>
            <Time>2022-06-16T09:47:15.000Z</Time>
            <Position>
              <LatitudeDegrees>36.83142355643212795257568359375</LatitudeDegrees>
              <LongitudeDegrees>-4.3914733640849590301513671875</LongitudeDegrees>
            </Position>
            <AltitudeMeters>840.79998779296875</AltitudeMeters>
            <DistanceMeters>NAN</DistanceMeters>
          </Trackpoint>
          <Trackpoint>
            <Time>2022-06-16T09:47:20.000Z</Time>
            <Position>
              <LatitudeDegrees>36.83146161027252674102783203125</LatitudeDegrees>
              <LongitudeDegrees>-4.3914529122412204742431640625</LongitudeDegrees>
            </Position>
            <AltitudeMeters>840.79998779296875</AltitudeMeters>
            <DistanceMeters>NAN</DistanceMeters>
          </Trackpoint>
          <Trackpoint>
            <Time>2022-06-16T09:47:23.000Z</Time>
            <Position>
              <LatitudeDegrees>36.83148860000073909759521484375</LatitudeDegrees>
              <LongitudeDegrees>-4.3914441950619220733642578125</LongitudeDegrees>
            </Position>
            <AltitudeMeters>840.79998779296875</AltitudeMeters>
            <DistanceMeters>NAN</DistanceMeters>
          </Trackpoint>
          <Trackpoint>
            <Time>2022-06-16T09:47:24.000Z</Time>
            <Position>
              <LatitudeDegrees>36.83149673044681549072265625</LatitudeDegrees>
              <LongitudeDegrees>-4.39144394360482692718505859375</LongitudeDegrees>
            </Position>
            <AltitudeMeters>840.79998779296875</AltitudeMeters>
            <DistanceMeters>NAN</DistanceMeters>
          </Trackpoint>
          <Trackpoint>
            <Time>2022-06-16T09:47:25.000Z</Time>
            <Position>
              <LatitudeDegrees>36.8315062858164310455322265625</LatitudeDegrees>
              <LongitudeDegrees>-4.391441680490970611572265625</LongitudeDegrees>
            </Position>
            <AltitudeMeters>840.79998779296875</AltitudeMeters>
            <DistanceMeters>NAN</DistanceMeters>
          </Trackpoint>
          <Trackpoint>
            <Time>2022-06-16T09:47:30.000Z</Time>
            <Position>
              <LatitudeDegrees>36.83155599050223827362060546875</LatitudeDegrees>
              <LongitudeDegrees>-4.391427598893642425537109375</LongitudeDegrees>
            </Position>
            <AltitudeMeters>840.79998779296875</AltitudeMeters>
            <DistanceMeters>NAN</DistanceMeters>
          </Trackpoint>
          <Trackpoint>
            <Time>2022-06-16T09:47:33.000Z</Time>
            <Position>
              <LatitudeDegrees>36.8315870873630046844482421875</LatitudeDegrees>
              <LongitudeDegrees>-4.39142583869397640228271484375</LongitudeDegrees>
            </Position>
            <AltitudeMeters>840.4000244140625</AltitudeMeters>
            <DistanceMeters>NAN</DistanceMeters>
          </Trackpoint>
          <Trackpoint>
            <Time>2022-06-16T09:47:36.000Z</Time>
            <Position>
              <LatitudeDegrees>36.831619776785373687744140625</LatitudeDegrees>
              <LongitudeDegrees>-4.39142533577978610992431640625</LongitudeDegrees>
            </Position>
            <AltitudeMeters>840.20001220703125</AltitudeMeters>
            <DistanceMeters>NAN</DistanceMeters>
          </Trackpoint>
          <Trackpoint>
            <Time>2022-06-16T09:47:38.000Z</Time>
            <Position>
              <LatitudeDegrees>36.8316440843045711517333984375</LatitudeDegrees>
              <LongitudeDegrees>-4.3914265930652618408203125</LongitudeDegrees>
            </Position>
            <AltitudeMeters>839.79998779296875</AltitudeMeters>
            <DistanceMeters>NAN</DistanceMeters>
          </Trackpoint>
          <Trackpoint>
            <Time>2022-06-16T09:47:40.000Z</Time>
            <Position>
              <LatitudeDegrees>36.8316715769469738006591796875</LatitudeDegrees>
              <LongitudeDegrees>-4.391430281102657318115234375</LongitudeDegrees>
            </Position>
            <AltitudeMeters>839.4000244140625</AltitudeMeters>
            <DistanceMeters>NAN</DistanceMeters>
          </Trackpoint>
          <Trackpoint>
            <Time>2022-06-16T09:47:42.000Z</Time>
            <Position>
              <LatitudeDegrees>36.83169881813228130340576171875</LatitudeDegrees>
              <LongitudeDegrees>-4.3914265930652618408203125</LongitudeDegrees>
            </Position>
            <AltitudeMeters>839.20001220703125</AltitudeMeters>
            <DistanceMeters>NAN</DistanceMeters>
          </Trackpoint>
          <Trackpoint>
            <Time>2022-06-16T09:47:43.000Z</Time>
            <Position>
              <LatitudeDegrees>36.83171155862510204315185546875</LatitudeDegrees>
              <LongitudeDegrees>-4.39142919145524501800537109375</LongitudeDegrees>
            </Position>
            <AltitudeMeters>838.79998779296875</AltitudeMeters>
            <DistanceMeters>NAN</DistanceMeters>
          </Trackpoint>
          <Trackpoint>
            <Time>2022-06-16T09:47:48.000Z</Time>
            <Position>
              <LatitudeDegrees>36.8317683041095733642578125</LatitudeDegrees>
              <LongitudeDegrees>-4.391424246132373809814453125</LongitudeDegrees>
            </Position>
            <AltitudeMeters>838</AltitudeMeters>
            <DistanceMeters>NAN</DistanceMeters>
          </Trackpoint>
          <Trackpoint>
            <Time>2022-06-16T09:47:50.000Z</Time>
            <Position>
              <LatitudeDegrees>36.8317962996661663055419921875</LatitudeDegrees>
              <LongitudeDegrees>-4.39142365939915180206298828125</LongitudeDegrees>
            </Position>
            <AltitudeMeters>837.79998779296875</AltitudeMeters>
            <DistanceMeters>NAN</DistanceMeters>
          </Trackpoint>
          <Trackpoint>
            <Time>2022-06-16T09:48:00.000Z</Time>
            <Position>
              <LatitudeDegrees>36.83192596770823001861572265625</LatitudeDegrees>
              <LongitudeDegrees>-4.39142080955207347869873046875</LongitudeDegrees>
            </Position>
            <AltitudeMeters>836.5999755859375</AltitudeMeters>
            <DistanceMeters>NAN</DistanceMeters>
          </Trackpoint>
          <Trackpoint>
            <Time>2022-06-16T09:48:10.000Z</Time>
            <Position>
              <LatitudeDegrees>36.832044236361980438232421875</LatitudeDegrees>
              <LongitudeDegrees>-4.391416199505329132080078125</LongitudeDegrees>
            </Position>
            <AltitudeMeters>836.20001220703125</AltitudeMeters>
            <DistanceMeters>NAN</DistanceMeters>
          </Trackpoint>
          <Trackpoint>
            <Time>2022-06-16T09:48:20.000Z</Time>
            <Position>
              <LatitudeDegrees>36.8321718089282512664794921875</LatitudeDegrees>
              <LongitudeDegrees>-4.391427598893642425537109375</LongitudeDegrees>
            </Position>
            <AltitudeMeters>835.79998779296875</AltitudeMeters>
            <DistanceMeters>NAN</DistanceMeters>
          </Trackpoint>
          <Trackpoint>
            <Time>2022-06-16T09:48:24.000Z</Time>
            <Position>
              <LatitudeDegrees>36.8322318233549594879150390625</LatitudeDegrees>
              <LongitudeDegrees>-4.39143422059714794158935546875</LongitudeDegrees>
            </Position>
            <AltitudeMeters>835.5999755859375</AltitudeMeters>
            <DistanceMeters>NAN</DistanceMeters>
          </Trackpoint>
          <Trackpoint>
            <Time>2022-06-16T09:48:26.000Z</Time>
            <Position>
              <LatitudeDegrees>36.8322551250457763671875</LatitudeDegrees>
              <LongitudeDegrees>-4.39144344069063663482666015625</LongitudeDegrees>
            </Position>
            <AltitudeMeters>835.20001220703125</AltitudeMeters>
            <DistanceMeters>NAN</DistanceMeters>
          </Trackpoint>
          <Trackpoint>
            <Time>2022-06-16T09:48:27.000Z</Time>
            <Position>
              <LatitudeDegrees>36.832266859710216522216796875</LatitudeDegrees>
              <LongitudeDegrees>-4.3914495594799518585205078125</LongitudeDegrees>
            </Position>
            <AltitudeMeters>835</AltitudeMeters>
            <DistanceMeters>NAN</DistanceMeters>
          </Trackpoint>
          <Trackpoint>
            <Time>2022-06-16T09:48:30.000Z</Time>
            <Position>
              <LatitudeDegrees>36.83230164460837841033935546875</LatitudeDegrees>
              <LongitudeDegrees>-4.3914566002786159515380859375</LongitudeDegrees>
            </Position>
            <AltitudeMeters>834.79998779296875</AltitudeMeters>
            <DistanceMeters>NAN</DistanceMeters>
          </Trackpoint>
          <Trackpoint>
            <Time>2022-06-16T09:48:35.000Z</Time>
            <Position>
              <LatitudeDegrees>36.8323666043579578399658203125</LatitudeDegrees>
              <LongitudeDegrees>-4.39147152006626129150390625</LongitudeDegrees>
            </Position>
            <AltitudeMeters>834</AltitudeMeters>
            <DistanceMeters>NAN</DistanceMeters>
          </Trackpoint>
          <Trackpoint>
            <Time>2022-06-16T09:48:38.000Z</Time>
            <Position>
              <LatitudeDegrees>36.83239820413291454315185546875</LatitudeDegrees>
              <LongitudeDegrees>-4.39148015342652797698974609375</LongitudeDegrees>
            </Position>
            <AltitudeMeters>833.4000244140625</AltitudeMeters>
            <DistanceMeters>NAN</DistanceMeters>
          </Trackpoint>
          <Trackpoint>
            <Time>2022-06-16T09:48:39.000Z</Time>
            <Position>
              <LatitudeDegrees>36.832408010959625244140625</LatitudeDegrees>
              <LongitudeDegrees>-4.3914829194545745849609375</LongitudeDegrees>
            </Position>
            <AltitudeMeters>833.4000244140625</AltitudeMeters>
            <DistanceMeters>NAN</DistanceMeters>
          </Trackpoint>
          <Trackpoint>
            <Time>2022-06-16T09:48:40.000Z</Time>
            <Position>
              <LatitudeDegrees>36.83241865597665309906005859375</LatitudeDegrees>
              <LongitudeDegrees>-4.39148535020649433135986328125</LongitudeDegrees>
            </Position>
            <AltitudeMeters>833.20001220703125</AltitudeMeters>
            <DistanceMeters>NAN</DistanceMeters>
          </Trackpoint>
          <Trackpoint>
            <Time>2022-06-16T09:48:50.000Z</Time>
            <Position>
              <LatitudeDegrees>36.83251488022506237030029296875</LatitudeDegrees>
              <LongitudeDegrees>-4.3915112502872943878173828125</LongitudeDegrees>
            </Position>
            <AltitudeMeters>831.79998779296875</AltitudeMeters>
            <DistanceMeters>NAN</DistanceMeters>
          </Trackpoint>
          <Trackpoint>
            <Time>2022-06-16T09:48:55.000Z</Time>
            <Position>
              <LatitudeDegrees>36.83257221244275569915771484375</LatitudeDegrees>
              <LongitudeDegrees>-4.391538910567760467529296875</LongitudeDegrees>
            </Position>
            <AltitudeMeters>830.79998779296875</AltitudeMeters>
            <DistanceMeters>NAN</DistanceMeters>
          </Trackpoint>
          <Trackpoint>
            <Time>2022-06-16T09:49:00.000Z</Time>
            <Position>
              <LatitudeDegrees>36.8326281197369098663330078125</LatitudeDegrees>
              <LongitudeDegrees>-4.391569085419178009033203125</LongitudeDegrees>
            </Position>
            <AltitudeMeters>829.5999755859375</AltitudeMeters>
            <DistanceMeters>NAN</DistanceMeters>
          </Trackpoint>
          <Trackpoint>
            <Time>2022-06-16T09:49:09.000Z</Time>
            <Position>
              <LatitudeDegrees>36.83274420909583568572998046875</LatitudeDegrees>
              <LongitudeDegrees>-4.3916037864983081817626953125</LongitudeDegrees>
            </Position>
            <AltitudeMeters>828.79998779296875</AltitudeMeters>
            <DistanceMeters>NAN</DistanceMeters>
          </Trackpoint>
          <Trackpoint>
            <Time>2022-06-16T09:49:10.000Z</Time>
            <Position>
              <LatitudeDegrees>36.832758374512195587158203125</LatitudeDegrees>
              <LongitudeDegrees>-4.39161099493503570556640625</LongitudeDegrees>
            </Position>
            <AltitudeMeters>828.5999755859375</AltitudeMeters>
            <DistanceMeters>NAN</DistanceMeters>
          </Trackpoint>
          <Trackpoint>
            <Time>2022-06-16T09:49:18.000Z</Time>
            <Position>
              <LatitudeDegrees>36.83286465704441070556640625</LatitudeDegrees>
              <LongitudeDegrees>-4.3916733562946319580078125</LongitudeDegrees>
            </Position>
            <AltitudeMeters>826.79998779296875</AltitudeMeters>
            <DistanceMeters>NAN</DistanceMeters>
          </Trackpoint>
          <Trackpoint>
            <Time>2022-06-16T09:49:20.000Z</Time>
            <Position>
              <LatitudeDegrees>36.8328933231532573699951171875</LatitudeDegrees>
              <LongitudeDegrees>-4.39168601296842098236083984375</LongitudeDegrees>
            </Position>
            <AltitudeMeters>826.79998779296875</AltitudeMeters>
            <DistanceMeters>NAN</DistanceMeters>
          </Trackpoint>
          <Trackpoint>
            <Time>2022-06-16T09:49:30.000Z</Time>
            <Position>
              <LatitudeDegrees>36.8330358155071735382080078125</LatitudeDegrees>
              <LongitudeDegrees>-4.391788356006145477294921875</LongitudeDegrees>
            </Position>
            <AltitudeMeters>825</AltitudeMeters>
            <DistanceMeters>NAN</DistanceMeters>
          </Trackpoint>
          <Trackpoint>
            <Time>2022-06-16T09:49:35.000Z</Time>
            <Position>
              <LatitudeDegrees>36.8330720253288745880126953125</LatitudeDegrees>
              <LongitudeDegrees>-4.39184895716607570648193359375</LongitudeDegrees>
            </Position>
            <AltitudeMeters>823.79998779296875</AltitudeMeters>
            <DistanceMeters>NAN</DistanceMeters>
          </Trackpoint>
          <Trackpoint>
            <Time>2022-06-16T09:49:40.000Z</Time>
            <Position>
              <LatitudeDegrees>36.833100356161594390869140625</LatitudeDegrees>
              <LongitudeDegrees>-4.3919397331774234771728515625</LongitudeDegrees>
            </Position>
            <AltitudeMeters>821.20001220703125</AltitudeMeters>
            <DistanceMeters>NAN</DistanceMeters>
          </Trackpoint>
          <Trackpoint>
            <Time>2022-06-16T09:49:50.000Z</Time>
            <Position>
              <LatitudeDegrees>36.83315508998930454254150390625</LatitudeDegrees>
              <LongitudeDegrees>-4.3920403160154819488525390625</LongitudeDegrees>
            </Position>
            <AltitudeMeters>818.5999755859375</AltitudeMeters>
            <DistanceMeters>NAN</DistanceMeters>
          </Trackpoint>
          <Trackpoint>
            <Time>2022-06-16T09:50:00.000Z</Time>
            <Position>
              <LatitudeDegrees>36.83322608470916748046875</LatitudeDegrees>
              <LongitudeDegrees>-4.39214366488158702850341796875</LongitudeDegrees>
            </Position>
            <AltitudeMeters>815.79998779296875</AltitudeMeters>
            <DistanceMeters>NAN</DistanceMeters>
          </Trackpoint>
          <Trackpoint>
            <Time>2022-06-16T09:50:10.000Z</Time>
            <Position>
              <LatitudeDegrees>36.83332658372819423675537109375</LatitudeDegrees>
              <LongitudeDegrees>-4.39222781918942928314208984375</LongitudeDegrees>
            </Position>
            <AltitudeMeters>815.79998779296875</AltitudeMeters>
            <DistanceMeters>NAN</DistanceMeters>
          </Trackpoint>
          <Trackpoint>
            <Time>2022-06-16T09:50:20.000Z</Time>
            <Position>
              <LatitudeDegrees>36.833432279527187347412109375</LatitudeDegrees>
              <LongitudeDegrees>-4.39231415279209613800048828125</LongitudeDegrees>
            </Position>
            <AltitudeMeters>815</AltitudeMeters>
            <DistanceMeters>NAN</DistanceMeters>
          </Trackpoint>
          <Trackpoint>
            <Time>2022-06-16T09:50:30.000Z</Time>
            <Position>
              <LatitudeDegrees>36.8335504643619060516357421875</LatitudeDegrees>
              <LongitudeDegrees>-4.39239864237606525421142578125</LongitudeDegrees>
            </Position>
            <AltitudeMeters>813.5999755859375</AltitudeMeters>
            <DistanceMeters>NAN</DistanceMeters>
          </Trackpoint>
          <Trackpoint>
            <Time>2022-06-16T09:50:39.000Z</Time>
            <Position>
              <LatitudeDegrees>36.8336547352373600006103515625</LatitudeDegrees>
              <LongitudeDegrees>-4.39245999790728092193603515625</LongitudeDegrees>
            </Position>
            <AltitudeMeters>813.5999755859375</AltitudeMeters>
            <DistanceMeters>NAN</DistanceMeters>
          </Trackpoint>
          <Trackpoint>
            <Time>2022-06-16T09:50:40.000Z</Time>
            <Position>
              <LatitudeDegrees>36.83366688899695873260498046875</LatitudeDegrees>
              <LongitudeDegrees>-4.39246594905853271484375</LongitudeDegrees>
            </Position>
            <AltitudeMeters>813.5999755859375</AltitudeMeters>
            <DistanceMeters>NAN</DistanceMeters>
          </Trackpoint>
          <Trackpoint>
            <Time>2022-06-16T09:50:41.000Z</Time>
            <Position>
              <LatitudeDegrees>36.83367912657558917999267578125</LatitudeDegrees>
              <LongitudeDegrees>-4.392470978200435638427734375</LongitudeDegrees>
            </Position>
            <AltitudeMeters>813.5999755859375</AltitudeMeters>
            <DistanceMeters>NAN</DistanceMeters>
          </Trackpoint>
          <Trackpoint>
            <Time>2022-06-16T09:50:50.000Z</Time>
            <Position>
              <LatitudeDegrees>36.8337700702250003814697265625</LatitudeDegrees>
              <LongitudeDegrees>-4.39255638979375362396240234375</LongitudeDegrees>
            </Position>
            <AltitudeMeters>810.5999755859375</AltitudeMeters>
            <DistanceMeters>NAN</DistanceMeters>
          </Trackpoint>
          <Trackpoint>
            <Time>2022-06-16T09:50:55.000Z</Time>
            <Position>
              <LatitudeDegrees>36.83381994254887104034423828125</LatitudeDegrees>
              <LongitudeDegrees>-4.3926143087446689605712890625</LongitudeDegrees>
            </Position>
            <AltitudeMeters>808.20001220703125</AltitudeMeters>
            <DistanceMeters>NAN</DistanceMeters>
          </Trackpoint>
          <Trackpoint>
            <Time>2022-06-16T09:51:00.000Z</Time>
            <Position>
              <LatitudeDegrees>36.83387090452015399932861328125</LatitudeDegrees>
              <LongitudeDegrees>-4.39266954548656940460205078125</LongitudeDegrees>
            </Position>
            <AltitudeMeters>807.79998779296875</AltitudeMeters>
            <DistanceMeters>NAN</DistanceMeters>
          </Trackpoint>
          <Trackpoint>
            <Time>2022-06-16T09:51:01.000Z</Time>
            <Position>
              <LatitudeDegrees>36.8338818848133087158203125</LatitudeDegrees>
              <LongitudeDegrees>-4.3926803581416606903076171875</LongitudeDegrees>
            </Position>
            <AltitudeMeters>807.5999755859375</AltitudeMeters>
            <DistanceMeters>NAN</DistanceMeters>
          </Trackpoint>
          <Trackpoint>
            <Time>2022-06-16T09:51:10.000Z</Time>
            <Position>
              <LatitudeDegrees>36.83397148735821247100830078125</LatitudeDegrees>
              <LongitudeDegrees>-4.39276434481143951416015625</LongitudeDegrees>
            </Position>
            <AltitudeMeters>807.20001220703125</AltitudeMeters>
            <DistanceMeters>NAN</DistanceMeters>
          </Trackpoint>
          <Trackpoint>
            <Time>2022-06-16T09:51:20.000Z</Time>
            <Position>
              <LatitudeDegrees>36.834096126258373260498046875</LatitudeDegrees>
              <LongitudeDegrees>-4.392867274582386016845703125</LongitudeDegrees>
            </Position>
            <AltitudeMeters>805.4000244140625</AltitudeMeters>
            <DistanceMeters>NAN</DistanceMeters>
          </Trackpoint>
          <Trackpoint>
            <Time>2022-06-16T09:51:30.000Z</Time>
            <Position>
              <LatitudeDegrees>36.834187991917133331298828125</LatitudeDegrees>
              <LongitudeDegrees>-4.39298336394131183624267578125</LongitudeDegrees>
            </Position>
            <AltitudeMeters>805</AltitudeMeters>
            <DistanceMeters>NAN</DistanceMeters>
          </Trackpoint>
          <Trackpoint>
            <Time>2022-06-16T09:51:37.000Z</Time>
            <Position>
              <LatitudeDegrees>36.8342190049588680267333984375</LatitudeDegrees>
              <LongitudeDegrees>-4.39311194233596324920654296875</LongitudeDegrees>
            </Position>
            <AltitudeMeters>803.20001220703125</AltitudeMeters>
            <DistanceMeters>NAN</DistanceMeters>
          </Trackpoint>
          <Trackpoint>
            <Time>2022-06-16T09:51:40.000Z</Time>
            <Position>
              <LatitudeDegrees>36.834224872291088104248046875</LatitudeDegrees>
              <LongitudeDegrees>-4.39316122792661190032958984375</LongitudeDegrees>
            </Position>
            <AltitudeMeters>802.5999755859375</AltitudeMeters>
            <DistanceMeters>NAN</DistanceMeters>
          </Trackpoint>
          <Trackpoint>
            <Time>2022-06-16T09:51:43.000Z</Time>
            <Position>
              <LatitudeDegrees>36.83422529138624668121337890625</LatitudeDegrees>
              <LongitudeDegrees>-4.393214285373687744140625</LongitudeDegrees>
            </Position>
            <AltitudeMeters>801.5999755859375</AltitudeMeters>
            <DistanceMeters>NAN</DistanceMeters>
          </Trackpoint>
          <Trackpoint>
            <Time>2022-06-16T09:51:49.000Z</Time>
            <Position>
              <LatitudeDegrees>36.83421053923666477203369140625</LatitudeDegrees>
              <LongitudeDegrees>-4.39329014159739017486572265625</LongitudeDegrees>
            </Position>
            <AltitudeMeters>799.79998779296875</AltitudeMeters>
            <DistanceMeters>NAN</DistanceMeters>
          </Trackpoint>
          <Trackpoint>
            <Time>2022-06-16T09:51:50.000Z</Time>
            <Position>
              <LatitudeDegrees>36.83420844376087188720703125</LatitudeDegrees>
              <LongitudeDegrees>-4.39330539666116237640380859375</LongitudeDegrees>
            </Position>
            <AltitudeMeters>799.5999755859375</AltitudeMeters>
            <DistanceMeters>NAN</DistanceMeters>
          </Trackpoint>
          <Trackpoint>
            <Time>2022-06-16T09:51:58.000Z</Time>
            <Position>
              <LatitudeDegrees>36.8341858126223087310791015625</LatitudeDegrees>
              <LongitudeDegrees>-4.39342291094362735748291015625</LongitudeDegrees>
            </Position>
            <AltitudeMeters>797.4000244140625</AltitudeMeters>
            <DistanceMeters>NAN</DistanceMeters>
          </Trackpoint>
          <Trackpoint>
            <Time>2022-06-16T09:52:00.000Z</Time>
            <Position>
              <LatitudeDegrees>36.83418623171746730804443359375</LatitudeDegrees>
              <LongitudeDegrees>-4.39345241524279117584228515625</LongitudeDegrees>
            </Position>
            <AltitudeMeters>797</AltitudeMeters>
            <DistanceMeters>NAN</DistanceMeters>
          </Trackpoint>
          <Trackpoint>
            <Time>2022-06-16T09:52:10.000Z</Time>
            <Position>
              <LatitudeDegrees>36.83422931469976902008056640625</LatitudeDegrees>
              <LongitudeDegrees>-4.39358015544712543487548828125</LongitudeDegrees>
            </Position>
            <AltitudeMeters>797</AltitudeMeters>
            <DistanceMeters>NAN</DistanceMeters>
          </Trackpoint>
          <Trackpoint>
            <Time>2022-06-16T09:52:20.000Z</Time>
            <Position>
              <LatitudeDegrees>36.83428488671779632568359375</LatitudeDegrees>
              <LongitudeDegrees>-4.393737316131591796875</LongitudeDegrees>
            </Position>
            <AltitudeMeters>796.5999755859375</AltitudeMeters>
            <DistanceMeters>NAN</DistanceMeters>
          </Trackpoint>
          <Trackpoint>
            <Time>2022-06-16T09:52:30.000Z</Time>
            <Position>
              <LatitudeDegrees>36.83431631885468959808349609375</LatitudeDegrees>
              <LongitudeDegrees>-4.3938166089355945587158203125</LongitudeDegrees>
            </Position>
            <AltitudeMeters>796</AltitudeMeters>
            <DistanceMeters>NAN</DistanceMeters>
          </Trackpoint>
          <Trackpoint>
            <Time>2022-06-16T09:52:40.000Z</Time>
            <Position>
              <LatitudeDegrees>36.83434548787772655487060546875</LatitudeDegrees>
              <LongitudeDegrees>-4.3939000926911830902099609375</LongitudeDegrees>
            </Position>
            <AltitudeMeters>795.4000244140625</AltitudeMeters>
            <DistanceMeters>NAN</DistanceMeters>
          </Trackpoint>
          <Trackpoint>
            <Time>2022-06-16T09:52:50.000Z</Time>
            <Position>
              <LatitudeDegrees>36.834363676607608795166015625</LatitudeDegrees>
              <LongitudeDegrees>-4.39407535828649997711181640625</LongitudeDegrees>
            </Position>
            <AltitudeMeters>794</AltitudeMeters>
            <DistanceMeters>NAN</DistanceMeters>
          </Trackpoint>
          <Trackpoint>
            <Time>2022-06-16T09:53:00.000Z</Time>
            <Position>
              <LatitudeDegrees>36.83437901549041271209716796875</LatitudeDegrees>
              <LongitudeDegrees>-4.39424903132021427154541015625</LongitudeDegrees>
            </Position>
            <AltitudeMeters>791.79998779296875</AltitudeMeters>
            <DistanceMeters>NAN</DistanceMeters>
          </Trackpoint>
          <Trackpoint>
            <Time>2022-06-16T09:53:08.000Z</Time>
            <Position>
              <LatitudeDegrees>36.83440734632313251495361328125</LatitudeDegrees>
              <LongitudeDegrees>-4.39437945373356342315673828125</LongitudeDegrees>
            </Position>
            <AltitudeMeters>790.5999755859375</AltitudeMeters>
            <DistanceMeters>NAN</DistanceMeters>
          </Trackpoint>
          <Trackpoint>
            <Time>2022-06-16T09:53:09.000Z</Time>
            <Position>
              <LatitudeDegrees>36.83441103436052799224853515625</LatitudeDegrees>
              <LongitudeDegrees>-4.39439512789249420166015625</LongitudeDegrees>
            </Position>
            <AltitudeMeters>790.4000244140625</AltitudeMeters>
            <DistanceMeters>NAN</DistanceMeters>
          </Trackpoint>
          <Trackpoint>
            <Time>2022-06-16T09:53:10.000Z</Time>
            <Position>
              <LatitudeDegrees>36.83441556058824062347412109375</LatitudeDegrees>
              <LongitudeDegrees>-4.3944123946130275726318359375</LongitudeDegrees>
            </Position>
            <AltitudeMeters>790.4000244140625</AltitudeMeters>
            <DistanceMeters>NAN</DistanceMeters>
          </Trackpoint>
          <Trackpoint>
            <Time>2022-06-16T09:53:20.000Z</Time>
            <Position>
              <LatitudeDegrees>36.83447607792913913726806640625</LatitudeDegrees>
              <LongitudeDegrees>-4.39454541541635990142822265625</LongitudeDegrees>
            </Position>
            <AltitudeMeters>789.79998779296875</AltitudeMeters>
            <DistanceMeters>NAN</DistanceMeters>
          </Trackpoint>
          <Trackpoint>
            <Time>2022-06-16T09:53:30.000Z</Time>
            <Position>
              <LatitudeDegrees>36.8345355056226253509521484375</LatitudeDegrees>
              <LongitudeDegrees>-4.3946987204253673553466796875</LongitudeDegrees>
            </Position>
            <AltitudeMeters>789.79998779296875</AltitudeMeters>
            <DistanceMeters>NAN</DistanceMeters>
          </Trackpoint>
          <Trackpoint>
            <Time>2022-06-16T09:53:40.000Z</Time>
            <Position>
              <LatitudeDegrees>36.83458395302295684814453125</LatitudeDegrees>
              <LongitudeDegrees>-4.39484515227377414703369140625</LongitudeDegrees>
            </Position>
            <AltitudeMeters>789</AltitudeMeters>
            <DistanceMeters>NAN</DistanceMeters>
          </Trackpoint>
          <Trackpoint>
            <Time>2022-06-16T09:53:44.000Z</Time>
            <Position>
              <LatitudeDegrees>36.83460599742829799652099609375</LatitudeDegrees>
              <LongitudeDegrees>-4.39490969292819499969482421875</LongitudeDegrees>
            </Position>
            <AltitudeMeters>788.5999755859375</AltitudeMeters>
            <DistanceMeters>NAN</DistanceMeters>
          </Trackpoint>
          <Trackpoint>
            <Time>2022-06-16T09:53:50.000Z</Time>
            <Position>
              <LatitudeDegrees>36.8346320651471614837646484375</LatitudeDegrees>
              <LongitudeDegrees>-4.3949997983872890472412109375</LongitudeDegrees>
            </Position>
            <AltitudeMeters>787.79998779296875</AltitudeMeters>
            <DistanceMeters>NAN</DistanceMeters>
          </Trackpoint>
          <Trackpoint>
            <Time>2022-06-16T09:54:00.000Z</Time>
            <Position>
              <LatitudeDegrees>36.83469132520258426666259765625</LatitudeDegrees>
              <LongitudeDegrees>-4.3951557017862796783447265625</LongitudeDegrees>
            </Position>
            <AltitudeMeters>785.20001220703125</AltitudeMeters>
            <DistanceMeters>NAN</DistanceMeters>
          </Trackpoint>
          <Trackpoint>
            <Time>2022-06-16T09:54:10.000Z</Time>
            <Position>
              <LatitudeDegrees>36.83477916754782199859619140625</LatitudeDegrees>
              <LongitudeDegrees>-4.395268522202968597412109375</LongitudeDegrees>
            </Position>
            <AltitudeMeters>783.79998779296875</AltitudeMeters>
            <DistanceMeters>NAN</DistanceMeters>
          </Trackpoint>
          <Trackpoint>
            <Time>2022-06-16T09:54:19.000Z</Time>
            <Position>
              <LatitudeDegrees>36.83486734516918659210205078125</LatitudeDegrees>
              <LongitudeDegrees>-4.39535577781498432159423828125</LongitudeDegrees>
            </Position>
            <AltitudeMeters>783</AltitudeMeters>
            <DistanceMeters>NAN</DistanceMeters>
          </Trackpoint>
          <Trackpoint>
            <Time>2022-06-16T09:54:20.000Z</Time>
            <Position>
              <LatitudeDegrees>36.8348764814436435699462890625</LatitudeDegrees>
              <LongitudeDegrees>-4.39536550082266330718994140625</LongitudeDegrees>
            </Position>
            <AltitudeMeters>782.79998779296875</AltitudeMeters>
            <DistanceMeters>NAN</DistanceMeters>
          </Trackpoint>
          <Trackpoint>
            <Time>2022-06-16T09:54:30.000Z</Time>
            <Position>
              <LatitudeDegrees>36.8349794112145900726318359375</LatitudeDegrees>
              <LongitudeDegrees>-4.39543188549578189849853515625</LongitudeDegrees>
            </Position>
            <AltitudeMeters>782.79998779296875</AltitudeMeters>
            <DistanceMeters>NAN</DistanceMeters>
          </Trackpoint>
          <Trackpoint>
            <Time>2022-06-16T09:54:40.000Z</Time>
            <Position>
              <LatitudeDegrees>36.83507119305431842803955078125</LatitudeDegrees>
              <LongitudeDegrees>-4.3955003656446933746337890625</LongitudeDegrees>
            </Position>
            <AltitudeMeters>783.79998779296875</AltitudeMeters>
            <DistanceMeters>NAN</DistanceMeters>
          </Trackpoint>
          <Trackpoint>
            <Time>2022-06-16T09:54:50.000Z</Time>
            <Position>
              <LatitudeDegrees>36.835141517221927642822265625</LatitudeDegrees>
              <LongitudeDegrees>-4.39557739533483982086181640625</LongitudeDegrees>
            </Position>
            <AltitudeMeters>784.4000244140625</AltitudeMeters>
            <DistanceMeters>NAN</DistanceMeters>
          </Trackpoint>
          <Trackpoint>
            <Time>2022-06-16T09:55:00.000Z</Time>
            <Position>
              <LatitudeDegrees>36.8352006934583187103271484375</LatitudeDegrees>
              <LongitudeDegrees>-4.395661465823650360107421875</LongitudeDegrees>
            </Position>
            <AltitudeMeters>784.79998779296875</AltitudeMeters>
            <DistanceMeters>NAN</DistanceMeters>
          </Trackpoint>
          <Trackpoint>
            <Time>2022-06-16T09:55:10.000Z</Time>
            <Position>
              <LatitudeDegrees>36.83525383472442626953125</LatitudeDegrees>
              <LongitudeDegrees>-4.3957726098597049713134765625</LongitudeDegrees>
            </Position>
            <AltitudeMeters>787</AltitudeMeters>
            <DistanceMeters>NAN</DistanceMeters>
          </Trackpoint>
          <Trackpoint>
            <Time>2022-06-16T09:55:15.000Z</Time>
            <Position>
              <LatitudeDegrees>36.83527529239654541015625</LatitudeDegrees>
              <LongitudeDegrees>-4.39582717604935169219970703125</LongitudeDegrees>
            </Position>
            <AltitudeMeters>787.79998779296875</AltitudeMeters>
            <DistanceMeters>NAN</DistanceMeters>
          </Trackpoint>
          <Trackpoint>
            <Time>2022-06-16T09:55:20.000Z</Time>
            <Position>
              <LatitudeDegrees>36.83530052192509174346923828125</LatitudeDegrees>
              <LongitudeDegrees>-4.39587998203933238983154296875</LongitudeDegrees>
            </Position>
            <AltitudeMeters>788.4000244140625</AltitudeMeters>
            <DistanceMeters>NAN</DistanceMeters>
          </Trackpoint>
          <Trackpoint>
            <Time>2022-06-16T09:55:30.000Z</Time>
            <Position>
              <LatitudeDegrees>36.83534662239253520965576171875</LatitudeDegrees>
              <LongitudeDegrees>-4.39599514938890933990478515625</LongitudeDegrees>
            </Position>
            <AltitudeMeters>791.79998779296875</AltitudeMeters>
            <DistanceMeters>NAN</DistanceMeters>
          </Trackpoint>
          <Trackpoint>
            <Time>2022-06-16T09:55:40.000Z</Time>
            <Position>
              <LatitudeDegrees>36.83538199402391910552978515625</LatitudeDegrees>
              <LongitudeDegrees>-4.39609204418957233428955078125</LongitudeDegrees>
            </Position>
            <AltitudeMeters>794.20001220703125</AltitudeMeters>
            <DistanceMeters>NAN</DistanceMeters>
          </Trackpoint>
          <Trackpoint>
            <Time>2022-06-16T09:55:50.000Z</Time>
            <Position>
              <LatitudeDegrees>36.83539423160254955291748046875</LatitudeDegrees>
              <LongitudeDegrees>-4.39616748131811618804931640625</LongitudeDegrees>
            </Position>
            <AltitudeMeters>794.79998779296875</AltitudeMeters>
            <DistanceMeters>NAN</DistanceMeters>
          </Trackpoint>
          <Trackpoint>
            <Time>2022-06-16T09:56:00.000Z</Time>
            <Position>
              <LatitudeDegrees>36.8354233168065547943115234375</LatitudeDegrees>
              <LongitudeDegrees>-4.39624325372278690338134765625</LongitudeDegrees>
            </Position>
            <AltitudeMeters>795.5999755859375</AltitudeMeters>
            <DistanceMeters>NAN</DistanceMeters>
          </Trackpoint>
          <Trackpoint>
            <Time>2022-06-16T09:56:10.000Z</Time>
            <Position>
              <LatitudeDegrees>36.83544888161122798919677734375</LatitudeDegrees>
              <LongitudeDegrees>-4.396316595375537872314453125</LongitudeDegrees>
            </Position>
            <AltitudeMeters>797</AltitudeMeters>
            <DistanceMeters>NAN</DistanceMeters>
          </Trackpoint>
          <Trackpoint>
            <Time>2022-06-16T09:56:20.000Z</Time>
            <Position>
              <LatitudeDegrees>36.83545424602925777435302734375</LatitudeDegrees>
              <LongitudeDegrees>-4.3963945470750331878662109375</LongitudeDegrees>
            </Position>
            <AltitudeMeters>798</AltitudeMeters>
            <DistanceMeters>NAN</DistanceMeters>
          </Trackpoint>
          <Trackpoint>
            <Time>2022-06-16T09:56:30.000Z</Time>
            <Position>
              <LatitudeDegrees>36.83550269342958927154541015625</LatitudeDegrees>
              <LongitudeDegrees>-4.3964495323598384857177734375</LongitudeDegrees>
            </Position>
            <AltitudeMeters>799.5999755859375</AltitudeMeters>
            <DistanceMeters>NAN</DistanceMeters>
          </Trackpoint>
          <Trackpoint>
            <Time>2022-06-16T09:56:40.000Z</Time>
            <Position>
              <LatitudeDegrees>36.83557678945362567901611328125</LatitudeDegrees>
              <LongitudeDegrees>-4.39646855928003787994384765625</LongitudeDegrees>
            </Position>
            <AltitudeMeters>802.79998779296875</AltitudeMeters>
            <DistanceMeters>NAN</DistanceMeters>
          </Trackpoint>
          <Trackpoint>
            <Time>2022-06-16T09:56:50.000Z</Time>
            <Position>
              <LatitudeDegrees>36.835620291531085968017578125</LatitudeDegrees>
              <LongitudeDegrees>-4.39652220346033573150634765625</LongitudeDegrees>
            </Position>
            <AltitudeMeters>805.5999755859375</AltitudeMeters>
            <DistanceMeters>NAN</DistanceMeters>
          </Trackpoint>
          <Trackpoint>
            <Time>2022-06-16T09:57:00.000Z</Time>
            <Position>
              <LatitudeDegrees>36.8356415815651416778564453125</LatitudeDegrees>
              <LongitudeDegrees>-4.39659914933145046234130859375</LongitudeDegrees>
            </Position>
            <AltitudeMeters>807.4000244140625</AltitudeMeters>
            <DistanceMeters>NAN</DistanceMeters>
          </Trackpoint>
          <Trackpoint>
            <Time>2022-06-16T09:57:10.000Z</Time>
            <Position>
              <LatitudeDegrees>36.83568944223225116729736328125</LatitudeDegrees>
              <LongitudeDegrees>-4.39663946628570556640625</LongitudeDegrees>
            </Position>
            <AltitudeMeters>809</AltitudeMeters>
            <DistanceMeters>NAN</DistanceMeters>
          </Trackpoint>
          <Trackpoint>
            <Time>2022-06-16T09:57:16.000Z</Time>
            <Position>
              <LatitudeDegrees>36.83571626432240009307861328125</LatitudeDegrees>
              <LongitudeDegrees>-4.39666620455682277679443359375</LongitudeDegrees>
            </Position>
            <AltitudeMeters>810</AltitudeMeters>
            <DistanceMeters>NAN</DistanceMeters>
          </Trackpoint>
          <Trackpoint>
            <Time>2022-06-16T09:57:20.000Z</Time>
            <Position>
              <LatitudeDegrees>36.83572967536747455596923828125</LatitudeDegrees>
              <LongitudeDegrees>-4.396683387458324432373046875</LongitudeDegrees>
            </Position>
            <AltitudeMeters>810.5999755859375</AltitudeMeters>
            <DistanceMeters>NAN</DistanceMeters>
          </Trackpoint>
          <Trackpoint>
            <Time>2022-06-16T09:57:30.000Z</Time>
            <Position>
              <LatitudeDegrees>36.835726909339427947998046875</LatitudeDegrees>
              <LongitudeDegrees>-4.39673376269638538360595703125</LongitudeDegrees>
            </Position>
            <AltitudeMeters>811</AltitudeMeters>
            <DistanceMeters>NAN</DistanceMeters>
          </Trackpoint>
          <Trackpoint>
            <Time>2022-06-16T09:57:40.000Z</Time>
            <Position>
              <LatitudeDegrees>36.83573889546096324920654296875</LatitudeDegrees>
              <LongitudeDegrees>-4.39679159782826900482177734375</LongitudeDegrees>
            </Position>
            <AltitudeMeters>812</AltitudeMeters>
            <DistanceMeters>NAN</DistanceMeters>
          </Trackpoint>
          <Trackpoint>
            <Time>2022-06-16T09:57:50.000Z</Time>
            <Position>
              <LatitudeDegrees>36.83575398288667201995849609375</LatitudeDegrees>
              <LongitudeDegrees>-4.396823532879352569580078125</LongitudeDegrees>
            </Position>
            <AltitudeMeters>812.79998779296875</AltitudeMeters>
            <DistanceMeters>NAN</DistanceMeters>
          </Trackpoint>
          <Trackpoint>
            <Time>2022-06-16T09:58:00.000Z</Time>
            <Position>
              <LatitudeDegrees>36.8357716687023639678955078125</LatitudeDegrees>
              <LongitudeDegrees>-4.3968780152499675750732421875</LongitudeDegrees>
            </Position>
            <AltitudeMeters>814.4000244140625</AltitudeMeters>
            <DistanceMeters>NAN</DistanceMeters>
          </Trackpoint>
          <Trackpoint>
            <Time>2022-06-16T09:58:10.000Z</Time>
            <Position>
              <LatitudeDegrees>36.83577024377882480621337890625</LatitudeDegrees>
              <LongitudeDegrees>-4.39694322645664215087890625</LongitudeDegrees>
            </Position>
            <AltitudeMeters>815.20001220703125</AltitudeMeters>
            <DistanceMeters>NAN</DistanceMeters>
          </Trackpoint>
          <Trackpoint>
            <Time>2022-06-16T09:58:20.000Z</Time>
            <Position>
              <LatitudeDegrees>36.835771501064300537109375</LatitudeDegrees>
              <LongitudeDegrees>-4.3970309011638164520263671875</LongitudeDegrees>
            </Position>
            <AltitudeMeters>815.79998779296875</AltitudeMeters>
            <DistanceMeters>NAN</DistanceMeters>
          </Trackpoint>
          <Trackpoint>
            <Time>2022-06-16T09:58:30.000Z</Time>
            <Position>
              <LatitudeDegrees>36.83579270727932453155517578125</LatitudeDegrees>
              <LongitudeDegrees>-4.3971106968820095062255859375</LongitudeDegrees>
            </Position>
            <AltitudeMeters>817.79998779296875</AltitudeMeters>
            <DistanceMeters>NAN</DistanceMeters>
          </Trackpoint>
          <Trackpoint>
            <Time>2022-06-16T09:58:40.000Z</Time>
            <Position>
              <LatitudeDegrees>36.83582774363458156585693359375</LatitudeDegrees>
              <LongitudeDegrees>-4.39718822948634624481201171875</LongitudeDegrees>
            </Position>
            <AltitudeMeters>820.5999755859375</AltitudeMeters>
            <DistanceMeters>NAN</DistanceMeters>
          </Trackpoint>
          <Trackpoint>
            <Time>2022-06-16T09:58:50.000Z</Time>
            <Position>
              <LatitudeDegrees>36.835856325924396514892578125</LatitudeDegrees>
              <LongitudeDegrees>-4.397256039083003997802734375</LongitudeDegrees>
            </Position>
            <AltitudeMeters>822.20001220703125</AltitudeMeters>
            <DistanceMeters>NAN</DistanceMeters>
          </Trackpoint>
          <Trackpoint>
            <Time>2022-06-16T09:59:00.000Z</Time>
            <Position>
              <LatitudeDegrees>36.83587401174008846282958984375</LatitudeDegrees>
              <LongitudeDegrees>-4.39736240543425083160400390625</LongitudeDegrees>
            </Position>
            <AltitudeMeters>823.79998779296875</AltitudeMeters>
            <DistanceMeters>NAN</DistanceMeters>
          </Trackpoint>
          <Trackpoint>
            <Time>2022-06-16T09:59:10.000Z</Time>
            <Position>
              <LatitudeDegrees>36.83589479885995388031005859375</LatitudeDegrees>
              <LongitudeDegrees>-4.39746181480586528778076171875</LongitudeDegrees>
            </Position>
            <AltitudeMeters>825.4000244140625</AltitudeMeters>
            <DistanceMeters>NAN</DistanceMeters>
          </Trackpoint>
          <Trackpoint>
            <Time>2022-06-16T09:59:20.000Z</Time>
            <Position>
              <LatitudeDegrees>36.83593084104359149932861328125</LatitudeDegrees>
              <LongitudeDegrees>-4.3975354917347431182861328125</LongitudeDegrees>
            </Position>
            <AltitudeMeters>827.5999755859375</AltitudeMeters>
            <DistanceMeters>NAN</DistanceMeters>
          </Trackpoint>
          <Trackpoint>
            <Time>2022-06-16T09:59:30.000Z</Time>
            <Position>
              <LatitudeDegrees>36.835961602628231048583984375</LatitudeDegrees>
              <LongitudeDegrees>-4.39760900102555751800537109375</LongitudeDegrees>
            </Position>
            <AltitudeMeters>829.20001220703125</AltitudeMeters>
            <DistanceMeters>NAN</DistanceMeters>
          </Trackpoint>
          <Trackpoint>
            <Time>2022-06-16T09:59:40.000Z</Time>
            <Position>
              <LatitudeDegrees>36.8359818868339061737060546875</LatitudeDegrees>
              <LongitudeDegrees>-4.39768309704959392547607421875</LongitudeDegrees>
            </Position>
            <AltitudeMeters>830.4000244140625</AltitudeMeters>
            <DistanceMeters>NAN</DistanceMeters>
          </Trackpoint>
          <Trackpoint>
            <Time>2022-06-16T09:59:50.000Z</Time>
            <Position>
              <LatitudeDegrees>36.8359969742596149444580078125</LatitudeDegrees>
              <LongitudeDegrees>-4.39774512313306331634521484375</LongitudeDegrees>
            </Position>
            <AltitudeMeters>831.79998779296875</AltitudeMeters>
            <DistanceMeters>NAN</DistanceMeters>
          </Trackpoint>
          <Trackpoint>
            <Time>2022-06-16T10:00:00.000Z</Time>
            <Position>
              <LatitudeDegrees>36.8360489420592784881591796875</LatitudeDegrees>
              <LongitudeDegrees>-4.39778367988765239715576171875</LongitudeDegrees>
            </Position>
            <AltitudeMeters>833.79998779296875</AltitudeMeters>
            <DistanceMeters>NAN</DistanceMeters>
          </Trackpoint>
          <Trackpoint>
            <Time>2022-06-16T10:00:10.000Z</Time>
            <Position>
              <LatitudeDegrees>36.8361062742769718170166015625</LatitudeDegrees>
              <LongitudeDegrees>-4.39784252084791660308837890625</LongitudeDegrees>
            </Position>
            <AltitudeMeters>836.20001220703125</AltitudeMeters>
            <DistanceMeters>NAN</DistanceMeters>
          </Trackpoint>
          <Trackpoint>
            <Time>2022-06-16T10:00:18.000Z</Time>
            <Position>
              <LatitudeDegrees>36.836155392229557037353515625</LatitudeDegrees>
              <LongitudeDegrees>-4.3978912197053432464599609375</LongitudeDegrees>
            </Position>
            <AltitudeMeters>838.4000244140625</AltitudeMeters>
            <DistanceMeters>NAN</DistanceMeters>
          </Trackpoint>
          <Trackpoint>
            <Time>2022-06-16T10:00:20.000Z</Time>
            <Position>
              <LatitudeDegrees>36.83616922236979007720947265625</LatitudeDegrees>
              <LongitudeDegrees>-4.397906474769115447998046875</LongitudeDegrees>
            </Position>
            <AltitudeMeters>839</AltitudeMeters>
            <DistanceMeters>NAN</DistanceMeters>
          </Trackpoint>
          <Trackpoint>
            <Time>2022-06-16T10:00:23.000Z</Time>
            <Position>
              <LatitudeDegrees>36.8361874110996723175048828125</LatitudeDegrees>
              <LongitudeDegrees>-4.397929608821868896484375</LongitudeDegrees>
            </Position>
            <AltitudeMeters>840</AltitudeMeters>
            <DistanceMeters>NAN</DistanceMeters>
          </Trackpoint>
          <Trackpoint>
            <Time>2022-06-16T10:00:25.000Z</Time>
            <Position>
              <LatitudeDegrees>36.83619956485927104949951171875</LatitudeDegrees>
              <LongitudeDegrees>-4.39793505705893039703369140625</LongitudeDegrees>
            </Position>
            <AltitudeMeters>840.4000244140625</AltitudeMeters>
            <DistanceMeters>NAN</DistanceMeters>
          </Trackpoint>
          <Trackpoint>
            <Time>2022-06-16T10:00:27.000Z</Time>
            <Position>
              <LatitudeDegrees>36.83621934615075588226318359375</LatitudeDegrees>
              <LongitudeDegrees>-4.39794511534273624420166015625</LongitudeDegrees>
            </Position>
            <AltitudeMeters>840.79998779296875</AltitudeMeters>
            <DistanceMeters>NAN</DistanceMeters>
          </Trackpoint>
          <Trackpoint>
            <Time>2022-06-16T10:00:30.000Z</Time>
            <Position>
              <LatitudeDegrees>36.83624097146093845367431640625</LatitudeDegrees>
              <LongitudeDegrees>-4.39796380698680877685546875</LongitudeDegrees>
            </Position>
            <AltitudeMeters>841</AltitudeMeters>
            <DistanceMeters>NAN</DistanceMeters>
          </Trackpoint>
          <Trackpoint>
            <Time>2022-06-16T10:00:32.000Z</Time>
            <Position>
              <LatitudeDegrees>36.8362534604966640472412109375</LatitudeDegrees>
              <LongitudeDegrees>-4.39797679893672466278076171875</LongitudeDegrees>
            </Position>
            <AltitudeMeters>841.20001220703125</AltitudeMeters>
            <DistanceMeters>NAN</DistanceMeters>
          </Trackpoint>
          <Trackpoint>
            <Time>2022-06-16T10:00:40.000Z</Time>
            <Position>
              <LatitudeDegrees>36.83624960482120513916015625</LatitudeDegrees>
              <LongitudeDegrees>-4.3980374000966548919677734375</LongitudeDegrees>
            </Position>
            <AltitudeMeters>841</AltitudeMeters>
            <DistanceMeters>NAN</DistanceMeters>
          </Trackpoint>
          <Trackpoint>
            <Time>2022-06-16T10:00:50.000Z</Time>
            <Position>
              <LatitudeDegrees>36.83623175136744976043701171875</LatitudeDegrees>
              <LongitudeDegrees>-4.39810034818947315216064453125</LongitudeDegrees>
            </Position>
            <AltitudeMeters>840.4000244140625</AltitudeMeters>
            <DistanceMeters>NAN</DistanceMeters>
          </Trackpoint>
          <Trackpoint>
            <Time>2022-06-16T10:00:54.000Z</Time>
            <Position>
              <LatitudeDegrees>36.83623191900551319122314453125</LatitudeDegrees>
              <LongitudeDegrees>-4.39809984527528285980224609375</LongitudeDegrees>
            </Position>
            <AltitudeMeters>840.4000244140625</AltitudeMeters>
            <DistanceMeters>NAN</DistanceMeters>
          </Trackpoint>
          <Trackpoint>
            <Time>2022-06-16T10:00:56.000Z</Time>
            <Position>
              <LatitudeDegrees>36.836231835186481475830078125</LatitudeDegrees>
              <LongitudeDegrees>-4.39808744005858898162841796875</LongitudeDegrees>
            </Position>
            <AltitudeMeters>840.4000244140625</AltitudeMeters>
            <DistanceMeters>NAN</DistanceMeters>
          </Trackpoint>
          <Trackpoint>
            <Time>2022-06-16T10:00:58.000Z</Time>
            <Position>
              <LatitudeDegrees>36.8362266384065151214599609375</LatitudeDegrees>
              <LongitudeDegrees>-4.3980846740305423736572265625</LongitudeDegrees>
            </Position>
            <AltitudeMeters>840.4000244140625</AltitudeMeters>
            <DistanceMeters>NAN</DistanceMeters>
          </Trackpoint>
          <Trackpoint>
            <Time>2022-06-16T10:01:00.000Z</Time>
            <Position>
              <LatitudeDegrees>36.8362256325781345367431640625</LatitudeDegrees>
              <LongitudeDegrees>-4.39808006398379802703857421875</LongitudeDegrees>
            </Position>
            <AltitudeMeters>840.5999755859375</AltitudeMeters>
            <DistanceMeters>NAN</DistanceMeters>
          </Trackpoint>
          <Trackpoint>
            <Time>2022-06-16T10:01:10.000Z</Time>
            <Position>
              <LatitudeDegrees>36.83620543219149112701416015625</LatitudeDegrees>
              <LongitudeDegrees>-4.398060701787471771240234375</LongitudeDegrees>
            </Position>
            <AltitudeMeters>840.5999755859375</AltitudeMeters>
            <DistanceMeters>NAN</DistanceMeters>
          </Trackpoint>
          <Trackpoint>
            <Time>2022-06-16T10:01:17.000Z</Time>
            <Position>
              <LatitudeDegrees>36.8362075276672840118408203125</LatitudeDegrees>
              <LongitudeDegrees>-4.39806061796844005584716796875</LongitudeDegrees>
            </Position>
            <AltitudeMeters>840.5999755859375</AltitudeMeters>
            <DistanceMeters>NAN</DistanceMeters>
          </Trackpoint>
          <Trackpoint>
            <Time>2022-06-16T10:01:20.000Z</Time>
            <Position>
              <LatitudeDegrees>36.836207695305347442626953125</LatitudeDegrees>
              <LongitudeDegrees>-4.398060031235218048095703125</LongitudeDegrees>
            </Position>
            <AltitudeMeters>840.5999755859375</AltitudeMeters>
            <DistanceMeters>NAN</DistanceMeters>
          </Trackpoint>
          <Trackpoint>
            <Time>2022-06-16T10:01:26.000Z</Time>
            <Position>
              <LatitudeDegrees>36.83620526455342769622802734375</LatitudeDegrees>
              <LongitudeDegrees>-4.39804804511368274688720703125</LongitudeDegrees>
            </Position>
            <AltitudeMeters>840.79998779296875</AltitudeMeters>
            <DistanceMeters>NAN</DistanceMeters>
          </Trackpoint>
          <Trackpoint>
            <Time>2022-06-16T10:01:30.000Z</Time>
            <Position>
              <LatitudeDegrees>36.83620023541152477264404296875</LatitudeDegrees>
              <LongitudeDegrees>-4.398046620190143585205078125</LongitudeDegrees>
            </Position>
            <AltitudeMeters>840.5999755859375</AltitudeMeters>
            <DistanceMeters>NAN</DistanceMeters>
          </Trackpoint>
          <Trackpoint>
            <Time>2022-06-16T10:01:40.000Z</Time>
            <Position>
              <LatitudeDegrees>36.8361966311931610107421875</LatitudeDegrees>
              <LongitudeDegrees>-4.39805231988430023193359375</LongitudeDegrees>
            </Position>
            <AltitudeMeters>840.4000244140625</AltitudeMeters>
            <DistanceMeters>NAN</DistanceMeters>
          </Trackpoint>
          <Trackpoint>
            <Time>2022-06-16T10:01:47.000Z</Time>
            <Position>
              <LatitudeDegrees>36.836193613708019256591796875</LatitudeDegrees>
              <LongitudeDegrees>-4.3980524875223636627197265625</LongitudeDegrees>
            </Position>
            <AltitudeMeters>840.20001220703125</AltitudeMeters>
            <DistanceMeters>NAN</DistanceMeters>
          </Trackpoint>
          <Trackpoint>
            <Time>2022-06-16T10:01:50.000Z</Time>
            <Position>
              <LatitudeDegrees>36.836194284260272979736328125</LatitudeDegrees>
              <LongitudeDegrees>-4.398056678473949432373046875</LongitudeDegrees>
            </Position>
            <AltitudeMeters>840.20001220703125</AltitudeMeters>
            <DistanceMeters>NAN</DistanceMeters>
          </Trackpoint>
          <Trackpoint>
            <Time>2022-06-16T10:01:56.000Z</Time>
            <Position>
              <LatitudeDegrees>36.8361890874803066253662109375</LatitudeDegrees>
              <LongitudeDegrees>-4.39805475063621997833251953125</LongitudeDegrees>
            </Position>
            <AltitudeMeters>840</AltitudeMeters>
            <DistanceMeters>NAN</DistanceMeters>
          </Trackpoint>
          <Trackpoint>
            <Time>2022-06-16T10:02:00.000Z</Time>
            <Position>
              <LatitudeDegrees>36.83619755320250988006591796875</LatitudeDegrees>
              <LongitudeDegrees>-4.3980548344552516937255859375</LongitudeDegrees>
            </Position>
            <AltitudeMeters>840.4000244140625</AltitudeMeters>
            <DistanceMeters>NAN</DistanceMeters>
          </Trackpoint>
          <Trackpoint>
            <Time>2022-06-16T10:02:03.000Z</Time>
            <Position>
              <LatitudeDegrees>36.8361984752118587493896484375</LatitudeDegrees>
              <LongitudeDegrees>-4.39805592410266399383544921875</LongitudeDegrees>
            </Position>
            <AltitudeMeters>840.4000244140625</AltitudeMeters>
            <DistanceMeters>NAN</DistanceMeters>
          </Trackpoint>
          <Trackpoint>
            <Time>2022-06-16T10:02:10.000Z</Time>
            <Position>
              <LatitudeDegrees>36.83619805611670017242431640625</LatitudeDegrees>
              <LongitudeDegrees>-4.39805240370333194732666015625</LongitudeDegrees>
            </Position>
            <AltitudeMeters>840.4000244140625</AltitudeMeters>
            <DistanceMeters>NAN</DistanceMeters>
          </Trackpoint>
          <Trackpoint>
            <Time>2022-06-16T10:02:20.000Z</Time>
            <Position>
              <LatitudeDegrees>36.8361998163163661956787109375</LatitudeDegrees>
              <LongitudeDegrees>-4.3980615399777889251708984375</LongitudeDegrees>
            </Position>
            <AltitudeMeters>840.4000244140625</AltitudeMeters>
            <DistanceMeters>NAN</DistanceMeters>
          </Trackpoint>
          <Trackpoint>
            <Time>2022-06-16T10:02:30.000Z</Time>
            <Position>
              <LatitudeDegrees>36.83620006777346134185791015625</LatitudeDegrees>
              <LongitudeDegrees>-4.39806832931935787200927734375</LongitudeDegrees>
            </Position>
            <AltitudeMeters>840.4000244140625</AltitudeMeters>
            <DistanceMeters>NAN</DistanceMeters>
          </Trackpoint>
          <Trackpoint>
            <Time>2022-06-16T10:02:40.000Z</Time>
            <Position>
              <LatitudeDegrees>36.8362028338015079498291015625</LatitudeDegrees>
              <LongitudeDegrees>-4.39805659465491771697998046875</LongitudeDegrees>
            </Position>
            <AltitudeMeters>840.5999755859375</AltitudeMeters>
            <DistanceMeters>NAN</DistanceMeters>
          </Trackpoint>
          <Trackpoint>
            <Time>2022-06-16T10:02:50.000Z</Time>
            <Position>
              <LatitudeDegrees>36.83620140887796878814697265625</LatitudeDegrees>
              <LongitudeDegrees>-4.39806438982486724853515625</LongitudeDegrees>
            </Position>
            <AltitudeMeters>840.4000244140625</AltitudeMeters>
            <DistanceMeters>NAN</DistanceMeters>
          </Trackpoint>
          <Trackpoint>
            <Time>2022-06-16T10:03:00.000Z</Time>
            <Position>
              <LatitudeDegrees>36.836206354200839996337890625</LatitudeDegrees>
              <LongitudeDegrees>-4.3980605341494083404541015625</LongitudeDegrees>
            </Position>
            <AltitudeMeters>840.5999755859375</AltitudeMeters>
            <DistanceMeters>NAN</DistanceMeters>
          </Trackpoint>
          <Trackpoint>
            <Time>2022-06-16T10:03:09.000Z</Time>
            <Position>
              <LatitudeDegrees>36.836213059723377227783203125</LatitudeDegrees>
              <LongitudeDegrees>-4.39806832931935787200927734375</LongitudeDegrees>
            </Position>
            <AltitudeMeters>840.5999755859375</AltitudeMeters>
            <DistanceMeters>NAN</DistanceMeters>
          </Trackpoint>
          <Trackpoint>
            <Time>2022-06-16T10:03:10.000Z</Time>
            <Position>
              <LatitudeDegrees>36.83621331118047237396240234375</LatitudeDegrees>
              <LongitudeDegrees>-4.3980682455003261566162109375</LongitudeDegrees>
            </Position>
            <AltitudeMeters>840.5999755859375</AltitudeMeters>
            <DistanceMeters>NAN</DistanceMeters>
          </Trackpoint>
          <Trackpoint>
            <Time>2022-06-16T10:03:14.000Z</Time>
            <Position>
              <LatitudeDegrees>36.83621666394174098968505859375</LatitudeDegrees>
              <LongitudeDegrees>-4.3980679102241992950439453125</LongitudeDegrees>
            </Position>
            <AltitudeMeters>840.5999755859375</AltitudeMeters>
            <DistanceMeters>NAN</DistanceMeters>
          </Trackpoint>
          <Trackpoint>
            <Time>2022-06-16T10:03:19.000Z</Time>
            <Position>
              <LatitudeDegrees>36.83621607720851898193359375</LatitudeDegrees>
              <LongitudeDegrees>-4.39807721413671970367431640625</LongitudeDegrees>
            </Position>
            <AltitudeMeters>840.5999755859375</AltitudeMeters>
            <DistanceMeters>NAN</DistanceMeters>
          </Trackpoint>
          <Trackpoint>
            <Time>2022-06-16T10:03:20.000Z</Time>
            <Position>
              <LatitudeDegrees>36.83621666394174098968505859375</LatitudeDegrees>
              <LongitudeDegrees>-4.39807972870767116546630859375</LongitudeDegrees>
            </Position>
            <AltitudeMeters>840.4000244140625</AltitudeMeters>
            <DistanceMeters>NAN</DistanceMeters>
          </Trackpoint>
          <Trackpoint>
            <Time>2022-06-16T10:03:22.000Z</Time>
            <Position>
              <LatitudeDegrees>36.83621632866561412811279296875</LatitudeDegrees>
              <LongitudeDegrees>-4.3980819918215274810791015625</LongitudeDegrees>
            </Position>
            <AltitudeMeters>840.4000244140625</AltitudeMeters>
            <DistanceMeters>NAN</DistanceMeters>
          </Trackpoint>
          <Trackpoint>
            <Time>2022-06-16T10:03:23.000Z</Time>
            <Position>
              <LatitudeDegrees>36.8362169153988361358642578125</LatitudeDegrees>
              <LongitudeDegrees>-4.3980819918215274810791015625</LongitudeDegrees>
            </Position>
            <AltitudeMeters>840.4000244140625</AltitudeMeters>
            <DistanceMeters>NAN</DistanceMeters>
          </Trackpoint>
          <Trackpoint>
            <Time>2022-06-16T10:03:30.000Z</Time>
            <Position>
              <LatitudeDegrees>36.83621834032237529754638671875</LatitudeDegrees>
              <LongitudeDegrees>-4.3980784714221954345703125</LongitudeDegrees>
            </Position>
            <AltitudeMeters>840.4000244140625</AltitudeMeters>
            <DistanceMeters>NAN</DistanceMeters>
          </Trackpoint>
          <Trackpoint>
            <Time>2022-06-16T10:03:36.000Z</Time>
            <Position>
              <LatitudeDegrees>36.836216412484645843505859375</LatitudeDegrees>
              <LongitudeDegrees>-4.398072101175785064697265625</LongitudeDegrees>
            </Position>
            <AltitudeMeters>840.5999755859375</AltitudeMeters>
            <DistanceMeters>NAN</DistanceMeters>
          </Trackpoint>
          <Trackpoint>
            <Time>2022-06-16T10:03:40.000Z</Time>
            <Position>
              <LatitudeDegrees>36.83620995841920375823974609375</LatitudeDegrees>
              <LongitudeDegrees>-4.3980759568512439727783203125</LongitudeDegrees>
            </Position>
            <AltitudeMeters>840.4000244140625</AltitudeMeters>
            <DistanceMeters>NAN</DistanceMeters>
          </Trackpoint>
          <Trackpoint>
            <Time>2022-06-16T10:03:42.000Z</Time>
            <Position>
              <LatitudeDegrees>36.8362088687717914581298828125</LatitudeDegrees>
              <LongitudeDegrees>-4.39807687886059284210205078125</LongitudeDegrees>
            </Position>
            <AltitudeMeters>840.4000244140625</AltitudeMeters>
            <DistanceMeters>NAN</DistanceMeters>
          </Trackpoint>
          <Trackpoint>
            <Time>2022-06-16T10:03:43.000Z</Time>
            <Position>
              <LatitudeDegrees>36.83620844967663288116455078125</LatitudeDegrees>
              <LongitudeDegrees>-4.398076124489307403564453125</LongitudeDegrees>
            </Position>
            <AltitudeMeters>840.4000244140625</AltitudeMeters>
            <DistanceMeters>NAN</DistanceMeters>
          </Trackpoint>
          <Trackpoint>
            <Time>2022-06-16T10:03:44.000Z</Time>
            <Position>
              <LatitudeDegrees>36.8362092040479183197021484375</LatitudeDegrees>
              <LongitudeDegrees>-4.398074112832546234130859375</LongitudeDegrees>
            </Position>
            <AltitudeMeters>840.5999755859375</AltitudeMeters>
            <DistanceMeters>NAN</DistanceMeters>
          </Trackpoint>
          <Trackpoint>
            <Time>2022-06-16T10:03:50.000Z</Time>
            <Position>
              <LatitudeDegrees>36.83621632866561412811279296875</LatitudeDegrees>
              <LongitudeDegrees>-4.39807637594640254974365234375</LongitudeDegrees>
            </Position>
            <AltitudeMeters>840.5999755859375</AltitudeMeters>
            <DistanceMeters>NAN</DistanceMeters>
          </Trackpoint>
          <Trackpoint>
            <Time>2022-06-16T10:04:00.000Z</Time>
            <Position>
              <LatitudeDegrees>36.83621683157980442047119140625</LatitudeDegrees>
              <LongitudeDegrees>-4.39809129573404788970947265625</LongitudeDegrees>
            </Position>
            <AltitudeMeters>840.4000244140625</AltitudeMeters>
            <DistanceMeters>NAN</DistanceMeters>
          </Trackpoint>
          <Trackpoint>
            <Time>2022-06-16T10:04:10.000Z</Time>
            <Position>
              <LatitudeDegrees>36.8362239561975002288818359375</LatitudeDegrees>
              <LongitudeDegrees>-4.39809666015207767486572265625</LongitudeDegrees>
            </Position>
            <AltitudeMeters>840.4000244140625</AltitudeMeters>
            <DistanceMeters>NAN</DistanceMeters>
          </Trackpoint>
          <Trackpoint>
            <Time>2022-06-16T10:04:20.000Z</Time>
            <Position>
              <LatitudeDegrees>36.83622823096811771392822265625</LatitudeDegrees>
              <LongitudeDegrees>-4.398092888295650482177734375</LongitudeDegrees>
            </Position>
            <AltitudeMeters>840.4000244140625</AltitudeMeters>
            <DistanceMeters>NAN</DistanceMeters>
          </Trackpoint>
          <Trackpoint>
            <Time>2022-06-16T10:04:30.000Z</Time>
            <Position>
              <LatitudeDegrees>36.83622454293072223663330078125</LatitudeDegrees>
              <LongitudeDegrees>-4.398086853325366973876953125</LongitudeDegrees>
            </Position>
            <AltitudeMeters>840.4000244140625</AltitudeMeters>
            <DistanceMeters>NAN</DistanceMeters>
          </Trackpoint>
          <Trackpoint>
            <Time>2022-06-16T10:04:40.000Z</Time>
            <Position>
              <LatitudeDegrees>36.83622303418815135955810546875</LatitudeDegrees>
              <LongitudeDegrees>-4.39808584749698638916015625</LongitudeDegrees>
            </Position>
            <AltitudeMeters>840.4000244140625</AltitudeMeters>
            <DistanceMeters>NAN</DistanceMeters>
          </Trackpoint>
          <Trackpoint>
            <Time>2022-06-16T10:04:50.000Z</Time>
            <Position>
              <LatitudeDegrees>36.83622202835977077484130859375</LatitudeDegrees>
              <LongitudeDegrees>-4.39808073453605175018310546875</LongitudeDegrees>
            </Position>
            <AltitudeMeters>840.4000244140625</AltitudeMeters>
            <DistanceMeters>NAN</DistanceMeters>
          </Trackpoint>
          <Trackpoint>
            <Time>2022-06-16T10:05:00.000Z</Time>
            <Position>
              <LatitudeDegrees>36.836222447454929351806640625</LatitudeDegrees>
              <LongitudeDegrees>-4.398074783384799957275390625</LongitudeDegrees>
            </Position>
            <AltitudeMeters>840.5999755859375</AltitudeMeters>
            <DistanceMeters>NAN</DistanceMeters>
          </Trackpoint>
          <Trackpoint>
            <Time>2022-06-16T10:05:01.000Z</Time>
            <Position>
              <LatitudeDegrees>36.836222447454929351806640625</LatitudeDegrees>
              <LongitudeDegrees>-4.3980746157467365264892578125</LongitudeDegrees>
            </Position>
            <AltitudeMeters>840.5999755859375</AltitudeMeters>
            <DistanceMeters>NAN</DistanceMeters>
          </Trackpoint>
          <Trackpoint>
            <Time>2022-06-16T10:05:06.000Z</Time>
            <Position>
              <LatitudeDegrees>36.83622387237846851348876953125</LatitudeDegrees>
              <LongitudeDegrees>-4.3980736099183559417724609375</LongitudeDegrees>
            </Position>
            <AltitudeMeters>840.5999755859375</AltitudeMeters>
            <DistanceMeters>NAN</DistanceMeters>
          </Trackpoint>
          <Trackpoint>
            <Time>2022-06-16T10:05:10.000Z</Time>
            <Position>
              <LatitudeDegrees>36.836221106350421905517578125</LatitudeDegrees>
              <LongitudeDegrees>-4.39807788468897342681884765625</LongitudeDegrees>
            </Position>
            <AltitudeMeters>840.5999755859375</AltitudeMeters>
            <DistanceMeters>NAN</DistanceMeters>
          </Trackpoint>
          <Trackpoint>
            <Time>2022-06-16T10:05:15.000Z</Time>
            <Position>
              <LatitudeDegrees>36.836221106350421905517578125</LatitudeDegrees>
              <LongitudeDegrees>-4.39807838760316371917724609375</LongitudeDegrees>
            </Position>
            <AltitudeMeters>840.5999755859375</AltitudeMeters>
            <DistanceMeters>NAN</DistanceMeters>
          </Trackpoint>
          <Trackpoint>
            <Time>2022-06-16T10:05:17.000Z</Time>
            <Position>
              <LatitudeDegrees>36.836221106350421905517578125</LatitudeDegrees>
              <LongitudeDegrees>-4.39807838760316371917724609375</LongitudeDegrees>
            </Position>
            <AltitudeMeters>840.5999755859375</AltitudeMeters>
            <DistanceMeters>NAN</DistanceMeters>
          </Trackpoint>
          <Trackpoint>
            <Time>2022-06-16T10:05:18.000Z</Time>
            <Position>
              <LatitudeDegrees>36.83622102253139019012451171875</LatitudeDegrees>
              <LongitudeDegrees>-4.3980784714221954345703125</LongitudeDegrees>
            </Position>
            <AltitudeMeters>840.5999755859375</AltitudeMeters>
            <DistanceMeters>NAN</DistanceMeters>
          </Trackpoint>
          <Trackpoint>
            <Time>2022-06-16T10:05:20.000Z</Time>
            <Position>
              <LatitudeDegrees>36.83622018434107303619384765625</LatitudeDegrees>
              <LongitudeDegrees>-4.39807645976543426513671875</LongitudeDegrees>
            </Position>
            <AltitudeMeters>840.5999755859375</AltitudeMeters>
            <DistanceMeters>NAN</DistanceMeters>
          </Trackpoint>
          <Trackpoint>
            <Time>2022-06-16T10:05:30.000Z</Time>
            <Position>
              <LatitudeDegrees>36.8362125568091869354248046875</LatitudeDegrees>
              <LongitudeDegrees>-4.39806698821485042572021484375</LongitudeDegrees>
            </Position>
            <AltitudeMeters>840.5999755859375</AltitudeMeters>
            <DistanceMeters>NAN</DistanceMeters>
          </Trackpoint>
          <Trackpoint>
            <Time>2022-06-16T10:05:40.000Z</Time>
            <Position>
              <LatitudeDegrees>36.836214400827884674072265625</LatitudeDegrees>
              <LongitudeDegrees>-4.39807201735675334930419921875</LongitudeDegrees>
            </Position>
            <AltitudeMeters>840.5999755859375</AltitudeMeters>
            <DistanceMeters>NAN</DistanceMeters>
          </Trackpoint>
          <Trackpoint>
            <Time>2022-06-16T10:05:50.000Z</Time>
            <Position>
              <LatitudeDegrees>36.83620945550501346588134765625</LatitudeDegrees>
              <LongitudeDegrees>-4.39807369373738765716552734375</LongitudeDegrees>
            </Position>
            <AltitudeMeters>840.5999755859375</AltitudeMeters>
            <DistanceMeters>NAN</DistanceMeters>
          </Trackpoint>
          <Trackpoint>
            <Time>2022-06-16T10:05:53.000Z</Time>
            <Position>
              <LatitudeDegrees>36.83620895259082317352294921875</LatitudeDegrees>
              <LongitudeDegrees>-4.3980722688138484954833984375</LongitudeDegrees>
            </Position>
            <AltitudeMeters>840.5999755859375</AltitudeMeters>
            <DistanceMeters>NAN</DistanceMeters>
          </Trackpoint>
          <Trackpoint>
            <Time>2022-06-16T10:05:57.000Z</Time>
            <Position>
              <LatitudeDegrees>36.8362073600292205810546875</LatitudeDegrees>
              <LongitudeDegrees>-4.39807268790900707244873046875</LongitudeDegrees>
            </Position>
            <AltitudeMeters>840.5999755859375</AltitudeMeters>
            <DistanceMeters>NAN</DistanceMeters>
          </Trackpoint>
          <Trackpoint>
            <Time>2022-06-16T10:06:00.000Z</Time>
            <Position>
              <LatitudeDegrees>36.83620534837245941162109375</LatitudeDegrees>
              <LongitudeDegrees>-4.398071765899658203125</LongitudeDegrees>
            </Position>
            <AltitudeMeters>840.5999755859375</AltitudeMeters>
            <DistanceMeters>NAN</DistanceMeters>
          </Trackpoint>
          <Trackpoint>
            <Time>2022-06-16T10:06:04.000Z</Time>
            <Position>
              <LatitudeDegrees>36.83620375581085681915283203125</LatitudeDegrees>
              <LongitudeDegrees>-4.39807503484189510345458984375</LongitudeDegrees>
            </Position>
            <AltitudeMeters>840.4000244140625</AltitudeMeters>
            <DistanceMeters>NAN</DistanceMeters>
          </Trackpoint>
          <Trackpoint>
            <Time>2022-06-16T10:06:06.000Z</Time>
            <Position>
              <LatitudeDegrees>36.8362031690776348114013671875</LatitudeDegrees>
              <LongitudeDegrees>-4.39807713031768798828125</LongitudeDegrees>
            </Position>
            <AltitudeMeters>840.4000244140625</AltitudeMeters>
            <DistanceMeters>NAN</DistanceMeters>
          </Trackpoint>
          <Trackpoint>
            <Time>2022-06-16T10:06:10.000Z</Time>
            <Position>
              <LatitudeDegrees>36.836201660335063934326171875</LatitudeDegrees>
              <LongitudeDegrees>-4.39807604067027568817138671875</LongitudeDegrees>
            </Position>
            <AltitudeMeters>840.4000244140625</AltitudeMeters>
            <DistanceMeters>NAN</DistanceMeters>
          </Trackpoint>
          <Trackpoint>
            <Time>2022-06-16T10:06:14.000Z</Time>
            <Position>
              <LatitudeDegrees>36.8362018279731273651123046875</LatitudeDegrees>
              <LongitudeDegrees>-4.39807553775608539581298828125</LongitudeDegrees>
            </Position>
            <AltitudeMeters>840.4000244140625</AltitudeMeters>
            <DistanceMeters>NAN</DistanceMeters>
          </Trackpoint>
          <Trackpoint>
            <Time>2022-06-16T10:06:20.000Z</Time>
            <Position>
              <LatitudeDegrees>36.83620258234441280364990234375</LatitudeDegrees>
              <LongitudeDegrees>-4.39806975424289703369140625</LongitudeDegrees>
            </Position>
            <AltitudeMeters>840.4000244140625</AltitudeMeters>
            <DistanceMeters>NAN</DistanceMeters>
          </Trackpoint>
          <Trackpoint>
            <Time>2022-06-16T10:06:30.000Z</Time>
            <Position>
              <LatitudeDegrees>36.83620308525860309600830078125</LatitudeDegrees>
              <LongitudeDegrees>-4.3980695866048336029052734375</LongitudeDegrees>
            </Position>
            <AltitudeMeters>840.4000244140625</AltitudeMeters>
            <DistanceMeters>NAN</DistanceMeters>
          </Trackpoint>
          <Trackpoint>
            <Time>2022-06-16T10:06:34.000Z</Time>
            <Position>
              <LatitudeDegrees>36.8362031690776348114013671875</LatitudeDegrees>
              <LongitudeDegrees>-4.39807050861418247222900390625</LongitudeDegrees>
            </Position>
            <AltitudeMeters>840.4000244140625</AltitudeMeters>
            <DistanceMeters>NAN</DistanceMeters>
          </Trackpoint>
          <Trackpoint>
            <Time>2022-06-16T10:06:35.000Z</Time>
            <Position>
              <LatitudeDegrees>36.83620358817279338836669921875</LatitudeDegrees>
              <LongitudeDegrees>-4.3980704247951507568359375</LongitudeDegrees>
            </Position>
            <AltitudeMeters>840.4000244140625</AltitudeMeters>
            <DistanceMeters>NAN</DistanceMeters>
          </Trackpoint>
          <Trackpoint>
            <Time>2022-06-16T10:06:36.000Z</Time>
            <Position>
              <LatitudeDegrees>36.83620400726795196533203125</LatitudeDegrees>
              <LongitudeDegrees>-4.3980702571570873260498046875</LongitudeDegrees>
            </Position>
            <AltitudeMeters>840.5999755859375</AltitudeMeters>
            <DistanceMeters>NAN</DistanceMeters>
          </Trackpoint>
          <Trackpoint>
            <Time>2022-06-16T10:06:40.000Z</Time>
            <Position>
              <LatitudeDegrees>36.83620476163923740386962890625</LatitudeDegrees>
              <LongitudeDegrees>-4.39807017333805561065673828125</LongitudeDegrees>
            </Position>
            <AltitudeMeters>840.5999755859375</AltitudeMeters>
            <DistanceMeters>NAN</DistanceMeters>
          </Trackpoint>
          <Trackpoint>
            <Time>2022-06-16T10:06:42.000Z</Time>
            <Position>
              <LatitudeDegrees>36.8362048454582691192626953125</LatitudeDegrees>
              <LongitudeDegrees>-4.39807101152837276458740234375</LongitudeDegrees>
            </Position>
            <AltitudeMeters>840.5999755859375</AltitudeMeters>
            <DistanceMeters>NAN</DistanceMeters>
          </Trackpoint>
          <Trackpoint>
            <Time>2022-06-16T10:06:44.000Z</Time>
            <Position>
              <LatitudeDegrees>36.836204342544078826904296875</LatitudeDegrees>
              <LongitudeDegrees>-4.39807117916643619537353515625</LongitudeDegrees>
            </Position>
            <AltitudeMeters>840.5999755859375</AltitudeMeters>
            <DistanceMeters>NAN</DistanceMeters>
          </Trackpoint>
          <Trackpoint>
            <Time>2022-06-16T10:06:50.000Z</Time>
            <Position>
              <LatitudeDegrees>36.8362055160105228424072265625</LatitudeDegrees>
              <LongitudeDegrees>-4.3980709277093410491943359375</LongitudeDegrees>
            </Position>
            <AltitudeMeters>840.5999755859375</AltitudeMeters>
            <DistanceMeters>NAN</DistanceMeters>
          </Trackpoint>
          <Trackpoint>
            <Time>2022-06-16T10:06:58.000Z</Time>
            <Position>
              <LatitudeDegrees>36.8362105451524257659912109375</LatitudeDegrees>
              <LongitudeDegrees>-4.39806765876710414886474609375</LongitudeDegrees>
            </Position>
            <AltitudeMeters>840.5999755859375</AltitudeMeters>
            <DistanceMeters>NAN</DistanceMeters>
          </Trackpoint>
          <Trackpoint>
            <Time>2022-06-16T10:07:00.000Z</Time>
            <Position>
              <LatitudeDegrees>36.836212389171123504638671875</LatitudeDegrees>
              <LongitudeDegrees>-4.39806715585291385650634765625</LongitudeDegrees>
            </Position>
            <AltitudeMeters>840.5999755859375</AltitudeMeters>
            <DistanceMeters>NAN</DistanceMeters>
          </Trackpoint>
          <Trackpoint>
            <Time>2022-06-16T10:07:03.000Z</Time>
            <Position>
              <LatitudeDegrees>36.836215741932392120361328125</LatitudeDegrees>
              <LongitudeDegrees>-4.3980652280151844024658203125</LongitudeDegrees>
            </Position>
            <AltitudeMeters>840.5999755859375</AltitudeMeters>
            <DistanceMeters>NAN</DistanceMeters>
          </Trackpoint>
          <Trackpoint>
            <Time>2022-06-16T10:07:10.000Z</Time>
            <Position>
              <LatitudeDegrees>36.83621649630367755889892578125</LatitudeDegrees>
              <LongitudeDegrees>-4.39806799404323101043701171875</LongitudeDegrees>
            </Position>
            <AltitudeMeters>840.5999755859375</AltitudeMeters>
            <DistanceMeters>NAN</DistanceMeters>
          </Trackpoint>
          <Trackpoint>
            <Time>2022-06-16T10:07:18.000Z</Time>
            <Position>
              <LatitudeDegrees>36.83621498756110668182373046875</LatitudeDegrees>
              <LongitudeDegrees>-4.39807184971868991851806640625</LongitudeDegrees>
            </Position>
            <AltitudeMeters>840.5999755859375</AltitudeMeters>
            <DistanceMeters>NAN</DistanceMeters>
          </Trackpoint>
          <Trackpoint>
            <Time>2022-06-16T10:07:20.000Z</Time>
            <Position>
              <LatitudeDegrees>36.83621649630367755889892578125</LatitudeDegrees>
              <LongitudeDegrees>-4.398071765899658203125</LongitudeDegrees>
            </Position>
            <AltitudeMeters>840.5999755859375</AltitudeMeters>
            <DistanceMeters>NAN</DistanceMeters>
          </Trackpoint>
          <Trackpoint>
            <Time>2022-06-16T10:07:25.000Z</Time>
            <Position>
              <LatitudeDegrees>36.83621716685593128204345703125</LatitudeDegrees>
              <LongitudeDegrees>-4.39806866459548473358154296875</LongitudeDegrees>
            </Position>
            <AltitudeMeters>840.5999755859375</AltitudeMeters>
            <DistanceMeters>NAN</DistanceMeters>
          </Trackpoint>
          <Trackpoint>
            <Time>2022-06-16T10:07:29.000Z</Time>
            <Position>
              <LatitudeDegrees>36.83621398173272609710693359375</LatitudeDegrees>
              <LongitudeDegrees>-4.39806313253939151763916015625</LongitudeDegrees>
            </Position>
            <AltitudeMeters>840.5999755859375</AltitudeMeters>
            <DistanceMeters>NAN</DistanceMeters>
          </Trackpoint>
          <Trackpoint>
            <Time>2022-06-16T10:07:30.000Z</Time>
            <Position>
              <LatitudeDegrees>36.83621599338948726654052734375</LatitudeDegrees>
              <LongitudeDegrees>-4.3980622105300426483154296875</LongitudeDegrees>
            </Position>
            <AltitudeMeters>840.5999755859375</AltitudeMeters>
            <DistanceMeters>NAN</DistanceMeters>
          </Trackpoint>
          <Trackpoint>
            <Time>2022-06-16T10:07:33.000Z</Time>
            <Position>
              <LatitudeDegrees>36.83621247299015522003173828125</LatitudeDegrees>
              <LongitudeDegrees>-4.39806112088263034820556640625</LongitudeDegrees>
            </Position>
            <AltitudeMeters>840.5999755859375</AltitudeMeters>
            <DistanceMeters>NAN</DistanceMeters>
          </Trackpoint>
          <Trackpoint>
            <Time>2022-06-16T10:07:39.000Z</Time>
            <Position>
              <LatitudeDegrees>36.83621549047529697418212890625</LatitudeDegrees>
              <LongitudeDegrees>-4.3980605341494083404541015625</LongitudeDegrees>
            </Position>
            <AltitudeMeters>840.5999755859375</AltitudeMeters>
            <DistanceMeters>NAN</DistanceMeters>
          </Trackpoint>
          <Trackpoint>
            <Time>2022-06-16T10:07:40.000Z</Time>
            <Position>
              <LatitudeDegrees>36.83621549047529697418212890625</LatitudeDegrees>
              <LongitudeDegrees>-4.39806095324456691741943359375</LongitudeDegrees>
            </Position>
            <AltitudeMeters>840.5999755859375</AltitudeMeters>
            <DistanceMeters>NAN</DistanceMeters>
          </Trackpoint>
          <Trackpoint>
            <Time>2022-06-16T10:07:50.000Z</Time>
            <Position>
              <LatitudeDegrees>36.83621515519917011260986328125</LatitudeDegrees>
              <LongitudeDegrees>-4.3980571813881397247314453125</LongitudeDegrees>
            </Position>
            <AltitudeMeters>840.79998779296875</AltitudeMeters>
            <DistanceMeters>NAN</DistanceMeters>
          </Trackpoint>
          <Trackpoint>
            <Time>2022-06-16T10:07:51.000Z</Time>
            <Position>
              <LatitudeDegrees>36.83621515519917011260986328125</LatitudeDegrees>
              <LongitudeDegrees>-4.39805692993104457855224609375</LongitudeDegrees>
            </Position>
            <AltitudeMeters>840.79998779296875</AltitudeMeters>
            <DistanceMeters>NAN</DistanceMeters>
          </Trackpoint>
          <Trackpoint>
            <Time>2022-06-16T10:07:52.000Z</Time>
            <Position>
              <LatitudeDegrees>36.836215071380138397216796875</LatitudeDegrees>
              <LongitudeDegrees>-4.39805676229298114776611328125</LongitudeDegrees>
            </Position>
            <AltitudeMeters>840.79998779296875</AltitudeMeters>
            <DistanceMeters>NAN</DistanceMeters>
          </Trackpoint>
          <Trackpoint>
            <Time>2022-06-16T10:07:53.000Z</Time>
            <Position>
              <LatitudeDegrees>36.836215071380138397216796875</LatitudeDegrees>
              <LongitudeDegrees>-4.3980565108358860015869140625</LongitudeDegrees>
            </Position>
            <AltitudeMeters>840.79998779296875</AltitudeMeters>
            <DistanceMeters>NAN</DistanceMeters>
          </Trackpoint>
          <Trackpoint>
            <Time>2022-06-16T10:07:54.000Z</Time>
            <Position>
              <LatitudeDegrees>36.836215071380138397216796875</LatitudeDegrees>
              <LongitudeDegrees>-4.39805642701685428619384765625</LongitudeDegrees>
            </Position>
            <AltitudeMeters>840.79998779296875</AltitudeMeters>
            <DistanceMeters>NAN</DistanceMeters>
          </Trackpoint>
          <Trackpoint>
            <Time>2022-06-16T10:08:00.000Z</Time>
            <Position>
              <LatitudeDegrees>36.8362152390182018280029296875</LatitudeDegrees>
              <LongitudeDegrees>-4.39805676229298114776611328125</LongitudeDegrees>
            </Position>
            <AltitudeMeters>840.79998779296875</AltitudeMeters>
            <DistanceMeters>NAN</DistanceMeters>
          </Trackpoint>
          <Trackpoint>
            <Time>2022-06-16T10:08:10.000Z</Time>
            <Position>
              <LatitudeDegrees>36.836220435798168182373046875</LatitudeDegrees>
              <LongitudeDegrees>-4.3980618752539157867431640625</LongitudeDegrees>
            </Position>
            <AltitudeMeters>840.5999755859375</AltitudeMeters>
            <DistanceMeters>NAN</DistanceMeters>
          </Trackpoint>
          <Trackpoint>
            <Time>2022-06-16T10:08:20.000Z</Time>
            <Position>
              <LatitudeDegrees>36.83623979799449443817138671875</LatitudeDegrees>
              <LongitudeDegrees>-4.39806832931935787200927734375</LongitudeDegrees>
            </Position>
            <AltitudeMeters>840.5999755859375</AltitudeMeters>
            <DistanceMeters>NAN</DistanceMeters>
          </Trackpoint>
          <Trackpoint>
            <Time>2022-06-16T10:08:30.000Z</Time>
            <Position>
              <LatitudeDegrees>36.836238205432891845703125</LatitudeDegrees>
              <LongitudeDegrees>-4.398078136146068572998046875</LongitudeDegrees>
            </Position>
            <AltitudeMeters>840.5999755859375</AltitudeMeters>
            <DistanceMeters>NAN</DistanceMeters>
          </Trackpoint>
          <Trackpoint>
            <Time>2022-06-16T10:08:34.000Z</Time>
            <Position>
              <LatitudeDegrees>36.83623476885259151458740234375</LatitudeDegrees>
              <LongitudeDegrees>-4.39807654358446598052978515625</LongitudeDegrees>
            </Position>
            <AltitudeMeters>840.5999755859375</AltitudeMeters>
            <DistanceMeters>NAN</DistanceMeters>
          </Trackpoint>
          <Trackpoint>
            <Time>2022-06-16T10:08:38.000Z</Time>
            <Position>
              <LatitudeDegrees>36.8362309969961643218994140625</LatitudeDegrees>
              <LongitudeDegrees>-4.3980813212692737579345703125</LongitudeDegrees>
            </Position>
            <AltitudeMeters>840.5999755859375</AltitudeMeters>
            <DistanceMeters>NAN</DistanceMeters>
          </Trackpoint>
          <Trackpoint>
            <Time>2022-06-16T10:08:40.000Z</Time>
            <Position>
              <LatitudeDegrees>36.83622705750167369842529296875</LatitudeDegrees>
              <LongitudeDegrees>-4.39808710478246212005615234375</LongitudeDegrees>
            </Position>
            <AltitudeMeters>840.4000244140625</AltitudeMeters>
            <DistanceMeters>NAN</DistanceMeters>
          </Trackpoint>
          <Trackpoint>
            <Time>2022-06-16T10:08:48.000Z</Time>
            <Position>
              <LatitudeDegrees>36.83621917851269245147705078125</LatitudeDegrees>
              <LongitudeDegrees>-4.39808559603989124298095703125</LongitudeDegrees>
            </Position>
            <AltitudeMeters>840.4000244140625</AltitudeMeters>
            <DistanceMeters>NAN</DistanceMeters>
          </Trackpoint>
          <Trackpoint>
            <Time>2022-06-16T10:08:50.000Z</Time>
            <Position>
              <LatitudeDegrees>36.83621599338948726654052734375</LatitudeDegrees>
              <LongitudeDegrees>-4.39808861352503299713134765625</LongitudeDegrees>
            </Position>
            <AltitudeMeters>840.4000244140625</AltitudeMeters>
            <DistanceMeters>NAN</DistanceMeters>
          </Trackpoint>
          <Trackpoint>
            <Time>2022-06-16T10:08:53.000Z</Time>
            <Position>
              <LatitudeDegrees>36.83621347881853580474853515625</LatitudeDegrees>
              <LongitudeDegrees>-4.3980907090008258819580078125</LongitudeDegrees>
            </Position>
            <AltitudeMeters>840.4000244140625</AltitudeMeters>
            <DistanceMeters>NAN</DistanceMeters>
          </Trackpoint>
          <Trackpoint>
            <Time>2022-06-16T10:08:59.000Z</Time>
            <Position>
              <LatitudeDegrees>36.8362140655517578125</LatitudeDegrees>
              <LongitudeDegrees>-4.39808710478246212005615234375</LongitudeDegrees>
            </Position>
            <AltitudeMeters>840.4000244140625</AltitudeMeters>
            <DistanceMeters>NAN</DistanceMeters>
          </Trackpoint>
          <Trackpoint>
            <Time>2022-06-16T10:09:00.000Z</Time>
            <Position>
              <LatitudeDegrees>36.83621465228497982025146484375</LatitudeDegrees>
              <LongitudeDegrees>-4.3980856798589229583740234375</LongitudeDegrees>
            </Position>
            <AltitudeMeters>840.4000244140625</AltitudeMeters>
            <DistanceMeters>NAN</DistanceMeters>
          </Trackpoint>
          <Trackpoint>
            <Time>2022-06-16T10:09:10.000Z</Time>
            <Position>
              <LatitudeDegrees>36.8362108804285526275634765625</LatitudeDegrees>
              <LongitudeDegrees>-4.39808056689798831939697265625</LongitudeDegrees>
            </Position>
            <AltitudeMeters>840.4000244140625</AltitudeMeters>
            <DistanceMeters>NAN</DistanceMeters>
          </Trackpoint>
          <Trackpoint>
            <Time>2022-06-16T10:09:13.000Z</Time>
            <Position>
              <LatitudeDegrees>36.8362100422382354736328125</LatitudeDegrees>
              <LongitudeDegrees>-4.3980806507170200347900390625</LongitudeDegrees>
            </Position>
            <AltitudeMeters>840.4000244140625</AltitudeMeters>
            <DistanceMeters>NAN</DistanceMeters>
          </Trackpoint>
          <Trackpoint>
            <Time>2022-06-16T10:09:19.000Z</Time>
            <Position>
              <LatitudeDegrees>36.8362081982195377349853515625</LatitudeDegrees>
              <LongitudeDegrees>-4.3980945646762847900390625</LongitudeDegrees>
            </Position>
            <AltitudeMeters>840.20001220703125</AltitudeMeters>
            <DistanceMeters>NAN</DistanceMeters>
          </Trackpoint>
          <Trackpoint>
            <Time>2022-06-16T10:09:20.000Z</Time>
            <Position>
              <LatitudeDegrees>36.8362068571150302886962890625</LatitudeDegrees>
              <LongitudeDegrees>-4.3980977497994899749755859375</LongitudeDegrees>
            </Position>
            <AltitudeMeters>840.20001220703125</AltitudeMeters>
            <DistanceMeters>NAN</DistanceMeters>
          </Trackpoint>
          <Trackpoint>
            <Time>2022-06-16T10:09:30.000Z</Time>
            <Position>
              <LatitudeDegrees>36.83620157651603221893310546875</LatitudeDegrees>
              <LongitudeDegrees>-4.39809858798980712890625</LongitudeDegrees>
            </Position>
            <AltitudeMeters>840.20001220703125</AltitudeMeters>
            <DistanceMeters>NAN</DistanceMeters>
          </Trackpoint>
          <Trackpoint>
            <Time>2022-06-16T10:09:40.000Z</Time>
            <Position>
              <LatitudeDegrees>36.83621381409466266632080078125</LatitudeDegrees>
              <LongitudeDegrees>-4.3981004320085048675537109375</LongitudeDegrees>
            </Position>
            <AltitudeMeters>840.20001220703125</AltitudeMeters>
            <DistanceMeters>NAN</DistanceMeters>
          </Trackpoint>
          <Trackpoint>
            <Time>2022-06-16T10:09:45.000Z</Time>
            <Position>
              <LatitudeDegrees>36.8362192623317241668701171875</LatitudeDegrees>
              <LongitudeDegrees>-4.3981081433594226837158203125</LongitudeDegrees>
            </Position>
            <AltitudeMeters>840.20001220703125</AltitudeMeters>
            <DistanceMeters>NAN</DistanceMeters>
          </Trackpoint>
          <Trackpoint>
            <Time>2022-06-16T10:09:50.000Z</Time>
            <Position>
              <LatitudeDegrees>36.8362138979136943817138671875</LatitudeDegrees>
              <LongitudeDegrees>-4.3980722688138484954833984375</LongitudeDegrees>
            </Position>
            <AltitudeMeters>840.5999755859375</AltitudeMeters>
            <DistanceMeters>NAN</DistanceMeters>
          </Trackpoint>
          <Trackpoint>
            <Time>2022-06-16T10:10:00.000Z</Time>
            <Position>
              <LatitudeDegrees>36.83618724346160888671875</LatitudeDegrees>
              <LongitudeDegrees>-4.3980712629854679107666015625</LongitudeDegrees>
            </Position>
            <AltitudeMeters>839.79998779296875</AltitudeMeters>
            <DistanceMeters>NAN</DistanceMeters>
          </Trackpoint>
          <Trackpoint>
            <Time>2022-06-16T10:10:10.000Z</Time>
            <Position>
              <LatitudeDegrees>36.83619461953639984130859375</LatitudeDegrees>
              <LongitudeDegrees>-4.39807352609932422637939453125</LongitudeDegrees>
            </Position>
            <AltitudeMeters>840</AltitudeMeters>
            <DistanceMeters>NAN</DistanceMeters>
          </Trackpoint>
          <Trackpoint>
            <Time>2022-06-16T10:10:20.000Z</Time>
            <Position>
              <LatitudeDegrees>36.836200319230556488037109375</LatitudeDegrees>
              <LongitudeDegrees>-4.39806682057678699493408203125</LongitudeDegrees>
            </Position>
            <AltitudeMeters>840.4000244140625</AltitudeMeters>
            <DistanceMeters>NAN</DistanceMeters>
          </Trackpoint>
          <Trackpoint>
            <Time>2022-06-16T10:10:30.000Z</Time>
            <Position>
              <LatitudeDegrees>36.836200319230556488037109375</LatitudeDegrees>
              <LongitudeDegrees>-4.398066066205501556396484375</LongitudeDegrees>
            </Position>
            <AltitudeMeters>840.4000244140625</AltitudeMeters>
            <DistanceMeters>NAN</DistanceMeters>
          </Trackpoint>
          <Trackpoint>
            <Time>2022-06-16T10:10:40.000Z</Time>
            <Position>
              <LatitudeDegrees>36.83620023541152477264404296875</LatitudeDegrees>
              <LongitudeDegrees>-4.398064054548740386962890625</LongitudeDegrees>
            </Position>
            <AltitudeMeters>840.4000244140625</AltitudeMeters>
            <DistanceMeters>NAN</DistanceMeters>
          </Trackpoint>
          <Trackpoint>
            <Time>2022-06-16T10:10:50.000Z</Time>
            <Position>
              <LatitudeDegrees>36.83619973249733448028564453125</LatitudeDegrees>
              <LongitudeDegrees>-4.39806145615875720977783203125</LongitudeDegrees>
            </Position>
            <AltitudeMeters>840.4000244140625</AltitudeMeters>
            <DistanceMeters>NAN</DistanceMeters>
          </Trackpoint>
          <Trackpoint>
            <Time>2022-06-16T10:11:00.000Z</Time>
            <Position>
              <LatitudeDegrees>36.83619721792638301849365234375</LatitudeDegrees>
              <LongitudeDegrees>-4.39805977977812290191650390625</LongitudeDegrees>
            </Position>
            <AltitudeMeters>840.4000244140625</AltitudeMeters>
            <DistanceMeters>NAN</DistanceMeters>
          </Trackpoint>
          <Trackpoint>
            <Time>2022-06-16T10:11:04.000Z</Time>
            <Position>
              <LatitudeDegrees>36.83619721792638301849365234375</LatitudeDegrees>
              <LongitudeDegrees>-4.39805793575942516326904296875</LongitudeDegrees>
            </Position>
            <AltitudeMeters>840.4000244140625</AltitudeMeters>
            <DistanceMeters>NAN</DistanceMeters>
          </Trackpoint>
          <Trackpoint>
            <Time>2022-06-16T10:11:10.000Z</Time>
            <Position>
              <LatitudeDegrees>36.83619327843189239501953125</LatitudeDegrees>
              <LongitudeDegrees>-4.3980605341494083404541015625</LongitudeDegrees>
            </Position>
            <AltitudeMeters>840.20001220703125</AltitudeMeters>
            <DistanceMeters>NAN</DistanceMeters>
          </Trackpoint>
          <Trackpoint>
            <Time>2022-06-16T10:11:20.000Z</Time>
            <Position>
              <LatitudeDegrees>36.83618967421352863311767578125</LatitudeDegrees>
              <LongitudeDegrees>-4.3980811536312103271484375</LongitudeDegrees>
            </Position>
            <AltitudeMeters>839.79998779296875</AltitudeMeters>
            <DistanceMeters>NAN</DistanceMeters>
          </Trackpoint>
          <Trackpoint>
            <Time>2022-06-16T10:11:27.000Z</Time>
            <Position>
              <LatitudeDegrees>36.8361944518983364105224609375</LatitudeDegrees>
              <LongitudeDegrees>-4.398081488907337188720703125</LongitudeDegrees>
            </Position>
            <AltitudeMeters>840</AltitudeMeters>
            <DistanceMeters>NAN</DistanceMeters>
          </Trackpoint>
          <Trackpoint>
            <Time>2022-06-16T10:11:30.000Z</Time>
            <Position>
              <LatitudeDegrees>36.83619604445993900299072265625</LatitudeDegrees>
              <LongitudeDegrees>-4.39808291383087635040283203125</LongitudeDegrees>
            </Position>
            <AltitudeMeters>840</AltitudeMeters>
            <DistanceMeters>NAN</DistanceMeters>
          </Trackpoint>
          <Trackpoint>
            <Time>2022-06-16T10:11:33.000Z</Time>
            <Position>
              <LatitudeDegrees>36.83619554154574871063232421875</LatitudeDegrees>
              <LongitudeDegrees>-4.39808291383087635040283203125</LongitudeDegrees>
            </Position>
            <AltitudeMeters>840</AltitudeMeters>
            <DistanceMeters>NAN</DistanceMeters>
          </Trackpoint>
          <Trackpoint>
            <Time>2022-06-16T10:11:35.000Z</Time>
            <Position>
              <LatitudeDegrees>36.83619621209800243377685546875</LatitudeDegrees>
              <LongitudeDegrees>-4.39808341674506664276123046875</LongitudeDegrees>
            </Position>
            <AltitudeMeters>840</AltitudeMeters>
            <DistanceMeters>NAN</DistanceMeters>
          </Trackpoint>
          <Trackpoint>
            <Time>2022-06-16T10:11:36.000Z</Time>
            <Position>
              <LatitudeDegrees>36.83619654737412929534912109375</LatitudeDegrees>
              <LongitudeDegrees>-4.39808391965925693511962890625</LongitudeDegrees>
            </Position>
            <AltitudeMeters>840</AltitudeMeters>
            <DistanceMeters>NAN</DistanceMeters>
          </Trackpoint>
          <Trackpoint>
            <Time>2022-06-16T10:11:40.000Z</Time>
            <Position>
              <LatitudeDegrees>36.83620124123990535736083984375</LatitudeDegrees>
              <LongitudeDegrees>-4.39808794297277927398681640625</LongitudeDegrees>
            </Position>
            <AltitudeMeters>840.20001220703125</AltitudeMeters>
            <DistanceMeters>NAN</DistanceMeters>
          </Trackpoint>
          <Trackpoint>
            <Time>2022-06-16T10:11:42.000Z</Time>
            <Position>
              <LatitudeDegrees>36.83620308525860309600830078125</LatitudeDegrees>
              <LongitudeDegrees>-4.3980903737246990203857421875</LongitudeDegrees>
            </Position>
            <AltitudeMeters>840.20001220703125</AltitudeMeters>
            <DistanceMeters>NAN</DistanceMeters>
          </Trackpoint>
          <Trackpoint>
            <Time>2022-06-16T10:11:43.000Z</Time>
            <Position>
              <LatitudeDegrees>36.83620157651603221893310546875</LatitudeDegrees>
              <LongitudeDegrees>-4.39809062518179416656494140625</LongitudeDegrees>
            </Position>
            <AltitudeMeters>840.20001220703125</AltitudeMeters>
            <DistanceMeters>NAN</DistanceMeters>
          </Trackpoint>
          <Trackpoint>
            <Time>2022-06-16T10:11:50.000Z</Time>
            <Position>
              <LatitudeDegrees>36.83620207943022251129150390625</LatitudeDegrees>
              <LongitudeDegrees>-4.39808744005858898162841796875</LongitudeDegrees>
            </Position>
            <AltitudeMeters>840.20001220703125</AltitudeMeters>
            <DistanceMeters>NAN</DistanceMeters>
          </Trackpoint>
          <Trackpoint>
            <Time>2022-06-16T10:12:00.000Z</Time>
            <Position>
              <LatitudeDegrees>36.83620442636311054229736328125</LatitudeDegrees>
              <LongitudeDegrees>-4.39808693714439868927001953125</LongitudeDegrees>
            </Position>
            <AltitudeMeters>840.4000244140625</AltitudeMeters>
            <DistanceMeters>NAN</DistanceMeters>
          </Trackpoint>
          <Trackpoint>
            <Time>2022-06-16T10:12:06.000Z</Time>
            <Position>
              <LatitudeDegrees>36.83621532283723354339599609375</LatitudeDegrees>
              <LongitudeDegrees>-4.39806899987161159515380859375</LongitudeDegrees>
            </Position>
            <AltitudeMeters>840.5999755859375</AltitudeMeters>
            <DistanceMeters>NAN</DistanceMeters>
          </Trackpoint>
          <Trackpoint>
            <Time>2022-06-16T10:12:10.000Z</Time>
            <Position>
              <LatitudeDegrees>36.83622705750167369842529296875</LatitudeDegrees>
              <LongitudeDegrees>-4.398064054548740386962890625</LongitudeDegrees>
            </Position>
            <AltitudeMeters>840.5999755859375</AltitudeMeters>
            <DistanceMeters>NAN</DistanceMeters>
          </Trackpoint>
          <Trackpoint>
            <Time>2022-06-16T10:12:20.000Z</Time>
            <Position>
              <LatitudeDegrees>36.83623929508030414581298828125</LatitudeDegrees>
              <LongitudeDegrees>-4.39805692993104457855224609375</LongitudeDegrees>
            </Position>
            <AltitudeMeters>840.79998779296875</AltitudeMeters>
            <DistanceMeters>NAN</DistanceMeters>
          </Trackpoint>
          <Trackpoint>
            <Time>2022-06-16T10:12:30.000Z</Time>
            <Position>
              <LatitudeDegrees>36.8362430669367313385009765625</LatitudeDegrees>
              <LongitudeDegrees>-4.398083500564098358154296875</LongitudeDegrees>
            </Position>
            <AltitudeMeters>840.5999755859375</AltitudeMeters>
            <DistanceMeters>NAN</DistanceMeters>
          </Trackpoint>
          <Trackpoint>
            <Time>2022-06-16T10:12:40.000Z</Time>
            <Position>
              <LatitudeDegrees>36.83620668947696685791015625</LatitudeDegrees>
              <LongitudeDegrees>-4.398064054548740386962890625</LongitudeDegrees>
            </Position>
            <AltitudeMeters>840.5999755859375</AltitudeMeters>
            <DistanceMeters>NAN</DistanceMeters>
          </Trackpoint>
          <Trackpoint>
            <Time>2022-06-16T10:12:50.000Z</Time>
            <Position>
              <LatitudeDegrees>36.83620543219149112701416015625</LatitudeDegrees>
              <LongitudeDegrees>-4.39807109534740447998046875</LongitudeDegrees>
            </Position>
            <AltitudeMeters>840.5999755859375</AltitudeMeters>
            <DistanceMeters>NAN</DistanceMeters>
          </Trackpoint>
          <Trackpoint>
            <Time>2022-06-16T10:13:00.000Z</Time>
            <Position>
              <LatitudeDegrees>36.83619101531803607940673828125</LatitudeDegrees>
              <LongitudeDegrees>-4.3980863504111766815185546875</LongitudeDegrees>
            </Position>
            <AltitudeMeters>839.79998779296875</AltitudeMeters>
            <DistanceMeters>NAN</DistanceMeters>
          </Trackpoint>
          <Trackpoint>
            <Time>2022-06-16T10:13:10.000Z</Time>
            <Position>
              <LatitudeDegrees>36.83620559982955455780029296875</LatitudeDegrees>
              <LongitudeDegrees>-4.39810789190232753753662109375</LongitudeDegrees>
            </Position>
            <AltitudeMeters>840.20001220703125</AltitudeMeters>
            <DistanceMeters>NAN</DistanceMeters>
          </Trackpoint>
          <Trackpoint>
            <Time>2022-06-16T10:13:17.000Z</Time>
            <Position>
              <LatitudeDegrees>36.83621716685593128204345703125</LatitudeDegrees>
              <LongitudeDegrees>-4.39811023883521556854248046875</LongitudeDegrees>
            </Position>
            <AltitudeMeters>840.20001220703125</AltitudeMeters>
            <DistanceMeters>NAN</DistanceMeters>
          </Trackpoint>
          <Trackpoint>
            <Time>2022-06-16T10:13:20.000Z</Time>
            <Position>
              <LatitudeDegrees>36.83621968142688274383544921875</LatitudeDegrees>
              <LongitudeDegrees>-4.3981158547103404998779296875</LongitudeDegrees>
            </Position>
            <AltitudeMeters>840</AltitudeMeters>
            <DistanceMeters>NAN</DistanceMeters>
          </Trackpoint>
          <Trackpoint>
            <Time>2022-06-16T10:13:29.000Z</Time>
            <Position>
              <LatitudeDegrees>36.8362185917794704437255859375</LatitudeDegrees>
              <LongitudeDegrees>-4.39809733070433139801025390625</LongitudeDegrees>
            </Position>
            <AltitudeMeters>840.20001220703125</AltitudeMeters>
            <DistanceMeters>NAN</DistanceMeters>
          </Trackpoint>
          <Trackpoint>
            <Time>2022-06-16T10:13:30.000Z</Time>
            <Position>
              <LatitudeDegrees>36.83621942996978759765625</LatitudeDegrees>
              <LongitudeDegrees>-4.398098923265933990478515625</LongitudeDegrees>
            </Position>
            <AltitudeMeters>840.20001220703125</AltitudeMeters>
            <DistanceMeters>NAN</DistanceMeters>
          </Trackpoint>
          <Trackpoint>
            <Time>2022-06-16T10:13:40.000Z</Time>
            <Position>
              <LatitudeDegrees>36.83623979799449443817138671875</LatitudeDegrees>
              <LongitudeDegrees>-4.39809934236109256744384765625</LongitudeDegrees>
            </Position>
            <AltitudeMeters>840.4000244140625</AltitudeMeters>
            <DistanceMeters>NAN</DistanceMeters>
          </Trackpoint>
          <Trackpoint>
            <Time>2022-06-16T10:13:50.000Z</Time>
            <Position>
              <LatitudeDegrees>36.8362665362656116485595703125</LatitudeDegrees>
              <LongitudeDegrees>-4.39810059964656829833984375</LongitudeDegrees>
            </Position>
            <AltitudeMeters>840.4000244140625</AltitudeMeters>
            <DistanceMeters>NAN</DistanceMeters>
          </Trackpoint>
          <Trackpoint>
            <Time>2022-06-16T10:14:00.000Z</Time>
            <Position>
              <LatitudeDegrees>36.836274079978466033935546875</LatitudeDegrees>
              <LongitudeDegrees>-4.39809900708496570587158203125</LongitudeDegrees>
            </Position>
            <AltitudeMeters>840.4000244140625</AltitudeMeters>
            <DistanceMeters>NAN</DistanceMeters>
          </Trackpoint>
          <Trackpoint>
            <Time>2022-06-16T10:14:10.000Z</Time>
            <Position>
              <LatitudeDegrees>36.8362792767584323883056640625</LatitudeDegrees>
              <LongitudeDegrees>-4.3980980850756168365478515625</LongitudeDegrees>
            </Position>
            <AltitudeMeters>840.5999755859375</AltitudeMeters>
            <DistanceMeters>NAN</DistanceMeters>
          </Trackpoint>
          <Trackpoint>
            <Time>2022-06-16T10:14:17.000Z</Time>
            <Position>
              <LatitudeDegrees>36.83626930229365825653076171875</LatitudeDegrees>
              <LongitudeDegrees>-4.398090876638889312744140625</LongitudeDegrees>
            </Position>
            <AltitudeMeters>840.5999755859375</AltitudeMeters>
            <DistanceMeters>NAN</DistanceMeters>
          </Trackpoint>
          <Trackpoint>
            <Time>2022-06-16T10:14:20.000Z</Time>
            <Position>
              <LatitudeDegrees>36.83626972138881683349609375</LatitudeDegrees>
              <LongitudeDegrees>-4.3980893678963184356689453125</LongitudeDegrees>
            </Position>
            <AltitudeMeters>840.5999755859375</AltitudeMeters>
            <DistanceMeters>NAN</DistanceMeters>
          </Trackpoint>
          <Trackpoint>
            <Time>2022-06-16T10:14:30.000Z</Time>
            <Position>
              <LatitudeDegrees>36.83625823818147182464599609375</LatitudeDegrees>
              <LongitudeDegrees>-4.39808827824890613555908203125</LongitudeDegrees>
            </Position>
            <AltitudeMeters>840.5999755859375</AltitudeMeters>
            <DistanceMeters>NAN</DistanceMeters>
          </Trackpoint>
          <Trackpoint>
            <Time>2022-06-16T10:14:34.000Z</Time>
            <Position>
              <LatitudeDegrees>36.83624767698347568511962890625</LatitudeDegrees>
              <LongitudeDegrees>-4.3980930559337139129638671875</LongitudeDegrees>
            </Position>
            <AltitudeMeters>840.4000244140625</AltitudeMeters>
            <DistanceMeters>NAN</DistanceMeters>
          </Trackpoint>
          <Trackpoint>
            <Time>2022-06-16T10:14:38.000Z</Time>
            <Position>
              <LatitudeDegrees>36.836230494081974029541015625</LatitudeDegrees>
              <LongitudeDegrees>-4.39808978699147701263427734375</LongitudeDegrees>
            </Position>
            <AltitudeMeters>840.4000244140625</AltitudeMeters>
            <DistanceMeters>NAN</DistanceMeters>
          </Trackpoint>
          <Trackpoint>
            <Time>2022-06-16T10:14:40.000Z</Time>
            <Position>
              <LatitudeDegrees>36.8362326733767986297607421875</LatitudeDegrees>
              <LongitudeDegrees>-4.3980803154408931732177734375</LongitudeDegrees>
            </Position>
            <AltitudeMeters>840.5999755859375</AltitudeMeters>
            <DistanceMeters>NAN</DistanceMeters>
          </Trackpoint>
          <Trackpoint>
            <Time>2022-06-16T10:14:50.000Z</Time>
            <Position>
              <LatitudeDegrees>36.83621129952371120452880859375</LatitudeDegrees>
              <LongitudeDegrees>-4.39807050861418247222900390625</LongitudeDegrees>
            </Position>
            <AltitudeMeters>840.5999755859375</AltitudeMeters>
            <DistanceMeters>NAN</DistanceMeters>
          </Trackpoint>
          <Trackpoint>
            <Time>2022-06-16T10:14:56.000Z</Time>
            <Position>
              <LatitudeDegrees>36.83620308525860309600830078125</LatitudeDegrees>
              <LongitudeDegrees>-4.398069418966770172119140625</LongitudeDegrees>
            </Position>
            <AltitudeMeters>840.4000244140625</AltitudeMeters>
            <DistanceMeters>NAN</DistanceMeters>
          </Trackpoint>
          <Trackpoint>
            <Time>2022-06-16T10:14:59.000Z</Time>
            <Position>
              <LatitudeDegrees>36.8361998163163661956787109375</LatitudeDegrees>
              <LongitudeDegrees>-4.39807503484189510345458984375</LongitudeDegrees>
            </Position>
            <AltitudeMeters>840.20001220703125</AltitudeMeters>
            <DistanceMeters>NAN</DistanceMeters>
          </Trackpoint>
          <Trackpoint>
            <Time>2022-06-16T10:15:00.000Z</Time>
            <Position>
              <LatitudeDegrees>36.83619990013539791107177734375</LatitudeDegrees>
              <LongitudeDegrees>-4.39807486720383167266845703125</LongitudeDegrees>
            </Position>
            <AltitudeMeters>840.20001220703125</AltitudeMeters>
            <DistanceMeters>NAN</DistanceMeters>
          </Trackpoint>
          <Trackpoint>
            <Time>2022-06-16T10:15:09.000Z</Time>
            <Position>
              <LatitudeDegrees>36.8362061865627765655517578125</LatitudeDegrees>
              <LongitudeDegrees>-4.39808090217411518096923828125</LongitudeDegrees>
            </Position>
            <AltitudeMeters>840.4000244140625</AltitudeMeters>
            <DistanceMeters>NAN</DistanceMeters>
          </Trackpoint>
          <Trackpoint>
            <Time>2022-06-16T10:15:10.000Z</Time>
            <Position>
              <LatitudeDegrees>36.83620694093406200408935546875</LatitudeDegrees>
              <LongitudeDegrees>-4.39808123745024204254150390625</LongitudeDegrees>
            </Position>
            <AltitudeMeters>840.4000244140625</AltitudeMeters>
            <DistanceMeters>NAN</DistanceMeters>
          </Trackpoint>
          <Trackpoint>
            <Time>2022-06-16T10:15:11.000Z</Time>
            <Position>
              <LatitudeDegrees>36.8362081982195377349853515625</LatitudeDegrees>
              <LongitudeDegrees>-4.39808157272636890411376953125</LongitudeDegrees>
            </Position>
            <AltitudeMeters>840.4000244140625</AltitudeMeters>
            <DistanceMeters>NAN</DistanceMeters>
          </Trackpoint>
          <Trackpoint>
            <Time>2022-06-16T10:15:14.000Z</Time>
            <Position>
              <LatitudeDegrees>36.83621079660952091217041015625</LatitudeDegrees>
              <LongitudeDegrees>-4.3980813212692737579345703125</LongitudeDegrees>
            </Position>
            <AltitudeMeters>840.4000244140625</AltitudeMeters>
            <DistanceMeters>NAN</DistanceMeters>
          </Trackpoint>
          <Trackpoint>
            <Time>2022-06-16T10:15:20.000Z</Time>
            <Position>
              <LatitudeDegrees>36.83621532283723354339599609375</LatitudeDegrees>
              <LongitudeDegrees>-4.39807453192770481109619140625</LongitudeDegrees>
            </Position>
            <AltitudeMeters>840.5999755859375</AltitudeMeters>
            <DistanceMeters>NAN</DistanceMeters>
          </Trackpoint>
          <Trackpoint>
            <Time>2022-06-16T10:15:22.000Z</Time>
            <Position>
              <LatitudeDegrees>36.8362152390182018280029296875</LatitudeDegrees>
              <LongitudeDegrees>-4.39807436428964138031005859375</LongitudeDegrees>
            </Position>
            <AltitudeMeters>840.5999755859375</AltitudeMeters>
            <DistanceMeters>NAN</DistanceMeters>
          </Trackpoint>
          <Trackpoint>
            <Time>2022-06-16T10:15:23.000Z</Time>
            <Position>
              <LatitudeDegrees>36.8362152390182018280029296875</LatitudeDegrees>
              <LongitudeDegrees>-4.39807386137545108795166015625</LongitudeDegrees>
            </Position>
            <AltitudeMeters>840.5999755859375</AltitudeMeters>
            <DistanceMeters>NAN</DistanceMeters>
          </Trackpoint>
          <Trackpoint>
            <Time>2022-06-16T10:15:29.000Z</Time>
            <Position>
              <LatitudeDegrees>36.83621339499950408935546875</LatitudeDegrees>
              <LongitudeDegrees>-4.3980739451944828033447265625</LongitudeDegrees>
            </Position>
            <AltitudeMeters>840.5999755859375</AltitudeMeters>
            <DistanceMeters>NAN</DistanceMeters>
          </Trackpoint>
          <Trackpoint>
            <Time>2022-06-16T10:15:30.000Z</Time>
            <Position>
              <LatitudeDegrees>36.83621364645659923553466796875</LatitudeDegrees>
              <LongitudeDegrees>-4.39807386137545108795166015625</LongitudeDegrees>
            </Position>
            <AltitudeMeters>840.5999755859375</AltitudeMeters>
            <DistanceMeters>NAN</DistanceMeters>
          </Trackpoint>
          <Trackpoint>
            <Time>2022-06-16T10:15:40.000Z</Time>
            <Position>
              <LatitudeDegrees>36.83621205389499664306640625</LatitudeDegrees>
              <LongitudeDegrees>-4.39806279726326465606689453125</LongitudeDegrees>
            </Position>
            <AltitudeMeters>840.5999755859375</AltitudeMeters>
            <DistanceMeters>NAN</DistanceMeters>
          </Trackpoint>
          <Trackpoint>
            <Time>2022-06-16T10:15:47.000Z</Time>
            <Position>
              <LatitudeDegrees>36.83621213771402835845947265625</LatitudeDegrees>
              <LongitudeDegrees>-4.39805307425558567047119140625</LongitudeDegrees>
            </Position>
            <AltitudeMeters>840.79998779296875</AltitudeMeters>
            <DistanceMeters>NAN</DistanceMeters>
          </Trackpoint>
          <Trackpoint>
            <Time>2022-06-16T10:15:50.000Z</Time>
            <Position>
              <LatitudeDegrees>36.83621129952371120452880859375</LatitudeDegrees>
              <LongitudeDegrees>-4.3980503082275390625</LongitudeDegrees>
            </Position>
            <AltitudeMeters>840.79998779296875</AltitudeMeters>
            <DistanceMeters>NAN</DistanceMeters>
          </Trackpoint>
          <Trackpoint>
            <Time>2022-06-16T10:15:53.000Z</Time>
            <Position>
              <LatitudeDegrees>36.836208365857601165771484375</LatitudeDegrees>
              <LongitudeDegrees>-4.398045949637889862060546875</LongitudeDegrees>
            </Position>
            <AltitudeMeters>840.79998779296875</AltitudeMeters>
            <DistanceMeters>NAN</DistanceMeters>
          </Trackpoint>
          <Trackpoint>
            <Time>2022-06-16T10:15:58.000Z</Time>
            <Position>
              <LatitudeDegrees>36.83620777912437915802001953125</LatitudeDegrees>
              <LongitudeDegrees>-4.39803890883922576904296875</LongitudeDegrees>
            </Position>
            <AltitudeMeters>840.79998779296875</AltitudeMeters>
            <DistanceMeters>NAN</DistanceMeters>
          </Trackpoint>
          <Trackpoint>
            <Time>2022-06-16T10:15:59.000Z</Time>
            <Position>
              <LatitudeDegrees>36.8362092040479183197021484375</LatitudeDegrees>
              <LongitudeDegrees>-4.39803848974406719207763671875</LongitudeDegrees>
            </Position>
            <AltitudeMeters>840.79998779296875</AltitudeMeters>
            <DistanceMeters>NAN</DistanceMeters>
          </Trackpoint>
          <Trackpoint>
            <Time>2022-06-16T10:16:00.000Z</Time>
            <Position>
              <LatitudeDegrees>36.836210377514362335205078125</LatitudeDegrees>
              <LongitudeDegrees>-4.39803756773471832275390625</LongitudeDegrees>
            </Position>
            <AltitudeMeters>841</AltitudeMeters>
            <DistanceMeters>NAN</DistanceMeters>
          </Trackpoint>
          <Trackpoint>
            <Time>2022-06-16T10:16:02.000Z</Time>
            <Position>
              <LatitudeDegrees>36.83621264062821865081787109375</LatitudeDegrees>
              <LongitudeDegrees>-4.39803714863955974578857421875</LongitudeDegrees>
            </Position>
            <AltitudeMeters>841</AltitudeMeters>
            <DistanceMeters>NAN</DistanceMeters>
          </Trackpoint>
          <Trackpoint>
            <Time>2022-06-16T10:16:04.000Z</Time>
            <Position>
              <LatitudeDegrees>36.8362122215330600738525390625</LatitudeDegrees>
              <LongitudeDegrees>-4.3980382382869720458984375</LongitudeDegrees>
            </Position>
            <AltitudeMeters>841</AltitudeMeters>
            <DistanceMeters>NAN</DistanceMeters>
          </Trackpoint>
          <Trackpoint>
            <Time>2022-06-16T10:16:05.000Z</Time>
            <Position>
              <LatitudeDegrees>36.83621230535209178924560546875</LatitudeDegrees>
              <LongitudeDegrees>-4.3980380706489086151123046875</LongitudeDegrees>
            </Position>
            <AltitudeMeters>841</AltitudeMeters>
            <DistanceMeters>NAN</DistanceMeters>
          </Trackpoint>
          <Trackpoint>
            <Time>2022-06-16T10:16:10.000Z</Time>
            <Position>
              <LatitudeDegrees>36.8362127244472503662109375</LatitudeDegrees>
              <LongitudeDegrees>-4.3980350531637668609619140625</LongitudeDegrees>
            </Position>
            <AltitudeMeters>841</AltitudeMeters>
            <DistanceMeters>NAN</DistanceMeters>
          </Trackpoint>
          <Trackpoint>
            <Time>2022-06-16T10:16:12.000Z</Time>
            <Position>
              <LatitudeDegrees>36.83621473610401153564453125</LatitudeDegrees>
              <LongitudeDegrees>-4.39803731627762317657470703125</LongitudeDegrees>
            </Position>
            <AltitudeMeters>841</AltitudeMeters>
            <DistanceMeters>NAN</DistanceMeters>
          </Trackpoint>
          <Trackpoint>
            <Time>2022-06-16T10:16:17.000Z</Time>
            <Position>
              <LatitudeDegrees>36.836193613708019256591796875</LatitudeDegrees>
              <LongitudeDegrees>-4.3980601988732814788818359375</LongitudeDegrees>
            </Position>
            <AltitudeMeters>840.20001220703125</AltitudeMeters>
            <DistanceMeters>NAN</DistanceMeters>
          </Trackpoint>
          <Trackpoint>
            <Time>2022-06-16T10:16:18.000Z</Time>
            <Position>
              <LatitudeDegrees>36.836191602051258087158203125</LatitudeDegrees>
              <LongitudeDegrees>-4.3980662338435649871826171875</LongitudeDegrees>
            </Position>
            <AltitudeMeters>840</AltitudeMeters>
            <DistanceMeters>NAN</DistanceMeters>
          </Trackpoint>
          <Trackpoint>
            <Time>2022-06-16T10:16:19.000Z</Time>
            <Position>
              <LatitudeDegrees>36.83618925511837005615234375</LatitudeDegrees>
              <LongitudeDegrees>-4.39806916750967502593994140625</LongitudeDegrees>
            </Position>
            <AltitudeMeters>839.79998779296875</AltitudeMeters>
            <DistanceMeters>NAN</DistanceMeters>
          </Trackpoint>
          <Trackpoint>
            <Time>2022-06-16T10:16:20.000Z</Time>
            <Position>
              <LatitudeDegrees>36.8361870758235454559326171875</LatitudeDegrees>
              <LongitudeDegrees>-4.3980757892131805419921875</LongitudeDegrees>
            </Position>
            <AltitudeMeters>839.79998779296875</AltitudeMeters>
            <DistanceMeters>NAN</DistanceMeters>
          </Trackpoint>
          <Trackpoint>
            <Time>2022-06-16T10:16:25.000Z</Time>
            <Position>
              <LatitudeDegrees>36.83617643080651760101318359375</LatitudeDegrees>
              <LongitudeDegrees>-4.398079477250576019287109375</LongitudeDegrees>
            </Position>
            <AltitudeMeters>839.20001220703125</AltitudeMeters>
            <DistanceMeters>NAN</DistanceMeters>
          </Trackpoint>
          <Trackpoint>
            <Time>2022-06-16T10:16:27.000Z</Time>
            <Position>
              <LatitudeDegrees>36.83617978356778621673583984375</LatitudeDegrees>
              <LongitudeDegrees>-4.39808039925992488861083984375</LongitudeDegrees>
            </Position>
            <AltitudeMeters>839.4000244140625</AltitudeMeters>
            <DistanceMeters>NAN</DistanceMeters>
          </Trackpoint>
          <Trackpoint>
            <Time>2022-06-16T10:16:29.000Z</Time>
            <Position>
              <LatitudeDegrees>36.8361830525100231170654296875</LatitudeDegrees>
              <LongitudeDegrees>-4.3980829976499080657958984375</LongitudeDegrees>
            </Position>
            <AltitudeMeters>839.4000244140625</AltitudeMeters>
            <DistanceMeters>NAN</DistanceMeters>
          </Trackpoint>
          <Trackpoint>
            <Time>2022-06-16T10:16:30.000Z</Time>
            <Position>
              <LatitudeDegrees>36.83618548326194286346435546875</LatitudeDegrees>
              <LongitudeDegrees>-4.398082159459590911865234375</LongitudeDegrees>
            </Position>
            <AltitudeMeters>839.5999755859375</AltitudeMeters>
            <DistanceMeters>NAN</DistanceMeters>
          </Trackpoint>
          <Trackpoint>
            <Time>2022-06-16T10:16:31.000Z</Time>
            <Position>
              <LatitudeDegrees>36.836186908185482025146484375</LatitudeDegrees>
              <LongitudeDegrees>-4.3980826623737812042236328125</LongitudeDegrees>
            </Position>
            <AltitudeMeters>839.5999755859375</AltitudeMeters>
            <DistanceMeters>NAN</DistanceMeters>
          </Trackpoint>
          <Trackpoint>
            <Time>2022-06-16T10:16:33.000Z</Time>
            <Position>
              <LatitudeDegrees>36.83618732728064060211181640625</LatitudeDegrees>
              <LongitudeDegrees>-4.39808450639247894287109375</LongitudeDegrees>
            </Position>
            <AltitudeMeters>839.5999755859375</AltitudeMeters>
            <DistanceMeters>NAN</DistanceMeters>
          </Trackpoint>
          <Trackpoint>
            <Time>2022-06-16T10:16:34.000Z</Time>
            <Position>
              <LatitudeDegrees>36.83618799783289432525634765625</LatitudeDegrees>
              <LongitudeDegrees>-4.398088194429874420166015625</LongitudeDegrees>
            </Position>
            <AltitudeMeters>839.5999755859375</AltitudeMeters>
            <DistanceMeters>NAN</DistanceMeters>
          </Trackpoint>
          <Trackpoint>
            <Time>2022-06-16T10:16:40.000Z</Time>
            <Position>
              <LatitudeDegrees>36.836190931499004364013671875</LatitudeDegrees>
              <LongitudeDegrees>-4.3980927206575870513916015625</LongitudeDegrees>
            </Position>
            <AltitudeMeters>839.79998779296875</AltitudeMeters>
            <DistanceMeters>NAN</DistanceMeters>
          </Trackpoint>
          <Trackpoint>
            <Time>2022-06-16T10:16:47.000Z</Time>
            <Position>
              <LatitudeDegrees>36.83619101531803607940673828125</LatitudeDegrees>
              <LongitudeDegrees>-4.39809733070433139801025390625</LongitudeDegrees>
            </Position>
            <AltitudeMeters>839.5999755859375</AltitudeMeters>
            <DistanceMeters>NAN</DistanceMeters>
          </Trackpoint>
          <Trackpoint>
            <Time>2022-06-16T10:16:50.000Z</Time>
            <Position>
              <LatitudeDegrees>36.836192272603511810302734375</LatitudeDegrees>
              <LongitudeDegrees>-4.39809934236109256744384765625</LongitudeDegrees>
            </Position>
            <AltitudeMeters>839.5999755859375</AltitudeMeters>
            <DistanceMeters>NAN</DistanceMeters>
          </Trackpoint>
          <Trackpoint>
            <Time>2022-06-16T10:17:00.000Z</Time>
            <Position>
              <LatitudeDegrees>36.83620124123990535736083984375</LatitudeDegrees>
              <LongitudeDegrees>-4.39807905815541744232177734375</LongitudeDegrees>
            </Position>
            <AltitudeMeters>840.4000244140625</AltitudeMeters>
            <DistanceMeters>NAN</DistanceMeters>
          </Trackpoint>
          <Trackpoint>
            <Time>2022-06-16T10:17:10.000Z</Time>
            <Position>
              <LatitudeDegrees>36.8361991457641124725341796875</LatitudeDegrees>
              <LongitudeDegrees>-4.39807889051735401153564453125</LongitudeDegrees>
            </Position>
            <AltitudeMeters>840.20001220703125</AltitudeMeters>
            <DistanceMeters>NAN</DistanceMeters>
          </Trackpoint>
          <Trackpoint>
            <Time>2022-06-16T10:17:20.000Z</Time>
            <Position>
              <LatitudeDegrees>36.8362024985253810882568359375</LatitudeDegrees>
              <LongitudeDegrees>-4.39807637594640254974365234375</LongitudeDegrees>
            </Position>
            <AltitudeMeters>840.4000244140625</AltitudeMeters>
            <DistanceMeters>NAN</DistanceMeters>
          </Trackpoint>
          <Trackpoint>
            <Time>2022-06-16T10:17:30.000Z</Time>
            <Position>
              <LatitudeDegrees>36.83620132505893707275390625</LatitudeDegrees>
              <LongitudeDegrees>-4.39806112088263034820556640625</LongitudeDegrees>
            </Position>
            <AltitudeMeters>840.4000244140625</AltitudeMeters>
            <DistanceMeters>NAN</DistanceMeters>
          </Trackpoint>
          <Trackpoint>
            <Time>2022-06-16T10:17:40.000Z</Time>
            <Position>
              <LatitudeDegrees>36.836206354200839996337890625</LatitudeDegrees>
              <LongitudeDegrees>-4.39805709756910800933837890625</LongitudeDegrees>
            </Position>
            <AltitudeMeters>840.5999755859375</AltitudeMeters>
            <DistanceMeters>NAN</DistanceMeters>
          </Trackpoint>
          <Trackpoint>
            <Time>2022-06-16T10:17:50.000Z</Time>
            <Position>
              <LatitudeDegrees>36.8362055160105228424072265625</LatitudeDegrees>
              <LongitudeDegrees>-4.39809028990566730499267578125</LongitudeDegrees>
            </Position>
            <AltitudeMeters>840.4000244140625</AltitudeMeters>
            <DistanceMeters>NAN</DistanceMeters>
          </Trackpoint>
          <Trackpoint>
            <Time>2022-06-16T10:18:00.000Z</Time>
            <Position>
              <LatitudeDegrees>36.83623728342354297637939453125</LatitudeDegrees>
              <LongitudeDegrees>-4.3980990909039974212646484375</LongitudeDegrees>
            </Position>
            <AltitudeMeters>840.4000244140625</AltitudeMeters>
            <DistanceMeters>NAN</DistanceMeters>
          </Trackpoint>
          <Trackpoint>
            <Time>2022-06-16T10:18:10.000Z</Time>
            <Position>
              <LatitudeDegrees>36.83623409830033779144287109375</LatitudeDegrees>
              <LongitudeDegrees>-4.3981039524078369140625</LongitudeDegrees>
            </Position>
            <AltitudeMeters>840.20001220703125</AltitudeMeters>
            <DistanceMeters>NAN</DistanceMeters>
          </Trackpoint>
          <Trackpoint>
            <Time>2022-06-16T10:18:20.000Z</Time>
            <Position>
              <LatitudeDegrees>36.83621431700885295867919921875</LatitudeDegrees>
              <LongitudeDegrees>-4.3980811536312103271484375</LongitudeDegrees>
            </Position>
            <AltitudeMeters>840.4000244140625</AltitudeMeters>
            <DistanceMeters>NAN</DistanceMeters>
          </Trackpoint>
          <Trackpoint>
            <Time>2022-06-16T10:18:30.000Z</Time>
            <Position>
              <LatitudeDegrees>36.83621875941753387451171875</LatitudeDegrees>
              <LongitudeDegrees>-4.39807713031768798828125</LongitudeDegrees>
            </Position>
            <AltitudeMeters>840.5999755859375</AltitudeMeters>
            <DistanceMeters>NAN</DistanceMeters>
          </Trackpoint>
          <Trackpoint>
            <Time>2022-06-16T10:18:40.000Z</Time>
            <Position>
              <LatitudeDegrees>36.83622102253139019012451171875</LatitudeDegrees>
              <LongitudeDegrees>-4.3980752862989902496337890625</LongitudeDegrees>
            </Position>
            <AltitudeMeters>840.5999755859375</AltitudeMeters>
            <DistanceMeters>NAN</DistanceMeters>
          </Trackpoint>
          <Trackpoint>
            <Time>2022-06-16T10:18:50.000Z</Time>
            <Position>
              <LatitudeDegrees>36.8362179212272167205810546875</LatitudeDegrees>
              <LongitudeDegrees>-4.39807838760316371917724609375</LongitudeDegrees>
            </Position>
            <AltitudeMeters>840.4000244140625</AltitudeMeters>
            <DistanceMeters>NAN</DistanceMeters>
          </Trackpoint>
          <Trackpoint>
            <Time>2022-06-16T10:19:00.000Z</Time>
            <Position>
              <LatitudeDegrees>36.83622906915843486785888671875</LatitudeDegrees>
              <LongitudeDegrees>-4.398071430623531341552734375</LongitudeDegrees>
            </Position>
            <AltitudeMeters>840.5999755859375</AltitudeMeters>
            <DistanceMeters>NAN</DistanceMeters>
          </Trackpoint>
          <Trackpoint>
            <Time>2022-06-16T10:19:10.000Z</Time>
            <Position>
              <LatitudeDegrees>36.8362303264439105987548828125</LatitudeDegrees>
              <LongitudeDegrees>-4.3980504758656024932861328125</LongitudeDegrees>
            </Position>
            <AltitudeMeters>840.79998779296875</AltitudeMeters>
            <DistanceMeters>NAN</DistanceMeters>
          </Trackpoint>
          <Trackpoint>
            <Time>2022-06-16T10:19:20.000Z</Time>
            <Position>
              <LatitudeDegrees>36.8362407200038433074951171875</LatitudeDegrees>
              <LongitudeDegrees>-4.3980437703430652618408203125</LongitudeDegrees>
            </Position>
            <AltitudeMeters>841</AltitudeMeters>
            <DistanceMeters>NAN</DistanceMeters>
          </Trackpoint>
          <Trackpoint>
            <Time>2022-06-16T10:19:30.000Z</Time>
            <Position>
              <LatitudeDegrees>36.836252622306346893310546875</LatitudeDegrees>
              <LongitudeDegrees>-4.398029856383800506591796875</LongitudeDegrees>
            </Position>
            <AltitudeMeters>841.20001220703125</AltitudeMeters>
            <DistanceMeters>NAN</DistanceMeters>
          </Trackpoint>
          <Trackpoint>
            <Time>2022-06-16T10:19:37.000Z</Time>
            <Position>
              <LatitudeDegrees>36.83624566532671451568603515625</LatitudeDegrees>
              <LongitudeDegrees>-4.3980115838348865509033203125</LongitudeDegrees>
            </Position>
            <AltitudeMeters>841.20001220703125</AltitudeMeters>
            <DistanceMeters>NAN</DistanceMeters>
          </Trackpoint>
          <Trackpoint>
            <Time>2022-06-16T10:19:40.000Z</Time>
            <Position>
              <LatitudeDegrees>36.83625337667763233184814453125</LatitudeDegrees>
              <LongitudeDegrees>-4.3980033695697784423828125</LongitudeDegrees>
            </Position>
            <AltitudeMeters>841.20001220703125</AltitudeMeters>
            <DistanceMeters>NAN</DistanceMeters>
          </Trackpoint>
          <Trackpoint>
            <Time>2022-06-16T10:19:50.000Z</Time>
            <Position>
              <LatitudeDegrees>36.8362430669367313385009765625</LatitudeDegrees>
              <LongitudeDegrees>-4.3980454467236995697021484375</LongitudeDegrees>
            </Position>
            <AltitudeMeters>841</AltitudeMeters>
            <DistanceMeters>NAN</DistanceMeters>
          </Trackpoint>
          <Trackpoint>
            <Time>2022-06-16T10:19:59.000Z</Time>
            <Position>
              <LatitudeDegrees>36.8362142331898212432861328125</LatitudeDegrees>
              <LongitudeDegrees>-4.39808224327862262725830078125</LongitudeDegrees>
            </Position>
            <AltitudeMeters>840.4000244140625</AltitudeMeters>
            <DistanceMeters>NAN</DistanceMeters>
          </Trackpoint>
          <Trackpoint>
            <Time>2022-06-16T10:20:00.000Z</Time>
            <Position>
              <LatitudeDegrees>36.83621465228497982025146484375</LatitudeDegrees>
              <LongitudeDegrees>-4.39807017333805561065673828125</LongitudeDegrees>
            </Position>
            <AltitudeMeters>840.5999755859375</AltitudeMeters>
            <DistanceMeters>NAN</DistanceMeters>
          </Trackpoint>
          <Trackpoint>
            <Time>2022-06-16T10:20:10.000Z</Time>
            <Position>
              <LatitudeDegrees>36.83621213771402835845947265625</LatitudeDegrees>
              <LongitudeDegrees>-4.39804469235241413116455078125</LongitudeDegrees>
            </Position>
            <AltitudeMeters>840.79998779296875</AltitudeMeters>
            <DistanceMeters>NAN</DistanceMeters>
          </Trackpoint>
          <Trackpoint>
            <Time>2022-06-16T10:20:20.000Z</Time>
            <Position>
              <LatitudeDegrees>36.83620895259082317352294921875</LatitudeDegrees>
              <LongitudeDegrees>-4.39804569818079471588134765625</LongitudeDegrees>
            </Position>
            <AltitudeMeters>840.79998779296875</AltitudeMeters>
            <DistanceMeters>NAN</DistanceMeters>
          </Trackpoint>
          <Trackpoint>
            <Time>2022-06-16T10:20:30.000Z</Time>
            <Position>
              <LatitudeDegrees>36.83621213771402835845947265625</LatitudeDegrees>
              <LongitudeDegrees>-4.39805324189364910125732421875</LongitudeDegrees>
            </Position>
            <AltitudeMeters>840.79998779296875</AltitudeMeters>
            <DistanceMeters>NAN</DistanceMeters>
          </Trackpoint>
          <Trackpoint>
            <Time>2022-06-16T10:20:40.000Z</Time>
            <Position>
              <LatitudeDegrees>36.83619202114641666412353515625</LatitudeDegrees>
              <LongitudeDegrees>-4.39804502762854099273681640625</LongitudeDegrees>
            </Position>
            <AltitudeMeters>840.20001220703125</AltitudeMeters>
            <DistanceMeters>NAN</DistanceMeters>
          </Trackpoint>
          <Trackpoint>
            <Time>2022-06-16T10:20:50.000Z</Time>
            <Position>
              <LatitudeDegrees>36.836173497140407562255859375</LatitudeDegrees>
              <LongitudeDegrees>-4.3980363942682743072509765625</LongitudeDegrees>
            </Position>
            <AltitudeMeters>839.5999755859375</AltitudeMeters>
            <DistanceMeters>NAN</DistanceMeters>
          </Trackpoint>
          <Trackpoint>
            <Time>2022-06-16T10:20:57.000Z</Time>
            <Position>
              <LatitudeDegrees>36.83617190457880496978759765625</LatitudeDegrees>
              <LongitudeDegrees>-4.3980337120592594146728515625</LongitudeDegrees>
            </Position>
            <AltitudeMeters>839.5999755859375</AltitudeMeters>
            <DistanceMeters>NAN</DistanceMeters>
          </Trackpoint>
          <Trackpoint>
            <Time>2022-06-16T10:21:00.000Z</Time>
            <Position>
              <LatitudeDegrees>36.83617156930267810821533203125</LatitudeDegrees>
              <LongitudeDegrees>-4.39802960492670536041259765625</LongitudeDegrees>
            </Position>
            <AltitudeMeters>839.5999755859375</AltitudeMeters>
            <DistanceMeters>NAN</DistanceMeters>
          </Trackpoint>
          <Trackpoint>
            <Time>2022-06-16T10:21:10.000Z</Time>
            <Position>
              <LatitudeDegrees>36.83616645634174346923828125</LatitudeDegrees>
              <LongitudeDegrees>-4.398028850555419921875</LongitudeDegrees>
            </Position>
            <AltitudeMeters>839.4000244140625</AltitudeMeters>
            <DistanceMeters>NAN</DistanceMeters>
          </Trackpoint>
          <Trackpoint>
            <Time>2022-06-16T10:21:20.000Z</Time>
            <Position>
              <LatitudeDegrees>36.8361662887036800384521484375</LatitudeDegrees>
              <LongitudeDegrees>-4.398028850555419921875</LongitudeDegrees>
            </Position>
            <AltitudeMeters>839.4000244140625</AltitudeMeters>
            <DistanceMeters>NAN</DistanceMeters>
          </Trackpoint>
          <Trackpoint>
            <Time>2022-06-16T10:21:27.000Z</Time>
            <Position>
              <LatitudeDegrees>36.836166791617870330810546875</LatitudeDegrees>
              <LongitudeDegrees>-4.3980276770889759063720703125</LongitudeDegrees>
            </Position>
            <AltitudeMeters>839.4000244140625</AltitudeMeters>
            <DistanceMeters>NAN</DistanceMeters>
          </Trackpoint>
          <Trackpoint>
            <Time>2022-06-16T10:21:30.000Z</Time>
            <Position>
              <LatitudeDegrees>36.8361703120172023773193359375</LatitudeDegrees>
              <LongitudeDegrees>-4.39802776090800762176513671875</LongitudeDegrees>
            </Position>
            <AltitudeMeters>839.5999755859375</AltitudeMeters>
            <DistanceMeters>NAN</DistanceMeters>
          </Trackpoint>
          <Trackpoint>
            <Time>2022-06-16T10:21:40.000Z</Time>
            <Position>
              <LatitudeDegrees>36.83617492206394672393798828125</LatitudeDegrees>
              <LongitudeDegrees>-4.39802641980350017547607421875</LongitudeDegrees>
            </Position>
            <AltitudeMeters>839.79998779296875</AltitudeMeters>
            <DistanceMeters>NAN</DistanceMeters>
          </Trackpoint>
          <Trackpoint>
            <Time>2022-06-16T10:21:50.000Z</Time>
            <Position>
              <LatitudeDegrees>36.8361763469874858856201171875</LatitudeDegrees>
              <LongitudeDegrees>-4.39803094603121280670166015625</LongitudeDegrees>
            </Position>
            <AltitudeMeters>839.79998779296875</AltitudeMeters>
            <DistanceMeters>NAN</DistanceMeters>
          </Trackpoint>
          <Trackpoint>
            <Time>2022-06-16T10:22:00.000Z</Time>
            <Position>
              <LatitudeDegrees>36.8361847288906574249267578125</LatitudeDegrees>
              <LongitudeDegrees>-4.39804385416209697723388671875</LongitudeDegrees>
            </Position>
            <AltitudeMeters>840</AltitudeMeters>
            <DistanceMeters>NAN</DistanceMeters>
          </Trackpoint>
          <Trackpoint>
            <Time>2022-06-16T10:22:10.000Z</Time>
            <Position>
              <LatitudeDegrees>36.8362018279731273651123046875</LatitudeDegrees>
              <LongitudeDegrees>-4.3980508111417293548583984375</LongitudeDegrees>
            </Position>
            <AltitudeMeters>840.5999755859375</AltitudeMeters>
            <DistanceMeters>NAN</DistanceMeters>
          </Trackpoint>
          <Trackpoint>
            <Time>2022-06-16T10:22:20.000Z</Time>
            <Position>
              <LatitudeDegrees>36.836195290088653564453125</LatitudeDegrees>
              <LongitudeDegrees>-4.39804586581885814666748046875</LongitudeDegrees>
            </Position>
            <AltitudeMeters>840.4000244140625</AltitudeMeters>
            <DistanceMeters>NAN</DistanceMeters>
          </Trackpoint>
          <Trackpoint>
            <Time>2022-06-16T10:22:30.000Z</Time>
            <Position>
              <LatitudeDegrees>36.83619059622287750244140625</LatitudeDegrees>
              <LongitudeDegrees>-4.39804066903889179229736328125</LongitudeDegrees>
            </Position>
            <AltitudeMeters>840.20001220703125</AltitudeMeters>
            <DistanceMeters>NAN</DistanceMeters>
          </Trackpoint>
          <Trackpoint>
            <Time>2022-06-16T10:22:40.000Z</Time>
            <Position>
              <LatitudeDegrees>36.83617894537746906280517578125</LatitudeDegrees>
              <LongitudeDegrees>-4.39804167486727237701416015625</LongitudeDegrees>
            </Position>
            <AltitudeMeters>839.79998779296875</AltitudeMeters>
            <DistanceMeters>NAN</DistanceMeters>
          </Trackpoint>
          <Trackpoint>
            <Time>2022-06-16T10:22:47.000Z</Time>
            <Position>
              <LatitudeDegrees>36.836178861558437347412109375</LatitudeDegrees>
              <LongitudeDegrees>-4.39803530462086200714111328125</LongitudeDegrees>
            </Position>
            <AltitudeMeters>839.79998779296875</AltitudeMeters>
            <DistanceMeters>NAN</DistanceMeters>
          </Trackpoint>
          <Trackpoint>
            <Time>2022-06-16T10:22:50.000Z</Time>
            <Position>
              <LatitudeDegrees>36.83617710135877132415771484375</LatitudeDegrees>
              <LongitudeDegrees>-4.39804687164723873138427734375</LongitudeDegrees>
            </Position>
            <AltitudeMeters>839.5999755859375</AltitudeMeters>
            <DistanceMeters>NAN</DistanceMeters>
          </Trackpoint>
          <Trackpoint>
            <Time>2022-06-16T10:23:00.000Z</Time>
            <Position>
              <LatitudeDegrees>36.83618766255676746368408203125</LatitudeDegrees>
              <LongitudeDegrees>-4.398035891354084014892578125</LongitudeDegrees>
            </Position>
            <AltitudeMeters>840.20001220703125</AltitudeMeters>
            <DistanceMeters>NAN</DistanceMeters>
          </Trackpoint>
          <Trackpoint>
            <Time>2022-06-16T10:23:05.000Z</Time>
            <Position>
              <LatitudeDegrees>36.8362055160105228424072265625</LatitudeDegrees>
              <LongitudeDegrees>-4.39803044311702251434326171875</LongitudeDegrees>
            </Position>
            <AltitudeMeters>841</AltitudeMeters>
            <DistanceMeters>NAN</DistanceMeters>
          </Trackpoint>
          <Trackpoint>
            <Time>2022-06-16T10:23:07.000Z</Time>
            <Position>
              <LatitudeDegrees>36.83620844967663288116455078125</LatitudeDegrees>
              <LongitudeDegrees>-4.39802994020283222198486328125</LongitudeDegrees>
            </Position>
            <AltitudeMeters>841</AltitudeMeters>
            <DistanceMeters>NAN</DistanceMeters>
          </Trackpoint>
          <Trackpoint>
            <Time>2022-06-16T10:23:10.000Z</Time>
            <Position>
              <LatitudeDegrees>36.8362115509808063507080078125</LatitudeDegrees>
              <LongitudeDegrees>-4.39802088774740695953369140625</LongitudeDegrees>
            </Position>
            <AltitudeMeters>841</AltitudeMeters>
            <DistanceMeters>NAN</DistanceMeters>
          </Trackpoint>
          <Trackpoint>
            <Time>2022-06-16T10:23:20.000Z</Time>
            <Position>
              <LatitudeDegrees>36.83621599338948726654052734375</LatitudeDegrees>
              <LongitudeDegrees>-4.39803748391568660736083984375</LongitudeDegrees>
            </Position>
            <AltitudeMeters>841</AltitudeMeters>
            <DistanceMeters>NAN</DistanceMeters>
          </Trackpoint>
          <Trackpoint>
            <Time>2022-06-16T10:23:21.000Z</Time>
            <Position>
              <LatitudeDegrees>36.83621448464691638946533203125</LatitudeDegrees>
              <LongitudeDegrees>-4.398033879697322845458984375</LongitudeDegrees>
            </Position>
            <AltitudeMeters>841</AltitudeMeters>
            <DistanceMeters>NAN</DistanceMeters>
          </Trackpoint>
          <Trackpoint>
            <Time>2022-06-16T10:23:22.000Z</Time>
            <Position>
              <LatitudeDegrees>36.83621381409466266632080078125</LatitudeDegrees>
              <LongitudeDegrees>-4.39803622663021087646484375</LongitudeDegrees>
            </Position>
            <AltitudeMeters>841</AltitudeMeters>
            <DistanceMeters>NAN</DistanceMeters>
          </Trackpoint>
          <Trackpoint>
            <Time>2022-06-16T10:23:23.000Z</Time>
            <Position>
              <LatitudeDegrees>36.83621247299015522003173828125</LatitudeDegrees>
              <LongitudeDegrees>-4.39803781919181346893310546875</LongitudeDegrees>
            </Position>
            <AltitudeMeters>841</AltitudeMeters>
            <DistanceMeters>NAN</DistanceMeters>
          </Trackpoint>
          <Trackpoint>
            <Time>2022-06-16T10:23:24.000Z</Time>
            <Position>
              <LatitudeDegrees>36.83621297590434551239013671875</LatitudeDegrees>
              <LongitudeDegrees>-4.39803756773471832275390625</LongitudeDegrees>
            </Position>
            <AltitudeMeters>841</AltitudeMeters>
            <DistanceMeters>NAN</DistanceMeters>
          </Trackpoint>
          <Trackpoint>
            <Time>2022-06-16T10:23:25.000Z</Time>
            <Position>
              <LatitudeDegrees>36.8362122215330600738525390625</LatitudeDegrees>
              <LongitudeDegrees>-4.3980387412011623382568359375</LongitudeDegrees>
            </Position>
            <AltitudeMeters>841</AltitudeMeters>
            <DistanceMeters>NAN</DistanceMeters>
          </Trackpoint>
          <Trackpoint>
            <Time>2022-06-16T10:23:27.000Z</Time>
            <Position>
              <LatitudeDegrees>36.8362138979136943817138671875</LatitudeDegrees>
              <LongitudeDegrees>-4.3980394117534160614013671875</LongitudeDegrees>
            </Position>
            <AltitudeMeters>841</AltitudeMeters>
            <DistanceMeters>NAN</DistanceMeters>
          </Trackpoint>
          <Trackpoint>
            <Time>2022-06-16T10:23:30.000Z</Time>
            <Position>
              <LatitudeDegrees>36.83621683157980442047119140625</LatitudeDegrees>
              <LongitudeDegrees>-4.3980328738689422607421875</LongitudeDegrees>
            </Position>
            <AltitudeMeters>841</AltitudeMeters>
            <DistanceMeters>NAN</DistanceMeters>
          </Trackpoint>
          <Trackpoint>
            <Time>2022-06-16T10:23:40.000Z</Time>
            <Position>
              <LatitudeDegrees>36.836217753589153289794921875</LatitudeDegrees>
              <LongitudeDegrees>-4.39803882502019405364990234375</LongitudeDegrees>
            </Position>
            <AltitudeMeters>841</AltitudeMeters>
            <DistanceMeters>NAN</DistanceMeters>
          </Trackpoint>
          <Trackpoint>
            <Time>2022-06-16T10:23:43.000Z</Time>
            <Position>
              <LatitudeDegrees>36.8362132273614406585693359375</LatitudeDegrees>
              <LongitudeDegrees>-4.3980115838348865509033203125</LongitudeDegrees>
            </Position>
            <AltitudeMeters>841</AltitudeMeters>
            <DistanceMeters>NAN</DistanceMeters>
          </Trackpoint>
          <Trackpoint>
            <Time>2022-06-16T10:23:50.000Z</Time>
            <Position>
              <LatitudeDegrees>36.83621532283723354339599609375</LatitudeDegrees>
              <LongitudeDegrees>-4.398001693189144134521484375</LongitudeDegrees>
            </Position>
            <AltitudeMeters>841</AltitudeMeters>
            <DistanceMeters>NAN</DistanceMeters>
          </Trackpoint>
          <Trackpoint>
            <Time>2022-06-16T10:23:55.000Z</Time>
            <Position>
              <LatitudeDegrees>36.8362138979136943817138671875</LatitudeDegrees>
              <LongitudeDegrees>-4.398010410368442535400390625</LongitudeDegrees>
            </Position>
            <AltitudeMeters>841</AltitudeMeters>
            <DistanceMeters>NAN</DistanceMeters>
          </Trackpoint>
          <Trackpoint>
            <Time>2022-06-16T10:23:59.000Z</Time>
            <Position>
              <LatitudeDegrees>36.83621280826628208160400390625</LatitudeDegrees>
              <LongitudeDegrees>-4.39804335124790668487548828125</LongitudeDegrees>
            </Position>
            <AltitudeMeters>840.79998779296875</AltitudeMeters>
            <DistanceMeters>NAN</DistanceMeters>
          </Trackpoint>
          <Trackpoint>
            <Time>2022-06-16T10:24:00.000Z</Time>
            <Position>
              <LatitudeDegrees>36.83621481992304325103759765625</LatitudeDegrees>
              <LongitudeDegrees>-4.398051314055919647216796875</LongitudeDegrees>
            </Position>
            <AltitudeMeters>840.79998779296875</AltitudeMeters>
            <DistanceMeters>NAN</DistanceMeters>
          </Trackpoint>
          <Trackpoint>
            <Time>2022-06-16T10:24:03.000Z</Time>
            <Position>
              <LatitudeDegrees>36.8362206034362316131591796875</LatitudeDegrees>
              <LongitudeDegrees>-4.39807905815541744232177734375</LongitudeDegrees>
            </Position>
            <AltitudeMeters>840.4000244140625</AltitudeMeters>
            <DistanceMeters>NAN</DistanceMeters>
          </Trackpoint>
          <Trackpoint>
            <Time>2022-06-16T10:24:05.000Z</Time>
            <Position>
              <LatitudeDegrees>36.83622571639716625213623046875</LatitudeDegrees>
              <LongitudeDegrees>-4.39809791743755340576171875</LongitudeDegrees>
            </Position>
            <AltitudeMeters>840.4000244140625</AltitudeMeters>
            <DistanceMeters>NAN</DistanceMeters>
          </Trackpoint>
          <Trackpoint>
            <Time>2022-06-16T10:24:06.000Z</Time>
            <Position>
              <LatitudeDegrees>36.83622739277780055999755859375</LatitudeDegrees>
              <LongitudeDegrees>-4.3981047905981540679931640625</LongitudeDegrees>
            </Position>
            <AltitudeMeters>840.20001220703125</AltitudeMeters>
            <DistanceMeters>NAN</DistanceMeters>
          </Trackpoint>
          <Trackpoint>
            <Time>2022-06-16T10:24:07.000Z</Time>
            <Position>
              <LatitudeDegrees>36.83622873388230800628662109375</LatitudeDegrees>
              <LongitudeDegrees>-4.39810638315975666046142578125</LongitudeDegrees>
            </Position>
            <AltitudeMeters>840.20001220703125</AltitudeMeters>
            <DistanceMeters>NAN</DistanceMeters>
          </Trackpoint>
          <Trackpoint>
            <Time>2022-06-16T10:24:10.000Z</Time>
            <Position>
              <LatitudeDegrees>36.83622823096811771392822265625</LatitudeDegrees>
              <LongitudeDegrees>-4.39811107702553272247314453125</LongitudeDegrees>
            </Position>
            <AltitudeMeters>840.20001220703125</AltitudeMeters>
            <DistanceMeters>NAN</DistanceMeters>
          </Trackpoint>
          <Trackpoint>
            <Time>2022-06-16T10:24:12.000Z</Time>
            <Position>
              <LatitudeDegrees>36.83623711578547954559326171875</LatitudeDegrees>
              <LongitudeDegrees>-4.39811828546226024627685546875</LongitudeDegrees>
            </Position>
            <AltitudeMeters>840.20001220703125</AltitudeMeters>
            <DistanceMeters>NAN</DistanceMeters>
          </Trackpoint>
          <Trackpoint>
            <Time>2022-06-16T10:24:20.000Z</Time>
            <Position>
              <LatitudeDegrees>36.83627081103622913360595703125</LatitudeDegrees>
              <LongitudeDegrees>-4.39814628101885318756103515625</LongitudeDegrees>
            </Position>
            <AltitudeMeters>840</AltitudeMeters>
            <DistanceMeters>NAN</DistanceMeters>
          </Trackpoint>
          <Trackpoint>
            <Time>2022-06-16T10:24:30.000Z</Time>
            <Position>
              <LatitudeDegrees>36.8362980522215366363525390625</LatitudeDegrees>
              <LongitudeDegrees>-4.3982367217540740966796875</LongitudeDegrees>
            </Position>
            <AltitudeMeters>839.20001220703125</AltitudeMeters>
            <DistanceMeters>NAN</DistanceMeters>
          </Trackpoint>
          <Trackpoint>
            <Time>2022-06-16T10:24:34.000Z</Time>
            <Position>
              <LatitudeDegrees>36.8363066017627716064453125</LatitudeDegrees>
              <LongitudeDegrees>-4.39827435649931430816650390625</LongitudeDegrees>
            </Position>
            <AltitudeMeters>839</AltitudeMeters>
            <DistanceMeters>NAN</DistanceMeters>
          </Trackpoint>
          <Trackpoint>
            <Time>2022-06-16T10:24:35.000Z</Time>
            <Position>
              <LatitudeDegrees>36.836307942867279052734375</LatitudeDegrees>
              <LongitudeDegrees>-4.3982841633260250091552734375</LongitudeDegrees>
            </Position>
            <AltitudeMeters>838.79998779296875</AltitudeMeters>
            <DistanceMeters>NAN</DistanceMeters>
          </Trackpoint>
          <Trackpoint>
            <Time>2022-06-16T10:24:40.000Z</Time>
            <Position>
              <LatitudeDegrees>36.83631666004657745361328125</LatitudeDegrees>
              <LongitudeDegrees>-4.39833470620214939117431640625</LongitudeDegrees>
            </Position>
            <AltitudeMeters>838</AltitudeMeters>
            <DistanceMeters>NAN</DistanceMeters>
          </Trackpoint>
          <Trackpoint>
            <Time>2022-06-16T10:24:42.000Z</Time>
            <Position>
              <LatitudeDegrees>36.8363235332071781158447265625</LatitudeDegrees>
              <LongitudeDegrees>-4.39835398457944393157958984375</LongitudeDegrees>
            </Position>
            <AltitudeMeters>837.5999755859375</AltitudeMeters>
            <DistanceMeters>NAN</DistanceMeters>
          </Trackpoint>
          <Trackpoint>
            <Time>2022-06-16T10:24:45.000Z</Time>
            <Position>
              <LatitudeDegrees>36.83632344938814640045166015625</LatitudeDegrees>
              <LongitudeDegrees>-4.39838583581149578094482421875</LongitudeDegrees>
            </Position>
            <AltitudeMeters>836.79998779296875</AltitudeMeters>
            <DistanceMeters>NAN</DistanceMeters>
          </Trackpoint>
          <Trackpoint>
            <Time>2022-06-16T10:24:47.000Z</Time>
            <Position>
              <LatitudeDegrees>36.836321018636226654052734375</LatitudeDegrees>
              <LongitudeDegrees>-4.3984078802168369293212890625</LongitudeDegrees>
            </Position>
            <AltitudeMeters>836.20001220703125</AltitudeMeters>
            <DistanceMeters>NAN</DistanceMeters>
          </Trackpoint>
          <Trackpoint>
            <Time>2022-06-16T10:24:50.000Z</Time>
            <Position>
              <LatitudeDegrees>36.8363231979310512542724609375</LatitudeDegrees>
              <LongitudeDegrees>-4.3984353728592395782470703125</LongitudeDegrees>
            </Position>
            <AltitudeMeters>835.5999755859375</AltitudeMeters>
            <DistanceMeters>NAN</DistanceMeters>
          </Trackpoint>
          <Trackpoint>
            <Time>2022-06-16T10:24:54.000Z</Time>
            <Position>
              <LatitudeDegrees>36.83632898144423961639404296875</LatitudeDegrees>
              <LongitudeDegrees>-4.39846646972000598907470703125</LongitudeDegrees>
            </Position>
            <AltitudeMeters>834.79998779296875</AltitudeMeters>
            <DistanceMeters>NAN</DistanceMeters>
          </Trackpoint>
          <Trackpoint>
            <Time>2022-06-16T10:25:00.000Z</Time>
            <Position>
              <LatitudeDegrees>36.83632395230233669281005859375</LatitudeDegrees>
              <LongitudeDegrees>-4.39850703813135623931884765625</LongitudeDegrees>
            </Position>
            <AltitudeMeters>834</AltitudeMeters>
            <DistanceMeters>NAN</DistanceMeters>
          </Trackpoint>
          <Trackpoint>
            <Time>2022-06-16T10:25:05.000Z</Time>
            <Position>
              <LatitudeDegrees>36.83631758205592632293701171875</LatitudeDegrees>
              <LongitudeDegrees>-4.39854810945689678192138671875</LongitudeDegrees>
            </Position>
            <AltitudeMeters>833.20001220703125</AltitudeMeters>
            <DistanceMeters>NAN</DistanceMeters>
          </Trackpoint>
          <Trackpoint>
            <Time>2022-06-16T10:25:09.000Z</Time>
            <Position>
              <LatitudeDegrees>36.8363208509981632232666015625</LatitudeDegrees>
              <LongitudeDegrees>-4.398576356470584869384765625</LongitudeDegrees>
            </Position>
            <AltitudeMeters>832.79998779296875</AltitudeMeters>
            <DistanceMeters>NAN</DistanceMeters>
          </Trackpoint>
          <Trackpoint>
            <Time>2022-06-16T10:25:10.000Z</Time>
            <Position>
              <LatitudeDegrees>36.836323030292987823486328125</LatitudeDegrees>
              <LongitudeDegrees>-4.3985872529447078704833984375</LongitudeDegrees>
            </Position>
            <AltitudeMeters>832.5999755859375</AltitudeMeters>
            <DistanceMeters>NAN</DistanceMeters>
          </Trackpoint>
          <Trackpoint>
            <Time>2022-06-16T10:25:20.000Z</Time>
            <Position>
              <LatitudeDegrees>36.83633769862353801727294921875</LatitudeDegrees>
              <LongitudeDegrees>-4.39867165870964527130126953125</LongitudeDegrees>
            </Position>
            <AltitudeMeters>830</AltitudeMeters>
            <DistanceMeters>NAN</DistanceMeters>
          </Trackpoint>
          <Trackpoint>
            <Time>2022-06-16T10:25:30.000Z</Time>
            <Position>
              <LatitudeDegrees>36.83634088374674320220947265625</LatitudeDegrees>
              <LongitudeDegrees>-4.39875078387558460235595703125</LongitudeDegrees>
            </Position>
            <AltitudeMeters>828</AltitudeMeters>
            <DistanceMeters>NAN</DistanceMeters>
          </Trackpoint>
          <Trackpoint>
            <Time>2022-06-16T10:25:40.000Z</Time>
            <Position>
              <LatitudeDegrees>36.83634457178413867950439453125</LatitudeDegrees>
              <LongitudeDegrees>-4.3988236226141452789306640625</LongitudeDegrees>
            </Position>
            <AltitudeMeters>826.79998779296875</AltitudeMeters>
            <DistanceMeters>NAN</DistanceMeters>
          </Trackpoint>
          <Trackpoint>
            <Time>2022-06-16T10:25:50.000Z</Time>
            <Position>
              <LatitudeDegrees>36.83636519126594066619873046875</LatitudeDegrees>
              <LongitudeDegrees>-4.39888405613601207733154296875</LongitudeDegrees>
            </Position>
            <AltitudeMeters>826.20001220703125</AltitudeMeters>
            <DistanceMeters>NAN</DistanceMeters>
          </Trackpoint>
          <Trackpoint>
            <Time>2022-06-16T10:26:00.000Z</Time>
            <Position>
              <LatitudeDegrees>36.83637675829231739044189453125</LatitudeDegrees>
              <LongitudeDegrees>-4.3989716470241546630859375</LongitudeDegrees>
            </Position>
            <AltitudeMeters>824.5999755859375</AltitudeMeters>
            <DistanceMeters>NAN</DistanceMeters>
          </Trackpoint>
          <Trackpoint>
            <Time>2022-06-16T10:26:10.000Z</Time>
            <Position>
              <LatitudeDegrees>36.8364526145160198211669921875</LatitudeDegrees>
              <LongitudeDegrees>-4.399016238749027252197265625</LongitudeDegrees>
            </Position>
            <AltitudeMeters>826.20001220703125</AltitudeMeters>
            <DistanceMeters>NAN</DistanceMeters>
          </Trackpoint>
          <Trackpoint>
            <Time>2022-06-16T10:26:20.000Z</Time>
            <Position>
              <LatitudeDegrees>36.83647784404456615447998046875</LatitudeDegrees>
              <LongitudeDegrees>-4.39909477718174457550048828125</LongitudeDegrees>
            </Position>
            <AltitudeMeters>825.5999755859375</AltitudeMeters>
            <DistanceMeters>NAN</DistanceMeters>
          </Trackpoint>
          <Trackpoint>
            <Time>2022-06-16T10:26:30.000Z</Time>
            <Position>
              <LatitudeDegrees>36.83647398836910724639892578125</LatitudeDegrees>
              <LongitudeDegrees>-4.3991994671523571014404296875</LongitudeDegrees>
            </Position>
            <AltitudeMeters>823</AltitudeMeters>
            <DistanceMeters>NAN</DistanceMeters>
          </Trackpoint>
          <Trackpoint>
            <Time>2022-06-16T10:26:31.000Z</Time>
            <Position>
              <LatitudeDegrees>36.83647348545491695404052734375</LatitudeDegrees>
              <LongitudeDegrees>-4.39921413548290729522705078125</LongitudeDegrees>
            </Position>
            <AltitudeMeters>822.5999755859375</AltitudeMeters>
            <DistanceMeters>NAN</DistanceMeters>
          </Trackpoint>
          <Trackpoint>
            <Time>2022-06-16T10:26:40.000Z</Time>
            <Position>
              <LatitudeDegrees>36.83646560646593570709228515625</LatitudeDegrees>
              <LongitudeDegrees>-4.39931907691061496734619140625</LongitudeDegrees>
            </Position>
            <AltitudeMeters>819.20001220703125</AltitudeMeters>
            <DistanceMeters>NAN</DistanceMeters>
          </Trackpoint>
          <Trackpoint>
            <Time>2022-06-16T10:26:50.000Z</Time>
            <Position>
              <LatitudeDegrees>36.836476586759090423583984375</LatitudeDegrees>
              <LongitudeDegrees>-4.399387054145336151123046875</LongitudeDegrees>
            </Position>
            <AltitudeMeters>817.5999755859375</AltitudeMeters>
            <DistanceMeters>NAN</DistanceMeters>
          </Trackpoint>
          <Trackpoint>
            <Time>2022-06-16T10:26:58.000Z</Time>
            <Position>
              <LatitudeDegrees>36.83648966252803802490234375</LatitudeDegrees>
              <LongitudeDegrees>-4.39942896366119384765625</LongitudeDegrees>
            </Position>
            <AltitudeMeters>816.5999755859375</AltitudeMeters>
            <DistanceMeters>NAN</DistanceMeters>
          </Trackpoint>
          <Trackpoint>
            <Time>2022-06-16T10:27:00.000Z</Time>
            <Position>
              <LatitudeDegrees>36.83649091981351375579833984375</LatitudeDegrees>
              <LongitudeDegrees>-4.3994458951056003570556640625</LongitudeDegrees>
            </Position>
            <AltitudeMeters>816.20001220703125</AltitudeMeters>
            <DistanceMeters>NAN</DistanceMeters>
          </Trackpoint>
          <Trackpoint>
            <Time>2022-06-16T10:27:10.000Z</Time>
            <Position>
              <LatitudeDegrees>36.83651288039982318878173828125</LatitudeDegrees>
              <LongitudeDegrees>-4.399531222879886627197265625</LongitudeDegrees>
            </Position>
            <AltitudeMeters>813.5999755859375</AltitudeMeters>
            <DistanceMeters>NAN</DistanceMeters>
          </Trackpoint>
          <Trackpoint>
            <Time>2022-06-16T10:27:20.000Z</Time>
            <Position>
              <LatitudeDegrees>36.8365568853914737701416015625</LatitudeDegrees>
              <LongitudeDegrees>-4.39958360977470874786376953125</LongitudeDegrees>
            </Position>
            <AltitudeMeters>812.4000244140625</AltitudeMeters>
            <DistanceMeters>NAN</DistanceMeters>
          </Trackpoint>
          <Trackpoint>
            <Time>2022-06-16T10:27:30.000Z</Time>
            <Position>
              <LatitudeDegrees>36.83654523454606533050537109375</LatitudeDegrees>
              <LongitudeDegrees>-4.3996574543416500091552734375</LongitudeDegrees>
            </Position>
            <AltitudeMeters>810</AltitudeMeters>
            <DistanceMeters>NAN</DistanceMeters>
          </Trackpoint>
          <Trackpoint>
            <Time>2022-06-16T10:27:32.000Z</Time>
            <Position>
              <LatitudeDegrees>36.83654464781284332275390625</LatitudeDegrees>
              <LongitudeDegrees>-4.39966122619807720184326171875</LongitudeDegrees>
            </Position>
            <AltitudeMeters>809.79998779296875</AltitudeMeters>
            <DistanceMeters>NAN</DistanceMeters>
          </Trackpoint>
          <Trackpoint>
            <Time>2022-06-16T10:27:37.000Z</Time>
            <Position>
              <LatitudeDegrees>36.8365531973540782928466796875</LatitudeDegrees>
              <LongitudeDegrees>-4.39969441853463649749755859375</LongitudeDegrees>
            </Position>
            <AltitudeMeters>809</AltitudeMeters>
            <DistanceMeters>NAN</DistanceMeters>
          </Trackpoint>
          <Trackpoint>
            <Time>2022-06-16T10:27:40.000Z</Time>
            <Position>
              <LatitudeDegrees>36.83655001223087310791015625</LatitudeDegrees>
              <LongitudeDegrees>-4.39971369691193103790283203125</LongitudeDegrees>
            </Position>
            <AltitudeMeters>808.4000244140625</AltitudeMeters>
            <DistanceMeters>NAN</DistanceMeters>
          </Trackpoint>
          <Trackpoint>
            <Time>2022-06-16T10:27:50.000Z</Time>
            <Position>
              <LatitudeDegrees>36.83653802610933780670166015625</LatitudeDegrees>
              <LongitudeDegrees>-4.39979902468621730804443359375</LongitudeDegrees>
            </Position>
            <AltitudeMeters>806.20001220703125</AltitudeMeters>
            <DistanceMeters>NAN</DistanceMeters>
          </Trackpoint>
          <Trackpoint>
            <Time>2022-06-16T10:28:00.000Z</Time>
            <Position>
              <LatitudeDegrees>36.83654573746025562286376953125</LatitudeDegrees>
              <LongitudeDegrees>-4.3998750485479831695556640625</LongitudeDegrees>
            </Position>
            <AltitudeMeters>804.4000244140625</AltitudeMeters>
            <DistanceMeters>NAN</DistanceMeters>
          </Trackpoint>
          <Trackpoint>
            <Time>2022-06-16T10:28:10.000Z</Time>
            <Position>
              <LatitudeDegrees>36.83653215877711772918701171875</LatitudeDegrees>
              <LongitudeDegrees>-4.39997320063412189483642578125</LongitudeDegrees>
            </Position>
            <AltitudeMeters>802</AltitudeMeters>
            <DistanceMeters>NAN</DistanceMeters>
          </Trackpoint>
          <Trackpoint>
            <Time>2022-06-16T10:28:20.000Z</Time>
            <Position>
              <LatitudeDegrees>36.8365270458161830902099609375</LatitudeDegrees>
              <LongitudeDegrees>-4.40006674267351627349853515625</LongitudeDegrees>
            </Position>
            <AltitudeMeters>799.5999755859375</AltitudeMeters>
            <DistanceMeters>NAN</DistanceMeters>
          </Trackpoint>
          <Trackpoint>
            <Time>2022-06-16T10:28:30.000Z</Time>
            <Position>
              <LatitudeDegrees>36.8365578912198543548583984375</LatitudeDegrees>
              <LongitudeDegrees>-4.4001660682260990142822265625</LongitudeDegrees>
            </Position>
            <AltitudeMeters>797.79998779296875</AltitudeMeters>
            <DistanceMeters>NAN</DistanceMeters>
          </Trackpoint>
          <Trackpoint>
            <Time>2022-06-16T10:28:35.000Z</Time>
            <Position>
              <LatitudeDegrees>36.83655671775341033935546875</LatitudeDegrees>
              <LongitudeDegrees>-4.40021141432225704193115234375</LongitudeDegrees>
            </Position>
            <AltitudeMeters>796.20001220703125</AltitudeMeters>
            <DistanceMeters>NAN</DistanceMeters>
          </Trackpoint>
          <Trackpoint>
            <Time>2022-06-16T10:28:38.000Z</Time>
            <Position>
              <LatitudeDegrees>36.83655898086726665496826171875</LatitudeDegrees>
              <LongitudeDegrees>-4.4002376496791839599609375</LongitudeDegrees>
            </Position>
            <AltitudeMeters>795.20001220703125</AltitudeMeters>
            <DistanceMeters>NAN</DistanceMeters>
          </Trackpoint>
          <Trackpoint>
            <Time>2022-06-16T10:28:40.000Z</Time>
            <Position>
              <LatitudeDegrees>36.83656501583755016326904296875</LatitudeDegrees>
              <LongitudeDegrees>-4.4002532400190830230712890625</LongitudeDegrees>
            </Position>
            <AltitudeMeters>794.79998779296875</AltitudeMeters>
            <DistanceMeters>NAN</DistanceMeters>
          </Trackpoint>
          <Trackpoint>
            <Time>2022-06-16T10:28:42.000Z</Time>
            <Position>
              <LatitudeDegrees>36.83657146990299224853515625</LatitudeDegrees>
              <LongitudeDegrees>-4.40026623196899890899658203125</LongitudeDegrees>
            </Position>
            <AltitudeMeters>794.4000244140625</AltitudeMeters>
            <DistanceMeters>NAN</DistanceMeters>
          </Trackpoint>
          <Trackpoint>
            <Time>2022-06-16T10:28:44.000Z</Time>
            <Position>
              <LatitudeDegrees>36.83658060617744922637939453125</LatitudeDegrees>
              <LongitudeDegrees>-4.4002800621092319488525390625</LongitudeDegrees>
            </Position>
            <AltitudeMeters>794</AltitudeMeters>
            <DistanceMeters>NAN</DistanceMeters>
          </Trackpoint>
          <Trackpoint>
            <Time>2022-06-16T10:28:47.000Z</Time>
            <Position>
              <LatitudeDegrees>36.8365853838622570037841796875</LatitudeDegrees>
              <LongitudeDegrees>-4.4003028608858585357666015625</LongitudeDegrees>
            </Position>
            <AltitudeMeters>793.4000244140625</AltitudeMeters>
            <DistanceMeters>NAN</DistanceMeters>
          </Trackpoint>
          <Trackpoint>
            <Time>2022-06-16T10:28:50.000Z</Time>
            <Position>
              <LatitudeDegrees>36.83659049682319164276123046875</LatitudeDegrees>
              <LongitudeDegrees>-4.4003296829760074615478515625</LongitudeDegrees>
            </Position>
            <AltitudeMeters>792.5999755859375</AltitudeMeters>
            <DistanceMeters>NAN</DistanceMeters>
          </Trackpoint>
          <Trackpoint>
            <Time>2022-06-16T10:29:00.000Z</Time>
            <Position>
              <LatitudeDegrees>36.836603991687297821044921875</LatitudeDegrees>
              <LongitudeDegrees>-4.4004061259329319000244140625</LongitudeDegrees>
            </Position>
            <AltitudeMeters>790.20001220703125</AltitudeMeters>
            <DistanceMeters>NAN</DistanceMeters>
          </Trackpoint>
          <Trackpoint>
            <Time>2022-06-16T10:29:10.000Z</Time>
            <Position>
              <LatitudeDegrees>36.836634166538715362548828125</LatitudeDegrees>
              <LongitudeDegrees>-4.40052154473960399627685546875</LongitudeDegrees>
            </Position>
            <AltitudeMeters>786.79998779296875</AltitudeMeters>
            <DistanceMeters>NAN</DistanceMeters>
          </Trackpoint>
          <Trackpoint>
            <Time>2022-06-16T10:29:20.000Z</Time>
            <Position>
              <LatitudeDegrees>36.8366306461393833160400390625</LatitudeDegrees>
              <LongitudeDegrees>-4.40063151530921459197998046875</LongitudeDegrees>
            </Position>
            <AltitudeMeters>783.20001220703125</AltitudeMeters>
            <DistanceMeters>NAN</DistanceMeters>
          </Trackpoint>
          <Trackpoint>
            <Time>2022-06-16T10:29:30.000Z</Time>
            <Position>
              <LatitudeDegrees>36.83662989176809787750244140625</LatitudeDegrees>
              <LongitudeDegrees>-4.40074299462139606475830078125</LongitudeDegrees>
            </Position>
            <AltitudeMeters>779.5999755859375</AltitudeMeters>
            <DistanceMeters>NAN</DistanceMeters>
          </Trackpoint>
          <Trackpoint>
            <Time>2022-06-16T10:29:40.000Z</Time>
            <Position>
              <LatitudeDegrees>36.83661170303821563720703125</LatitudeDegrees>
              <LongitudeDegrees>-4.400837458670139312744140625</LongitudeDegrees>
            </Position>
            <AltitudeMeters>776.79998779296875</AltitudeMeters>
            <DistanceMeters>NAN</DistanceMeters>
          </Trackpoint>
          <Trackpoint>
            <Time>2022-06-16T10:29:50.000Z</Time>
            <Position>
              <LatitudeDegrees>36.8365833722054958343505859375</LatitudeDegrees>
              <LongitudeDegrees>-4.40095354802906513214111328125</LongitudeDegrees>
            </Position>
            <AltitudeMeters>774.4000244140625</AltitudeMeters>
            <DistanceMeters>NAN</DistanceMeters>
          </Trackpoint>
          <Trackpoint>
            <Time>2022-06-16T10:29:52.000Z</Time>
            <Position>
              <LatitudeDegrees>36.83657138608396053314208984375</LatitudeDegrees>
              <LongitudeDegrees>-4.40097450278699398040771484375</LongitudeDegrees>
            </Position>
            <AltitudeMeters>774</AltitudeMeters>
            <DistanceMeters>NAN</DistanceMeters>
          </Trackpoint>
          <Trackpoint>
            <Time>2022-06-16T10:29:59.000Z</Time>
            <Position>
              <LatitudeDegrees>36.83656275272369384765625</LatitudeDegrees>
              <LongitudeDegrees>-4.40107139758765697479248046875</LongitudeDegrees>
            </Position>
            <AltitudeMeters>772</AltitudeMeters>
            <DistanceMeters>NAN</DistanceMeters>
          </Trackpoint>
          <Trackpoint>
            <Time>2022-06-16T10:30:00.000Z</Time>
            <Position>
              <LatitudeDegrees>36.83656451292335987091064453125</LatitudeDegrees>
              <LongitudeDegrees>-4.40108480863273143768310546875</LongitudeDegrees>
            </Position>
            <AltitudeMeters>771.79998779296875</AltitudeMeters>
            <DistanceMeters>NAN</DistanceMeters>
          </Trackpoint>
          <Trackpoint>
            <Time>2022-06-16T10:30:05.000Z</Time>
            <Position>
              <LatitudeDegrees>36.83654808439314365386962890625</LatitudeDegrees>
              <LongitudeDegrees>-4.40114364959299564361572265625</LongitudeDegrees>
            </Position>
            <AltitudeMeters>771</AltitudeMeters>
            <DistanceMeters>NAN</DistanceMeters>
          </Trackpoint>
          <Trackpoint>
            <Time>2022-06-16T10:30:10.000Z</Time>
            <Position>
              <LatitudeDegrees>36.8365344218909740447998046875</LatitudeDegrees>
              <LongitudeDegrees>-4.40120500512421131134033203125</LongitudeDegrees>
            </Position>
            <AltitudeMeters>770.20001220703125</AltitudeMeters>
            <DistanceMeters>NAN</DistanceMeters>
          </Trackpoint>
          <Trackpoint>
            <Time>2022-06-16T10:30:20.000Z</Time>
            <Position>
              <LatitudeDegrees>36.83653484098613262176513671875</LatitudeDegrees>
              <LongitudeDegrees>-4.40132855437695980072021484375</LongitudeDegrees>
            </Position>
            <AltitudeMeters>768.79998779296875</AltitudeMeters>
            <DistanceMeters>NAN</DistanceMeters>
          </Trackpoint>
          <Trackpoint>
            <Time>2022-06-16T10:30:30.000Z</Time>
            <Position>
              <LatitudeDegrees>36.836554706096649169921875</LatitudeDegrees>
              <LongitudeDegrees>-4.401475824415683746337890625</LongitudeDegrees>
            </Position>
            <AltitudeMeters>767.20001220703125</AltitudeMeters>
            <DistanceMeters>NAN</DistanceMeters>
          </Trackpoint>
          <Trackpoint>
            <Time>2022-06-16T10:30:40.000Z</Time>
            <Position>
              <LatitudeDegrees>36.83660776354372501373291015625</LatitudeDegrees>
              <LongitudeDegrees>-4.40160968340933322906494140625</LongitudeDegrees>
            </Position>
            <AltitudeMeters>766.20001220703125</AltitudeMeters>
            <DistanceMeters>NAN</DistanceMeters>
          </Trackpoint>
          <Trackpoint>
            <Time>2022-06-16T10:30:50.000Z</Time>
            <Position>
              <LatitudeDegrees>36.83663584291934967041015625</LatitudeDegrees>
              <LongitudeDegrees>-4.4017623178660869598388671875</LongitudeDegrees>
            </Position>
            <AltitudeMeters>765.5999755859375</AltitudeMeters>
            <DistanceMeters>NAN</DistanceMeters>
          </Trackpoint>
          <Trackpoint>
            <Time>2022-06-16T10:30:52.000Z</Time>
            <Position>
              <LatitudeDegrees>36.83663844130933284759521484375</LatitudeDegrees>
              <LongitudeDegrees>-4.4017877988517284393310546875</LongitudeDegrees>
            </Position>
            <AltitudeMeters>765.4000244140625</AltitudeMeters>
            <DistanceMeters>NAN</DistanceMeters>
          </Trackpoint>
          <Trackpoint>
            <Time>2022-06-16T10:30:54.000Z</Time>
            <Position>
              <LatitudeDegrees>36.836640536785125732421875</LatitudeDegrees>
              <LongitudeDegrees>-4.401815794408321380615234375</LongitudeDegrees>
            </Position>
            <AltitudeMeters>765.20001220703125</AltitudeMeters>
            <DistanceMeters>NAN</DistanceMeters>
          </Trackpoint>
          <Trackpoint>
            <Time>2022-06-16T10:30:56.000Z</Time>
            <Position>
              <LatitudeDegrees>36.83663911186158657073974609375</LatitudeDegrees>
              <LongitudeDegrees>-4.40184387378394603729248046875</LongitudeDegrees>
            </Position>
            <AltitudeMeters>765</AltitudeMeters>
            <DistanceMeters>NAN</DistanceMeters>
          </Trackpoint>
          <Trackpoint>
            <Time>2022-06-16T10:31:00.000Z</Time>
            <Position>
              <LatitudeDegrees>36.83662243187427520751953125</LatitudeDegrees>
              <LongitudeDegrees>-4.40189952962100505828857421875</LongitudeDegrees>
            </Position>
            <AltitudeMeters>764.5999755859375</AltitudeMeters>
            <DistanceMeters>NAN</DistanceMeters>
          </Trackpoint>
          <Trackpoint>
            <Time>2022-06-16T10:31:10.000Z</Time>
            <Position>
              <LatitudeDegrees>36.83657549321651458740234375</LatitudeDegrees>
              <LongitudeDegrees>-4.4020382501184940338134765625</LongitudeDegrees>
            </Position>
            <AltitudeMeters>763.79998779296875</AltitudeMeters>
            <DistanceMeters>NAN</DistanceMeters>
          </Trackpoint>
          <Trackpoint>
            <Time>2022-06-16T10:31:20.000Z</Time>
            <Position>
              <LatitudeDegrees>36.83652193285524845123291015625</LatitudeDegrees>
              <LongitudeDegrees>-4.40215283073484897613525390625</LongitudeDegrees>
            </Position>
            <AltitudeMeters>763.20001220703125</AltitudeMeters>
            <DistanceMeters>NAN</DistanceMeters>
          </Trackpoint>
          <Trackpoint>
            <Time>2022-06-16T10:31:30.000Z</Time>
            <Position>
              <LatitudeDegrees>36.8364898301661014556884765625</LatitudeDegrees>
              <LongitudeDegrees>-4.40227436833083629608154296875</LongitudeDegrees>
            </Position>
            <AltitudeMeters>762.79998779296875</AltitudeMeters>
            <DistanceMeters>NAN</DistanceMeters>
          </Trackpoint>
          <Trackpoint>
            <Time>2022-06-16T10:31:40.000Z</Time>
            <Position>
              <LatitudeDegrees>36.83645336888730525970458984375</LatitudeDegrees>
              <LongitudeDegrees>-4.40237947739660739898681640625</LongitudeDegrees>
            </Position>
            <AltitudeMeters>761.20001220703125</AltitudeMeters>
            <DistanceMeters>NAN</DistanceMeters>
          </Trackpoint>
          <Trackpoint>
            <Time>2022-06-16T10:31:50.000Z</Time>
            <Position>
              <LatitudeDegrees>36.83639151044189929962158203125</LatitudeDegrees>
              <LongitudeDegrees>-4.40250168554484844207763671875</LongitudeDegrees>
            </Position>
            <AltitudeMeters>758.79998779296875</AltitudeMeters>
            <DistanceMeters>NAN</DistanceMeters>
          </Trackpoint>
          <Trackpoint>
            <Time>2022-06-16T10:32:00.000Z</Time>
            <Position>
              <LatitudeDegrees>36.83635429479181766510009765625</LatitudeDegrees>
              <LongitudeDegrees>-4.40256513655185699462890625</LongitudeDegrees>
            </Position>
            <AltitudeMeters>757.79998779296875</AltitudeMeters>
            <DistanceMeters>NAN</DistanceMeters>
          </Trackpoint>
          <Trackpoint>
            <Time>2022-06-16T10:32:10.000Z</Time>
            <Position>
              <LatitudeDegrees>36.8363352678716182708740234375</LatitudeDegrees>
              <LongitudeDegrees>-4.402628503739833831787109375</LongitudeDegrees>
            </Position>
            <AltitudeMeters>757.20001220703125</AltitudeMeters>
            <DistanceMeters>NAN</DistanceMeters>
          </Trackpoint>
          <Trackpoint>
            <Time>2022-06-16T10:32:20.000Z</Time>
            <Position>
              <LatitudeDegrees>36.8363825418055057525634765625</LatitudeDegrees>
              <LongitudeDegrees>-4.4027017615735530853271484375</LongitudeDegrees>
            </Position>
            <AltitudeMeters>759.20001220703125</AltitudeMeters>
            <DistanceMeters>NAN</DistanceMeters>
          </Trackpoint>
          <Trackpoint>
            <Time>2022-06-16T10:32:23.000Z</Time>
            <Position>
              <LatitudeDegrees>36.8364003114402294158935546875</LatitudeDegrees>
              <LongitudeDegrees>-4.40269279293715953826904296875</LongitudeDegrees>
            </Position>
            <AltitudeMeters>759.79998779296875</AltitudeMeters>
            <DistanceMeters>NAN</DistanceMeters>
          </Trackpoint>
          <Trackpoint>
            <Time>2022-06-16T10:32:30.000Z</Time>
            <Position>
              <LatitudeDegrees>36.83640441857278347015380859375</LatitudeDegrees>
              <LongitudeDegrees>-4.40268541686236858367919921875</LongitudeDegrees>
            </Position>
            <AltitudeMeters>760</AltitudeMeters>
            <DistanceMeters>NAN</DistanceMeters>
          </Trackpoint>
          <Trackpoint>
            <Time>2022-06-16T10:32:37.000Z</Time>
            <Position>
              <LatitudeDegrees>36.83640978299081325531005859375</LatitudeDegrees>
              <LongitudeDegrees>-4.402661025524139404296875</LongitudeDegrees>
            </Position>
            <AltitudeMeters>760</AltitudeMeters>
            <DistanceMeters>NAN</DistanceMeters>
          </Trackpoint>
          <Trackpoint>
            <Time>2022-06-16T10:32:40.000Z</Time>
            <Position>
              <LatitudeDegrees>36.836406849324703216552734375</LatitudeDegrees>
              <LongitudeDegrees>-4.40263663418591022491455078125</LongitudeDegrees>
            </Position>
            <AltitudeMeters>759.79998779296875</AltitudeMeters>
            <DistanceMeters>NAN</DistanceMeters>
          </Trackpoint>
          <Trackpoint>
            <Time>2022-06-16T10:32:47.000Z</Time>
            <Position>
              <LatitudeDegrees>36.8363872356712818145751953125</LatitudeDegrees>
              <LongitudeDegrees>-4.4025904498994350433349609375</LongitudeDegrees>
            </Position>
            <AltitudeMeters>759</AltitudeMeters>
            <DistanceMeters>NAN</DistanceMeters>
          </Trackpoint>
          <Trackpoint>
            <Time>2022-06-16T10:32:50.000Z</Time>
            <Position>
              <LatitudeDegrees>36.83637625537812709808349609375</LatitudeDegrees>
              <LongitudeDegrees>-4.402574859559535980224609375</LongitudeDegrees>
            </Position>
            <AltitudeMeters>758.5999755859375</AltitudeMeters>
            <DistanceMeters>NAN</DistanceMeters>
          </Trackpoint>
          <Trackpoint>
            <Time>2022-06-16T10:33:00.000Z</Time>
            <Position>
              <LatitudeDegrees>36.8363433144986629486083984375</LatitudeDegrees>
              <LongitudeDegrees>-4.40256287343800067901611328125</LongitudeDegrees>
            </Position>
            <AltitudeMeters>757.4000244140625</AltitudeMeters>
            <DistanceMeters>NAN</DistanceMeters>
          </Trackpoint>
          <Trackpoint>
            <Time>2022-06-16T10:33:10.000Z</Time>
            <Position>
              <LatitudeDegrees>36.83633250184357166290283203125</LatitudeDegrees>
              <LongitudeDegrees>-4.40255449153482913970947265625</LongitudeDegrees>
            </Position>
            <AltitudeMeters>757</AltitudeMeters>
            <DistanceMeters>NAN</DistanceMeters>
          </Trackpoint>
          <Trackpoint>
            <Time>2022-06-16T10:33:20.000Z</Time>
            <Position>
              <LatitudeDegrees>36.83632579632103443145751953125</LatitudeDegrees>
              <LongitudeDegrees>-4.40255968831479549407958984375</LongitudeDegrees>
            </Position>
            <AltitudeMeters>756.5999755859375</AltitudeMeters>
            <DistanceMeters>NAN</DistanceMeters>
          </Trackpoint>
          <Trackpoint>
            <Time>2022-06-16T10:33:30.000Z</Time>
            <Position>
              <LatitudeDegrees>36.83632898144423961639404296875</LatitudeDegrees>
              <LongitudeDegrees>-4.4025577604770660400390625</LongitudeDegrees>
            </Position>
            <AltitudeMeters>756.79998779296875</AltitudeMeters>
            <DistanceMeters>NAN</DistanceMeters>
          </Trackpoint>
          <Trackpoint>
            <Time>2022-06-16T10:33:40.000Z</Time>
            <Position>
              <LatitudeDegrees>36.83635429479181766510009765625</LatitudeDegrees>
              <LongitudeDegrees>-4.4025582633912563323974609375</LongitudeDegrees>
            </Position>
            <AltitudeMeters>757.5999755859375</AltitudeMeters>
            <DistanceMeters>NAN</DistanceMeters>
          </Trackpoint>
          <Trackpoint>
            <Time>2022-06-16T10:33:47.000Z</Time>
            <Position>
              <LatitudeDegrees>36.83640475384891033172607421875</LatitudeDegrees>
              <LongitudeDegrees>-4.40258064307272434234619140625</LongitudeDegrees>
            </Position>
            <AltitudeMeters>759.5999755859375</AltitudeMeters>
            <DistanceMeters>NAN</DistanceMeters>
          </Trackpoint>
          <Trackpoint>
            <Time>2022-06-16T10:33:50.000Z</Time>
            <Position>
              <LatitudeDegrees>36.83642126619815826416015625</LatitudeDegrees>
              <LongitudeDegrees>-4.4025897793471813201904296875</LongitudeDegrees>
            </Position>
            <AltitudeMeters>760.20001220703125</AltitudeMeters>
            <DistanceMeters>NAN</DistanceMeters>
          </Trackpoint>
          <Trackpoint>
            <Time>2022-06-16T10:34:00.000Z</Time>
            <Position>
              <LatitudeDegrees>36.83648429811000823974609375</LatitudeDegrees>
              <LongitudeDegrees>-4.40259807743132114410400390625</LongitudeDegrees>
            </Position>
            <AltitudeMeters>762.4000244140625</AltitudeMeters>
            <DistanceMeters>NAN</DistanceMeters>
          </Trackpoint>
          <Trackpoint>
            <Time>2022-06-16T10:34:06.000Z</Time>
            <Position>
              <LatitudeDegrees>36.83650902472436428070068359375</LatitudeDegrees>
              <LongitudeDegrees>-4.402533955872058868408203125</LongitudeDegrees>
            </Position>
            <AltitudeMeters>762.4000244140625</AltitudeMeters>
            <DistanceMeters>NAN</DistanceMeters>
          </Trackpoint>
          <Trackpoint>
            <Time>2022-06-16T10:34:09.000Z</Time>
            <Position>
              <LatitudeDegrees>36.83651648461818695068359375</LatitudeDegrees>
              <LongitudeDegrees>-4.40248307771980762481689453125</LongitudeDegrees>
            </Position>
            <AltitudeMeters>762.20001220703125</AltitudeMeters>
            <DistanceMeters>NAN</DistanceMeters>
          </Trackpoint>
          <Trackpoint>
            <Time>2022-06-16T10:34:10.000Z</Time>
            <Position>
              <LatitudeDegrees>36.83651782572269439697265625</LatitudeDegrees>
              <LongitudeDegrees>-4.402466900646686553955078125</LongitudeDegrees>
            </Position>
            <AltitudeMeters>762.20001220703125</AltitudeMeters>
            <DistanceMeters>NAN</DistanceMeters>
          </Trackpoint>
          <Trackpoint>
            <Time>2022-06-16T10:34:18.000Z</Time>
            <Position>
              <LatitudeDegrees>36.83655931614339351654052734375</LatitudeDegrees>
              <LongitudeDegrees>-4.40234494395554065704345703125</LongitudeDegrees>
            </Position>
            <AltitudeMeters>762.4000244140625</AltitudeMeters>
            <DistanceMeters>NAN</DistanceMeters>
          </Trackpoint>
          <Trackpoint>
            <Time>2022-06-16T10:34:19.000Z</Time>
            <Position>
              <LatitudeDegrees>36.8365662731230258941650390625</LatitudeDegrees>
              <LongitudeDegrees>-4.4023319520056247711181640625</LongitudeDegrees>
            </Position>
            <AltitudeMeters>762.5999755859375</AltitudeMeters>
            <DistanceMeters>NAN</DistanceMeters>
          </Trackpoint>
          <Trackpoint>
            <Time>2022-06-16T10:34:20.000Z</Time>
            <Position>
              <LatitudeDegrees>36.83657289482653141021728515625</LatitudeDegrees>
              <LongitudeDegrees>-4.40231778658926486968994140625</LongitudeDegrees>
            </Position>
            <AltitudeMeters>762.5999755859375</AltitudeMeters>
            <DistanceMeters>NAN</DistanceMeters>
          </Trackpoint>
          <Trackpoint>
            <Time>2022-06-16T10:34:30.000Z</Time>
            <Position>
              <LatitudeDegrees>36.836650259792804718017578125</LatitudeDegrees>
              <LongitudeDegrees>-4.40218317322432994842529296875</LongitudeDegrees>
            </Position>
            <AltitudeMeters>763</AltitudeMeters>
            <DistanceMeters>NAN</DistanceMeters>
          </Trackpoint>
          <Trackpoint>
            <Time>2022-06-16T10:34:32.000Z</Time>
            <Position>
              <LatitudeDegrees>36.836664341390132904052734375</LatitudeDegrees>
              <LongitudeDegrees>-4.40215609967708587646484375</LongitudeDegrees>
            </Position>
            <AltitudeMeters>763.20001220703125</AltitudeMeters>
            <DistanceMeters>NAN</DistanceMeters>
          </Trackpoint>
          <Trackpoint>
            <Time>2022-06-16T10:34:34.000Z</Time>
            <Position>
              <LatitudeDegrees>36.8366738967597484588623046875</LatitudeDegrees>
              <LongitudeDegrees>-4.4021230749785900115966796875</LongitudeDegrees>
            </Position>
            <AltitudeMeters>763.20001220703125</AltitudeMeters>
            <DistanceMeters>NAN</DistanceMeters>
          </Trackpoint>
          <Trackpoint>
            <Time>2022-06-16T10:34:39.000Z</Time>
            <Position>
              <LatitudeDegrees>36.83670558035373687744140625</LatitudeDegrees>
              <LongitudeDegrees>-4.4020597077906131744384765625</LongitudeDegrees>
            </Position>
            <AltitudeMeters>763.4000244140625</AltitudeMeters>
            <DistanceMeters>NAN</DistanceMeters>
          </Trackpoint>
          <Trackpoint>
            <Time>2022-06-16T10:34:40.000Z</Time>
            <Position>
              <LatitudeDegrees>36.8367104418575763702392578125</LatitudeDegrees>
              <LongitudeDegrees>-4.4020459614694118499755859375</LongitudeDegrees>
            </Position>
            <AltitudeMeters>763.5999755859375</AltitudeMeters>
            <DistanceMeters>NAN</DistanceMeters>
          </Trackpoint>
          <Trackpoint>
            <Time>2022-06-16T10:34:50.000Z</Time>
            <Position>
              <LatitudeDegrees>36.83675654232501983642578125</LatitudeDegrees>
              <LongitudeDegrees>-4.401907660067081451416015625</LongitudeDegrees>
            </Position>
            <AltitudeMeters>764</AltitudeMeters>
            <DistanceMeters>NAN</DistanceMeters>
          </Trackpoint>
          <Trackpoint>
            <Time>2022-06-16T10:35:00.000Z</Time>
            <Position>
              <LatitudeDegrees>36.8367952667176723480224609375</LatitudeDegrees>
              <LongitudeDegrees>-4.401756785809993743896484375</LongitudeDegrees>
            </Position>
            <AltitudeMeters>764.5999755859375</AltitudeMeters>
            <DistanceMeters>NAN</DistanceMeters>
          </Trackpoint>
          <Trackpoint>
            <Time>2022-06-16T10:35:10.000Z</Time>
            <Position>
              <LatitudeDegrees>36.83684597723186016082763671875</LatitudeDegrees>
              <LongitudeDegrees>-4.4015903212130069732666015625</LongitudeDegrees>
            </Position>
            <AltitudeMeters>765.4000244140625</AltitudeMeters>
            <DistanceMeters>NAN</DistanceMeters>
          </Trackpoint>
          <Trackpoint>
            <Time>2022-06-16T10:35:20.000Z</Time>
            <Position>
              <LatitudeDegrees>36.836915127933025360107421875</LatitudeDegrees>
              <LongitudeDegrees>-4.40143399871885776519775390625</LongitudeDegrees>
            </Position>
            <AltitudeMeters>766.4000244140625</AltitudeMeters>
            <DistanceMeters>NAN</DistanceMeters>
          </Trackpoint>
          <Trackpoint>
            <Time>2022-06-16T10:35:30.000Z</Time>
            <Position>
              <LatitudeDegrees>36.83697539381682872772216796875</LatitudeDegrees>
              <LongitudeDegrees>-4.4012895785272121429443359375</LongitudeDegrees>
            </Position>
            <AltitudeMeters>767.79998779296875</AltitudeMeters>
            <DistanceMeters>NAN</DistanceMeters>
          </Trackpoint>
          <Trackpoint>
            <Time>2022-06-16T10:35:37.000Z</Time>
            <Position>
              <LatitudeDegrees>36.83703490532934665679931640625</LatitudeDegrees>
              <LongitudeDegrees>-4.40123073756694793701171875</LongitudeDegrees>
            </Position>
            <AltitudeMeters>768.4000244140625</AltitudeMeters>
            <DistanceMeters>NAN</DistanceMeters>
          </Trackpoint>
          <Trackpoint>
            <Time>2022-06-16T10:35:38.000Z</Time>
            <Position>
              <LatitudeDegrees>36.8370463885366916656494140625</LatitudeDegrees>
              <LongitudeDegrees>-4.40122595988214015960693359375</LongitudeDegrees>
            </Position>
            <AltitudeMeters>768.4000244140625</AltitudeMeters>
            <DistanceMeters>NAN</DistanceMeters>
          </Trackpoint>
          <Trackpoint>
            <Time>2022-06-16T10:35:39.000Z</Time>
            <Position>
              <LatitudeDegrees>36.83705854229629039764404296875</LatitudeDegrees>
              <LongitudeDegrees>-4.4012166559696197509765625</LongitudeDegrees>
            </Position>
            <AltitudeMeters>768.4000244140625</AltitudeMeters>
            <DistanceMeters>NAN</DistanceMeters>
          </Trackpoint>
          <Trackpoint>
            <Time>2022-06-16T10:35:40.000Z</Time>
            <Position>
              <LatitudeDegrees>36.8370822630822658538818359375</LatitudeDegrees>
              <LongitudeDegrees>-4.40119729377329349517822265625</LongitudeDegrees>
            </Position>
            <AltitudeMeters>768.4000244140625</AltitudeMeters>
            <DistanceMeters>NAN</DistanceMeters>
          </Trackpoint>
          <Trackpoint>
            <Time>2022-06-16T10:35:44.000Z</Time>
            <Position>
              <LatitudeDegrees>36.83712693862617015838623046875</LatitudeDegrees>
              <LongitudeDegrees>-4.4011749140918254852294921875</LongitudeDegrees>
            </Position>
            <AltitudeMeters>768.4000244140625</AltitudeMeters>
            <DistanceMeters>NAN</DistanceMeters>
          </Trackpoint>
          <Trackpoint>
            <Time>2022-06-16T10:35:46.000Z</Time>
            <Position>
              <LatitudeDegrees>36.83715359307825565338134765625</LatitudeDegrees>
              <LongitudeDegrees>-4.40115756355226039886474609375</LongitudeDegrees>
            </Position>
            <AltitudeMeters>768.4000244140625</AltitudeMeters>
            <DistanceMeters>NAN</DistanceMeters>
          </Trackpoint>
          <Trackpoint>
            <Time>2022-06-16T10:35:50.000Z</Time>
            <Position>
              <LatitudeDegrees>36.83720321394503116607666015625</LatitudeDegrees>
              <LongitudeDegrees>-4.40113275311887264251708984375</LongitudeDegrees>
            </Position>
            <AltitudeMeters>768.4000244140625</AltitudeMeters>
            <DistanceMeters>NAN</DistanceMeters>
          </Trackpoint>
          <Trackpoint>
            <Time>2022-06-16T10:35:52.000Z</Time>
            <Position>
              <LatitudeDegrees>36.83721897192299365997314453125</LatitudeDegrees>
              <LongitudeDegrees>-4.401112385094165802001953125</LongitudeDegrees>
            </Position>
            <AltitudeMeters>768.5999755859375</AltitudeMeters>
            <DistanceMeters>NAN</DistanceMeters>
          </Trackpoint>
          <Trackpoint>
            <Time>2022-06-16T10:36:00.000Z</Time>
            <Position>
              <LatitudeDegrees>36.837281249463558197021484375</LatitudeDegrees>
              <LongitudeDegrees>-4.40102814696729183197021484375</LongitudeDegrees>
            </Position>
            <AltitudeMeters>769.5999755859375</AltitudeMeters>
            <DistanceMeters>NAN</DistanceMeters>
          </Trackpoint>
          <Trackpoint>
            <Time>2022-06-16T10:36:10.000Z</Time>
            <Position>
              <LatitudeDegrees>36.83738409541547298431396484375</LatitudeDegrees>
              <LongitudeDegrees>-4.400917589664459228515625</LongitudeDegrees>
            </Position>
            <AltitudeMeters>771.5999755859375</AltitudeMeters>
            <DistanceMeters>NAN</DistanceMeters>
          </Trackpoint>
          <Trackpoint>
            <Time>2022-06-16T10:36:17.000Z</Time>
            <Position>
              <LatitudeDegrees>36.8374674953520298004150390625</LatitudeDegrees>
              <LongitudeDegrees>-4.400905184447765350341796875</LongitudeDegrees>
            </Position>
            <AltitudeMeters>771.79998779296875</AltitudeMeters>
            <DistanceMeters>NAN</DistanceMeters>
          </Trackpoint>
          <Trackpoint>
            <Time>2022-06-16T10:36:18.000Z</Time>
            <Position>
              <LatitudeDegrees>36.83748073875904083251953125</LatitudeDegrees>
              <LongitudeDegrees>-4.400913231074810028076171875</LongitudeDegrees>
            </Position>
            <AltitudeMeters>771.5999755859375</AltitudeMeters>
            <DistanceMeters>NAN</DistanceMeters>
          </Trackpoint>
          <Trackpoint>
            <Time>2022-06-16T10:36:19.000Z</Time>
            <Position>
              <LatitudeDegrees>36.83749523945152759552001953125</LatitudeDegrees>
              <LongitudeDegrees>-4.40091901458799839019775390625</LongitudeDegrees>
            </Position>
            <AltitudeMeters>771.4000244140625</AltitudeMeters>
            <DistanceMeters>NAN</DistanceMeters>
          </Trackpoint>
          <Trackpoint>
            <Time>2022-06-16T10:36:20.000Z</Time>
            <Position>
              <LatitudeDegrees>36.83750865049660205841064453125</LatitudeDegrees>
              <LongitudeDegrees>-4.40092094242572784423828125</LongitudeDegrees>
            </Position>
            <AltitudeMeters>771.20001220703125</AltitudeMeters>
            <DistanceMeters>NAN</DistanceMeters>
          </Trackpoint>
          <Trackpoint>
            <Time>2022-06-16T10:36:25.000Z</Time>
            <Position>
              <LatitudeDegrees>36.83757838793098926544189453125</LatitudeDegrees>
              <LongitudeDegrees>-4.40092689357697963714599609375</LongitudeDegrees>
            </Position>
            <AltitudeMeters>770.5999755859375</AltitudeMeters>
            <DistanceMeters>NAN</DistanceMeters>
          </Trackpoint>
          <Trackpoint>
            <Time>2022-06-16T10:36:27.000Z</Time>
            <Position>
              <LatitudeDegrees>36.837601102888584136962890625</LatitudeDegrees>
              <LongitudeDegrees>-4.40092856995761394500732421875</LongitudeDegrees>
            </Position>
            <AltitudeMeters>770.4000244140625</AltitudeMeters>
            <DistanceMeters>NAN</DistanceMeters>
          </Trackpoint>
          <Trackpoint>
            <Time>2022-06-16T10:36:30.000Z</Time>
            <Position>
              <LatitudeDegrees>36.837643347680568695068359375</LatitudeDegrees>
              <LongitudeDegrees>-4.4009291566908359527587890625</LongitudeDegrees>
            </Position>
            <AltitudeMeters>770</AltitudeMeters>
            <DistanceMeters>NAN</DistanceMeters>
          </Trackpoint>
          <Trackpoint>
            <Time>2022-06-16T10:36:40.000Z</Time>
            <Position>
              <LatitudeDegrees>36.83777988888323307037353515625</LatitudeDegrees>
              <LongitudeDegrees>-4.400906525552272796630859375</LongitudeDegrees>
            </Position>
            <AltitudeMeters>769.79998779296875</AltitudeMeters>
            <DistanceMeters>NAN</DistanceMeters>
          </Trackpoint>
          <Trackpoint>
            <Time>2022-06-16T10:36:42.000Z</Time>
            <Position>
              <LatitudeDegrees>36.83780486695468425750732421875</LatitudeDegrees>
              <LongitudeDegrees>-4.4009050168097019195556640625</LongitudeDegrees>
            </Position>
            <AltitudeMeters>769.79998779296875</AltitudeMeters>
            <DistanceMeters>NAN</DistanceMeters>
          </Trackpoint>
          <Trackpoint>
            <Time>2022-06-16T10:36:43.000Z</Time>
            <Position>
              <LatitudeDegrees>36.83782749809324741363525390625</LatitudeDegrees>
              <LongitudeDegrees>-4.40090074203908443450927734375</LongitudeDegrees>
            </Position>
            <AltitudeMeters>770</AltitudeMeters>
            <DistanceMeters>NAN</DistanceMeters>
          </Trackpoint>
          <Trackpoint>
            <Time>2022-06-16T10:36:44.000Z</Time>
            <Position>
              <LatitudeDegrees>36.83782749809324741363525390625</LatitudeDegrees>
              <LongitudeDegrees>-4.40090074203908443450927734375</LongitudeDegrees>
            </Position>
            <AltitudeMeters>770</AltitudeMeters>
            <DistanceMeters>NAN</DistanceMeters>
          </Trackpoint>
          <Trackpoint>
            <Time>2022-06-16T10:36:48.000Z</Time>
            <Position>
              <LatitudeDegrees>36.8378788791596889495849609375</LatitudeDegrees>
              <LongitudeDegrees>-4.40087744034826755523681640625</LongitudeDegrees>
            </Position>
            <AltitudeMeters>770.4000244140625</AltitudeMeters>
            <DistanceMeters>NAN</DistanceMeters>
          </Trackpoint>
          <Trackpoint>
            <Time>2022-06-16T10:36:49.000Z</Time>
            <Position>
              <LatitudeDegrees>36.83788985945284366607666015625</LatitudeDegrees>
              <LongitudeDegrees>-4.40087073482573032379150390625</LongitudeDegrees>
            </Position>
            <AltitudeMeters>770.4000244140625</AltitudeMeters>
            <DistanceMeters>NAN</DistanceMeters>
          </Trackpoint>
          <Trackpoint>
            <Time>2022-06-16T10:36:50.000Z</Time>
            <Position>
              <LatitudeDegrees>36.837902851402759552001953125</LatitudeDegrees>
              <LongitudeDegrees>-4.400863945484161376953125</LongitudeDegrees>
            </Position>
            <AltitudeMeters>770.20001220703125</AltitudeMeters>
            <DistanceMeters>NAN</DistanceMeters>
          </Trackpoint>
          <Trackpoint>
            <Time>2022-06-16T10:36:51.000Z</Time>
            <Position>
              <LatitudeDegrees>36.8379157595336437225341796875</LatitudeDegrees>
              <LongitudeDegrees>-4.400856904685497283935546875</LongitudeDegrees>
            </Position>
            <AltitudeMeters>770.20001220703125</AltitudeMeters>
            <DistanceMeters>NAN</DistanceMeters>
          </Trackpoint>
          <Trackpoint>
            <Time>2022-06-16T10:36:52.000Z</Time>
            <Position>
              <LatitudeDegrees>36.83792942203581333160400390625</LatitudeDegrees>
              <LongitudeDegrees>-4.4008523784577846527099609375</LongitudeDegrees>
            </Position>
            <AltitudeMeters>770.20001220703125</AltitudeMeters>
            <DistanceMeters>NAN</DistanceMeters>
          </Trackpoint>
          <Trackpoint>
            <Time>2022-06-16T10:36:57.000Z</Time>
            <Position>
              <LatitudeDegrees>36.83799681253731250762939453125</LatitudeDegrees>
              <LongitudeDegrees>-4.400842487812042236328125</LongitudeDegrees>
            </Position>
            <AltitudeMeters>769.4000244140625</AltitudeMeters>
            <DistanceMeters>NAN</DistanceMeters>
          </Trackpoint>
          <Trackpoint>
            <Time>2022-06-16T10:36:58.000Z</Time>
            <Position>
              <LatitudeDegrees>36.838007457554340362548828125</LatitudeDegrees>
              <LongitudeDegrees>-4.4008389674127101898193359375</LongitudeDegrees>
            </Position>
            <AltitudeMeters>769.4000244140625</AltitudeMeters>
            <DistanceMeters>NAN</DistanceMeters>
          </Trackpoint>
          <Trackpoint>
            <Time>2022-06-16T10:37:00.000Z</Time>
            <Position>
              <LatitudeDegrees>36.83803318999707698822021484375</LatitudeDegrees>
              <LongitudeDegrees>-4.40083234570920467376708984375</LongitudeDegrees>
            </Position>
            <AltitudeMeters>769.20001220703125</AltitudeMeters>
            <DistanceMeters>NAN</DistanceMeters>
          </Trackpoint>
          <Trackpoint>
            <Time>2022-06-16T10:37:03.000Z</Time>
            <Position>
              <LatitudeDegrees>36.83806705288589000701904296875</LatitudeDegrees>
              <LongitudeDegrees>-4.400812648236751556396484375</LongitudeDegrees>
            </Position>
            <AltitudeMeters>769</AltitudeMeters>
            <DistanceMeters>NAN</DistanceMeters>
          </Trackpoint>
          <Trackpoint>
            <Time>2022-06-16T10:37:10.000Z</Time>
            <Position>
              <LatitudeDegrees>36.8381464295089244842529296875</LatitudeDegrees>
              <LongitudeDegrees>-4.40073989331722259521484375</LongitudeDegrees>
            </Position>
            <AltitudeMeters>769.4000244140625</AltitudeMeters>
            <DistanceMeters>NAN</DistanceMeters>
          </Trackpoint>
          <Trackpoint>
            <Time>2022-06-16T10:37:20.000Z</Time>
            <Position>
              <LatitudeDegrees>36.83822765015065670013427734375</LatitudeDegrees>
              <LongitudeDegrees>-4.40061827190220355987548828125</LongitudeDegrees>
            </Position>
            <AltitudeMeters>769.79998779296875</AltitudeMeters>
            <DistanceMeters>NAN</DistanceMeters>
          </Trackpoint>
          <Trackpoint>
            <Time>2022-06-16T10:37:21.000Z</Time>
            <Position>
              <LatitudeDegrees>36.83823519386351108551025390625</LatitudeDegrees>
              <LongitudeDegrees>-4.4006009213626384735107421875</LongitudeDegrees>
            </Position>
            <AltitudeMeters>770</AltitudeMeters>
            <DistanceMeters>NAN</DistanceMeters>
          </Trackpoint>
          <Trackpoint>
            <Time>2022-06-16T10:37:22.000Z</Time>
            <Position>
              <LatitudeDegrees>36.83824122883379459381103515625</LatitudeDegrees>
              <LongitudeDegrees>-4.400588013231754302978515625</LongitudeDegrees>
            </Position>
            <AltitudeMeters>770</AltitudeMeters>
            <DistanceMeters>NAN</DistanceMeters>
          </Trackpoint>
          <Trackpoint>
            <Time>2022-06-16T10:37:24.000Z</Time>
            <Position>
              <LatitudeDegrees>36.83825631625950336456298828125</LatitudeDegrees>
              <LongitudeDegrees>-4.40055708400905132293701171875</LongitudeDegrees>
            </Position>
            <AltitudeMeters>770.20001220703125</AltitudeMeters>
            <DistanceMeters>NAN</DistanceMeters>
          </Trackpoint>
          <Trackpoint>
            <Time>2022-06-16T10:37:26.000Z</Time>
            <Position>
              <LatitudeDegrees>36.83827693574130535125732421875</LatitudeDegrees>
              <LongitudeDegrees>-4.4005217961966991424560546875</LongitudeDegrees>
            </Position>
            <AltitudeMeters>770.5999755859375</AltitudeMeters>
            <DistanceMeters>NAN</DistanceMeters>
          </Trackpoint>
          <Trackpoint>
            <Time>2022-06-16T10:37:28.000Z</Time>
            <Position>
              <LatitudeDegrees>36.838300488889217376708984375</LatitudeDegrees>
              <LongitudeDegrees>-4.400483071804046630859375</LongitudeDegrees>
            </Position>
            <AltitudeMeters>771.20001220703125</AltitudeMeters>
            <DistanceMeters>NAN</DistanceMeters>
          </Trackpoint>
          <Trackpoint>
            <Time>2022-06-16T10:37:30.000Z</Time>
            <Position>
              <LatitudeDegrees>36.8383207730948925018310546875</LatitudeDegrees>
              <LongitudeDegrees>-4.4004510529339313507080078125</LongitudeDegrees>
            </Position>
            <AltitudeMeters>771.5999755859375</AltitudeMeters>
            <DistanceMeters>NAN</DistanceMeters>
          </Trackpoint>
          <Trackpoint>
            <Time>2022-06-16T10:37:35.000Z</Time>
            <Position>
              <LatitudeDegrees>36.83836343698203563690185546875</LatitudeDegrees>
              <LongitudeDegrees>-4.4003796391189098358154296875</LongitudeDegrees>
            </Position>
            <AltitudeMeters>772.5999755859375</AltitudeMeters>
            <DistanceMeters>NAN</DistanceMeters>
          </Trackpoint>
          <Trackpoint>
            <Time>2022-06-16T10:37:40.000Z</Time>
            <Position>
              <LatitudeDegrees>36.83839864097535610198974609375</LatitudeDegrees>
              <LongitudeDegrees>-4.400301687419414520263671875</LongitudeDegrees>
            </Position>
            <AltitudeMeters>774.20001220703125</AltitudeMeters>
            <DistanceMeters>NAN</DistanceMeters>
          </Trackpoint>
          <Trackpoint>
            <Time>2022-06-16T10:37:45.000Z</Time>
            <Position>
              <LatitudeDegrees>36.838423870503902435302734375</LatitudeDegrees>
              <LongitudeDegrees>-4.4002237357199192047119140625</LongitudeDegrees>
            </Position>
            <AltitudeMeters>775.79998779296875</AltitudeMeters>
            <DistanceMeters>NAN</DistanceMeters>
          </Trackpoint>
          <Trackpoint>
            <Time>2022-06-16T10:37:49.000Z</Time>
            <Position>
              <LatitudeDegrees>36.83845027349889278411865234375</LatitudeDegrees>
              <LongitudeDegrees>-4.4001650623977184295654296875</LongitudeDegrees>
            </Position>
            <AltitudeMeters>776.4000244140625</AltitudeMeters>
            <DistanceMeters>NAN</DistanceMeters>
          </Trackpoint>
          <Trackpoint>
            <Time>2022-06-16T10:37:50.000Z</Time>
            <Position>
              <LatitudeDegrees>36.83845781721174716949462890625</LatitudeDegrees>
              <LongitudeDegrees>-4.40015274100005626678466796875</LongitudeDegrees>
            </Position>
            <AltitudeMeters>776.4000244140625</AltitudeMeters>
            <DistanceMeters>NAN</DistanceMeters>
          </Trackpoint>
          <Trackpoint>
            <Time>2022-06-16T10:37:56.000Z</Time>
            <Position>
              <LatitudeDegrees>36.83851531706750392913818359375</LatitudeDegrees>
              <LongitudeDegrees>-4.40010999329388141632080078125</LongitudeDegrees>
            </Position>
            <AltitudeMeters>775</AltitudeMeters>
            <DistanceMeters>NAN</DistanceMeters>
          </Trackpoint>
          <Trackpoint>
            <Time>2022-06-16T10:38:00.000Z</Time>
            <Position>
              <LatitudeDegrees>36.83856426738202571868896484375</LatitudeDegrees>
              <LongitudeDegrees>-4.4000970013439655303955078125</LongitudeDegrees>
            </Position>
            <AltitudeMeters>773</AltitudeMeters>
            <DistanceMeters>NAN</DistanceMeters>
          </Trackpoint>
          <Trackpoint>
            <Time>2022-06-16T10:38:04.000Z</Time>
            <Position>
              <LatitudeDegrees>36.83861154131591320037841796875</LatitudeDegrees>
              <LongitudeDegrees>-4.40008853562176227569580078125</LongitudeDegrees>
            </Position>
            <AltitudeMeters>771</AltitudeMeters>
            <DistanceMeters>NAN</DistanceMeters>
          </Trackpoint>
          <Trackpoint>
            <Time>2022-06-16T10:38:05.000Z</Time>
            <Position>
              <LatitudeDegrees>36.8386231921613216400146484375</LatitudeDegrees>
              <LongitudeDegrees>-4.40009306184947490692138671875</LongitudeDegrees>
            </Position>
            <AltitudeMeters>770.20001220703125</AltitudeMeters>
            <DistanceMeters>NAN</DistanceMeters>
          </Trackpoint>
          <Trackpoint>
            <Time>2022-06-16T10:38:10.000Z</Time>
            <Position>
              <LatitudeDegrees>36.83870541863143444061279296875</LatitudeDegrees>
              <LongitudeDegrees>-4.4001003541052341461181640625</LongitudeDegrees>
            </Position>
            <AltitudeMeters>765.79998779296875</AltitudeMeters>
            <DistanceMeters>NAN</DistanceMeters>
          </Trackpoint>
          <Trackpoint>
            <Time>2022-06-16T10:38:16.000Z</Time>
            <Position>
              <LatitudeDegrees>36.8388049118220806121826171875</LatitudeDegrees>
              <LongitudeDegrees>-4.40009205602109432220458984375</LongitudeDegrees>
            </Position>
            <AltitudeMeters>763.20001220703125</AltitudeMeters>
            <DistanceMeters>NAN</DistanceMeters>
          </Trackpoint>
          <Trackpoint>
            <Time>2022-06-16T10:38:20.000Z</Time>
            <Position>
              <LatitudeDegrees>36.838862411677837371826171875</LatitudeDegrees>
              <LongitudeDegrees>-4.4000879488885402679443359375</LongitudeDegrees>
            </Position>
            <AltitudeMeters>761.79998779296875</AltitudeMeters>
            <DistanceMeters>NAN</DistanceMeters>
          </Trackpoint>
          <Trackpoint>
            <Time>2022-06-16T10:38:30.000Z</Time>
            <Position>
              <LatitudeDegrees>36.838969029486179351806640625</LatitudeDegrees>
              <LongitudeDegrees>-4.40001712180674076080322265625</LongitudeDegrees>
            </Position>
            <AltitudeMeters>761.20001220703125</AltitudeMeters>
            <DistanceMeters>NAN</DistanceMeters>
          </Trackpoint>
          <Trackpoint>
            <Time>2022-06-16T10:38:40.000Z</Time>
            <Position>
              <LatitudeDegrees>36.839060895144939422607421875</LatitudeDegrees>
              <LongitudeDegrees>-4.39988435246050357818603515625</LongitudeDegrees>
            </Position>
            <AltitudeMeters>761.79998779296875</AltitudeMeters>
            <DistanceMeters>NAN</DistanceMeters>
          </Trackpoint>
          <Trackpoint>
            <Time>2022-06-16T10:38:50.000Z</Time>
            <Position>
              <LatitudeDegrees>36.83908595703542232513427734375</LatitudeDegrees>
              <LongitudeDegrees>-4.39972124062478542327880859375</LongitudeDegrees>
            </Position>
            <AltitudeMeters>764.20001220703125</AltitudeMeters>
            <DistanceMeters>NAN</DistanceMeters>
          </Trackpoint>
          <Trackpoint>
            <Time>2022-06-16T10:39:00.000Z</Time>
            <Position>
              <LatitudeDegrees>36.8391026370227336883544921875</LatitudeDegrees>
              <LongitudeDegrees>-4.39954522065818309783935546875</LongitudeDegrees>
            </Position>
            <AltitudeMeters>765.79998779296875</AltitudeMeters>
            <DistanceMeters>NAN</DistanceMeters>
          </Trackpoint>
          <Trackpoint>
            <Time>2022-06-16T10:39:06.000Z</Time>
            <Position>
              <LatitudeDegrees>36.83912434615194797515869140625</LatitudeDegrees>
              <LongitudeDegrees>-4.39945184625685214996337890625</LongitudeDegrees>
            </Position>
            <AltitudeMeters>766.4000244140625</AltitudeMeters>
            <DistanceMeters>NAN</DistanceMeters>
          </Trackpoint>
          <Trackpoint>
            <Time>2022-06-16T10:39:10.000Z</Time>
            <Position>
              <LatitudeDegrees>36.83914647437632083892822265625</LatitudeDegrees>
              <LongitudeDegrees>-4.39938831143081188201904296875</LongitudeDegrees>
            </Position>
            <AltitudeMeters>766.4000244140625</AltitudeMeters>
            <DistanceMeters>NAN</DistanceMeters>
          </Trackpoint>
          <Trackpoint>
            <Time>2022-06-16T10:39:20.000Z</Time>
            <Position>
              <LatitudeDegrees>36.83921872638165950775146484375</LatitudeDegrees>
              <LongitudeDegrees>-4.39925931394100189208984375</LongitudeDegrees>
            </Position>
            <AltitudeMeters>765.4000244140625</AltitudeMeters>
            <DistanceMeters>NAN</DistanceMeters>
          </Trackpoint>
          <Trackpoint>
            <Time>2022-06-16T10:39:21.000Z</Time>
            <Position>
              <LatitudeDegrees>36.83922325260937213897705078125</LatitudeDegrees>
              <LongitudeDegrees>-4.39924456179141998291015625</LongitudeDegrees>
            </Position>
            <AltitudeMeters>765.4000244140625</AltitudeMeters>
            <DistanceMeters>NAN</DistanceMeters>
          </Trackpoint>
          <Trackpoint>
            <Time>2022-06-16T10:39:30.000Z</Time>
            <Position>
              <LatitudeDegrees>36.8392991088330745697021484375</LatitudeDegrees>
              <LongitudeDegrees>-4.3991304002702236175537109375</LongitudeDegrees>
            </Position>
            <AltitudeMeters>764.20001220703125</AltitudeMeters>
            <DistanceMeters>NAN</DistanceMeters>
          </Trackpoint>
          <Trackpoint>
            <Time>2022-06-16T10:39:40.000Z</Time>
            <Position>
              <LatitudeDegrees>36.83935401029884815216064453125</LatitudeDegrees>
              <LongitudeDegrees>-4.39899167977273464202880859375</LongitudeDegrees>
            </Position>
            <AltitudeMeters>763.20001220703125</AltitudeMeters>
            <DistanceMeters>NAN</DistanceMeters>
          </Trackpoint>
          <Trackpoint>
            <Time>2022-06-16T10:39:47.000Z</Time>
            <Position>
              <LatitudeDegrees>36.8393933214247226715087890625</LatitudeDegrees>
              <LongitudeDegrees>-4.3988926894962787628173828125</LongitudeDegrees>
            </Position>
            <AltitudeMeters>762.79998779296875</AltitudeMeters>
            <DistanceMeters>NAN</DistanceMeters>
          </Trackpoint>
          <Trackpoint>
            <Time>2022-06-16T10:39:50.000Z</Time>
            <Position>
              <LatitudeDegrees>36.83941100724041461944580078125</LatitudeDegrees>
              <LongitudeDegrees>-4.39884600229561328887939453125</LongitudeDegrees>
            </Position>
            <AltitudeMeters>762.5999755859375</AltitudeMeters>
            <DistanceMeters>NAN</DistanceMeters>
          </Trackpoint>
          <Trackpoint>
            <Time>2022-06-16T10:40:00.000Z</Time>
            <Position>
              <LatitudeDegrees>36.8394721113145351409912109375</LatitudeDegrees>
              <LongitudeDegrees>-4.39868138171732425689697265625</LongitudeDegrees>
            </Position>
            <AltitudeMeters>759.79998779296875</AltitudeMeters>
            <DistanceMeters>NAN</DistanceMeters>
          </Trackpoint>
          <Trackpoint>
            <Time>2022-06-16T10:40:05.000Z</Time>
            <Position>
              <LatitudeDegrees>36.83950119651854038238525390625</LatitudeDegrees>
              <LongitudeDegrees>-4.39860074780881404876708984375</LongitudeDegrees>
            </Position>
            <AltitudeMeters>758.4000244140625</AltitudeMeters>
            <DistanceMeters>NAN</DistanceMeters>
          </Trackpoint>
          <Trackpoint>
            <Time>2022-06-16T10:40:07.000Z</Time>
            <Position>
              <LatitudeDegrees>36.8395116738975048065185546875</LatitudeDegrees>
              <LongitudeDegrees>-4.3985698185861110687255859375</LongitudeDegrees>
            </Position>
            <AltitudeMeters>758.20001220703125</AltitudeMeters>
            <DistanceMeters>NAN</DistanceMeters>
          </Trackpoint>
          <Trackpoint>
            <Time>2022-06-16T10:40:08.000Z</Time>
            <Position>
              <LatitudeDegrees>36.8395133502781391143798828125</LatitudeDegrees>
              <LongitudeDegrees>-4.3985523842275142669677734375</LongitudeDegrees>
            </Position>
            <AltitudeMeters>758.20001220703125</AltitudeMeters>
            <DistanceMeters>NAN</DistanceMeters>
          </Trackpoint>
          <Trackpoint>
            <Time>2022-06-16T10:40:09.000Z</Time>
            <Position>
              <LatitudeDegrees>36.83951544575393199920654296875</LatitudeDegrees>
              <LongitudeDegrees>-4.39853486604988574981689453125</LongitudeDegrees>
            </Position>
            <AltitudeMeters>758</AltitudeMeters>
            <DistanceMeters>NAN</DistanceMeters>
          </Trackpoint>
          <Trackpoint>
            <Time>2022-06-16T10:40:10.000Z</Time>
            <Position>
              <LatitudeDegrees>36.83951854705810546875</LatitudeDegrees>
              <LongitudeDegrees>-4.3985156714916229248046875</LongitudeDegrees>
            </Position>
            <AltitudeMeters>758</AltitudeMeters>
            <DistanceMeters>NAN</DistanceMeters>
          </Trackpoint>
          <Trackpoint>
            <Time>2022-06-16T10:40:11.000Z</Time>
            <Position>
              <LatitudeDegrees>36.8395217321813106536865234375</LatitudeDegrees>
              <LongitudeDegrees>-4.3984977342188358306884765625</LongitudeDegrees>
            </Position>
            <AltitudeMeters>758</AltitudeMeters>
            <DistanceMeters>NAN</DistanceMeters>
          </Trackpoint>
          <Trackpoint>
            <Time>2022-06-16T10:40:12.000Z</Time>
            <Position>
              <LatitudeDegrees>36.83952181600034236907958984375</LatitudeDegrees>
              <LongitudeDegrees>-4.398479461669921875</LongitudeDegrees>
            </Position>
            <AltitudeMeters>758</AltitudeMeters>
            <DistanceMeters>NAN</DistanceMeters>
          </Trackpoint>
          <Trackpoint>
            <Time>2022-06-16T10:40:13.000Z</Time>
            <Position>
              <LatitudeDegrees>36.83952148072421550750732421875</LatitudeDegrees>
              <LongitudeDegrees>-4.39846177585422992706298828125</LongitudeDegrees>
            </Position>
            <AltitudeMeters>758.20001220703125</AltitudeMeters>
            <DistanceMeters>NAN</DistanceMeters>
          </Trackpoint>
          <Trackpoint>
            <Time>2022-06-16T10:40:20.000Z</Time>
            <Position>
              <LatitudeDegrees>36.8395089916884899139404296875</LatitudeDegrees>
              <LongitudeDegrees>-4.39834459684789180755615234375</LongitudeDegrees>
            </Position>
            <AltitudeMeters>759</AltitudeMeters>
            <DistanceMeters>NAN</DistanceMeters>
          </Trackpoint>
          <Trackpoint>
            <Time>2022-06-16T10:40:25.000Z</Time>
            <Position>
              <LatitudeDegrees>36.8394811637699604034423828125</LatitudeDegrees>
              <LongitudeDegrees>-4.39826195128262042999267578125</LongitudeDegrees>
            </Position>
            <AltitudeMeters>759.79998779296875</AltitudeMeters>
            <DistanceMeters>NAN</DistanceMeters>
          </Trackpoint>
          <Trackpoint>
            <Time>2022-06-16T10:40:28.000Z</Time>
            <Position>
              <LatitudeDegrees>36.83946230448782444000244140625</LatitudeDegrees>
              <LongitudeDegrees>-4.3982087261974811553955078125</LongitudeDegrees>
            </Position>
            <AltitudeMeters>760.20001220703125</AltitudeMeters>
            <DistanceMeters>NAN</DistanceMeters>
          </Trackpoint>
          <Trackpoint>
            <Time>2022-06-16T10:40:30.000Z</Time>
            <Position>
              <LatitudeDegrees>36.8394526652991771697998046875</LatitudeDegrees>
              <LongitudeDegrees>-4.3981778807938098907470703125</LongitudeDegrees>
            </Position>
            <AltitudeMeters>760.4000244140625</AltitudeMeters>
            <DistanceMeters>NAN</DistanceMeters>
          </Trackpoint>
          <Trackpoint>
            <Time>2022-06-16T10:40:33.000Z</Time>
            <Position>
              <LatitudeDegrees>36.83943112380802631378173828125</LatitudeDegrees>
              <LongitudeDegrees>-4.398136474192142486572265625</LongitudeDegrees>
            </Position>
            <AltitudeMeters>760.79998779296875</AltitudeMeters>
            <DistanceMeters>NAN</DistanceMeters>
          </Trackpoint>
          <Trackpoint>
            <Time>2022-06-16T10:40:36.000Z</Time>
            <Position>
              <LatitudeDegrees>36.83940413407981395721435546875</LatitudeDegrees>
              <LongitudeDegrees>-4.3981034494936466217041015625</LongitudeDegrees>
            </Position>
            <AltitudeMeters>761.20001220703125</AltitudeMeters>
            <DistanceMeters>NAN</DistanceMeters>
          </Trackpoint>
          <Trackpoint>
            <Time>2022-06-16T10:40:38.000Z</Time>
            <Position>
              <LatitudeDegrees>36.83938569389283657073974609375</LatitudeDegrees>
              <LongitudeDegrees>-4.39808358438313007354736328125</LongitudeDegrees>
            </Position>
            <AltitudeMeters>761.4000244140625</AltitudeMeters>
            <DistanceMeters>NAN</DistanceMeters>
          </Trackpoint>
          <Trackpoint>
            <Time>2022-06-16T10:40:39.000Z</Time>
            <Position>
              <LatitudeDegrees>36.8393789045512676239013671875</LatitudeDegrees>
              <LongitudeDegrees>-4.39806975424289703369140625</LongitudeDegrees>
            </Position>
            <AltitudeMeters>761.4000244140625</AltitudeMeters>
            <DistanceMeters>NAN</DistanceMeters>
          </Trackpoint>
          <Trackpoint>
            <Time>2022-06-16T10:40:40.000Z</Time>
            <Position>
              <LatitudeDegrees>36.83937295340001583099365234375</LatitudeDegrees>
              <LongitudeDegrees>-4.3980575166642665863037109375</LongitudeDegrees>
            </Position>
            <AltitudeMeters>761.5999755859375</AltitudeMeters>
            <DistanceMeters>NAN</DistanceMeters>
          </Trackpoint>
          <Trackpoint>
            <Time>2022-06-16T10:40:50.000Z</Time>
            <Position>
              <LatitudeDegrees>36.83931997977197170257568359375</LatitudeDegrees>
              <LongitudeDegrees>-4.39797746948897838592529296875</LongitudeDegrees>
            </Position>
            <AltitudeMeters>761.5999755859375</AltitudeMeters>
            <DistanceMeters>NAN</DistanceMeters>
          </Trackpoint>
          <Trackpoint>
            <Time>2022-06-16T10:41:00.000Z</Time>
            <Position>
              <LatitudeDegrees>36.83923280797898769378662109375</LatitudeDegrees>
              <LongitudeDegrees>-4.39791209064424037933349609375</LongitudeDegrees>
            </Position>
            <AltitudeMeters>762.79998779296875</AltitudeMeters>
            <DistanceMeters>NAN</DistanceMeters>
          </Trackpoint>
          <Trackpoint>
            <Time>2022-06-16T10:41:10.000Z</Time>
            <Position>
              <LatitudeDegrees>36.83914110995829105377197265625</LatitudeDegrees>
              <LongitudeDegrees>-4.39780413173139095306396484375</LongitudeDegrees>
            </Position>
            <AltitudeMeters>762.79998779296875</AltitudeMeters>
            <DistanceMeters>NAN</DistanceMeters>
          </Trackpoint>
          <Trackpoint>
            <Time>2022-06-16T10:41:16.000Z</Time>
            <Position>
              <LatitudeDegrees>36.83908629231154918670654296875</LatitudeDegrees>
              <LongitudeDegrees>-4.39776943065226078033447265625</LongitudeDegrees>
            </Position>
            <AltitudeMeters>763.4000244140625</AltitudeMeters>
            <DistanceMeters>NAN</DistanceMeters>
          </Trackpoint>
          <Trackpoint>
            <Time>2022-06-16T10:41:20.000Z</Time>
            <Position>
              <LatitudeDegrees>36.839042119681835174560546875</LatitudeDegrees>
              <LongitudeDegrees>-4.39774478785693645477294921875</LongitudeDegrees>
            </Position>
            <AltitudeMeters>763.79998779296875</AltitudeMeters>
            <DistanceMeters>NAN</DistanceMeters>
          </Trackpoint>
          <Trackpoint>
            <Time>2022-06-16T10:41:26.000Z</Time>
            <Position>
              <LatitudeDegrees>36.83898746967315673828125</LatitudeDegrees>
              <LongitudeDegrees>-4.39770639874041080474853515625</LongitudeDegrees>
            </Position>
            <AltitudeMeters>764</AltitudeMeters>
            <DistanceMeters>NAN</DistanceMeters>
          </Trackpoint>
          <Trackpoint>
            <Time>2022-06-16T10:41:30.000Z</Time>
            <Position>
              <LatitudeDegrees>36.83894933201372623443603515625</LatitudeDegrees>
              <LongitudeDegrees>-4.39765610732138156890869140625</LongitudeDegrees>
            </Position>
            <AltitudeMeters>763.5999755859375</AltitudeMeters>
            <DistanceMeters>NAN</DistanceMeters>
          </Trackpoint>
          <Trackpoint>
            <Time>2022-06-16T10:41:31.000Z</Time>
            <Position>
              <LatitudeDegrees>36.83893692679703235626220703125</LatitudeDegrees>
              <LongitudeDegrees>-4.39764873124659061431884765625</LongitudeDegrees>
            </Position>
            <AltitudeMeters>763.5999755859375</AltitudeMeters>
            <DistanceMeters>NAN</DistanceMeters>
          </Trackpoint>
          <Trackpoint>
            <Time>2022-06-16T10:41:32.000Z</Time>
            <Position>
              <LatitudeDegrees>36.838926114141941070556640625</LatitudeDegrees>
              <LongitudeDegrees>-4.3976367451250553131103515625</LongitudeDegrees>
            </Position>
            <AltitudeMeters>763.5999755859375</AltitudeMeters>
            <DistanceMeters>NAN</DistanceMeters>
          </Trackpoint>
          <Trackpoint>
            <Time>2022-06-16T10:41:36.000Z</Time>
            <Position>
              <LatitudeDegrees>36.83889367617666721343994140625</LatitudeDegrees>
              <LongitudeDegrees>-4.3975941650569438934326171875</LongitudeDegrees>
            </Position>
            <AltitudeMeters>763.20001220703125</AltitudeMeters>
            <DistanceMeters>NAN</DistanceMeters>
          </Trackpoint>
          <Trackpoint>
            <Time>2022-06-16T10:41:37.000Z</Time>
            <Position>
              <LatitudeDegrees>36.838885210454463958740234375</LatitudeDegrees>
              <LongitudeDegrees>-4.397580921649932861328125</LongitudeDegrees>
            </Position>
            <AltitudeMeters>763.20001220703125</AltitudeMeters>
            <DistanceMeters>NAN</DistanceMeters>
          </Trackpoint>
          <Trackpoint>
            <Time>2022-06-16T10:41:38.000Z</Time>
            <Position>
              <LatitudeDegrees>36.83887557126581668853759765625</LatitudeDegrees>
              <LongitudeDegrees>-4.3975676782429218292236328125</LongitudeDegrees>
            </Position>
            <AltitudeMeters>763</AltitudeMeters>
            <DistanceMeters>NAN</DistanceMeters>
          </Trackpoint>
          <Trackpoint>
            <Time>2022-06-16T10:41:39.000Z</Time>
            <Position>
              <LatitudeDegrees>36.83886568062007427215576171875</LatitudeDegrees>
              <LongitudeDegrees>-4.39755435101687908172607421875</LongitudeDegrees>
            </Position>
            <AltitudeMeters>763</AltitudeMeters>
            <DistanceMeters>NAN</DistanceMeters>
          </Trackpoint>
          <Trackpoint>
            <Time>2022-06-16T10:41:40.000Z</Time>
            <Position>
              <LatitudeDegrees>36.83885805308818817138671875</LatitudeDegrees>
              <LongitudeDegrees>-4.39754068851470947265625</LongitudeDegrees>
            </Position>
            <AltitudeMeters>763</AltitudeMeters>
            <DistanceMeters>NAN</DistanceMeters>
          </Trackpoint>
          <Trackpoint>
            <Time>2022-06-16T10:41:50.000Z</Time>
            <Position>
              <LatitudeDegrees>36.83879510499536991119384765625</LatitudeDegrees>
              <LongitudeDegrees>-4.39737145788967609405517578125</LongitudeDegrees>
            </Position>
            <AltitudeMeters>761.20001220703125</AltitudeMeters>
            <DistanceMeters>NAN</DistanceMeters>
          </Trackpoint>
          <Trackpoint>
            <Time>2022-06-16T10:41:57.000Z</Time>
            <Position>
              <LatitudeDegrees>36.83875210583209991455078125</LatitudeDegrees>
              <LongitudeDegrees>-4.3972652591764926910400390625</LongitudeDegrees>
            </Position>
            <AltitudeMeters>760.20001220703125</AltitudeMeters>
            <DistanceMeters>NAN</DistanceMeters>
          </Trackpoint>
          <Trackpoint>
            <Time>2022-06-16T10:42:00.000Z</Time>
            <Position>
              <LatitudeDegrees>36.838730312883853912353515625</LatitudeDegrees>
              <LongitudeDegrees>-4.39721907489001750946044921875</LongitudeDegrees>
            </Position>
            <AltitudeMeters>760</AltitudeMeters>
            <DistanceMeters>NAN</DistanceMeters>
          </Trackpoint>
          <Trackpoint>
            <Time>2022-06-16T10:42:04.000Z</Time>
            <Position>
              <LatitudeDegrees>36.8387049995362758636474609375</LatitudeDegrees>
              <LongitudeDegrees>-4.39715386368334293365478515625</LongitudeDegrees>
            </Position>
            <AltitudeMeters>759.79998779296875</AltitudeMeters>
            <DistanceMeters>NAN</DistanceMeters>
          </Trackpoint>
          <Trackpoint>
            <Time>2022-06-16T10:42:07.000Z</Time>
            <Position>
              <LatitudeDegrees>36.83869418688118457794189453125</LatitudeDegrees>
              <LongitudeDegrees>-4.39711312763392925262451171875</LongitudeDegrees>
            </Position>
            <AltitudeMeters>759.79998779296875</AltitudeMeters>
            <DistanceMeters>NAN</DistanceMeters>
          </Trackpoint>
          <Trackpoint>
            <Time>2022-06-16T10:42:10.000Z</Time>
            <Position>
              <LatitudeDegrees>36.8386875651776790618896484375</LatitudeDegrees>
              <LongitudeDegrees>-4.397072307765483856201171875</LongitudeDegrees>
            </Position>
            <AltitudeMeters>759.5999755859375</AltitudeMeters>
            <DistanceMeters>NAN</DistanceMeters>
          </Trackpoint>
          <Trackpoint>
            <Time>2022-06-16T10:42:20.000Z</Time>
            <Position>
              <LatitudeDegrees>36.83863568119704723358154296875</LatitudeDegrees>
              <LongitudeDegrees>-4.396935515105724334716796875</LongitudeDegrees>
            </Position>
            <AltitudeMeters>760.5999755859375</AltitudeMeters>
            <DistanceMeters>NAN</DistanceMeters>
          </Trackpoint>
          <Trackpoint>
            <Time>2022-06-16T10:42:30.000Z</Time>
            <Position>
              <LatitudeDegrees>36.83859787881374359130859375</LatitudeDegrees>
              <LongitudeDegrees>-4.39679344184696674346923828125</LongitudeDegrees>
            </Position>
            <AltitudeMeters>761.4000244140625</AltitudeMeters>
            <DistanceMeters>NAN</DistanceMeters>
          </Trackpoint>
          <Trackpoint>
            <Time>2022-06-16T10:42:40.000Z</Time>
            <Position>
              <LatitudeDegrees>36.8385330028831958770751953125</LatitudeDegrees>
              <LongitudeDegrees>-4.39665949903428554534912109375</LongitudeDegrees>
            </Position>
            <AltitudeMeters>763.20001220703125</AltitudeMeters>
            <DistanceMeters>NAN</DistanceMeters>
          </Trackpoint>
          <Trackpoint>
            <Time>2022-06-16T10:42:43.000Z</Time>
            <Position>
              <LatitudeDegrees>36.83852973394095897674560546875</LatitudeDegrees>
              <LongitudeDegrees>-4.39665480516850948333740234375</LongitudeDegrees>
            </Position>
            <AltitudeMeters>763.4000244140625</AltitudeMeters>
            <DistanceMeters>NAN</DistanceMeters>
          </Trackpoint>
          <Trackpoint>
            <Time>2022-06-16T10:42:49.000Z</Time>
            <Position>
              <LatitudeDegrees>36.83854850940406322479248046875</LatitudeDegrees>
              <LongitudeDegrees>-4.3966657854616641998291015625</LongitudeDegrees>
            </Position>
            <AltitudeMeters>762.79998779296875</AltitudeMeters>
            <DistanceMeters>NAN</DistanceMeters>
          </Trackpoint>
          <Trackpoint>
            <Time>2022-06-16T10:42:50.000Z</Time>
            <Position>
              <LatitudeDegrees>36.8385474197566509246826171875</LatitudeDegrees>
              <LongitudeDegrees>-4.396665953099727630615234375</LongitudeDegrees>
            </Position>
            <AltitudeMeters>762.79998779296875</AltitudeMeters>
            <DistanceMeters>NAN</DistanceMeters>
          </Trackpoint>
          <Trackpoint>
            <Time>2022-06-16T10:43:00.000Z</Time>
            <Position>
              <LatitudeDegrees>36.83853928931057453155517578125</LatitudeDegrees>
              <LongitudeDegrees>-4.39655757509171962738037109375</LongitudeDegrees>
            </Position>
            <AltitudeMeters>762.5999755859375</AltitudeMeters>
            <DistanceMeters>NAN</DistanceMeters>
          </Trackpoint>
          <Trackpoint>
            <Time>2022-06-16T10:43:02.000Z</Time>
            <Position>
              <LatitudeDegrees>36.83853694237768650054931640625</LatitudeDegrees>
              <LongitudeDegrees>-4.39654399640858173370361328125</LongitudeDegrees>
            </Position>
            <AltitudeMeters>762.79998779296875</AltitudeMeters>
            <DistanceMeters>NAN</DistanceMeters>
          </Trackpoint>
          <Trackpoint>
            <Time>2022-06-16T10:43:10.000Z</Time>
            <Position>
              <LatitudeDegrees>36.83856301009654998779296875</LatitudeDegrees>
              <LongitudeDegrees>-4.39645431004464626312255859375</LongitudeDegrees>
            </Position>
            <AltitudeMeters>761.5999755859375</AltitudeMeters>
            <DistanceMeters>NAN</DistanceMeters>
          </Trackpoint>
          <Trackpoint>
            <Time>2022-06-16T10:43:20.000Z</Time>
            <Position>
              <LatitudeDegrees>36.83858857490122318267822265625</LatitudeDegrees>
              <LongitudeDegrees>-4.39631416462361812591552734375</LongitudeDegrees>
            </Position>
            <AltitudeMeters>760.4000244140625</AltitudeMeters>
            <DistanceMeters>NAN</DistanceMeters>
          </Trackpoint>
          <Trackpoint>
            <Time>2022-06-16T10:43:30.000Z</Time>
            <Position>
              <LatitudeDegrees>36.83858723379671573638916015625</LatitudeDegrees>
              <LongitudeDegrees>-4.3961528129875659942626953125</LongitudeDegrees>
            </Position>
            <AltitudeMeters>759.5999755859375</AltitudeMeters>
            <DistanceMeters>NAN</DistanceMeters>
          </Trackpoint>
          <Trackpoint>
            <Time>2022-06-16T10:43:31.000Z</Time>
            <Position>
              <LatitudeDegrees>36.83858572505414485931396484375</LatitudeDegrees>
              <LongitudeDegrees>-4.39614032395184040069580078125</LongitudeDegrees>
            </Position>
            <AltitudeMeters>759.4000244140625</AltitudeMeters>
            <DistanceMeters>NAN</DistanceMeters>
          </Trackpoint>
          <Trackpoint>
            <Time>2022-06-16T10:43:35.000Z</Time>
            <Position>
              <LatitudeDegrees>36.83860600925981998443603515625</LatitudeDegrees>
              <LongitudeDegrees>-4.3960721790790557861328125</LongitudeDegrees>
            </Position>
            <AltitudeMeters>758.20001220703125</AltitudeMeters>
            <DistanceMeters>NAN</DistanceMeters>
          </Trackpoint>
          <Trackpoint>
            <Time>2022-06-16T10:43:40.000Z</Time>
            <Position>
              <LatitudeDegrees>36.83861137367784976959228515625</LatitudeDegrees>
              <LongitudeDegrees>-4.3959938921034336090087890625</LongitudeDegrees>
            </Position>
            <AltitudeMeters>758</AltitudeMeters>
            <DistanceMeters>NAN</DistanceMeters>
          </Trackpoint>
          <Trackpoint>
            <Time>2022-06-16T10:43:50.000Z</Time>
            <Position>
              <LatitudeDegrees>36.83861128985881805419921875</LatitudeDegrees>
              <LongitudeDegrees>-4.3959107436239719390869140625</LongitudeDegrees>
            </Position>
            <AltitudeMeters>758</AltitudeMeters>
            <DistanceMeters>NAN</DistanceMeters>
          </Trackpoint>
          <Trackpoint>
            <Time>2022-06-16T10:44:00.000Z</Time>
            <Position>
              <LatitudeDegrees>36.83863517828285694122314453125</LatitudeDegrees>
              <LongitudeDegrees>-4.39582985825836658477783203125</LongitudeDegrees>
            </Position>
            <AltitudeMeters>757</AltitudeMeters>
            <DistanceMeters>NAN</DistanceMeters>
          </Trackpoint>
          <Trackpoint>
            <Time>2022-06-16T10:44:10.000Z</Time>
            <Position>
              <LatitudeDegrees>36.8386620841920375823974609375</LatitudeDegrees>
              <LongitudeDegrees>-4.39567093737423419952392578125</LongitudeDegrees>
            </Position>
            <AltitudeMeters>755.5999755859375</AltitudeMeters>
            <DistanceMeters>NAN</DistanceMeters>
          </Trackpoint>
          <Trackpoint>
            <Time>2022-06-16T10:44:20.000Z</Time>
            <Position>
              <LatitudeDegrees>36.83870927430689334869384765625</LatitudeDegrees>
              <LongitudeDegrees>-4.39551067538559436798095703125</LongitudeDegrees>
            </Position>
            <AltitudeMeters>753.79998779296875</AltitudeMeters>
            <DistanceMeters>NAN</DistanceMeters>
          </Trackpoint>
          <Trackpoint>
            <Time>2022-06-16T10:44:30.000Z</Time>
            <Position>
              <LatitudeDegrees>36.83872771449387073516845703125</LatitudeDegrees>
              <LongitudeDegrees>-4.395355693995952606201171875</LongitudeDegrees>
            </Position>
            <AltitudeMeters>752.4000244140625</AltitudeMeters>
            <DistanceMeters>NAN</DistanceMeters>
          </Trackpoint>
          <Trackpoint>
            <Time>2022-06-16T10:44:40.000Z</Time>
            <Position>
              <LatitudeDegrees>36.83874405920505523681640625</LatitudeDegrees>
              <LongitudeDegrees>-4.3951577134430408477783203125</LongitudeDegrees>
            </Position>
            <AltitudeMeters>750.20001220703125</AltitudeMeters>
            <DistanceMeters>NAN</DistanceMeters>
          </Trackpoint>
          <Trackpoint>
            <Time>2022-06-16T10:44:50.000Z</Time>
            <Position>
              <LatitudeDegrees>36.83880583383142948150634765625</LatitudeDegrees>
              <LongitudeDegrees>-4.39497138373553752899169921875</LongitudeDegrees>
            </Position>
            <AltitudeMeters>746.5999755859375</AltitudeMeters>
            <DistanceMeters>NAN</DistanceMeters>
          </Trackpoint>
          <Trackpoint>
            <Time>2022-06-16T10:45:00.000Z</Time>
            <Position>
              <LatitudeDegrees>36.83888562954962253570556640625</LatitudeDegrees>
              <LongitudeDegrees>-4.39484163187444210052490234375</LongitudeDegrees>
            </Position>
            <AltitudeMeters>743</AltitudeMeters>
            <DistanceMeters>NAN</DistanceMeters>
          </Trackpoint>
          <Trackpoint>
            <Time>2022-06-16T10:45:10.000Z</Time>
            <Position>
              <LatitudeDegrees>36.83896341361105442047119140625</LatitudeDegrees>
              <LongitudeDegrees>-4.39470534212887287139892578125</LongitudeDegrees>
            </Position>
            <AltitudeMeters>739.4000244140625</AltitudeMeters>
            <DistanceMeters>NAN</DistanceMeters>
          </Trackpoint>
          <Trackpoint>
            <Time>2022-06-16T10:45:20.000Z</Time>
            <Position>
              <LatitudeDegrees>36.838999874889850616455078125</LatitudeDegrees>
              <LongitudeDegrees>-4.394520856440067291259765625</LongitudeDegrees>
            </Position>
            <AltitudeMeters>737</AltitudeMeters>
            <DistanceMeters>NAN</DistanceMeters>
          </Trackpoint>
          <Trackpoint>
            <Time>2022-06-16T10:45:30.000Z</Time>
            <Position>
              <LatitudeDegrees>36.83890172280371189117431640625</LatitudeDegrees>
              <LongitudeDegrees>-4.3944365344941616058349609375</LongitudeDegrees>
            </Position>
            <AltitudeMeters>736.79998779296875</AltitudeMeters>
            <DistanceMeters>NAN</DistanceMeters>
          </Trackpoint>
          <Trackpoint>
            <Time>2022-06-16T10:45:40.000Z</Time>
            <Position>
              <LatitudeDegrees>36.83881639502942562103271484375</LatitudeDegrees>
              <LongitudeDegrees>-4.39438448287546634674072265625</LongitudeDegrees>
            </Position>
            <AltitudeMeters>736.79998779296875</AltitudeMeters>
            <DistanceMeters>NAN</DistanceMeters>
          </Trackpoint>
          <Trackpoint>
            <Time>2022-06-16T10:45:48.000Z</Time>
            <Position>
              <LatitudeDegrees>36.8387179076671600341796875</LatitudeDegrees>
              <LongitudeDegrees>-4.3943329341709613800048828125</LongitudeDegrees>
            </Position>
            <AltitudeMeters>736.20001220703125</AltitudeMeters>
            <DistanceMeters>NAN</DistanceMeters>
          </Trackpoint>
          <Trackpoint>
            <Time>2022-06-16T10:45:50.000Z</Time>
            <Position>
              <LatitudeDegrees>36.83870575390756130218505859375</LatitudeDegrees>
              <LongitudeDegrees>-4.39432681538164615631103515625</LongitudeDegrees>
            </Position>
            <AltitudeMeters>736</AltitudeMeters>
            <DistanceMeters>NAN</DistanceMeters>
          </Trackpoint>
          <Trackpoint>
            <Time>2022-06-16T10:45:54.000Z</Time>
            <Position>
              <LatitudeDegrees>36.838643141090869903564453125</LatitudeDegrees>
              <LongitudeDegrees>-4.39429563470184803009033203125</LongitudeDegrees>
            </Position>
            <AltitudeMeters>735.4000244140625</AltitudeMeters>
            <DistanceMeters>NAN</DistanceMeters>
          </Trackpoint>
          <Trackpoint>
            <Time>2022-06-16T10:46:00.000Z</Time>
            <Position>
              <LatitudeDegrees>36.8385769240558147430419921875</LatitudeDegrees>
              <LongitudeDegrees>-4.39424651674926280975341796875</LongitudeDegrees>
            </Position>
            <AltitudeMeters>734.20001220703125</AltitudeMeters>
            <DistanceMeters>NAN</DistanceMeters>
          </Trackpoint>
          <Trackpoint>
            <Time>2022-06-16T10:46:03.000Z</Time>
            <Position>
              <LatitudeDegrees>36.8385383673012256622314453125</LatitudeDegrees>
              <LongitudeDegrees>-4.3942323513329029083251953125</LongitudeDegrees>
            </Position>
            <AltitudeMeters>733.5999755859375</AltitudeMeters>
            <DistanceMeters>NAN</DistanceMeters>
          </Trackpoint>
          <Trackpoint>
            <Time>2022-06-16T10:46:10.000Z</Time>
            <Position>
              <LatitudeDegrees>36.83845194987952709197998046875</LatitudeDegrees>
              <LongitudeDegrees>-4.3942015059292316436767578125</LongitudeDegrees>
            </Position>
            <AltitudeMeters>732</AltitudeMeters>
            <DistanceMeters>NAN</DistanceMeters>
          </Trackpoint>
          <Trackpoint>
            <Time>2022-06-16T10:46:13.000Z</Time>
            <Position>
              <LatitudeDegrees>36.838407106697559356689453125</LatitudeDegrees>
              <LongitudeDegrees>-4.39421868883073329925537109375</LongitudeDegrees>
            </Position>
            <AltitudeMeters>732</AltitudeMeters>
            <DistanceMeters>NAN</DistanceMeters>
          </Trackpoint>
          <Trackpoint>
            <Time>2022-06-16T10:46:20.000Z</Time>
            <Position>
              <LatitudeDegrees>36.83835639618337154388427734375</LatitudeDegrees>
              <LongitudeDegrees>-4.3942866660654544830322265625</LongitudeDegrees>
            </Position>
            <AltitudeMeters>732.79998779296875</AltitudeMeters>
            <DistanceMeters>NAN</DistanceMeters>
          </Trackpoint>
          <Trackpoint>
            <Time>2022-06-16T10:46:30.000Z</Time>
            <Position>
              <LatitudeDegrees>36.8382755108177661895751953125</LatitudeDegrees>
              <LongitudeDegrees>-4.3944281525909900665283203125</LongitudeDegrees>
            </Position>
            <AltitudeMeters>735</AltitudeMeters>
            <DistanceMeters>NAN</DistanceMeters>
          </Trackpoint>
          <Trackpoint>
            <Time>2022-06-16T10:46:40.000Z</Time>
            <Position>
              <LatitudeDegrees>36.838163025677204132080078125</LatitudeDegrees>
              <LongitudeDegrees>-4.394547007977962493896484375</LongitudeDegrees>
            </Position>
            <AltitudeMeters>736</AltitudeMeters>
            <DistanceMeters>NAN</DistanceMeters>
          </Trackpoint>
          <Trackpoint>
            <Time>2022-06-16T10:46:44.000Z</Time>
            <Position>
              <LatitudeDegrees>36.838116757571697235107421875</LatitudeDegrees>
              <LongitudeDegrees>-4.39460190944373607635498046875</LongitudeDegrees>
            </Position>
            <AltitudeMeters>736.5999755859375</AltitudeMeters>
            <DistanceMeters>NAN</DistanceMeters>
          </Trackpoint>
          <Trackpoint>
            <Time>2022-06-16T10:46:48.000Z</Time>
            <Position>
              <LatitudeDegrees>36.83806269429624080657958984375</LatitudeDegrees>
              <LongitudeDegrees>-4.39462068490684032440185546875</LongitudeDegrees>
            </Position>
            <AltitudeMeters>736</AltitudeMeters>
            <DistanceMeters>NAN</DistanceMeters>
          </Trackpoint>
          <Trackpoint>
            <Time>2022-06-16T10:46:50.000Z</Time>
            <Position>
              <LatitudeDegrees>36.83803738094866275787353515625</LatitudeDegrees>
              <LongitudeDegrees>-4.39462638460099697113037109375</LongitudeDegrees>
            </Position>
            <AltitudeMeters>735.5999755859375</AltitudeMeters>
            <DistanceMeters>NAN</DistanceMeters>
          </Trackpoint>
          <Trackpoint>
            <Time>2022-06-16T10:46:54.000Z</Time>
            <Position>
              <LatitudeDegrees>36.83798273093998432159423828125</LatitudeDegrees>
              <LongitudeDegrees>-4.39462772570550441741943359375</LongitudeDegrees>
            </Position>
            <AltitudeMeters>734.5999755859375</AltitudeMeters>
            <DistanceMeters>NAN</DistanceMeters>
          </Trackpoint>
          <Trackpoint>
            <Time>2022-06-16T10:47:00.000Z</Time>
            <Position>
              <LatitudeDegrees>36.8378979898989200592041015625</LatitudeDegrees>
              <LongitudeDegrees>-4.39464725553989410400390625</LongitudeDegrees>
            </Position>
            <AltitudeMeters>733</AltitudeMeters>
            <DistanceMeters>NAN</DistanceMeters>
          </Trackpoint>
          <Trackpoint>
            <Time>2022-06-16T10:47:10.000Z</Time>
            <Position>
              <LatitudeDegrees>36.83777351863682270050048828125</LatitudeDegrees>
              <LongitudeDegrees>-4.3946625106036663055419921875</LongitudeDegrees>
            </Position>
            <AltitudeMeters>731.20001220703125</AltitudeMeters>
            <DistanceMeters>NAN</DistanceMeters>
          </Trackpoint>
          <Trackpoint>
            <Time>2022-06-16T10:47:18.000Z</Time>
            <Position>
              <LatitudeDegrees>36.837681233882904052734375</LatitudeDegrees>
              <LongitudeDegrees>-4.39471431076526641845703125</LongitudeDegrees>
            </Position>
            <AltitudeMeters>732.4000244140625</AltitudeMeters>
            <DistanceMeters>NAN</DistanceMeters>
          </Trackpoint>
          <Trackpoint>
            <Time>2022-06-16T10:47:20.000Z</Time>
            <Position>
              <LatitudeDegrees>36.8376606144011020660400390625</LatitudeDegrees>
              <LongitudeDegrees>-4.39472964964807033538818359375</LongitudeDegrees>
            </Position>
            <AltitudeMeters>733</AltitudeMeters>
            <DistanceMeters>NAN</DistanceMeters>
          </Trackpoint>
          <Trackpoint>
            <Time>2022-06-16T10:47:30.000Z</Time>
            <Position>
              <LatitudeDegrees>36.8375368975102901458740234375</LatitudeDegrees>
              <LongitudeDegrees>-4.39475186169147491455078125</LongitudeDegrees>
            </Position>
            <AltitudeMeters>733.20001220703125</AltitudeMeters>
            <DistanceMeters>NAN</DistanceMeters>
          </Trackpoint>
          <Trackpoint>
            <Time>2022-06-16T10:47:40.000Z</Time>
            <Position>
              <LatitudeDegrees>36.837398596107959747314453125</LatitudeDegrees>
              <LongitudeDegrees>-4.39477331936359405517578125</LongitudeDegrees>
            </Position>
            <AltitudeMeters>734.79998779296875</AltitudeMeters>
            <DistanceMeters>NAN</DistanceMeters>
          </Trackpoint>
          <Trackpoint>
            <Time>2022-06-16T10:47:50.000Z</Time>
            <Position>
              <LatitudeDegrees>36.83725367300212383270263671875</LatitudeDegrees>
              <LongitudeDegrees>-4.3948123790323734283447265625</LongitudeDegrees>
            </Position>
            <AltitudeMeters>737.4000244140625</AltitudeMeters>
            <DistanceMeters>NAN</DistanceMeters>
          </Trackpoint>
          <Trackpoint>
            <Time>2022-06-16T10:47:59.000Z</Time>
            <Position>
              <LatitudeDegrees>36.8371161259710788726806640625</LatitudeDegrees>
              <LongitudeDegrees>-4.3948308192193508148193359375</LongitudeDegrees>
            </Position>
            <AltitudeMeters>739.79998779296875</AltitudeMeters>
            <DistanceMeters>NAN</DistanceMeters>
          </Trackpoint>
          <Trackpoint>
            <Time>2022-06-16T10:48:00.000Z</Time>
            <Position>
              <LatitudeDegrees>36.83710011653602123260498046875</LatitudeDegrees>
              <LongitudeDegrees>-4.3948276340961456298828125</LongitudeDegrees>
            </Position>
            <AltitudeMeters>740</AltitudeMeters>
            <DistanceMeters>NAN</DistanceMeters>
          </Trackpoint>
          <Trackpoint>
            <Time>2022-06-16T10:48:03.000Z</Time>
            <Position>
              <LatitudeDegrees>36.83706223033368587493896484375</LatitudeDegrees>
              <LongitudeDegrees>-4.39481900073587894439697265625</LongitudeDegrees>
            </Position>
            <AltitudeMeters>740</AltitudeMeters>
            <DistanceMeters>NAN</DistanceMeters>
          </Trackpoint>
          <Trackpoint>
            <Time>2022-06-16T10:48:04.000Z</Time>
            <Position>
              <LatitudeDegrees>36.8370504118502140045166015625</LatitudeDegrees>
              <LongitudeDegrees>-4.3948140554130077362060546875</LongitudeDegrees>
            </Position>
            <AltitudeMeters>740</AltitudeMeters>
            <DistanceMeters>NAN</DistanceMeters>
          </Trackpoint>
          <Trackpoint>
            <Time>2022-06-16T10:48:05.000Z</Time>
            <Position>
              <LatitudeDegrees>36.8370376713573932647705078125</LatitudeDegrees>
              <LongitudeDegrees>-4.39481061883270740509033203125</LongitudeDegrees>
            </Position>
            <AltitudeMeters>740</AltitudeMeters>
            <DistanceMeters>NAN</DistanceMeters>
          </Trackpoint>
          <Trackpoint>
            <Time>2022-06-16T10:48:09.000Z</Time>
            <Position>
              <LatitudeDegrees>36.8369846977293491363525390625</LatitudeDegrees>
              <LongitudeDegrees>-4.39478161744773387908935546875</LongitudeDegrees>
            </Position>
            <AltitudeMeters>739.4000244140625</AltitudeMeters>
            <DistanceMeters>NAN</DistanceMeters>
          </Trackpoint>
          <Trackpoint>
            <Time>2022-06-16T10:48:10.000Z</Time>
            <Position>
              <LatitudeDegrees>36.8369732983410358428955078125</LatitudeDegrees>
              <LongitudeDegrees>-4.3947754986584186553955078125</LongitudeDegrees>
            </Position>
            <AltitudeMeters>739.20001220703125</AltitudeMeters>
            <DistanceMeters>NAN</DistanceMeters>
          </Trackpoint>
          <Trackpoint>
            <Time>2022-06-16T10:48:20.000Z</Time>
            <Position>
              <LatitudeDegrees>36.83684782125055789947509765625</LatitudeDegrees>
              <LongitudeDegrees>-4.39477055333554744720458984375</LongitudeDegrees>
            </Position>
            <AltitudeMeters>742</AltitudeMeters>
            <DistanceMeters>NAN</DistanceMeters>
          </Trackpoint>
          <Trackpoint>
            <Time>2022-06-16T10:48:24.000Z</Time>
            <Position>
              <LatitudeDegrees>36.8367996253073215484619140625</LatitudeDegrees>
              <LongitudeDegrees>-4.3947879038751125335693359375</LongitudeDegrees>
            </Position>
            <AltitudeMeters>743.79998779296875</AltitudeMeters>
            <DistanceMeters>NAN</DistanceMeters>
          </Trackpoint>
          <Trackpoint>
            <Time>2022-06-16T10:48:30.000Z</Time>
            <Position>
              <LatitudeDegrees>36.83674137108027935028076171875</LatitudeDegrees>
              <LongitudeDegrees>-4.39476569183170795440673828125</LongitudeDegrees>
            </Position>
            <AltitudeMeters>744.79998779296875</AltitudeMeters>
            <DistanceMeters>NAN</DistanceMeters>
          </Trackpoint>
          <Trackpoint>
            <Time>2022-06-16T10:48:35.000Z</Time>
            <Position>
              <LatitudeDegrees>36.83669577352702617645263671875</LatitudeDegrees>
              <LongitudeDegrees>-4.39470819197595119476318359375</LongitudeDegrees>
            </Position>
            <AltitudeMeters>744.5999755859375</AltitudeMeters>
            <DistanceMeters>NAN</DistanceMeters>
          </Trackpoint>
          <Trackpoint>
            <Time>2022-06-16T10:48:36.000Z</Time>
            <Position>
              <LatitudeDegrees>36.8366889841854572296142578125</LatitudeDegrees>
              <LongitudeDegrees>-4.3946926854550838470458984375</LongitudeDegrees>
            </Position>
            <AltitudeMeters>744.20001220703125</AltitudeMeters>
            <DistanceMeters>NAN</DistanceMeters>
          </Trackpoint>
          <Trackpoint>
            <Time>2022-06-16T10:48:37.000Z</Time>
            <Position>
              <LatitudeDegrees>36.83668219484388828277587890625</LatitudeDegrees>
              <LongitudeDegrees>-4.39467986114323139190673828125</LongitudeDegrees>
            </Position>
            <AltitudeMeters>744.20001220703125</AltitudeMeters>
            <DistanceMeters>NAN</DistanceMeters>
          </Trackpoint>
          <Trackpoint>
            <Time>2022-06-16T10:48:40.000Z</Time>
            <Position>
              <LatitudeDegrees>36.83666576631367206573486328125</LatitudeDegrees>
              <LongitudeDegrees>-4.3946423940360546112060546875</LongitudeDegrees>
            </Position>
            <AltitudeMeters>744</AltitudeMeters>
            <DistanceMeters>NAN</DistanceMeters>
          </Trackpoint>
          <Trackpoint>
            <Time>2022-06-16T10:48:44.000Z</Time>
            <Position>
              <LatitudeDegrees>36.83665973134338855743408203125</LatitudeDegrees>
              <LongitudeDegrees>-4.394573159515857696533203125</LongitudeDegrees>
            </Position>
            <AltitudeMeters>742.5999755859375</AltitudeMeters>
            <DistanceMeters>NAN</DistanceMeters>
          </Trackpoint>
          <Trackpoint>
            <Time>2022-06-16T10:48:49.000Z</Time>
            <Position>
              <LatitudeDegrees>36.8366507627069950103759765625</LatitudeDegrees>
              <LongitudeDegrees>-4.39451205544173717498779296875</LongitudeDegrees>
            </Position>
            <AltitudeMeters>741.79998779296875</AltitudeMeters>
            <DistanceMeters>NAN</DistanceMeters>
          </Trackpoint>
          <Trackpoint>
            <Time>2022-06-16T10:48:50.000Z</Time>
            <Position>
              <LatitudeDegrees>36.83664782904088497161865234375</LatitudeDegrees>
              <LongitudeDegrees>-4.3945002369582653045654296875</LongitudeDegrees>
            </Position>
            <AltitudeMeters>741.5999755859375</AltitudeMeters>
            <DistanceMeters>NAN</DistanceMeters>
          </Trackpoint>
          <Trackpoint>
            <Time>2022-06-16T10:49:00.000Z</Time>
            <Position>
              <LatitudeDegrees>36.83662503026425838470458984375</LatitudeDegrees>
              <LongitudeDegrees>-4.39434014260768890380859375</LongitudeDegrees>
            </Position>
            <AltitudeMeters>740.79998779296875</AltitudeMeters>
            <DistanceMeters>NAN</DistanceMeters>
          </Trackpoint>
          <Trackpoint>
            <Time>2022-06-16T10:49:10.000Z</Time>
            <Position>
              <LatitudeDegrees>36.8366225995123386383056640625</LatitudeDegrees>
              <LongitudeDegrees>-4.39419002272188663482666015625</LongitudeDegrees>
            </Position>
            <AltitudeMeters>739.79998779296875</AltitudeMeters>
            <DistanceMeters>NAN</DistanceMeters>
          </Trackpoint>
          <Trackpoint>
            <Time>2022-06-16T10:49:20.000Z</Time>
            <Position>
              <LatitudeDegrees>36.83666995726525783538818359375</LatitudeDegrees>
              <LongitudeDegrees>-4.3940154276788234710693359375</LongitudeDegrees>
            </Position>
            <AltitudeMeters>736.20001220703125</AltitudeMeters>
            <DistanceMeters>NAN</DistanceMeters>
          </Trackpoint>
          <Trackpoint>
            <Time>2022-06-16T10:49:30.000Z</Time>
            <Position>
              <LatitudeDegrees>36.83671622537076473236083984375</LatitudeDegrees>
              <LongitudeDegrees>-4.3938722647726535797119140625</LongitudeDegrees>
            </Position>
            <AltitudeMeters>733.20001220703125</AltitudeMeters>
            <DistanceMeters>NAN</DistanceMeters>
          </Trackpoint>
          <Trackpoint>
            <Time>2022-06-16T10:49:34.000Z</Time>
            <Position>
              <LatitudeDegrees>36.83673684485256671905517578125</LatitudeDegrees>
              <LongitudeDegrees>-4.3938008509576320648193359375</LongitudeDegrees>
            </Position>
            <AltitudeMeters>731.4000244140625</AltitudeMeters>
            <DistanceMeters>NAN</DistanceMeters>
          </Trackpoint>
          <Trackpoint>
            <Time>2022-06-16T10:49:40.000Z</Time>
            <Position>
              <LatitudeDegrees>36.83675075881183147430419921875</LatitudeDegrees>
              <LongitudeDegrees>-4.39371116459369659423828125</LongitudeDegrees>
            </Position>
            <AltitudeMeters>729.79998779296875</AltitudeMeters>
            <DistanceMeters>NAN</DistanceMeters>
          </Trackpoint>
          <Trackpoint>
            <Time>2022-06-16T10:49:43.000Z</Time>
            <Position>
              <LatitudeDegrees>36.83677263557910919189453125</LatitudeDegrees>
              <LongitudeDegrees>-4.39366363920271396636962890625</LongitudeDegrees>
            </Position>
            <AltitudeMeters>728.4000244140625</AltitudeMeters>
            <DistanceMeters>NAN</DistanceMeters>
          </Trackpoint>
          <Trackpoint>
            <Time>2022-06-16T10:49:50.000Z</Time>
            <Position>
              <LatitudeDegrees>36.83679082430899143218994140625</LatitudeDegrees>
              <LongitudeDegrees>-4.39354428090155124664306640625</LongitudeDegrees>
            </Position>
            <AltitudeMeters>726.5999755859375</AltitudeMeters>
            <DistanceMeters>NAN</DistanceMeters>
          </Trackpoint>
          <Trackpoint>
            <Time>2022-06-16T10:50:00.000Z</Time>
            <Position>
              <LatitudeDegrees>36.8367526866495609283447265625</LatitudeDegrees>
              <LongitudeDegrees>-4.393408410251140594482421875</LongitudeDegrees>
            </Position>
            <AltitudeMeters>727.20001220703125</AltitudeMeters>
            <DistanceMeters>NAN</DistanceMeters>
          </Trackpoint>
          <Trackpoint>
            <Time>2022-06-16T10:50:10.000Z</Time>
            <Position>
              <LatitudeDegrees>36.83667448349297046661376953125</LatitudeDegrees>
              <LongitudeDegrees>-4.3932986073195934295654296875</LongitudeDegrees>
            </Position>
            <AltitudeMeters>729.5999755859375</AltitudeMeters>
            <DistanceMeters>NAN</DistanceMeters>
          </Trackpoint>
          <Trackpoint>
            <Time>2022-06-16T10:50:20.000Z</Time>
            <Position>
              <LatitudeDegrees>36.8365667760372161865234375</LatitudeDegrees>
              <LongitudeDegrees>-4.39314111135900020599365234375</LongitudeDegrees>
            </Position>
            <AltitudeMeters>730.79998779296875</AltitudeMeters>
            <DistanceMeters>NAN</DistanceMeters>
          </Trackpoint>
          <Trackpoint>
            <Time>2022-06-16T10:50:30.000Z</Time>
            <Position>
              <LatitudeDegrees>36.83658848516643047332763671875</LatitudeDegrees>
              <LongitudeDegrees>-4.39296458847820758819580078125</LongitudeDegrees>
            </Position>
            <AltitudeMeters>726.4000244140625</AltitudeMeters>
            <DistanceMeters>NAN</DistanceMeters>
          </Trackpoint>
          <Trackpoint>
            <Time>2022-06-16T10:50:40.000Z</Time>
            <Position>
              <LatitudeDegrees>36.83658513240516185760498046875</LatitudeDegrees>
              <LongitudeDegrees>-4.39295184798538684844970703125</LongitudeDegrees>
            </Position>
            <AltitudeMeters>726.20001220703125</AltitudeMeters>
            <DistanceMeters>NAN</DistanceMeters>
          </Trackpoint>
          <Trackpoint>
            <Time>2022-06-16T10:50:50.000Z</Time>
            <Position>
              <LatitudeDegrees>36.8366021476686000823974609375</LatitudeDegrees>
              <LongitudeDegrees>-4.39291723072528839111328125</LongitudeDegrees>
            </Position>
            <AltitudeMeters>724.79998779296875</AltitudeMeters>
            <DistanceMeters>NAN</DistanceMeters>
          </Trackpoint>
          <Trackpoint>
            <Time>2022-06-16T10:51:00.000Z</Time>
            <Position>
              <LatitudeDegrees>36.8365592323243618011474609375</LatitudeDegrees>
              <LongitudeDegrees>-4.392762668430805206298828125</LongitudeDegrees>
            </Position>
            <AltitudeMeters>722</AltitudeMeters>
            <DistanceMeters>NAN</DistanceMeters>
          </Trackpoint>
          <Trackpoint>
            <Time>2022-06-16T10:51:10.000Z</Time>
            <Position>
              <LatitudeDegrees>36.836453117430210113525390625</LatitudeDegrees>
              <LongitudeDegrees>-4.39263886772096157073974609375</LongitudeDegrees>
            </Position>
            <AltitudeMeters>727.4000244140625</AltitudeMeters>
            <DistanceMeters>NAN</DistanceMeters>
          </Trackpoint>
          <Trackpoint>
            <Time>2022-06-16T10:51:20.000Z</Time>
            <Position>
              <LatitudeDegrees>36.83636267669498920440673828125</LatitudeDegrees>
              <LongitudeDegrees>-4.39254649914801120758056640625</LongitudeDegrees>
            </Position>
            <AltitudeMeters>733.20001220703125</AltitudeMeters>
            <DistanceMeters>NAN</DistanceMeters>
          </Trackpoint>
          <Trackpoint>
            <Time>2022-06-16T10:51:22.000Z</Time>
            <Position>
              <LatitudeDegrees>36.83634708635509014129638671875</LatitudeDegrees>
              <LongitudeDegrees>-4.3925211019814014434814453125</LongitudeDegrees>
            </Position>
            <AltitudeMeters>733.79998779296875</AltitudeMeters>
            <DistanceMeters>NAN</DistanceMeters>
          </Trackpoint>
          <Trackpoint>
            <Time>2022-06-16T10:51:30.000Z</Time>
            <Position>
              <LatitudeDegrees>36.8363128043711185455322265625</LatitudeDegrees>
              <LongitudeDegrees>-4.39239629544317722320556640625</LongitudeDegrees>
            </Position>
            <AltitudeMeters>736.4000244140625</AltitudeMeters>
            <DistanceMeters>NAN</DistanceMeters>
          </Trackpoint>
          <Trackpoint>
            <Time>2022-06-16T10:51:39.000Z</Time>
            <Position>
              <LatitudeDegrees>36.83636636473238468170166015625</LatitudeDegrees>
              <LongitudeDegrees>-4.3922867439687252044677734375</LongitudeDegrees>
            </Position>
            <AltitudeMeters>736</AltitudeMeters>
            <DistanceMeters>NAN</DistanceMeters>
          </Trackpoint>
          <Trackpoint>
            <Time>2022-06-16T10:51:40.000Z</Time>
            <Position>
              <LatitudeDegrees>36.83636904694139957427978515625</LatitudeDegrees>
              <LongitudeDegrees>-4.392275847494602203369140625</LongitudeDegrees>
            </Position>
            <AltitudeMeters>736</AltitudeMeters>
            <DistanceMeters>NAN</DistanceMeters>
          </Trackpoint>
          <Trackpoint>
            <Time>2022-06-16T10:51:46.000Z</Time>
            <Position>
              <LatitudeDegrees>36.8364058434963226318359375</LatitudeDegrees>
              <LongitudeDegrees>-4.39220803789794445037841796875</LongitudeDegrees>
            </Position>
            <AltitudeMeters>735.4000244140625</AltitudeMeters>
            <DistanceMeters>NAN</DistanceMeters>
          </Trackpoint>
          <Trackpoint>
            <Time>2022-06-16T10:51:50.000Z</Time>
            <Position>
              <LatitudeDegrees>36.836462505161762237548828125</LatitudeDegrees>
              <LongitudeDegrees>-4.39216814003884792327880859375</LongitudeDegrees>
            </Position>
            <AltitudeMeters>734.79998779296875</AltitudeMeters>
            <DistanceMeters>NAN</DistanceMeters>
          </Trackpoint>
          <Trackpoint>
            <Time>2022-06-16T10:51:52.000Z</Time>
            <Position>
              <LatitudeDegrees>36.836473233997821807861328125</LatitudeDegrees>
              <LongitudeDegrees>-4.39214047975838184356689453125</LongitudeDegrees>
            </Position>
            <AltitudeMeters>735.20001220703125</AltitudeMeters>
            <DistanceMeters>NAN</DistanceMeters>
          </Trackpoint>
          <Trackpoint>
            <Time>2022-06-16T10:51:57.000Z</Time>
            <Position>
              <LatitudeDegrees>36.8365015648305416107177734375</LatitudeDegrees>
              <LongitudeDegrees>-4.39210929907858371734619140625</LongitudeDegrees>
            </Position>
            <AltitudeMeters>735.5999755859375</AltitudeMeters>
            <DistanceMeters>NAN</DistanceMeters>
          </Trackpoint>
          <Trackpoint>
            <Time>2022-06-16T10:52:00.000Z</Time>
            <Position>
              <LatitudeDegrees>36.8365233577787876129150390625</LatitudeDegrees>
              <LongitudeDegrees>-4.392104186117649078369140625</LongitudeDegrees>
            </Position>
            <AltitudeMeters>735.4000244140625</AltitudeMeters>
            <DistanceMeters>NAN</DistanceMeters>
          </Trackpoint>
          <Trackpoint>
            <Time>2022-06-16T10:52:01.000Z</Time>
            <Position>
              <LatitudeDegrees>36.83653232641518115997314453125</LatitudeDegrees>
              <LongitudeDegrees>-4.39210946671664714813232421875</LongitudeDegrees>
            </Position>
            <AltitudeMeters>735.20001220703125</AltitudeMeters>
            <DistanceMeters>NAN</DistanceMeters>
          </Trackpoint>
          <Trackpoint>
            <Time>2022-06-16T10:52:06.000Z</Time>
            <Position>
              <LatitudeDegrees>36.8366075120866298675537109375</LatitudeDegrees>
              <LongitudeDegrees>-4.3921472690999507904052734375</LongitudeDegrees>
            </Position>
            <AltitudeMeters>733.4000244140625</AltitudeMeters>
            <DistanceMeters>NAN</DistanceMeters>
          </Trackpoint>
          <Trackpoint>
            <Time>2022-06-16T10:52:10.000Z</Time>
            <Position>
              <LatitudeDegrees>36.83666937053203582763671875</LatitudeDegrees>
              <LongitudeDegrees>-4.39216294325888156890869140625</LongitudeDegrees>
            </Position>
            <AltitudeMeters>732</AltitudeMeters>
            <DistanceMeters>NAN</DistanceMeters>
          </Trackpoint>
          <Trackpoint>
            <Time>2022-06-16T10:52:20.000Z</Time>
            <Position>
              <LatitudeDegrees>36.83678680099546909332275390625</LatitudeDegrees>
              <LongitudeDegrees>-4.392224885523319244384765625</LongitudeDegrees>
            </Position>
            <AltitudeMeters>728.5999755859375</AltitudeMeters>
            <DistanceMeters>NAN</DistanceMeters>
          </Trackpoint>
          <Trackpoint>
            <Time>2022-06-16T10:52:30.000Z</Time>
            <Position>
              <LatitudeDegrees>36.8368519283831119537353515625</LatitudeDegrees>
              <LongitudeDegrees>-4.39237483777105808258056640625</LongitudeDegrees>
            </Position>
            <AltitudeMeters>723</AltitudeMeters>
            <DistanceMeters>NAN</DistanceMeters>
          </Trackpoint>
          <Trackpoint>
            <Time>2022-06-16T10:52:31.000Z</Time>
            <Position>
              <LatitudeDegrees>36.83686525560915470123291015625</LatitudeDegrees>
              <LongitudeDegrees>-4.3923722393810749053955078125</LongitudeDegrees>
            </Position>
            <AltitudeMeters>723</AltitudeMeters>
            <DistanceMeters>NAN</DistanceMeters>
          </Trackpoint>
          <Trackpoint>
            <Time>2022-06-16T10:52:38.000Z</Time>
            <Position>
              <LatitudeDegrees>36.83694588951766490936279296875</LatitudeDegrees>
              <LongitudeDegrees>-4.39238078892230987548828125</LongitudeDegrees>
            </Position>
            <AltitudeMeters>720.79998779296875</AltitudeMeters>
            <DistanceMeters>NAN</DistanceMeters>
          </Trackpoint>
          <Trackpoint>
            <Time>2022-06-16T10:52:39.000Z</Time>
            <Position>
              <LatitudeDegrees>36.8369602225720882415771484375</LatitudeDegrees>
              <LongitudeDegrees>-4.39238347113132476806640625</LongitudeDegrees>
            </Position>
            <AltitudeMeters>720.4000244140625</AltitudeMeters>
            <DistanceMeters>NAN</DistanceMeters>
          </Trackpoint>
          <Trackpoint>
            <Time>2022-06-16T10:52:40.000Z</Time>
            <Position>
              <LatitudeDegrees>36.83697589673101902008056640625</LatitudeDegrees>
              <LongitudeDegrees>-4.39238774590194225311279296875</LongitudeDegrees>
            </Position>
            <AltitudeMeters>720</AltitudeMeters>
            <DistanceMeters>NAN</DistanceMeters>
          </Trackpoint>
          <Trackpoint>
            <Time>2022-06-16T10:52:42.000Z</Time>
            <Position>
              <LatitudeDegrees>36.8370014615356922149658203125</LatitudeDegrees>
              <LongitudeDegrees>-4.392393529415130615234375</LongitudeDegrees>
            </Position>
            <AltitudeMeters>719</AltitudeMeters>
            <DistanceMeters>NAN</DistanceMeters>
          </Trackpoint>
          <Trackpoint>
            <Time>2022-06-16T10:52:45.000Z</Time>
            <Position>
              <LatitudeDegrees>36.83703440241515636444091796875</LatitudeDegrees>
              <LongitudeDegrees>-4.39240216277539730072021484375</LongitudeDegrees>
            </Position>
            <AltitudeMeters>718</AltitudeMeters>
            <DistanceMeters>NAN</DistanceMeters>
          </Trackpoint>
          <Trackpoint>
            <Time>2022-06-16T10:52:50.000Z</Time>
            <Position>
              <LatitudeDegrees>36.8370849452912807464599609375</LatitudeDegrees>
              <LongitudeDegrees>-4.3924208544194698333740234375</LongitudeDegrees>
            </Position>
            <AltitudeMeters>716.20001220703125</AltitudeMeters>
            <DistanceMeters>NAN</DistanceMeters>
          </Trackpoint>
          <Trackpoint>
            <Time>2022-06-16T10:53:00.000Z</Time>
            <Position>
              <LatitudeDegrees>36.8372173793613910675048828125</LatitudeDegrees>
              <LongitudeDegrees>-4.39243887551128864288330078125</LongitudeDegrees>
            </Position>
            <AltitudeMeters>712.5999755859375</AltitudeMeters>
            <DistanceMeters>NAN</DistanceMeters>
          </Trackpoint>
          <Trackpoint>
            <Time>2022-06-16T10:53:10.000Z</Time>
            <Position>
              <LatitudeDegrees>36.8374118395149707794189453125</LatitudeDegrees>
              <LongitudeDegrees>-4.39241339452564716339111328125</LongitudeDegrees>
            </Position>
            <AltitudeMeters>709.4000244140625</AltitudeMeters>
            <DistanceMeters>NAN</DistanceMeters>
          </Trackpoint>
          <Trackpoint>
            <Time>2022-06-16T10:53:20.000Z</Time>
            <Position>
              <LatitudeDegrees>36.83755156584084033966064453125</LatitudeDegrees>
              <LongitudeDegrees>-4.39235438592731952667236328125</LongitudeDegrees>
            </Position>
            <AltitudeMeters>709</AltitudeMeters>
            <DistanceMeters>NAN</DistanceMeters>
          </Trackpoint>
          <Trackpoint>
            <Time>2022-06-16T10:53:21.000Z</Time>
            <Position>
              <LatitudeDegrees>36.83756212703883647918701171875</LatitudeDegrees>
              <LongitudeDegrees>-4.39234231598675251007080078125</LongitudeDegrees>
            </Position>
            <AltitudeMeters>709.20001220703125</AltitudeMeters>
            <DistanceMeters>NAN</DistanceMeters>
          </Trackpoint>
          <Trackpoint>
            <Time>2022-06-16T10:53:22.000Z</Time>
            <Position>
              <LatitudeDegrees>36.837573945522308349609375</LatitudeDegrees>
              <LongitudeDegrees>-4.3923336826264858245849609375</LongitudeDegrees>
            </Position>
            <AltitudeMeters>709.20001220703125</AltitudeMeters>
            <DistanceMeters>NAN</DistanceMeters>
          </Trackpoint>
          <Trackpoint>
            <Time>2022-06-16T10:53:27.000Z</Time>
            <Position>
              <LatitudeDegrees>36.83763069100677967071533203125</LatitudeDegrees>
              <LongitudeDegrees>-4.39228062517940998077392578125</LongitudeDegrees>
            </Position>
            <AltitudeMeters>709</AltitudeMeters>
            <DistanceMeters>NAN</DistanceMeters>
          </Trackpoint>
          <Trackpoint>
            <Time>2022-06-16T10:53:30.000Z</Time>
            <Position>
              <LatitudeDegrees>36.8376656435430049896240234375</LatitudeDegrees>
              <LongitudeDegrees>-4.392247013747692108154296875</LongitudeDegrees>
            </Position>
            <AltitudeMeters>708.4000244140625</AltitudeMeters>
            <DistanceMeters>NAN</DistanceMeters>
          </Trackpoint>
          <Trackpoint>
            <Time>2022-06-16T10:53:40.000Z</Time>
            <Position>
              <LatitudeDegrees>36.83771719224750995635986328125</LatitudeDegrees>
              <LongitudeDegrees>-4.39209857024252414703369140625</LongitudeDegrees>
            </Position>
            <AltitudeMeters>709.4000244140625</AltitudeMeters>
            <DistanceMeters>NAN</DistanceMeters>
          </Trackpoint>
          <Trackpoint>
            <Time>2022-06-16T10:53:46.000Z</Time>
            <Position>
              <LatitudeDegrees>36.83774451725184917449951171875</LatitudeDegrees>
              <LongitudeDegrees>-4.391987510025501251220703125</LongitudeDegrees>
            </Position>
            <AltitudeMeters>710.4000244140625</AltitudeMeters>
            <DistanceMeters>NAN</DistanceMeters>
          </Trackpoint>
          <Trackpoint>
            <Time>2022-06-16T10:53:50.000Z</Time>
            <Position>
              <LatitudeDegrees>36.8377467803657054901123046875</LatitudeDegrees>
              <LongitudeDegrees>-4.3919152580201625823974609375</LongitudeDegrees>
            </Position>
            <AltitudeMeters>712.20001220703125</AltitudeMeters>
            <DistanceMeters>NAN</DistanceMeters>
          </Trackpoint>
          <Trackpoint>
            <Time>2022-06-16T10:54:00.000Z</Time>
            <Position>
              <LatitudeDegrees>36.83774099685251712799072265625</LatitudeDegrees>
              <LongitudeDegrees>-4.391735382378101348876953125</LongitudeDegrees>
            </Position>
            <AltitudeMeters>713.20001220703125</AltitudeMeters>
            <DistanceMeters>NAN</DistanceMeters>
          </Trackpoint>
          <Trackpoint>
            <Time>2022-06-16T10:54:10.000Z</Time>
            <Position>
              <LatitudeDegrees>36.837783157825469970703125</LatitudeDegrees>
              <LongitudeDegrees>-4.39156749285757541656494140625</LongitudeDegrees>
            </Position>
            <AltitudeMeters>712.20001220703125</AltitudeMeters>
            <DistanceMeters>NAN</DistanceMeters>
          </Trackpoint>
          <Trackpoint>
            <Time>2022-06-16T10:54:20.000Z</Time>
            <Position>
              <LatitudeDegrees>36.8378195352852344512939453125</LatitudeDegrees>
              <LongitudeDegrees>-4.39139096997678279876708984375</LongitudeDegrees>
            </Position>
            <AltitudeMeters>711.79998779296875</AltitudeMeters>
            <DistanceMeters>NAN</DistanceMeters>
          </Trackpoint>
          <Trackpoint>
            <Time>2022-06-16T10:54:30.000Z</Time>
            <Position>
              <LatitudeDegrees>36.8378113210201263427734375</LatitudeDegrees>
              <LongitudeDegrees>-4.391219057142734527587890625</LongitudeDegrees>
            </Position>
            <AltitudeMeters>714</AltitudeMeters>
            <DistanceMeters>NAN</DistanceMeters>
          </Trackpoint>
          <Trackpoint>
            <Time>2022-06-16T10:54:32.000Z</Time>
            <Position>
              <LatitudeDegrees>36.83780453167855739593505859375</LatitudeDegrees>
              <LongitudeDegrees>-4.3911870382726192474365234375</LongitudeDegrees>
            </Position>
            <AltitudeMeters>714.79998779296875</AltitudeMeters>
            <DistanceMeters>NAN</DistanceMeters>
          </Trackpoint>
          <Trackpoint>
            <Time>2022-06-16T10:54:40.000Z</Time>
            <Position>
              <LatitudeDegrees>36.8378138355910778045654296875</LatitudeDegrees>
              <LongitudeDegrees>-4.39106575213372707366943359375</LongitudeDegrees>
            </Position>
            <AltitudeMeters>715</AltitudeMeters>
            <DistanceMeters>NAN</DistanceMeters>
          </Trackpoint>
          <Trackpoint>
            <Time>2022-06-16T10:54:46.000Z</Time>
            <Position>
              <LatitudeDegrees>36.83785499073565006256103515625</LatitudeDegrees>
              <LongitudeDegrees>-4.39101076684892177581787109375</LongitudeDegrees>
            </Position>
            <AltitudeMeters>714.20001220703125</AltitudeMeters>
            <DistanceMeters>NAN</DistanceMeters>
          </Trackpoint>
          <Trackpoint>
            <Time>2022-06-16T10:54:50.000Z</Time>
            <Position>
              <LatitudeDegrees>36.83790343813598155975341796875</LatitudeDegrees>
              <LongitudeDegrees>-4.39101562835276126861572265625</LongitudeDegrees>
            </Position>
            <AltitudeMeters>712.20001220703125</AltitudeMeters>
            <DistanceMeters>NAN</DistanceMeters>
          </Trackpoint>
          <Trackpoint>
            <Time>2022-06-16T10:55:00.000Z</Time>
            <Position>
              <LatitudeDegrees>36.83803687803447246551513671875</LatitudeDegrees>
              <LongitudeDegrees>-4.3910556100308895111083984375</LongitudeDegrees>
            </Position>
            <AltitudeMeters>705.4000244140625</AltitudeMeters>
            <DistanceMeters>NAN</DistanceMeters>
          </Trackpoint>
          <Trackpoint>
            <Time>2022-06-16T10:55:02.000Z</Time>
            <Position>
              <LatitudeDegrees>36.83805942535400390625</LatitudeDegrees>
              <LongitudeDegrees>-4.39105569384992122650146484375</LongitudeDegrees>
            </Position>
            <AltitudeMeters>704.5999755859375</AltitudeMeters>
            <DistanceMeters>NAN</DistanceMeters>
          </Trackpoint>
          <Trackpoint>
            <Time>2022-06-16T10:55:10.000Z</Time>
            <Position>
              <LatitudeDegrees>36.8381414003670215606689453125</LatitudeDegrees>
              <LongitudeDegrees>-4.39100976102054119110107421875</LongitudeDegrees>
            </Position>
            <AltitudeMeters>702.20001220703125</AltitudeMeters>
            <DistanceMeters>NAN</DistanceMeters>
          </Trackpoint>
          <Trackpoint>
            <Time>2022-06-16T10:55:17.000Z</Time>
            <Position>
              <LatitudeDegrees>36.8382168374955654144287109375</LatitudeDegrees>
              <LongitudeDegrees>-4.39095846377313137054443359375</LongitudeDegrees>
            </Position>
            <AltitudeMeters>700.4000244140625</AltitudeMeters>
            <DistanceMeters>NAN</DistanceMeters>
          </Trackpoint>
          <Trackpoint>
            <Time>2022-06-16T10:55:20.000Z</Time>
            <Position>
              <LatitudeDegrees>36.838252879679203033447265625</LatitudeDegrees>
              <LongitudeDegrees>-4.39092342741787433624267578125</LongitudeDegrees>
            </Position>
            <AltitudeMeters>699.79998779296875</AltitudeMeters>
            <DistanceMeters>NAN</DistanceMeters>
          </Trackpoint>
          <Trackpoint>
            <Time>2022-06-16T10:55:30.000Z</Time>
            <Position>
              <LatitudeDegrees>36.83834516443312168121337890625</LatitudeDegrees>
              <LongitudeDegrees>-4.3908038176596164703369140625</LongitudeDegrees>
            </Position>
            <AltitudeMeters>699.20001220703125</AltitudeMeters>
            <DistanceMeters>NAN</DistanceMeters>
          </Trackpoint>
          <Trackpoint>
            <Time>2022-06-16T10:55:40.000Z</Time>
            <Position>
              <LatitudeDegrees>36.83843568898737430572509765625</LatitudeDegrees>
              <LongitudeDegrees>-4.39067398197948932647705078125</LongitudeDegrees>
            </Position>
            <AltitudeMeters>700.20001220703125</AltitudeMeters>
            <DistanceMeters>NAN</DistanceMeters>
          </Trackpoint>
          <Trackpoint>
            <Time>2022-06-16T10:55:50.000Z</Time>
            <Position>
              <LatitudeDegrees>36.83853459544479846954345703125</LatitudeDegrees>
              <LongitudeDegrees>-4.39056493341922760009765625</LongitudeDegrees>
            </Position>
            <AltitudeMeters>699.5999755859375</AltitudeMeters>
            <DistanceMeters>NAN</DistanceMeters>
          </Trackpoint>
          <Trackpoint>
            <Time>2022-06-16T10:56:00.000Z</Time>
            <Position>
              <LatitudeDegrees>36.8386419676244258880615234375</LatitudeDegrees>
              <LongitudeDegrees>-4.39044632948935031890869140625</LongitudeDegrees>
            </Position>
            <AltitudeMeters>698.20001220703125</AltitudeMeters>
            <DistanceMeters>NAN</DistanceMeters>
          </Trackpoint>
          <Trackpoint>
            <Time>2022-06-16T10:56:10.000Z</Time>
            <Position>
              <LatitudeDegrees>36.838684044778347015380859375</LatitudeDegrees>
              <LongitudeDegrees>-4.39028740860521793365478515625</LongitudeDegrees>
            </Position>
            <AltitudeMeters>700.79998779296875</AltitudeMeters>
            <DistanceMeters>NAN</DistanceMeters>
          </Trackpoint>
          <Trackpoint>
            <Time>2022-06-16T10:56:20.000Z</Time>
            <Position>
              <LatitudeDegrees>36.83870793320238590240478515625</LatitudeDegrees>
              <LongitudeDegrees>-4.3901138193905353546142578125</LongitudeDegrees>
            </Position>
            <AltitudeMeters>703.5999755859375</AltitudeMeters>
            <DistanceMeters>NAN</DistanceMeters>
          </Trackpoint>
          <Trackpoint>
            <Time>2022-06-16T10:56:30.000Z</Time>
            <Position>
              <LatitudeDegrees>36.83875520713627338409423828125</LatitudeDegrees>
              <LongitudeDegrees>-4.38995045609772205352783203125</LongitudeDegrees>
            </Position>
            <AltitudeMeters>703.79998779296875</AltitudeMeters>
            <DistanceMeters>NAN</DistanceMeters>
          </Trackpoint>
          <Trackpoint>
            <Time>2022-06-16T10:56:32.000Z</Time>
            <Position>
              <LatitudeDegrees>36.83877381496131420135498046875</LatitudeDegrees>
              <LongitudeDegrees>-4.389921538531780242919921875</LongitudeDegrees>
            </Position>
            <AltitudeMeters>702.79998779296875</AltitudeMeters>
            <DistanceMeters>NAN</DistanceMeters>
          </Trackpoint>
          <Trackpoint>
            <Time>2022-06-16T10:56:40.000Z</Time>
            <Position>
              <LatitudeDegrees>36.838838271796703338623046875</LatitudeDegrees>
              <LongitudeDegrees>-4.38982003368437290191650390625</LongitudeDegrees>
            </Position>
            <AltitudeMeters>699.5999755859375</AltitudeMeters>
            <DistanceMeters>NAN</DistanceMeters>
          </Trackpoint>
          <Trackpoint>
            <Time>2022-06-16T10:56:50.000Z</Time>
            <Position>
              <LatitudeDegrees>36.83895905502140522003173828125</LatitudeDegrees>
              <LongitudeDegrees>-4.3897708319127559661865234375</LongitudeDegrees>
            </Position>
            <AltitudeMeters>691.79998779296875</AltitudeMeters>
            <DistanceMeters>NAN</DistanceMeters>
          </Trackpoint>
          <Trackpoint>
            <Time>2022-06-16T10:57:00.000Z</Time>
            <Position>
              <LatitudeDegrees>36.8390315584838390350341796875</LatitudeDegrees>
              <LongitudeDegrees>-4.3896777927875518798828125</LongitudeDegrees>
            </Position>
            <AltitudeMeters>689.79998779296875</AltitudeMeters>
            <DistanceMeters>NAN</DistanceMeters>
          </Trackpoint>
          <Trackpoint>
            <Time>2022-06-16T10:57:10.000Z</Time>
            <Position>
              <LatitudeDegrees>36.83907623402774333953857421875</LatitudeDegrees>
              <LongitudeDegrees>-4.38952448777854442596435546875</LongitudeDegrees>
            </Position>
            <AltitudeMeters>693.5999755859375</AltitudeMeters>
            <DistanceMeters>NAN</DistanceMeters>
          </Trackpoint>
          <Trackpoint>
            <Time>2022-06-16T10:57:17.000Z</Time>
            <Position>
              <LatitudeDegrees>36.839102469384670257568359375</LatitudeDegrees>
              <LongitudeDegrees>-4.3894707597792148590087890625</LongitudeDegrees>
            </Position>
            <AltitudeMeters>694.5999755859375</AltitudeMeters>
            <DistanceMeters>NAN</DistanceMeters>
          </Trackpoint>
          <Trackpoint>
            <Time>2022-06-16T10:57:20.000Z</Time>
            <Position>
              <LatitudeDegrees>36.83914530090987682342529296875</LatitudeDegrees>
              <LongitudeDegrees>-4.38947503454983234405517578125</LongitudeDegrees>
            </Position>
            <AltitudeMeters>692.20001220703125</AltitudeMeters>
            <DistanceMeters>NAN</DistanceMeters>
          </Trackpoint>
          <Trackpoint>
            <Time>2022-06-16T10:57:30.000Z</Time>
            <Position>
              <LatitudeDegrees>36.83927019126713275909423828125</LatitudeDegrees>
              <LongitudeDegrees>-4.3894620425999164581298828125</LongitudeDegrees>
            </Position>
            <AltitudeMeters>687.5999755859375</AltitudeMeters>
            <DistanceMeters>NAN</DistanceMeters>
          </Trackpoint>
          <Trackpoint>
            <Time>2022-06-16T10:57:31.000Z</Time>
            <Position>
              <LatitudeDegrees>36.83928309939801692962646484375</LatitudeDegrees>
              <LongitudeDegrees>-4.38945181667804718017578125</LongitudeDegrees>
            </Position>
            <AltitudeMeters>687.4000244140625</AltitudeMeters>
            <DistanceMeters>NAN</DistanceMeters>
          </Trackpoint>
          <Trackpoint>
            <Time>2022-06-16T10:57:40.000Z</Time>
            <Position>
              <LatitudeDegrees>36.83939172886312007904052734375</LatitudeDegrees>
              <LongitudeDegrees>-4.38932617194950580596923828125</LongitudeDegrees>
            </Position>
            <AltitudeMeters>687.20001220703125</AltitudeMeters>
            <DistanceMeters>NAN</DistanceMeters>
          </Trackpoint>
          <Trackpoint>
            <Time>2022-06-16T10:57:50.000Z</Time>
            <Position>
              <LatitudeDegrees>36.83951343409717082977294921875</LatitudeDegrees>
              <LongitudeDegrees>-4.38920262269675731658935546875</LongitudeDegrees>
            </Position>
            <AltitudeMeters>686.4000244140625</AltitudeMeters>
            <DistanceMeters>NAN</DistanceMeters>
          </Trackpoint>
          <Trackpoint>
            <Time>2022-06-16T10:58:00.000Z</Time>
            <Position>
              <LatitudeDegrees>36.8395656533539295196533203125</LatitudeDegrees>
              <LongitudeDegrees>-4.3890248425304889678955078125</LongitudeDegrees>
            </Position>
            <AltitudeMeters>687</AltitudeMeters>
            <DistanceMeters>NAN</DistanceMeters>
          </Trackpoint>
          <Trackpoint>
            <Time>2022-06-16T10:58:10.000Z</Time>
            <Position>
              <LatitudeDegrees>36.83957747183740139007568359375</LatitudeDegrees>
              <LongitudeDegrees>-4.388874135911464691162109375</LongitudeDegrees>
            </Position>
            <AltitudeMeters>688.20001220703125</AltitudeMeters>
            <DistanceMeters>NAN</DistanceMeters>
          </Trackpoint>
          <Trackpoint>
            <Time>2022-06-16T10:58:20.000Z</Time>
            <Position>
              <LatitudeDegrees>36.83957395143806934356689453125</LatitudeDegrees>
              <LongitudeDegrees>-4.3887234292924404144287109375</LongitudeDegrees>
            </Position>
            <AltitudeMeters>688.4000244140625</AltitudeMeters>
            <DistanceMeters>NAN</DistanceMeters>
          </Trackpoint>
          <Trackpoint>
            <Time>2022-06-16T10:58:30.000Z</Time>
            <Position>
              <LatitudeDegrees>36.83952399529516696929931640625</LatitudeDegrees>
              <LongitudeDegrees>-4.38857951201498508453369140625</LongitudeDegrees>
            </Position>
            <AltitudeMeters>692.20001220703125</AltitudeMeters>
            <DistanceMeters>NAN</DistanceMeters>
          </Trackpoint>
          <Trackpoint>
            <Time>2022-06-16T10:58:40.000Z</Time>
            <Position>
              <LatitudeDegrees>36.83948694728314876556396484375</LatitudeDegrees>
              <LongitudeDegrees>-4.38841137103736400604248046875</LongitudeDegrees>
            </Position>
            <AltitudeMeters>693.79998779296875</AltitudeMeters>
            <DistanceMeters>NAN</DistanceMeters>
          </Trackpoint>
          <Trackpoint>
            <Time>2022-06-16T10:58:50.000Z</Time>
            <Position>
              <LatitudeDegrees>36.8394959159195423126220703125</LatitudeDegrees>
              <LongitudeDegrees>-4.3882523663341999053955078125</LongitudeDegrees>
            </Position>
            <AltitudeMeters>691.4000244140625</AltitudeMeters>
            <DistanceMeters>NAN</DistanceMeters>
          </Trackpoint>
          <Trackpoint>
            <Time>2022-06-16T10:59:00.000Z</Time>
            <Position>
              <LatitudeDegrees>36.83952617458999156951904296875</LatitudeDegrees>
              <LongitudeDegrees>-4.3881169147789478302001953125</LongitudeDegrees>
            </Position>
            <AltitudeMeters>686</AltitudeMeters>
            <DistanceMeters>NAN</DistanceMeters>
          </Trackpoint>
          <Trackpoint>
            <Time>2022-06-16T10:59:10.000Z</Time>
            <Position>
              <LatitudeDegrees>36.83953170664608478546142578125</LatitudeDegrees>
              <LongitudeDegrees>-4.387967549264430999755859375</LongitudeDegrees>
            </Position>
            <AltitudeMeters>683.4000244140625</AltitudeMeters>
            <DistanceMeters>NAN</DistanceMeters>
          </Trackpoint>
          <Trackpoint>
            <Time>2022-06-16T10:59:20.000Z</Time>
            <Position>
              <LatitudeDegrees>36.839537657797336578369140625</LatitudeDegrees>
              <LongitudeDegrees>-4.38779027201235294342041015625</LongitudeDegrees>
            </Position>
            <AltitudeMeters>682.20001220703125</AltitudeMeters>
            <DistanceMeters>NAN</DistanceMeters>
          </Trackpoint>
          <Trackpoint>
            <Time>2022-06-16T10:59:30.000Z</Time>
            <Position>
              <LatitudeDegrees>36.83956640772521495819091796875</LatitudeDegrees>
              <LongitudeDegrees>-4.38762011937797069549560546875</LongitudeDegrees>
            </Position>
            <AltitudeMeters>681</AltitudeMeters>
            <DistanceMeters>NAN</DistanceMeters>
          </Trackpoint>
          <Trackpoint>
            <Time>2022-06-16T10:59:40.000Z</Time>
            <Position>
              <LatitudeDegrees>36.839575208723545074462890625</LatitudeDegrees>
              <LongitudeDegrees>-4.38744661398231983184814453125</LongitudeDegrees>
            </Position>
            <AltitudeMeters>681.5999755859375</AltitudeMeters>
            <DistanceMeters>NAN</DistanceMeters>
          </Trackpoint>
          <Trackpoint>
            <Time>2022-06-16T10:59:50.000Z</Time>
            <Position>
              <LatitudeDegrees>36.83962860144674777984619140625</LatitudeDegrees>
              <LongitudeDegrees>-4.38730646856129169464111328125</LongitudeDegrees>
            </Position>
            <AltitudeMeters>678.20001220703125</AltitudeMeters>
            <DistanceMeters>NAN</DistanceMeters>
          </Trackpoint>
          <Trackpoint>
            <Time>2022-06-16T11:00:00.000Z</Time>
            <Position>
              <LatitudeDegrees>36.83969020843505859375</LatitudeDegrees>
              <LongitudeDegrees>-4.3871757946908473968505859375</LongitudeDegrees>
            </Position>
            <AltitudeMeters>674.4000244140625</AltitudeMeters>
            <DistanceMeters>NAN</DistanceMeters>
          </Trackpoint>
          <Trackpoint>
            <Time>2022-06-16T11:00:10.000Z</Time>
            <Position>
              <LatitudeDegrees>36.8396387435495853424072265625</LatitudeDegrees>
              <LongitudeDegrees>-4.38701477833092212677001953125</LongitudeDegrees>
            </Position>
            <AltitudeMeters>678.79998779296875</AltitudeMeters>
            <DistanceMeters>NAN</DistanceMeters>
          </Trackpoint>
          <Trackpoint>
            <Time>2022-06-16T11:00:20.000Z</Time>
            <Position>
              <LatitudeDegrees>36.83957864530384540557861328125</LatitudeDegrees>
              <LongitudeDegrees>-4.386927522718906402587890625</LongitudeDegrees>
            </Position>
            <AltitudeMeters>682.5999755859375</AltitudeMeters>
            <DistanceMeters>NAN</DistanceMeters>
          </Trackpoint>
          <Trackpoint>
            <Time>2022-06-16T11:00:21.000Z</Time>
            <Position>
              <LatitudeDegrees>36.8395788967609405517578125</LatitudeDegrees>
              <LongitudeDegrees>-4.38691436313092708587646484375</LongitudeDegrees>
            </Position>
            <AltitudeMeters>682.5999755859375</AltitudeMeters>
            <DistanceMeters>NAN</DistanceMeters>
          </Trackpoint>
          <Trackpoint>
            <Time>2022-06-16T11:00:30.000Z</Time>
            <Position>
              <LatitudeDegrees>36.83957730419933795928955078125</LatitudeDegrees>
              <LongitudeDegrees>-4.38675745390355587005615234375</LongitudeDegrees>
            </Position>
            <AltitudeMeters>683.4000244140625</AltitudeMeters>
            <DistanceMeters>NAN</DistanceMeters>
          </Trackpoint>
          <Trackpoint>
            <Time>2022-06-16T11:00:40.000Z</Time>
            <Position>
              <LatitudeDegrees>36.83958501555025577545166015625</LatitudeDegrees>
              <LongitudeDegrees>-4.3865870498120784759521484375</LongitudeDegrees>
            </Position>
            <AltitudeMeters>683.79998779296875</AltitudeMeters>
            <DistanceMeters>NAN</DistanceMeters>
          </Trackpoint>
          <Trackpoint>
            <Time>2022-06-16T11:00:50.000Z</Time>
            <Position>
              <LatitudeDegrees>36.8396142683923244476318359375</LatitudeDegrees>
              <LongitudeDegrees>-4.38646785914897918701171875</LongitudeDegrees>
            </Position>
            <AltitudeMeters>684.4000244140625</AltitudeMeters>
            <DistanceMeters>NAN</DistanceMeters>
          </Trackpoint>
          <Trackpoint>
            <Time>2022-06-16T11:00:53.000Z</Time>
            <Position>
              <LatitudeDegrees>36.8396541662514209747314453125</LatitudeDegrees>
              <LongitudeDegrees>-4.3864616565406322479248046875</LongitudeDegrees>
            </Position>
            <AltitudeMeters>682.79998779296875</AltitudeMeters>
            <DistanceMeters>NAN</DistanceMeters>
          </Trackpoint>
          <Trackpoint>
            <Time>2022-06-16T11:00:57.000Z</Time>
            <Position>
              <LatitudeDegrees>36.8397255800664424896240234375</LatitudeDegrees>
              <LongitudeDegrees>-4.38646517693996429443359375</LongitudeDegrees>
            </Position>
            <AltitudeMeters>679.4000244140625</AltitudeMeters>
            <DistanceMeters>NAN</DistanceMeters>
          </Trackpoint>
          <Trackpoint>
            <Time>2022-06-16T11:01:00.000Z</Time>
            <Position>
              <LatitudeDegrees>36.83977402746677398681640625</LatitudeDegrees>
              <LongitudeDegrees>-4.3864743970334529876708984375</LongitudeDegrees>
            </Position>
            <AltitudeMeters>677.20001220703125</AltitudeMeters>
            <DistanceMeters>NAN</DistanceMeters>
          </Trackpoint>
          <Trackpoint>
            <Time>2022-06-16T11:01:10.000Z</Time>
            <Position>
              <LatitudeDegrees>36.83992364443838596343994140625</LatitudeDegrees>
              <LongitudeDegrees>-4.38651136122643947601318359375</LongitudeDegrees>
            </Position>
            <AltitudeMeters>672</AltitudeMeters>
            <DistanceMeters>NAN</DistanceMeters>
          </Trackpoint>
          <Trackpoint>
            <Time>2022-06-16T11:01:20.000Z</Time>
            <Position>
              <LatitudeDegrees>36.84004065580666065216064453125</LatitudeDegrees>
              <LongitudeDegrees>-4.38648152165114879608154296875</LongitudeDegrees>
            </Position>
            <AltitudeMeters>669</AltitudeMeters>
            <DistanceMeters>NAN</DistanceMeters>
          </Trackpoint>
          <Trackpoint>
            <Time>2022-06-16T11:01:22.000Z</Time>
            <Position>
              <LatitudeDegrees>36.84007401578128337860107421875</LatitudeDegrees>
              <LongitudeDegrees>-4.3864633329212665557861328125</LongitudeDegrees>
            </Position>
            <AltitudeMeters>668.4000244140625</AltitudeMeters>
            <DistanceMeters>NAN</DistanceMeters>
          </Trackpoint>
          <Trackpoint>
            <Time>2022-06-16T11:01:30.000Z</Time>
            <Position>
              <LatitudeDegrees>36.84014174155890941619873046875</LatitudeDegrees>
              <LongitudeDegrees>-4.38641111366450786590576171875</LongitudeDegrees>
            </Position>
            <AltitudeMeters>668.20001220703125</AltitudeMeters>
            <DistanceMeters>NAN</DistanceMeters>
          </Trackpoint>
          <Trackpoint>
            <Time>2022-06-16T11:01:40.000Z</Time>
            <Position>
              <LatitudeDegrees>36.8402360379695892333984375</LatitudeDegrees>
              <LongitudeDegrees>-4.38637121580541133880615234375</LongitudeDegrees>
            </Position>
            <AltitudeMeters>667.5999755859375</AltitudeMeters>
            <DistanceMeters>NAN</DistanceMeters>
          </Trackpoint>
          <Trackpoint>
            <Time>2022-06-16T11:01:50.000Z</Time>
            <Position>
              <LatitudeDegrees>36.84031507931649684906005859375</LatitudeDegrees>
              <LongitudeDegrees>-4.38636065460741519927978515625</LongitudeDegrees>
            </Position>
            <AltitudeMeters>666.79998779296875</AltitudeMeters>
            <DistanceMeters>NAN</DistanceMeters>
          </Trackpoint>
          <Trackpoint>
            <Time>2022-06-16T11:02:00.000Z</Time>
            <Position>
              <LatitudeDegrees>36.84037006460130214691162109375</LatitudeDegrees>
              <LongitudeDegrees>-4.386365599930286407470703125</LongitudeDegrees>
            </Position>
            <AltitudeMeters>665.79998779296875</AltitudeMeters>
            <DistanceMeters>NAN</DistanceMeters>
          </Trackpoint>
          <Trackpoint>
            <Time>2022-06-16T11:02:10.000Z</Time>
            <Position>
              <LatitudeDegrees>36.84041381813585758209228515625</LatitudeDegrees>
              <LongitudeDegrees>-4.38636417500674724578857421875</LongitudeDegrees>
            </Position>
            <AltitudeMeters>665</AltitudeMeters>
            <DistanceMeters>NAN</DistanceMeters>
          </Trackpoint>
          <Trackpoint>
            <Time>2022-06-16T11:02:20.000Z</Time>
            <Position>
              <LatitudeDegrees>36.84046762995421886444091796875</LatitudeDegrees>
              <LongitudeDegrees>-4.38629024662077426910400390625</LongitudeDegrees>
            </Position>
            <AltitudeMeters>666.5999755859375</AltitudeMeters>
            <DistanceMeters>NAN</DistanceMeters>
          </Trackpoint>
          <Trackpoint>
            <Time>2022-06-16T11:02:30.000Z</Time>
            <Position>
              <LatitudeDegrees>36.8405057676136493682861328125</LatitudeDegrees>
              <LongitudeDegrees>-4.3862561322748661041259765625</LongitudeDegrees>
            </Position>
            <AltitudeMeters>667.20001220703125</AltitudeMeters>
            <DistanceMeters>NAN</DistanceMeters>
          </Trackpoint>
          <Trackpoint>
            <Time>2022-06-16T11:02:40.000Z</Time>
            <Position>
              <LatitudeDegrees>36.8406016565859317779541015625</LatitudeDegrees>
              <LongitudeDegrees>-4.3861984647810459136962890625</LongitudeDegrees>
            </Position>
            <AltitudeMeters>667.5999755859375</AltitudeMeters>
            <DistanceMeters>NAN</DistanceMeters>
          </Trackpoint>
          <Trackpoint>
            <Time>2022-06-16T11:02:43.000Z</Time>
            <Position>
              <LatitudeDegrees>36.840623952448368072509765625</LatitudeDegrees>
              <LongitudeDegrees>-4.38618195243179798126220703125</LongitudeDegrees>
            </Position>
            <AltitudeMeters>667.79998779296875</AltitudeMeters>
            <DistanceMeters>NAN</DistanceMeters>
          </Trackpoint>
          <Trackpoint>
            <Time>2022-06-16T11:02:46.000Z</Time>
            <Position>
              <LatitudeDegrees>36.84063694439828395843505859375</LatitudeDegrees>
              <LongitudeDegrees>-4.38617357052862644195556640625</LongitudeDegrees>
            </Position>
            <AltitudeMeters>667.79998779296875</AltitudeMeters>
            <DistanceMeters>NAN</DistanceMeters>
          </Trackpoint>
          <Trackpoint>
            <Time>2022-06-16T11:02:50.000Z</Time>
            <Position>
              <LatitudeDegrees>36.8406583182513713836669921875</LatitudeDegrees>
              <LongitudeDegrees>-4.3861709721386432647705078125</LongitudeDegrees>
            </Position>
            <AltitudeMeters>667.4000244140625</AltitudeMeters>
            <DistanceMeters>NAN</DistanceMeters>
          </Trackpoint>
          <Trackpoint>
            <Time>2022-06-16T11:02:56.000Z</Time>
            <Position>
              <LatitudeDegrees>36.84069729410111904144287109375</LatitudeDegrees>
              <LongitudeDegrees>-4.3861461617052555084228515625</LongitudeDegrees>
            </Position>
            <AltitudeMeters>666.79998779296875</AltitudeMeters>
            <DistanceMeters>NAN</DistanceMeters>
          </Trackpoint>
          <Trackpoint>
            <Time>2022-06-16T11:02:58.000Z</Time>
            <Position>
              <LatitudeDegrees>36.84071489609777927398681640625</LatitudeDegrees>
              <LongitudeDegrees>-4.38612730242311954498291015625</LongitudeDegrees>
            </Position>
            <AltitudeMeters>666.79998779296875</AltitudeMeters>
            <DistanceMeters>NAN</DistanceMeters>
          </Trackpoint>
          <Trackpoint>
            <Time>2022-06-16T11:02:59.000Z</Time>
            <Position>
              <LatitudeDegrees>36.84072378091514110565185546875</LatitudeDegrees>
              <LongitudeDegrees>-4.3861173279583454132080078125</LongitudeDegrees>
            </Position>
            <AltitudeMeters>666.79998779296875</AltitudeMeters>
            <DistanceMeters>NAN</DistanceMeters>
          </Trackpoint>
          <Trackpoint>
            <Time>2022-06-16T11:03:00.000Z</Time>
            <Position>
              <LatitudeDegrees>36.840733587741851806640625</LatitudeDegrees>
              <LongitudeDegrees>-4.3861072696745395660400390625</LongitudeDegrees>
            </Position>
            <AltitudeMeters>666.5999755859375</AltitudeMeters>
            <DistanceMeters>NAN</DistanceMeters>
          </Trackpoint>
          <Trackpoint>
            <Time>2022-06-16T11:03:10.000Z</Time>
            <Position>
              <LatitudeDegrees>36.840800978243350982666015625</LatitudeDegrees>
              <LongitudeDegrees>-4.38598011620342731475830078125</LongitudeDegrees>
            </Position>
            <AltitudeMeters>665.79998779296875</AltitudeMeters>
            <DistanceMeters>NAN</DistanceMeters>
          </Trackpoint>
          <Trackpoint>
            <Time>2022-06-16T11:03:18.000Z</Time>
            <Position>
              <LatitudeDegrees>36.8408782593905925750732421875</LatitudeDegrees>
              <LongitudeDegrees>-4.385872073471546173095703125</LongitudeDegrees>
            </Position>
            <AltitudeMeters>663.4000244140625</AltitudeMeters>
            <DistanceMeters>NAN</DistanceMeters>
          </Trackpoint>
          <Trackpoint>
            <Time>2022-06-16T11:03:20.000Z</Time>
            <Position>
              <LatitudeDegrees>36.840892843902111053466796875</LatitudeDegrees>
              <LongitudeDegrees>-4.38584080897271633148193359375</LongitudeDegrees>
            </Position>
            <AltitudeMeters>663.20001220703125</AltitudeMeters>
            <DistanceMeters>NAN</DistanceMeters>
          </Trackpoint>
          <Trackpoint>
            <Time>2022-06-16T11:03:30.000Z</Time>
            <Position>
              <LatitudeDegrees>36.8409023992717266082763671875</LatitudeDegrees>
              <LongitudeDegrees>-4.38566043041646480560302734375</LongitudeDegrees>
            </Position>
            <AltitudeMeters>665.79998779296875</AltitudeMeters>
            <DistanceMeters>NAN</DistanceMeters>
          </Trackpoint>
          <Trackpoint>
            <Time>2022-06-16T11:03:40.000Z</Time>
            <Position>
              <LatitudeDegrees>36.84089913032948970794677734375</LatitudeDegrees>
              <LongitudeDegrees>-4.38548021949827671051025390625</LongitudeDegrees>
            </Position>
            <AltitudeMeters>669.20001220703125</AltitudeMeters>
            <DistanceMeters>NAN</DistanceMeters>
          </Trackpoint>
          <Trackpoint>
            <Time>2022-06-16T11:03:49.000Z</Time>
            <Position>
              <LatitudeDegrees>36.8409025669097900390625</LatitudeDegrees>
              <LongitudeDegrees>-4.385317862033843994140625</LongitudeDegrees>
            </Position>
            <AltitudeMeters>672</AltitudeMeters>
            <DistanceMeters>NAN</DistanceMeters>
          </Trackpoint>
          <Trackpoint>
            <Time>2022-06-16T11:03:50.000Z</Time>
            <Position>
              <LatitudeDegrees>36.84090667404234409332275390625</LatitudeDegrees>
              <LongitudeDegrees>-4.38530000858008861541748046875</LongitudeDegrees>
            </Position>
            <AltitudeMeters>672.20001220703125</AltitudeMeters>
            <DistanceMeters>NAN</DistanceMeters>
          </Trackpoint>
          <Trackpoint>
            <Time>2022-06-16T11:03:51.000Z</Time>
            <Position>
              <LatitudeDegrees>36.84090617112815380096435546875</LatitudeDegrees>
              <LongitudeDegrees>-4.38528223894536495208740234375</LongitudeDegrees>
            </Position>
            <AltitudeMeters>672.4000244140625</AltitudeMeters>
            <DistanceMeters>NAN</DistanceMeters>
          </Trackpoint>
          <Trackpoint>
            <Time>2022-06-16T11:03:54.000Z</Time>
            <Position>
              <LatitudeDegrees>36.84091086499392986297607421875</LatitudeDegrees>
              <LongitudeDegrees>-4.385239072144031524658203125</LongitudeDegrees>
            </Position>
            <AltitudeMeters>672.79998779296875</AltitudeMeters>
            <DistanceMeters>NAN</DistanceMeters>
          </Trackpoint>
          <Trackpoint>
            <Time>2022-06-16T11:04:00.000Z</Time>
            <Position>
              <LatitudeDegrees>36.8409295566380023956298828125</LatitudeDegrees>
              <LongitudeDegrees>-4.3851473741233348846435546875</LongitudeDegrees>
            </Position>
            <AltitudeMeters>671.79998779296875</AltitudeMeters>
            <DistanceMeters>NAN</DistanceMeters>
          </Trackpoint>
          <Trackpoint>
            <Time>2022-06-16T11:04:03.000Z</Time>
            <Position>
              <LatitudeDegrees>36.84093617834150791168212890625</LatitudeDegrees>
              <LongitudeDegrees>-4.38510236330330371856689453125</LongitudeDegrees>
            </Position>
            <AltitudeMeters>671.4000244140625</AltitudeMeters>
            <DistanceMeters>NAN</DistanceMeters>
          </Trackpoint>
          <Trackpoint>
            <Time>2022-06-16T11:04:07.000Z</Time>
            <Position>
              <LatitudeDegrees>36.84093567542731761932373046875</LatitudeDegrees>
              <LongitudeDegrees>-4.38503463752567768096923828125</LongitudeDegrees>
            </Position>
            <AltitudeMeters>671.4000244140625</AltitudeMeters>
            <DistanceMeters>NAN</DistanceMeters>
          </Trackpoint>
          <Trackpoint>
            <Time>2022-06-16T11:04:10.000Z</Time>
            <Position>
              <LatitudeDegrees>36.84094011783599853515625</LatitudeDegrees>
              <LongitudeDegrees>-4.38498216681182384490966796875</LongitudeDegrees>
            </Position>
            <AltitudeMeters>671</AltitudeMeters>
            <DistanceMeters>NAN</DistanceMeters>
          </Trackpoint>
          <Trackpoint>
            <Time>2022-06-16T11:04:11.000Z</Time>
            <Position>
              <LatitudeDegrees>36.8409456498920917510986328125</LatitudeDegrees>
              <LongitudeDegrees>-4.38496422953903675079345703125</LongitudeDegrees>
            </Position>
            <AltitudeMeters>670.5999755859375</AltitudeMeters>
            <DistanceMeters>NAN</DistanceMeters>
          </Trackpoint>
          <Trackpoint>
            <Time>2022-06-16T11:04:12.000Z</Time>
            <Position>
              <LatitudeDegrees>36.84095361270010471343994140625</LatitudeDegrees>
              <LongitudeDegrees>-4.3849472142755985260009765625</LongitudeDegrees>
            </Position>
            <AltitudeMeters>670</AltitudeMeters>
            <DistanceMeters>NAN</DistanceMeters>
          </Trackpoint>
          <Trackpoint>
            <Time>2022-06-16T11:04:15.000Z</Time>
            <Position>
              <LatitudeDegrees>36.84097104705870151519775390625</LatitudeDegrees>
              <LongitudeDegrees>-4.384896419942378997802734375</LongitudeDegrees>
            </Position>
            <AltitudeMeters>668.20001220703125</AltitudeMeters>
            <DistanceMeters>NAN</DistanceMeters>
          </Trackpoint>
          <Trackpoint>
            <Time>2022-06-16T11:04:16.000Z</Time>
            <Position>
              <LatitudeDegrees>36.84097674675285816192626953125</LatitudeDegrees>
              <LongitudeDegrees>-4.38488066196441650390625</LongitudeDegrees>
            </Position>
            <AltitudeMeters>667.79998779296875</AltitudeMeters>
            <DistanceMeters>NAN</DistanceMeters>
          </Trackpoint>
          <Trackpoint>
            <Time>2022-06-16T11:04:17.000Z</Time>
            <Position>
              <LatitudeDegrees>36.84098278172314167022705078125</LatitudeDegrees>
              <LongitudeDegrees>-4.3848633952438831329345703125</LongitudeDegrees>
            </Position>
            <AltitudeMeters>667.20001220703125</AltitudeMeters>
            <DistanceMeters>NAN</DistanceMeters>
          </Trackpoint>
          <Trackpoint>
            <Time>2022-06-16T11:04:18.000Z</Time>
            <Position>
              <LatitudeDegrees>36.84098479337990283966064453125</LatitudeDegrees>
              <LongitudeDegrees>-4.38484721817076206207275390625</LongitudeDegrees>
            </Position>
            <AltitudeMeters>666.79998779296875</AltitudeMeters>
            <DistanceMeters>NAN</DistanceMeters>
          </Trackpoint>
          <Trackpoint>
            <Time>2022-06-16T11:04:19.000Z</Time>
            <Position>
              <LatitudeDegrees>36.84098730795085430145263671875</LatitudeDegrees>
              <LongitudeDegrees>-4.38483028672635555267333984375</LongitudeDegrees>
            </Position>
            <AltitudeMeters>666.4000244140625</AltitudeMeters>
            <DistanceMeters>NAN</DistanceMeters>
          </Trackpoint>
          <Trackpoint>
            <Time>2022-06-16T11:04:20.000Z</Time>
            <Position>
              <LatitudeDegrees>36.84099049307405948638916015625</LatitudeDegrees>
              <LongitudeDegrees>-4.38481251709163188934326171875</LongitudeDegrees>
            </Position>
            <AltitudeMeters>666</AltitudeMeters>
            <DistanceMeters>NAN</DistanceMeters>
          </Trackpoint>
          <Trackpoint>
            <Time>2022-06-16T11:04:24.000Z</Time>
            <Position>
              <LatitudeDegrees>36.8410029821097850799560546875</LatitudeDegrees>
              <LongitudeDegrees>-4.3847480602562427520751953125</LongitudeDegrees>
            </Position>
            <AltitudeMeters>664.4000244140625</AltitudeMeters>
            <DistanceMeters>NAN</DistanceMeters>
          </Trackpoint>
          <Trackpoint>
            <Time>2022-06-16T11:04:30.000Z</Time>
            <Position>
              <LatitudeDegrees>36.84103676117956638336181640625</LatitudeDegrees>
              <LongitudeDegrees>-4.3846486508846282958984375</LongitudeDegrees>
            </Position>
            <AltitudeMeters>661.5999755859375</AltitudeMeters>
            <DistanceMeters>NAN</DistanceMeters>
          </Trackpoint>
          <Trackpoint>
            <Time>2022-06-16T11:04:32.000Z</Time>
            <Position>
              <LatitudeDegrees>36.8410462327301502227783203125</LatitudeDegrees>
              <LongitudeDegrees>-4.38461453653872013092041015625</LongitudeDegrees>
            </Position>
            <AltitudeMeters>661</AltitudeMeters>
            <DistanceMeters>NAN</DistanceMeters>
          </Trackpoint>
          <Trackpoint>
            <Time>2022-06-16T11:04:40.000Z</Time>
            <Position>
              <LatitudeDegrees>36.84103089384734630584716796875</LatitudeDegrees>
              <LongitudeDegrees>-4.38449241220951080322265625</LongitudeDegrees>
            </Position>
            <AltitudeMeters>660.20001220703125</AltitudeMeters>
            <DistanceMeters>NAN</DistanceMeters>
          </Trackpoint>
          <Trackpoint>
            <Time>2022-06-16T11:04:50.000Z</Time>
            <Position>
              <LatitudeDegrees>36.841039359569549560546875</LatitudeDegrees>
              <LongitudeDegrees>-4.384326450526714324951171875</LongitudeDegrees>
            </Position>
            <AltitudeMeters>658</AltitudeMeters>
            <DistanceMeters>NAN</DistanceMeters>
          </Trackpoint>
          <Trackpoint>
            <Time>2022-06-16T11:05:00.000Z</Time>
            <Position>
              <LatitudeDegrees>36.84108571149408817291259765625</LatitudeDegrees>
              <LongitudeDegrees>-4.38415034674108028411865234375</LongitudeDegrees>
            </Position>
            <AltitudeMeters>654.79998779296875</AltitudeMeters>
            <DistanceMeters>NAN</DistanceMeters>
          </Trackpoint>
          <Trackpoint>
            <Time>2022-06-16T11:05:10.000Z</Time>
            <Position>
              <LatitudeDegrees>36.8411149643361568450927734375</LatitudeDegrees>
              <LongitudeDegrees>-4.38397399149835109710693359375</LongitudeDegrees>
            </Position>
            <AltitudeMeters>653.79998779296875</AltitudeMeters>
            <DistanceMeters>NAN</DistanceMeters>
          </Trackpoint>
          <Trackpoint>
            <Time>2022-06-16T11:05:20.000Z</Time>
            <Position>
              <LatitudeDegrees>36.84113667346537113189697265625</LatitudeDegrees>
              <LongitudeDegrees>-4.3838146515190601348876953125</LongitudeDegrees>
            </Position>
            <AltitudeMeters>651.20001220703125</AltitudeMeters>
            <DistanceMeters>NAN</DistanceMeters>
          </Trackpoint>
          <Trackpoint>
            <Time>2022-06-16T11:05:30.000Z</Time>
            <Position>
              <LatitudeDegrees>36.84118176810443401336669921875</LatitudeDegrees>
              <LongitudeDegrees>-4.38364877365529537200927734375</LongitudeDegrees>
            </Position>
            <AltitudeMeters>647</AltitudeMeters>
            <DistanceMeters>NAN</DistanceMeters>
          </Trackpoint>
          <Trackpoint>
            <Time>2022-06-16T11:05:40.000Z</Time>
            <Position>
              <LatitudeDegrees>36.841243207454681396484375</LatitudeDegrees>
              <LongitudeDegrees>-4.38349169678986072540283203125</LongitudeDegrees>
            </Position>
            <AltitudeMeters>642.20001220703125</AltitudeMeters>
            <DistanceMeters>NAN</DistanceMeters>
          </Trackpoint>
          <Trackpoint>
            <Time>2022-06-16T11:05:41.000Z</Time>
            <Position>
              <LatitudeDegrees>36.84124597348272800445556640625</LatitudeDegrees>
              <LongitudeDegrees>-4.38347694464027881622314453125</LongitudeDegrees>
            </Position>
            <AltitudeMeters>641.79998779296875</AltitudeMeters>
            <DistanceMeters>NAN</DistanceMeters>
          </Trackpoint>
          <Trackpoint>
            <Time>2022-06-16T11:05:47.000Z</Time>
            <Position>
              <LatitudeDegrees>36.84126131236553192138671875</LatitudeDegrees>
              <LongitudeDegrees>-4.38338055275380611419677734375</LongitudeDegrees>
            </Position>
            <AltitudeMeters>638.79998779296875</AltitudeMeters>
            <DistanceMeters>NAN</DistanceMeters>
          </Trackpoint>
          <Trackpoint>
            <Time>2022-06-16T11:05:49.000Z</Time>
            <Position>
              <LatitudeDegrees>36.84126776643097400665283203125</LatitudeDegrees>
              <LongitudeDegrees>-4.38335071317851543426513671875</LongitudeDegrees>
            </Position>
            <AltitudeMeters>638</AltitudeMeters>
            <DistanceMeters>NAN</DistanceMeters>
          </Trackpoint>
          <Trackpoint>
            <Time>2022-06-16T11:05:50.000Z</Time>
            <Position>
              <LatitudeDegrees>36.84127531014382839202880859375</LatitudeDegrees>
              <LongitudeDegrees>-4.38333596102893352508544921875</LongitudeDegrees>
            </Position>
            <AltitudeMeters>637.5999755859375</AltitudeMeters>
            <DistanceMeters>NAN</DistanceMeters>
          </Trackpoint>
          <Trackpoint>
            <Time>2022-06-16T11:05:51.000Z</Time>
            <Position>
              <LatitudeDegrees>36.8412767350673675537109375</LatitudeDegrees>
              <LongitudeDegrees>-4.38332204706966876983642578125</LongitudeDegrees>
            </Position>
            <AltitudeMeters>637</AltitudeMeters>
            <DistanceMeters>NAN</DistanceMeters>
          </Trackpoint>
          <Trackpoint>
            <Time>2022-06-16T11:05:52.000Z</Time>
            <Position>
              <LatitudeDegrees>36.84127648361027240753173828125</LatitudeDegrees>
              <LongitudeDegrees>-4.38330679200589656829833984375</LongitudeDegrees>
            </Position>
            <AltitudeMeters>636.5999755859375</AltitudeMeters>
            <DistanceMeters>NAN</DistanceMeters>
          </Trackpoint>
          <Trackpoint>
            <Time>2022-06-16T11:05:53.000Z</Time>
            <Position>
              <LatitudeDegrees>36.84127346612513065338134765625</LatitudeDegrees>
              <LongitudeDegrees>-4.3832914531230926513671875</LongitudeDegrees>
            </Position>
            <AltitudeMeters>636.4000244140625</AltitudeMeters>
            <DistanceMeters>NAN</DistanceMeters>
          </Trackpoint>
          <Trackpoint>
            <Time>2022-06-16T11:05:54.000Z</Time>
            <Position>
              <LatitudeDegrees>36.84127028100192546844482421875</LatitudeDegrees>
              <LongitudeDegrees>-4.38327544368803501129150390625</LongitudeDegrees>
            </Position>
            <AltitudeMeters>636</AltitudeMeters>
            <DistanceMeters>NAN</DistanceMeters>
          </Trackpoint>
          <Trackpoint>
            <Time>2022-06-16T11:05:55.000Z</Time>
            <Position>
              <LatitudeDegrees>36.84126592241227626800537109375</LatitudeDegrees>
              <LongitudeDegrees>-4.383260942995548248291015625</LongitudeDegrees>
            </Position>
            <AltitudeMeters>635.79998779296875</AltitudeMeters>
            <DistanceMeters>NAN</DistanceMeters>
          </Trackpoint>
          <Trackpoint>
            <Time>2022-06-16T11:05:57.000Z</Time>
            <Position>
              <LatitudeDegrees>36.84125184081494808197021484375</LatitudeDegrees>
              <LongitudeDegrees>-4.38323403708636760711669921875</LongitudeDegrees>
            </Position>
            <AltitudeMeters>635.20001220703125</AltitudeMeters>
            <DistanceMeters>NAN</DistanceMeters>
          </Trackpoint>
          <Trackpoint>
            <Time>2022-06-16T11:06:00.000Z</Time>
            <Position>
              <LatitudeDegrees>36.84122376143932342529296875</LatitudeDegrees>
              <LongitudeDegrees>-4.3832136690616607666015625</LongitudeDegrees>
            </Position>
            <AltitudeMeters>635</AltitudeMeters>
            <DistanceMeters>NAN</DistanceMeters>
          </Trackpoint>
          <Trackpoint>
            <Time>2022-06-16T11:06:05.000Z</Time>
            <Position>
              <LatitudeDegrees>36.8411776609718799591064453125</LatitudeDegrees>
              <LongitudeDegrees>-4.38319288194179534912109375</LongitudeDegrees>
            </Position>
            <AltitudeMeters>635.4000244140625</AltitudeMeters>
            <DistanceMeters>NAN</DistanceMeters>
          </Trackpoint>
          <Trackpoint>
            <Time>2022-06-16T11:06:10.000Z</Time>
            <Position>
              <LatitudeDegrees>36.84117036871612071990966796875</LatitudeDegrees>
              <LongitudeDegrees>-4.3831813149154186248779296875</LongitudeDegrees>
            </Position>
            <AltitudeMeters>635.4000244140625</AltitudeMeters>
            <DistanceMeters>NAN</DistanceMeters>
          </Trackpoint>
          <Trackpoint>
            <Time>2022-06-16T11:06:12.000Z</Time>
            <Position>
              <LatitudeDegrees>36.8411619029939174652099609375</LatitudeDegrees>
              <LongitudeDegrees>-4.38318240456283092498779296875</LongitudeDegrees>
            </Position>
            <AltitudeMeters>635.79998779296875</AltitudeMeters>
            <DistanceMeters>NAN</DistanceMeters>
          </Trackpoint>
          <Trackpoint>
            <Time>2022-06-16T11:06:14.000Z</Time>
            <Position>
              <LatitudeDegrees>36.841148994863033294677734375</LatitudeDegrees>
              <LongitudeDegrees>-4.383182823657989501953125</LongitudeDegrees>
            </Position>
            <AltitudeMeters>636</AltitudeMeters>
            <DistanceMeters>NAN</DistanceMeters>
          </Trackpoint>
          <Trackpoint>
            <Time>2022-06-16T11:06:16.000Z</Time>
            <Position>
              <LatitudeDegrees>36.841128878295421600341796875</LatitudeDegrees>
              <LongitudeDegrees>-4.38318349421024322509765625</LongitudeDegrees>
            </Position>
            <AltitudeMeters>636.5999755859375</AltitudeMeters>
            <DistanceMeters>NAN</DistanceMeters>
          </Trackpoint>
          <Trackpoint>
            <Time>2022-06-16T11:06:19.000Z</Time>
            <Position>
              <LatitudeDegrees>36.84109610505402088165283203125</LatitudeDegrees>
              <LongitudeDegrees>-4.38317854888737201690673828125</LongitudeDegrees>
            </Position>
            <AltitudeMeters>637.5999755859375</AltitudeMeters>
            <DistanceMeters>NAN</DistanceMeters>
          </Trackpoint>
          <Trackpoint>
            <Time>2022-06-16T11:06:20.000Z</Time>
            <Position>
              <LatitudeDegrees>36.84108428657054901123046875</LatitudeDegrees>
              <LongitudeDegrees>-4.38317553140223026275634765625</LongitudeDegrees>
            </Position>
            <AltitudeMeters>637.79998779296875</AltitudeMeters>
            <DistanceMeters>NAN</DistanceMeters>
          </Trackpoint>
          <Trackpoint>
            <Time>2022-06-16T11:06:23.000Z</Time>
            <Position>
              <LatitudeDegrees>36.841053776443004608154296875</LatitudeDegrees>
              <LongitudeDegrees>-4.38316547311842441558837890625</LongitudeDegrees>
            </Position>
            <AltitudeMeters>638.4000244140625</AltitudeMeters>
            <DistanceMeters>NAN</DistanceMeters>
          </Trackpoint>
          <Trackpoint>
            <Time>2022-06-16T11:06:30.000Z</Time>
            <Position>
              <LatitudeDegrees>36.84098244644701480865478515625</LatitudeDegrees>
              <LongitudeDegrees>-4.3831276707351207733154296875</LongitudeDegrees>
            </Position>
            <AltitudeMeters>639.20001220703125</AltitudeMeters>
            <DistanceMeters>NAN</DistanceMeters>
          </Trackpoint>
          <Trackpoint>
            <Time>2022-06-16T11:06:40.000Z</Time>
            <Position>
              <LatitudeDegrees>36.84086224995553493499755859375</LatitudeDegrees>
              <LongitudeDegrees>-4.383064806461334228515625</LongitudeDegrees>
            </Position>
            <AltitudeMeters>641.5999755859375</AltitudeMeters>
            <DistanceMeters>NAN</DistanceMeters>
          </Trackpoint>
          <Trackpoint>
            <Time>2022-06-16T11:06:48.000Z</Time>
            <Position>
              <LatitudeDegrees>36.8407669477164745330810546875</LatitudeDegrees>
              <LongitudeDegrees>-4.38300319947302341461181640625</LongitudeDegrees>
            </Position>
            <AltitudeMeters>643.20001220703125</AltitudeMeters>
            <DistanceMeters>NAN</DistanceMeters>
          </Trackpoint>
          <Trackpoint>
            <Time>2022-06-16T11:06:50.000Z</Time>
            <Position>
              <LatitudeDegrees>36.84074037708342075347900390625</LatitudeDegrees>
              <LongitudeDegrees>-4.3829788081347942352294921875</LongitudeDegrees>
            </Position>
            <AltitudeMeters>643.4000244140625</AltitudeMeters>
            <DistanceMeters>NAN</DistanceMeters>
          </Trackpoint>
          <Trackpoint>
            <Time>2022-06-16T11:07:00.000Z</Time>
            <Position>
              <LatitudeDegrees>36.8406249582767486572265625</LatitudeDegrees>
              <LongitudeDegrees>-4.38286322169005870819091796875</LongitudeDegrees>
            </Position>
            <AltitudeMeters>642</AltitudeMeters>
            <DistanceMeters>NAN</DistanceMeters>
          </Trackpoint>
          <Trackpoint>
            <Time>2022-06-16T11:07:07.000Z</Time>
            <Position>
              <LatitudeDegrees>36.84055245481431484222412109375</LatitudeDegrees>
              <LongitudeDegrees>-4.38277487643063068389892578125</LongitudeDegrees>
            </Position>
            <AltitudeMeters>641</AltitudeMeters>
            <DistanceMeters>NAN</DistanceMeters>
          </Trackpoint>
          <Trackpoint>
            <Time>2022-06-16T11:07:10.000Z</Time>
            <Position>
              <LatitudeDegrees>36.84052160941064357757568359375</LatitudeDegrees>
              <LongitudeDegrees>-4.382740594446659088134765625</LongitudeDegrees>
            </Position>
            <AltitudeMeters>641</AltitudeMeters>
            <DistanceMeters>NAN</DistanceMeters>
          </Trackpoint>
          <Trackpoint>
            <Time>2022-06-16T11:07:14.000Z</Time>
            <Position>
              <LatitudeDegrees>36.84049126692116260528564453125</LatitudeDegrees>
              <LongitudeDegrees>-4.38270480372011661529541015625</LongitudeDegrees>
            </Position>
            <AltitudeMeters>640.5999755859375</AltitudeMeters>
            <DistanceMeters>NAN</DistanceMeters>
          </Trackpoint>
          <Trackpoint>
            <Time>2022-06-16T11:07:20.000Z</Time>
            <Position>
              <LatitudeDegrees>36.840419769287109375</LatitudeDegrees>
              <LongitudeDegrees>-4.3826539255678653717041015625</LongitudeDegrees>
            </Position>
            <AltitudeMeters>641.5999755859375</AltitudeMeters>
            <DistanceMeters>NAN</DistanceMeters>
          </Trackpoint>
          <Trackpoint>
            <Time>2022-06-16T11:07:26.000Z</Time>
            <Position>
              <LatitudeDegrees>36.8403612636029720306396484375</LatitudeDegrees>
              <LongitudeDegrees>-4.3825754709541797637939453125</LongitudeDegrees>
            </Position>
            <AltitudeMeters>640.5999755859375</AltitudeMeters>
            <DistanceMeters>NAN</DistanceMeters>
          </Trackpoint>
          <Trackpoint>
            <Time>2022-06-16T11:07:30.000Z</Time>
            <Position>
              <LatitudeDegrees>36.84032429940998554229736328125</LatitudeDegrees>
              <LongitudeDegrees>-4.38253196887671947479248046875</LongitudeDegrees>
            </Position>
            <AltitudeMeters>640.20001220703125</AltitudeMeters>
            <DistanceMeters>NAN</DistanceMeters>
          </Trackpoint>
          <Trackpoint>
            <Time>2022-06-16T11:07:36.000Z</Time>
            <Position>
              <LatitudeDegrees>36.84027560055255889892578125</LatitudeDegrees>
              <LongitudeDegrees>-4.3824628181755542755126953125</LongitudeDegrees>
            </Position>
            <AltitudeMeters>640</AltitudeMeters>
            <DistanceMeters>NAN</DistanceMeters>
          </Trackpoint>
          <Trackpoint>
            <Time>2022-06-16T11:07:40.000Z</Time>
            <Position>
              <LatitudeDegrees>36.84025674127042293548583984375</LatitudeDegrees>
              <LongitudeDegrees>-4.3824460543692111968994140625</LongitudeDegrees>
            </Position>
            <AltitudeMeters>640.4000244140625</AltitudeMeters>
            <DistanceMeters>NAN</DistanceMeters>
          </Trackpoint>
          <Trackpoint>
            <Time>2022-06-16T11:07:43.000Z</Time>
            <Position>
              <LatitudeDegrees>36.84026353061199188232421875</LatitudeDegrees>
              <LongitudeDegrees>-4.382447898387908935546875</LongitudeDegrees>
            </Position>
            <AltitudeMeters>640.20001220703125</AltitudeMeters>
            <DistanceMeters>NAN</DistanceMeters>
          </Trackpoint>
          <Trackpoint>
            <Time>2022-06-16T11:07:48.000Z</Time>
            <Position>
              <LatitudeDegrees>36.8402720801532268524169921875</LatitudeDegrees>
              <LongitudeDegrees>-4.38239953480660915374755859375</LongitudeDegrees>
            </Position>
            <AltitudeMeters>638.5999755859375</AltitudeMeters>
            <DistanceMeters>NAN</DistanceMeters>
          </Trackpoint>
          <Trackpoint>
            <Time>2022-06-16T11:07:50.000Z</Time>
            <Position>
              <LatitudeDegrees>36.84026797302067279815673828125</LatitudeDegrees>
              <LongitudeDegrees>-4.38239651732146739959716796875</LongitudeDegrees>
            </Position>
            <AltitudeMeters>638.79998779296875</AltitudeMeters>
            <DistanceMeters>NAN</DistanceMeters>
          </Trackpoint>
          <Trackpoint>
            <Time>2022-06-16T11:08:00.000Z</Time>
            <Position>
              <LatitudeDegrees>36.8402767740190029144287109375</LatitudeDegrees>
              <LongitudeDegrees>-4.38242183066904544830322265625</LongitudeDegrees>
            </Position>
            <AltitudeMeters>639</AltitudeMeters>
            <DistanceMeters>NAN</DistanceMeters>
          </Trackpoint>
          <Trackpoint>
            <Time>2022-06-16T11:08:10.000Z</Time>
            <Position>
              <LatitudeDegrees>36.84024400077760219573974609375</LatitudeDegrees>
              <LongitudeDegrees>-4.38226743601262569427490234375</LongitudeDegrees>
            </Position>
            <AltitudeMeters>636.79998779296875</AltitudeMeters>
            <DistanceMeters>NAN</DistanceMeters>
          </Trackpoint>
          <Trackpoint>
            <Time>2022-06-16T11:08:20.000Z</Time>
            <Position>
              <LatitudeDegrees>36.8401909433305263519287109375</LatitudeDegrees>
              <LongitudeDegrees>-4.3821000494062900543212890625</LongitudeDegrees>
            </Position>
            <AltitudeMeters>636.20001220703125</AltitudeMeters>
            <DistanceMeters>NAN</DistanceMeters>
          </Trackpoint>
          <Trackpoint>
            <Time>2022-06-16T11:08:30.000Z</Time>
            <Position>
              <LatitudeDegrees>36.84017929248511791229248046875</LatitudeDegrees>
              <LongitudeDegrees>-4.381943978369235992431640625</LongitudeDegrees>
            </Position>
            <AltitudeMeters>631.20001220703125</AltitudeMeters>
            <DistanceMeters>NAN</DistanceMeters>
          </Trackpoint>
          <Trackpoint>
            <Time>2022-06-16T11:08:38.000Z</Time>
            <Position>
              <LatitudeDegrees>36.84018247760832309722900390625</LatitudeDegrees>
              <LongitudeDegrees>-4.381839372217655181884765625</LongitudeDegrees>
            </Position>
            <AltitudeMeters>628.79998779296875</AltitudeMeters>
            <DistanceMeters>NAN</DistanceMeters>
          </Trackpoint>
          <Trackpoint>
            <Time>2022-06-16T11:08:40.000Z</Time>
            <Position>
              <LatitudeDegrees>36.84019085951149463653564453125</LatitudeDegrees>
              <LongitudeDegrees>-4.38180928118526935577392578125</LongitudeDegrees>
            </Position>
            <AltitudeMeters>628</AltitudeMeters>
            <DistanceMeters>NAN</DistanceMeters>
          </Trackpoint>
          <Trackpoint>
            <Time>2022-06-16T11:08:42.000Z</Time>
            <Position>
              <LatitudeDegrees>36.84019379317760467529296875</LatitudeDegrees>
              <LongitudeDegrees>-4.3817785196006298065185546875</LongitudeDegrees>
            </Position>
            <AltitudeMeters>627</AltitudeMeters>
            <DistanceMeters>NAN</DistanceMeters>
          </Trackpoint>
          <Trackpoint>
            <Time>2022-06-16T11:08:44.000Z</Time>
            <Position>
              <LatitudeDegrees>36.84019169770181179046630859375</LatitudeDegrees>
              <LongitudeDegrees>-4.381739795207977294921875</LongitudeDegrees>
            </Position>
            <AltitudeMeters>626</AltitudeMeters>
            <DistanceMeters>NAN</DistanceMeters>
          </Trackpoint>
          <Trackpoint>
            <Time>2022-06-16T11:08:50.000Z</Time>
            <Position>
              <LatitudeDegrees>36.84017996303737163543701171875</LatitudeDegrees>
              <LongitudeDegrees>-4.381637871265411376953125</LongitudeDegrees>
            </Position>
            <AltitudeMeters>623.20001220703125</AltitudeMeters>
            <DistanceMeters>NAN</DistanceMeters>
          </Trackpoint>
          <Trackpoint>
            <Time>2022-06-16T11:09:00.000Z</Time>
            <Position>
              <LatitudeDegrees>36.840121038258075714111328125</LatitudeDegrees>
              <LongitudeDegrees>-4.38148758374154567718505859375</LongitudeDegrees>
            </Position>
            <AltitudeMeters>621.20001220703125</AltitudeMeters>
            <DistanceMeters>NAN</DistanceMeters>
          </Trackpoint>
          <Trackpoint>
            <Time>2022-06-16T11:09:10.000Z</Time>
            <Position>
              <LatitudeDegrees>36.84003143571317195892333984375</LatitudeDegrees>
              <LongitudeDegrees>-4.38136537559330463409423828125</LongitudeDegrees>
            </Position>
            <AltitudeMeters>618.4000244140625</AltitudeMeters>
            <DistanceMeters>NAN</DistanceMeters>
          </Trackpoint>
          <Trackpoint>
            <Time>2022-06-16T11:09:12.000Z</Time>
            <Position>
              <LatitudeDegrees>36.8400035239756107330322265625</LatitudeDegrees>
              <LongitudeDegrees>-4.38135062344372272491455078125</LongitudeDegrees>
            </Position>
            <AltitudeMeters>618.20001220703125</AltitudeMeters>
            <DistanceMeters>NAN</DistanceMeters>
          </Trackpoint>
          <Trackpoint>
            <Time>2022-06-16T11:09:20.000Z</Time>
            <Position>
              <LatitudeDegrees>36.83988525532186031341552734375</LatitudeDegrees>
              <LongitudeDegrees>-4.38135649077594280242919921875</LongitudeDegrees>
            </Position>
            <AltitudeMeters>618.79998779296875</AltitudeMeters>
            <DistanceMeters>NAN</DistanceMeters>
          </Trackpoint>
          <Trackpoint>
            <Time>2022-06-16T11:09:30.000Z</Time>
            <Position>
              <LatitudeDegrees>36.8397505581378936767578125</LatitudeDegrees>
              <LongitudeDegrees>-4.38141449354588985443115234375</LongitudeDegrees>
            </Position>
            <AltitudeMeters>619.79998779296875</AltitudeMeters>
            <DistanceMeters>NAN</DistanceMeters>
          </Trackpoint>
          <Trackpoint>
            <Time>2022-06-16T11:09:33.000Z</Time>
            <Position>
              <LatitudeDegrees>36.83972180821001529693603515625</LatitudeDegrees>
              <LongitudeDegrees>-4.38145942054688930511474609375</LongitudeDegrees>
            </Position>
            <AltitudeMeters>620.5999755859375</AltitudeMeters>
            <DistanceMeters>NAN</DistanceMeters>
          </Trackpoint>
          <Trackpoint>
            <Time>2022-06-16T11:09:40.000Z</Time>
            <Position>
              <LatitudeDegrees>36.83965525589883327484130859375</LatitudeDegrees>
              <LongitudeDegrees>-4.38154860399663448333740234375</LongitudeDegrees>
            </Position>
            <AltitudeMeters>622.20001220703125</AltitudeMeters>
            <DistanceMeters>NAN</DistanceMeters>
          </Trackpoint>
          <Trackpoint>
            <Time>2022-06-16T11:09:50.000Z</Time>
            <Position>
              <LatitudeDegrees>36.8396115861833095550537109375</LatitudeDegrees>
              <LongitudeDegrees>-4.381606020033359527587890625</LongitudeDegrees>
            </Position>
            <AltitudeMeters>623.20001220703125</AltitudeMeters>
            <DistanceMeters>NAN</DistanceMeters>
          </Trackpoint>
          <Trackpoint>
            <Time>2022-06-16T11:10:00.000Z</Time>
            <Position>
              <LatitudeDegrees>36.83959909714758396148681640625</LatitudeDegrees>
              <LongitudeDegrees>-4.38163996674120426177978515625</LongitudeDegrees>
            </Position>
            <AltitudeMeters>624</AltitudeMeters>
            <DistanceMeters>NAN</DistanceMeters>
          </Trackpoint>
          <Trackpoint>
            <Time>2022-06-16T11:10:10.000Z</Time>
            <Position>
              <LatitudeDegrees>36.8395160324871540069580078125</LatitudeDegrees>
              <LongitudeDegrees>-4.38177374191582202911376953125</LongitudeDegrees>
            </Position>
            <AltitudeMeters>626</AltitudeMeters>
            <DistanceMeters>NAN</DistanceMeters>
          </Trackpoint>
          <Trackpoint>
            <Time>2022-06-16T11:10:16.000Z</Time>
            <Position>
              <LatitudeDegrees>36.8394716084003448486328125</LatitudeDegrees>
              <LongitudeDegrees>-4.3818398751318454742431640625</LongitudeDegrees>
            </Position>
            <AltitudeMeters>626.5999755859375</AltitudeMeters>
            <DistanceMeters>NAN</DistanceMeters>
          </Trackpoint>
          <Trackpoint>
            <Time>2022-06-16T11:10:20.000Z</Time>
            <Position>
              <LatitudeDegrees>36.83943615294992923736572265625</LatitudeDegrees>
              <LongitudeDegrees>-4.38186879269778728485107421875</LongitudeDegrees>
            </Position>
            <AltitudeMeters>626.4000244140625</AltitudeMeters>
            <DistanceMeters>NAN</DistanceMeters>
          </Trackpoint>
          <Trackpoint>
            <Time>2022-06-16T11:10:22.000Z</Time>
            <Position>
              <LatitudeDegrees>36.83942022733390331268310546875</LatitudeDegrees>
              <LongitudeDegrees>-4.38188002444803714752197265625</LongitudeDegrees>
            </Position>
            <AltitudeMeters>626.20001220703125</AltitudeMeters>
            <DistanceMeters>NAN</DistanceMeters>
          </Trackpoint>
          <Trackpoint>
            <Time>2022-06-16T11:10:25.000Z</Time>
            <Position>
              <LatitudeDegrees>36.83939315378665924072265625</LatitudeDegrees>
              <LongitudeDegrees>-4.38191154040396213531494140625</LongitudeDegrees>
            </Position>
            <AltitudeMeters>626.4000244140625</AltitudeMeters>
            <DistanceMeters>NAN</DistanceMeters>
          </Trackpoint>
          <Trackpoint>
            <Time>2022-06-16T11:10:30.000Z</Time>
            <Position>
              <LatitudeDegrees>36.8393363244831562042236328125</LatitudeDegrees>
              <LongitudeDegrees>-4.38196040689945220947265625</LongitudeDegrees>
            </Position>
            <AltitudeMeters>626.4000244140625</AltitudeMeters>
            <DistanceMeters>NAN</DistanceMeters>
          </Trackpoint>
          <Trackpoint>
            <Time>2022-06-16T11:10:37.000Z</Time>
            <Position>
              <LatitudeDegrees>36.83926382102072238922119140625</LatitudeDegrees>
              <LongitudeDegrees>-4.382026456296443939208984375</LongitudeDegrees>
            </Position>
            <AltitudeMeters>626.4000244140625</AltitudeMeters>
            <DistanceMeters>NAN</DistanceMeters>
          </Trackpoint>
          <Trackpoint>
            <Time>2022-06-16T11:10:39.000Z</Time>
            <Position>
              <LatitudeDegrees>36.83924890123307704925537109375</LatitudeDegrees>
              <LongitudeDegrees>-4.382012374699115753173828125</LongitudeDegrees>
            </Position>
            <AltitudeMeters>625.5999755859375</AltitudeMeters>
            <DistanceMeters>NAN</DistanceMeters>
          </Trackpoint>
          <Trackpoint>
            <Time>2022-06-16T11:10:40.000Z</Time>
            <Position>
              <LatitudeDegrees>36.83924605138599872589111328125</LatitudeDegrees>
              <LongitudeDegrees>-4.38199737109243869781494140625</LongitudeDegrees>
            </Position>
            <AltitudeMeters>625.20001220703125</AltitudeMeters>
            <DistanceMeters>NAN</DistanceMeters>
          </Trackpoint>
          <Trackpoint>
            <Time>2022-06-16T11:10:42.000Z</Time>
            <Position>
              <LatitudeDegrees>36.83924823068082332611083984375</LatitudeDegrees>
              <LongitudeDegrees>-4.3819749914109706878662109375</LongitudeDegrees>
            </Position>
            <AltitudeMeters>624.5999755859375</AltitudeMeters>
            <DistanceMeters>NAN</DistanceMeters>
          </Trackpoint>
          <Trackpoint>
            <Time>2022-06-16T11:10:50.000Z</Time>
            <Position>
              <LatitudeDegrees>36.83928578160703182220458984375</LatitudeDegrees>
              <LongitudeDegrees>-4.38188287429511547088623046875</LongitudeDegrees>
            </Position>
            <AltitudeMeters>623</AltitudeMeters>
            <DistanceMeters>NAN</DistanceMeters>
          </Trackpoint>
          <Trackpoint>
            <Time>2022-06-16T11:11:00.000Z</Time>
            <Position>
              <LatitudeDegrees>36.83936339803040027618408203125</LatitudeDegrees>
              <LongitudeDegrees>-4.38177642412483692169189453125</LongitudeDegrees>
            </Position>
            <AltitudeMeters>622.5999755859375</AltitudeMeters>
            <DistanceMeters>NAN</DistanceMeters>
          </Trackpoint>
          <Trackpoint>
            <Time>2022-06-16T11:11:10.000Z</Time>
            <Position>
              <LatitudeDegrees>36.83943313546478748321533203125</LatitudeDegrees>
              <LongitudeDegrees>-4.38164256513118743896484375</LongitudeDegrees>
            </Position>
            <AltitudeMeters>621.5999755859375</AltitudeMeters>
            <DistanceMeters>NAN</DistanceMeters>
          </Trackpoint>
          <Trackpoint>
            <Time>2022-06-16T11:11:20.000Z</Time>
            <Position>
              <LatitudeDegrees>36.839488707482814788818359375</LatitudeDegrees>
              <LongitudeDegrees>-4.3815270625054836273193359375</LongitudeDegrees>
            </Position>
            <AltitudeMeters>620.4000244140625</AltitudeMeters>
            <DistanceMeters>NAN</DistanceMeters>
          </Trackpoint>
          <Trackpoint>
            <Time>2022-06-16T11:11:30.000Z</Time>
            <Position>
              <LatitudeDegrees>36.83955542743206024169921875</LatitudeDegrees>
              <LongitudeDegrees>-4.38137476332485675811767578125</LongitudeDegrees>
            </Position>
            <AltitudeMeters>618.4000244140625</AltitudeMeters>
            <DistanceMeters>NAN</DistanceMeters>
          </Trackpoint>
          <Trackpoint>
            <Time>2022-06-16T11:11:40.000Z</Time>
            <Position>
              <LatitudeDegrees>36.83963279239833354949951171875</LatitudeDegrees>
              <LongitudeDegrees>-4.38123545609414577484130859375</LongitudeDegrees>
            </Position>
            <AltitudeMeters>616.79998779296875</AltitudeMeters>
            <DistanceMeters>NAN</DistanceMeters>
          </Trackpoint>
          <Trackpoint>
            <Time>2022-06-16T11:11:41.000Z</Time>
            <Position>
              <LatitudeDegrees>36.8396451137959957122802734375</LatitudeDegrees>
              <LongitudeDegrees>-4.38122422434389591217041015625</LongitudeDegrees>
            </Position>
            <AltitudeMeters>616.5999755859375</AltitudeMeters>
            <DistanceMeters>NAN</DistanceMeters>
          </Trackpoint>
          <Trackpoint>
            <Time>2022-06-16T11:11:42.000Z</Time>
            <Position>
              <LatitudeDegrees>36.83965609408915042877197265625</LatitudeDegrees>
              <LongitudeDegrees>-4.38121341168880462646484375</LongitudeDegrees>
            </Position>
            <AltitudeMeters>616.5999755859375</AltitudeMeters>
            <DistanceMeters>NAN</DistanceMeters>
          </Trackpoint>
          <Trackpoint>
            <Time>2022-06-16T11:11:43.000Z</Time>
            <Position>
              <LatitudeDegrees>36.83966715820133686065673828125</LatitudeDegrees>
              <LongitudeDegrees>-4.381201006472110748291015625</LongitudeDegrees>
            </Position>
            <AltitudeMeters>616.4000244140625</AltitudeMeters>
            <DistanceMeters>NAN</DistanceMeters>
          </Trackpoint>
          <Trackpoint>
            <Time>2022-06-16T11:11:50.000Z</Time>
            <Position>
              <LatitudeDegrees>36.83974125422537326812744140625</LatitudeDegrees>
              <LongitudeDegrees>-4.38113135285675525665283203125</LongitudeDegrees>
            </Position>
            <AltitudeMeters>615.5999755859375</AltitudeMeters>
            <DistanceMeters>NAN</DistanceMeters>
          </Trackpoint>
          <Trackpoint>
            <Time>2022-06-16T11:11:57.000Z</Time>
            <Position>
              <LatitudeDegrees>36.83980613015592098236083984375</LatitudeDegrees>
              <LongitudeDegrees>-4.38103781081736087799072265625</LongitudeDegrees>
            </Position>
            <AltitudeMeters>614.79998779296875</AltitudeMeters>
            <DistanceMeters>NAN</DistanceMeters>
          </Trackpoint>
          <Trackpoint>
            <Time>2022-06-16T11:11:58.000Z</Time>
            <Position>
              <LatitudeDegrees>36.8398189544677734375</LatitudeDegrees>
              <LongitudeDegrees>-4.38103009946644306182861328125</LongitudeDegrees>
            </Position>
            <AltitudeMeters>614.79998779296875</AltitudeMeters>
            <DistanceMeters>NAN</DistanceMeters>
          </Trackpoint>
          <Trackpoint>
            <Time>2022-06-16T11:11:59.000Z</Time>
            <Position>
              <LatitudeDegrees>36.8398275040090084075927734375</LatitudeDegrees>
              <LongitudeDegrees>-4.38101895153522491455078125</LongitudeDegrees>
            </Position>
            <AltitudeMeters>614.79998779296875</AltitudeMeters>
            <DistanceMeters>NAN</DistanceMeters>
          </Trackpoint>
          <Trackpoint>
            <Time>2022-06-16T11:12:00.000Z</Time>
            <Position>
              <LatitudeDegrees>36.839836724102497100830078125</LatitudeDegrees>
              <LongitudeDegrees>-4.381005875766277313232421875</LongitudeDegrees>
            </Position>
            <AltitudeMeters>614.5999755859375</AltitudeMeters>
            <DistanceMeters>NAN</DistanceMeters>
          </Trackpoint>
          <Trackpoint>
            <Time>2022-06-16T11:12:10.000Z</Time>
            <Position>
              <LatitudeDegrees>36.839951388537883758544921875</LatitudeDegrees>
              <LongitudeDegrees>-4.38090093433856964111328125</LongitudeDegrees>
            </Position>
            <AltitudeMeters>613.79998779296875</AltitudeMeters>
            <DistanceMeters>NAN</DistanceMeters>
          </Trackpoint>
          <Trackpoint>
            <Time>2022-06-16T11:12:20.000Z</Time>
            <Position>
              <LatitudeDegrees>36.84007418341934680938720703125</LatitudeDegrees>
              <LongitudeDegrees>-4.38083329237997531890869140625</LongitudeDegrees>
            </Position>
            <AltitudeMeters>613.20001220703125</AltitudeMeters>
            <DistanceMeters>NAN</DistanceMeters>
          </Trackpoint>
          <Trackpoint>
            <Time>2022-06-16T11:12:23.000Z</Time>
            <Position>
              <LatitudeDegrees>36.8401151709258556365966796875</LatitudeDegrees>
              <LongitudeDegrees>-4.38080060295760631561279296875</LongitudeDegrees>
            </Position>
            <AltitudeMeters>613.20001220703125</AltitudeMeters>
            <DistanceMeters>NAN</DistanceMeters>
          </Trackpoint>
          <Trackpoint>
            <Time>2022-06-16T11:12:30.000Z</Time>
            <Position>
              <LatitudeDegrees>36.84017191641032695770263671875</LatitudeDegrees>
              <LongitudeDegrees>-4.3807817436754703521728515625</LongitudeDegrees>
            </Position>
            <AltitudeMeters>614</AltitudeMeters>
            <DistanceMeters>NAN</DistanceMeters>
          </Trackpoint>
          <Trackpoint>
            <Time>2022-06-16T11:12:39.000Z</Time>
            <Position>
              <LatitudeDegrees>36.84027249924838542938232421875</LatitudeDegrees>
              <LongitudeDegrees>-4.3807321228086948394775390625</LongitudeDegrees>
            </Position>
            <AltitudeMeters>616.20001220703125</AltitudeMeters>
            <DistanceMeters>NAN</DistanceMeters>
          </Trackpoint>
          <Trackpoint>
            <Time>2022-06-16T11:12:40.000Z</Time>
            <Position>
              <LatitudeDegrees>36.8402807973325252532958984375</LatitudeDegrees>
              <LongitudeDegrees>-4.3807301111519336700439453125</LongitudeDegrees>
            </Position>
            <AltitudeMeters>616.4000244140625</AltitudeMeters>
            <DistanceMeters>NAN</DistanceMeters>
          </Trackpoint>
          <Trackpoint>
            <Time>2022-06-16T11:12:50.000Z</Time>
            <Position>
              <LatitudeDegrees>36.8403451703488826751708984375</LatitudeDegrees>
              <LongitudeDegrees>-4.380749054253101348876953125</LongitudeDegrees>
            </Position>
            <AltitudeMeters>616.20001220703125</AltitudeMeters>
            <DistanceMeters>NAN</DistanceMeters>
          </Trackpoint>
          <Trackpoint>
            <Time>2022-06-16T11:12:56.000Z</Time>
            <Position>
              <LatitudeDegrees>36.84035765938460826873779296875</LatitudeDegrees>
              <LongitudeDegrees>-4.3807508982717990875244140625</LongitudeDegrees>
            </Position>
            <AltitudeMeters>616.4000244140625</AltitudeMeters>
            <DistanceMeters>NAN</DistanceMeters>
          </Trackpoint>
          <Trackpoint>
            <Time>2022-06-16T11:12:59.000Z</Time>
            <Position>
              <LatitudeDegrees>36.8404058553278446197509765625</LatitudeDegrees>
              <LongitudeDegrees>-4.380760453641414642333984375</LongitudeDegrees>
            </Position>
            <AltitudeMeters>616.79998779296875</AltitudeMeters>
            <DistanceMeters>NAN</DistanceMeters>
          </Trackpoint>
          <Trackpoint>
            <Time>2022-06-16T11:13:00.000Z</Time>
            <Position>
              <LatitudeDegrees>36.8404058553278446197509765625</LatitudeDegrees>
              <LongitudeDegrees>-4.380760453641414642333984375</LongitudeDegrees>
            </Position>
            <AltitudeMeters>616.79998779296875</AltitudeMeters>
            <DistanceMeters>NAN</DistanceMeters>
          </Trackpoint>
          <Trackpoint>
            <Time>2022-06-16T11:13:07.000Z</Time>
            <Position>
              <LatitudeDegrees>36.8404506146907806396484375</LatitudeDegrees>
              <LongitudeDegrees>-4.38083329237997531890869140625</LongitudeDegrees>
            </Position>
            <AltitudeMeters>616.20001220703125</AltitudeMeters>
            <DistanceMeters>NAN</DistanceMeters>
          </Trackpoint>
          <Trackpoint>
            <Time>2022-06-16T11:13:09.000Z</Time>
            <Position>
              <LatitudeDegrees>36.8404615111649036407470703125</LatitudeDegrees>
              <LongitudeDegrees>-4.3808558396995067596435546875</LongitudeDegrees>
            </Position>
            <AltitudeMeters>616.20001220703125</AltitudeMeters>
            <DistanceMeters>NAN</DistanceMeters>
          </Trackpoint>
          <Trackpoint>
            <Time>2022-06-16T11:13:10.000Z</Time>
            <Position>
              <LatitudeDegrees>36.84046511538326740264892578125</LatitudeDegrees>
              <LongitudeDegrees>-4.38087034039199352264404296875</LongitudeDegrees>
            </Position>
            <AltitudeMeters>616.4000244140625</AltitudeMeters>
            <DistanceMeters>NAN</DistanceMeters>
          </Trackpoint>
          <Trackpoint>
            <Time>2022-06-16T11:13:11.000Z</Time>
            <Position>
              <LatitudeDegrees>36.8404735811054706573486328125</LatitudeDegrees>
              <LongitudeDegrees>-4.3808789737522602081298828125</LongitudeDegrees>
            </Position>
            <AltitudeMeters>616.4000244140625</AltitudeMeters>
            <DistanceMeters>NAN</DistanceMeters>
          </Trackpoint>
          <Trackpoint>
            <Time>2022-06-16T11:13:20.000Z</Time>
            <Position>
              <LatitudeDegrees>36.84054843150079250335693359375</LatitudeDegrees>
              <LongitudeDegrees>-4.38097109086811542510986328125</LongitudeDegrees>
            </Position>
            <AltitudeMeters>616.5999755859375</AltitudeMeters>
            <DistanceMeters>NAN</DistanceMeters>
          </Trackpoint>
          <Trackpoint>
            <Time>2022-06-16T11:13:29.000Z</Time>
            <Position>
              <LatitudeDegrees>36.8406056798994541168212890625</LatitudeDegrees>
              <LongitudeDegrees>-4.38106312416493892669677734375</LongitudeDegrees>
            </Position>
            <AltitudeMeters>615.20001220703125</AltitudeMeters>
            <DistanceMeters>NAN</DistanceMeters>
          </Trackpoint>
          <Trackpoint>
            <Time>2022-06-16T11:13:30.000Z</Time>
            <Position>
              <LatitudeDegrees>36.840607188642024993896484375</LatitudeDegrees>
              <LongitudeDegrees>-4.3810781277716159820556640625</LongitudeDegrees>
            </Position>
            <AltitudeMeters>615</AltitudeMeters>
            <DistanceMeters>NAN</DistanceMeters>
          </Trackpoint>
          <Trackpoint>
            <Time>2022-06-16T11:13:31.000Z</Time>
            <Position>
              <LatitudeDegrees>36.840615235269069671630859375</LatitudeDegrees>
              <LongitudeDegrees>-4.38108575530350208282470703125</LongitudeDegrees>
            </Position>
            <AltitudeMeters>615</AltitudeMeters>
            <DistanceMeters>NAN</DistanceMeters>
          </Trackpoint>
          <Trackpoint>
            <Time>2022-06-16T11:13:32.000Z</Time>
            <Position>
              <LatitudeDegrees>36.84062696993350982666015625</LatitudeDegrees>
              <LongitudeDegrees>-4.38109246082603931427001953125</LongitudeDegrees>
            </Position>
            <AltitudeMeters>615</AltitudeMeters>
            <DistanceMeters>NAN</DistanceMeters>
          </Trackpoint>
          <Trackpoint>
            <Time>2022-06-16T11:13:33.000Z</Time>
            <Position>
              <LatitudeDegrees>36.84063526801764965057373046875</LatitudeDegrees>
              <LongitudeDegrees>-4.38109807670116424560546875</LongitudeDegrees>
            </Position>
            <AltitudeMeters>615</AltitudeMeters>
            <DistanceMeters>NAN</DistanceMeters>
          </Trackpoint>
          <Trackpoint>
            <Time>2022-06-16T11:13:34.000Z</Time>
            <Position>
              <LatitudeDegrees>36.84064230881631374359130859375</LatitudeDegrees>
              <LongitudeDegrees>-4.3811026029288768768310546875</LongitudeDegrees>
            </Position>
            <AltitudeMeters>615</AltitudeMeters>
            <DistanceMeters>NAN</DistanceMeters>
          </Trackpoint>
          <Trackpoint>
            <Time>2022-06-16T11:13:36.000Z</Time>
            <Position>
              <LatitudeDegrees>36.8406606651842594146728515625</LatitudeDegrees>
              <LongitudeDegrees>-4.381113834679126739501953125</LongitudeDegrees>
            </Position>
            <AltitudeMeters>615</AltitudeMeters>
            <DistanceMeters>NAN</DistanceMeters>
          </Trackpoint>
          <Trackpoint>
            <Time>2022-06-16T11:13:39.000Z</Time>
            <Position>
              <LatitudeDegrees>36.8406811170279979705810546875</LatitudeDegrees>
              <LongitudeDegrees>-4.381129257380962371826171875</LongitudeDegrees>
            </Position>
            <AltitudeMeters>614.79998779296875</AltitudeMeters>
            <DistanceMeters>NAN</DistanceMeters>
          </Trackpoint>
          <Trackpoint>
            <Time>2022-06-16T11:13:40.000Z</Time>
            <Position>
              <LatitudeDegrees>36.8406918458640575408935546875</LatitudeDegrees>
              <LongitudeDegrees>-4.38112816773355007171630859375</LongitudeDegrees>
            </Position>
            <AltitudeMeters>614.79998779296875</AltitudeMeters>
            <DistanceMeters>NAN</DistanceMeters>
          </Trackpoint>
          <Trackpoint>
            <Time>2022-06-16T11:13:45.000Z</Time>
            <Position>
              <LatitudeDegrees>36.840752698481082916259765625</LatitudeDegrees>
              <LongitudeDegrees>-4.381109811365604400634765625</LongitudeDegrees>
            </Position>
            <AltitudeMeters>614.5999755859375</AltitudeMeters>
            <DistanceMeters>NAN</DistanceMeters>
          </Trackpoint>
          <Trackpoint>
            <Time>2022-06-16T11:13:49.000Z</Time>
            <Position>
              <LatitudeDegrees>36.84077172540128231048583984375</LatitudeDegrees>
              <LongitudeDegrees>-4.38110084272921085357666015625</LongitudeDegrees>
            </Position>
            <AltitudeMeters>614.5999755859375</AltitudeMeters>
            <DistanceMeters>NAN</DistanceMeters>
          </Trackpoint>
          <Trackpoint>
            <Time>2022-06-16T11:13:50.000Z</Time>
            <Position>
              <LatitudeDegrees>36.84078061021864414215087890625</LatitudeDegrees>
              <LongitudeDegrees>-4.381094388663768768310546875</LongitudeDegrees>
            </Position>
            <AltitudeMeters>614.5999755859375</AltitudeMeters>
            <DistanceMeters>NAN</DistanceMeters>
          </Trackpoint>
          <Trackpoint>
            <Time>2022-06-16T11:13:54.000Z</Time>
            <Position>
              <LatitudeDegrees>36.84081028215587139129638671875</LatitudeDegrees>
              <LongitudeDegrees>-4.38106697984039783477783203125</LongitudeDegrees>
            </Position>
            <AltitudeMeters>614.79998779296875</AltitudeMeters>
            <DistanceMeters>NAN</DistanceMeters>
          </Trackpoint>
          <Trackpoint>
            <Time>2022-06-16T11:13:57.000Z</Time>
            <Position>
              <LatitudeDegrees>36.84083190746605396270751953125</LatitudeDegrees>
              <LongitudeDegrees>-4.381042756140232086181640625</LongitudeDegrees>
            </Position>
            <AltitudeMeters>615.20001220703125</AltitudeMeters>
            <DistanceMeters>NAN</DistanceMeters>
          </Trackpoint>
          <Trackpoint>
            <Time>2022-06-16T11:14:00.000Z</Time>
            <Position>
              <LatitudeDegrees>36.840860657393932342529296875</LatitudeDegrees>
              <LongitudeDegrees>-4.38101626932621002197265625</LongitudeDegrees>
            </Position>
            <AltitudeMeters>615.79998779296875</AltitudeMeters>
            <DistanceMeters>NAN</DistanceMeters>
          </Trackpoint>
          <Trackpoint>
            <Time>2022-06-16T11:14:06.000Z</Time>
            <Position>
              <LatitudeDegrees>36.8409012258052825927734375</LatitudeDegrees>
              <LongitudeDegrees>-4.38095181249082088470458984375</LongitudeDegrees>
            </Position>
            <AltitudeMeters>617.20001220703125</AltitudeMeters>
            <DistanceMeters>NAN</DistanceMeters>
          </Trackpoint>
          <Trackpoint>
            <Time>2022-06-16T11:14:10.000Z</Time>
            <Position>
              <LatitudeDegrees>36.840937100350856781005859375</LatitudeDegrees>
              <LongitudeDegrees>-4.38090655021369457244873046875</LongitudeDegrees>
            </Position>
            <AltitudeMeters>618.20001220703125</AltitudeMeters>
            <DistanceMeters>NAN</DistanceMeters>
          </Trackpoint>
          <Trackpoint>
            <Time>2022-06-16T11:14:20.000Z</Time>
            <Position>
              <LatitudeDegrees>36.84101748280227184295654296875</LatitudeDegrees>
              <LongitudeDegrees>-4.3807934783399105072021484375</LongitudeDegrees>
            </Position>
            <AltitudeMeters>620.5999755859375</AltitudeMeters>
            <DistanceMeters>NAN</DistanceMeters>
          </Trackpoint>
          <Trackpoint>
            <Time>2022-06-16T11:14:25.000Z</Time>
            <Position>
              <LatitudeDegrees>36.84104681946337223052978515625</LatitudeDegrees>
              <LongitudeDegrees>-4.380758106708526611328125</LongitudeDegrees>
            </Position>
            <AltitudeMeters>621.79998779296875</AltitudeMeters>
            <DistanceMeters>NAN</DistanceMeters>
          </Trackpoint>
          <Trackpoint>
            <Time>2022-06-16T11:14:26.000Z</Time>
            <Position>
              <LatitudeDegrees>36.8410546146333217620849609375</LatitudeDegrees>
              <LongitudeDegrees>-4.38074804842472076416015625</LongitudeDegrees>
            </Position>
            <AltitudeMeters>622.20001220703125</AltitudeMeters>
            <DistanceMeters>NAN</DistanceMeters>
          </Trackpoint>
          <Trackpoint>
            <Time>2022-06-16T11:14:30.000Z</Time>
            <Position>
              <LatitudeDegrees>36.8410995416343212127685546875</LatitudeDegrees>
              <LongitudeDegrees>-4.38072935678064823150634765625</LongitudeDegrees>
            </Position>
            <AltitudeMeters>622.5999755859375</AltitudeMeters>
            <DistanceMeters>NAN</DistanceMeters>
          </Trackpoint>
          <Trackpoint>
            <Time>2022-06-16T11:14:31.000Z</Time>
            <Position>
              <LatitudeDegrees>36.8411263637244701385498046875</LatitudeDegrees>
              <LongitudeDegrees>-4.38073187135159969329833984375</LongitudeDegrees>
            </Position>
            <AltitudeMeters>622.20001220703125</AltitudeMeters>
            <DistanceMeters>NAN</DistanceMeters>
          </Trackpoint>
          <Trackpoint>
            <Time>2022-06-16T11:14:40.000Z</Time>
            <Position>
              <LatitudeDegrees>36.84122107923030853271484375</LatitudeDegrees>
              <LongitudeDegrees>-4.38069549389183521270751953125</LongitudeDegrees>
            </Position>
            <AltitudeMeters>623</AltitudeMeters>
            <DistanceMeters>NAN</DistanceMeters>
          </Trackpoint>
          <Trackpoint>
            <Time>2022-06-16T11:14:47.000Z</Time>
            <Position>
              <LatitudeDegrees>36.84130489826202392578125</LatitudeDegrees>
              <LongitudeDegrees>-4.38068074174225330352783203125</LongitudeDegrees>
            </Position>
            <AltitudeMeters>623</AltitudeMeters>
            <DistanceMeters>NAN</DistanceMeters>
          </Trackpoint>
          <Trackpoint>
            <Time>2022-06-16T11:14:50.000Z</Time>
            <Position>
              <LatitudeDegrees>36.84134714305400848388671875</LatitudeDegrees>
              <LongitudeDegrees>-4.38067856244742870330810546875</LongitudeDegrees>
            </Position>
            <AltitudeMeters>622.79998779296875</AltitudeMeters>
            <DistanceMeters>NAN</DistanceMeters>
          </Trackpoint>
          <Trackpoint>
            <Time>2022-06-16T11:15:00.000Z</Time>
            <Position>
              <LatitudeDegrees>36.8415032140910625457763671875</LatitudeDegrees>
              <LongitudeDegrees>-4.380658529698848724365234375</LongitudeDegrees>
            </Position>
            <AltitudeMeters>622.5999755859375</AltitudeMeters>
            <DistanceMeters>NAN</DistanceMeters>
          </Trackpoint>
          <Trackpoint>
            <Time>2022-06-16T11:15:10.000Z</Time>
            <Position>
              <LatitudeDegrees>36.8415796570479869842529296875</LatitudeDegrees>
              <LongitudeDegrees>-4.38059910200536251068115234375</LongitudeDegrees>
            </Position>
            <AltitudeMeters>625</AltitudeMeters>
            <DistanceMeters>NAN</DistanceMeters>
          </Trackpoint>
          <Trackpoint>
            <Time>2022-06-16T11:15:15.000Z</Time>
            <Position>
              <LatitudeDegrees>36.84164612554013729095458984375</LatitudeDegrees>
              <LongitudeDegrees>-4.38057127408683300018310546875</LongitudeDegrees>
            </Position>
            <AltitudeMeters>626</AltitudeMeters>
            <DistanceMeters>NAN</DistanceMeters>
          </Trackpoint>
          <Trackpoint>
            <Time>2022-06-16T11:15:16.000Z</Time>
            <Position>
              <LatitudeDegrees>36.84166272170841693878173828125</LatitudeDegrees>
              <LongitudeDegrees>-4.38057077117264270782470703125</LongitudeDegrees>
            </Position>
            <AltitudeMeters>626</AltitudeMeters>
            <DistanceMeters>NAN</DistanceMeters>
          </Trackpoint>
          <Trackpoint>
            <Time>2022-06-16T11:15:17.000Z</Time>
            <Position>
              <LatitudeDegrees>36.8416788987815380096435546875</LatitudeDegrees>
              <LongitudeDegrees>-4.38057362101972103118896484375</LongitudeDegrees>
            </Position>
            <AltitudeMeters>626</AltitudeMeters>
            <DistanceMeters>NAN</DistanceMeters>
          </Trackpoint>
          <Trackpoint>
            <Time>2022-06-16T11:15:18.000Z</Time>
            <Position>
              <LatitudeDegrees>36.84169490821659564971923828125</LatitudeDegrees>
              <LongitudeDegrees>-4.38057596795260906219482421875</LongitudeDegrees>
            </Position>
            <AltitudeMeters>625.79998779296875</AltitudeMeters>
            <DistanceMeters>NAN</DistanceMeters>
          </Trackpoint>
          <Trackpoint>
            <Time>2022-06-16T11:15:20.000Z</Time>
            <Position>
              <LatitudeDegrees>36.84173614718019962310791015625</LatitudeDegrees>
              <LongitudeDegrees>-4.38060614280402660369873046875</LongitudeDegrees>
            </Position>
            <AltitudeMeters>624.20001220703125</AltitudeMeters>
            <DistanceMeters>NAN</DistanceMeters>
          </Trackpoint>
          <Trackpoint>
            <Time>2022-06-16T11:15:21.000Z</Time>
            <Position>
              <LatitudeDegrees>36.84173614718019962310791015625</LatitudeDegrees>
              <LongitudeDegrees>-4.38060614280402660369873046875</LongitudeDegrees>
            </Position>
            <AltitudeMeters>624.20001220703125</AltitudeMeters>
            <DistanceMeters>NAN</DistanceMeters>
          </Trackpoint>
          <Trackpoint>
            <Time>2022-06-16T11:15:22.000Z</Time>
            <Position>
              <LatitudeDegrees>36.8417452834546566009521484375</LatitudeDegrees>
              <LongitudeDegrees>-4.38061469234526157379150390625</LongitudeDegrees>
            </Position>
            <AltitudeMeters>623.79998779296875</AltitudeMeters>
            <DistanceMeters>NAN</DistanceMeters>
          </Trackpoint>
          <Trackpoint>
            <Time>2022-06-16T11:15:23.000Z</Time>
            <Position>
              <LatitudeDegrees>36.84175274334847927093505859375</LatitudeDegrees>
              <LongitudeDegrees>-4.38062575645744800567626953125</LongitudeDegrees>
            </Position>
            <AltitudeMeters>623.20001220703125</AltitudeMeters>
            <DistanceMeters>NAN</DistanceMeters>
          </Trackpoint>
          <Trackpoint>
            <Time>2022-06-16T11:15:24.000Z</Time>
            <Position>
              <LatitudeDegrees>36.841763556003570556640625</LatitudeDegrees>
              <LongitudeDegrees>-4.38064218498766422271728515625</LongitudeDegrees>
            </Position>
            <AltitudeMeters>622.4000244140625</AltitudeMeters>
            <DistanceMeters>NAN</DistanceMeters>
          </Trackpoint>
          <Trackpoint>
            <Time>2022-06-16T11:15:25.000Z</Time>
            <Position>
              <LatitudeDegrees>36.84177386574447154998779296875</LatitudeDegrees>
              <LongitudeDegrees>-4.380660541355609893798828125</LongitudeDegrees>
            </Position>
            <AltitudeMeters>621.4000244140625</AltitudeMeters>
            <DistanceMeters>NAN</DistanceMeters>
          </Trackpoint>
          <Trackpoint>
            <Time>2022-06-16T11:15:30.000Z</Time>
            <Position>
              <LatitudeDegrees>36.84182030148804187774658203125</LatitudeDegrees>
              <LongitudeDegrees>-4.38072365708649158477783203125</LongitudeDegrees>
            </Position>
            <AltitudeMeters>618.4000244140625</AltitudeMeters>
            <DistanceMeters>NAN</DistanceMeters>
          </Trackpoint>
          <Trackpoint>
            <Time>2022-06-16T11:15:34.000Z</Time>
            <Position>
              <LatitudeDegrees>36.84184343554079532623291015625</LatitudeDegrees>
              <LongitudeDegrees>-4.3807773850858211517333984375</LongitudeDegrees>
            </Position>
            <AltitudeMeters>616.20001220703125</AltitudeMeters>
            <DistanceMeters>NAN</DistanceMeters>
          </Trackpoint>
          <Trackpoint>
            <Time>2022-06-16T11:15:36.000Z</Time>
            <Position>
              <LatitudeDegrees>36.841850392520427703857421875</LatitudeDegrees>
              <LongitudeDegrees>-4.3808015249669551849365234375</LongitudeDegrees>
            </Position>
            <AltitudeMeters>615.20001220703125</AltitudeMeters>
            <DistanceMeters>NAN</DistanceMeters>
          </Trackpoint>
          <Trackpoint>
            <Time>2022-06-16T11:15:37.000Z</Time>
            <Position>
              <LatitudeDegrees>36.84185936115682125091552734375</LatitudeDegrees>
              <LongitudeDegrees>-4.380824156105518341064453125</LongitudeDegrees>
            </Position>
            <AltitudeMeters>614.20001220703125</AltitudeMeters>
            <DistanceMeters>NAN</DistanceMeters>
          </Trackpoint>
          <Trackpoint>
            <Time>2022-06-16T11:15:40.000Z</Time>
            <Position>
              <LatitudeDegrees>36.84187059290707111358642578125</LatitudeDegrees>
              <LongitudeDegrees>-4.3808424286544322967529296875</LongitudeDegrees>
            </Position>
            <AltitudeMeters>613.4000244140625</AltitudeMeters>
            <DistanceMeters>NAN</DistanceMeters>
          </Trackpoint>
          <Trackpoint>
            <Time>2022-06-16T11:15:41.000Z</Time>
            <Position>
              <LatitudeDegrees>36.84187947772443294525146484375</LatitudeDegrees>
              <LongitudeDegrees>-4.38084997236728668212890625</LongitudeDegrees>
            </Position>
            <AltitudeMeters>613</AltitudeMeters>
            <DistanceMeters>NAN</DistanceMeters>
          </Trackpoint>
          <Trackpoint>
            <Time>2022-06-16T11:15:42.000Z</Time>
            <Position>
              <LatitudeDegrees>36.84188853017985820770263671875</LatitudeDegrees>
              <LongitudeDegrees>-4.3808571808040142059326171875</LongitudeDegrees>
            </Position>
            <AltitudeMeters>612.79998779296875</AltitudeMeters>
            <DistanceMeters>NAN</DistanceMeters>
          </Trackpoint>
          <Trackpoint>
            <Time>2022-06-16T11:15:43.000Z</Time>
            <Position>
              <LatitudeDegrees>36.84189707972109317779541015625</LatitudeDegrees>
              <LongitudeDegrees>-4.38086380250751972198486328125</LongitudeDegrees>
            </Position>
            <AltitudeMeters>612.5999755859375</AltitudeMeters>
            <DistanceMeters>NAN</DistanceMeters>
          </Trackpoint>
          <Trackpoint>
            <Time>2022-06-16T11:15:46.000Z</Time>
            <Position>
              <LatitudeDegrees>36.84193898923695087432861328125</LatitudeDegrees>
              <LongitudeDegrees>-4.380885846912860870361328125</LongitudeDegrees>
            </Position>
            <AltitudeMeters>611.5999755859375</AltitudeMeters>
            <DistanceMeters>NAN</DistanceMeters>
          </Trackpoint>
          <Trackpoint>
            <Time>2022-06-16T11:15:50.000Z</Time>
            <Position>
              <LatitudeDegrees>36.841972433030605316162109375</LatitudeDegrees>
              <LongitudeDegrees>-4.3808974139392375946044921875</LongitudeDegrees>
            </Position>
            <AltitudeMeters>611.5999755859375</AltitudeMeters>
            <DistanceMeters>NAN</DistanceMeters>
          </Trackpoint>
          <Trackpoint>
            <Time>2022-06-16T11:16:00.000Z</Time>
            <Position>
              <LatitudeDegrees>36.84213479049503803253173828125</LatitudeDegrees>
              <LongitudeDegrees>-4.3808732740581035614013671875</LongitudeDegrees>
            </Position>
            <AltitudeMeters>613.5999755859375</AltitudeMeters>
            <DistanceMeters>NAN</DistanceMeters>
          </Trackpoint>
          <Trackpoint>
            <Time>2022-06-16T11:16:08.000Z</Time>
            <Position>
              <LatitudeDegrees>36.842216514050960540771484375</LatitudeDegrees>
              <LongitudeDegrees>-4.380816780030727386474609375</LongitudeDegrees>
            </Position>
            <AltitudeMeters>615.4000244140625</AltitudeMeters>
            <DistanceMeters>NAN</DistanceMeters>
          </Trackpoint>
          <Trackpoint>
            <Time>2022-06-16T11:16:10.000Z</Time>
            <Position>
              <LatitudeDegrees>36.84221793897449970245361328125</LatitudeDegrees>
              <LongitudeDegrees>-4.38080429099500179290771484375</LongitudeDegrees>
            </Position>
            <AltitudeMeters>615.79998779296875</AltitudeMeters>
            <DistanceMeters>NAN</DistanceMeters>
          </Trackpoint>
          <Trackpoint>
            <Time>2022-06-16T11:16:20.000Z</Time>
            <Position>
              <LatitudeDegrees>36.842280216515064239501953125</LatitudeDegrees>
              <LongitudeDegrees>-4.38065417110919952392578125</LongitudeDegrees>
            </Position>
            <AltitudeMeters>619.20001220703125</AltitudeMeters>
            <DistanceMeters>NAN</DistanceMeters>
          </Trackpoint>
          <Trackpoint>
            <Time>2022-06-16T11:16:26.000Z</Time>
            <Position>
              <LatitudeDegrees>36.84230494312942028045654296875</LatitudeDegrees>
              <LongitudeDegrees>-4.3805524148046970367431640625</LongitudeDegrees>
            </Position>
            <AltitudeMeters>621.4000244140625</AltitudeMeters>
            <DistanceMeters>NAN</DistanceMeters>
          </Trackpoint>
          <Trackpoint>
            <Time>2022-06-16T11:16:30.000Z</Time>
            <Position>
              <LatitudeDegrees>36.842323802411556243896484375</LatitudeDegrees>
              <LongitudeDegrees>-4.3804665841162204742431640625</LongitudeDegrees>
            </Position>
            <AltitudeMeters>624</AltitudeMeters>
            <DistanceMeters>NAN</DistanceMeters>
          </Trackpoint>
          <Trackpoint>
            <Time>2022-06-16T11:16:40.000Z</Time>
            <Position>
              <LatitudeDegrees>36.8423608504235744476318359375</LatitudeDegrees>
              <LongitudeDegrees>-4.3802955932915210723876953125</LongitudeDegrees>
            </Position>
            <AltitudeMeters>629.79998779296875</AltitudeMeters>
            <DistanceMeters>NAN</DistanceMeters>
          </Trackpoint>
          <Trackpoint>
            <Time>2022-06-16T11:16:47.000Z</Time>
            <Position>
              <LatitudeDegrees>36.84236814267933368682861328125</LatitudeDegrees>
              <LongitudeDegrees>-4.3802042305469512939453125</LongitudeDegrees>
            </Position>
            <AltitudeMeters>633.20001220703125</AltitudeMeters>
            <DistanceMeters>NAN</DistanceMeters>
          </Trackpoint>
          <Trackpoint>
            <Time>2022-06-16T11:16:50.000Z</Time>
            <Position>
              <LatitudeDegrees>36.8423900194466114044189453125</LatitudeDegrees>
              <LongitudeDegrees>-4.38017564825713634490966796875</LongitudeDegrees>
            </Position>
            <AltitudeMeters>634.20001220703125</AltitudeMeters>
            <DistanceMeters>NAN</DistanceMeters>
          </Trackpoint>
          <Trackpoint>
            <Time>2022-06-16T11:16:51.000Z</Time>
            <Position>
              <LatitudeDegrees>36.84240820817649364471435546875</LatitudeDegrees>
              <LongitudeDegrees>-4.38017095439136028289794921875</LongitudeDegrees>
            </Position>
            <AltitudeMeters>634.20001220703125</AltitudeMeters>
            <DistanceMeters>NAN</DistanceMeters>
          </Trackpoint>
          <Trackpoint>
            <Time>2022-06-16T11:16:54.000Z</Time>
            <Position>
              <LatitudeDegrees>36.84243477880954742431640625</LatitudeDegrees>
              <LongitudeDegrees>-4.38018151558935642242431640625</LongitudeDegrees>
            </Position>
            <AltitudeMeters>633.5999755859375</AltitudeMeters>
            <DistanceMeters>NAN</DistanceMeters>
          </Trackpoint>
          <Trackpoint>
            <Time>2022-06-16T11:16:56.000Z</Time>
            <Position>
              <LatitudeDegrees>36.84244743548333644866943359375</LatitudeDegrees>
              <LongitudeDegrees>-4.38018503598868846893310546875</LongitudeDegrees>
            </Position>
            <AltitudeMeters>633.4000244140625</AltitudeMeters>
            <DistanceMeters>NAN</DistanceMeters>
          </Trackpoint>
          <Trackpoint>
            <Time>2022-06-16T11:16:59.000Z</Time>
            <Position>
              <LatitudeDegrees>36.84250560589134693145751953125</LatitudeDegrees>
              <LongitudeDegrees>-4.3802149593830108642578125</LongitudeDegrees>
            </Position>
            <AltitudeMeters>631.79998779296875</AltitudeMeters>
            <DistanceMeters>NAN</DistanceMeters>
          </Trackpoint>
          <Trackpoint>
            <Time>2022-06-16T11:17:00.000Z</Time>
            <Position>
              <LatitudeDegrees>36.84250560589134693145751953125</LatitudeDegrees>
              <LongitudeDegrees>-4.3802149593830108642578125</LongitudeDegrees>
            </Position>
            <AltitudeMeters>631.79998779296875</AltitudeMeters>
            <DistanceMeters>NAN</DistanceMeters>
          </Trackpoint>
          <Trackpoint>
            <Time>2022-06-16T11:17:07.000Z</Time>
            <Position>
              <LatitudeDegrees>36.8425921909511089324951171875</LatitudeDegrees>
              <LongitudeDegrees>-4.380281008780002593994140625</LongitudeDegrees>
            </Position>
            <AltitudeMeters>628.5999755859375</AltitudeMeters>
            <DistanceMeters>NAN</DistanceMeters>
          </Trackpoint>
          <Trackpoint>
            <Time>2022-06-16T11:17:10.000Z</Time>
            <Position>
              <LatitudeDegrees>36.84264038689434528350830078125</LatitudeDegrees>
              <LongitudeDegrees>-4.3803046457469463348388671875</LongitudeDegrees>
            </Position>
            <AltitudeMeters>627.5999755859375</AltitudeMeters>
            <DistanceMeters>NAN</DistanceMeters>
          </Trackpoint>
          <Trackpoint>
            <Time>2022-06-16T11:17:20.000Z</Time>
            <Position>
              <LatitudeDegrees>36.8427479267120361328125</LatitudeDegrees>
              <LongitudeDegrees>-4.38034479506313800811767578125</LongitudeDegrees>
            </Position>
            <AltitudeMeters>626</AltitudeMeters>
            <DistanceMeters>NAN</DistanceMeters>
          </Trackpoint>
          <Trackpoint>
            <Time>2022-06-16T11:17:30.000Z</Time>
            <Position>
              <LatitudeDegrees>36.8428503535687923431396484375</LatitudeDegrees>
              <LongitudeDegrees>-4.3803244270384311676025390625</LongitudeDegrees>
            </Position>
            <AltitudeMeters>626.79998779296875</AltitudeMeters>
            <DistanceMeters>NAN</DistanceMeters>
          </Trackpoint>
          <Trackpoint>
            <Time>2022-06-16T11:17:38.000Z</Time>
            <Position>
              <LatitudeDegrees>36.84293861500918865203857421875</LatitudeDegrees>
              <LongitudeDegrees>-4.38027908094227313995361328125</LongitudeDegrees>
            </Position>
            <AltitudeMeters>629.4000244140625</AltitudeMeters>
            <DistanceMeters>NAN</DistanceMeters>
          </Trackpoint>
          <Trackpoint>
            <Time>2022-06-16T11:17:40.000Z</Time>
            <Position>
              <LatitudeDegrees>36.842963509261608123779296875</LatitudeDegrees>
              <LongitudeDegrees>-4.38027924858033657073974609375</LongitudeDegrees>
            </Position>
            <AltitudeMeters>629.5999755859375</AltitudeMeters>
            <DistanceMeters>NAN</DistanceMeters>
          </Trackpoint>
          <Trackpoint>
            <Time>2022-06-16T11:17:50.000Z</Time>
            <Position>
              <LatitudeDegrees>36.8431011401116847991943359375</LatitudeDegrees>
              <LongitudeDegrees>-4.380261562764644622802734375</LongitudeDegrees>
            </Position>
            <AltitudeMeters>631.79998779296875</AltitudeMeters>
            <DistanceMeters>NAN</DistanceMeters>
          </Trackpoint>
          <Trackpoint>
            <Time>2022-06-16T11:17:57.000Z</Time>
            <Position>
              <LatitudeDegrees>36.84321857057511806488037109375</LatitudeDegrees>
              <LongitudeDegrees>-4.3802550248801708221435546875</LongitudeDegrees>
            </Position>
            <AltitudeMeters>630.5999755859375</AltitudeMeters>
            <DistanceMeters>NAN</DistanceMeters>
          </Trackpoint>
          <Trackpoint>
            <Time>2022-06-16T11:18:00.000Z</Time>
            <Position>
              <LatitudeDegrees>36.84325955808162689208984375</LatitudeDegrees>
              <LongitudeDegrees>-4.3802506662905216217041015625</LongitudeDegrees>
            </Position>
            <AltitudeMeters>629.5999755859375</AltitudeMeters>
            <DistanceMeters>NAN</DistanceMeters>
          </Trackpoint>
          <Trackpoint>
            <Time>2022-06-16T11:18:10.000Z</Time>
            <Position>
              <LatitudeDegrees>36.8433633260428905487060546875</LatitudeDegrees>
              <LongitudeDegrees>-4.3801586329936981201171875</LongitudeDegrees>
            </Position>
            <AltitudeMeters>628.79998779296875</AltitudeMeters>
            <DistanceMeters>NAN</DistanceMeters>
          </Trackpoint>
          <Trackpoint>
            <Time>2022-06-16T11:18:20.000Z</Time>
            <Position>
              <LatitudeDegrees>36.84343214146792888641357421875</LatitudeDegrees>
              <LongitudeDegrees>-4.38000733964145183563232421875</LongitudeDegrees>
            </Position>
            <AltitudeMeters>630</AltitudeMeters>
            <DistanceMeters>NAN</DistanceMeters>
          </Trackpoint>
          <Trackpoint>
            <Time>2022-06-16T11:18:24.000Z</Time>
            <Position>
              <LatitudeDegrees>36.84344865381717681884765625</LatitudeDegrees>
              <LongitudeDegrees>-4.379930980503559112548828125</LongitudeDegrees>
            </Position>
            <AltitudeMeters>630.5999755859375</AltitudeMeters>
            <DistanceMeters>NAN</DistanceMeters>
          </Trackpoint>
          <Trackpoint>
            <Time>2022-06-16T11:18:26.000Z</Time>
            <Position>
              <LatitudeDegrees>36.843459047377109527587890625</LatitudeDegrees>
              <LongitudeDegrees>-4.37989166937768459320068359375</LongitudeDegrees>
            </Position>
            <AltitudeMeters>630.79998779296875</AltitudeMeters>
            <DistanceMeters>NAN</DistanceMeters>
          </Trackpoint>
          <Trackpoint>
            <Time>2022-06-16T11:18:28.000Z</Time>
            <Position>
              <LatitudeDegrees>36.843470446765422821044921875</LatitudeDegrees>
              <LongitudeDegrees>-4.37986199744045734405517578125</LongitudeDegrees>
            </Position>
            <AltitudeMeters>630.5999755859375</AltitudeMeters>
            <DistanceMeters>NAN</DistanceMeters>
          </Trackpoint>
          <Trackpoint>
            <Time>2022-06-16T11:18:29.000Z</Time>
            <Position>
              <LatitudeDegrees>36.84347539208829402923583984375</LatitudeDegrees>
              <LongitudeDegrees>-4.37984682619571685791015625</LongitudeDegrees>
            </Position>
            <AltitudeMeters>630.5999755859375</AltitudeMeters>
            <DistanceMeters>NAN</DistanceMeters>
          </Trackpoint>
          <Trackpoint>
            <Time>2022-06-16T11:18:30.000Z</Time>
            <Position>
              <LatitudeDegrees>36.84347656555473804473876953125</LatitudeDegrees>
              <LongitudeDegrees>-4.37983266077935695648193359375</LongitudeDegrees>
            </Position>
            <AltitudeMeters>630.79998779296875</AltitudeMeters>
            <DistanceMeters>NAN</DistanceMeters>
          </Trackpoint>
          <Trackpoint>
            <Time>2022-06-16T11:18:31.000Z</Time>
            <Position>
              <LatitudeDegrees>36.8434776552021503448486328125</LatitudeDegrees>
              <LongitudeDegrees>-4.37981874682009220123291015625</LongitudeDegrees>
            </Position>
            <AltitudeMeters>631</AltitudeMeters>
            <DistanceMeters>NAN</DistanceMeters>
          </Trackpoint>
          <Trackpoint>
            <Time>2022-06-16T11:18:32.000Z</Time>
            <Position>
              <LatitudeDegrees>36.84348008595407009124755859375</LatitudeDegrees>
              <LongitudeDegrees>-4.37980483286082744598388671875</LongitudeDegrees>
            </Position>
            <AltitudeMeters>631.20001220703125</AltitudeMeters>
            <DistanceMeters>NAN</DistanceMeters>
          </Trackpoint>
          <Trackpoint>
            <Time>2022-06-16T11:18:33.000Z</Time>
            <Position>
              <LatitudeDegrees>36.84348394162952899932861328125</LatitudeDegrees>
              <LongitudeDegrees>-4.3797906674444675445556640625</LongitudeDegrees>
            </Position>
            <AltitudeMeters>631.20001220703125</AltitudeMeters>
            <DistanceMeters>NAN</DistanceMeters>
          </Trackpoint>
          <Trackpoint>
            <Time>2022-06-16T11:18:34.000Z</Time>
            <Position>
              <LatitudeDegrees>36.84348695911467075347900390625</LatitudeDegrees>
              <LongitudeDegrees>-4.3797762505710124969482421875</LongitudeDegrees>
            </Position>
            <AltitudeMeters>631.20001220703125</AltitudeMeters>
            <DistanceMeters>NAN</DistanceMeters>
          </Trackpoint>
          <Trackpoint>
            <Time>2022-06-16T11:18:38.000Z</Time>
            <Position>
              <LatitudeDegrees>36.8435121886432170867919921875</LatitudeDegrees>
              <LongitudeDegrees>-4.379717409610748291015625</LongitudeDegrees>
            </Position>
            <AltitudeMeters>631</AltitudeMeters>
            <DistanceMeters>NAN</DistanceMeters>
          </Trackpoint>
          <Trackpoint>
            <Time>2022-06-16T11:18:40.000Z</Time>
            <Position>
              <LatitudeDegrees>36.8435136973857879638671875</LatitudeDegrees>
              <LongitudeDegrees>-4.379678182303905487060546875</LongitudeDegrees>
            </Position>
            <AltitudeMeters>632</AltitudeMeters>
            <DistanceMeters>NAN</DistanceMeters>
          </Trackpoint>
          <Trackpoint>
            <Time>2022-06-16T11:18:42.000Z</Time>
            <Position>
              <LatitudeDegrees>36.84351730160415172576904296875</LatitudeDegrees>
              <LongitudeDegrees>-4.3796488456428050994873046875</LongitudeDegrees>
            </Position>
            <AltitudeMeters>633</AltitudeMeters>
            <DistanceMeters>NAN</DistanceMeters>
          </Trackpoint>
          <Trackpoint>
            <Time>2022-06-16T11:18:43.000Z</Time>
            <Position>
              <LatitudeDegrees>36.84351696632802486419677734375</LatitudeDegrees>
              <LongitudeDegrees>-4.37963266856968402862548828125</LongitudeDegrees>
            </Position>
            <AltitudeMeters>633.79998779296875</AltitudeMeters>
            <DistanceMeters>NAN</DistanceMeters>
          </Trackpoint>
          <Trackpoint>
            <Time>2022-06-16T11:18:46.000Z</Time>
            <Position>
              <LatitudeDegrees>36.84351311065256595611572265625</LatitudeDegrees>
              <LongitudeDegrees>-4.3795750848948955535888671875</LongitudeDegrees>
            </Position>
            <AltitudeMeters>636.4000244140625</AltitudeMeters>
            <DistanceMeters>NAN</DistanceMeters>
          </Trackpoint>
          <Trackpoint>
            <Time>2022-06-16T11:18:48.000Z</Time>
            <Position>
              <LatitudeDegrees>36.8435168825089931488037109375</LatitudeDegrees>
              <LongitudeDegrees>-4.37953979708254337310791015625</LongitudeDegrees>
            </Position>
            <AltitudeMeters>637.5999755859375</AltitudeMeters>
            <DistanceMeters>NAN</DistanceMeters>
          </Trackpoint>
          <Trackpoint>
            <Time>2022-06-16T11:18:49.000Z</Time>
            <Position>
              <LatitudeDegrees>36.84352534823119640350341796875</LatitudeDegrees>
              <LongitudeDegrees>-4.37952286563813686370849609375</LongitudeDegrees>
            </Position>
            <AltitudeMeters>637.79998779296875</AltitudeMeters>
            <DistanceMeters>NAN</DistanceMeters>
          </Trackpoint>
          <Trackpoint>
            <Time>2022-06-16T11:18:50.000Z</Time>
            <Position>
              <LatitudeDegrees>36.84352769516408443450927734375</LatitudeDegrees>
              <LongitudeDegrees>-4.37950660474598407745361328125</LongitudeDegrees>
            </Position>
            <AltitudeMeters>638.20001220703125</AltitudeMeters>
            <DistanceMeters>NAN</DistanceMeters>
          </Trackpoint>
          <Trackpoint>
            <Time>2022-06-16T11:19:00.000Z</Time>
            <Position>
              <LatitudeDegrees>36.84356859885156154632568359375</LatitudeDegrees>
              <LongitudeDegrees>-4.379338882863521575927734375</LongitudeDegrees>
            </Position>
            <AltitudeMeters>643.4000244140625</AltitudeMeters>
            <DistanceMeters>NAN</DistanceMeters>
          </Trackpoint>
          <Trackpoint>
            <Time>2022-06-16T11:19:10.000Z</Time>
            <Position>
              <LatitudeDegrees>36.84364487417042255401611328125</LatitudeDegrees>
              <LongitudeDegrees>-4.3791814707219600677490234375</LongitudeDegrees>
            </Position>
            <AltitudeMeters>647.4000244140625</AltitudeMeters>
            <DistanceMeters>NAN</DistanceMeters>
          </Trackpoint>
          <Trackpoint>
            <Time>2022-06-16T11:19:14.000Z</Time>
            <Position>
              <LatitudeDegrees>36.84367597103118896484375</LatitudeDegrees>
              <LongitudeDegrees>-4.3791278265416622161865234375</LongitudeDegrees>
            </Position>
            <AltitudeMeters>648.4000244140625</AltitudeMeters>
            <DistanceMeters>NAN</DistanceMeters>
          </Trackpoint>
          <Trackpoint>
            <Time>2022-06-16T11:19:18.000Z</Time>
            <Position>
              <LatitudeDegrees>36.843716204166412353515625</LatitudeDegrees>
              <LongitudeDegrees>-4.37907837331295013427734375</LongitudeDegrees>
            </Position>
            <AltitudeMeters>648</AltitudeMeters>
            <DistanceMeters>NAN</DistanceMeters>
          </Trackpoint>
          <Trackpoint>
            <Time>2022-06-16T11:19:20.000Z</Time>
            <Position>
              <LatitudeDegrees>36.84373875148594379425048828125</LatitudeDegrees>
              <LongitudeDegrees>-4.3790554068982601165771484375</LongitudeDegrees>
            </Position>
            <AltitudeMeters>647</AltitudeMeters>
            <DistanceMeters>NAN</DistanceMeters>
          </Trackpoint>
          <Trackpoint>
            <Time>2022-06-16T11:19:25.000Z</Time>
            <Position>
              <LatitudeDegrees>36.84378904290497303009033203125</LatitudeDegrees>
              <LongitudeDegrees>-4.37899120151996612548828125</LongitudeDegrees>
            </Position>
            <AltitudeMeters>645.4000244140625</AltitudeMeters>
            <DistanceMeters>NAN</DistanceMeters>
          </Trackpoint>
          <Trackpoint>
            <Time>2022-06-16T11:19:28.000Z</Time>
            <Position>
              <LatitudeDegrees>36.8438129313290119171142578125</LatitudeDegrees>
              <LongitudeDegrees>-4.3789591826498508453369140625</LongitudeDegrees>
            </Position>
            <AltitudeMeters>644.79998779296875</AltitudeMeters>
            <DistanceMeters>NAN</DistanceMeters>
          </Trackpoint>
          <Trackpoint>
            <Time>2022-06-16T11:19:29.000Z</Time>
            <Position>
              <LatitudeDegrees>36.8438213132321834564208984375</LatitudeDegrees>
              <LongitudeDegrees>-4.37894719652831554412841796875</LongitudeDegrees>
            </Position>
            <AltitudeMeters>644.5999755859375</AltitudeMeters>
            <DistanceMeters>NAN</DistanceMeters>
          </Trackpoint>
          <Trackpoint>
            <Time>2022-06-16T11:19:30.000Z</Time>
            <Position>
              <LatitudeDegrees>36.84382894076406955718994140625</LatitudeDegrees>
              <LongitudeDegrees>-4.3789326958358287811279296875</LongitudeDegrees>
            </Position>
            <AltitudeMeters>644.4000244140625</AltitudeMeters>
            <DistanceMeters>NAN</DistanceMeters>
          </Trackpoint>
          <Trackpoint>
            <Time>2022-06-16T11:19:31.000Z</Time>
            <Position>
              <LatitudeDegrees>36.8438364006578922271728515625</LatitudeDegrees>
              <LongitudeDegrees>-4.37891987152397632598876953125</LongitudeDegrees>
            </Position>
            <AltitudeMeters>644.20001220703125</AltitudeMeters>
            <DistanceMeters>NAN</DistanceMeters>
          </Trackpoint>
          <Trackpoint>
            <Time>2022-06-16T11:19:40.000Z</Time>
            <Position>
              <LatitudeDegrees>36.8438937328755855560302734375</LatitudeDegrees>
              <LongitudeDegrees>-4.37880420126020908355712890625</LongitudeDegrees>
            </Position>
            <AltitudeMeters>644.20001220703125</AltitudeMeters>
            <DistanceMeters>NAN</DistanceMeters>
          </Trackpoint>
          <Trackpoint>
            <Time>2022-06-16T11:19:41.000Z</Time>
            <Position>
              <LatitudeDegrees>36.84390194714069366455078125</LatitudeDegrees>
              <LongitudeDegrees>-4.37878995202481746673583984375</LongitudeDegrees>
            </Position>
            <AltitudeMeters>644.20001220703125</AltitudeMeters>
            <DistanceMeters>NAN</DistanceMeters>
          </Trackpoint>
          <Trackpoint>
            <Time>2022-06-16T11:19:50.000Z</Time>
            <Position>
              <LatitudeDegrees>36.843994148075580596923828125</LatitudeDegrees>
              <LongitudeDegrees>-4.37866506166756153106689453125</LongitudeDegrees>
            </Position>
            <AltitudeMeters>643.20001220703125</AltitudeMeters>
            <DistanceMeters>NAN</DistanceMeters>
          </Trackpoint>
          <Trackpoint>
            <Time>2022-06-16T11:19:57.000Z</Time>
            <Position>
              <LatitudeDegrees>36.8440308608114719390869140625</LatitudeDegrees>
              <LongitudeDegrees>-4.378554336726665496826171875</LongitudeDegrees>
            </Position>
            <AltitudeMeters>646</AltitudeMeters>
            <DistanceMeters>NAN</DistanceMeters>
          </Trackpoint>
          <Trackpoint>
            <Time>2022-06-16T11:19:58.000Z</Time>
            <Position>
              <LatitudeDegrees>36.84404016472399234771728515625</LatitudeDegrees>
              <LongitudeDegrees>-4.37854201532900333404541015625</LongitudeDegrees>
            </Position>
            <AltitudeMeters>646</AltitudeMeters>
            <DistanceMeters>NAN</DistanceMeters>
          </Trackpoint>
          <Trackpoint>
            <Time>2022-06-16T11:20:00.000Z</Time>
            <Position>
              <LatitudeDegrees>36.84406078420579433441162109375</LatitudeDegrees>
              <LongitudeDegrees>-4.3785198032855987548828125</LongitudeDegrees>
            </Position>
            <AltitudeMeters>646</AltitudeMeters>
            <DistanceMeters>NAN</DistanceMeters>
          </Trackpoint>
          <Trackpoint>
            <Time>2022-06-16T11:20:02.000Z</Time>
            <Position>
              <LatitudeDegrees>36.84407654218375682830810546875</LatitudeDegrees>
              <LongitudeDegrees>-4.3784894607961177825927734375</LongitudeDegrees>
            </Position>
            <AltitudeMeters>646.5999755859375</AltitudeMeters>
            <DistanceMeters>NAN</DistanceMeters>
          </Trackpoint>
          <Trackpoint>
            <Time>2022-06-16T11:20:04.000Z</Time>
            <Position>
              <LatitudeDegrees>36.84409313835203647613525390625</LatitudeDegrees>
              <LongitudeDegrees>-4.37846205197274684906005859375</LongitudeDegrees>
            </Position>
            <AltitudeMeters>646.79998779296875</AltitudeMeters>
            <DistanceMeters>NAN</DistanceMeters>
          </Trackpoint>
          <Trackpoint>
            <Time>2022-06-16T11:20:08.000Z</Time>
            <Position>
              <LatitudeDegrees>36.84413605369627475738525390625</LatitudeDegrees>
              <LongitudeDegrees>-4.3784244172275066375732421875</LongitudeDegrees>
            </Position>
            <AltitudeMeters>646.5999755859375</AltitudeMeters>
            <DistanceMeters>NAN</DistanceMeters>
          </Trackpoint>
          <Trackpoint>
            <Time>2022-06-16T11:20:10.000Z</Time>
            <Position>
              <LatitudeDegrees>36.8441562540829181671142578125</LatitudeDegrees>
              <LongitudeDegrees>-4.37840907834470272064208984375</LongitudeDegrees>
            </Position>
            <AltitudeMeters>646.20001220703125</AltitudeMeters>
            <DistanceMeters>NAN</DistanceMeters>
          </Trackpoint>
          <Trackpoint>
            <Time>2022-06-16T11:20:19.000Z</Time>
            <Position>
              <LatitudeDegrees>36.8442405760288238525390625</LatitudeDegrees>
              <LongitudeDegrees>-4.37833967618644237518310546875</LongitudeDegrees>
            </Position>
            <AltitudeMeters>645.4000244140625</AltitudeMeters>
            <DistanceMeters>NAN</DistanceMeters>
          </Trackpoint>
          <Trackpoint>
            <Time>2022-06-16T11:20:20.000Z</Time>
            <Position>
              <LatitudeDegrees>36.8442499637603759765625</LatitudeDegrees>
              <LongitudeDegrees>-4.378333054482936859130859375</LongitudeDegrees>
            </Position>
            <AltitudeMeters>645.20001220703125</AltitudeMeters>
            <DistanceMeters>NAN</DistanceMeters>
          </Trackpoint>
          <Trackpoint>
            <Time>2022-06-16T11:20:30.000Z</Time>
            <Position>
              <LatitudeDegrees>36.84436387382447719573974609375</LatitudeDegrees>
              <LongitudeDegrees>-4.378263317048549652099609375</LongitudeDegrees>
            </Position>
            <AltitudeMeters>641</AltitudeMeters>
            <DistanceMeters>NAN</DistanceMeters>
          </Trackpoint>
          <Trackpoint>
            <Time>2022-06-16T11:20:40.000Z</Time>
            <Position>
              <LatitudeDegrees>36.84446931816637516021728515625</LatitudeDegrees>
              <LongitudeDegrees>-4.3781585432589054107666015625</LongitudeDegrees>
            </Position>
            <AltitudeMeters>638.5999755859375</AltitudeMeters>
            <DistanceMeters>NAN</DistanceMeters>
          </Trackpoint>
          <Trackpoint>
            <Time>2022-06-16T11:20:46.000Z</Time>
            <Position>
              <LatitudeDegrees>36.8445190228521823883056640625</LatitudeDegrees>
              <LongitudeDegrees>-4.3780810944736003875732421875</LongitudeDegrees>
            </Position>
            <AltitudeMeters>638.79998779296875</AltitudeMeters>
            <DistanceMeters>NAN</DistanceMeters>
          </Trackpoint>
          <Trackpoint>
            <Time>2022-06-16T11:20:50.000Z</Time>
            <Position>
              <LatitudeDegrees>36.84457509778439998626708984375</LatitudeDegrees>
              <LongitudeDegrees>-4.3780401907861232757568359375</LongitudeDegrees>
            </Position>
            <AltitudeMeters>638</AltitudeMeters>
            <DistanceMeters>NAN</DistanceMeters>
          </Trackpoint>
          <Trackpoint>
            <Time>2022-06-16T11:20:57.000Z</Time>
            <Position>
              <LatitudeDegrees>36.84466931037604808807373046875</LatitudeDegrees>
              <LongitudeDegrees>-4.3779872171580791473388671875</LongitudeDegrees>
            </Position>
            <AltitudeMeters>636.20001220703125</AltitudeMeters>
            <DistanceMeters>NAN</DistanceMeters>
          </Trackpoint>
          <Trackpoint>
            <Time>2022-06-16T11:21:00.000Z</Time>
            <Position>
              <LatitudeDegrees>36.8447099626064300537109375</LatitudeDegrees>
              <LongitudeDegrees>-4.37795679084956645965576171875</LongitudeDegrees>
            </Position>
            <AltitudeMeters>635.5999755859375</AltitudeMeters>
            <DistanceMeters>NAN</DistanceMeters>
          </Trackpoint>
          <Trackpoint>
            <Time>2022-06-16T11:21:10.000Z</Time>
            <Position>
              <LatitudeDegrees>36.844847090542316436767578125</LatitudeDegrees>
              <LongitudeDegrees>-4.377853609621524810791015625</LongitudeDegrees>
            </Position>
            <AltitudeMeters>633.79998779296875</AltitudeMeters>
            <DistanceMeters>NAN</DistanceMeters>
          </Trackpoint>
          <Trackpoint>
            <Time>2022-06-16T11:21:20.000Z</Time>
            <Position>
              <LatitudeDegrees>36.84494725428521633148193359375</LatitudeDegrees>
              <LongitudeDegrees>-4.37769862823188304901123046875</LongitudeDegrees>
            </Position>
            <AltitudeMeters>635.4000244140625</AltitudeMeters>
            <DistanceMeters>NAN</DistanceMeters>
          </Trackpoint>
          <Trackpoint>
            <Time>2022-06-16T11:21:25.000Z</Time>
            <Position>
              <LatitudeDegrees>36.844981871545314788818359375</LatitudeDegrees>
              <LongitudeDegrees>-4.37760843895375728607177734375</LongitudeDegrees>
            </Position>
            <AltitudeMeters>636.4000244140625</AltitudeMeters>
            <DistanceMeters>NAN</DistanceMeters>
          </Trackpoint>
          <Trackpoint>
            <Time>2022-06-16T11:21:26.000Z</Time>
            <Position>
              <LatitudeDegrees>36.8449880741536617279052734375</LatitudeDegrees>
              <LongitudeDegrees>-4.3775909207761287689208984375</LongitudeDegrees>
            </Position>
            <AltitudeMeters>636.5999755859375</AltitudeMeters>
            <DistanceMeters>NAN</DistanceMeters>
          </Trackpoint>
          <Trackpoint>
            <Time>2022-06-16T11:21:27.000Z</Time>
            <Position>
              <LatitudeDegrees>36.844990253448486328125</LatitudeDegrees>
              <LongitudeDegrees>-4.37757088802754878997802734375</LongitudeDegrees>
            </Position>
            <AltitudeMeters>637</AltitudeMeters>
            <DistanceMeters>NAN</DistanceMeters>
          </Trackpoint>
          <Trackpoint>
            <Time>2022-06-16T11:21:28.000Z</Time>
            <Position>
              <LatitudeDegrees>36.84499486349523067474365234375</LatitudeDegrees>
              <LongitudeDegrees>-4.37755311839282512664794921875</LongitudeDegrees>
            </Position>
            <AltitudeMeters>637.4000244140625</AltitudeMeters>
            <DistanceMeters>NAN</DistanceMeters>
          </Trackpoint>
          <Trackpoint>
            <Time>2022-06-16T11:21:30.000Z</Time>
            <Position>
              <LatitudeDegrees>36.8449991382658481597900390625</LatitudeDegrees>
              <LongitudeDegrees>-4.37751732766628265380859375</LongitudeDegrees>
            </Position>
            <AltitudeMeters>638.4000244140625</AltitudeMeters>
            <DistanceMeters>NAN</DistanceMeters>
          </Trackpoint>
          <Trackpoint>
            <Time>2022-06-16T11:21:31.000Z</Time>
            <Position>
              <LatitudeDegrees>36.84500391595065593719482421875</LatitudeDegrees>
              <LongitudeDegrees>-4.377499558031558990478515625</LongitudeDegrees>
            </Position>
            <AltitudeMeters>638.5999755859375</AltitudeMeters>
            <DistanceMeters>NAN</DistanceMeters>
          </Trackpoint>
          <Trackpoint>
            <Time>2022-06-16T11:21:32.000Z</Time>
            <Position>
              <LatitudeDegrees>36.84500961564481258392333984375</LatitudeDegrees>
              <LongitudeDegrees>-4.37748405151069164276123046875</LongitudeDegrees>
            </Position>
            <AltitudeMeters>639</AltitudeMeters>
            <DistanceMeters>NAN</DistanceMeters>
          </Trackpoint>
          <Trackpoint>
            <Time>2022-06-16T11:21:33.000Z</Time>
            <Position>
              <LatitudeDegrees>36.845012716948986053466796875</LatitudeDegrees>
              <LongitudeDegrees>-4.37746678479015827178955078125</LongitudeDegrees>
            </Position>
            <AltitudeMeters>639.4000244140625</AltitudeMeters>
            <DistanceMeters>NAN</DistanceMeters>
          </Trackpoint>
          <Trackpoint>
            <Time>2022-06-16T11:21:34.000Z</Time>
            <Position>
              <LatitudeDegrees>36.84501799754798412322998046875</LatitudeDegrees>
              <LongitudeDegrees>-4.377451278269290924072265625</LongitudeDegrees>
            </Position>
            <AltitudeMeters>639.20001220703125</AltitudeMeters>
            <DistanceMeters>NAN</DistanceMeters>
          </Trackpoint>
          <Trackpoint>
            <Time>2022-06-16T11:21:40.000Z</Time>
            <Position>
              <LatitudeDegrees>36.8450291454792022705078125</LatitudeDegrees>
              <LongitudeDegrees>-4.3773542158305644989013671875</LongitudeDegrees>
            </Position>
            <AltitudeMeters>639.4000244140625</AltitudeMeters>
            <DistanceMeters>NAN</DistanceMeters>
          </Trackpoint>
          <Trackpoint>
            <Time>2022-06-16T11:21:50.000Z</Time>
            <Position>
              <LatitudeDegrees>36.845132745802402496337890625</LatitudeDegrees>
              <LongitudeDegrees>-4.37736980617046356201171875</LongitudeDegrees>
            </Position>
            <AltitudeMeters>637.4000244140625</AltitudeMeters>
            <DistanceMeters>NAN</DistanceMeters>
          </Trackpoint>
          <Trackpoint>
            <Time>2022-06-16T11:21:57.000Z</Time>
            <Position>
              <LatitudeDegrees>36.84516652487218379974365234375</LatitudeDegrees>
              <LongitudeDegrees>-4.37747533433139324188232421875</LongitudeDegrees>
            </Position>
            <AltitudeMeters>636.79998779296875</AltitudeMeters>
            <DistanceMeters>NAN</DistanceMeters>
          </Trackpoint>
          <Trackpoint>
            <Time>2022-06-16T11:22:00.000Z</Time>
            <Position>
              <LatitudeDegrees>36.8451754935085773468017578125</LatitudeDegrees>
              <LongitudeDegrees>-4.37750391662120819091796875</LongitudeDegrees>
            </Position>
            <AltitudeMeters>636.4000244140625</AltitudeMeters>
            <DistanceMeters>NAN</DistanceMeters>
          </Trackpoint>
          <Trackpoint>
            <Time>2022-06-16T11:22:06.000Z</Time>
            <Position>
              <LatitudeDegrees>36.84520742855966091156005859375</LatitudeDegrees>
              <LongitudeDegrees>-4.37760978005826473236083984375</LongitudeDegrees>
            </Position>
            <AltitudeMeters>634.4000244140625</AltitudeMeters>
            <DistanceMeters>NAN</DistanceMeters>
          </Trackpoint>
          <Trackpoint>
            <Time>2022-06-16T11:22:10.000Z</Time>
            <Position>
              <LatitudeDegrees>36.84523190371692180633544921875</LatitudeDegrees>
              <LongitudeDegrees>-4.37768370844423770904541015625</LongitudeDegrees>
            </Position>
            <AltitudeMeters>634.79998779296875</AltitudeMeters>
            <DistanceMeters>NAN</DistanceMeters>
          </Trackpoint>
          <Trackpoint>
            <Time>2022-06-16T11:22:20.000Z</Time>
            <Position>
              <LatitudeDegrees>36.8452747352421283721923828125</LatitudeDegrees>
              <LongitudeDegrees>-4.3778386898338794708251953125</LongitudeDegrees>
            </Position>
            <AltitudeMeters>635.5999755859375</AltitudeMeters>
            <DistanceMeters>NAN</DistanceMeters>
          </Trackpoint>
          <Trackpoint>
            <Time>2022-06-16T11:22:24.000Z</Time>
            <Position>
              <LatitudeDegrees>36.84529225341975688934326171875</LatitudeDegrees>
              <LongitudeDegrees>-4.377900548279285430908203125</LongitudeDegrees>
            </Position>
            <AltitudeMeters>636.4000244140625</AltitudeMeters>
            <DistanceMeters>NAN</DistanceMeters>
          </Trackpoint>
          <Trackpoint>
            <Time>2022-06-16T11:22:26.000Z</Time>
            <Position>
              <LatitudeDegrees>36.8452904932200908660888671875</LatitudeDegrees>
              <LongitudeDegrees>-4.37794153578579425811767578125</LongitudeDegrees>
            </Position>
            <AltitudeMeters>636.79998779296875</AltitudeMeters>
            <DistanceMeters>NAN</DistanceMeters>
          </Trackpoint>
          <Trackpoint>
            <Time>2022-06-16T11:22:27.000Z</Time>
            <Position>
              <LatitudeDegrees>36.8452888168394565582275390625</LatitudeDegrees>
              <LongitudeDegrees>-4.37795964069664478302001953125</LongitudeDegrees>
            </Position>
            <AltitudeMeters>636.79998779296875</AltitudeMeters>
            <DistanceMeters>NAN</DistanceMeters>
          </Trackpoint>
          <Trackpoint>
            <Time>2022-06-16T11:22:29.000Z</Time>
            <Position>
              <LatitudeDegrees>36.8452891521155834197998046875</LatitudeDegrees>
              <LongitudeDegrees>-4.37799802981317043304443359375</LongitudeDegrees>
            </Position>
            <AltitudeMeters>637</AltitudeMeters>
            <DistanceMeters>NAN</DistanceMeters>
          </Trackpoint>
          <Trackpoint>
            <Time>2022-06-16T11:22:30.000Z</Time>
            <Position>
              <LatitudeDegrees>36.84528864920139312744140625</LatitudeDegrees>
              <LongitudeDegrees>-4.37801663763821125030517578125</LongitudeDegrees>
            </Position>
            <AltitudeMeters>637.20001220703125</AltitudeMeters>
            <DistanceMeters>NAN</DistanceMeters>
          </Trackpoint>
          <Trackpoint>
            <Time>2022-06-16T11:22:33.000Z</Time>
            <Position>
              <LatitudeDegrees>36.84527716599404811859130859375</LatitudeDegrees>
              <LongitudeDegrees>-4.37805376946926116943359375</LongitudeDegrees>
            </Position>
            <AltitudeMeters>636.79998779296875</AltitudeMeters>
            <DistanceMeters>NAN</DistanceMeters>
          </Trackpoint>
          <Trackpoint>
            <Time>2022-06-16T11:22:40.000Z</Time>
            <Position>
              <LatitudeDegrees>36.84525939635932445526123046875</LatitudeDegrees>
              <LongitudeDegrees>-4.37814421020448207855224609375</LongitudeDegrees>
            </Position>
            <AltitudeMeters>636.4000244140625</AltitudeMeters>
            <DistanceMeters>NAN</DistanceMeters>
          </Trackpoint>
          <Trackpoint>
            <Time>2022-06-16T11:22:43.000Z</Time>
            <Position>
              <LatitudeDegrees>36.8452485837042331695556640625</LatitudeDegrees>
              <LongitudeDegrees>-4.37818662263453006744384765625</LongitudeDegrees>
            </Position>
            <AltitudeMeters>636</AltitudeMeters>
            <DistanceMeters>NAN</DistanceMeters>
          </Trackpoint>
          <Trackpoint>
            <Time>2022-06-16T11:22:47.000Z</Time>
            <Position>
              <LatitudeDegrees>36.84521681629121303558349609375</LatitudeDegrees>
              <LongitudeDegrees>-4.37823750078678131103515625</LongitudeDegrees>
            </Position>
            <AltitudeMeters>635.20001220703125</AltitudeMeters>
            <DistanceMeters>NAN</DistanceMeters>
          </Trackpoint>
          <Trackpoint>
            <Time>2022-06-16T11:22:50.000Z</Time>
            <Position>
              <LatitudeDegrees>36.84518806636333465576171875</LatitudeDegrees>
              <LongitudeDegrees>-4.3782649934291839599609375</LongitudeDegrees>
            </Position>
            <AltitudeMeters>634.20001220703125</AltitudeMeters>
            <DistanceMeters>NAN</DistanceMeters>
          </Trackpoint>
          <Trackpoint>
            <Time>2022-06-16T11:22:55.000Z</Time>
            <Position>
              <LatitudeDegrees>36.84514758177101612091064453125</LatitudeDegrees>
              <LongitudeDegrees>-4.37832743860781192779541015625</LongitudeDegrees>
            </Position>
            <AltitudeMeters>633.20001220703125</AltitudeMeters>
            <DistanceMeters>NAN</DistanceMeters>
          </Trackpoint>
          <Trackpoint>
            <Time>2022-06-16T11:23:00.000Z</Time>
            <Position>
              <LatitudeDegrees>36.84511288069188594818115234375</LatitudeDegrees>
              <LongitudeDegrees>-4.378390051424503326416015625</LongitudeDegrees>
            </Position>
            <AltitudeMeters>632.5999755859375</AltitudeMeters>
            <DistanceMeters>NAN</DistanceMeters>
          </Trackpoint>
          <Trackpoint>
            <Time>2022-06-16T11:23:10.000Z</Time>
            <Position>
              <LatitudeDegrees>36.84506225399672985076904296875</LatitudeDegrees>
              <LongitudeDegrees>-4.37854620628058910369873046875</LongitudeDegrees>
            </Position>
            <AltitudeMeters>632.4000244140625</AltitudeMeters>
            <DistanceMeters>NAN</DistanceMeters>
          </Trackpoint>
          <Trackpoint>
            <Time>2022-06-16T11:23:15.000Z</Time>
            <Position>
              <LatitudeDegrees>36.84504515491425991058349609375</LatitudeDegrees>
              <LongitudeDegrees>-4.378622062504291534423828125</LongitudeDegrees>
            </Position>
            <AltitudeMeters>632</AltitudeMeters>
            <DistanceMeters>NAN</DistanceMeters>
          </Trackpoint>
          <Trackpoint>
            <Time>2022-06-16T11:23:17.000Z</Time>
            <Position>
              <LatitudeDegrees>36.845046244561672210693359375</LatitudeDegrees>
              <LongitudeDegrees>-4.37865366227924823760986328125</LongitudeDegrees>
            </Position>
            <AltitudeMeters>632.20001220703125</AltitudeMeters>
            <DistanceMeters>NAN</DistanceMeters>
          </Trackpoint>
          <Trackpoint>
            <Time>2022-06-16T11:23:20.000Z</Time>
            <Position>
              <LatitudeDegrees>36.8450366891920566558837890625</LatitudeDegrees>
              <LongitudeDegrees>-4.37869892455637454986572265625</LongitudeDegrees>
            </Position>
            <AltitudeMeters>632.20001220703125</AltitudeMeters>
            <DistanceMeters>NAN</DistanceMeters>
          </Trackpoint>
          <Trackpoint>
            <Time>2022-06-16T11:23:30.000Z</Time>
            <Position>
              <LatitudeDegrees>36.8449942767620086669921875</LatitudeDegrees>
              <LongitudeDegrees>-4.37885751016438007354736328125</LongitudeDegrees>
            </Position>
            <AltitudeMeters>631.20001220703125</AltitudeMeters>
            <DistanceMeters>NAN</DistanceMeters>
          </Trackpoint>
          <Trackpoint>
            <Time>2022-06-16T11:23:40.000Z</Time>
            <Position>
              <LatitudeDegrees>36.84494138695299625396728515625</LatitudeDegrees>
              <LongitudeDegrees>-4.37899346463382244110107421875</LongitudeDegrees>
            </Position>
            <AltitudeMeters>630.79998779296875</AltitudeMeters>
            <DistanceMeters>NAN</DistanceMeters>
          </Trackpoint>
          <Trackpoint>
            <Time>2022-06-16T11:23:50.000Z</Time>
            <Position>
              <LatitudeDegrees>36.8448677100241184234619140625</LatitudeDegrees>
              <LongitudeDegrees>-4.379075355827808380126953125</LongitudeDegrees>
            </Position>
            <AltitudeMeters>628.4000244140625</AltitudeMeters>
            <DistanceMeters>NAN</DistanceMeters>
          </Trackpoint>
          <Trackpoint>
            <Time>2022-06-16T11:23:59.000Z</Time>
            <Position>
              <LatitudeDegrees>36.84482135809957981109619140625</LatitudeDegrees>
              <LongitudeDegrees>-4.3791576661169528961181640625</LongitudeDegrees>
            </Position>
            <AltitudeMeters>627.4000244140625</AltitudeMeters>
            <DistanceMeters>NAN</DistanceMeters>
          </Trackpoint>
          <Trackpoint>
            <Time>2022-06-16T11:24:00.000Z</Time>
            <Position>
              <LatitudeDegrees>36.84481565840542316436767578125</LatitudeDegrees>
              <LongitudeDegrees>-4.37916713766753673553466796875</LongitudeDegrees>
            </Position>
            <AltitudeMeters>627.20001220703125</AltitudeMeters>
            <DistanceMeters>NAN</DistanceMeters>
          </Trackpoint>
          <Trackpoint>
            <Time>2022-06-16T11:24:10.000Z</Time>
            <Position>
              <LatitudeDegrees>36.84480107389390468597412109375</LatitudeDegrees>
              <LongitudeDegrees>-4.37930501997470855712890625</LongitudeDegrees>
            </Position>
            <AltitudeMeters>627.5999755859375</AltitudeMeters>
            <DistanceMeters>NAN</DistanceMeters>
          </Trackpoint>
          <Trackpoint>
            <Time>2022-06-16T11:24:20.000Z</Time>
            <Position>
              <LatitudeDegrees>36.8447627685964107513427734375</LatitudeDegrees>
              <LongitudeDegrees>-4.37944407574832439422607421875</LongitudeDegrees>
            </Position>
            <AltitudeMeters>627</AltitudeMeters>
            <DistanceMeters>NAN</DistanceMeters>
          </Trackpoint>
          <Trackpoint>
            <Time>2022-06-16T11:24:23.000Z</Time>
            <Position>
              <LatitudeDegrees>36.84475581161677837371826171875</LatitudeDegrees>
              <LongitudeDegrees>-4.379485063254833221435546875</LongitudeDegrees>
            </Position>
            <AltitudeMeters>626.5999755859375</AltitudeMeters>
            <DistanceMeters>NAN</DistanceMeters>
          </Trackpoint>
          <Trackpoint>
            <Time>2022-06-16T11:24:30.000Z</Time>
            <Position>
              <LatitudeDegrees>36.84473812580108642578125</LatitudeDegrees>
              <LongitudeDegrees>-4.3796022422611713409423828125</LongitudeDegrees>
            </Position>
            <AltitudeMeters>625.4000244140625</AltitudeMeters>
            <DistanceMeters>NAN</DistanceMeters>
          </Trackpoint>
          <Trackpoint>
            <Time>2022-06-16T11:24:32.000Z</Time>
            <Position>
              <LatitudeDegrees>36.844733767211437225341796875</LatitudeDegrees>
              <LongitudeDegrees>-4.37963015399873256683349609375</LongitudeDegrees>
            </Position>
            <AltitudeMeters>625</AltitudeMeters>
            <DistanceMeters>NAN</DistanceMeters>
          </Trackpoint>
          <Trackpoint>
            <Time>2022-06-16T11:24:40.000Z</Time>
            <Position>
              <LatitudeDegrees>36.84475866146385669708251953125</LatitudeDegrees>
              <LongitudeDegrees>-4.3797373585402965545654296875</LongitudeDegrees>
            </Position>
            <AltitudeMeters>625</AltitudeMeters>
            <DistanceMeters>NAN</DistanceMeters>
          </Trackpoint>
          <Trackpoint>
            <Time>2022-06-16T11:24:50.000Z</Time>
            <Position>
              <LatitudeDegrees>36.84487466700375080108642578125</LatitudeDegrees>
              <LongitudeDegrees>-4.3797799386084079742431640625</LongitudeDegrees>
            </Position>
            <AltitudeMeters>627.79998779296875</AltitudeMeters>
            <DistanceMeters>NAN</DistanceMeters>
          </Trackpoint>
          <Trackpoint>
            <Time>2022-06-16T11:25:00.000Z</Time>
            <Position>
              <LatitudeDegrees>36.8449877388775348663330078125</LatitudeDegrees>
              <LongitudeDegrees>-4.3797370232641696929931640625</LongitudeDegrees>
            </Position>
            <AltitudeMeters>632</AltitudeMeters>
            <DistanceMeters>NAN</DistanceMeters>
          </Trackpoint>
          <Trackpoint>
            <Time>2022-06-16T11:25:10.000Z</Time>
            <Position>
              <LatitudeDegrees>36.84511103667318820953369140625</LatitudeDegrees>
              <LongitudeDegrees>-4.3796974606812000274658203125</LongitudeDegrees>
            </Position>
            <AltitudeMeters>636</AltitudeMeters>
            <DistanceMeters>NAN</DistanceMeters>
          </Trackpoint>
          <Trackpoint>
            <Time>2022-06-16T11:25:20.000Z</Time>
            <Position>
              <LatitudeDegrees>36.8452160619199275970458984375</LatitudeDegrees>
              <LongitudeDegrees>-4.37964373268187046051025390625</LongitudeDegrees>
            </Position>
            <AltitudeMeters>639</AltitudeMeters>
            <DistanceMeters>NAN</DistanceMeters>
          </Trackpoint>
          <Trackpoint>
            <Time>2022-06-16T11:25:23.000Z</Time>
            <Position>
              <LatitudeDegrees>36.84525252319872379302978515625</LatitudeDegrees>
              <LongitudeDegrees>-4.3796220235526561737060546875</LongitudeDegrees>
            </Position>
            <AltitudeMeters>640</AltitudeMeters>
            <DistanceMeters>NAN</DistanceMeters>
          </Trackpoint>
          <Trackpoint>
            <Time>2022-06-16T11:25:25.000Z</Time>
            <Position>
              <LatitudeDegrees>36.8452790938317775726318359375</LatitudeDegrees>
              <LongitudeDegrees>-4.37962017953395843505859375</LongitudeDegrees>
            </Position>
            <AltitudeMeters>640.5999755859375</AltitudeMeters>
            <DistanceMeters>NAN</DistanceMeters>
          </Trackpoint>
          <Trackpoint>
            <Time>2022-06-16T11:25:28.000Z</Time>
            <Position>
              <LatitudeDegrees>36.84531957842409610748291015625</LatitudeDegrees>
              <LongitudeDegrees>-4.379615150392055511474609375</LongitudeDegrees>
            </Position>
            <AltitudeMeters>641.4000244140625</AltitudeMeters>
            <DistanceMeters>NAN</DistanceMeters>
          </Trackpoint>
          <Trackpoint>
            <Time>2022-06-16T11:25:30.000Z</Time>
            <Position>
              <LatitudeDegrees>36.84533952735364437103271484375</LatitudeDegrees>
              <LongitudeDegrees>-4.37961607240140438079833984375</LongitudeDegrees>
            </Position>
            <AltitudeMeters>641.5999755859375</AltitudeMeters>
            <DistanceMeters>NAN</DistanceMeters>
          </Trackpoint>
          <Trackpoint>
            <Time>2022-06-16T11:25:40.000Z</Time>
            <Position>
              <LatitudeDegrees>36.84546341188251972198486328125</LatitudeDegrees>
              <LongitudeDegrees>-4.37961959280073642730712890625</LongitudeDegrees>
            </Position>
            <AltitudeMeters>643</AltitudeMeters>
            <DistanceMeters>NAN</DistanceMeters>
          </Trackpoint>
          <Trackpoint>
            <Time>2022-06-16T11:25:44.000Z</Time>
            <Position>
              <LatitudeDegrees>36.84550867415964603424072265625</LatitudeDegrees>
              <LongitudeDegrees>-4.3796260468661785125732421875</LongitudeDegrees>
            </Position>
            <AltitudeMeters>642.79998779296875</AltitudeMeters>
            <DistanceMeters>NAN</DistanceMeters>
          </Trackpoint>
          <Trackpoint>
            <Time>2022-06-16T11:25:45.000Z</Time>
            <Position>
              <LatitudeDegrees>36.845529042184352874755859375</LatitudeDegrees>
              <LongitudeDegrees>-4.3796330876648426055908203125</LongitudeDegrees>
            </Position>
            <AltitudeMeters>642.5999755859375</AltitudeMeters>
            <DistanceMeters>NAN</DistanceMeters>
          </Trackpoint>
          <Trackpoint>
            <Time>2022-06-16T11:25:46.000Z</Time>
            <Position>
              <LatitudeDegrees>36.84554924257099628448486328125</LatitudeDegrees>
              <LongitudeDegrees>-4.3796407990157604217529296875</LongitudeDegrees>
            </Position>
            <AltitudeMeters>642.4000244140625</AltitudeMeters>
            <DistanceMeters>NAN</DistanceMeters>
          </Trackpoint>
          <Trackpoint>
            <Time>2022-06-16T11:25:49.000Z</Time>
            <Position>
              <LatitudeDegrees>36.84559442102909088134765625</LatitudeDegrees>
              <LongitudeDegrees>-4.37965060584247112274169921875</LongitudeDegrees>
            </Position>
            <AltitudeMeters>642.20001220703125</AltitudeMeters>
            <DistanceMeters>NAN</DistanceMeters>
          </Trackpoint>
          <Trackpoint>
            <Time>2022-06-16T11:25:50.000Z</Time>
            <Position>
              <LatitudeDegrees>36.84560623951256275177001953125</LatitudeDegrees>
              <LongitudeDegrees>-4.37965043820440769195556640625</LongitudeDegrees>
            </Position>
            <AltitudeMeters>642.20001220703125</AltitudeMeters>
            <DistanceMeters>NAN</DistanceMeters>
          </Trackpoint>
          <Trackpoint>
            <Time>2022-06-16T11:25:53.000Z</Time>
            <Position>
              <LatitudeDegrees>36.8456589616835117340087890625</LatitudeDegrees>
              <LongitudeDegrees>-4.3796692974865436553955078125</LongitudeDegrees>
            </Position>
            <AltitudeMeters>641.5999755859375</AltitudeMeters>
            <DistanceMeters>NAN</DistanceMeters>
          </Trackpoint>
          <Trackpoint>
            <Time>2022-06-16T11:25:57.000Z</Time>
            <Position>
              <LatitudeDegrees>36.8457196466624736785888671875</LatitudeDegrees>
              <LongitudeDegrees>-4.379690922796726226806640625</LongitudeDegrees>
            </Position>
            <AltitudeMeters>641.5999755859375</AltitudeMeters>
            <DistanceMeters>NAN</DistanceMeters>
          </Trackpoint>
          <Trackpoint>
            <Time>2022-06-16T11:25:59.000Z</Time>
            <Position>
              <LatitudeDegrees>36.84574688784778118133544921875</LatitudeDegrees>
              <LongitudeDegrees>-4.37969871796667575836181640625</LongitudeDegrees>
            </Position>
            <AltitudeMeters>641.79998779296875</AltitudeMeters>
            <DistanceMeters>NAN</DistanceMeters>
          </Trackpoint>
          <Trackpoint>
            <Time>2022-06-16T11:26:00.000Z</Time>
            <Position>
              <LatitudeDegrees>36.84575862251222133636474609375</LatitudeDegrees>
              <LongitudeDegrees>-4.37970190308988094329833984375</LongitudeDegrees>
            </Position>
            <AltitudeMeters>642</AltitudeMeters>
            <DistanceMeters>NAN</DistanceMeters>
          </Trackpoint>
          <Trackpoint>
            <Time>2022-06-16T11:26:03.000Z</Time>
            <Position>
              <LatitudeDegrees>36.8457960896193981170654296875</LatitudeDegrees>
              <LongitudeDegrees>-4.37970961444079875946044921875</LongitudeDegrees>
            </Position>
            <AltitudeMeters>642.20001220703125</AltitudeMeters>
            <DistanceMeters>NAN</DistanceMeters>
          </Trackpoint>
          <Trackpoint>
            <Time>2022-06-16T11:26:04.000Z</Time>
            <Position>
              <LatitudeDegrees>36.8458068184554576873779296875</LatitudeDegrees>
              <LongitudeDegrees>-4.37971003353595733642578125</LongitudeDegrees>
            </Position>
            <AltitudeMeters>642.20001220703125</AltitudeMeters>
            <DistanceMeters>NAN</DistanceMeters>
          </Trackpoint>
          <Trackpoint>
            <Time>2022-06-16T11:26:05.000Z</Time>
            <Position>
              <LatitudeDegrees>36.84581796638667583465576171875</LatitudeDegrees>
              <LongitudeDegrees>-4.379709698259830474853515625</LongitudeDegrees>
            </Position>
            <AltitudeMeters>642.4000244140625</AltitudeMeters>
            <DistanceMeters>NAN</DistanceMeters>
          </Trackpoint>
          <Trackpoint>
            <Time>2022-06-16T11:26:06.000Z</Time>
            <Position>
              <LatitudeDegrees>36.84582903049886226654052734375</LatitudeDegrees>
              <LongitudeDegrees>-4.379706680774688720703125</LongitudeDegrees>
            </Position>
            <AltitudeMeters>642.5999755859375</AltitudeMeters>
            <DistanceMeters>NAN</DistanceMeters>
          </Trackpoint>
          <Trackpoint>
            <Time>2022-06-16T11:26:09.000Z</Time>
            <Position>
              <LatitudeDegrees>36.845861971378326416015625</LatitudeDegrees>
              <LongitudeDegrees>-4.37969218008220195770263671875</LongitudeDegrees>
            </Position>
            <AltitudeMeters>643.20001220703125</AltitudeMeters>
            <DistanceMeters>NAN</DistanceMeters>
          </Trackpoint>
          <Trackpoint>
            <Time>2022-06-16T11:26:10.000Z</Time>
            <Position>
              <LatitudeDegrees>36.84587311930954456329345703125</LatitudeDegrees>
              <LongitudeDegrees>-4.3796874023973941802978515625</LongitudeDegrees>
            </Position>
            <AltitudeMeters>643.4000244140625</AltitudeMeters>
            <DistanceMeters>NAN</DistanceMeters>
          </Trackpoint>
          <Trackpoint>
            <Time>2022-06-16T11:26:11.000Z</Time>
            <Position>
              <LatitudeDegrees>36.845882423222064971923828125</LatitudeDegrees>
              <LongitudeDegrees>-4.37968455255031585693359375</LongitudeDegrees>
            </Position>
            <AltitudeMeters>643.5999755859375</AltitudeMeters>
            <DistanceMeters>NAN</DistanceMeters>
          </Trackpoint>
          <Trackpoint>
            <Time>2022-06-16T11:26:12.000Z</Time>
            <Position>
              <LatitudeDegrees>36.8458919785916805267333984375</LatitudeDegrees>
              <LongitudeDegrees>-4.3796827085316181182861328125</LongitudeDegrees>
            </Position>
            <AltitudeMeters>643.79998779296875</AltitudeMeters>
            <DistanceMeters>NAN</DistanceMeters>
          </Trackpoint>
          <Trackpoint>
            <Time>2022-06-16T11:26:14.000Z</Time>
            <Position>
              <LatitudeDegrees>36.84591100551187992095947265625</LatitudeDegrees>
              <LongitudeDegrees>-4.37968245707452297210693359375</LongitudeDegrees>
            </Position>
            <AltitudeMeters>644</AltitudeMeters>
            <DistanceMeters>NAN</DistanceMeters>
          </Trackpoint>
          <Trackpoint>
            <Time>2022-06-16T11:26:15.000Z</Time>
            <Position>
              <LatitudeDegrees>36.8459191359579563140869140625</LatitudeDegrees>
              <LongitudeDegrees>-4.379681535065174102783203125</LongitudeDegrees>
            </Position>
            <AltitudeMeters>644</AltitudeMeters>
            <DistanceMeters>NAN</DistanceMeters>
          </Trackpoint>
          <Trackpoint>
            <Time>2022-06-16T11:26:16.000Z</Time>
            <Position>
              <LatitudeDegrees>36.8459318764507770538330078125</LatitudeDegrees>
              <LongitudeDegrees>-4.37968052923679351806640625</LongitudeDegrees>
            </Position>
            <AltitudeMeters>644.20001220703125</AltitudeMeters>
            <DistanceMeters>NAN</DistanceMeters>
          </Trackpoint>
          <Trackpoint>
            <Time>2022-06-16T11:26:20.000Z</Time>
            <Position>
              <LatitudeDegrees>36.84598744846880435943603515625</LatitudeDegrees>
              <LongitudeDegrees>-4.3796709738671779632568359375</LongitudeDegrees>
            </Position>
            <AltitudeMeters>644.79998779296875</AltitudeMeters>
            <DistanceMeters>NAN</DistanceMeters>
          </Trackpoint>
          <Trackpoint>
            <Time>2022-06-16T11:26:30.000Z</Time>
            <Position>
              <LatitudeDegrees>36.84614184312522411346435546875</LatitudeDegrees>
              <LongitudeDegrees>-4.37969469465315341949462890625</LongitudeDegrees>
            </Position>
            <AltitudeMeters>644.5999755859375</AltitudeMeters>
            <DistanceMeters>NAN</DistanceMeters>
          </Trackpoint>
          <Trackpoint>
            <Time>2022-06-16T11:26:40.000Z</Time>
            <Position>
              <LatitudeDegrees>36.8462654761970043182373046875</LatitudeDegrees>
              <LongitudeDegrees>-4.37974624335765838623046875</LongitudeDegrees>
            </Position>
            <AltitudeMeters>644.5999755859375</AltitudeMeters>
            <DistanceMeters>NAN</DistanceMeters>
          </Trackpoint>
          <Trackpoint>
            <Time>2022-06-16T11:26:50.000Z</Time>
            <Position>
              <LatitudeDegrees>36.8463633768260478973388671875</LatitudeDegrees>
              <LongitudeDegrees>-4.379776418209075927734375</LongitudeDegrees>
            </Position>
            <AltitudeMeters>644.79998779296875</AltitudeMeters>
            <DistanceMeters>NAN</DistanceMeters>
          </Trackpoint>
          <Trackpoint>
            <Time>2022-06-16T11:26:58.000Z</Time>
            <Position>
              <LatitudeDegrees>36.8464703299105167388916015625</LatitudeDegrees>
              <LongitudeDegrees>-4.37979309819638729095458984375</LongitudeDegrees>
            </Position>
            <AltitudeMeters>645.4000244140625</AltitudeMeters>
            <DistanceMeters>NAN</DistanceMeters>
          </Trackpoint>
          <Trackpoint>
            <Time>2022-06-16T11:27:00.000Z</Time>
            <Position>
              <LatitudeDegrees>36.84650092385709285736083984375</LatitudeDegrees>
              <LongitudeDegrees>-4.37979728914797306060791015625</LongitudeDegrees>
            </Position>
            <AltitudeMeters>645.79998779296875</AltitudeMeters>
            <DistanceMeters>NAN</DistanceMeters>
          </Trackpoint>
          <Trackpoint>
            <Time>2022-06-16T11:27:10.000Z</Time>
            <Position>
              <LatitudeDegrees>36.84663117863237857818603515625</LatitudeDegrees>
              <LongitudeDegrees>-4.3798366002738475799560546875</LongitudeDegrees>
            </Position>
            <AltitudeMeters>647.5999755859375</AltitudeMeters>
            <DistanceMeters>NAN</DistanceMeters>
          </Trackpoint>
          <Trackpoint>
            <Time>2022-06-16T11:27:16.000Z</Time>
            <Position>
              <LatitudeDegrees>36.8467184342443943023681640625</LatitudeDegrees>
              <LongitudeDegrees>-4.379880018532276153564453125</LongitudeDegrees>
            </Position>
            <AltitudeMeters>648.4000244140625</AltitudeMeters>
            <DistanceMeters>NAN</DistanceMeters>
          </Trackpoint>
          <Trackpoint>
            <Time>2022-06-16T11:27:20.000Z</Time>
            <Position>
              <LatitudeDegrees>36.84677769429981708526611328125</LatitudeDegrees>
              <LongitudeDegrees>-4.37991111539304256439208984375</LongitudeDegrees>
            </Position>
            <AltitudeMeters>649</AltitudeMeters>
            <DistanceMeters>NAN</DistanceMeters>
          </Trackpoint>
          <Trackpoint>
            <Time>2022-06-16T11:27:28.000Z</Time>
            <Position>
              <LatitudeDegrees>36.84686821885406970977783203125</LatitudeDegrees>
              <LongitudeDegrees>-4.37995084561407566070556640625</LongitudeDegrees>
            </Position>
            <AltitudeMeters>649</AltitudeMeters>
            <DistanceMeters>NAN</DistanceMeters>
          </Trackpoint>
          <Trackpoint>
            <Time>2022-06-16T11:27:30.000Z</Time>
            <Position>
              <LatitudeDegrees>36.846893616020679473876953125</LatitudeDegrees>
              <LongitudeDegrees>-4.37995704822242259979248046875</LongitudeDegrees>
            </Position>
            <AltitudeMeters>649</AltitudeMeters>
            <DistanceMeters>NAN</DistanceMeters>
          </Trackpoint>
          <Trackpoint>
            <Time>2022-06-16T11:27:40.000Z</Time>
            <Position>
              <LatitudeDegrees>36.84703099541366100311279296875</LatitudeDegrees>
              <LongitudeDegrees>-4.37997280620038509368896484375</LongitudeDegrees>
            </Position>
            <AltitudeMeters>650</AltitudeMeters>
            <DistanceMeters>NAN</DistanceMeters>
          </Trackpoint>
          <Trackpoint>
            <Time>2022-06-16T11:27:41.000Z</Time>
            <Position>
              <LatitudeDegrees>36.84704893268644809722900390625</LatitudeDegrees>
              <LongitudeDegrees>-4.37997096218168735504150390625</LongitudeDegrees>
            </Position>
            <AltitudeMeters>650</AltitudeMeters>
            <DistanceMeters>NAN</DistanceMeters>
          </Trackpoint>
          <Trackpoint>
            <Time>2022-06-16T11:27:42.000Z</Time>
            <Position>
              <LatitudeDegrees>36.8470657803118228912353515625</LatitudeDegrees>
              <LongitudeDegrees>-4.37997289001941680908203125</LongitudeDegrees>
            </Position>
            <AltitudeMeters>650.20001220703125</AltitudeMeters>
            <DistanceMeters>NAN</DistanceMeters>
          </Trackpoint>
          <Trackpoint>
            <Time>2022-06-16T11:27:43.000Z</Time>
            <Position>
              <LatitudeDegrees>36.8470863997936248779296875</LatitudeDegrees>
              <LongitudeDegrees>-4.37997448258101940155029296875</LongitudeDegrees>
            </Position>
            <AltitudeMeters>650.20001220703125</AltitudeMeters>
            <DistanceMeters>NAN</DistanceMeters>
          </Trackpoint>
          <Trackpoint>
            <Time>2022-06-16T11:27:50.000Z</Time>
            <Position>
              <LatitudeDegrees>36.84717114083468914031982421875</LatitudeDegrees>
              <LongitudeDegrees>-4.3799975328147411346435546875</LongitudeDegrees>
            </Position>
            <AltitudeMeters>650.5999755859375</AltitudeMeters>
            <DistanceMeters>NAN</DistanceMeters>
          </Trackpoint>
          <Trackpoint>
            <Time>2022-06-16T11:27:54.000Z</Time>
            <Position>
              <LatitudeDegrees>36.8472253717482089996337890625</LatitudeDegrees>
              <LongitudeDegrees>-4.37999661080539226531982421875</LongitudeDegrees>
            </Position>
            <AltitudeMeters>650.79998779296875</AltitudeMeters>
            <DistanceMeters>NAN</DistanceMeters>
          </Trackpoint>
          <Trackpoint>
            <Time>2022-06-16T11:28:00.000Z</Time>
            <Position>
              <LatitudeDegrees>36.8472733162343502044677734375</LatitudeDegrees>
              <LongitudeDegrees>-4.38002762384712696075439453125</LongitudeDegrees>
            </Position>
            <AltitudeMeters>651</AltitudeMeters>
            <DistanceMeters>NAN</DistanceMeters>
          </Trackpoint>
          <Trackpoint>
            <Time>2022-06-16T11:28:10.000Z</Time>
            <Position>
              <LatitudeDegrees>36.84734799899160861968994140625</LatitudeDegrees>
              <LongitudeDegrees>-4.380146563053131103515625</LongitudeDegrees>
            </Position>
            <AltitudeMeters>651.5999755859375</AltitudeMeters>
            <DistanceMeters>NAN</DistanceMeters>
          </Trackpoint>
          <Trackpoint>
            <Time>2022-06-16T11:28:20.000Z</Time>
            <Position>
              <LatitudeDegrees>36.84732050634920597076416015625</LatitudeDegrees>
              <LongitudeDegrees>-4.3802741356194019317626953125</LongitudeDegrees>
            </Position>
            <AltitudeMeters>652.20001220703125</AltitudeMeters>
            <DistanceMeters>NAN</DistanceMeters>
          </Trackpoint>
          <Trackpoint>
            <Time>2022-06-16T11:28:30.000Z</Time>
            <Position>
              <LatitudeDegrees>36.84732587076723575592041015625</LatitudeDegrees>
              <LongitudeDegrees>-4.38028427772223949432373046875</LongitudeDegrees>
            </Position>
            <AltitudeMeters>652.79998779296875</AltitudeMeters>
            <DistanceMeters>NAN</DistanceMeters>
          </Trackpoint>
          <Trackpoint>
            <Time>2022-06-16T11:28:40.000Z</Time>
            <Position>
              <LatitudeDegrees>36.84726719744503498077392578125</LatitudeDegrees>
              <LongitudeDegrees>-4.38039944507181644439697265625</LongitudeDegrees>
            </Position>
            <AltitudeMeters>656.5999755859375</AltitudeMeters>
            <DistanceMeters>NAN</DistanceMeters>
          </Trackpoint>
          <Trackpoint>
            <Time>2022-06-16T11:28:50.000Z</Time>
            <Position>
              <LatitudeDegrees>36.847173906862735748291015625</LatitudeDegrees>
              <LongitudeDegrees>-4.3804639019072055816650390625</LongitudeDegrees>
            </Position>
            <AltitudeMeters>658.20001220703125</AltitudeMeters>
            <DistanceMeters>NAN</DistanceMeters>
          </Trackpoint>
          <Trackpoint>
            <Time>2022-06-16T11:29:00.000Z</Time>
            <Position>
              <LatitudeDegrees>36.84706049971282482147216796875</LatitudeDegrees>
              <LongitudeDegrees>-4.38045191578567028045654296875</LongitudeDegrees>
            </Position>
            <AltitudeMeters>657</AltitudeMeters>
            <DistanceMeters>NAN</DistanceMeters>
          </Trackpoint>
          <Trackpoint>
            <Time>2022-06-16T11:29:10.000Z</Time>
            <Position>
              <LatitudeDegrees>36.84695002622902393341064453125</LatitudeDegrees>
              <LongitudeDegrees>-4.38041956163942813873291015625</LongitudeDegrees>
            </Position>
            <AltitudeMeters>654.79998779296875</AltitudeMeters>
            <DistanceMeters>NAN</DistanceMeters>
          </Trackpoint>
          <Trackpoint>
            <Time>2022-06-16T11:29:20.000Z</Time>
            <Position>
              <LatitudeDegrees>36.84681658633053302764892578125</LatitudeDegrees>
              <LongitudeDegrees>-4.3803898058831691741943359375</LongitudeDegrees>
            </Position>
            <AltitudeMeters>652.5999755859375</AltitudeMeters>
            <DistanceMeters>NAN</DistanceMeters>
          </Trackpoint>
          <Trackpoint>
            <Time>2022-06-16T11:29:26.000Z</Time>
            <Position>
              <LatitudeDegrees>36.84675003401935100555419921875</LatitudeDegrees>
              <LongitudeDegrees>-4.3804089166224002838134765625</LongitudeDegrees>
            </Position>
            <AltitudeMeters>652.20001220703125</AltitudeMeters>
            <DistanceMeters>NAN</DistanceMeters>
          </Trackpoint>
          <Trackpoint>
            <Time>2022-06-16T11:29:30.000Z</Time>
            <Position>
              <LatitudeDegrees>36.8467140756547451019287109375</LatitudeDegrees>
              <LongitudeDegrees>-4.38039843924343585968017578125</LongitudeDegrees>
            </Position>
            <AltitudeMeters>651</AltitudeMeters>
            <DistanceMeters>NAN</DistanceMeters>
          </Trackpoint>
          <Trackpoint>
            <Time>2022-06-16T11:29:38.000Z</Time>
            <Position>
              <LatitudeDegrees>36.84662531130015850067138671875</LatitudeDegrees>
              <LongitudeDegrees>-4.38045510090887546539306640625</LongitudeDegrees>
            </Position>
            <AltitudeMeters>649.5999755859375</AltitudeMeters>
            <DistanceMeters>NAN</DistanceMeters>
          </Trackpoint>
          <Trackpoint>
            <Time>2022-06-16T11:29:40.000Z</Time>
            <Position>
              <LatitudeDegrees>36.8466051109135150909423828125</LatitudeDegrees>
              <LongitudeDegrees>-4.3804746307432651519775390625</LongitudeDegrees>
            </Position>
            <AltitudeMeters>649.4000244140625</AltitudeMeters>
            <DistanceMeters>NAN</DistanceMeters>
          </Trackpoint>
          <Trackpoint>
            <Time>2022-06-16T11:29:50.000Z</Time>
            <Position>
              <LatitudeDegrees>36.84651450254023075103759765625</LatitudeDegrees>
              <LongitudeDegrees>-4.38058921135962009429931640625</LongitudeDegrees>
            </Position>
            <AltitudeMeters>648.79998779296875</AltitudeMeters>
            <DistanceMeters>NAN</DistanceMeters>
          </Trackpoint>
          <Trackpoint>
            <Time>2022-06-16T11:29:51.000Z</Time>
            <Position>
              <LatitudeDegrees>36.846510060131549835205078125</LatitudeDegrees>
              <LongitudeDegrees>-4.38060798682272434234619140625</LongitudeDegrees>
            </Position>
            <AltitudeMeters>649</AltitudeMeters>
            <DistanceMeters>NAN</DistanceMeters>
          </Trackpoint>
          <Trackpoint>
            <Time>2022-06-16T11:29:52.000Z</Time>
            <Position>
              <LatitudeDegrees>36.84650234878063201904296875</LatitudeDegrees>
              <LongitudeDegrees>-4.38063430599868297576904296875</LongitudeDegrees>
            </Position>
            <AltitudeMeters>649.20001220703125</AltitudeMeters>
            <DistanceMeters>NAN</DistanceMeters>
          </Trackpoint>
          <Trackpoint>
            <Time>2022-06-16T11:29:56.000Z</Time>
            <Position>
              <LatitudeDegrees>36.8464857526123523712158203125</LatitudeDegrees>
              <LongitudeDegrees>-4.3807110004127025604248046875</LongitudeDegrees>
            </Position>
            <AltitudeMeters>649.79998779296875</AltitudeMeters>
            <DistanceMeters>NAN</DistanceMeters>
          </Trackpoint>
          <Trackpoint>
            <Time>2022-06-16T11:30:00.000Z</Time>
            <Position>
              <LatitudeDegrees>36.8464592657983303070068359375</LatitudeDegrees>
              <LongitudeDegrees>-4.3807710148394107818603515625</LongitudeDegrees>
            </Position>
            <AltitudeMeters>650.4000244140625</AltitudeMeters>
            <DistanceMeters>NAN</DistanceMeters>
          </Trackpoint>
          <Trackpoint>
            <Time>2022-06-16T11:30:10.000Z</Time>
            <Position>
              <LatitudeDegrees>36.84644627384841442108154296875</LatitudeDegrees>
              <LongitudeDegrees>-4.3809282593429088592529296875</LongitudeDegrees>
            </Position>
            <AltitudeMeters>654</AltitudeMeters>
            <DistanceMeters>NAN</DistanceMeters>
          </Trackpoint>
          <Trackpoint>
            <Time>2022-06-16T11:30:20.000Z</Time>
            <Position>
              <LatitudeDegrees>36.84642716310918331146240234375</LatitudeDegrees>
              <LongitudeDegrees>-4.38108927570283412933349609375</LongitudeDegrees>
            </Position>
            <AltitudeMeters>658.20001220703125</AltitudeMeters>
            <DistanceMeters>NAN</DistanceMeters>
          </Trackpoint>
          <Trackpoint>
            <Time>2022-06-16T11:30:30.000Z</Time>
            <Position>
              <LatitudeDegrees>36.84642724692821502685546875</LatitudeDegrees>
              <LongitudeDegrees>-4.38121785409748554229736328125</LongitudeDegrees>
            </Position>
            <AltitudeMeters>663</AltitudeMeters>
            <DistanceMeters>NAN</DistanceMeters>
          </Trackpoint>
          <Trackpoint>
            <Time>2022-06-16T11:30:38.000Z</Time>
            <Position>
              <LatitudeDegrees>36.84639950282871723175048828125</LatitudeDegrees>
              <LongitudeDegrees>-4.3812937103211879730224609375</LongitudeDegrees>
            </Position>
            <AltitudeMeters>665.79998779296875</AltitudeMeters>
            <DistanceMeters>NAN</DistanceMeters>
          </Trackpoint>
          <Trackpoint>
            <Time>2022-06-16T11:30:39.000Z</Time>
            <Position>
              <LatitudeDegrees>36.8463895283639430999755859375</LatitudeDegrees>
              <LongitudeDegrees>-4.38130184076726436614990234375</LongitudeDegrees>
            </Position>
            <AltitudeMeters>666</AltitudeMeters>
            <DistanceMeters>NAN</DistanceMeters>
          </Trackpoint>
          <Trackpoint>
            <Time>2022-06-16T11:30:40.000Z</Time>
            <Position>
              <LatitudeDegrees>36.8463782966136932373046875</LatitudeDegrees>
              <LongitudeDegrees>-4.38130837865173816680908203125</LongitudeDegrees>
            </Position>
            <AltitudeMeters>666.20001220703125</AltitudeMeters>
            <DistanceMeters>NAN</DistanceMeters>
          </Trackpoint>
          <Trackpoint>
            <Time>2022-06-16T11:30:41.000Z</Time>
            <Position>
              <LatitudeDegrees>36.84636279009282588958740234375</LatitudeDegrees>
              <LongitudeDegrees>-4.3813119828701019287109375</LongitudeDegrees>
            </Position>
            <AltitudeMeters>666.4000244140625</AltitudeMeters>
            <DistanceMeters>NAN</DistanceMeters>
          </Trackpoint>
          <Trackpoint>
            <Time>2022-06-16T11:30:46.000Z</Time>
            <Position>
              <LatitudeDegrees>36.8463058769702911376953125</LatitudeDegrees>
              <LongitudeDegrees>-4.3813222087919712066650390625</LongitudeDegrees>
            </Position>
            <AltitudeMeters>666.79998779296875</AltitudeMeters>
            <DistanceMeters>NAN</DistanceMeters>
          </Trackpoint>
          <Trackpoint>
            <Time>2022-06-16T11:30:50.000Z</Time>
            <Position>
              <LatitudeDegrees>36.846265979111194610595703125</LatitudeDegrees>
              <LongitudeDegrees>-4.38133151270449161529541015625</LongitudeDegrees>
            </Position>
            <AltitudeMeters>667.20001220703125</AltitudeMeters>
            <DistanceMeters>NAN</DistanceMeters>
          </Trackpoint>
          <Trackpoint>
            <Time>2022-06-16T11:31:00.000Z</Time>
            <Position>
              <LatitudeDegrees>36.84615374542772769927978515625</LatitudeDegrees>
              <LongitudeDegrees>-4.38128926791250705718994140625</LongitudeDegrees>
            </Position>
            <AltitudeMeters>665.79998779296875</AltitudeMeters>
            <DistanceMeters>NAN</DistanceMeters>
          </Trackpoint>
          <Trackpoint>
            <Time>2022-06-16T11:31:10.000Z</Time>
            <Position>
              <LatitudeDegrees>36.84608736075460910797119140625</LatitudeDegrees>
              <LongitudeDegrees>-4.381240569055080413818359375</LongitudeDegrees>
            </Position>
            <AltitudeMeters>664.20001220703125</AltitudeMeters>
            <DistanceMeters>NAN</DistanceMeters>
          </Trackpoint>
          <Trackpoint>
            <Time>2022-06-16T11:31:20.000Z</Time>
            <Position>
              <LatitudeDegrees>36.84597889892756938934326171875</LatitudeDegrees>
              <LongitudeDegrees>-4.381201006472110748291015625</LongitudeDegrees>
            </Position>
            <AltitudeMeters>663.20001220703125</AltitudeMeters>
            <DistanceMeters>NAN</DistanceMeters>
          </Trackpoint>
          <Trackpoint>
            <Time>2022-06-16T11:31:30.000Z</Time>
            <Position>
              <LatitudeDegrees>36.84586272574961185455322265625</LatitudeDegrees>
              <LongitudeDegrees>-4.38121634535491466522216796875</LongitudeDegrees>
            </Position>
            <AltitudeMeters>664.20001220703125</AltitudeMeters>
            <DistanceMeters>NAN</DistanceMeters>
          </Trackpoint>
          <Trackpoint>
            <Time>2022-06-16T11:31:39.000Z</Time>
            <Position>
              <LatitudeDegrees>36.84575158171355724334716796875</LatitudeDegrees>
              <LongitudeDegrees>-4.38128021545708179473876953125</LongitudeDegrees>
            </Position>
            <AltitudeMeters>667.4000244140625</AltitudeMeters>
            <DistanceMeters>NAN</DistanceMeters>
          </Trackpoint>
          <Trackpoint>
            <Time>2022-06-16T11:31:40.000Z</Time>
            <Position>
              <LatitudeDegrees>36.84574127197265625</LatitudeDegrees>
              <LongitudeDegrees>-4.381291531026363372802734375</LongitudeDegrees>
            </Position>
            <AltitudeMeters>667.79998779296875</AltitudeMeters>
            <DistanceMeters>NAN</DistanceMeters>
          </Trackpoint>
          <Trackpoint>
            <Time>2022-06-16T11:31:43.000Z</Time>
            <Position>
              <LatitudeDegrees>36.8457055650651454925537109375</LatitudeDegrees>
              <LongitudeDegrees>-4.3813168443739414215087890625</LongitudeDegrees>
            </Position>
            <AltitudeMeters>669.20001220703125</AltitudeMeters>
            <DistanceMeters>NAN</DistanceMeters>
          </Trackpoint>
          <Trackpoint>
            <Time>2022-06-16T11:31:48.000Z</Time>
            <Position>
              <LatitudeDegrees>36.845657788217067718505859375</LatitudeDegrees>
              <LongitudeDegrees>-4.381333105266094207763671875</LongitudeDegrees>
            </Position>
            <AltitudeMeters>670</AltitudeMeters>
            <DistanceMeters>NAN</DistanceMeters>
          </Trackpoint>
          <Trackpoint>
            <Time>2022-06-16T11:31:50.000Z</Time>
            <Position>
              <LatitudeDegrees>36.8456331454217433929443359375</LatitudeDegrees>
              <LongitudeDegrees>-4.38132832758128643035888671875</LongitudeDegrees>
            </Position>
            <AltitudeMeters>669.5999755859375</AltitudeMeters>
            <DistanceMeters>NAN</DistanceMeters>
          </Trackpoint>
          <Trackpoint>
            <Time>2022-06-16T11:32:00.000Z</Time>
            <Position>
              <LatitudeDegrees>36.84551219455897808074951171875</LatitudeDegrees>
              <LongitudeDegrees>-4.38133017159998416900634765625</LongitudeDegrees>
            </Position>
            <AltitudeMeters>668.4000244140625</AltitudeMeters>
            <DistanceMeters>NAN</DistanceMeters>
          </Trackpoint>
          <Trackpoint>
            <Time>2022-06-16T11:32:09.000Z</Time>
            <Position>
              <LatitudeDegrees>36.845408342778682708740234375</LatitudeDegrees>
              <LongitudeDegrees>-4.38137325458228588104248046875</LongitudeDegrees>
            </Position>
            <AltitudeMeters>669</AltitudeMeters>
            <DistanceMeters>NAN</DistanceMeters>
          </Trackpoint>
          <Trackpoint>
            <Time>2022-06-16T11:32:10.000Z</Time>
            <Position>
              <LatitudeDegrees>36.8453977815806865692138671875</LatitudeDegrees>
              <LongitudeDegrees>-4.38137761317193508148193359375</LongitudeDegrees>
            </Position>
            <AltitudeMeters>669</AltitudeMeters>
            <DistanceMeters>NAN</DistanceMeters>
          </Trackpoint>
          <Trackpoint>
            <Time>2022-06-16T11:32:13.000Z</Time>
            <Position>
              <LatitudeDegrees>36.84536819346249103546142578125</LatitudeDegrees>
              <LongitudeDegrees>-4.3814030103385448455810546875</LongitudeDegrees>
            </Position>
            <AltitudeMeters>669.4000244140625</AltitudeMeters>
            <DistanceMeters>NAN</DistanceMeters>
          </Trackpoint>
          <Trackpoint>
            <Time>2022-06-16T11:32:20.000Z</Time>
            <Position>
              <LatitudeDegrees>36.8452861346304416656494140625</LatitudeDegrees>
              <LongitudeDegrees>-4.3814392201602458953857421875</LongitudeDegrees>
            </Position>
            <AltitudeMeters>667.79998779296875</AltitudeMeters>
            <DistanceMeters>NAN</DistanceMeters>
          </Trackpoint>
          <Trackpoint>
            <Time>2022-06-16T11:32:30.000Z</Time>
            <Position>
              <LatitudeDegrees>36.8451704643666744232177734375</LatitudeDegrees>
              <LongitudeDegrees>-4.3814797885715961456298828125</LongitudeDegrees>
            </Position>
            <AltitudeMeters>666</AltitudeMeters>
            <DistanceMeters>NAN</DistanceMeters>
          </Trackpoint>
          <Trackpoint>
            <Time>2022-06-16T11:32:39.000Z</Time>
            <Position>
              <LatitudeDegrees>36.84509561397135257720947265625</LatitudeDegrees>
              <LongitudeDegrees>-4.3815565668046474456787109375</LongitudeDegrees>
            </Position>
            <AltitudeMeters>666</AltitudeMeters>
            <DistanceMeters>NAN</DistanceMeters>
          </Trackpoint>
          <Trackpoint>
            <Time>2022-06-16T11:32:40.000Z</Time>
            <Position>
              <LatitudeDegrees>36.84508790262043476104736328125</LatitudeDegrees>
              <LongitudeDegrees>-4.3815659545361995697021484375</LongitudeDegrees>
            </Position>
            <AltitudeMeters>666</AltitudeMeters>
            <DistanceMeters>NAN</DistanceMeters>
          </Trackpoint>
          <Trackpoint>
            <Time>2022-06-16T11:32:50.000Z</Time>
            <Position>
              <LatitudeDegrees>36.84500508941709995269775390625</LatitudeDegrees>
              <LongitudeDegrees>-4.381670393049716949462890625</LongitudeDegrees>
            </Position>
            <AltitudeMeters>663.79998779296875</AltitudeMeters>
            <DistanceMeters>NAN</DistanceMeters>
          </Trackpoint>
          <Trackpoint>
            <Time>2022-06-16T11:33:00.000Z</Time>
            <Position>
              <LatitudeDegrees>36.84495764784514904022216796875</LatitudeDegrees>
              <LongitudeDegrees>-4.381799139082431793212890625</LongitudeDegrees>
            </Position>
            <AltitudeMeters>662.20001220703125</AltitudeMeters>
            <DistanceMeters>NAN</DistanceMeters>
          </Trackpoint>
          <Trackpoint>
            <Time>2022-06-16T11:33:05.000Z</Time>
            <Position>
              <LatitudeDegrees>36.84494054876267910003662109375</LatitudeDegrees>
              <LongitudeDegrees>-4.381872229278087615966796875</LongitudeDegrees>
            </Position>
            <AltitudeMeters>661.79998779296875</AltitudeMeters>
            <DistanceMeters>NAN</DistanceMeters>
          </Trackpoint>
          <Trackpoint>
            <Time>2022-06-16T11:33:07.000Z</Time>
            <Position>
              <LatitudeDegrees>36.84494289569556713104248046875</LatitudeDegrees>
              <LongitudeDegrees>-4.38190181739628314971923828125</LongitudeDegrees>
            </Position>
            <AltitudeMeters>662.20001220703125</AltitudeMeters>
            <DistanceMeters>NAN</DistanceMeters>
          </Trackpoint>
          <Trackpoint>
            <Time>2022-06-16T11:33:10.000Z</Time>
            <Position>
              <LatitudeDegrees>36.84494440443813800811767578125</LatitudeDegrees>
              <LongitudeDegrees>-4.38195143826305866241455078125</LongitudeDegrees>
            </Position>
            <AltitudeMeters>662</AltitudeMeters>
            <DistanceMeters>NAN</DistanceMeters>
          </Trackpoint>
          <Trackpoint>
            <Time>2022-06-16T11:33:20.000Z</Time>
            <Position>
              <LatitudeDegrees>36.844992935657501220703125</LatitudeDegrees>
              <LongitudeDegrees>-4.38208387233316898345947265625</LongitudeDegrees>
            </Position>
            <AltitudeMeters>663.20001220703125</AltitudeMeters>
            <DistanceMeters>NAN</DistanceMeters>
          </Trackpoint>
          <Trackpoint>
            <Time>2022-06-16T11:33:30.000Z</Time>
            <Position>
              <LatitudeDegrees>36.84503610245883464813232421875</LatitudeDegrees>
              <LongitudeDegrees>-4.3822133727371692657470703125</LongitudeDegrees>
            </Position>
            <AltitudeMeters>664.5999755859375</AltitudeMeters>
            <DistanceMeters>NAN</DistanceMeters>
          </Trackpoint>
          <Trackpoint>
            <Time>2022-06-16T11:33:40.000Z</Time>
            <Position>
              <LatitudeDegrees>36.84507901780307292938232421875</LatitudeDegrees>
              <LongitudeDegrees>-4.382354356348514556884765625</LongitudeDegrees>
            </Position>
            <AltitudeMeters>665.4000244140625</AltitudeMeters>
            <DistanceMeters>NAN</DistanceMeters>
          </Trackpoint>
          <Trackpoint>
            <Time>2022-06-16T11:33:50.000Z</Time>
            <Position>
              <LatitudeDegrees>36.8451423011720180511474609375</LatitudeDegrees>
              <LongitudeDegrees>-4.38246960751712322235107421875</LongitudeDegrees>
            </Position>
            <AltitudeMeters>667.20001220703125</AltitudeMeters>
            <DistanceMeters>NAN</DistanceMeters>
          </Trackpoint>
          <Trackpoint>
            <Time>2022-06-16T11:34:00.000Z</Time>
            <Position>
              <LatitudeDegrees>36.84522561728954315185546875</LatitudeDegrees>
              <LongitudeDegrees>-4.382585696876049041748046875</LongitudeDegrees>
            </Position>
            <AltitudeMeters>669.4000244140625</AltitudeMeters>
            <DistanceMeters>NAN</DistanceMeters>
          </Trackpoint>
          <Trackpoint>
            <Time>2022-06-16T11:34:10.000Z</Time>
            <Position>
              <LatitudeDegrees>36.84530918486416339874267578125</LatitudeDegrees>
              <LongitudeDegrees>-4.3827119283378124237060546875</LongitudeDegrees>
            </Position>
            <AltitudeMeters>670.79998779296875</AltitudeMeters>
            <DistanceMeters>NAN</DistanceMeters>
          </Trackpoint>
          <Trackpoint>
            <Time>2022-06-16T11:34:20.000Z</Time>
            <Position>
              <LatitudeDegrees>36.84540373273193836212158203125</LatitudeDegrees>
              <LongitudeDegrees>-4.38280253671109676361083984375</LongitudeDegrees>
            </Position>
            <AltitudeMeters>673.20001220703125</AltitudeMeters>
            <DistanceMeters>NAN</DistanceMeters>
          </Trackpoint>
          <Trackpoint>
            <Time>2022-06-16T11:34:30.000Z</Time>
            <Position>
              <LatitudeDegrees>36.84549006633460521697998046875</LatitudeDegrees>
              <LongitudeDegrees>-4.382915608584880828857421875</LongitudeDegrees>
            </Position>
            <AltitudeMeters>674.4000244140625</AltitudeMeters>
            <DistanceMeters>NAN</DistanceMeters>
          </Trackpoint>
          <Trackpoint>
            <Time>2022-06-16T11:34:39.000Z</Time>
            <Position>
              <LatitudeDegrees>36.8455127812922000885009765625</LatitudeDegrees>
              <LongitudeDegrees>-4.38304175622761249542236328125</LongitudeDegrees>
            </Position>
            <AltitudeMeters>674.4000244140625</AltitudeMeters>
            <DistanceMeters>NAN</DistanceMeters>
          </Trackpoint>
          <Trackpoint>
            <Time>2022-06-16T11:34:40.000Z</Time>
            <Position>
              <LatitudeDegrees>36.84551470912992954254150390625</LatitudeDegrees>
              <LongitudeDegrees>-4.3830482102930545806884765625</LongitudeDegrees>
            </Position>
            <AltitudeMeters>674.4000244140625</AltitudeMeters>
            <DistanceMeters>NAN</DistanceMeters>
          </Trackpoint>
          <Trackpoint>
            <Time>2022-06-16T11:34:41.000Z</Time>
            <Position>
              <LatitudeDegrees>36.84551118873059749603271484375</LatitudeDegrees>
              <LongitudeDegrees>-4.38305600546300411224365234375</LongitudeDegrees>
            </Position>
            <AltitudeMeters>674.4000244140625</AltitudeMeters>
            <DistanceMeters>NAN</DistanceMeters>
          </Trackpoint>
          <Trackpoint>
            <Time>2022-06-16T11:34:47.000Z</Time>
            <Position>
              <LatitudeDegrees>36.84548889286816120147705078125</LatitudeDegrees>
              <LongitudeDegrees>-4.38310512341558933258056640625</LongitudeDegrees>
            </Position>
            <AltitudeMeters>673.20001220703125</AltitudeMeters>
            <DistanceMeters>NAN</DistanceMeters>
          </Trackpoint>
          <Trackpoint>
            <Time>2022-06-16T11:34:50.000Z</Time>
            <Position>
              <LatitudeDegrees>36.84546408243477344512939453125</LatitudeDegrees>
              <LongitudeDegrees>-4.38313093967735767364501953125</LongitudeDegrees>
            </Position>
            <AltitudeMeters>672.20001220703125</AltitudeMeters>
            <DistanceMeters>NAN</DistanceMeters>
          </Trackpoint>
          <Trackpoint>
            <Time>2022-06-16T11:35:00.000Z</Time>
            <Position>
              <LatitudeDegrees>36.8453706242144107818603515625</LatitudeDegrees>
              <LongitudeDegrees>-4.383191205561161041259765625</LongitudeDegrees>
            </Position>
            <AltitudeMeters>668.20001220703125</AltitudeMeters>
            <DistanceMeters>NAN</DistanceMeters>
          </Trackpoint>
          <Trackpoint>
            <Time>2022-06-16T11:35:10.000Z</Time>
            <Position>
              <LatitudeDegrees>36.84530650265514850616455078125</LatitudeDegrees>
              <LongitudeDegrees>-4.38325323164463043212890625</LongitudeDegrees>
            </Position>
            <AltitudeMeters>665.20001220703125</AltitudeMeters>
            <DistanceMeters>NAN</DistanceMeters>
          </Trackpoint>
          <Trackpoint>
            <Time>2022-06-16T11:35:13.000Z</Time>
            <Position>
              <LatitudeDegrees>36.84529325924813747406005859375</LatitudeDegrees>
              <LongitudeDegrees>-4.38328550197184085845947265625</LongitudeDegrees>
            </Position>
            <AltitudeMeters>664.5999755859375</AltitudeMeters>
            <DistanceMeters>NAN</DistanceMeters>
          </Trackpoint>
          <Trackpoint>
            <Time>2022-06-16T11:35:20.000Z</Time>
            <Position>
              <LatitudeDegrees>36.8452465720474720001220703125</LatitudeDegrees>
              <LongitudeDegrees>-4.38338004983961582183837890625</LongitudeDegrees>
            </Position>
            <AltitudeMeters>662.5999755859375</AltitudeMeters>
            <DistanceMeters>NAN</DistanceMeters>
          </Trackpoint>
          <Trackpoint>
            <Time>2022-06-16T11:35:30.000Z</Time>
            <Position>
              <LatitudeDegrees>36.845201812684535980224609375</LatitudeDegrees>
              <LongitudeDegrees>-4.38348750583827495574951171875</LongitudeDegrees>
            </Position>
            <AltitudeMeters>660.5999755859375</AltitudeMeters>
            <DistanceMeters>NAN</DistanceMeters>
          </Trackpoint>
          <Trackpoint>
            <Time>2022-06-16T11:35:40.000Z</Time>
            <Position>
              <LatitudeDegrees>36.8451469950377941131591796875</LatitudeDegrees>
              <LongitudeDegrees>-4.3835864961147308349609375</LongitudeDegrees>
            </Position>
            <AltitudeMeters>658</AltitudeMeters>
            <DistanceMeters>NAN</DistanceMeters>
          </Trackpoint>
          <Trackpoint>
            <Time>2022-06-16T11:35:50.000Z</Time>
            <Position>
              <LatitudeDegrees>36.845156885683536529541015625</LatitudeDegrees>
              <LongitudeDegrees>-4.3835729174315929412841796875</LongitudeDegrees>
            </Position>
            <AltitudeMeters>658.4000244140625</AltitudeMeters>
            <DistanceMeters>NAN</DistanceMeters>
          </Trackpoint>
          <Trackpoint>
            <Time>2022-06-16T11:36:00.000Z</Time>
            <Position>
              <LatitudeDegrees>36.84515596367418766021728515625</LatitudeDegrees>
              <LongitudeDegrees>-4.38359546475112438201904296875</LongitudeDegrees>
            </Position>
            <AltitudeMeters>658.4000244140625</AltitudeMeters>
            <DistanceMeters>NAN</DistanceMeters>
          </Trackpoint>
          <Trackpoint>
            <Time>2022-06-16T11:36:10.000Z</Time>
            <Position>
              <LatitudeDegrees>36.84520223177969455718994140625</LatitudeDegrees>
              <LongitudeDegrees>-4.38363544642925262451171875</LongitudeDegrees>
            </Position>
            <AltitudeMeters>660.20001220703125</AltitudeMeters>
            <DistanceMeters>NAN</DistanceMeters>
          </Trackpoint>
          <Trackpoint>
            <Time>2022-06-16T11:36:13.000Z</Time>
            <Position>
              <LatitudeDegrees>36.845196448266506195068359375</LatitudeDegrees>
              <LongitudeDegrees>-4.383639134466648101806640625</LongitudeDegrees>
            </Position>
            <AltitudeMeters>660</AltitudeMeters>
            <DistanceMeters>NAN</DistanceMeters>
          </Trackpoint>
          <Trackpoint>
            <Time>2022-06-16T11:36:17.000Z</Time>
            <Position>
              <LatitudeDegrees>36.845194436609745025634765625</LatitudeDegrees>
              <LongitudeDegrees>-4.38364055939018726348876953125</LongitudeDegrees>
            </Position>
            <AltitudeMeters>660</AltitudeMeters>
            <DistanceMeters>NAN</DistanceMeters>
          </Trackpoint>
          <Trackpoint>
            <Time>2022-06-16T11:36:20.000Z</Time>
            <Position>
              <LatitudeDegrees>36.84519343078136444091796875</LatitudeDegrees>
              <LongitudeDegrees>-4.3836399726569652557373046875</LongitudeDegrees>
            </Position>
            <AltitudeMeters>659.79998779296875</AltitudeMeters>
            <DistanceMeters>NAN</DistanceMeters>
          </Trackpoint>
          <Trackpoint>
            <Time>2022-06-16T11:36:30.000Z</Time>
            <Position>
              <LatitudeDegrees>36.845191754400730133056640625</LatitudeDegrees>
              <LongitudeDegrees>-4.38364491797983646392822265625</LongitudeDegrees>
            </Position>
            <AltitudeMeters>659.79998779296875</AltitudeMeters>
            <DistanceMeters>NAN</DistanceMeters>
          </Trackpoint>
          <Trackpoint>
            <Time>2022-06-16T11:36:40.000Z</Time>
            <Position>
              <LatitudeDegrees>36.84517540968954563140869140625</LatitudeDegrees>
              <LongitudeDegrees>-4.38363418914377689361572265625</LongitudeDegrees>
            </Position>
            <AltitudeMeters>659.20001220703125</AltitudeMeters>
            <DistanceMeters>NAN</DistanceMeters>
          </Trackpoint>
          <Trackpoint>
            <Time>2022-06-16T11:36:50.000Z</Time>
            <Position>
              <LatitudeDegrees>36.8451553769409656524658203125</LatitudeDegrees>
              <LongitudeDegrees>-4.38362228684127330780029296875</LongitudeDegrees>
            </Position>
            <AltitudeMeters>658.4000244140625</AltitudeMeters>
            <DistanceMeters>NAN</DistanceMeters>
          </Trackpoint>
          <Trackpoint>
            <Time>2022-06-16T11:37:00.000Z</Time>
            <Position>
              <LatitudeDegrees>36.8451480008661746978759765625</LatitudeDegrees>
              <LongitudeDegrees>-4.38361256383359432220458984375</LongitudeDegrees>
            </Position>
            <AltitudeMeters>658</AltitudeMeters>
            <DistanceMeters>NAN</DistanceMeters>
          </Trackpoint>
          <Trackpoint>
            <Time>2022-06-16T11:37:05.000Z</Time>
            <Position>
              <LatitudeDegrees>36.84514674358069896697998046875</LatitudeDegrees>
              <LongitudeDegrees>-4.3836195208132266998291015625</LongitudeDegrees>
            </Position>
            <AltitudeMeters>658</AltitudeMeters>
            <DistanceMeters>NAN</DistanceMeters>
          </Trackpoint>
          <Trackpoint>
            <Time>2022-06-16T11:37:06.000Z</Time>
            <Position>
              <LatitudeDegrees>36.84514741413295269012451171875</LatitudeDegrees>
              <LongitudeDegrees>-4.383621029555797576904296875</LongitudeDegrees>
            </Position>
            <AltitudeMeters>658</AltitudeMeters>
            <DistanceMeters>NAN</DistanceMeters>
          </Trackpoint>
          <Trackpoint>
            <Time>2022-06-16T11:37:07.000Z</Time>
            <Position>
              <LatitudeDegrees>36.84514841996133327484130859375</LatitudeDegrees>
              <LongitudeDegrees>-4.383623041212558746337890625</LongitudeDegrees>
            </Position>
            <AltitudeMeters>658</AltitudeMeters>
            <DistanceMeters>NAN</DistanceMeters>
          </Trackpoint>
          <Trackpoint>
            <Time>2022-06-16T11:37:08.000Z</Time>
            <Position>
              <LatitudeDegrees>36.845151521265506744384765625</LatitudeDegrees>
              <LongitudeDegrees>-4.38362413085997104644775390625</LongitudeDegrees>
            </Position>
            <AltitudeMeters>658.20001220703125</AltitudeMeters>
            <DistanceMeters>NAN</DistanceMeters>
          </Trackpoint>
          <Trackpoint>
            <Time>2022-06-16T11:37:09.000Z</Time>
            <Position>
              <LatitudeDegrees>36.84515428729355335235595703125</LatitudeDegrees>
              <LongitudeDegrees>-4.38362446613609790802001953125</LongitudeDegrees>
            </Position>
            <AltitudeMeters>658.4000244140625</AltitudeMeters>
            <DistanceMeters>NAN</DistanceMeters>
          </Trackpoint>
          <Trackpoint>
            <Time>2022-06-16T11:37:10.000Z</Time>
            <Position>
              <LatitudeDegrees>36.84515411965548992156982421875</LatitudeDegrees>
              <LongitudeDegrees>-4.3836235441267490386962890625</LongitudeDegrees>
            </Position>
            <AltitudeMeters>658.4000244140625</AltitudeMeters>
            <DistanceMeters>NAN</DistanceMeters>
          </Trackpoint>
          <Trackpoint>
            <Time>2022-06-16T11:37:12.000Z</Time>
            <Position>
              <LatitudeDegrees>36.84515864588320255279541015625</LatitudeDegrees>
              <LongitudeDegrees>-4.38362128101289272308349609375</LongitudeDegrees>
            </Position>
            <AltitudeMeters>658.4000244140625</AltitudeMeters>
            <DistanceMeters>NAN</DistanceMeters>
          </Trackpoint>
          <Trackpoint>
            <Time>2022-06-16T11:37:20.000Z</Time>
            <Position>
              <LatitudeDegrees>36.84515126980841159820556640625</LatitudeDegrees>
              <LongitudeDegrees>-4.38360149972140789031982421875</LongitudeDegrees>
            </Position>
            <AltitudeMeters>658.20001220703125</AltitudeMeters>
            <DistanceMeters>NAN</DistanceMeters>
          </Trackpoint>
          <Trackpoint>
            <Time>2022-06-16T11:37:30.000Z</Time>
            <Position>
              <LatitudeDegrees>36.8451590649783611297607421875</LatitudeDegrees>
              <LongitudeDegrees>-4.38357182778418064117431640625</LongitudeDegrees>
            </Position>
            <AltitudeMeters>658.5999755859375</AltitudeMeters>
            <DistanceMeters>NAN</DistanceMeters>
          </Trackpoint>
          <Trackpoint>
            <Time>2022-06-16T11:37:35.000Z</Time>
            <Position>
              <LatitudeDegrees>36.84516887180507183074951171875</LatitudeDegrees>
              <LongitudeDegrees>-4.383586160838603973388671875</LongitudeDegrees>
            </Position>
            <AltitudeMeters>658.79998779296875</AltitudeMeters>
            <DistanceMeters>NAN</DistanceMeters>
          </Trackpoint>
          <Trackpoint>
            <Time>2022-06-16T11:37:36.000Z</Time>
            <Position>
              <LatitudeDegrees>36.84516258537769317626953125</LatitudeDegrees>
              <LongitudeDegrees>-4.38358641229569911956787109375</LongitudeDegrees>
            </Position>
            <AltitudeMeters>658.5999755859375</AltitudeMeters>
            <DistanceMeters>NAN</DistanceMeters>
          </Trackpoint>
          <Trackpoint>
            <Time>2022-06-16T11:37:37.000Z</Time>
            <Position>
              <LatitudeDegrees>36.84515428729355335235595703125</LatitudeDegrees>
              <LongitudeDegrees>-4.3835838139057159423828125</LongitudeDegrees>
            </Position>
            <AltitudeMeters>658.4000244140625</AltitudeMeters>
            <DistanceMeters>NAN</DistanceMeters>
          </Trackpoint>
          <Trackpoint>
            <Time>2022-06-16T11:37:40.000Z</Time>
            <Position>
              <LatitudeDegrees>36.84514389373362064361572265625</LatitudeDegrees>
              <LongitudeDegrees>-4.3835772760212421417236328125</LongitudeDegrees>
            </Position>
            <AltitudeMeters>658</AltitudeMeters>
            <DistanceMeters>NAN</DistanceMeters>
          </Trackpoint>
          <Trackpoint>
            <Time>2022-06-16T11:37:43.000Z</Time>
            <Position>
              <LatitudeDegrees>36.84514439664781093597412109375</LatitudeDegrees>
              <LongitudeDegrees>-4.38357752747833728790283203125</LongitudeDegrees>
            </Position>
            <AltitudeMeters>658</AltitudeMeters>
            <DistanceMeters>NAN</DistanceMeters>
          </Trackpoint>
          <Trackpoint>
            <Time>2022-06-16T11:37:50.000Z</Time>
            <Position>
              <LatitudeDegrees>36.84515043161809444427490234375</LatitudeDegrees>
              <LongitudeDegrees>-4.38358389772474765777587890625</LongitudeDegrees>
            </Position>
            <AltitudeMeters>658.20001220703125</AltitudeMeters>
            <DistanceMeters>NAN</DistanceMeters>
          </Trackpoint>
          <Trackpoint>
            <Time>2022-06-16T11:37:54.000Z</Time>
            <Position>
              <LatitudeDegrees>36.845152191817760467529296875</LatitudeDegrees>
              <LongitudeDegrees>-4.383588843047618865966796875</LongitudeDegrees>
            </Position>
            <AltitudeMeters>658.20001220703125</AltitudeMeters>
            <DistanceMeters>NAN</DistanceMeters>
          </Trackpoint>
          <Trackpoint>
            <Time>2022-06-16T11:38:00.000Z</Time>
            <Position>
              <LatitudeDegrees>36.84515646658837795257568359375</LatitudeDegrees>
              <LongitudeDegrees>-4.383591525256633758544921875</LongitudeDegrees>
            </Position>
            <AltitudeMeters>658.4000244140625</AltitudeMeters>
            <DistanceMeters>NAN</DistanceMeters>
          </Trackpoint>
          <Trackpoint>
            <Time>2022-06-16T11:38:08.000Z</Time>
            <Position>
              <LatitudeDegrees>36.84517138637602329254150390625</LatitudeDegrees>
              <LongitudeDegrees>-4.38359982334077358245849609375</LongitudeDegrees>
            </Position>
            <AltitudeMeters>659</AltitudeMeters>
            <DistanceMeters>NAN</DistanceMeters>
          </Trackpoint>
          <Trackpoint>
            <Time>2022-06-16T11:38:10.000Z</Time>
            <Position>
              <LatitudeDegrees>36.8451761640608310699462890625</LatitudeDegrees>
              <LongitudeDegrees>-4.383604265749454498291015625</LongitudeDegrees>
            </Position>
            <AltitudeMeters>659.20001220703125</AltitudeMeters>
            <DistanceMeters>NAN</DistanceMeters>
          </Trackpoint>
          <Trackpoint>
            <Time>2022-06-16T11:38:14.000Z</Time>
            <Position>
              <LatitudeDegrees>36.84518001973628997802734375</LatitudeDegrees>
              <LongitudeDegrees>-4.383612312376499176025390625</LongitudeDegrees>
            </Position>
            <AltitudeMeters>659.4000244140625</AltitudeMeters>
            <DistanceMeters>NAN</DistanceMeters>
          </Trackpoint>
          <Trackpoint>
            <Time>2022-06-16T11:38:15.000Z</Time>
            <Position>
              <LatitudeDegrees>36.8451805226504802703857421875</LatitudeDegrees>
              <LongitudeDegrees>-4.383612982928752899169921875</LongitudeDegrees>
            </Position>
            <AltitudeMeters>659.4000244140625</AltitudeMeters>
            <DistanceMeters>NAN</DistanceMeters>
          </Trackpoint>
          <Trackpoint>
            <Time>2022-06-16T11:38:17.000Z</Time>
            <Position>
              <LatitudeDegrees>36.8451821990311145782470703125</LatitudeDegrees>
              <LongitudeDegrees>-4.38361424021422863006591796875</LongitudeDegrees>
            </Position>
            <AltitudeMeters>659.4000244140625</AltitudeMeters>
            <DistanceMeters>NAN</DistanceMeters>
          </Trackpoint>
          <Trackpoint>
            <Time>2022-06-16T11:38:20.000Z</Time>
            <Position>
              <LatitudeDegrees>36.84518446214497089385986328125</LatitudeDegrees>
              <LongitudeDegrees>-4.38361591659486293792724609375</LongitudeDegrees>
            </Position>
            <AltitudeMeters>659.5999755859375</AltitudeMeters>
            <DistanceMeters>NAN</DistanceMeters>
          </Trackpoint>
          <Trackpoint>
            <Time>2022-06-16T11:38:30.000Z</Time>
            <Position>
              <LatitudeDegrees>36.84518295340240001678466796875</LatitudeDegrees>
              <LongitudeDegrees>-4.3836168386042118072509765625</LongitudeDegrees>
            </Position>
            <AltitudeMeters>659.4000244140625</AltitudeMeters>
            <DistanceMeters>NAN</DistanceMeters>
          </Trackpoint>
          <Trackpoint>
            <Time>2022-06-16T11:38:33.000Z</Time>
            <Position>
              <LatitudeDegrees>36.845182366669178009033203125</LatitudeDegrees>
              <LongitudeDegrees>-4.38361658714711666107177734375</LongitudeDegrees>
            </Position>
            <AltitudeMeters>659.4000244140625</AltitudeMeters>
            <DistanceMeters>NAN</DistanceMeters>
          </Trackpoint>
          <Trackpoint>
            <Time>2022-06-16T11:38:38.000Z</Time>
            <Position>
              <LatitudeDegrees>36.845186054706573486328125</LatitudeDegrees>
              <LongitudeDegrees>-4.383612312376499176025390625</LongitudeDegrees>
            </Position>
            <AltitudeMeters>659.5999755859375</AltitudeMeters>
            <DistanceMeters>NAN</DistanceMeters>
          </Trackpoint>
          <Trackpoint>
            <Time>2022-06-16T11:38:40.000Z</Time>
            <Position>
              <LatitudeDegrees>36.84518563561141490936279296875</LatitudeDegrees>
              <LongitudeDegrees>-4.38361373730003833770751953125</LongitudeDegrees>
            </Position>
            <AltitudeMeters>659.5999755859375</AltitudeMeters>
            <DistanceMeters>NAN</DistanceMeters>
          </Trackpoint>
          <Trackpoint>
            <Time>2022-06-16T11:38:42.000Z</Time>
            <Position>
              <LatitudeDegrees>36.84518328867852687835693359375</LatitudeDegrees>
              <LongitudeDegrees>-4.38361625187098979949951171875</LongitudeDegrees>
            </Position>
            <AltitudeMeters>659.4000244140625</AltitudeMeters>
            <DistanceMeters>NAN</DistanceMeters>
          </Trackpoint>
          <Trackpoint>
            <Time>2022-06-16T11:38:46.000Z</Time>
            <Position>
              <LatitudeDegrees>36.845190413296222686767578125</LatitudeDegrees>
              <LongitudeDegrees>-4.3836191855370998382568359375</LongitudeDegrees>
            </Position>
            <AltitudeMeters>659.79998779296875</AltitudeMeters>
            <DistanceMeters>NAN</DistanceMeters>
          </Trackpoint>
          <Trackpoint>
            <Time>2022-06-16T11:38:50.000Z</Time>
            <Position>
              <LatitudeDegrees>36.8451905809342861175537109375</LatitudeDegrees>
              <LongitudeDegrees>-4.38362563960254192352294921875</LongitudeDegrees>
            </Position>
            <AltitudeMeters>659.79998779296875</AltitudeMeters>
            <DistanceMeters>NAN</DistanceMeters>
          </Trackpoint>
          <Trackpoint>
            <Time>2022-06-16T11:38:53.000Z</Time>
            <Position>
              <LatitudeDegrees>36.84519343078136444091796875</LatitudeDegrees>
              <LongitudeDegrees>-4.383625052869319915771484375</LongitudeDegrees>
            </Position>
            <AltitudeMeters>659.79998779296875</AltitudeMeters>
            <DistanceMeters>NAN</DistanceMeters>
          </Trackpoint>
          <Trackpoint>
            <Time>2022-06-16T11:39:00.000Z</Time>
            <Position>
              <LatitudeDegrees>36.84518806636333465576171875</LatitudeDegrees>
              <LongitudeDegrees>-4.38362681306898593902587890625</LongitudeDegrees>
            </Position>
            <AltitudeMeters>659.5999755859375</AltitudeMeters>
            <DistanceMeters>NAN</DistanceMeters>
          </Trackpoint>
          <Trackpoint>
            <Time>2022-06-16T11:39:03.000Z</Time>
            <Position>
              <LatitudeDegrees>36.8451845459640026092529296875</LatitudeDegrees>
              <LongitudeDegrees>-4.38362647779285907745361328125</LongitudeDegrees>
            </Position>
            <AltitudeMeters>659.5999755859375</AltitudeMeters>
            <DistanceMeters>NAN</DistanceMeters>
          </Trackpoint>
          <Trackpoint>
            <Time>2022-06-16T11:39:09.000Z</Time>
            <Position>
              <LatitudeDegrees>36.84517792426049709320068359375</LatitudeDegrees>
              <LongitudeDegrees>-4.38361742533743381500244140625</LongitudeDegrees>
            </Position>
            <AltitudeMeters>659.20001220703125</AltitudeMeters>
            <DistanceMeters>NAN</DistanceMeters>
          </Trackpoint>
          <Trackpoint>
            <Time>2022-06-16T11:39:10.000Z</Time>
            <Position>
              <LatitudeDegrees>36.84517792426049709320068359375</LatitudeDegrees>
              <LongitudeDegrees>-4.38361759297549724578857421875</LongitudeDegrees>
            </Position>
            <AltitudeMeters>659.20001220703125</AltitudeMeters>
            <DistanceMeters>NAN</DistanceMeters>
          </Trackpoint>
          <Trackpoint>
            <Time>2022-06-16T11:39:14.000Z</Time>
            <Position>
              <LatitudeDegrees>36.84517809189856052398681640625</LatitudeDegrees>
              <LongitudeDegrees>-4.38361667096614837646484375</LongitudeDegrees>
            </Position>
            <AltitudeMeters>659.20001220703125</AltitudeMeters>
            <DistanceMeters>NAN</DistanceMeters>
          </Trackpoint>
          <Trackpoint>
            <Time>2022-06-16T11:39:15.000Z</Time>
            <Position>
              <LatitudeDegrees>36.84517825953662395477294921875</LatitudeDegrees>
              <LongitudeDegrees>-4.38361667096614837646484375</LongitudeDegrees>
            </Position>
            <AltitudeMeters>659.20001220703125</AltitudeMeters>
            <DistanceMeters>NAN</DistanceMeters>
          </Trackpoint>
          <Trackpoint>
            <Time>2022-06-16T11:39:20.000Z</Time>
            <Position>
              <LatitudeDegrees>36.84517825953662395477294921875</LatitudeDegrees>
              <LongitudeDegrees>-4.38361608423292636871337890625</LongitudeDegrees>
            </Position>
            <AltitudeMeters>659.20001220703125</AltitudeMeters>
            <DistanceMeters>NAN</DistanceMeters>
          </Trackpoint>
          <Trackpoint>
            <Time>2022-06-16T11:39:30.000Z</Time>
            <Position>
              <LatitudeDegrees>36.84517608024179935455322265625</LatitudeDegrees>
              <LongitudeDegrees>-4.3836171738803386688232421875</LongitudeDegrees>
            </Position>
            <AltitudeMeters>659.20001220703125</AltitudeMeters>
            <DistanceMeters>NAN</DistanceMeters>
          </Trackpoint>
          <Trackpoint>
            <Time>2022-06-16T11:39:36.000Z</Time>
            <Position>
              <LatitudeDegrees>36.845169961452484130859375</LatitudeDegrees>
              <LongitudeDegrees>-4.38361155800521373748779296875</LongitudeDegrees>
            </Position>
            <AltitudeMeters>659</AltitudeMeters>
            <DistanceMeters>NAN</DistanceMeters>
          </Trackpoint>
          <Trackpoint>
            <Time>2022-06-16T11:39:40.000Z</Time>
            <Position>
              <LatitudeDegrees>36.84516116045415401458740234375</LatitudeDegrees>
              <LongitudeDegrees>-4.383607618510723114013671875</LongitudeDegrees>
            </Position>
            <AltitudeMeters>658.5999755859375</AltitudeMeters>
            <DistanceMeters>NAN</DistanceMeters>
          </Trackpoint>
          <Trackpoint>
            <Time>2022-06-16T11:39:45.000Z</Time>
            <Position>
              <LatitudeDegrees>36.84516149573028087615966796875</LatitudeDegrees>
              <LongitudeDegrees>-4.38360736705362796783447265625</LongitudeDegrees>
            </Position>
            <AltitudeMeters>658.5999755859375</AltitudeMeters>
            <DistanceMeters>NAN</DistanceMeters>
          </Trackpoint>
          <Trackpoint>
            <Time>2022-06-16T11:39:50.000Z</Time>
            <Position>
              <LatitudeDegrees>36.84516132809221744537353515625</LatitudeDegrees>
              <LongitudeDegrees>-4.38360669650137424468994140625</LongitudeDegrees>
            </Position>
            <AltitudeMeters>658.5999755859375</AltitudeMeters>
            <DistanceMeters>NAN</DistanceMeters>
          </Trackpoint>
          <Trackpoint>
            <Time>2022-06-16T11:39:56.000Z</Time>
            <Position>
              <LatitudeDegrees>36.8451610766351222991943359375</LatitudeDegrees>
              <LongitudeDegrees>-4.3836057744920253753662109375</LongitudeDegrees>
            </Position>
            <AltitudeMeters>658.5999755859375</AltitudeMeters>
            <DistanceMeters>NAN</DistanceMeters>
          </Trackpoint>
          <Trackpoint>
            <Time>2022-06-16T11:40:00.000Z</Time>
            <Position>
              <LatitudeDegrees>36.84516099281609058380126953125</LatitudeDegrees>
              <LongitudeDegrees>-4.38360636122524738311767578125</LongitudeDegrees>
            </Position>
            <AltitudeMeters>658.5999755859375</AltitudeMeters>
            <DistanceMeters>NAN</DistanceMeters>
          </Trackpoint>
          <Trackpoint>
            <Time>2022-06-16T11:40:10.000Z</Time>
            <Position>
              <LatitudeDegrees>36.84516350738704204559326171875</LatitudeDegrees>
              <LongitudeDegrees>-4.38360267318785190582275390625</LongitudeDegrees>
            </Position>
            <AltitudeMeters>658.5999755859375</AltitudeMeters>
            <DistanceMeters>NAN</DistanceMeters>
          </Trackpoint>
          <Trackpoint>
            <Time>2022-06-16T11:40:18.000Z</Time>
            <Position>
              <LatitudeDegrees>36.845164932310581207275390625</LatitudeDegrees>
              <LongitudeDegrees>-4.3836091272532939910888671875</LongitudeDegrees>
            </Position>
            <AltitudeMeters>658.79998779296875</AltitudeMeters>
            <DistanceMeters>NAN</DistanceMeters>
          </Trackpoint>
          <Trackpoint>
            <Time>2022-06-16T11:40:20.000Z</Time>
            <Position>
              <LatitudeDegrees>36.84516803361475467681884765625</LatitudeDegrees>
              <LongitudeDegrees>-4.38361004926264286041259765625</LongitudeDegrees>
            </Position>
            <AltitudeMeters>658.79998779296875</AltitudeMeters>
            <DistanceMeters>NAN</DistanceMeters>
          </Trackpoint>
          <Trackpoint>
            <Time>2022-06-16T11:40:26.000Z</Time>
            <Position>
              <LatitudeDegrees>36.84516434557735919952392578125</LatitudeDegrees>
              <LongitudeDegrees>-4.38361457549035549163818359375</LongitudeDegrees>
            </Position>
            <AltitudeMeters>658.79998779296875</AltitudeMeters>
            <DistanceMeters>NAN</DistanceMeters>
          </Trackpoint>
          <Trackpoint>
            <Time>2022-06-16T11:40:30.000Z</Time>
            <Position>
              <LatitudeDegrees>36.8451550416648387908935546875</LatitudeDegrees>
              <LongitudeDegrees>-4.3836094625294208526611328125</LongitudeDegrees>
            </Position>
            <AltitudeMeters>658.4000244140625</AltitudeMeters>
            <DistanceMeters>NAN</DistanceMeters>
          </Trackpoint>
          <Trackpoint>
            <Time>2022-06-16T11:40:40.000Z</Time>
            <Position>
              <LatitudeDegrees>36.8451469950377941131591796875</LatitudeDegrees>
              <LongitudeDegrees>-4.38360552303493022918701171875</LongitudeDegrees>
            </Position>
            <AltitudeMeters>658</AltitudeMeters>
            <DistanceMeters>NAN</DistanceMeters>
          </Trackpoint>
          <Trackpoint>
            <Time>2022-06-16T11:40:50.000Z</Time>
            <Position>
              <LatitudeDegrees>36.84516451321542263031005859375</LatitudeDegrees>
              <LongitudeDegrees>-4.3836134858429431915283203125</LongitudeDegrees>
            </Position>
            <AltitudeMeters>658.79998779296875</AltitudeMeters>
            <DistanceMeters>NAN</DistanceMeters>
          </Trackpoint>
          <Trackpoint>
            <Time>2022-06-16T11:41:00.000Z</Time>
            <Position>
              <LatitudeDegrees>36.84518312104046344757080078125</LatitudeDegrees>
              <LongitudeDegrees>-4.3836235441267490386962890625</LongitudeDegrees>
            </Position>
            <AltitudeMeters>659.4000244140625</AltitudeMeters>
            <DistanceMeters>NAN</DistanceMeters>
          </Trackpoint>
          <Trackpoint>
            <Time>2022-06-16T11:41:10.000Z</Time>
            <Position>
              <LatitudeDegrees>36.8451766669750213623046875</LatitudeDegrees>
              <LongitudeDegrees>-4.38361776061356067657470703125</LongitudeDegrees>
            </Position>
            <AltitudeMeters>659.20001220703125</AltitudeMeters>
            <DistanceMeters>NAN</DistanceMeters>
          </Trackpoint>
          <Trackpoint>
            <Time>2022-06-16T11:41:15.000Z</Time>
            <Position>
              <LatitudeDegrees>36.845169626176357269287109375</LatitudeDegrees>
              <LongitudeDegrees>-4.38361256383359432220458984375</LongitudeDegrees>
            </Position>
            <AltitudeMeters>659</AltitudeMeters>
            <DistanceMeters>NAN</DistanceMeters>
          </Trackpoint>
          <Trackpoint>
            <Time>2022-06-16T11:41:16.000Z</Time>
            <Position>
              <LatitudeDegrees>36.84517222456634044647216796875</LatitudeDegrees>
              <LongitudeDegrees>-4.38361222855746746063232421875</LongitudeDegrees>
            </Position>
            <AltitudeMeters>659</AltitudeMeters>
            <DistanceMeters>NAN</DistanceMeters>
          </Trackpoint>
          <Trackpoint>
            <Time>2022-06-16T11:41:18.000Z</Time>
            <Position>
              <LatitudeDegrees>36.8451739847660064697265625</LatitudeDegrees>
              <LongitudeDegrees>-4.38361373730003833770751953125</LongitudeDegrees>
            </Position>
            <AltitudeMeters>659</AltitudeMeters>
            <DistanceMeters>NAN</DistanceMeters>
          </Trackpoint>
          <Trackpoint>
            <Time>2022-06-16T11:41:19.000Z</Time>
            <Position>
              <LatitudeDegrees>36.84517155401408672332763671875</LatitudeDegrees>
              <LongitudeDegrees>-4.38361222855746746063232421875</LongitudeDegrees>
            </Position>
            <AltitudeMeters>659</AltitudeMeters>
            <DistanceMeters>NAN</DistanceMeters>
          </Trackpoint>
          <Trackpoint>
            <Time>2022-06-16T11:41:20.000Z</Time>
            <Position>
              <LatitudeDegrees>36.845164597034454345703125</LatitudeDegrees>
              <LongitudeDegrees>-4.383610971271991729736328125</LongitudeDegrees>
            </Position>
            <AltitudeMeters>658.79998779296875</AltitudeMeters>
            <DistanceMeters>NAN</DistanceMeters>
          </Trackpoint>
          <Trackpoint>
            <Time>2022-06-16T11:41:21.000Z</Time>
            <Position>
              <LatitudeDegrees>36.845156885683536529541015625</LatitudeDegrees>
              <LongitudeDegrees>-4.38360669650137424468994140625</LongitudeDegrees>
            </Position>
            <AltitudeMeters>658.4000244140625</AltitudeMeters>
            <DistanceMeters>NAN</DistanceMeters>
          </Trackpoint>
          <Trackpoint>
            <Time>2022-06-16T11:41:28.000Z</Time>
            <Position>
              <LatitudeDegrees>36.845145486295223236083984375</LatitudeDegrees>
              <LongitudeDegrees>-4.38360703177750110626220703125</LongitudeDegrees>
            </Position>
            <AltitudeMeters>658</AltitudeMeters>
            <DistanceMeters>NAN</DistanceMeters>
          </Trackpoint>
          <Trackpoint>
            <Time>2022-06-16T11:41:29.000Z</Time>
            <Position>
              <LatitudeDegrees>36.8451456539332866668701171875</LatitudeDegrees>
              <LongitudeDegrees>-4.383609294891357421875</LongitudeDegrees>
            </Position>
            <AltitudeMeters>658</AltitudeMeters>
            <DistanceMeters>NAN</DistanceMeters>
          </Trackpoint>
          <Trackpoint>
            <Time>2022-06-16T11:41:30.000Z</Time>
            <Position>
              <LatitudeDegrees>36.84514758177101612091064453125</LatitudeDegrees>
              <LongitudeDegrees>-4.38361256383359432220458984375</LongitudeDegrees>
            </Position>
            <AltitudeMeters>658</AltitudeMeters>
            <DistanceMeters>NAN</DistanceMeters>
          </Trackpoint>
          <Trackpoint>
            <Time>2022-06-16T11:41:32.000Z</Time>
            <Position>
              <LatitudeDegrees>36.84514439664781093597412109375</LatitudeDegrees>
              <LongitudeDegrees>-4.38361465930938720703125</LongitudeDegrees>
            </Position>
            <AltitudeMeters>658</AltitudeMeters>
            <DistanceMeters>NAN</DistanceMeters>
          </Trackpoint>
          <Trackpoint>
            <Time>2022-06-16T11:41:40.000Z</Time>
            <Position>
              <LatitudeDegrees>36.84513282962143421173095703125</LatitudeDegrees>
              <LongitudeDegrees>-4.38361876644194126129150390625</LongitudeDegrees>
            </Position>
            <AltitudeMeters>657.4000244140625</AltitudeMeters>
            <DistanceMeters>NAN</DistanceMeters>
          </Trackpoint>
          <Trackpoint>
            <Time>2022-06-16T11:41:43.000Z</Time>
            <Position>
              <LatitudeDegrees>36.84513215906918048858642578125</LatitudeDegrees>
              <LongitudeDegrees>-4.38361826352775096893310546875</LongitudeDegrees>
            </Position>
            <AltitudeMeters>657.4000244140625</AltitudeMeters>
            <DistanceMeters>NAN</DistanceMeters>
          </Trackpoint>
          <Trackpoint>
            <Time>2022-06-16T11:41:50.000Z</Time>
            <Position>
              <LatitudeDegrees>36.84512369334697723388671875</LatitudeDegrees>
              <LongitudeDegrees>-4.38361373730003833770751953125</LongitudeDegrees>
            </Position>
            <AltitudeMeters>657.20001220703125</AltitudeMeters>
            <DistanceMeters>NAN</DistanceMeters>
          </Trackpoint>
          <Trackpoint>
            <Time>2022-06-16T11:41:55.000Z</Time>
            <Position>
              <LatitudeDegrees>36.8451134674251079559326171875</LatitudeDegrees>
              <LongitudeDegrees>-4.38360937871038913726806640625</LongitudeDegrees>
            </Position>
            <AltitudeMeters>656.5999755859375</AltitudeMeters>
            <DistanceMeters>NAN</DistanceMeters>
          </Trackpoint>
          <Trackpoint>
            <Time>2022-06-16T11:42:00.000Z</Time>
            <Position>
              <LatitudeDegrees>36.84510449878871440887451171875</LatitudeDegrees>
              <LongitudeDegrees>-4.3836077861487865447998046875</LongitudeDegrees>
            </Position>
            <AltitudeMeters>656.4000244140625</AltitudeMeters>
            <DistanceMeters>NAN</DistanceMeters>
          </Trackpoint>
          <Trackpoint>
            <Time>2022-06-16T11:42:10.000Z</Time>
            <Position>
              <LatitudeDegrees>36.84510089457035064697265625</LatitudeDegrees>
              <LongitudeDegrees>-4.38360191881656646728515625</LongitudeDegrees>
            </Position>
            <AltitudeMeters>656.20001220703125</AltitudeMeters>
            <DistanceMeters>NAN</DistanceMeters>
          </Trackpoint>
          <Trackpoint>
            <Time>2022-06-16T11:42:20.000Z</Time>
            <Position>
              <LatitudeDegrees>36.84509150683879852294921875</LatitudeDegrees>
              <LongitudeDegrees>-4.38359923660755157470703125</LongitudeDegrees>
            </Position>
            <AltitudeMeters>655.79998779296875</AltitudeMeters>
            <DistanceMeters>NAN</DistanceMeters>
          </Trackpoint>
          <Trackpoint>
            <Time>2022-06-16T11:42:21.000Z</Time>
            <Position>
              <LatitudeDegrees>36.8450962007045745849609375</LatitudeDegrees>
              <LongitudeDegrees>-4.38359797932207584381103515625</LongitudeDegrees>
            </Position>
            <AltitudeMeters>656</AltitudeMeters>
            <DistanceMeters>NAN</DistanceMeters>
          </Trackpoint>
          <Trackpoint>
            <Time>2022-06-16T11:42:22.000Z</Time>
            <Position>
              <LatitudeDegrees>36.84510282240808010101318359375</LatitudeDegrees>
              <LongitudeDegrees>-4.38360393047332763671875</LongitudeDegrees>
            </Position>
            <AltitudeMeters>656.20001220703125</AltitudeMeters>
            <DistanceMeters>NAN</DistanceMeters>
          </Trackpoint>
          <Trackpoint>
            <Time>2022-06-16T11:42:25.000Z</Time>
            <Position>
              <LatitudeDegrees>36.84512101113796234130859375</LatitudeDegrees>
              <LongitudeDegrees>-4.38360082916915416717529296875</LongitudeDegrees>
            </Position>
            <AltitudeMeters>657</AltitudeMeters>
            <DistanceMeters>NAN</DistanceMeters>
          </Trackpoint>
          <Trackpoint>
            <Time>2022-06-16T11:42:27.000Z</Time>
            <Position>
              <LatitudeDegrees>36.8451364338397979736328125</LatitudeDegrees>
              <LongitudeDegrees>-4.38359965570271015167236328125</LongitudeDegrees>
            </Position>
            <AltitudeMeters>657.5999755859375</AltitudeMeters>
            <DistanceMeters>NAN</DistanceMeters>
          </Trackpoint>
          <Trackpoint>
            <Time>2022-06-16T11:42:30.000Z</Time>
            <Position>
              <LatitudeDegrees>36.84515529312193393707275390625</LatitudeDegrees>
              <LongitudeDegrees>-4.38359227962791919708251953125</LongitudeDegrees>
            </Position>
            <AltitudeMeters>658.4000244140625</AltitudeMeters>
            <DistanceMeters>NAN</DistanceMeters>
          </Trackpoint>
          <Trackpoint>
            <Time>2022-06-16T11:42:31.000Z</Time>
            <Position>
              <LatitudeDegrees>36.84516401030123233795166015625</LatitudeDegrees>
              <LongitudeDegrees>-4.3835859932005405426025390625</LongitudeDegrees>
            </Position>
            <AltitudeMeters>658.5999755859375</AltitudeMeters>
            <DistanceMeters>NAN</DistanceMeters>
          </Trackpoint>
          <Trackpoint>
            <Time>2022-06-16T11:42:40.000Z</Time>
            <Position>
              <LatitudeDegrees>36.84520491398870944976806640625</LatitudeDegrees>
              <LongitudeDegrees>-4.38356294296681880950927734375</LongitudeDegrees>
            </Position>
            <AltitudeMeters>660.4000244140625</AltitudeMeters>
            <DistanceMeters>NAN</DistanceMeters>
          </Trackpoint>
          <Trackpoint>
            <Time>2022-06-16T11:42:44.000Z</Time>
            <Position>
              <LatitudeDegrees>36.84523106552660465240478515625</LatitudeDegrees>
              <LongitudeDegrees>-4.3835762701928615570068359375</LongitudeDegrees>
            </Position>
            <AltitudeMeters>661.4000244140625</AltitudeMeters>
            <DistanceMeters>NAN</DistanceMeters>
          </Trackpoint>
          <Trackpoint>
            <Time>2022-06-16T11:42:48.000Z</Time>
            <Position>
              <LatitudeDegrees>36.84523995034396648406982421875</LatitudeDegrees>
              <LongitudeDegrees>-4.383603595197200775146484375</LongitudeDegrees>
            </Position>
            <AltitudeMeters>661.79998779296875</AltitudeMeters>
            <DistanceMeters>NAN</DistanceMeters>
          </Trackpoint>
          <Trackpoint>
            <Time>2022-06-16T11:42:50.000Z</Time>
            <Position>
              <LatitudeDegrees>36.8452422134578227996826171875</LatitudeDegrees>
              <LongitudeDegrees>-4.38362077809870243072509765625</LongitudeDegrees>
            </Position>
            <AltitudeMeters>661.79998779296875</AltitudeMeters>
            <DistanceMeters>NAN</DistanceMeters>
          </Trackpoint>
          <Trackpoint>
            <Time>2022-06-16T11:42:56.000Z</Time>
            <Position>
              <LatitudeDegrees>36.84526677243411540985107421875</LatitudeDegrees>
              <LongitudeDegrees>-4.3836629390716552734375</LongitudeDegrees>
            </Position>
            <AltitudeMeters>662.79998779296875</AltitudeMeters>
            <DistanceMeters>NAN</DistanceMeters>
          </Trackpoint>
          <Trackpoint>
            <Time>2022-06-16T11:43:00.000Z</Time>
            <Position>
              <LatitudeDegrees>36.84528672136366367340087890625</LatitudeDegrees>
              <LongitudeDegrees>-4.383692778646945953369140625</LongitudeDegrees>
            </Position>
            <AltitudeMeters>663</AltitudeMeters>
            <DistanceMeters>NAN</DistanceMeters>
          </Trackpoint>
          <Trackpoint>
            <Time>2022-06-16T11:43:02.000Z</Time>
            <Position>
              <LatitudeDegrees>36.84529895894229412078857421875</LatitudeDegrees>
              <LongitudeDegrees>-4.383703507483005523681640625</LongitudeDegrees>
            </Position>
            <AltitudeMeters>663.20001220703125</AltitudeMeters>
            <DistanceMeters>NAN</DistanceMeters>
          </Trackpoint>
          <Trackpoint>
            <Time>2022-06-16T11:43:06.000Z</Time>
            <Position>
              <LatitudeDegrees>36.84532712213695049285888671875</LatitudeDegrees>
              <LongitudeDegrees>-4.3837140686810016632080078125</LongitudeDegrees>
            </Position>
            <AltitudeMeters>663.5999755859375</AltitudeMeters>
            <DistanceMeters>NAN</DistanceMeters>
          </Trackpoint>
          <Trackpoint>
            <Time>2022-06-16T11:43:10.000Z</Time>
            <Position>
              <LatitudeDegrees>36.8453588895499706268310546875</LatitudeDegrees>
              <LongitudeDegrees>-4.3837180919945240020751953125</LongitudeDegrees>
            </Position>
            <AltitudeMeters>664.20001220703125</AltitudeMeters>
            <DistanceMeters>NAN</DistanceMeters>
          </Trackpoint>
          <Trackpoint>
            <Time>2022-06-16T11:43:13.000Z</Time>
            <Position>
              <LatitudeDegrees>36.84538185596466064453125</LatitudeDegrees>
              <LongitudeDegrees>-4.3837274797260761260986328125</LongitudeDegrees>
            </Position>
            <AltitudeMeters>664.5999755859375</AltitudeMeters>
            <DistanceMeters>NAN</DistanceMeters>
          </Trackpoint>
          <Trackpoint>
            <Time>2022-06-16T11:43:16.000Z</Time>
            <Position>
              <LatitudeDegrees>36.8454095162451267242431640625</LatitudeDegrees>
              <LongitudeDegrees>-4.3837301619350910186767578125</LongitudeDegrees>
            </Position>
            <AltitudeMeters>665.5999755859375</AltitudeMeters>
            <DistanceMeters>NAN</DistanceMeters>
          </Trackpoint>
          <Trackpoint>
            <Time>2022-06-16T11:43:18.000Z</Time>
            <Position>
              <LatitudeDegrees>36.845431812107563018798828125</LatitudeDegrees>
              <LongitudeDegrees>-4.38373602926731109619140625</LongitudeDegrees>
            </Position>
            <AltitudeMeters>666.20001220703125</AltitudeMeters>
            <DistanceMeters>NAN</DistanceMeters>
          </Trackpoint>
          <Trackpoint>
            <Time>2022-06-16T11:43:20.000Z</Time>
            <Position>
              <LatitudeDegrees>36.8454547785222530364990234375</LatitudeDegrees>
              <LongitudeDegrees>-4.38374147750437259674072265625</LongitudeDegrees>
            </Position>
            <AltitudeMeters>667</AltitudeMeters>
            <DistanceMeters>NAN</DistanceMeters>
          </Trackpoint>
          <Trackpoint>
            <Time>2022-06-16T11:43:22.000Z</Time>
            <Position>
              <LatitudeDegrees>36.8454802595078945159912109375</LatitudeDegrees>
              <LongitudeDegrees>-4.383745081722736358642578125</LongitudeDegrees>
            </Position>
            <AltitudeMeters>667.79998779296875</AltitudeMeters>
            <DistanceMeters>NAN</DistanceMeters>
          </Trackpoint>
          <Trackpoint>
            <Time>2022-06-16T11:43:24.000Z</Time>
            <Position>
              <LatitudeDegrees>36.84550213627517223358154296875</LatitudeDegrees>
              <LongitudeDegrees>-4.383746087551116943359375</LongitudeDegrees>
            </Position>
            <AltitudeMeters>668.5999755859375</AltitudeMeters>
            <DistanceMeters>NAN</DistanceMeters>
          </Trackpoint>
          <Trackpoint>
            <Time>2022-06-16T11:43:28.000Z</Time>
            <Position>
              <LatitudeDegrees>36.845548488199710845947265625</LatitudeDegrees>
              <LongitudeDegrees>-4.383759163320064544677734375</LongitudeDegrees>
            </Position>
            <AltitudeMeters>670</AltitudeMeters>
            <DistanceMeters>NAN</DistanceMeters>
          </Trackpoint>
          <Trackpoint>
            <Time>2022-06-16T11:43:30.000Z</Time>
            <Position>
              <LatitudeDegrees>36.8455714546144008636474609375</LatitudeDegrees>
              <LongitudeDegrees>-4.38376863487064838409423828125</LongitudeDegrees>
            </Position>
            <AltitudeMeters>670.79998779296875</AltitudeMeters>
            <DistanceMeters>NAN</DistanceMeters>
          </Trackpoint>
          <Trackpoint>
            <Time>2022-06-16T11:43:40.000Z</Time>
            <Position>
              <LatitudeDegrees>36.845689304172992706298828125</LatitudeDegrees>
              <LongitudeDegrees>-4.38379545696079730987548828125</LongitudeDegrees>
            </Position>
            <AltitudeMeters>673.79998779296875</AltitudeMeters>
            <DistanceMeters>NAN</DistanceMeters>
          </Trackpoint>
          <Trackpoint>
            <Time>2022-06-16T11:43:50.000Z</Time>
            <Position>
              <LatitudeDegrees>36.845814697444438934326171875</LatitudeDegrees>
              <LongitudeDegrees>-4.3838059343397617340087890625</LongitudeDegrees>
            </Position>
            <AltitudeMeters>676.20001220703125</AltitudeMeters>
            <DistanceMeters>NAN</DistanceMeters>
          </Trackpoint>
          <Trackpoint>
            <Time>2022-06-16T11:43:57.000Z</Time>
            <Position>
              <LatitudeDegrees>36.8458949960768222808837890625</LatitudeDegrees>
              <LongitudeDegrees>-4.38382294960319995880126953125</LongitudeDegrees>
            </Position>
            <AltitudeMeters>677.79998779296875</AltitudeMeters>
            <DistanceMeters>NAN</DistanceMeters>
          </Trackpoint>
          <Trackpoint>
            <Time>2022-06-16T11:44:00.000Z</Time>
            <Position>
              <LatitudeDegrees>36.8459275178611278533935546875</LatitudeDegrees>
              <LongitudeDegrees>-4.38382931984961032867431640625</LongitudeDegrees>
            </Position>
            <AltitudeMeters>678.4000244140625</AltitudeMeters>
            <DistanceMeters>NAN</DistanceMeters>
          </Trackpoint>
          <Trackpoint>
            <Time>2022-06-16T11:44:10.000Z</Time>
            <Position>
              <LatitudeDegrees>36.84604167938232421875</LatitudeDegrees>
              <LongitudeDegrees>-4.38385195098817348480224609375</LongitudeDegrees>
            </Position>
            <AltitudeMeters>679.79998779296875</AltitudeMeters>
            <DistanceMeters>NAN</DistanceMeters>
          </Trackpoint>
          <Trackpoint>
            <Time>2022-06-16T11:44:20.000Z</Time>
            <Position>
              <LatitudeDegrees>36.8461498059332370758056640625</LatitudeDegrees>
              <LongitudeDegrees>-4.3838639371097087860107421875</LongitudeDegrees>
            </Position>
            <AltitudeMeters>681</AltitudeMeters>
            <DistanceMeters>NAN</DistanceMeters>
          </Trackpoint>
          <Trackpoint>
            <Time>2022-06-16T11:44:30.000Z</Time>
            <Position>
              <LatitudeDegrees>36.8462557531893253326416015625</LatitudeDegrees>
              <LongitudeDegrees>-4.38388086855411529541015625</LongitudeDegrees>
            </Position>
            <AltitudeMeters>683.4000244140625</AltitudeMeters>
            <DistanceMeters>NAN</DistanceMeters>
          </Trackpoint>
          <Trackpoint>
            <Time>2022-06-16T11:44:34.000Z</Time>
            <Position>
              <LatitudeDegrees>36.8463013507425785064697265625</LatitudeDegrees>
              <LongitudeDegrees>-4.3838860653340816497802734375</LongitudeDegrees>
            </Position>
            <AltitudeMeters>684.79998779296875</AltitudeMeters>
            <DistanceMeters>NAN</DistanceMeters>
          </Trackpoint>
          <Trackpoint>
            <Time>2022-06-16T11:44:37.000Z</Time>
            <Position>
              <LatitudeDegrees>36.8463348783552646636962890625</LatitudeDegrees>
              <LongitudeDegrees>-4.3838870711624622344970703125</LongitudeDegrees>
            </Position>
            <AltitudeMeters>685.79998779296875</AltitudeMeters>
            <DistanceMeters>NAN</DistanceMeters>
          </Trackpoint>
          <Trackpoint>
            <Time>2022-06-16T11:44:38.000Z</Time>
            <Position>
              <LatitudeDegrees>36.84634636156260967254638671875</LatitudeDegrees>
              <LongitudeDegrees>-4.38388866372406482696533203125</LongitudeDegrees>
            </Position>
            <AltitudeMeters>686.20001220703125</AltitudeMeters>
            <DistanceMeters>NAN</DistanceMeters>
          </Trackpoint>
          <Trackpoint>
            <Time>2022-06-16T11:44:39.000Z</Time>
            <Position>
              <LatitudeDegrees>36.84635994024574756622314453125</LatitudeDegrees>
              <LongitudeDegrees>-4.38389134593307971954345703125</LongitudeDegrees>
            </Position>
            <AltitudeMeters>686.5999755859375</AltitudeMeters>
            <DistanceMeters>NAN</DistanceMeters>
          </Trackpoint>
          <Trackpoint>
            <Time>2022-06-16T11:44:40.000Z</Time>
            <Position>
              <LatitudeDegrees>36.8463727645576000213623046875</LatitudeDegrees>
              <LongitudeDegrees>-4.3838981352746486663818359375</LongitudeDegrees>
            </Position>
            <AltitudeMeters>687</AltitudeMeters>
            <DistanceMeters>NAN</DistanceMeters>
          </Trackpoint>
          <Trackpoint>
            <Time>2022-06-16T11:44:41.000Z</Time>
            <Position>
              <LatitudeDegrees>36.84638290666043758392333984375</LatitudeDegrees>
              <LongitudeDegrees>-4.3839061819016933441162109375</LongitudeDegrees>
            </Position>
            <AltitudeMeters>687.20001220703125</AltitudeMeters>
            <DistanceMeters>NAN</DistanceMeters>
          </Trackpoint>
          <Trackpoint>
            <Time>2022-06-16T11:44:42.000Z</Time>
            <Position>
              <LatitudeDegrees>36.84639128856360912322998046875</LatitudeDegrees>
              <LongitudeDegrees>-4.38391330651938915252685546875</LongitudeDegrees>
            </Position>
            <AltitudeMeters>687.4000244140625</AltitudeMeters>
            <DistanceMeters>NAN</DistanceMeters>
          </Trackpoint>
          <Trackpoint>
            <Time>2022-06-16T11:44:50.000Z</Time>
            <Position>
              <LatitudeDegrees>36.84645415283739566802978515625</LatitudeDegrees>
              <LongitudeDegrees>-4.3839655257761478424072265625</LongitudeDegrees>
            </Position>
            <AltitudeMeters>688.79998779296875</AltitudeMeters>
            <DistanceMeters>NAN</DistanceMeters>
          </Trackpoint>
          <Trackpoint>
            <Time>2022-06-16T11:45:00.000Z</Time>
            <Position>
              <LatitudeDegrees>36.8465524725615978240966796875</LatitudeDegrees>
              <LongitudeDegrees>-4.3840077705681324005126953125</LongitudeDegrees>
            </Position>
            <AltitudeMeters>692</AltitudeMeters>
            <DistanceMeters>NAN</DistanceMeters>
          </Trackpoint>
          <Trackpoint>
            <Time>2022-06-16T11:45:05.000Z</Time>
            <Position>
              <LatitudeDegrees>36.8466074578464031219482421875</LatitudeDegrees>
              <LongitudeDegrees>-4.3840312398970127105712890625</LongitudeDegrees>
            </Position>
            <AltitudeMeters>694</AltitudeMeters>
            <DistanceMeters>NAN</DistanceMeters>
          </Trackpoint>
          <Trackpoint>
            <Time>2022-06-16T11:45:10.000Z</Time>
            <Position>
              <LatitudeDegrees>36.846655569970607757568359375</LatitudeDegrees>
              <LongitudeDegrees>-4.38405831344425678253173828125</LongitudeDegrees>
            </Position>
            <AltitudeMeters>696</AltitudeMeters>
            <DistanceMeters>NAN</DistanceMeters>
          </Trackpoint>
          <Trackpoint>
            <Time>2022-06-16T11:45:20.000Z</Time>
            <Position>
              <LatitudeDegrees>36.8467207811772823333740234375</LatitudeDegrees>
              <LongitudeDegrees>-4.38415604643523693084716796875</LongitudeDegrees>
            </Position>
            <AltitudeMeters>698.20001220703125</AltitudeMeters>
            <DistanceMeters>NAN</DistanceMeters>
          </Trackpoint>
          <Trackpoint>
            <Time>2022-06-16T11:45:30.000Z</Time>
            <Position>
              <LatitudeDegrees>36.84671533294022083282470703125</LatitudeDegrees>
              <LongitudeDegrees>-4.38426668755710124969482421875</LongitudeDegrees>
            </Position>
            <AltitudeMeters>697.79998779296875</AltitudeMeters>
            <DistanceMeters>NAN</DistanceMeters>
          </Trackpoint>
          <Trackpoint>
            <Time>2022-06-16T11:45:31.000Z</Time>
            <Position>
              <LatitudeDegrees>36.846714913845062255859375</LatitudeDegrees>
              <LongitudeDegrees>-4.38427984714508056640625</LongitudeDegrees>
            </Position>
            <AltitudeMeters>697.79998779296875</AltitudeMeters>
            <DistanceMeters>NAN</DistanceMeters>
          </Trackpoint>
          <Trackpoint>
            <Time>2022-06-16T11:45:40.000Z</Time>
            <Position>
              <LatitudeDegrees>36.84670560993254184722900390625</LatitudeDegrees>
              <LongitudeDegrees>-4.38438788987696170806884765625</LongitudeDegrees>
            </Position>
            <AltitudeMeters>697.4000244140625</AltitudeMeters>
            <DistanceMeters>NAN</DistanceMeters>
          </Trackpoint>
          <Trackpoint>
            <Time>2022-06-16T11:45:50.000Z</Time>
            <Position>
              <LatitudeDegrees>36.84670611284673213958740234375</LatitudeDegrees>
              <LongitudeDegrees>-4.384522251784801483154296875</LongitudeDegrees>
            </Position>
            <AltitudeMeters>697</AltitudeMeters>
            <DistanceMeters>NAN</DistanceMeters>
          </Trackpoint>
          <Trackpoint>
            <Time>2022-06-16T11:45:56.000Z</Time>
            <Position>
              <LatitudeDegrees>36.84671265073120594024658203125</LatitudeDegrees>
              <LongitudeDegrees>-4.3846032209694385528564453125</LongitudeDegrees>
            </Position>
            <AltitudeMeters>697</AltitudeMeters>
            <DistanceMeters>NAN</DistanceMeters>
          </Trackpoint>
          <Trackpoint>
            <Time>2022-06-16T11:46:00.000Z</Time>
            <Position>
              <LatitudeDegrees>36.84672639705240726470947265625</LatitudeDegrees>
              <LongitudeDegrees>-4.38465535640716552734375</LongitudeDegrees>
            </Position>
            <AltitudeMeters>697.4000244140625</AltitudeMeters>
            <DistanceMeters>NAN</DistanceMeters>
          </Trackpoint>
          <Trackpoint>
            <Time>2022-06-16T11:46:01.000Z</Time>
            <Position>
              <LatitudeDegrees>36.84672773815691471099853515625</LatitudeDegrees>
              <LongitudeDegrees>-4.38466868363320827484130859375</LongitudeDegrees>
            </Position>
            <AltitudeMeters>697.4000244140625</AltitudeMeters>
            <DistanceMeters>NAN</DistanceMeters>
          </Trackpoint>
          <Trackpoint>
            <Time>2022-06-16T11:46:02.000Z</Time>
            <Position>
              <LatitudeDegrees>36.84673008508980274200439453125</LatitudeDegrees>
              <LongitudeDegrees>-4.38468259759247303009033203125</LongitudeDegrees>
            </Position>
            <AltitudeMeters>697.4000244140625</AltitudeMeters>
            <DistanceMeters>NAN</DistanceMeters>
          </Trackpoint>
          <Trackpoint>
            <Time>2022-06-16T11:46:10.000Z</Time>
            <Position>
              <LatitudeDegrees>36.84676587581634521484375</LatitudeDegrees>
              <LongitudeDegrees>-4.3847735412418842315673828125</LongitudeDegrees>
            </Position>
            <AltitudeMeters>698.20001220703125</AltitudeMeters>
            <DistanceMeters>NAN</DistanceMeters>
          </Trackpoint>
          <Trackpoint>
            <Time>2022-06-16T11:46:20.000Z</Time>
            <Position>
              <LatitudeDegrees>36.84681591577827930450439453125</LatitudeDegrees>
              <LongitudeDegrees>-4.38486658036708831787109375</LongitudeDegrees>
            </Position>
            <AltitudeMeters>699</AltitudeMeters>
            <DistanceMeters>NAN</DistanceMeters>
          </Trackpoint>
          <Trackpoint>
            <Time>2022-06-16T11:46:30.000Z</Time>
            <Position>
              <LatitudeDegrees>36.84688649140298366546630859375</LatitudeDegrees>
              <LongitudeDegrees>-4.38494629226624965667724609375</LongitudeDegrees>
            </Position>
            <AltitudeMeters>700.4000244140625</AltitudeMeters>
            <DistanceMeters>NAN</DistanceMeters>
          </Trackpoint>
          <Trackpoint>
            <Time>2022-06-16T11:46:37.000Z</Time>
            <Position>
              <LatitudeDegrees>36.84692437760531902313232421875</LatitudeDegrees>
              <LongitudeDegrees>-4.3850105814635753631591796875</LongitudeDegrees>
            </Position>
            <AltitudeMeters>700.4000244140625</AltitudeMeters>
            <DistanceMeters>NAN</DistanceMeters>
          </Trackpoint>
          <Trackpoint>
            <Time>2022-06-16T11:46:40.000Z</Time>
            <Position>
              <LatitudeDegrees>36.84694030322134494781494140625</LatitudeDegrees>
              <LongitudeDegrees>-4.38504117541015148162841796875</LongitudeDegrees>
            </Position>
            <AltitudeMeters>700.4000244140625</AltitudeMeters>
            <DistanceMeters>NAN</DistanceMeters>
          </Trackpoint>
          <Trackpoint>
            <Time>2022-06-16T11:46:50.000Z</Time>
            <Position>
              <LatitudeDegrees>36.846981458365917205810546875</LatitudeDegrees>
              <LongitudeDegrees>-4.38514527864754199981689453125</LongitudeDegrees>
            </Position>
            <AltitudeMeters>700.4000244140625</AltitudeMeters>
            <DistanceMeters>NAN</DistanceMeters>
          </Trackpoint>
          <Trackpoint>
            <Time>2022-06-16T11:47:00.000Z</Time>
            <Position>
              <LatitudeDegrees>36.8470456637442111968994140625</LatitudeDegrees>
              <LongitudeDegrees>-4.38525206409394741058349609375</LongitudeDegrees>
            </Position>
            <AltitudeMeters>701</AltitudeMeters>
            <DistanceMeters>NAN</DistanceMeters>
          </Trackpoint>
          <Trackpoint>
            <Time>2022-06-16T11:47:07.000Z</Time>
            <Position>
              <LatitudeDegrees>36.8471036665141582489013671875</LatitudeDegrees>
              <LongitudeDegrees>-4.38532029278576374053955078125</LongitudeDegrees>
            </Position>
            <AltitudeMeters>701.4000244140625</AltitudeMeters>
            <DistanceMeters>NAN</DistanceMeters>
          </Trackpoint>
          <Trackpoint>
            <Time>2022-06-16T11:47:08.000Z</Time>
            <Position>
              <LatitudeDegrees>36.84711196459829807281494140625</LatitudeDegrees>
              <LongitudeDegrees>-4.385325908660888671875</LongitudeDegrees>
            </Position>
            <AltitudeMeters>701.5999755859375</AltitudeMeters>
            <DistanceMeters>NAN</DistanceMeters>
          </Trackpoint>
          <Trackpoint>
            <Time>2022-06-16T11:47:10.000Z</Time>
            <Position>
              <LatitudeDegrees>36.84712638147175312042236328125</LatitudeDegrees>
              <LongitudeDegrees>-4.38533739186823368072509765625</LongitudeDegrees>
            </Position>
            <AltitudeMeters>701.79998779296875</AltitudeMeters>
            <DistanceMeters>NAN</DistanceMeters>
          </Trackpoint>
          <Trackpoint>
            <Time>2022-06-16T11:47:15.000Z</Time>
            <Position>
              <LatitudeDegrees>36.8471641838550567626953125</LatitudeDegrees>
              <LongitudeDegrees>-4.38535482622683048248291015625</LongitudeDegrees>
            </Position>
            <AltitudeMeters>702.5999755859375</AltitudeMeters>
            <DistanceMeters>NAN</DistanceMeters>
          </Trackpoint>
          <Trackpoint>
            <Time>2022-06-16T11:47:20.000Z</Time>
            <Position>
              <LatitudeDegrees>36.84721891768276691436767578125</LatitudeDegrees>
              <LongitudeDegrees>-4.38538424670696258544921875</LongitudeDegrees>
            </Position>
            <AltitudeMeters>703.5999755859375</AltitudeMeters>
            <DistanceMeters>NAN</DistanceMeters>
          </Trackpoint>
          <Trackpoint>
            <Time>2022-06-16T11:47:30.000Z</Time>
            <Position>
              <LatitudeDegrees>36.84731916524469852447509765625</LatitudeDegrees>
              <LongitudeDegrees>-4.38538785092532634735107421875</LongitudeDegrees>
            </Position>
            <AltitudeMeters>706.4000244140625</AltitudeMeters>
            <DistanceMeters>NAN</DistanceMeters>
          </Trackpoint>
          <Trackpoint>
            <Time>2022-06-16T11:47:38.000Z</Time>
            <Position>
              <LatitudeDegrees>36.847401894629001617431640625</LatitudeDegrees>
              <LongitudeDegrees>-4.38535985536873340606689453125</LongitudeDegrees>
            </Position>
            <AltitudeMeters>707.5999755859375</AltitudeMeters>
            <DistanceMeters>NAN</DistanceMeters>
          </Trackpoint>
          <Trackpoint>
            <Time>2022-06-16T11:47:40.000Z</Time>
            <Position>
              <LatitudeDegrees>36.84742159210145473480224609375</LatitudeDegrees>
              <LongitudeDegrees>-4.38534795306622982025146484375</LongitudeDegrees>
            </Position>
            <AltitudeMeters>708</AltitudeMeters>
            <DistanceMeters>NAN</DistanceMeters>
          </Trackpoint>
          <Trackpoint>
            <Time>2022-06-16T11:47:42.000Z</Time>
            <Position>
              <LatitudeDegrees>36.84744807891547679901123046875</LatitudeDegrees>
              <LongitudeDegrees>-4.38533655367791652679443359375</LongitudeDegrees>
            </Position>
            <AltitudeMeters>708.4000244140625</AltitudeMeters>
            <DistanceMeters>NAN</DistanceMeters>
          </Trackpoint>
          <Trackpoint>
            <Time>2022-06-16T11:47:50.000Z</Time>
            <Position>
              <LatitudeDegrees>36.84753743000328540802001953125</LatitudeDegrees>
              <LongitudeDegrees>-4.38526262529194355010986328125</LongitudeDegrees>
            </Position>
            <AltitudeMeters>710.20001220703125</AltitudeMeters>
            <DistanceMeters>NAN</DistanceMeters>
          </Trackpoint>
          <Trackpoint>
            <Time>2022-06-16T11:47:55.000Z</Time>
            <Position>
              <LatitudeDegrees>36.847588308155536651611328125</LatitudeDegrees>
              <LongitudeDegrees>-4.385217614471912384033203125</LongitudeDegrees>
            </Position>
            <AltitudeMeters>711.79998779296875</AltitudeMeters>
            <DistanceMeters>NAN</DistanceMeters>
          </Trackpoint>
          <Trackpoint>
            <Time>2022-06-16T11:48:00.000Z</Time>
            <Position>
              <LatitudeDegrees>36.84763834811747074127197265625</LatitudeDegrees>
              <LongitudeDegrees>-4.38516019843518733978271484375</LongitudeDegrees>
            </Position>
            <AltitudeMeters>712.5999755859375</AltitudeMeters>
            <DistanceMeters>NAN</DistanceMeters>
          </Trackpoint>
          <Trackpoint>
            <Time>2022-06-16T11:48:08.000Z</Time>
            <Position>
              <LatitudeDegrees>36.84768595732748508453369140625</LatitudeDegrees>
              <LongitudeDegrees>-4.385065399110317230224609375</LongitudeDegrees>
            </Position>
            <AltitudeMeters>714.20001220703125</AltitudeMeters>
            <DistanceMeters>NAN</DistanceMeters>
          </Trackpoint>
          <Trackpoint>
            <Time>2022-06-16T11:48:09.000Z</Time>
            <Position>
              <LatitudeDegrees>36.847688890993595123291015625</LatitudeDegrees>
              <LongitudeDegrees>-4.38505274243652820587158203125</LongitudeDegrees>
            </Position>
            <AltitudeMeters>714.5999755859375</AltitudeMeters>
            <DistanceMeters>NAN</DistanceMeters>
          </Trackpoint>
          <Trackpoint>
            <Time>2022-06-16T11:48:10.000Z</Time>
            <Position>
              <LatitudeDegrees>36.8476977758109569549560546875</LatitudeDegrees>
              <LongitudeDegrees>-4.3850427679717540740966796875</LongitudeDegrees>
            </Position>
            <AltitudeMeters>714.5999755859375</AltitudeMeters>
            <DistanceMeters>NAN</DistanceMeters>
          </Trackpoint>
          <Trackpoint>
            <Time>2022-06-16T11:48:12.000Z</Time>
            <Position>
              <LatitudeDegrees>36.84771604835987091064453125</LatitudeDegrees>
              <LongitudeDegrees>-4.38502080738544464111328125</LongitudeDegrees>
            </Position>
            <AltitudeMeters>715</AltitudeMeters>
            <DistanceMeters>NAN</DistanceMeters>
          </Trackpoint>
          <Trackpoint>
            <Time>2022-06-16T11:48:16.000Z</Time>
            <Position>
              <LatitudeDegrees>36.84774111025035381317138671875</LatitudeDegrees>
              <LongitudeDegrees>-4.38497797586023807525634765625</LongitudeDegrees>
            </Position>
            <AltitudeMeters>715.5999755859375</AltitudeMeters>
            <DistanceMeters>NAN</DistanceMeters>
          </Trackpoint>
          <Trackpoint>
            <Time>2022-06-16T11:48:20.000Z</Time>
            <Position>
              <LatitudeDegrees>36.84776164591312408447265625</LatitudeDegrees>
              <LongitudeDegrees>-4.38492693006992340087890625</LongitudeDegrees>
            </Position>
            <AltitudeMeters>716.5999755859375</AltitudeMeters>
            <DistanceMeters>NAN</DistanceMeters>
          </Trackpoint>
          <Trackpoint>
            <Time>2022-06-16T11:48:27.000Z</Time>
            <Position>
              <LatitudeDegrees>36.847773380577564239501953125</LatitudeDegrees>
              <LongitudeDegrees>-4.3848365731537342071533203125</LongitudeDegrees>
            </Position>
            <AltitudeMeters>719</AltitudeMeters>
            <DistanceMeters>NAN</DistanceMeters>
          </Trackpoint>
          <Trackpoint>
            <Time>2022-06-16T11:48:30.000Z</Time>
            <Position>
              <LatitudeDegrees>36.84778452850878238677978515625</LatitudeDegrees>
              <LongitudeDegrees>-4.38480086624622344970703125</LongitudeDegrees>
            </Position>
            <AltitudeMeters>719.79998779296875</AltitudeMeters>
            <DistanceMeters>NAN</DistanceMeters>
          </Trackpoint>
          <Trackpoint>
            <Time>2022-06-16T11:48:40.000Z</Time>
            <Position>
              <LatitudeDegrees>36.847832389175891876220703125</LatitudeDegrees>
              <LongitudeDegrees>-4.38470053486526012420654296875</LongitudeDegrees>
            </Position>
            <AltitudeMeters>721.4000244140625</AltitudeMeters>
            <DistanceMeters>NAN</DistanceMeters>
          </Trackpoint>
          <Trackpoint>
            <Time>2022-06-16T11:48:50.000Z</Time>
            <Position>
              <LatitudeDegrees>36.84788812883198261260986328125</LatitudeDegrees>
              <LongitudeDegrees>-4.3845854513347148895263671875</LongitudeDegrees>
            </Position>
            <AltitudeMeters>723.79998779296875</AltitudeMeters>
            <DistanceMeters>NAN</DistanceMeters>
          </Trackpoint>
          <Trackpoint>
            <Time>2022-06-16T11:49:00.000Z</Time>
            <Position>
              <LatitudeDegrees>36.84793439693748950958251953125</LatitudeDegrees>
              <LongitudeDegrees>-4.384465925395488739013671875</LongitudeDegrees>
            </Position>
            <AltitudeMeters>726.4000244140625</AltitudeMeters>
            <DistanceMeters>NAN</DistanceMeters>
          </Trackpoint>
          <Trackpoint>
            <Time>2022-06-16T11:49:09.000Z</Time>
            <Position>
              <LatitudeDegrees>36.8479903042316436767578125</LatitudeDegrees>
              <LongitudeDegrees>-4.38436425291001796722412109375</LongitudeDegrees>
            </Position>
            <AltitudeMeters>728.20001220703125</AltitudeMeters>
            <DistanceMeters>NAN</DistanceMeters>
          </Trackpoint>
          <Trackpoint>
            <Time>2022-06-16T11:49:10.000Z</Time>
            <Position>
              <LatitudeDegrees>36.8480008654296398162841796875</LatitudeDegrees>
              <LongitudeDegrees>-4.384357631206512451171875</LongitudeDegrees>
            </Position>
            <AltitudeMeters>728.20001220703125</AltitudeMeters>
            <DistanceMeters>NAN</DistanceMeters>
          </Trackpoint>
          <Trackpoint>
            <Time>2022-06-16T11:49:18.000Z</Time>
            <Position>
              <LatitudeDegrees>36.8480742909014225006103515625</LatitudeDegrees>
              <LongitudeDegrees>-4.3842796795070171356201171875</LongitudeDegrees>
            </Position>
            <AltitudeMeters>728.79998779296875</AltitudeMeters>
            <DistanceMeters>NAN</DistanceMeters>
          </Trackpoint>
          <Trackpoint>
            <Time>2022-06-16T11:49:20.000Z</Time>
            <Position>
              <LatitudeDegrees>36.8480833433568477630615234375</LatitudeDegrees>
              <LongitudeDegrees>-4.3842602334916591644287109375</LongitudeDegrees>
            </Position>
            <AltitudeMeters>729</AltitudeMeters>
            <DistanceMeters>NAN</DistanceMeters>
          </Trackpoint>
          <Trackpoint>
            <Time>2022-06-16T11:49:27.000Z</Time>
            <Position>
              <LatitudeDegrees>36.8481275998055934906005859375</LatitudeDegrees>
              <LongitudeDegrees>-4.3842062540352344512939453125</LongitudeDegrees>
            </Position>
            <AltitudeMeters>729.5999755859375</AltitudeMeters>
            <DistanceMeters>NAN</DistanceMeters>
          </Trackpoint>
          <Trackpoint>
            <Time>2022-06-16T11:49:30.000Z</Time>
            <Position>
              <LatitudeDegrees>36.84814444743096828460693359375</LatitudeDegrees>
              <LongitudeDegrees>-4.38417482189834117889404296875</LongitudeDegrees>
            </Position>
            <AltitudeMeters>730.20001220703125</AltitudeMeters>
            <DistanceMeters>NAN</DistanceMeters>
          </Trackpoint>
          <Trackpoint>
            <Time>2022-06-16T11:49:40.000Z</Time>
            <Position>
              <LatitudeDegrees>36.848205886781215667724609375</LatitudeDegrees>
              <LongitudeDegrees>-4.38408681191504001617431640625</LongitudeDegrees>
            </Position>
            <AltitudeMeters>730.5999755859375</AltitudeMeters>
            <DistanceMeters>NAN</DistanceMeters>
          </Trackpoint>
          <Trackpoint>
            <Time>2022-06-16T11:49:50.000Z</Time>
            <Position>
              <LatitudeDegrees>36.84826984070241451263427734375</LatitudeDegrees>
              <LongitudeDegrees>-4.38398622907698154449462890625</LongitudeDegrees>
            </Position>
            <AltitudeMeters>730.5999755859375</AltitudeMeters>
            <DistanceMeters>NAN</DistanceMeters>
          </Trackpoint>
          <Trackpoint>
            <Time>2022-06-16T11:50:00.000Z</Time>
            <Position>
              <LatitudeDegrees>36.8483354710042476654052734375</LatitudeDegrees>
              <LongitudeDegrees>-4.38389084301888942718505859375</LongitudeDegrees>
            </Position>
            <AltitudeMeters>730.5999755859375</AltitudeMeters>
            <DistanceMeters>NAN</DistanceMeters>
          </Trackpoint>
          <Trackpoint>
            <Time>2022-06-16T11:50:09.000Z</Time>
            <Position>
              <LatitudeDegrees>36.8483954854309558868408203125</LatitudeDegrees>
              <LongitudeDegrees>-4.38379193656146526336669921875</LongitudeDegrees>
            </Position>
            <AltitudeMeters>730.5999755859375</AltitudeMeters>
            <DistanceMeters>NAN</DistanceMeters>
          </Trackpoint>
          <Trackpoint>
            <Time>2022-06-16T11:50:10.000Z</Time>
            <Position>
              <LatitudeDegrees>36.84839942492544651031494140625</LatitudeDegrees>
              <LongitudeDegrees>-4.3837841413915157318115234375</LongitudeDegrees>
            </Position>
            <AltitudeMeters>730.79998779296875</AltitudeMeters>
            <DistanceMeters>NAN</DistanceMeters>
          </Trackpoint>
          <Trackpoint>
            <Time>2022-06-16T11:50:20.000Z</Time>
            <Position>
              <LatitudeDegrees>36.8484561704099178314208984375</LatitudeDegrees>
              <LongitudeDegrees>-4.38367123715579509735107421875</LongitudeDegrees>
            </Position>
            <AltitudeMeters>731.20001220703125</AltitudeMeters>
            <DistanceMeters>NAN</DistanceMeters>
          </Trackpoint>
          <Trackpoint>
            <Time>2022-06-16T11:50:30.000Z</Time>
            <Position>
              <LatitudeDegrees>36.8484920449554920196533203125</LatitudeDegrees>
              <LongitudeDegrees>-4.38354215584695339202880859375</LongitudeDegrees>
            </Position>
            <AltitudeMeters>732.4000244140625</AltitudeMeters>
            <DistanceMeters>NAN</DistanceMeters>
          </Trackpoint>
          <Trackpoint>
            <Time>2022-06-16T11:50:40.000Z</Time>
            <Position>
              <LatitudeDegrees>36.84853990562260150909423828125</LatitudeDegrees>
              <LongitudeDegrees>-4.38342061825096607208251953125</LongitudeDegrees>
            </Position>
            <AltitudeMeters>733</AltitudeMeters>
            <DistanceMeters>NAN</DistanceMeters>
          </Trackpoint>
          <Trackpoint>
            <Time>2022-06-16T11:50:50.000Z</Time>
            <Position>
              <LatitudeDegrees>36.8485926277935504913330078125</LatitudeDegrees>
              <LongitudeDegrees>-4.38330285251140594482421875</LongitudeDegrees>
            </Position>
            <AltitudeMeters>733.20001220703125</AltitudeMeters>
            <DistanceMeters>NAN</DistanceMeters>
          </Trackpoint>
          <Trackpoint>
            <Time>2022-06-16T11:51:00.000Z</Time>
            <Position>
              <LatitudeDegrees>36.84863864444196224212646484375</LatitudeDegrees>
              <LongitudeDegrees>-4.3831876851618289947509765625</LongitudeDegrees>
            </Position>
            <AltitudeMeters>734.4000244140625</AltitudeMeters>
            <DistanceMeters>NAN</DistanceMeters>
          </Trackpoint>
          <Trackpoint>
            <Time>2022-06-16T11:51:10.000Z</Time>
            <Position>
              <LatitudeDegrees>36.848663203418254852294921875</LatitudeDegrees>
              <LongitudeDegrees>-4.38307494856417179107666015625</LongitudeDegrees>
            </Position>
            <AltitudeMeters>735.79998779296875</AltitudeMeters>
            <DistanceMeters>NAN</DistanceMeters>
          </Trackpoint>
          <Trackpoint>
            <Time>2022-06-16T11:51:20.000Z</Time>
            <Position>
              <LatitudeDegrees>36.84870972298085689544677734375</LatitudeDegrees>
              <LongitudeDegrees>-4.382959865033626556396484375</LongitudeDegrees>
            </Position>
            <AltitudeMeters>736.4000244140625</AltitudeMeters>
            <DistanceMeters>NAN</DistanceMeters>
          </Trackpoint>
          <Trackpoint>
            <Time>2022-06-16T11:51:30.000Z</Time>
            <Position>
              <LatitudeDegrees>36.84877283871173858642578125</LatitudeDegrees>
              <LongitudeDegrees>-4.382846541702747344970703125</LongitudeDegrees>
            </Position>
            <AltitudeMeters>737</AltitudeMeters>
            <DistanceMeters>NAN</DistanceMeters>
          </Trackpoint>
          <Trackpoint>
            <Time>2022-06-16T11:51:40.000Z</Time>
            <Position>
              <LatitudeDegrees>36.84885892085731029510498046875</LatitudeDegrees>
              <LongitudeDegrees>-4.38272844068706035614013671875</LongitudeDegrees>
            </Position>
            <AltitudeMeters>737.4000244140625</AltitudeMeters>
            <DistanceMeters>NAN</DistanceMeters>
          </Trackpoint>
          <Trackpoint>
            <Time>2022-06-16T11:51:50.000Z</Time>
            <Position>
              <LatitudeDegrees>36.8489634431898593902587890625</LatitudeDegrees>
              <LongitudeDegrees>-4.38267521560192108154296875</LongitudeDegrees>
            </Position>
            <AltitudeMeters>736.5999755859375</AltitudeMeters>
            <DistanceMeters>NAN</DistanceMeters>
          </Trackpoint>
          <Trackpoint>
            <Time>2022-06-16T11:52:00.000Z</Time>
            <Position>
              <LatitudeDegrees>36.8490680493414402008056640625</LatitudeDegrees>
              <LongitudeDegrees>-4.38267144374549388885498046875</LongitudeDegrees>
            </Position>
            <AltitudeMeters>736.79998779296875</AltitudeMeters>
            <DistanceMeters>NAN</DistanceMeters>
          </Trackpoint>
          <Trackpoint>
            <Time>2022-06-16T11:52:10.000Z</Time>
            <Position>
              <LatitudeDegrees>36.84915010817348957061767578125</LatitudeDegrees>
              <LongitudeDegrees>-4.38266582787036895751953125</LongitudeDegrees>
            </Position>
            <AltitudeMeters>737</AltitudeMeters>
            <DistanceMeters>NAN</DistanceMeters>
          </Trackpoint>
          <Trackpoint>
            <Time>2022-06-16T11:52:20.000Z</Time>
            <Position>
              <LatitudeDegrees>36.849230825901031494140625</LatitudeDegrees>
              <LongitudeDegrees>-4.38264646567404270172119140625</LongitudeDegrees>
            </Position>
            <AltitudeMeters>737.20001220703125</AltitudeMeters>
            <DistanceMeters>NAN</DistanceMeters>
          </Trackpoint>
          <Trackpoint>
            <Time>2022-06-16T11:52:30.000Z</Time>
            <Position>
              <LatitudeDegrees>36.84933342039585113525390625</LatitudeDegrees>
              <LongitudeDegrees>-4.38263221643865108489990234375</LongitudeDegrees>
            </Position>
            <AltitudeMeters>737.5999755859375</AltitudeMeters>
            <DistanceMeters>NAN</DistanceMeters>
          </Trackpoint>
          <Trackpoint>
            <Time>2022-06-16T11:52:40.000Z</Time>
            <Position>
              <LatitudeDegrees>36.8494623340666294097900390625</LatitudeDegrees>
              <LongitudeDegrees>-4.38263498246669769287109375</LongitudeDegrees>
            </Position>
            <AltitudeMeters>738.4000244140625</AltitudeMeters>
            <DistanceMeters>NAN</DistanceMeters>
          </Trackpoint>
          <Trackpoint>
            <Time>2022-06-16T11:52:50.000Z</Time>
            <Position>
              <LatitudeDegrees>36.849564425647258758544921875</LatitudeDegrees>
              <LongitudeDegrees>-4.38264830969274044036865234375</LongitudeDegrees>
            </Position>
            <AltitudeMeters>739.20001220703125</AltitudeMeters>
            <DistanceMeters>NAN</DistanceMeters>
          </Trackpoint>
          <Trackpoint>
            <Time>2022-06-16T11:53:00.000Z</Time>
            <Position>
              <LatitudeDegrees>36.84964631684124469757080078125</LatitudeDegrees>
              <LongitudeDegrees>-4.3826773948967456817626953125</LongitudeDegrees>
            </Position>
            <AltitudeMeters>740.79998779296875</AltitudeMeters>
            <DistanceMeters>NAN</DistanceMeters>
          </Trackpoint>
          <Trackpoint>
            <Time>2022-06-16T11:53:10.000Z</Time>
            <Position>
              <LatitudeDegrees>36.84974220581352710723876953125</LatitudeDegrees>
              <LongitudeDegrees>-4.38270430080592632293701171875</LongitudeDegrees>
            </Position>
            <AltitudeMeters>742</AltitudeMeters>
            <DistanceMeters>NAN</DistanceMeters>
          </Trackpoint>
          <Trackpoint>
            <Time>2022-06-16T11:53:11.000Z</Time>
            <Position>
              <LatitudeDegrees>36.84975209645926952362060546875</LatitudeDegrees>
              <LongitudeDegrees>-4.3827105872333049774169921875</LongitudeDegrees>
            </Position>
            <AltitudeMeters>742.20001220703125</AltitudeMeters>
            <DistanceMeters>NAN</DistanceMeters>
          </Trackpoint>
          <Trackpoint>
            <Time>2022-06-16T11:53:14.000Z</Time>
            <Position>
              <LatitudeDegrees>36.84977598488330841064453125</LatitudeDegrees>
              <LongitudeDegrees>-4.38272257335484027862548828125</LongitudeDegrees>
            </Position>
            <AltitudeMeters>742.4000244140625</AltitudeMeters>
            <DistanceMeters>NAN</DistanceMeters>
          </Trackpoint>
          <Trackpoint>
            <Time>2022-06-16T11:53:15.000Z</Time>
            <Position>
              <LatitudeDegrees>36.849785037338733673095703125</LatitudeDegrees>
              <LongitudeDegrees>-4.382726512849330902099609375</LongitudeDegrees>
            </Position>
            <AltitudeMeters>742.5999755859375</AltitudeMeters>
            <DistanceMeters>NAN</DistanceMeters>
          </Trackpoint>
          <Trackpoint>
            <Time>2022-06-16T11:53:17.000Z</Time>
            <Position>
              <LatitudeDegrees>36.8498012982308864593505859375</LatitudeDegrees>
              <LongitudeDegrees>-4.38273430801928043365478515625</LongitudeDegrees>
            </Position>
            <AltitudeMeters>742.79998779296875</AltitudeMeters>
            <DistanceMeters>NAN</DistanceMeters>
          </Trackpoint>
          <Trackpoint>
            <Time>2022-06-16T11:53:19.000Z</Time>
            <Position>
              <LatitudeDegrees>36.84981781058013439178466796875</LatitudeDegrees>
              <LongitudeDegrees>-4.3827402591705322265625</LongitudeDegrees>
            </Position>
            <AltitudeMeters>743</AltitudeMeters>
            <DistanceMeters>NAN</DistanceMeters>
          </Trackpoint>
          <Trackpoint>
            <Time>2022-06-16T11:53:20.000Z</Time>
            <Position>
              <LatitudeDegrees>36.84982652775943279266357421875</LatitudeDegrees>
              <LongitudeDegrees>-4.3827437795698642730712890625</LongitudeDegrees>
            </Position>
            <AltitudeMeters>743.20001220703125</AltitudeMeters>
            <DistanceMeters>NAN</DistanceMeters>
          </Trackpoint>
          <Trackpoint>
            <Time>2022-06-16T11:53:23.000Z</Time>
            <Position>
              <LatitudeDegrees>36.84984949417412281036376953125</LatitudeDegrees>
              <LongitudeDegrees>-4.38275207765400409698486328125</LongitudeDegrees>
            </Position>
            <AltitudeMeters>744</AltitudeMeters>
            <DistanceMeters>NAN</DistanceMeters>
          </Trackpoint>
          <Trackpoint>
            <Time>2022-06-16T11:53:27.000Z</Time>
            <Position>
              <LatitudeDegrees>36.8498814292252063751220703125</LatitudeDegrees>
              <LongitudeDegrees>-4.3827719427645206451416015625</LongitudeDegrees>
            </Position>
            <AltitudeMeters>744.79998779296875</AltitudeMeters>
            <DistanceMeters>NAN</DistanceMeters>
          </Trackpoint>
          <Trackpoint>
            <Time>2022-06-16T11:53:30.000Z</Time>
            <Position>
              <LatitudeDegrees>36.84991068206727504730224609375</LatitudeDegrees>
              <LongitudeDegrees>-4.38278644345700740814208984375</LongitudeDegrees>
            </Position>
            <AltitudeMeters>745.5999755859375</AltitudeMeters>
            <DistanceMeters>NAN</DistanceMeters>
          </Trackpoint>
          <Trackpoint>
            <Time>2022-06-16T11:53:36.000Z</Time>
            <Position>
              <LatitudeDegrees>36.84995912946760654449462890625</LatitudeDegrees>
              <LongitudeDegrees>-4.38281427137553691864013671875</LongitudeDegrees>
            </Position>
            <AltitudeMeters>746.79998779296875</AltitudeMeters>
            <DistanceMeters>NAN</DistanceMeters>
          </Trackpoint>
          <Trackpoint>
            <Time>2022-06-16T11:53:37.000Z</Time>
            <Position>
              <LatitudeDegrees>36.84996566735208034515380859375</LatitudeDegrees>
              <LongitudeDegrees>-4.38281913287937641143798828125</LongitudeDegrees>
            </Position>
            <AltitudeMeters>747</AltitudeMeters>
            <DistanceMeters>NAN</DistanceMeters>
          </Trackpoint>
          <Trackpoint>
            <Time>2022-06-16T11:53:39.000Z</Time>
            <Position>
              <LatitudeDegrees>36.8499833531677722930908203125</LatitudeDegrees>
              <LongitudeDegrees>-4.38282164745032787322998046875</LongitudeDegrees>
            </Position>
            <AltitudeMeters>747.4000244140625</AltitudeMeters>
            <DistanceMeters>NAN</DistanceMeters>
          </Trackpoint>
          <Trackpoint>
            <Time>2022-06-16T11:53:40.000Z</Time>
            <Position>
              <LatitudeDegrees>36.84999114833772182464599609375</LatitudeDegrees>
              <LongitudeDegrees>-4.38282047398388385772705078125</LongitudeDegrees>
            </Position>
            <AltitudeMeters>747.79998779296875</AltitudeMeters>
            <DistanceMeters>NAN</DistanceMeters>
          </Trackpoint>
          <Trackpoint>
            <Time>2022-06-16T11:53:44.000Z</Time>
            <Position>
              <LatitudeDegrees>36.85002568177878856658935546875</LatitudeDegrees>
              <LongitudeDegrees>-4.382817707955837249755859375</LongitudeDegrees>
            </Position>
            <AltitudeMeters>748.79998779296875</AltitudeMeters>
            <DistanceMeters>NAN</DistanceMeters>
          </Trackpoint>
          <Trackpoint>
            <Time>2022-06-16T11:53:47.000Z</Time>
            <Position>
              <LatitudeDegrees>36.8500551022589206695556640625</LatitudeDegrees>
              <LongitudeDegrees>-4.3828188814222812652587890625</LongitudeDegrees>
            </Position>
            <AltitudeMeters>749.20001220703125</AltitudeMeters>
            <DistanceMeters>NAN</DistanceMeters>
          </Trackpoint>
          <Trackpoint>
            <Time>2022-06-16T11:53:50.000Z</Time>
            <Position>
              <LatitudeDegrees>36.8500851094722747802734375</LatitudeDegrees>
              <LongitudeDegrees>-4.38282634131610393524169921875</LongitudeDegrees>
            </Position>
            <AltitudeMeters>749.4000244140625</AltitudeMeters>
            <DistanceMeters>NAN</DistanceMeters>
          </Trackpoint>
          <Trackpoint>
            <Time>2022-06-16T11:54:00.000Z</Time>
            <Position>
              <LatitudeDegrees>36.85016683302819728851318359375</LatitudeDegrees>
              <LongitudeDegrees>-4.38285903073847293853759765625</LongitudeDegrees>
            </Position>
            <AltitudeMeters>750.4000244140625</AltitudeMeters>
            <DistanceMeters>NAN</DistanceMeters>
          </Trackpoint>
          <Trackpoint>
            <Time>2022-06-16T11:54:08.000Z</Time>
            <Position>
              <LatitudeDegrees>36.85023388825356960296630859375</LatitudeDegrees>
              <LongitudeDegrees>-4.38290094025433063507080078125</LongitudeDegrees>
            </Position>
            <AltitudeMeters>751.20001220703125</AltitudeMeters>
            <DistanceMeters>NAN</DistanceMeters>
          </Trackpoint>
          <Trackpoint>
            <Time>2022-06-16T11:54:10.000Z</Time>
            <Position>
              <LatitudeDegrees>36.8502514064311981201171875</LatitudeDegrees>
              <LongitudeDegrees>-4.38291049562394618988037109375</LongitudeDegrees>
            </Position>
            <AltitudeMeters>751.79998779296875</AltitudeMeters>
            <DistanceMeters>NAN</DistanceMeters>
          </Trackpoint>
          <Trackpoint>
            <Time>2022-06-16T11:54:20.000Z</Time>
            <Position>
              <LatitudeDegrees>36.85034318827092647552490234375</LatitudeDegrees>
              <LongitudeDegrees>-4.38296489417552947998046875</LongitudeDegrees>
            </Position>
            <AltitudeMeters>754.5999755859375</AltitudeMeters>
            <DistanceMeters>NAN</DistanceMeters>
          </Trackpoint>
          <Trackpoint>
            <Time>2022-06-16T11:54:30.000Z</Time>
            <Position>
              <LatitudeDegrees>36.85041971504688262939453125</LatitudeDegrees>
              <LongitudeDegrees>-4.38303329050540924072265625</LongitudeDegrees>
            </Position>
            <AltitudeMeters>756.4000244140625</AltitudeMeters>
            <DistanceMeters>NAN</DistanceMeters>
          </Trackpoint>
          <Trackpoint>
            <Time>2022-06-16T11:54:40.000Z</Time>
            <Position>
              <LatitudeDegrees>36.8504882790148258209228515625</LatitudeDegrees>
              <LongitudeDegrees>-4.38310763798654079437255859375</LongitudeDegrees>
            </Position>
            <AltitudeMeters>758</AltitudeMeters>
            <DistanceMeters>NAN</DistanceMeters>
          </Trackpoint>
          <Trackpoint>
            <Time>2022-06-16T11:54:50.000Z</Time>
            <Position>
              <LatitudeDegrees>36.85053211636841297149658203125</LatitudeDegrees>
              <LongitudeDegrees>-4.3832232244312763214111328125</LongitudeDegrees>
            </Position>
            <AltitudeMeters>758.4000244140625</AltitudeMeters>
            <DistanceMeters>NAN</DistanceMeters>
          </Trackpoint>
          <Trackpoint>
            <Time>2022-06-16T11:54:56.000Z</Time>
            <Position>
              <LatitudeDegrees>36.8505620397627353668212890625</LatitudeDegrees>
              <LongitudeDegrees>-4.3832852505147457122802734375</LongitudeDegrees>
            </Position>
            <AltitudeMeters>758.5999755859375</AltitudeMeters>
            <DistanceMeters>NAN</DistanceMeters>
          </Trackpoint>
          <Trackpoint>
            <Time>2022-06-16T11:55:00.000Z</Time>
            <Position>
              <LatitudeDegrees>36.85056949965655803680419921875</LatitudeDegrees>
              <LongitudeDegrees>-4.38332925550639629364013671875</LongitudeDegrees>
            </Position>
            <AltitudeMeters>758.20001220703125</AltitudeMeters>
            <DistanceMeters>NAN</DistanceMeters>
          </Trackpoint>
          <Trackpoint>
            <Time>2022-06-16T11:55:10.000Z</Time>
            <Position>
              <LatitudeDegrees>36.85058173723518848419189453125</LatitudeDegrees>
              <LongitudeDegrees>-4.38344475813210010528564453125</LongitudeDegrees>
            </Position>
            <AltitudeMeters>757.20001220703125</AltitudeMeters>
            <DistanceMeters>NAN</DistanceMeters>
          </Trackpoint>
          <Trackpoint>
            <Time>2022-06-16T11:55:12.000Z</Time>
            <Position>
              <LatitudeDegrees>36.850577630102634429931640625</LatitudeDegrees>
              <LongitudeDegrees>-4.3834711611270904541015625</LongitudeDegrees>
            </Position>
            <AltitudeMeters>756.79998779296875</AltitudeMeters>
            <DistanceMeters>NAN</DistanceMeters>
          </Trackpoint>
          <Trackpoint>
            <Time>2022-06-16T11:55:20.000Z</Time>
            <Position>
              <LatitudeDegrees>36.85058056376874446868896484375</LatitudeDegrees>
              <LongitudeDegrees>-4.38357518054544925689697265625</LongitudeDegrees>
            </Position>
            <AltitudeMeters>755.5999755859375</AltitudeMeters>
            <DistanceMeters>NAN</DistanceMeters>
          </Trackpoint>
          <Trackpoint>
            <Time>2022-06-16T11:55:30.000Z</Time>
            <Position>
              <LatitudeDegrees>36.85060554184019565582275390625</LatitudeDegrees>
              <LongitudeDegrees>-4.38370476476848125457763671875</LongitudeDegrees>
            </Position>
            <AltitudeMeters>755</AltitudeMeters>
            <DistanceMeters>NAN</DistanceMeters>
          </Trackpoint>
          <Trackpoint>
            <Time>2022-06-16T11:55:40.000Z</Time>
            <Position>
              <LatitudeDegrees>36.8506646342575550079345703125</LatitudeDegrees>
              <LongitudeDegrees>-4.383794367313385009765625</LongitudeDegrees>
            </Position>
            <AltitudeMeters>755</AltitudeMeters>
            <DistanceMeters>NAN</DistanceMeters>
          </Trackpoint>
          <Trackpoint>
            <Time>2022-06-16T11:55:50.000Z</Time>
            <Position>
              <LatitudeDegrees>36.8507516384124755859375</LatitudeDegrees>
              <LongitudeDegrees>-4.3837787769734859466552734375</LongitudeDegrees>
            </Position>
            <AltitudeMeters>756</AltitudeMeters>
            <DistanceMeters>NAN</DistanceMeters>
          </Trackpoint>
          <Trackpoint>
            <Time>2022-06-16T11:55:54.000Z</Time>
            <Position>
              <LatitudeDegrees>36.85078625567257404327392578125</LatitudeDegrees>
              <LongitudeDegrees>-4.3837492726743221282958984375</LongitudeDegrees>
            </Position>
            <AltitudeMeters>756.79998779296875</AltitudeMeters>
            <DistanceMeters>NAN</DistanceMeters>
          </Trackpoint>
          <Trackpoint>
            <Time>2022-06-16T11:56:00.000Z</Time>
            <Position>
              <LatitudeDegrees>36.85083034448325634002685546875</LatitudeDegrees>
              <LongitudeDegrees>-4.38369940035045146942138671875</LongitudeDegrees>
            </Position>
            <AltitudeMeters>758</AltitudeMeters>
            <DistanceMeters>NAN</DistanceMeters>
          </Trackpoint>
          <Trackpoint>
            <Time>2022-06-16T11:56:10.000Z</Time>
            <Position>
              <LatitudeDegrees>36.85088817961513996124267578125</LatitudeDegrees>
              <LongitudeDegrees>-4.38361323438584804534912109375</LongitudeDegrees>
            </Position>
            <AltitudeMeters>760</AltitudeMeters>
            <DistanceMeters>NAN</DistanceMeters>
          </Trackpoint>
          <Trackpoint>
            <Time>2022-06-16T11:56:20.000Z</Time>
            <Position>
              <LatitudeDegrees>36.85094635002315044403076171875</LatitudeDegrees>
              <LongitudeDegrees>-4.38352958299219608306884765625</LongitudeDegrees>
            </Position>
            <AltitudeMeters>761.79998779296875</AltitudeMeters>
            <DistanceMeters>NAN</DistanceMeters>
          </Trackpoint>
          <Trackpoint>
            <Time>2022-06-16T11:56:30.000Z</Time>
            <Position>
              <LatitudeDegrees>36.8509915284812450408935546875</LatitudeDegrees>
              <LongitudeDegrees>-4.3834549002349376678466796875</LongitudeDegrees>
            </Position>
            <AltitudeMeters>763</AltitudeMeters>
            <DistanceMeters>NAN</DistanceMeters>
          </Trackpoint>
          <Trackpoint>
            <Time>2022-06-16T11:56:40.000Z</Time>
            <Position>
              <LatitudeDegrees>36.85104575939476490020751953125</LatitudeDegrees>
              <LongitudeDegrees>-4.3833692371845245361328125</LongitudeDegrees>
            </Position>
            <AltitudeMeters>764.20001220703125</AltitudeMeters>
            <DistanceMeters>NAN</DistanceMeters>
          </Trackpoint>
          <Trackpoint>
            <Time>2022-06-16T11:56:50.000Z</Time>
            <Position>
              <LatitudeDegrees>36.851083897054195404052734375</LatitudeDegrees>
              <LongitudeDegrees>-4.383263289928436279296875</LongitudeDegrees>
            </Position>
            <AltitudeMeters>766.4000244140625</AltitudeMeters>
            <DistanceMeters>NAN</DistanceMeters>
          </Trackpoint>
          <Trackpoint>
            <Time>2022-06-16T11:57:00.000Z</Time>
            <Position>
              <LatitudeDegrees>36.85113511048257350921630859375</LatitudeDegrees>
              <LongitudeDegrees>-4.38317335210740566253662109375</LongitudeDegrees>
            </Position>
            <AltitudeMeters>768.4000244140625</AltitudeMeters>
            <DistanceMeters>NAN</DistanceMeters>
          </Trackpoint>
          <Trackpoint>
            <Time>2022-06-16T11:57:10.000Z</Time>
            <Position>
              <LatitudeDegrees>36.85118414461612701416015625</LatitudeDegrees>
              <LongitudeDegrees>-4.383093975484371185302734375</LongitudeDegrees>
            </Position>
            <AltitudeMeters>770.20001220703125</AltitudeMeters>
            <DistanceMeters>NAN</DistanceMeters>
          </Trackpoint>
          <Trackpoint>
            <Time>2022-06-16T11:57:20.000Z</Time>
            <Position>
              <LatitudeDegrees>36.8512305803596973419189453125</LatitudeDegrees>
              <LongitudeDegrees>-4.383006133139133453369140625</LongitudeDegrees>
            </Position>
            <AltitudeMeters>772.4000244140625</AltitudeMeters>
            <DistanceMeters>NAN</DistanceMeters>
          </Trackpoint>
          <Trackpoint>
            <Time>2022-06-16T11:57:30.000Z</Time>
            <Position>
              <LatitudeDegrees>36.8512894213199615478515625</LatitudeDegrees>
              <LongitudeDegrees>-4.382927678525447845458984375</LongitudeDegrees>
            </Position>
            <AltitudeMeters>774.5999755859375</AltitudeMeters>
            <DistanceMeters>NAN</DistanceMeters>
          </Trackpoint>
          <Trackpoint>
            <Time>2022-06-16T11:57:40.000Z</Time>
            <Position>
              <LatitudeDegrees>36.85134566389024257659912109375</LatitudeDegrees>
              <LongitudeDegrees>-4.38284629024565219879150390625</LongitudeDegrees>
            </Position>
            <AltitudeMeters>777</AltitudeMeters>
            <DistanceMeters>NAN</DistanceMeters>
          </Trackpoint>
          <Trackpoint>
            <Time>2022-06-16T11:57:43.000Z</Time>
            <Position>
              <LatitudeDegrees>36.85136460699141025543212890625</LatitudeDegrees>
              <LongitudeDegrees>-4.382825754582881927490234375</LongitudeDegrees>
            </Position>
            <AltitudeMeters>777.5999755859375</AltitudeMeters>
            <DistanceMeters>NAN</DistanceMeters>
          </Trackpoint>
          <Trackpoint>
            <Time>2022-06-16T11:57:44.000Z</Time>
            <Position>
              <LatitudeDegrees>36.85136896558105945587158203125</LatitudeDegrees>
              <LongitudeDegrees>-4.3828168697655200958251953125</LongitudeDegrees>
            </Position>
            <AltitudeMeters>777.79998779296875</AltitudeMeters>
            <DistanceMeters>NAN</DistanceMeters>
          </Trackpoint>
          <Trackpoint>
            <Time>2022-06-16T11:57:50.000Z</Time>
            <Position>
              <LatitudeDegrees>36.85140945017337799072265625</LatitudeDegrees>
              <LongitudeDegrees>-4.38277068547904491424560546875</LongitudeDegrees>
            </Position>
            <AltitudeMeters>779</AltitudeMeters>
            <DistanceMeters>NAN</DistanceMeters>
          </Trackpoint>
          <Trackpoint>
            <Time>2022-06-16T11:58:00.000Z</Time>
            <Position>
              <LatitudeDegrees>36.85147382318973541259765625</LatitudeDegrees>
              <LongitudeDegrees>-4.38269156031310558319091796875</LongitudeDegrees>
            </Position>
            <AltitudeMeters>781.4000244140625</AltitudeMeters>
            <DistanceMeters>NAN</DistanceMeters>
          </Trackpoint>
          <Trackpoint>
            <Time>2022-06-16T11:58:10.000Z</Time>
            <Position>
              <LatitudeDegrees>36.8515410460531711578369140625</LatitudeDegrees>
              <LongitudeDegrees>-4.38261075876653194427490234375</LongitudeDegrees>
            </Position>
            <AltitudeMeters>783.79998779296875</AltitudeMeters>
            <DistanceMeters>NAN</DistanceMeters>
          </Trackpoint>
          <Trackpoint>
            <Time>2022-06-16T11:58:19.000Z</Time>
            <Position>
              <LatitudeDegrees>36.85161455534398555755615234375</LatitudeDegrees>
              <LongitudeDegrees>-4.3825493194162845611572265625</LongitudeDegrees>
            </Position>
            <AltitudeMeters>785.79998779296875</AltitudeMeters>
            <DistanceMeters>NAN</DistanceMeters>
          </Trackpoint>
          <Trackpoint>
            <Time>2022-06-16T11:58:20.000Z</Time>
            <Position>
              <LatitudeDegrees>36.851623021066188812255859375</LatitudeDegrees>
              <LongitudeDegrees>-4.38254370354115962982177734375</LongitudeDegrees>
            </Position>
            <AltitudeMeters>786</AltitudeMeters>
            <DistanceMeters>NAN</DistanceMeters>
          </Trackpoint>
          <Trackpoint>
            <Time>2022-06-16T11:58:25.000Z</Time>
            <Position>
              <LatitudeDegrees>36.85167607851326465606689453125</LatitudeDegrees>
              <LongitudeDegrees>-4.38253515399992465972900390625</LongitudeDegrees>
            </Position>
            <AltitudeMeters>786.5999755859375</AltitudeMeters>
            <DistanceMeters>NAN</DistanceMeters>
          </Trackpoint>
          <Trackpoint>
            <Time>2022-06-16T11:58:30.000Z</Time>
            <Position>
              <LatitudeDegrees>36.85172636993229389190673828125</LatitudeDegrees>
              <LongitudeDegrees>-4.38252962194383144378662109375</LongitudeDegrees>
            </Position>
            <AltitudeMeters>786.79998779296875</AltitudeMeters>
            <DistanceMeters>NAN</DistanceMeters>
          </Trackpoint>
          <Trackpoint>
            <Time>2022-06-16T11:58:40.000Z</Time>
            <Position>
              <LatitudeDegrees>36.8517945148050785064697265625</LatitudeDegrees>
              <LongitudeDegrees>-4.38252660445868968963623046875</LongitudeDegrees>
            </Position>
            <AltitudeMeters>787</AltitudeMeters>
            <DistanceMeters>NAN</DistanceMeters>
          </Trackpoint>
          <Trackpoint>
            <Time>2022-06-16T11:58:45.000Z</Time>
            <Position>
              <LatitudeDegrees>36.85180029831826686859130859375</LatitudeDegrees>
              <LongitudeDegrees>-4.382528029382228851318359375</LongitudeDegrees>
            </Position>
            <AltitudeMeters>787.20001220703125</AltitudeMeters>
            <DistanceMeters>NAN</DistanceMeters>
          </Trackpoint>
          <Trackpoint>
            <Time>2022-06-16T11:58:50.000Z</Time>
            <Position>
              <LatitudeDegrees>36.85181153006851673126220703125</LatitudeDegrees>
              <LongitudeDegrees>-4.382530041038990020751953125</LongitudeDegrees>
            </Position>
            <AltitudeMeters>787.4000244140625</AltitudeMeters>
            <DistanceMeters>NAN</DistanceMeters>
          </Trackpoint>
          <Trackpoint>
            <Time>2022-06-16T11:59:00.000Z</Time>
            <Position>
              <LatitudeDegrees>36.8518830277025699615478515625</LatitudeDegrees>
              <LongitudeDegrees>-4.3825164623558521270751953125</LongitudeDegrees>
            </Position>
            <AltitudeMeters>789.4000244140625</AltitudeMeters>
            <DistanceMeters>NAN</DistanceMeters>
          </Trackpoint>
          <Trackpoint>
            <Time>2022-06-16T11:59:01.000Z</Time>
            <Position>
              <LatitudeDegrees>36.8518902361392974853515625</LatitudeDegrees>
              <LongitudeDegrees>-4.38251889310777187347412109375</LongitudeDegrees>
            </Position>
            <AltitudeMeters>789.4000244140625</AltitudeMeters>
            <DistanceMeters>NAN</DistanceMeters>
          </Trackpoint>
          <Trackpoint>
            <Time>2022-06-16T11:59:06.000Z</Time>
            <Position>
              <LatitudeDegrees>36.85193072073161602020263671875</LatitudeDegrees>
              <LongitudeDegrees>-4.38253297470510005950927734375</LongitudeDegrees>
            </Position>
            <AltitudeMeters>789.79998779296875</AltitudeMeters>
            <DistanceMeters>NAN</DistanceMeters>
          </Trackpoint>
          <Trackpoint>
            <Time>2022-06-16T11:59:09.000Z</Time>
            <Position>
              <LatitudeDegrees>36.85195569880306720733642578125</LatitudeDegrees>
              <LongitudeDegrees>-4.382542781531810760498046875</LongitudeDegrees>
            </Position>
            <AltitudeMeters>789.79998779296875</AltitudeMeters>
            <DistanceMeters>NAN</DistanceMeters>
          </Trackpoint>
          <Trackpoint>
            <Time>2022-06-16T11:59:10.000Z</Time>
            <Position>
              <LatitudeDegrees>36.851965002715587615966796875</LatitudeDegrees>
              <LongitudeDegrees>-4.382546134293079376220703125</LongitudeDegrees>
            </Position>
            <AltitudeMeters>790</AltitudeMeters>
            <DistanceMeters>NAN</DistanceMeters>
          </Trackpoint>
          <Trackpoint>
            <Time>2022-06-16T11:59:12.000Z</Time>
            <Position>
              <LatitudeDegrees>36.851983778178691864013671875</LatitudeDegrees>
              <LongitudeDegrees>-4.38255460001528263092041015625</LongitudeDegrees>
            </Position>
            <AltitudeMeters>790.20001220703125</AltitudeMeters>
            <DistanceMeters>NAN</DistanceMeters>
          </Trackpoint>
          <Trackpoint>
            <Time>2022-06-16T11:59:20.000Z</Time>
            <Position>
              <LatitudeDegrees>36.85203515924513339996337890625</LatitudeDegrees>
              <LongitudeDegrees>-4.382614530622959136962890625</LongitudeDegrees>
            </Position>
            <AltitudeMeters>790</AltitudeMeters>
            <DistanceMeters>NAN</DistanceMeters>
          </Trackpoint>
          <Trackpoint>
            <Time>2022-06-16T11:59:30.000Z</Time>
            <Position>
              <LatitudeDegrees>36.85211964882910251617431640625</LatitudeDegrees>
              <LongitudeDegrees>-4.3826864473521709442138671875</LongitudeDegrees>
            </Position>
            <AltitudeMeters>788.4000244140625</AltitudeMeters>
            <DistanceMeters>NAN</DistanceMeters>
          </Trackpoint>
          <Trackpoint>
            <Time>2022-06-16T11:59:40.000Z</Time>
            <Position>
              <LatitudeDegrees>36.85221143066883087158203125</LatitudeDegrees>
              <LongitudeDegrees>-4.38268485479056835174560546875</LongitudeDegrees>
            </Position>
            <AltitudeMeters>789.4000244140625</AltitudeMeters>
            <DistanceMeters>NAN</DistanceMeters>
          </Trackpoint>
          <Trackpoint>
            <Time>2022-06-16T11:59:50.000Z</Time>
            <Position>
              <LatitudeDegrees>36.8523140251636505126953125</LatitudeDegrees>
              <LongitudeDegrees>-4.3826458789408206939697265625</LongitudeDegrees>
            </Position>
            <AltitudeMeters>791.4000244140625</AltitudeMeters>
            <DistanceMeters>NAN</DistanceMeters>
          </Trackpoint>
          <Trackpoint>
            <Time>2022-06-16T12:00:00.000Z</Time>
            <Position>
              <LatitudeDegrees>36.85240329243242740631103515625</LatitudeDegrees>
              <LongitudeDegrees>-4.38256683759391307830810546875</LongitudeDegrees>
            </Position>
            <AltitudeMeters>792.79998779296875</AltitudeMeters>
            <DistanceMeters>NAN</DistanceMeters>
          </Trackpoint>
          <Trackpoint>
            <Time>2022-06-16T12:00:06.000Z</Time>
            <Position>
              <LatitudeDegrees>36.85243715532124042510986328125</LatitudeDegrees>
              <LongitudeDegrees>-4.382502548396587371826171875</LongitudeDegrees>
            </Position>
            <AltitudeMeters>794.20001220703125</AltitudeMeters>
            <DistanceMeters>NAN</DistanceMeters>
          </Trackpoint>
          <Trackpoint>
            <Time>2022-06-16T12:00:10.000Z</Time>
            <Position>
              <LatitudeDegrees>36.85245509259402751922607421875</LatitudeDegrees>
              <LongitudeDegrees>-4.38245594501495361328125</LongitudeDegrees>
            </Position>
            <AltitudeMeters>795.20001220703125</AltitudeMeters>
            <DistanceMeters>NAN</DistanceMeters>
          </Trackpoint>
          <Trackpoint>
            <Time>2022-06-16T12:00:20.000Z</Time>
            <Position>
              <LatitudeDegrees>36.85249708592891693115234375</LatitudeDegrees>
              <LongitudeDegrees>-4.3823562003672122955322265625</LongitudeDegrees>
            </Position>
            <AltitudeMeters>797.20001220703125</AltitudeMeters>
            <DistanceMeters>NAN</DistanceMeters>
          </Trackpoint>
          <Trackpoint>
            <Time>2022-06-16T12:00:29.000Z</Time>
            <Position>
              <LatitudeDegrees>36.85255416668951511383056640625</LatitudeDegrees>
              <LongitudeDegrees>-4.38225888647139072418212890625</LongitudeDegrees>
            </Position>
            <AltitudeMeters>798.79998779296875</AltitudeMeters>
            <DistanceMeters>NAN</DistanceMeters>
          </Trackpoint>
          <Trackpoint>
            <Time>2022-06-16T12:00:30.000Z</Time>
            <Position>
              <LatitudeDegrees>36.8525565974414348602294921875</LatitudeDegrees>
              <LongitudeDegrees>-4.3822458945214748382568359375</LongitudeDegrees>
            </Position>
            <AltitudeMeters>799</AltitudeMeters>
            <DistanceMeters>NAN</DistanceMeters>
          </Trackpoint>
          <Trackpoint>
            <Time>2022-06-16T12:00:40.000Z</Time>
            <Position>
              <LatitudeDegrees>36.85260227881371974945068359375</LatitudeDegrees>
              <LongitudeDegrees>-4.38213206827640533447265625</LongitudeDegrees>
            </Position>
            <AltitudeMeters>801</AltitudeMeters>
            <DistanceMeters>NAN</DistanceMeters>
          </Trackpoint>
          <Trackpoint>
            <Time>2022-06-16T12:00:50.000Z</Time>
            <Position>
              <LatitudeDegrees>36.85266028158366680145263671875</LatitudeDegrees>
              <LongitudeDegrees>-4.3820360116660594940185546875</LongitudeDegrees>
            </Position>
            <AltitudeMeters>801.79998779296875</AltitudeMeters>
            <DistanceMeters>NAN</DistanceMeters>
          </Trackpoint>
          <Trackpoint>
            <Time>2022-06-16T12:01:00.000Z</Time>
            <Position>
              <LatitudeDegrees>36.85269632376730442047119140625</LatitudeDegrees>
              <LongitudeDegrees>-4.38194087706506252288818359375</LongitudeDegrees>
            </Position>
            <AltitudeMeters>803</AltitudeMeters>
            <DistanceMeters>NAN</DistanceMeters>
          </Trackpoint>
          <Trackpoint>
            <Time>2022-06-16T12:01:10.000Z</Time>
            <Position>
              <LatitudeDegrees>36.8527701683342456817626953125</LatitudeDegrees>
              <LongitudeDegrees>-4.3818690441548824310302734375</LongitudeDegrees>
            </Position>
            <AltitudeMeters>803.20001220703125</AltitudeMeters>
            <DistanceMeters>NAN</DistanceMeters>
          </Trackpoint>
          <Trackpoint>
            <Time>2022-06-16T12:01:20.000Z</Time>
            <Position>
              <LatitudeDegrees>36.85282959602773189544677734375</LatitudeDegrees>
              <LongitudeDegrees>-4.38177726231515407562255859375</LongitudeDegrees>
            </Position>
            <AltitudeMeters>803.5999755859375</AltitudeMeters>
            <DistanceMeters>NAN</DistanceMeters>
          </Trackpoint>
          <Trackpoint>
            <Time>2022-06-16T12:01:27.000Z</Time>
            <Position>
              <LatitudeDegrees>36.85286345891654491424560546875</LatitudeDegrees>
              <LongitudeDegrees>-4.3817087821662425994873046875</LongitudeDegrees>
            </Position>
            <AltitudeMeters>804</AltitudeMeters>
            <DistanceMeters>NAN</DistanceMeters>
          </Trackpoint>
          <Trackpoint>
            <Time>2022-06-16T12:01:30.000Z</Time>
            <Position>
              <LatitudeDegrees>36.85287770815193653106689453125</LatitudeDegrees>
              <LongitudeDegrees>-4.3816772662103176116943359375</LongitudeDegrees>
            </Position>
            <AltitudeMeters>804.4000244140625</AltitudeMeters>
            <DistanceMeters>NAN</DistanceMeters>
          </Trackpoint>
          <Trackpoint>
            <Time>2022-06-16T12:01:40.000Z</Time>
            <Position>
              <LatitudeDegrees>36.85293621383607387542724609375</LatitudeDegrees>
              <LongitudeDegrees>-4.38157861120998859405517578125</LongitudeDegrees>
            </Position>
            <AltitudeMeters>804.5999755859375</AltitudeMeters>
            <DistanceMeters>NAN</DistanceMeters>
          </Trackpoint>
          <Trackpoint>
            <Time>2022-06-16T12:01:50.000Z</Time>
            <Position>
              <LatitudeDegrees>36.852987594902515411376953125</LatitudeDegrees>
              <LongitudeDegrees>-4.381460845470428466796875</LongitudeDegrees>
            </Position>
            <AltitudeMeters>804.5999755859375</AltitudeMeters>
            <DistanceMeters>NAN</DistanceMeters>
          </Trackpoint>
          <Trackpoint>
            <Time>2022-06-16T12:02:00.000Z</Time>
            <Position>
              <LatitudeDegrees>36.8530249781906604766845703125</LatitudeDegrees>
              <LongitudeDegrees>-4.3813272379338741302490234375</LongitudeDegrees>
            </Position>
            <AltitudeMeters>805</AltitudeMeters>
            <DistanceMeters>NAN</DistanceMeters>
          </Trackpoint>
          <Trackpoint>
            <Time>2022-06-16T12:02:06.000Z</Time>
            <Position>
              <LatitudeDegrees>36.85302858240902423858642578125</LatitudeDegrees>
              <LongitudeDegrees>-4.38124417327344417572021484375</LongitudeDegrees>
            </Position>
            <AltitudeMeters>805.5999755859375</AltitudeMeters>
            <DistanceMeters>NAN</DistanceMeters>
          </Trackpoint>
          <Trackpoint>
            <Time>2022-06-16T12:02:10.000Z</Time>
            <Position>
              <LatitudeDegrees>36.8530383892357349395751953125</LatitudeDegrees>
              <LongitudeDegrees>-4.381193630397319793701171875</LongitudeDegrees>
            </Position>
            <AltitudeMeters>805.79998779296875</AltitudeMeters>
            <DistanceMeters>NAN</DistanceMeters>
          </Trackpoint>
          <Trackpoint>
            <Time>2022-06-16T12:02:20.000Z</Time>
            <Position>
              <LatitudeDegrees>36.8530564941465854644775390625</LatitudeDegrees>
              <LongitudeDegrees>-4.381047785282135009765625</LongitudeDegrees>
            </Position>
            <AltitudeMeters>805.20001220703125</AltitudeMeters>
            <DistanceMeters>NAN</DistanceMeters>
          </Trackpoint>
          <Trackpoint>
            <Time>2022-06-16T12:02:30.000Z</Time>
            <Position>
              <LatitudeDegrees>36.85306848026812076568603515625</LatitudeDegrees>
              <LongitudeDegrees>-4.3809148482978343963623046875</LongitudeDegrees>
            </Position>
            <AltitudeMeters>805.5999755859375</AltitudeMeters>
            <DistanceMeters>NAN</DistanceMeters>
          </Trackpoint>
          <Trackpoint>
            <Time>2022-06-16T12:02:40.000Z</Time>
            <Position>
              <LatitudeDegrees>36.8530886806547641754150390625</LatitudeDegrees>
              <LongitudeDegrees>-4.38079926185309886932373046875</LongitudeDegrees>
            </Position>
            <AltitudeMeters>805.5999755859375</AltitudeMeters>
            <DistanceMeters>NAN</DistanceMeters>
          </Trackpoint>
          <Trackpoint>
            <Time>2022-06-16T12:02:50.000Z</Time>
            <Position>
              <LatitudeDegrees>36.85309815220534801483154296875</LatitudeDegrees>
              <LongitudeDegrees>-4.380666911602020263671875</LongitudeDegrees>
            </Position>
            <AltitudeMeters>806.5999755859375</AltitudeMeters>
            <DistanceMeters>NAN</DistanceMeters>
          </Trackpoint>
          <Trackpoint>
            <Time>2022-06-16T12:03:00.000Z</Time>
            <Position>
              <LatitudeDegrees>36.8531342782080173492431640625</LatitudeDegrees>
              <LongitudeDegrees>-4.38053883612155914306640625</LongitudeDegrees>
            </Position>
            <AltitudeMeters>807.5999755859375</AltitudeMeters>
            <DistanceMeters>NAN</DistanceMeters>
          </Trackpoint>
          <Trackpoint>
            <Time>2022-06-16T12:03:10.000Z</Time>
            <Position>
              <LatitudeDegrees>36.85317208059132099151611328125</LatitudeDegrees>
              <LongitudeDegrees>-4.38042408786714076995849609375</LongitudeDegrees>
            </Position>
            <AltitudeMeters>809</AltitudeMeters>
            <DistanceMeters>NAN</DistanceMeters>
          </Trackpoint>
          <Trackpoint>
            <Time>2022-06-16T12:03:20.000Z</Time>
            <Position>
              <LatitudeDegrees>36.85321264900267124176025390625</LatitudeDegrees>
              <LongitudeDegrees>-4.3803100101649761199951171875</LongitudeDegrees>
            </Position>
            <AltitudeMeters>810.20001220703125</AltitudeMeters>
            <DistanceMeters>NAN</DistanceMeters>
          </Trackpoint>
          <Trackpoint>
            <Time>2022-06-16T12:03:30.000Z</Time>
            <Position>
              <LatitudeDegrees>36.8532187677919864654541015625</LatitudeDegrees>
              <LongitudeDegrees>-4.380201883614063262939453125</LongitudeDegrees>
            </Position>
            <AltitudeMeters>811.4000244140625</AltitudeMeters>
            <DistanceMeters>NAN</DistanceMeters>
          </Trackpoint>
          <Trackpoint>
            <Time>2022-06-16T12:03:40.000Z</Time>
            <Position>
              <LatitudeDegrees>36.85323125682771205902099609375</LatitudeDegrees>
              <LongitudeDegrees>-4.38007087446749210357666015625</LongitudeDegrees>
            </Position>
            <AltitudeMeters>812.5999755859375</AltitudeMeters>
            <DistanceMeters>NAN</DistanceMeters>
          </Trackpoint>
          <Trackpoint>
            <Time>2022-06-16T12:03:50.000Z</Time>
            <Position>
              <LatitudeDegrees>36.853223629295825958251953125</LatitudeDegrees>
              <LongitudeDegrees>-4.3799301423132419586181640625</LongitudeDegrees>
            </Position>
            <AltitudeMeters>813.4000244140625</AltitudeMeters>
            <DistanceMeters>NAN</DistanceMeters>
          </Trackpoint>
          <Trackpoint>
            <Time>2022-06-16T12:04:00.000Z</Time>
            <Position>
              <LatitudeDegrees>36.85320661403238773345947265625</LatitudeDegrees>
              <LongitudeDegrees>-4.37981120310723781585693359375</LongitudeDegrees>
            </Position>
            <AltitudeMeters>814.4000244140625</AltitudeMeters>
            <DistanceMeters>NAN</DistanceMeters>
          </Trackpoint>
          <Trackpoint>
            <Time>2022-06-16T12:04:10.000Z</Time>
            <Position>
              <LatitudeDegrees>36.8531490303575992584228515625</LatitudeDegrees>
              <LongitudeDegrees>-4.37970508821308612823486328125</LongitudeDegrees>
            </Position>
            <AltitudeMeters>813.5999755859375</AltitudeMeters>
            <DistanceMeters>NAN</DistanceMeters>
          </Trackpoint>
          <Trackpoint>
            <Time>2022-06-16T12:04:20.000Z</Time>
            <Position>
              <LatitudeDegrees>36.85308239422738552093505859375</LatitudeDegrees>
              <LongitudeDegrees>-4.379619173705577850341796875</LongitudeDegrees>
            </Position>
            <AltitudeMeters>812.20001220703125</AltitudeMeters>
            <DistanceMeters>NAN</DistanceMeters>
          </Trackpoint>
          <Trackpoint>
            <Time>2022-06-16T12:04:22.000Z</Time>
            <Position>
              <LatitudeDegrees>36.8530742637813091278076171875</LatitudeDegrees>
              <LongitudeDegrees>-4.37959629110991954803466796875</LongitudeDegrees>
            </Position>
            <AltitudeMeters>812.20001220703125</AltitudeMeters>
            <DistanceMeters>NAN</DistanceMeters>
          </Trackpoint>
          <Trackpoint>
            <Time>2022-06-16T12:04:26.000Z</Time>
            <Position>
              <LatitudeDegrees>36.85305272229015827178955078125</LatitudeDegrees>
              <LongitudeDegrees>-4.3795475922524929046630859375</LongitudeDegrees>
            </Position>
            <AltitudeMeters>812.20001220703125</AltitudeMeters>
            <DistanceMeters>NAN</DistanceMeters>
          </Trackpoint>
          <Trackpoint>
            <Time>2022-06-16T12:04:30.000Z</Time>
            <Position>
              <LatitudeDegrees>36.8530293367803096771240234375</LatitudeDegrees>
              <LongitudeDegrees>-4.37950056977570056915283203125</LongitudeDegrees>
            </Position>
            <AltitudeMeters>812.79998779296875</AltitudeMeters>
            <DistanceMeters>NAN</DistanceMeters>
          </Trackpoint>
          <Trackpoint>
            <Time>2022-06-16T12:04:40.000Z</Time>
            <Position>
              <LatitudeDegrees>36.8529773689806461334228515625</LatitudeDegrees>
              <LongitudeDegrees>-4.379414655268192291259765625</LongitudeDegrees>
            </Position>
            <AltitudeMeters>815.5999755859375</AltitudeMeters>
            <DistanceMeters>NAN</DistanceMeters>
          </Trackpoint>
          <Trackpoint>
            <Time>2022-06-16T12:04:43.000Z</Time>
            <Position>
              <LatitudeDegrees>36.85295381583273410797119140625</LatitudeDegrees>
              <LongitudeDegrees>-4.3793823011219501495361328125</LongitudeDegrees>
            </Position>
            <AltitudeMeters>816.4000244140625</AltitudeMeters>
            <DistanceMeters>NAN</DistanceMeters>
          </Trackpoint>
          <Trackpoint>
            <Time>2022-06-16T12:04:50.000Z</Time>
            <Position>
              <LatitudeDegrees>36.85290318913757801055908203125</LatitudeDegrees>
              <LongitudeDegrees>-4.3793065287172794342041015625</LongitudeDegrees>
            </Position>
            <AltitudeMeters>818.20001220703125</AltitudeMeters>
            <DistanceMeters>NAN</DistanceMeters>
          </Trackpoint>
          <Trackpoint>
            <Time>2022-06-16T12:05:00.000Z</Time>
            <Position>
              <LatitudeDegrees>36.8528667278587818145751953125</LatitudeDegrees>
              <LongitudeDegrees>-4.37919060699641704559326171875</LongitudeDegrees>
            </Position>
            <AltitudeMeters>821.5999755859375</AltitudeMeters>
            <DistanceMeters>NAN</DistanceMeters>
          </Trackpoint>
          <Trackpoint>
            <Time>2022-06-16T12:05:10.000Z</Time>
            <Position>
              <LatitudeDegrees>36.85280595906078815460205078125</LatitudeDegrees>
              <LongitudeDegrees>-4.3790755234658718109130859375</LongitudeDegrees>
            </Position>
            <AltitudeMeters>822.20001220703125</AltitudeMeters>
            <DistanceMeters>NAN</DistanceMeters>
          </Trackpoint>
          <Trackpoint>
            <Time>2022-06-16T12:05:18.000Z</Time>
            <Position>
              <LatitudeDegrees>36.8527914583683013916015625</LatitudeDegrees>
              <LongitudeDegrees>-4.3789816461503505706787109375</LongitudeDegrees>
            </Position>
            <AltitudeMeters>823.4000244140625</AltitudeMeters>
            <DistanceMeters>NAN</DistanceMeters>
          </Trackpoint>
          <Trackpoint>
            <Time>2022-06-16T12:05:20.000Z</Time>
            <Position>
              <LatitudeDegrees>36.85279305092990398406982421875</LatitudeDegrees>
              <LongitudeDegrees>-4.37895256094634532928466796875</LongitudeDegrees>
            </Position>
            <AltitudeMeters>824</AltitudeMeters>
            <DistanceMeters>NAN</DistanceMeters>
          </Trackpoint>
          <Trackpoint>
            <Time>2022-06-16T12:05:25.000Z</Time>
            <Position>
              <LatitudeDegrees>36.85279506258666515350341796875</LatitudeDegrees>
              <LongitudeDegrees>-4.37887645326554775238037109375</LongitudeDegrees>
            </Position>
            <AltitudeMeters>825.79998779296875</AltitudeMeters>
            <DistanceMeters>NAN</DistanceMeters>
          </Trackpoint>
          <Trackpoint>
            <Time>2022-06-16T12:05:30.000Z</Time>
            <Position>
              <LatitudeDegrees>36.8528097309172153472900390625</LatitudeDegrees>
              <LongitudeDegrees>-4.37880403362214565277099609375</LongitudeDegrees>
            </Position>
            <AltitudeMeters>827</AltitudeMeters>
            <DistanceMeters>NAN</DistanceMeters>
          </Trackpoint>
          <Trackpoint>
            <Time>2022-06-16T12:05:40.000Z</Time>
            <Position>
              <LatitudeDegrees>36.85290385968983173370361328125</LatitudeDegrees>
              <LongitudeDegrees>-4.37872675247490406036376953125</LongitudeDegrees>
            </Position>
            <AltitudeMeters>829.5999755859375</AltitudeMeters>
            <DistanceMeters>NAN</DistanceMeters>
          </Trackpoint>
          <Trackpoint>
            <Time>2022-06-16T12:05:50.000Z</Time>
            <Position>
              <LatitudeDegrees>36.85300192795693874359130859375</LatitudeDegrees>
              <LongitudeDegrees>-4.37872155569493770599365234375</LongitudeDegrees>
            </Position>
            <AltitudeMeters>830.4000244140625</AltitudeMeters>
            <DistanceMeters>NAN</DistanceMeters>
          </Trackpoint>
          <Trackpoint>
            <Time>2022-06-16T12:06:00.000Z</Time>
            <Position>
              <LatitudeDegrees>36.8531052768230438232421875</LatitudeDegrees>
              <LongitudeDegrees>-4.37873597256839275360107421875</LongitudeDegrees>
            </Position>
            <AltitudeMeters>831.4000244140625</AltitudeMeters>
            <DistanceMeters>NAN</DistanceMeters>
          </Trackpoint>
          <Trackpoint>
            <Time>2022-06-16T12:06:07.000Z</Time>
            <Position>
              <LatitudeDegrees>36.85317141003906726837158203125</LatitudeDegrees>
              <LongitudeDegrees>-4.37876212410628795623779296875</LongitudeDegrees>
            </Position>
            <AltitudeMeters>832.20001220703125</AltitudeMeters>
            <DistanceMeters>NAN</DistanceMeters>
          </Trackpoint>
          <Trackpoint>
            <Time>2022-06-16T12:06:10.000Z</Time>
            <Position>
              <LatitudeDegrees>36.8532083742320537567138671875</LatitudeDegrees>
              <LongitudeDegrees>-4.37877721153199672698974609375</LongitudeDegrees>
            </Position>
            <AltitudeMeters>832.5999755859375</AltitudeMeters>
            <DistanceMeters>NAN</DistanceMeters>
          </Trackpoint>
          <Trackpoint>
            <Time>2022-06-16T12:06:16.000Z</Time>
            <Position>
              <LatitudeDegrees>36.8532717414200305938720703125</LatitudeDegrees>
              <LongitudeDegrees>-4.3788083083927631378173828125</LongitudeDegrees>
            </Position>
            <AltitudeMeters>833</AltitudeMeters>
            <DistanceMeters>NAN</DistanceMeters>
          </Trackpoint>
          <Trackpoint>
            <Time>2022-06-16T12:06:17.000Z</Time>
            <Position>
              <LatitudeDegrees>36.85328590683639049530029296875</LatitudeDegrees>
              <LongitudeDegrees>-4.3788153491914272308349609375</LongitudeDegrees>
            </Position>
            <AltitudeMeters>833</AltitudeMeters>
            <DistanceMeters>NAN</DistanceMeters>
          </Trackpoint>
          <Trackpoint>
            <Time>2022-06-16T12:06:18.000Z</Time>
            <Position>
              <LatitudeDegrees>36.85329814441502094268798828125</LatitudeDegrees>
              <LongitudeDegrees>-4.37881979160010814666748046875</LongitudeDegrees>
            </Position>
            <AltitudeMeters>833.20001220703125</AltitudeMeters>
            <DistanceMeters>NAN</DistanceMeters>
          </Trackpoint>
          <Trackpoint>
            <Time>2022-06-16T12:06:20.000Z</Time>
            <Position>
              <LatitudeDegrees>36.85332697816193103790283203125</LatitudeDegrees>
              <LongitudeDegrees>-4.37882783822715282440185546875</LongitudeDegrees>
            </Position>
            <AltitudeMeters>833.4000244140625</AltitudeMeters>
            <DistanceMeters>NAN</DistanceMeters>
          </Trackpoint>
          <Trackpoint>
            <Time>2022-06-16T12:06:22.000Z</Time>
            <Position>
              <LatitudeDegrees>36.85334944166243076324462890625</LatitudeDegrees>
              <LongitudeDegrees>-4.37883739359676837921142578125</LongitudeDegrees>
            </Position>
            <AltitudeMeters>833.4000244140625</AltitudeMeters>
            <DistanceMeters>NAN</DistanceMeters>
          </Trackpoint>
          <Trackpoint>
            <Time>2022-06-16T12:06:30.000Z</Time>
            <Position>
              <LatitudeDegrees>36.85344164259731769561767578125</LatitudeDegrees>
              <LongitudeDegrees>-4.37884124927222728729248046875</LongitudeDegrees>
            </Position>
            <AltitudeMeters>834.20001220703125</AltitudeMeters>
            <DistanceMeters>NAN</DistanceMeters>
          </Trackpoint>
          <Trackpoint>
            <Time>2022-06-16T12:06:36.000Z</Time>
            <Position>
              <LatitudeDegrees>36.85351490043103694915771484375</LatitudeDegrees>
              <LongitudeDegrees>-4.37884259037673473358154296875</LongitudeDegrees>
            </Position>
            <AltitudeMeters>835.4000244140625</AltitudeMeters>
            <DistanceMeters>NAN</DistanceMeters>
          </Trackpoint>
          <Trackpoint>
            <Time>2022-06-16T12:06:39.000Z</Time>
            <Position>
              <LatitudeDegrees>36.85354088433086872100830078125</LatitudeDegrees>
              <LongitudeDegrees>-4.37886136583983898162841796875</LongitudeDegrees>
            </Position>
            <AltitudeMeters>835.5999755859375</AltitudeMeters>
            <DistanceMeters>NAN</DistanceMeters>
          </Trackpoint>
          <Trackpoint>
            <Time>2022-06-16T12:06:40.000Z</Time>
            <Position>
              <LatitudeDegrees>36.85354775749146938323974609375</LatitudeDegrees>
              <LongitudeDegrees>-4.37887343578040599822998046875</LongitudeDegrees>
            </Position>
            <AltitudeMeters>835.4000244140625</AltitudeMeters>
            <DistanceMeters>NAN</DistanceMeters>
          </Trackpoint>
          <Trackpoint>
            <Time>2022-06-16T12:06:43.000Z</Time>
            <Position>
              <LatitudeDegrees>36.85357424430549144744873046875</LatitudeDegrees>
              <LongitudeDegrees>-4.37890847213566303253173828125</LongitudeDegrees>
            </Position>
            <AltitudeMeters>835.4000244140625</AltitudeMeters>
            <DistanceMeters>NAN</DistanceMeters>
          </Trackpoint>
          <Trackpoint>
            <Time>2022-06-16T12:06:45.000Z</Time>
            <Position>
              <LatitudeDegrees>36.85358514077961444854736328125</LatitudeDegrees>
              <LongitudeDegrees>-4.37893747352063655853271484375</LongitudeDegrees>
            </Position>
            <AltitudeMeters>835.4000244140625</AltitudeMeters>
            <DistanceMeters>NAN</DistanceMeters>
          </Trackpoint>
          <Trackpoint>
            <Time>2022-06-16T12:06:46.000Z</Time>
            <Position>
              <LatitudeDegrees>36.853589080274105072021484375</LatitudeDegrees>
              <LongitudeDegrees>-4.37895004637539386749267578125</LongitudeDegrees>
            </Position>
            <AltitudeMeters>835.20001220703125</AltitudeMeters>
            <DistanceMeters>NAN</DistanceMeters>
          </Trackpoint>
          <Trackpoint>
            <Time>2022-06-16T12:06:50.000Z</Time>
            <Position>
              <LatitudeDegrees>36.85359285213053226470947265625</LatitudeDegrees>
              <LongitudeDegrees>-4.37896907329559326171875</LongitudeDegrees>
            </Position>
            <AltitudeMeters>835</AltitudeMeters>
            <DistanceMeters>NAN</DistanceMeters>
          </Trackpoint>
          <Trackpoint>
            <Time>2022-06-16T12:07:00.000Z</Time>
            <Position>
              <LatitudeDegrees>36.85358799062669277191162109375</LatitudeDegrees>
              <LongitudeDegrees>-4.37891819514334201812744140625</LongitudeDegrees>
            </Position>
            <AltitudeMeters>835.5999755859375</AltitudeMeters>
            <DistanceMeters>NAN</DistanceMeters>
          </Trackpoint>
          <Trackpoint>
            <Time>2022-06-16T12:07:03.000Z</Time>
            <Position>
              <LatitudeDegrees>36.8536014854907989501953125</LatitudeDegrees>
              <LongitudeDegrees>-4.37887595035135746002197265625</LongitudeDegrees>
            </Position>
            <AltitudeMeters>836.20001220703125</AltitudeMeters>
            <DistanceMeters>NAN</DistanceMeters>
          </Trackpoint>
          <Trackpoint>
            <Time>2022-06-16T12:07:10.000Z</Time>
            <Position>
              <LatitudeDegrees>36.85362160205841064453125</LatitudeDegrees>
              <LongitudeDegrees>-4.378764890134334564208984375</LongitudeDegrees>
            </Position>
            <AltitudeMeters>837.79998779296875</AltitudeMeters>
            <DistanceMeters>NAN</DistanceMeters>
          </Trackpoint>
          <Trackpoint>
            <Time>2022-06-16T12:07:20.000Z</Time>
            <Position>
              <LatitudeDegrees>36.8536878190934658050537109375</LatitudeDegrees>
              <LongitudeDegrees>-4.3786141835153102874755859375</LongitudeDegrees>
            </Position>
            <AltitudeMeters>840.20001220703125</AltitudeMeters>
            <DistanceMeters>NAN</DistanceMeters>
          </Trackpoint>
          <Trackpoint>
            <Time>2022-06-16T12:07:30.000Z</Time>
            <Position>
              <LatitudeDegrees>36.85374020598828792572021484375</LatitudeDegrees>
              <LongitudeDegrees>-4.37850027345120906829833984375</LongitudeDegrees>
            </Position>
            <AltitudeMeters>842.20001220703125</AltitudeMeters>
            <DistanceMeters>NAN</DistanceMeters>
          </Trackpoint>
          <Trackpoint>
            <Time>2022-06-16T12:07:39.000Z</Time>
            <Position>
              <LatitudeDegrees>36.85380642302334308624267578125</LatitudeDegrees>
              <LongitudeDegrees>-4.37841050326824188232421875</LongitudeDegrees>
            </Position>
            <AltitudeMeters>844.4000244140625</AltitudeMeters>
            <DistanceMeters>NAN</DistanceMeters>
          </Trackpoint>
          <Trackpoint>
            <Time>2022-06-16T12:07:40.000Z</Time>
            <Position>
              <LatitudeDegrees>36.85381312854588031768798828125</LatitudeDegrees>
              <LongitudeDegrees>-4.37840086407959461212158203125</LongitudeDegrees>
            </Position>
            <AltitudeMeters>844.79998779296875</AltitudeMeters>
            <DistanceMeters>NAN</DistanceMeters>
          </Trackpoint>
          <Trackpoint>
            <Time>2022-06-16T12:07:48.000Z</Time>
            <Position>
              <LatitudeDegrees>36.8538725562393665313720703125</LatitudeDegrees>
              <LongitudeDegrees>-4.3783328868448734283447265625</LongitudeDegrees>
            </Position>
            <AltitudeMeters>846.79998779296875</AltitudeMeters>
            <DistanceMeters>NAN</DistanceMeters>
          </Trackpoint>
          <Trackpoint>
            <Time>2022-06-16T12:07:50.000Z</Time>
            <Position>
              <LatitudeDegrees>36.85388378798961639404296875</LatitudeDegrees>
              <LongitudeDegrees>-4.3783127702772617340087890625</LongitudeDegrees>
            </Position>
            <AltitudeMeters>847.20001220703125</AltitudeMeters>
            <DistanceMeters>NAN</DistanceMeters>
          </Trackpoint>
          <Trackpoint>
            <Time>2022-06-16T12:08:00.000Z</Time>
            <Position>
              <LatitudeDegrees>36.8538956902921199798583984375</LatitudeDegrees>
              <LongitudeDegrees>-4.37818695791065692901611328125</LongitudeDegrees>
            </Position>
            <AltitudeMeters>848.5999755859375</AltitudeMeters>
            <DistanceMeters>NAN</DistanceMeters>
          </Trackpoint>
          <Trackpoint>
            <Time>2022-06-16T12:08:06.000Z</Time>
            <Position>
              <LatitudeDegrees>36.8539094366133213043212890625</LatitudeDegrees>
              <LongitudeDegrees>-4.3780941702425479888916015625</LongitudeDegrees>
            </Position>
            <AltitudeMeters>849.5999755859375</AltitudeMeters>
            <DistanceMeters>NAN</DistanceMeters>
          </Trackpoint>
          <Trackpoint>
            <Time>2022-06-16T12:08:10.000Z</Time>
            <Position>
              <LatitudeDegrees>36.85391387902200222015380859375</LatitudeDegrees>
              <LongitudeDegrees>-4.378037340939044952392578125</LongitudeDegrees>
            </Position>
            <AltitudeMeters>850.20001220703125</AltitudeMeters>
            <DistanceMeters>NAN</DistanceMeters>
          </Trackpoint>
          <Trackpoint>
            <Time>2022-06-16T12:08:20.000Z</Time>
            <Position>
              <LatitudeDegrees>36.85392779298126697540283203125</LatitudeDegrees>
              <LongitudeDegrees>-4.37788403593003749847412109375</LongitudeDegrees>
            </Position>
            <AltitudeMeters>853.4000244140625</AltitudeMeters>
            <DistanceMeters>NAN</DistanceMeters>
          </Trackpoint>
          <Trackpoint>
            <Time>2022-06-16T12:08:30.000Z</Time>
            <Position>
              <LatitudeDegrees>36.8538916669785976409912109375</LatitudeDegrees>
              <LongitudeDegrees>-4.3777615763247013092041015625</LongitudeDegrees>
            </Position>
            <AltitudeMeters>854</AltitudeMeters>
            <DistanceMeters>NAN</DistanceMeters>
          </Trackpoint>
          <Trackpoint>
            <Time>2022-06-16T12:08:40.000Z</Time>
            <Position>
              <LatitudeDegrees>36.85378052294254302978515625</LatitudeDegrees>
              <LongitudeDegrees>-4.37768496572971343994140625</LongitudeDegrees>
            </Position>
            <AltitudeMeters>850</AltitudeMeters>
            <DistanceMeters>NAN</DistanceMeters>
          </Trackpoint>
          <Trackpoint>
            <Time>2022-06-16T12:08:48.000Z</Time>
            <Position>
              <LatitudeDegrees>36.8536965362727642059326171875</LatitudeDegrees>
              <LongitudeDegrees>-4.37762989662587642669677734375</LongitudeDegrees>
            </Position>
            <AltitudeMeters>848.4000244140625</AltitudeMeters>
            <DistanceMeters>NAN</DistanceMeters>
          </Trackpoint>
          <Trackpoint>
            <Time>2022-06-16T12:08:50.000Z</Time>
            <Position>
              <LatitudeDegrees>36.85367859899997711181640625</LatitudeDegrees>
              <LongitudeDegrees>-4.37761246226727962493896484375</LongitudeDegrees>
            </Position>
            <AltitudeMeters>848.20001220703125</AltitudeMeters>
            <DistanceMeters>NAN</DistanceMeters>
          </Trackpoint>
          <Trackpoint>
            <Time>2022-06-16T12:09:00.000Z</Time>
            <Position>
              <LatitudeDegrees>36.8536579795181751251220703125</LatitudeDegrees>
              <LongitudeDegrees>-4.37748522497713565826416015625</LongitudeDegrees>
            </Position>
            <AltitudeMeters>849.4000244140625</AltitudeMeters>
            <DistanceMeters>NAN</DistanceMeters>
          </Trackpoint>
          <Trackpoint>
            <Time>2022-06-16T12:09:10.000Z</Time>
            <Position>
              <LatitudeDegrees>36.8536854721605777740478515625</LatitudeDegrees>
              <LongitudeDegrees>-4.377357065677642822265625</LongitudeDegrees>
            </Position>
            <AltitudeMeters>850.4000244140625</AltitudeMeters>
            <DistanceMeters>NAN</DistanceMeters>
          </Trackpoint>
          <Trackpoint>
            <Time>2022-06-16T12:09:20.000Z</Time>
            <Position>
              <LatitudeDegrees>36.8537273816764354705810546875</LatitudeDegrees>
              <LongitudeDegrees>-4.3772392161190509796142578125</LongitudeDegrees>
            </Position>
            <AltitudeMeters>851.5999755859375</AltitudeMeters>
            <DistanceMeters>NAN</DistanceMeters>
          </Trackpoint>
          <Trackpoint>
            <Time>2022-06-16T12:09:30.000Z</Time>
            <Position>
              <LatitudeDegrees>36.85375562869012355804443359375</LatitudeDegrees>
              <LongitudeDegrees>-4.37711231410503387451171875</LongitudeDegrees>
            </Position>
            <AltitudeMeters>852.20001220703125</AltitudeMeters>
            <DistanceMeters>NAN</DistanceMeters>
          </Trackpoint>
          <Trackpoint>
            <Time>2022-06-16T12:09:40.000Z</Time>
            <Position>
              <LatitudeDegrees>36.85380709357559680938720703125</LatitudeDegrees>
              <LongitudeDegrees>-4.37697124667465686798095703125</LongitudeDegrees>
            </Position>
            <AltitudeMeters>853.4000244140625</AltitudeMeters>
            <DistanceMeters>NAN</DistanceMeters>
          </Trackpoint>
          <Trackpoint>
            <Time>2022-06-16T12:09:50.000Z</Time>
            <Position>
              <LatitudeDegrees>36.85383148491382598876953125</LatitudeDegrees>
              <LongitudeDegrees>-4.37686177901923656463623046875</LongitudeDegrees>
            </Position>
            <AltitudeMeters>854</AltitudeMeters>
            <DistanceMeters>NAN</DistanceMeters>
          </Trackpoint>
          <Trackpoint>
            <Time>2022-06-16T12:10:00.000Z</Time>
            <Position>
              <LatitudeDegrees>36.85386258177459239959716796875</LatitudeDegrees>
              <LongitudeDegrees>-4.37670922838151454925537109375</LongitudeDegrees>
            </Position>
            <AltitudeMeters>855</AltitudeMeters>
            <DistanceMeters>NAN</DistanceMeters>
          </Trackpoint>
          <Trackpoint>
            <Time>2022-06-16T12:10:10.000Z</Time>
            <Position>
              <LatitudeDegrees>36.853905580937862396240234375</LatitudeDegrees>
              <LongitudeDegrees>-4.37656522728502750396728515625</LongitudeDegrees>
            </Position>
            <AltitudeMeters>856.5999755859375</AltitudeMeters>
            <DistanceMeters>NAN</DistanceMeters>
          </Trackpoint>
          <Trackpoint>
            <Time>2022-06-16T12:10:20.000Z</Time>
            <Position>
              <LatitudeDegrees>36.8539469875395298004150390625</LatitudeDegrees>
              <LongitudeDegrees>-4.37643514014780521392822265625</LongitudeDegrees>
            </Position>
            <AltitudeMeters>858.4000244140625</AltitudeMeters>
            <DistanceMeters>NAN</DistanceMeters>
          </Trackpoint>
          <Trackpoint>
            <Time>2022-06-16T12:10:23.000Z</Time>
            <Position>
              <LatitudeDegrees>36.853966601192951202392578125</LatitudeDegrees>
              <LongitudeDegrees>-4.37640429474413394927978515625</LongitudeDegrees>
            </Position>
            <AltitudeMeters>859.20001220703125</AltitudeMeters>
            <DistanceMeters>NAN</DistanceMeters>
          </Trackpoint>
          <Trackpoint>
            <Time>2022-06-16T12:10:30.000Z</Time>
            <Position>
              <LatitudeDegrees>36.8539895676076412200927734375</LatitudeDegrees>
              <LongitudeDegrees>-4.3763118423521518707275390625</LongitudeDegrees>
            </Position>
            <AltitudeMeters>860.20001220703125</AltitudeMeters>
            <DistanceMeters>NAN</DistanceMeters>
          </Trackpoint>
          <Trackpoint>
            <Time>2022-06-16T12:10:40.000Z</Time>
            <Position>
              <LatitudeDegrees>36.85402871109545230865478515625</LatitudeDegrees>
              <LongitudeDegrees>-4.37616909854114055633544921875</LongitudeDegrees>
            </Position>
            <AltitudeMeters>861.4000244140625</AltitudeMeters>
            <DistanceMeters>NAN</DistanceMeters>
          </Trackpoint>
          <Trackpoint>
            <Time>2022-06-16T12:10:50.000Z</Time>
            <Position>
              <LatitudeDegrees>36.85406441800296306610107421875</LatitudeDegrees>
              <LongitudeDegrees>-4.37604554928839206695556640625</LongitudeDegrees>
            </Position>
            <AltitudeMeters>862.5999755859375</AltitudeMeters>
            <DistanceMeters>NAN</DistanceMeters>
          </Trackpoint>
          <Trackpoint>
            <Time>2022-06-16T12:11:00.000Z</Time>
            <Position>
              <LatitudeDegrees>36.85410104691982269287109375</LatitudeDegrees>
              <LongitudeDegrees>-4.37591143883764743804931640625</LongitudeDegrees>
            </Position>
            <AltitudeMeters>864</AltitudeMeters>
            <DistanceMeters>NAN</DistanceMeters>
          </Trackpoint>
          <Trackpoint>
            <Time>2022-06-16T12:11:10.000Z</Time>
            <Position>
              <LatitudeDegrees>36.854112111032009124755859375</LatitudeDegrees>
              <LongitudeDegrees>-4.37574178911745548248291015625</LongitudeDegrees>
            </Position>
            <AltitudeMeters>864.20001220703125</AltitudeMeters>
            <DistanceMeters>NAN</DistanceMeters>
          </Trackpoint>
          <Trackpoint>
            <Time>2022-06-16T12:11:20.000Z</Time>
            <Position>
              <LatitudeDegrees>36.85419752262532711029052734375</LatitudeDegrees>
              <LongitudeDegrees>-4.37562058679759502410888671875</LongitudeDegrees>
            </Position>
            <AltitudeMeters>865.20001220703125</AltitudeMeters>
            <DistanceMeters>NAN</DistanceMeters>
          </Trackpoint>
          <Trackpoint>
            <Time>2022-06-16T12:11:30.000Z</Time>
            <Position>
              <LatitudeDegrees>36.85422585345804691314697265625</LatitudeDegrees>
              <LongitudeDegrees>-4.375465773046016693115234375</LongitudeDegrees>
            </Position>
            <AltitudeMeters>864.79998779296875</AltitudeMeters>
            <DistanceMeters>NAN</DistanceMeters>
          </Trackpoint>
          <Trackpoint>
            <Time>2022-06-16T12:11:40.000Z</Time>
            <Position>
              <LatitudeDegrees>36.8542215786874294281005859375</LatitudeDegrees>
              <LongitudeDegrees>-4.375306181609630584716796875</LongitudeDegrees>
            </Position>
            <AltitudeMeters>863.5999755859375</AltitudeMeters>
            <DistanceMeters>NAN</DistanceMeters>
          </Trackpoint>
          <Trackpoint>
            <Time>2022-06-16T12:11:50.000Z</Time>
            <Position>
              <LatitudeDegrees>36.8542001210153102874755859375</LatitudeDegrees>
              <LongitudeDegrees>-4.37516511417925357818603515625</LongitudeDegrees>
            </Position>
            <AltitudeMeters>862.5999755859375</AltitudeMeters>
            <DistanceMeters>NAN</DistanceMeters>
          </Trackpoint>
          <Trackpoint>
            <Time>2022-06-16T12:12:00.000Z</Time>
            <Position>
              <LatitudeDegrees>36.85421495698392391204833984375</LatitudeDegrees>
              <LongitudeDegrees>-4.37502765096724033355712890625</LongitudeDegrees>
            </Position>
            <AltitudeMeters>862.4000244140625</AltitudeMeters>
            <DistanceMeters>NAN</DistanceMeters>
          </Trackpoint>
          <Trackpoint>
            <Time>2022-06-16T12:12:10.000Z</Time>
            <Position>
              <LatitudeDegrees>36.85422300361096858978271484375</LatitudeDegrees>
              <LongitudeDegrees>-4.3748828954994678497314453125</LongitudeDegrees>
            </Position>
            <AltitudeMeters>862.20001220703125</AltitudeMeters>
            <DistanceMeters>NAN</DistanceMeters>
          </Trackpoint>
          <Trackpoint>
            <Time>2022-06-16T12:12:20.000Z</Time>
            <Position>
              <LatitudeDegrees>36.85425460338592529296875</LatitudeDegrees>
              <LongitudeDegrees>-4.374853558838367462158203125</LongitudeDegrees>
            </Position>
            <AltitudeMeters>862.79998779296875</AltitudeMeters>
            <DistanceMeters>NAN</DistanceMeters>
          </Trackpoint>
          <Trackpoint>
            <Time>2022-06-16T12:12:30.000Z</Time>
            <Position>
              <LatitudeDegrees>36.8543359078466892242431640625</LatitudeDegrees>
              <LongitudeDegrees>-4.3748210370540618896484375</LongitudeDegrees>
            </Position>
            <AltitudeMeters>863.79998779296875</AltitudeMeters>
            <DistanceMeters>NAN</DistanceMeters>
          </Trackpoint>
          <Trackpoint>
            <Time>2022-06-16T12:12:40.000Z</Time>
            <Position>
              <LatitudeDegrees>36.85442693531513214111328125</LatitudeDegrees>
              <LongitudeDegrees>-4.37491290271282196044921875</LongitudeDegrees>
            </Position>
            <AltitudeMeters>865.20001220703125</AltitudeMeters>
            <DistanceMeters>NAN</DistanceMeters>
          </Trackpoint>
          <Trackpoint>
            <Time>2022-06-16T12:12:50.000Z</Time>
            <Position>
              <LatitudeDegrees>36.85447923839092254638671875</LatitudeDegrees>
              <LongitudeDegrees>-4.37505547888576984405517578125</LongitudeDegrees>
            </Position>
            <AltitudeMeters>866.5999755859375</AltitudeMeters>
            <DistanceMeters>NAN</DistanceMeters>
          </Trackpoint>
          <Trackpoint>
            <Time>2022-06-16T12:12:55.000Z</Time>
            <Position>
              <LatitudeDegrees>36.85450027696788311004638671875</LatitudeDegrees>
              <LongitudeDegrees>-4.37513544224202632904052734375</LongitudeDegrees>
            </Position>
            <AltitudeMeters>867.4000244140625</AltitudeMeters>
            <DistanceMeters>NAN</DistanceMeters>
          </Trackpoint>
          <Trackpoint>
            <Time>2022-06-16T12:13:00.000Z</Time>
            <Position>
              <LatitudeDegrees>36.8545226566493511199951171875</LatitudeDegrees>
              <LongitudeDegrees>-4.37521121464669704437255859375</LongitudeDegrees>
            </Position>
            <AltitudeMeters>868.4000244140625</AltitudeMeters>
            <DistanceMeters>NAN</DistanceMeters>
          </Trackpoint>
          <Trackpoint>
            <Time>2022-06-16T12:13:10.000Z</Time>
            <Position>
              <LatitudeDegrees>36.854561381042003631591796875</LatitudeDegrees>
              <LongitudeDegrees>-4.37536217272281646728515625</LongitudeDegrees>
            </Position>
            <AltitudeMeters>870</AltitudeMeters>
            <DistanceMeters>NAN</DistanceMeters>
          </Trackpoint>
          <Trackpoint>
            <Time>2022-06-16T12:13:20.000Z</Time>
            <Position>
              <LatitudeDegrees>36.85457604937255382537841796875</LatitudeDegrees>
              <LongitudeDegrees>-4.37550030648708343505859375</LongitudeDegrees>
            </Position>
            <AltitudeMeters>871</AltitudeMeters>
            <DistanceMeters>NAN</DistanceMeters>
          </Trackpoint>
          <Trackpoint>
            <Time>2022-06-16T12:13:30.000Z</Time>
            <Position>
              <LatitudeDegrees>36.854595243930816650390625</LatitudeDegrees>
              <LongitudeDegrees>-4.37565595842897891998291015625</LongitudeDegrees>
            </Position>
            <AltitudeMeters>872.20001220703125</AltitudeMeters>
            <DistanceMeters>NAN</DistanceMeters>
          </Trackpoint>
          <Trackpoint>
            <Time>2022-06-16T12:13:40.000Z</Time>
            <Position>
              <LatitudeDegrees>36.85458174906671047210693359375</LatitudeDegrees>
              <LongitudeDegrees>-4.37578386627137660980224609375</LongitudeDegrees>
            </Position>
            <AltitudeMeters>873</AltitudeMeters>
            <DistanceMeters>NAN</DistanceMeters>
          </Trackpoint>
          <Trackpoint>
            <Time>2022-06-16T12:13:50.000Z</Time>
            <Position>
              <LatitudeDegrees>36.8545920588076114654541015625</LatitudeDegrees>
              <LongitudeDegrees>-4.375924430787563323974609375</LongitudeDegrees>
            </Position>
            <AltitudeMeters>872.5999755859375</AltitudeMeters>
            <DistanceMeters>NAN</DistanceMeters>
          </Trackpoint>
          <Trackpoint>
            <Time>2022-06-16T12:14:00.000Z</Time>
            <Position>
              <LatitudeDegrees>36.85458895750343799591064453125</LatitudeDegrees>
              <LongitudeDegrees>-4.3760727904736995697021484375</LongitudeDegrees>
            </Position>
            <AltitudeMeters>872.20001220703125</AltitudeMeters>
            <DistanceMeters>NAN</DistanceMeters>
          </Trackpoint>
          <Trackpoint>
            <Time>2022-06-16T12:14:10.000Z</Time>
            <Position>
              <LatitudeDegrees>36.8545912206172943115234375</LatitudeDegrees>
              <LongitudeDegrees>-4.37621788121759891510009765625</LongitudeDegrees>
            </Position>
            <AltitudeMeters>871.5999755859375</AltitudeMeters>
            <DistanceMeters>NAN</DistanceMeters>
          </Trackpoint>
          <Trackpoint>
            <Time>2022-06-16T12:14:20.000Z</Time>
            <Position>
              <LatitudeDegrees>36.85460454784333705902099609375</LatitudeDegrees>
              <LongitudeDegrees>-4.37634109519422054290771484375</LongitudeDegrees>
            </Position>
            <AltitudeMeters>871.20001220703125</AltitudeMeters>
            <DistanceMeters>NAN</DistanceMeters>
          </Trackpoint>
          <Trackpoint>
            <Time>2022-06-16T12:14:30.000Z</Time>
            <Position>
              <LatitudeDegrees>36.8546094931662082672119140625</LatitudeDegrees>
              <LongitudeDegrees>-4.37646917067468166351318359375</LongitudeDegrees>
            </Position>
            <AltitudeMeters>871.5999755859375</AltitudeMeters>
            <DistanceMeters>NAN</DistanceMeters>
          </Trackpoint>
          <Trackpoint>
            <Time>2022-06-16T12:14:40.000Z</Time>
            <Position>
              <LatitudeDegrees>36.85461862944066524505615234375</LatitudeDegrees>
              <LongitudeDegrees>-4.37659439630806446075439453125</LongitudeDegrees>
            </Position>
            <AltitudeMeters>872.20001220703125</AltitudeMeters>
            <DistanceMeters>NAN</DistanceMeters>
          </Trackpoint>
          <Trackpoint>
            <Time>2022-06-16T12:14:50.000Z</Time>
            <Position>
              <LatitudeDegrees>36.85460706241428852081298828125</LatitudeDegrees>
              <LongitudeDegrees>-4.37674996443092823028564453125</LongitudeDegrees>
            </Position>
            <AltitudeMeters>873</AltitudeMeters>
            <DistanceMeters>NAN</DistanceMeters>
          </Trackpoint>
          <Trackpoint>
            <Time>2022-06-16T12:14:53.000Z</Time>
            <Position>
              <LatitudeDegrees>36.85460723005235195159912109375</LatitudeDegrees>
              <LongitudeDegrees>-4.37679313123226165771484375</LongitudeDegrees>
            </Position>
            <AltitudeMeters>873.4000244140625</AltitudeMeters>
            <DistanceMeters>NAN</DistanceMeters>
          </Trackpoint>
          <Trackpoint>
            <Time>2022-06-16T12:15:00.000Z</Time>
            <Position>
              <LatitudeDegrees>36.8546145223081111907958984375</LatitudeDegrees>
              <LongitudeDegrees>-4.37689094804227352142333984375</LongitudeDegrees>
            </Position>
            <AltitudeMeters>874.4000244140625</AltitudeMeters>
            <DistanceMeters>NAN</DistanceMeters>
          </Trackpoint>
          <Trackpoint>
            <Time>2022-06-16T12:15:10.000Z</Time>
            <Position>
              <LatitudeDegrees>36.85465157032012939453125</LatitudeDegrees>
              <LongitudeDegrees>-4.37703964300453662872314453125</LongitudeDegrees>
            </Position>
            <AltitudeMeters>875.20001220703125</AltitudeMeters>
            <DistanceMeters>NAN</DistanceMeters>
          </Trackpoint>
          <Trackpoint>
            <Time>2022-06-16T12:15:20.000Z</Time>
            <Position>
              <LatitudeDegrees>36.8547114171087741851806640625</LatitudeDegrees>
              <LongitudeDegrees>-4.3771781958639621734619140625</LongitudeDegrees>
            </Position>
            <AltitudeMeters>877.79998779296875</AltitudeMeters>
            <DistanceMeters>NAN</DistanceMeters>
          </Trackpoint>
          <Trackpoint>
            <Time>2022-06-16T12:15:27.000Z</Time>
            <Position>
              <LatitudeDegrees>36.8547516502439975738525390625</LatitudeDegrees>
              <LongitudeDegrees>-4.37727383337914943695068359375</LongitudeDegrees>
            </Position>
            <AltitudeMeters>879.4000244140625</AltitudeMeters>
            <DistanceMeters>NAN</DistanceMeters>
          </Trackpoint>
          <Trackpoint>
            <Time>2022-06-16T12:15:30.000Z</Time>
            <Position>
              <LatitudeDegrees>36.854775287210941314697265625</LatitudeDegrees>
              <LongitudeDegrees>-4.3772975541651248931884765625</LongitudeDegrees>
            </Position>
            <AltitudeMeters>880.20001220703125</AltitudeMeters>
            <DistanceMeters>NAN</DistanceMeters>
          </Trackpoint>
          <Trackpoint>
            <Time>2022-06-16T12:15:40.000Z</Time>
            <Position>
              <LatitudeDegrees>36.854834295809268951416015625</LatitudeDegrees>
              <LongitudeDegrees>-4.37741213478147983551025390625</LongitudeDegrees>
            </Position>
            <AltitudeMeters>882.4000244140625</AltitudeMeters>
            <DistanceMeters>NAN</DistanceMeters>
          </Trackpoint>
          <Trackpoint>
            <Time>2022-06-16T12:15:46.000Z</Time>
            <Position>
              <LatitudeDegrees>36.8548673205077648162841796875</LatitudeDegrees>
              <LongitudeDegrees>-4.37745672650635242462158203125</LongitudeDegrees>
            </Position>
            <AltitudeMeters>883</AltitudeMeters>
            <DistanceMeters>NAN</DistanceMeters>
          </Trackpoint>
          <Trackpoint>
            <Time>2022-06-16T12:15:50.000Z</Time>
            <Position>
              <LatitudeDegrees>36.8548874370753765106201171875</LatitudeDegrees>
              <LongitudeDegrees>-4.3774765916168689727783203125</LongitudeDegrees>
            </Position>
            <AltitudeMeters>883.4000244140625</AltitudeMeters>
            <DistanceMeters>NAN</DistanceMeters>
          </Trackpoint>
          <Trackpoint>
            <Time>2022-06-16T12:16:00.000Z</Time>
            <Position>
              <LatitudeDegrees>36.8549667298793792724609375</LatitudeDegrees>
              <LongitudeDegrees>-4.37753886915743350982666015625</LongitudeDegrees>
            </Position>
            <AltitudeMeters>884</AltitudeMeters>
            <DistanceMeters>NAN</DistanceMeters>
          </Trackpoint>
          <Trackpoint>
            <Time>2022-06-16T12:16:06.000Z</Time>
            <Position>
              <LatitudeDegrees>36.8550175242125988006591796875</LatitudeDegrees>
              <LongitudeDegrees>-4.37757843174040317535400390625</LongitudeDegrees>
            </Position>
            <AltitudeMeters>884.79998779296875</AltitudeMeters>
            <DistanceMeters>NAN</DistanceMeters>
          </Trackpoint>
          <Trackpoint>
            <Time>2022-06-16T12:16:10.000Z</Time>
            <Position>
              <LatitudeDegrees>36.855046860873699188232421875</LatitudeDegrees>
              <LongitudeDegrees>-4.377609193325042724609375</LongitudeDegrees>
            </Position>
            <AltitudeMeters>885.5999755859375</AltitudeMeters>
            <DistanceMeters>NAN</DistanceMeters>
          </Trackpoint>
          <Trackpoint>
            <Time>2022-06-16T12:16:20.000Z</Time>
            <Position>
              <LatitudeDegrees>36.85513545759022235870361328125</LatitudeDegrees>
              <LongitudeDegrees>-4.377662837505340576171875</LongitudeDegrees>
            </Position>
            <AltitudeMeters>886.79998779296875</AltitudeMeters>
            <DistanceMeters>NAN</DistanceMeters>
          </Trackpoint>
          <Trackpoint>
            <Time>2022-06-16T12:16:30.000Z</Time>
            <Position>
              <LatitudeDegrees>36.8552267365157604217529296875</LatitudeDegrees>
              <LongitudeDegrees>-4.3776995502412319183349609375</LongitudeDegrees>
            </Position>
            <AltitudeMeters>887.5999755859375</AltitudeMeters>
            <DistanceMeters>NAN</DistanceMeters>
          </Trackpoint>
          <Trackpoint>
            <Time>2022-06-16T12:16:40.000Z</Time>
            <Position>
              <LatitudeDegrees>36.85530938208103179931640625</LatitudeDegrees>
              <LongitudeDegrees>-4.3777334131300449371337890625</LongitudeDegrees>
            </Position>
            <AltitudeMeters>888.5999755859375</AltitudeMeters>
            <DistanceMeters>NAN</DistanceMeters>
          </Trackpoint>
          <Trackpoint>
            <Time>2022-06-16T12:16:48.000Z</Time>
            <Position>
              <LatitudeDegrees>36.85538255609571933746337890625</LatitudeDegrees>
              <LongitudeDegrees>-4.3777984566986560821533203125</LongitudeDegrees>
            </Position>
            <AltitudeMeters>889.5999755859375</AltitudeMeters>
            <DistanceMeters>NAN</DistanceMeters>
          </Trackpoint>
          <Trackpoint>
            <Time>2022-06-16T12:16:50.000Z</Time>
            <Position>
              <LatitudeDegrees>36.855399571359157562255859375</LatitudeDegrees>
              <LongitudeDegrees>-4.37782485969364643096923828125</LongitudeDegrees>
            </Position>
            <AltitudeMeters>889.5999755859375</AltitudeMeters>
            <DistanceMeters>NAN</DistanceMeters>
          </Trackpoint>
          <Trackpoint>
            <Time>2022-06-16T12:17:00.000Z</Time>
            <Position>
              <LatitudeDegrees>36.85549403540790081024169921875</LatitudeDegrees>
              <LongitudeDegrees>-4.37792711891233921051025390625</LongitudeDegrees>
            </Position>
            <AltitudeMeters>889.20001220703125</AltitudeMeters>
            <DistanceMeters>NAN</DistanceMeters>
          </Trackpoint>
          <Trackpoint>
            <Time>2022-06-16T12:17:10.000Z</Time>
            <Position>
              <LatitudeDegrees>36.85558137483894824981689453125</LatitudeDegrees>
              <LongitudeDegrees>-4.37803356908261775970458984375</LongitudeDegrees>
            </Position>
            <AltitudeMeters>888.79998779296875</AltitudeMeters>
            <DistanceMeters>NAN</DistanceMeters>
          </Trackpoint>
          <Trackpoint>
            <Time>2022-06-16T12:17:20.000Z</Time>
            <Position>
              <LatitudeDegrees>36.85568246059119701385498046875</LatitudeDegrees>
              <LongitudeDegrees>-4.378136582672595977783203125</LongitudeDegrees>
            </Position>
            <AltitudeMeters>886.79998779296875</AltitudeMeters>
            <DistanceMeters>NAN</DistanceMeters>
          </Trackpoint>
          <Trackpoint>
            <Time>2022-06-16T12:17:30.000Z</Time>
            <Position>
              <LatitudeDegrees>36.85578002594411373138427734375</LatitudeDegrees>
              <LongitudeDegrees>-4.37823322601616382598876953125</LongitudeDegrees>
            </Position>
            <AltitudeMeters>885.4000244140625</AltitudeMeters>
            <DistanceMeters>NAN</DistanceMeters>
          </Trackpoint>
          <Trackpoint>
            <Time>2022-06-16T12:17:36.000Z</Time>
            <Position>
              <LatitudeDegrees>36.85581824742257595062255859375</LatitudeDegrees>
              <LongitudeDegrees>-4.378309585154056549072265625</LongitudeDegrees>
            </Position>
            <AltitudeMeters>885.20001220703125</AltitudeMeters>
            <DistanceMeters>NAN</DistanceMeters>
          </Trackpoint>
          <Trackpoint>
            <Time>2022-06-16T12:17:40.000Z</Time>
            <Position>
              <LatitudeDegrees>36.85583149082958698272705078125</LatitudeDegrees>
              <LongitudeDegrees>-4.37834680080413818359375</LongitudeDegrees>
            </Position>
            <AltitudeMeters>884.20001220703125</AltitudeMeters>
            <DistanceMeters>NAN</DistanceMeters>
          </Trackpoint>
          <Trackpoint>
            <Time>2022-06-16T12:17:48.000Z</Time>
            <Position>
              <LatitudeDegrees>36.855914890766143798828125</LatitudeDegrees>
              <LongitudeDegrees>-4.378402791917324066162109375</LongitudeDegrees>
            </Position>
            <AltitudeMeters>883.4000244140625</AltitudeMeters>
            <DistanceMeters>NAN</DistanceMeters>
          </Trackpoint>
          <Trackpoint>
            <Time>2022-06-16T12:17:50.000Z</Time>
            <Position>
              <LatitudeDegrees>36.85592989437282085418701171875</LatitudeDegrees>
              <LongitudeDegrees>-4.3784205615520477294921875</LongitudeDegrees>
            </Position>
            <AltitudeMeters>883.20001220703125</AltitudeMeters>
            <DistanceMeters>NAN</DistanceMeters>
          </Trackpoint>
          <Trackpoint>
            <Time>2022-06-16T12:17:51.000Z</Time>
            <Position>
              <LatitudeDegrees>36.8559388630092144012451171875</LatitudeDegrees>
              <LongitudeDegrees>-4.3784297816455364227294921875</LongitudeDegrees>
            </Position>
            <AltitudeMeters>883.20001220703125</AltitudeMeters>
            <DistanceMeters>NAN</DistanceMeters>
          </Trackpoint>
          <Trackpoint>
            <Time>2022-06-16T12:17:56.000Z</Time>
            <Position>
              <LatitudeDegrees>36.85598957352340221405029296875</LatitudeDegrees>
              <LongitudeDegrees>-4.37848635949194431304931640625</LongitudeDegrees>
            </Position>
            <AltitudeMeters>882.5999755859375</AltitudeMeters>
            <DistanceMeters>NAN</DistanceMeters>
          </Trackpoint>
          <Trackpoint>
            <Time>2022-06-16T12:18:00.000Z</Time>
            <Position>
              <LatitudeDegrees>36.8560235202312469482421875</LatitudeDegrees>
              <LongitudeDegrees>-4.37852625735104084014892578125</LongitudeDegrees>
            </Position>
            <AltitudeMeters>882.5999755859375</AltitudeMeters>
            <DistanceMeters>NAN</DistanceMeters>
          </Trackpoint>
          <Trackpoint>
            <Time>2022-06-16T12:18:10.000Z</Time>
            <Position>
              <LatitudeDegrees>36.85610826127231121063232421875</LatitudeDegrees>
              <LongitudeDegrees>-4.3786244094371795654296875</LongitudeDegrees>
            </Position>
            <AltitudeMeters>883.4000244140625</AltitudeMeters>
            <DistanceMeters>NAN</DistanceMeters>
          </Trackpoint>
          <Trackpoint>
            <Time>2022-06-16T12:18:15.000Z</Time>
            <Position>
              <LatitudeDegrees>36.856151930987834930419921875</LatitudeDegrees>
              <LongitudeDegrees>-4.3786916323006153106689453125</LongitudeDegrees>
            </Position>
            <AltitudeMeters>883.79998779296875</AltitudeMeters>
            <DistanceMeters>NAN</DistanceMeters>
          </Trackpoint>
          <Trackpoint>
            <Time>2022-06-16T12:18:20.000Z</Time>
            <Position>
              <LatitudeDegrees>36.856186799705028533935546875</LatitudeDegrees>
              <LongitudeDegrees>-4.37875843606889247894287109375</LongitudeDegrees>
            </Position>
            <AltitudeMeters>884.20001220703125</AltitudeMeters>
            <DistanceMeters>NAN</DistanceMeters>
          </Trackpoint>
          <Trackpoint>
            <Time>2022-06-16T12:18:30.000Z</Time>
            <Position>
              <LatitudeDegrees>36.856279335916042327880859375</LatitudeDegrees>
              <LongitudeDegrees>-4.37889271415770053863525390625</LongitudeDegrees>
            </Position>
            <AltitudeMeters>884.20001220703125</AltitudeMeters>
            <DistanceMeters>NAN</DistanceMeters>
          </Trackpoint>
          <Trackpoint>
            <Time>2022-06-16T12:18:37.000Z</Time>
            <Position>
              <LatitudeDegrees>36.8563432060182094573974609375</LatitudeDegrees>
              <LongitudeDegrees>-4.37897804193198680877685546875</LongitudeDegrees>
            </Position>
            <AltitudeMeters>883.20001220703125</AltitudeMeters>
            <DistanceMeters>NAN</DistanceMeters>
          </Trackpoint>
          <Trackpoint>
            <Time>2022-06-16T12:18:40.000Z</Time>
            <Position>
              <LatitudeDegrees>36.856372542679309844970703125</LatitudeDegrees>
              <LongitudeDegrees>-4.379002265632152557373046875</LongitudeDegrees>
            </Position>
            <AltitudeMeters>883.4000244140625</AltitudeMeters>
            <DistanceMeters>NAN</DistanceMeters>
          </Trackpoint>
          <Trackpoint>
            <Time>2022-06-16T12:18:42.000Z</Time>
            <Position>
              <LatitudeDegrees>36.8563921563327312469482421875</LatitudeDegrees>
              <LongitudeDegrees>-4.37901726923882961273193359375</LongitudeDegrees>
            </Position>
            <AltitudeMeters>883.5999755859375</AltitudeMeters>
            <DistanceMeters>NAN</DistanceMeters>
          </Trackpoint>
          <Trackpoint>
            <Time>2022-06-16T12:18:45.000Z</Time>
            <Position>
              <LatitudeDegrees>36.8564166314899921417236328125</LatitudeDegrees>
              <LongitudeDegrees>-4.379038475453853607177734375</LongitudeDegrees>
            </Position>
            <AltitudeMeters>883.79998779296875</AltitudeMeters>
            <DistanceMeters>NAN</DistanceMeters>
          </Trackpoint>
          <Trackpoint>
            <Time>2022-06-16T12:18:50.000Z</Time>
            <Position>
              <LatitudeDegrees>36.8564595468342304229736328125</LatitudeDegrees>
              <LongitudeDegrees>-4.3790839053690433502197265625</LongitudeDegrees>
            </Position>
            <AltitudeMeters>884</AltitudeMeters>
            <DistanceMeters>NAN</DistanceMeters>
          </Trackpoint>
          <Trackpoint>
            <Time>2022-06-16T12:18:55.000Z</Time>
            <Position>
              <LatitudeDegrees>36.85650623403489589691162109375</LatitudeDegrees>
              <LongitudeDegrees>-4.37914484180510044097900390625</LongitudeDegrees>
            </Position>
            <AltitudeMeters>884.20001220703125</AltitudeMeters>
            <DistanceMeters>NAN</DistanceMeters>
          </Trackpoint>
          <Trackpoint>
            <Time>2022-06-16T12:19:00.000Z</Time>
            <Position>
              <LatitudeDegrees>36.8565537594258785247802734375</LatitudeDegrees>
              <LongitudeDegrees>-4.3792039342224597930908203125</LongitudeDegrees>
            </Position>
            <AltitudeMeters>883.5999755859375</AltitudeMeters>
            <DistanceMeters>NAN</DistanceMeters>
          </Trackpoint>
          <Trackpoint>
            <Time>2022-06-16T12:19:10.000Z</Time>
            <Position>
              <LatitudeDegrees>36.85663850046694278717041015625</LatitudeDegrees>
              <LongitudeDegrees>-4.3793191015720367431640625</LongitudeDegrees>
            </Position>
            <AltitudeMeters>882.79998779296875</AltitudeMeters>
            <DistanceMeters>NAN</DistanceMeters>
          </Trackpoint>
          <Trackpoint>
            <Time>2022-06-16T12:19:20.000Z</Time>
            <Position>
              <LatitudeDegrees>36.85671888291835784912109375</LatitudeDegrees>
              <LongitudeDegrees>-4.37945254147052764892578125</LongitudeDegrees>
            </Position>
            <AltitudeMeters>882.20001220703125</AltitudeMeters>
            <DistanceMeters>NAN</DistanceMeters>
          </Trackpoint>
          <Trackpoint>
            <Time>2022-06-16T12:19:30.000Z</Time>
            <Position>
              <LatitudeDegrees>36.856831870973110198974609375</LatitudeDegrees>
              <LongitudeDegrees>-4.3795449100434780120849609375</LongitudeDegrees>
            </Position>
            <AltitudeMeters>882.5999755859375</AltitudeMeters>
            <DistanceMeters>NAN</DistanceMeters>
          </Trackpoint>
          <Trackpoint>
            <Time>2022-06-16T12:19:37.000Z</Time>
            <Position>
              <LatitudeDegrees>36.8569114990532398223876953125</LatitudeDegrees>
              <LongitudeDegrees>-4.379596710205078125</LongitudeDegrees>
            </Position>
            <AltitudeMeters>883</AltitudeMeters>
            <DistanceMeters>NAN</DistanceMeters>
          </Trackpoint>
          <Trackpoint>
            <Time>2022-06-16T12:19:40.000Z</Time>
            <Position>
              <LatitudeDegrees>36.85694552958011627197265625</LatitudeDegrees>
              <LongitudeDegrees>-4.37961959280073642730712890625</LongitudeDegrees>
            </Position>
            <AltitudeMeters>883.20001220703125</AltitudeMeters>
            <DistanceMeters>NAN</DistanceMeters>
          </Trackpoint>
          <Trackpoint>
            <Time>2022-06-16T12:19:50.000Z</Time>
            <Position>
              <LatitudeDegrees>36.8570561707019805908203125</LatitudeDegrees>
              <LongitudeDegrees>-4.37969637103378772735595703125</LongitudeDegrees>
            </Position>
            <AltitudeMeters>884.20001220703125</AltitudeMeters>
            <DistanceMeters>NAN</DistanceMeters>
          </Trackpoint>
          <Trackpoint>
            <Time>2022-06-16T12:20:00.000Z</Time>
            <Position>
              <LatitudeDegrees>36.85717527754604816436767578125</LatitudeDegrees>
              <LongitudeDegrees>-4.3797625042498111724853515625</LongitudeDegrees>
            </Position>
            <AltitudeMeters>886.20001220703125</AltitudeMeters>
            <DistanceMeters>NAN</DistanceMeters>
          </Trackpoint>
          <Trackpoint>
            <Time>2022-06-16T12:20:10.000Z</Time>
            <Position>
              <LatitudeDegrees>36.85728407464921474456787109375</LatitudeDegrees>
              <LongitudeDegrees>-4.37982863746583461761474609375</LongitudeDegrees>
            </Position>
            <AltitudeMeters>887.5999755859375</AltitudeMeters>
            <DistanceMeters>NAN</DistanceMeters>
          </Trackpoint>
          <Trackpoint>
            <Time>2022-06-16T12:20:20.000Z</Time>
            <Position>
              <LatitudeDegrees>36.85736739076673984527587890625</LatitudeDegrees>
              <LongitudeDegrees>-4.37994514591991901397705078125</LongitudeDegrees>
            </Position>
            <AltitudeMeters>886.5999755859375</AltitudeMeters>
            <DistanceMeters>NAN</DistanceMeters>
          </Trackpoint>
          <Trackpoint>
            <Time>2022-06-16T12:20:22.000Z</Time>
            <Position>
              <LatitudeDegrees>36.8573775328695774078369140625</LatitudeDegrees>
              <LongitudeDegrees>-4.37997029162943363189697265625</LongitudeDegrees>
            </Position>
            <AltitudeMeters>886.4000244140625</AltitudeMeters>
            <DistanceMeters>NAN</DistanceMeters>
          </Trackpoint>
          <Trackpoint>
            <Time>2022-06-16T12:20:25.000Z</Time>
            <Position>
              <LatitudeDegrees>36.85740242712199687957763671875</LatitudeDegrees>
              <LongitudeDegrees>-4.38000935129821300506591796875</LongitudeDegrees>
            </Position>
            <AltitudeMeters>886.20001220703125</AltitudeMeters>
            <DistanceMeters>NAN</DistanceMeters>
          </Trackpoint>
          <Trackpoint>
            <Time>2022-06-16T12:20:26.000Z</Time>
            <Position>
              <LatitudeDegrees>36.85740930028259754180908203125</LatitudeDegrees>
              <LongitudeDegrees>-4.38001974485814571380615234375</LongitudeDegrees>
            </Position>
            <AltitudeMeters>886.20001220703125</AltitudeMeters>
            <DistanceMeters>NAN</DistanceMeters>
          </Trackpoint>
          <Trackpoint>
            <Time>2022-06-16T12:20:28.000Z</Time>
            <Position>
              <LatitudeDegrees>36.85742086730897426605224609375</LatitudeDegrees>
              <LongitudeDegrees>-4.380042962729930877685546875</LongitudeDegrees>
            </Position>
            <AltitudeMeters>886.20001220703125</AltitudeMeters>
            <DistanceMeters>NAN</DistanceMeters>
          </Trackpoint>
          <Trackpoint>
            <Time>2022-06-16T12:20:30.000Z</Time>
            <Position>
              <LatitudeDegrees>36.85743126086890697479248046875</LatitudeDegrees>
              <LongitudeDegrees>-4.3800645880401134490966796875</LongitudeDegrees>
            </Position>
            <AltitudeMeters>886</AltitudeMeters>
            <DistanceMeters>NAN</DistanceMeters>
          </Trackpoint>
          <Trackpoint>
            <Time>2022-06-16T12:20:34.000Z</Time>
            <Position>
              <LatitudeDegrees>36.8574476055800914764404296875</LatitudeDegrees>
              <LongitudeDegrees>-4.38011077232658863067626953125</LongitudeDegrees>
            </Position>
            <AltitudeMeters>885.5999755859375</AltitudeMeters>
            <DistanceMeters>NAN</DistanceMeters>
          </Trackpoint>
          <Trackpoint>
            <Time>2022-06-16T12:20:40.000Z</Time>
            <Position>
              <LatitudeDegrees>36.8574620224535465240478515625</LatitudeDegrees>
              <LongitudeDegrees>-4.3801738880574703216552734375</LongitudeDegrees>
            </Position>
            <AltitudeMeters>884.4000244140625</AltitudeMeters>
            <DistanceMeters>NAN</DistanceMeters>
          </Trackpoint>
          <Trackpoint>
            <Time>2022-06-16T12:20:50.000Z</Time>
            <Position>
              <LatitudeDegrees>36.85748490504920482635498046875</LatitudeDegrees>
              <LongitudeDegrees>-4.3803204037249088287353515625</LongitudeDegrees>
            </Position>
            <AltitudeMeters>881.5999755859375</AltitudeMeters>
            <DistanceMeters>NAN</DistanceMeters>
          </Trackpoint>
          <Trackpoint>
            <Time>2022-06-16T12:21:00.000Z</Time>
            <Position>
              <LatitudeDegrees>36.8575096316635608673095703125</LatitudeDegrees>
              <LongitudeDegrees>-4.3804548494517803192138671875</LongitudeDegrees>
            </Position>
            <AltitudeMeters>880</AltitudeMeters>
            <DistanceMeters>NAN</DistanceMeters>
          </Trackpoint>
          <Trackpoint>
            <Time>2022-06-16T12:21:10.000Z</Time>
            <Position>
              <LatitudeDegrees>36.8575317598879337310791015625</LatitudeDegrees>
              <LongitudeDegrees>-4.38058250583708286285400390625</LongitudeDegrees>
            </Position>
            <AltitudeMeters>878.79998779296875</AltitudeMeters>
            <DistanceMeters>NAN</DistanceMeters>
          </Trackpoint>
          <Trackpoint>
            <Time>2022-06-16T12:21:20.000Z</Time>
            <Position>
              <LatitudeDegrees>36.85756419785320758819580078125</LatitudeDegrees>
              <LongitudeDegrees>-4.38072700984776020050048828125</LongitudeDegrees>
            </Position>
            <AltitudeMeters>879.20001220703125</AltitudeMeters>
            <DistanceMeters>NAN</DistanceMeters>
          </Trackpoint>
          <Trackpoint>
            <Time>2022-06-16T12:21:28.000Z</Time>
            <Position>
              <LatitudeDegrees>36.85758448205888271331787109375</LatitudeDegrees>
              <LongitudeDegrees>-4.38085173256695270538330078125</LongitudeDegrees>
            </Position>
            <AltitudeMeters>879.20001220703125</AltitudeMeters>
            <DistanceMeters>NAN</DistanceMeters>
          </Trackpoint>
          <Trackpoint>
            <Time>2022-06-16T12:21:30.000Z</Time>
            <Position>
              <LatitudeDegrees>36.85758900828659534454345703125</LatitudeDegrees>
              <LongitudeDegrees>-4.38088341616094112396240234375</LongitudeDegrees>
            </Position>
            <AltitudeMeters>879.4000244140625</AltitudeMeters>
            <DistanceMeters>NAN</DistanceMeters>
          </Trackpoint>
          <Trackpoint>
            <Time>2022-06-16T12:21:40.000Z</Time>
            <Position>
              <LatitudeDegrees>36.85764315538108348846435546875</LatitudeDegrees>
              <LongitudeDegrees>-4.38100947998464107513427734375</LongitudeDegrees>
            </Position>
            <AltitudeMeters>880</AltitudeMeters>
            <DistanceMeters>NAN</DistanceMeters>
          </Trackpoint>
          <Trackpoint>
            <Time>2022-06-16T12:21:50.000Z</Time>
            <Position>
              <LatitudeDegrees>36.857704930007457733154296875</LatitudeDegrees>
              <LongitudeDegrees>-4.381128586828708648681640625</LongitudeDegrees>
            </Position>
            <AltitudeMeters>880.5999755859375</AltitudeMeters>
            <DistanceMeters>NAN</DistanceMeters>
          </Trackpoint>
          <Trackpoint>
            <Time>2022-06-16T12:22:00.000Z</Time>
            <Position>
              <LatitudeDegrees>36.8577466718852519989013671875</LatitudeDegrees>
              <LongitudeDegrees>-4.38126814551651477813720703125</LongitudeDegrees>
            </Position>
            <AltitudeMeters>880</AltitudeMeters>
            <DistanceMeters>NAN</DistanceMeters>
          </Trackpoint>
          <Trackpoint>
            <Time>2022-06-16T12:22:10.000Z</Time>
            <Position>
              <LatitudeDegrees>36.8577723205089569091796875</LatitudeDegrees>
              <LongitudeDegrees>-4.38138783909380435943603515625</LongitudeDegrees>
            </Position>
            <AltitudeMeters>879.20001220703125</AltitudeMeters>
            <DistanceMeters>NAN</DistanceMeters>
          </Trackpoint>
          <Trackpoint>
            <Time>2022-06-16T12:22:20.000Z</Time>
            <Position>
              <LatitudeDegrees>36.85779252089560031890869140625</LatitudeDegrees>
              <LongitudeDegrees>-4.38153267838060855865478515625</LongitudeDegrees>
            </Position>
            <AltitudeMeters>878.20001220703125</AltitudeMeters>
            <DistanceMeters>NAN</DistanceMeters>
          </Trackpoint>
          <Trackpoint>
            <Time>2022-06-16T12:22:29.000Z</Time>
            <Position>
              <LatitudeDegrees>36.85777592472732067108154296875</LatitudeDegrees>
              <LongitudeDegrees>-4.3816638551652431488037109375</LongitudeDegrees>
            </Position>
            <AltitudeMeters>877</AltitudeMeters>
            <DistanceMeters>NAN</DistanceMeters>
          </Trackpoint>
          <Trackpoint>
            <Time>2022-06-16T12:22:30.000Z</Time>
            <Position>
              <LatitudeDegrees>36.8577714823186397552490234375</LatitudeDegrees>
              <LongitudeDegrees>-4.3816729076206684112548828125</LongitudeDegrees>
            </Position>
            <AltitudeMeters>876.79998779296875</AltitudeMeters>
            <DistanceMeters>NAN</DistanceMeters>
          </Trackpoint>
          <Trackpoint>
            <Time>2022-06-16T12:22:40.000Z</Time>
            <Position>
              <LatitudeDegrees>36.85778816230595111846923828125</LatitudeDegrees>
              <LongitudeDegrees>-4.38183861784636974334716796875</LongitudeDegrees>
            </Position>
            <AltitudeMeters>877.20001220703125</AltitudeMeters>
            <DistanceMeters>NAN</DistanceMeters>
          </Trackpoint>
          <Trackpoint>
            <Time>2022-06-16T12:22:50.000Z</Time>
            <Position>
              <LatitudeDegrees>36.8578100390732288360595703125</LatitudeDegrees>
              <LongitudeDegrees>-4.38202251680195331573486328125</LongitudeDegrees>
            </Position>
            <AltitudeMeters>877.79998779296875</AltitudeMeters>
            <DistanceMeters>NAN</DistanceMeters>
          </Trackpoint>
          <Trackpoint>
            <Time>2022-06-16T12:23:00.000Z</Time>
            <Position>
              <LatitudeDegrees>36.857842393219470977783203125</LatitudeDegrees>
              <LongitudeDegrees>-4.38218596391379833221435546875</LongitudeDegrees>
            </Position>
            <AltitudeMeters>878.79998779296875</AltitudeMeters>
            <DistanceMeters>NAN</DistanceMeters>
          </Trackpoint>
          <Trackpoint>
            <Time>2022-06-16T12:23:10.000Z</Time>
            <Position>
              <LatitudeDegrees>36.85788564383983612060546875</LatitudeDegrees>
              <LongitudeDegrees>-4.3823635764420032501220703125</LongitudeDegrees>
            </Position>
            <AltitudeMeters>880.79998779296875</AltitudeMeters>
            <DistanceMeters>NAN</DistanceMeters>
          </Trackpoint>
          <Trackpoint>
            <Time>2022-06-16T12:23:20.000Z</Time>
            <Position>
              <LatitudeDegrees>36.85792529024183750152587890625</LatitudeDegrees>
              <LongitudeDegrees>-4.38250045292079448699951171875</LongitudeDegrees>
            </Position>
            <AltitudeMeters>883</AltitudeMeters>
            <DistanceMeters>NAN</DistanceMeters>
          </Trackpoint>
          <Trackpoint>
            <Time>2022-06-16T12:23:26.000Z</Time>
            <Position>
              <LatitudeDegrees>36.85791791416704654693603515625</LatitudeDegrees>
              <LongitudeDegrees>-4.3825748004019260406494140625</LongitudeDegrees>
            </Position>
            <AltitudeMeters>882.5999755859375</AltitudeMeters>
            <DistanceMeters>NAN</DistanceMeters>
          </Trackpoint>
          <Trackpoint>
            <Time>2022-06-16T12:23:30.000Z</Time>
            <Position>
              <LatitudeDegrees>36.8579079397022724151611328125</LatitudeDegrees>
              <LongitudeDegrees>-4.38263456337153911590576171875</LongitudeDegrees>
            </Position>
            <AltitudeMeters>882.20001220703125</AltitudeMeters>
            <DistanceMeters>NAN</DistanceMeters>
          </Trackpoint>
          <Trackpoint>
            <Time>2022-06-16T12:23:40.000Z</Time>
            <Position>
              <LatitudeDegrees>36.85788053087890148162841796875</LatitudeDegrees>
              <LongitudeDegrees>-4.38276397995650768280029296875</LongitudeDegrees>
            </Position>
            <AltitudeMeters>881.20001220703125</AltitudeMeters>
            <DistanceMeters>NAN</DistanceMeters>
          </Trackpoint>
          <Trackpoint>
            <Time>2022-06-16T12:23:50.000Z</Time>
            <Position>
              <LatitudeDegrees>36.85787248425185680389404296875</LatitudeDegrees>
              <LongitudeDegrees>-4.3829025328159332275390625</LongitudeDegrees>
            </Position>
            <AltitudeMeters>881.4000244140625</AltitudeMeters>
            <DistanceMeters>NAN</DistanceMeters>
          </Trackpoint>
          <Trackpoint>
            <Time>2022-06-16T12:23:59.000Z</Time>
            <Position>
              <LatitudeDegrees>36.857896037399768829345703125</LatitudeDegrees>
              <LongitudeDegrees>-4.38303119502961635589599609375</LongitudeDegrees>
            </Position>
            <AltitudeMeters>882.5999755859375</AltitudeMeters>
            <DistanceMeters>NAN</DistanceMeters>
          </Trackpoint>
          <Trackpoint>
            <Time>2022-06-16T12:24:00.000Z</Time>
            <Position>
              <LatitudeDegrees>36.8579042516648769378662109375</LatitudeDegrees>
              <LongitudeDegrees>-4.38304829411208629608154296875</LongitudeDegrees>
            </Position>
            <AltitudeMeters>882.5999755859375</AltitudeMeters>
            <DistanceMeters>NAN</DistanceMeters>
          </Trackpoint>
          <Trackpoint>
            <Time>2022-06-16T12:24:10.000Z</Time>
            <Position>
              <LatitudeDegrees>36.85799695551395416259765625</LatitudeDegrees>
              <LongitudeDegrees>-4.38314233906567096710205078125</LongitudeDegrees>
            </Position>
            <AltitudeMeters>885</AltitudeMeters>
            <DistanceMeters>NAN</DistanceMeters>
          </Trackpoint>
          <Trackpoint>
            <Time>2022-06-16T12:24:20.000Z</Time>
            <Position>
              <LatitudeDegrees>36.85809175483882427215576171875</LatitudeDegrees>
              <LongitudeDegrees>-4.3831796385347843170166015625</LongitudeDegrees>
            </Position>
            <AltitudeMeters>887</AltitudeMeters>
            <DistanceMeters>NAN</DistanceMeters>
          </Trackpoint>
          <Trackpoint>
            <Time>2022-06-16T12:24:30.000Z</Time>
            <Position>
              <LatitudeDegrees>36.85818043537437915802001953125</LatitudeDegrees>
              <LongitudeDegrees>-4.38324158079922199249267578125</LongitudeDegrees>
            </Position>
            <AltitudeMeters>888.20001220703125</AltitudeMeters>
            <DistanceMeters>NAN</DistanceMeters>
          </Trackpoint>
          <Trackpoint>
            <Time>2022-06-16T12:24:39.000Z</Time>
            <Position>
              <LatitudeDegrees>36.85826911590993404388427734375</LatitudeDegrees>
              <LongitudeDegrees>-4.38329975120723247528076171875</LongitudeDegrees>
            </Position>
            <AltitudeMeters>889.4000244140625</AltitudeMeters>
            <DistanceMeters>NAN</DistanceMeters>
          </Trackpoint>
          <Trackpoint>
            <Time>2022-06-16T12:24:40.000Z</Time>
            <Position>
              <LatitudeDegrees>36.8582780845463275909423828125</LatitudeDegrees>
              <LongitudeDegrees>-4.3833083845674991607666015625</LongitudeDegrees>
            </Position>
            <AltitudeMeters>889.5999755859375</AltitudeMeters>
            <DistanceMeters>NAN</DistanceMeters>
          </Trackpoint>
          <Trackpoint>
            <Time>2022-06-16T12:24:50.000Z</Time>
            <Position>
              <LatitudeDegrees>36.85838520526885986328125</LatitudeDegrees>
              <LongitudeDegrees>-4.38337317667901515960693359375</LongitudeDegrees>
            </Position>
            <AltitudeMeters>891</AltitudeMeters>
            <DistanceMeters>NAN</DistanceMeters>
          </Trackpoint>
          <Trackpoint>
            <Time>2022-06-16T12:25:00.000Z</Time>
            <Position>
              <LatitudeDegrees>36.8584616482257843017578125</LatitudeDegrees>
              <LongitudeDegrees>-4.38348918221890926361083984375</LongitudeDegrees>
            </Position>
            <AltitudeMeters>891</AltitudeMeters>
            <DistanceMeters>NAN</DistanceMeters>
          </Trackpoint>
          <Trackpoint>
            <Time>2022-06-16T12:25:10.000Z</Time>
            <Position>
              <LatitudeDegrees>36.85854546725749969482421875</LatitudeDegrees>
              <LongitudeDegrees>-4.38362765125930309295654296875</LongitudeDegrees>
            </Position>
            <AltitudeMeters>891.4000244140625</AltitudeMeters>
            <DistanceMeters>NAN</DistanceMeters>
          </Trackpoint>
          <Trackpoint>
            <Time>2022-06-16T12:25:13.000Z</Time>
            <Position>
              <LatitudeDegrees>36.85856834985315799713134765625</LatitudeDegrees>
              <LongitudeDegrees>-4.38365950249135494232177734375</LongitudeDegrees>
            </Position>
            <AltitudeMeters>891.4000244140625</AltitudeMeters>
            <DistanceMeters>NAN</DistanceMeters>
          </Trackpoint>
          <Trackpoint>
            <Time>2022-06-16T12:25:17.000Z</Time>
            <Position>
              <LatitudeDegrees>36.8586051464080810546875</LatitudeDegrees>
              <LongitudeDegrees>-4.38370660878717899322509765625</LongitudeDegrees>
            </Position>
            <AltitudeMeters>891.5999755859375</AltitudeMeters>
            <DistanceMeters>NAN</DistanceMeters>
          </Trackpoint>
          <Trackpoint>
            <Time>2022-06-16T12:25:20.000Z</Time>
            <Position>
              <LatitudeDegrees>36.85862618498504161834716796875</LatitudeDegrees>
              <LongitudeDegrees>-4.3837487697601318359375</LongitudeDegrees>
            </Position>
            <AltitudeMeters>892</AltitudeMeters>
            <DistanceMeters>NAN</DistanceMeters>
          </Trackpoint>
          <Trackpoint>
            <Time>2022-06-16T12:25:30.000Z</Time>
            <Position>
              <LatitudeDegrees>36.858720481395721435546875</LatitudeDegrees>
              <LongitudeDegrees>-4.38383284024894237518310546875</LongitudeDegrees>
            </Position>
            <AltitudeMeters>894.79998779296875</AltitudeMeters>
            <DistanceMeters>NAN</DistanceMeters>
          </Trackpoint>
          <Trackpoint>
            <Time>2022-06-16T12:25:40.000Z</Time>
            <Position>
              <LatitudeDegrees>36.858829446136951446533203125</LatitudeDegrees>
              <LongitudeDegrees>-4.38390140421688556671142578125</LongitudeDegrees>
            </Position>
            <AltitudeMeters>899.20001220703125</AltitudeMeters>
            <DistanceMeters>NAN</DistanceMeters>
          </Trackpoint>
          <Trackpoint>
            <Time>2022-06-16T12:25:49.000Z</Time>
            <Position>
              <LatitudeDegrees>36.858911253511905670166015625</LatitudeDegrees>
              <LongitudeDegrees>-4.38398153521120548248291015625</LongitudeDegrees>
            </Position>
            <AltitudeMeters>901.20001220703125</AltitudeMeters>
            <DistanceMeters>NAN</DistanceMeters>
          </Trackpoint>
          <Trackpoint>
            <Time>2022-06-16T12:25:50.000Z</Time>
            <Position>
              <LatitudeDegrees>36.8589184619486331939697265625</LatitudeDegrees>
              <LongitudeDegrees>-4.38399109058082103729248046875</LongitudeDegrees>
            </Position>
            <AltitudeMeters>901.4000244140625</AltitudeMeters>
            <DistanceMeters>NAN</DistanceMeters>
          </Trackpoint>
          <Trackpoint>
            <Time>2022-06-16T12:26:00.000Z</Time>
            <Position>
              <LatitudeDegrees>36.8589945696294307708740234375</LatitudeDegrees>
              <LongitudeDegrees>-4.3841046653687953948974609375</LongitudeDegrees>
            </Position>
            <AltitudeMeters>902</AltitudeMeters>
            <DistanceMeters>NAN</DistanceMeters>
          </Trackpoint>
          <Trackpoint>
            <Time>2022-06-16T12:26:10.000Z</Time>
            <Position>
              <LatitudeDegrees>36.8590596131980419158935546875</LatitudeDegrees>
              <LongitudeDegrees>-4.384242631494998931884765625</LongitudeDegrees>
            </Position>
            <AltitudeMeters>900.79998779296875</AltitudeMeters>
            <DistanceMeters>NAN</DistanceMeters>
          </Trackpoint>
          <Trackpoint>
            <Time>2022-06-16T12:26:20.000Z</Time>
            <Position>
              <LatitudeDegrees>36.8590864352881908416748046875</LatitudeDegrees>
              <LongitudeDegrees>-4.38435964286327362060546875</LongitudeDegrees>
            </Position>
            <AltitudeMeters>899.20001220703125</AltitudeMeters>
            <DistanceMeters>NAN</DistanceMeters>
          </Trackpoint>
          <Trackpoint>
            <Time>2022-06-16T12:26:30.000Z</Time>
            <Position>
              <LatitudeDegrees>36.85909775085747241973876953125</LatitudeDegrees>
              <LongitudeDegrees>-4.38442041166126728057861328125</LongitudeDegrees>
            </Position>
            <AltitudeMeters>899</AltitudeMeters>
            <DistanceMeters>NAN</DistanceMeters>
          </Trackpoint>
          <Trackpoint>
            <Time>2022-06-16T12:26:40.000Z</Time>
            <Position>
              <LatitudeDegrees>36.859096996486186981201171875</LatitudeDegrees>
              <LongitudeDegrees>-4.3844018876552581787109375</LongitudeDegrees>
            </Position>
            <AltitudeMeters>899</AltitudeMeters>
            <DistanceMeters>NAN</DistanceMeters>
          </Trackpoint>
          <Trackpoint>
            <Time>2022-06-16T12:26:48.000Z</Time>
            <Position>
              <LatitudeDegrees>36.85909439809620380401611328125</LatitudeDegrees>
              <LongitudeDegrees>-4.3843209184706211090087890625</LongitudeDegrees>
            </Position>
            <AltitudeMeters>900.20001220703125</AltitudeMeters>
            <DistanceMeters>NAN</DistanceMeters>
          </Trackpoint>
          <Trackpoint>
            <Time>2022-06-16T12:26:50.000Z</Time>
            <Position>
              <LatitudeDegrees>36.859093643724918365478515625</LatitudeDegrees>
              <LongitudeDegrees>-4.3842924199998378753662109375</LongitudeDegrees>
            </Position>
            <AltitudeMeters>900.5999755859375</AltitudeMeters>
            <DistanceMeters>NAN</DistanceMeters>
          </Trackpoint>
          <Trackpoint>
            <Time>2022-06-16T12:27:00.000Z</Time>
            <Position>
              <LatitudeDegrees>36.85906053520739078521728515625</LatitudeDegrees>
              <LongitudeDegrees>-4.38413224183022975921630859375</LongitudeDegrees>
            </Position>
            <AltitudeMeters>903.20001220703125</AltitudeMeters>
            <DistanceMeters>NAN</DistanceMeters>
          </Trackpoint>
          <Trackpoint>
            <Time>2022-06-16T12:27:10.000Z</Time>
            <Position>
              <LatitudeDegrees>36.8589814938604831695556640625</LatitudeDegrees>
              <LongitudeDegrees>-4.38402210362255573272705078125</LongitudeDegrees>
            </Position>
            <AltitudeMeters>903.79998779296875</AltitudeMeters>
            <DistanceMeters>NAN</DistanceMeters>
          </Trackpoint>
          <Trackpoint>
            <Time>2022-06-16T12:27:20.000Z</Time>
            <Position>
              <LatitudeDegrees>36.85888250358402729034423828125</LatitudeDegrees>
              <LongitudeDegrees>-4.38391464762389659881591796875</LongitudeDegrees>
            </Position>
            <AltitudeMeters>901.5999755859375</AltitudeMeters>
            <DistanceMeters>NAN</DistanceMeters>
          </Trackpoint>
          <Trackpoint>
            <Time>2022-06-16T12:27:30.000Z</Time>
            <Position>
              <LatitudeDegrees>36.8587746284902095794677734375</LatitudeDegrees>
              <LongitudeDegrees>-4.38382747583091259002685546875</LongitudeDegrees>
            </Position>
            <AltitudeMeters>897.5999755859375</AltitudeMeters>
            <DistanceMeters>NAN</DistanceMeters>
          </Trackpoint>
          <Trackpoint>
            <Time>2022-06-16T12:27:37.000Z</Time>
            <Position>
              <LatitudeDegrees>36.85869893990457057952880859375</LatitudeDegrees>
              <LongitudeDegrees>-4.38379093073308467864990234375</LongitudeDegrees>
            </Position>
            <AltitudeMeters>894.4000244140625</AltitudeMeters>
            <DistanceMeters>NAN</DistanceMeters>
          </Trackpoint>
          <Trackpoint>
            <Time>2022-06-16T12:27:40.000Z</Time>
            <Position>
              <LatitudeDegrees>36.85867111198604106903076171875</LatitudeDegrees>
              <LongitudeDegrees>-4.3837608397006988525390625</LongitudeDegrees>
            </Position>
            <AltitudeMeters>893.5999755859375</AltitudeMeters>
            <DistanceMeters>NAN</DistanceMeters>
          </Trackpoint>
          <Trackpoint>
            <Time>2022-06-16T12:27:50.000Z</Time>
            <Position>
              <LatitudeDegrees>36.8585734628140926361083984375</LatitudeDegrees>
              <LongitudeDegrees>-4.3836507014930248260498046875</LongitudeDegrees>
            </Position>
            <AltitudeMeters>891.79998779296875</AltitudeMeters>
            <DistanceMeters>NAN</DistanceMeters>
          </Trackpoint>
          <Trackpoint>
            <Time>2022-06-16T12:28:00.000Z</Time>
            <Position>
              <LatitudeDegrees>36.85848654247820377349853515625</LatitudeDegrees>
              <LongitudeDegrees>-4.38352036289870738983154296875</LongitudeDegrees>
            </Position>
            <AltitudeMeters>891.20001220703125</AltitudeMeters>
            <DistanceMeters>NAN</DistanceMeters>
          </Trackpoint>
          <Trackpoint>
            <Time>2022-06-16T12:28:10.000Z</Time>
            <Position>
              <LatitudeDegrees>36.85838880948722362518310546875</LatitudeDegrees>
              <LongitudeDegrees>-4.383410476148128509521484375</LongitudeDegrees>
            </Position>
            <AltitudeMeters>890.4000244140625</AltitudeMeters>
            <DistanceMeters>NAN</DistanceMeters>
          </Trackpoint>
          <Trackpoint>
            <Time>2022-06-16T12:28:17.000Z</Time>
            <Position>
              <LatitudeDegrees>36.8583183176815509796142578125</LatitudeDegrees>
              <LongitudeDegrees>-4.3833425827324390411376953125</LongitudeDegrees>
            </Position>
            <AltitudeMeters>890</AltitudeMeters>
            <DistanceMeters>NAN</DistanceMeters>
          </Trackpoint>
          <Trackpoint>
            <Time>2022-06-16T12:28:20.000Z</Time>
            <Position>
              <LatitudeDegrees>36.8582881428301334381103515625</LatitudeDegrees>
              <LongitudeDegrees>-4.3833167664706707000732421875</LongitudeDegrees>
            </Position>
            <AltitudeMeters>889.5999755859375</AltitudeMeters>
            <DistanceMeters>NAN</DistanceMeters>
          </Trackpoint>
          <Trackpoint>
            <Time>2022-06-16T12:28:27.000Z</Time>
            <Position>
              <LatitudeDegrees>36.858209855854511260986328125</LatitudeDegrees>
              <LongitudeDegrees>-4.3832592666149139404296875</LongitudeDegrees>
            </Position>
            <AltitudeMeters>888.79998779296875</AltitudeMeters>
            <DistanceMeters>NAN</DistanceMeters>
          </Trackpoint>
          <Trackpoint>
            <Time>2022-06-16T12:28:30.000Z</Time>
            <Position>
              <LatitudeDegrees>36.85817641206085681915283203125</LatitudeDegrees>
              <LongitudeDegrees>-4.38323923386633396148681640625</LongitudeDegrees>
            </Position>
            <AltitudeMeters>888.20001220703125</AltitudeMeters>
            <DistanceMeters>NAN</DistanceMeters>
          </Trackpoint>
          <Trackpoint>
            <Time>2022-06-16T12:28:40.000Z</Time>
            <Position>
              <LatitudeDegrees>36.85807398520410060882568359375</LatitudeDegrees>
              <LongitudeDegrees>-4.3831734359264373779296875</LongitudeDegrees>
            </Position>
            <AltitudeMeters>886.5999755859375</AltitudeMeters>
            <DistanceMeters>NAN</DistanceMeters>
          </Trackpoint>
          <Trackpoint>
            <Time>2022-06-16T12:28:48.000Z</Time>
            <Position>
              <LatitudeDegrees>36.8580799363553524017333984375</LatitudeDegrees>
              <LongitudeDegrees>-4.3831306882202625274658203125</LongitudeDegrees>
            </Position>
            <AltitudeMeters>887.20001220703125</AltitudeMeters>
            <DistanceMeters>NAN</DistanceMeters>
          </Trackpoint>
          <Trackpoint>
            <Time>2022-06-16T12:28:50.000Z</Time>
            <Position>
              <LatitudeDegrees>36.85808270238339900970458984375</LatitudeDegrees>
              <LongitudeDegrees>-4.3831216357648372650146484375</LongitudeDegrees>
            </Position>
            <AltitudeMeters>887.4000244140625</AltitudeMeters>
            <DistanceMeters>NAN</DistanceMeters>
          </Trackpoint>
          <Trackpoint>
            <Time>2022-06-16T12:28:59.000Z</Time>
            <Position>
              <LatitudeDegrees>36.858105920255184173583984375</LatitudeDegrees>
              <LongitudeDegrees>-4.383081234991550445556640625</LongitudeDegrees>
            </Position>
            <AltitudeMeters>888.4000244140625</AltitudeMeters>
            <DistanceMeters>NAN</DistanceMeters>
          </Trackpoint>
          <Trackpoint>
            <Time>2022-06-16T12:29:00.000Z</Time>
            <Position>
              <LatitudeDegrees>36.85811522416770458221435546875</LatitudeDegrees>
              <LongitudeDegrees>-4.3830780498683452606201171875</LongitudeDegrees>
            </Position>
            <AltitudeMeters>888.5999755859375</AltitudeMeters>
            <DistanceMeters>NAN</DistanceMeters>
          </Trackpoint>
          <Trackpoint>
            <Time>2022-06-16T12:29:10.000Z</Time>
            <Position>
              <LatitudeDegrees>36.85820105485618114471435546875</LatitudeDegrees>
              <LongitudeDegrees>-4.3830485455691814422607421875</LongitudeDegrees>
            </Position>
            <AltitudeMeters>890.79998779296875</AltitudeMeters>
            <DistanceMeters>NAN</DistanceMeters>
          </Trackpoint>
          <Trackpoint>
            <Time>2022-06-16T12:29:11.000Z</Time>
            <Position>
              <LatitudeDegrees>36.858211867511272430419921875</LatitudeDegrees>
              <LongitudeDegrees>-4.38304745592176914215087890625</LongitudeDegrees>
            </Position>
            <AltitudeMeters>891.20001220703125</AltitudeMeters>
            <DistanceMeters>NAN</DistanceMeters>
          </Trackpoint>
          <Trackpoint>
            <Time>2022-06-16T12:29:20.000Z</Time>
            <Position>
              <LatitudeDegrees>36.8582899868488311767578125</LatitudeDegrees>
              <LongitudeDegrees>-4.3830720148980617523193359375</LongitudeDegrees>
            </Position>
            <AltitudeMeters>892.79998779296875</AltitudeMeters>
            <DistanceMeters>NAN</DistanceMeters>
          </Trackpoint>
          <Trackpoint>
            <Time>2022-06-16T12:29:30.000Z</Time>
            <Position>
              <LatitudeDegrees>36.858388893306255340576171875</LatitudeDegrees>
              <LongitudeDegrees>-4.38309389166533946990966796875</LongitudeDegrees>
            </Position>
            <AltitudeMeters>895</AltitudeMeters>
            <DistanceMeters>NAN</DistanceMeters>
          </Trackpoint>
          <Trackpoint>
            <Time>2022-06-16T12:29:36.000Z</Time>
            <Position>
              <LatitudeDegrees>36.85844530351459980010986328125</LatitudeDegrees>
              <LongitudeDegrees>-4.3831011839210987091064453125</LongitudeDegrees>
            </Position>
            <AltitudeMeters>896.20001220703125</AltitudeMeters>
            <DistanceMeters>NAN</DistanceMeters>
          </Trackpoint>
          <Trackpoint>
            <Time>2022-06-16T12:29:40.000Z</Time>
            <Position>
              <LatitudeDegrees>36.858474053442478179931640625</LatitudeDegrees>
              <LongitudeDegrees>-4.38310126774013042449951171875</LongitudeDegrees>
            </Position>
            <AltitudeMeters>896.79998779296875</AltitudeMeters>
            <DistanceMeters>NAN</DistanceMeters>
          </Trackpoint>
          <Trackpoint>
            <Time>2022-06-16T12:29:47.000Z</Time>
            <Position>
              <LatitudeDegrees>36.85853197239339351654052734375</LatitudeDegrees>
              <LongitudeDegrees>-4.3831028603017330169677734375</LongitudeDegrees>
            </Position>
            <AltitudeMeters>898</AltitudeMeters>
            <DistanceMeters>NAN</DistanceMeters>
          </Trackpoint>
          <Trackpoint>
            <Time>2022-06-16T12:29:50.000Z</Time>
            <Position>
              <LatitudeDegrees>36.8585577048361301422119140625</LatitudeDegrees>
              <LongitudeDegrees>-4.38309322111308574676513671875</LongitudeDegrees>
            </Position>
            <AltitudeMeters>898.5999755859375</AltitudeMeters>
            <DistanceMeters>NAN</DistanceMeters>
          </Trackpoint>
          <Trackpoint>
            <Time>2022-06-16T12:30:00.000Z</Time>
            <Position>
              <LatitudeDegrees>36.8586512468755245208740234375</LatitudeDegrees>
              <LongitudeDegrees>-4.38306891359388828277587890625</LongitudeDegrees>
            </Position>
            <AltitudeMeters>901</AltitudeMeters>
            <DistanceMeters>NAN</DistanceMeters>
          </Trackpoint>
          <Trackpoint>
            <Time>2022-06-16T12:30:10.000Z</Time>
            <Position>
              <LatitudeDegrees>36.85874529182910919189453125</LatitudeDegrees>
              <LongitudeDegrees>-4.38303890638053417205810546875</LongitudeDegrees>
            </Position>
            <AltitudeMeters>903.79998779296875</AltitudeMeters>
            <DistanceMeters>NAN</DistanceMeters>
          </Trackpoint>
          <Trackpoint>
            <Time>2022-06-16T12:30:20.000Z</Time>
            <Position>
              <LatitudeDegrees>36.8588185496628284454345703125</LatitudeDegrees>
              <LongitudeDegrees>-4.382975958287715911865234375</LongitudeDegrees>
            </Position>
            <AltitudeMeters>906</AltitudeMeters>
            <DistanceMeters>NAN</DistanceMeters>
          </Trackpoint>
          <Trackpoint>
            <Time>2022-06-16T12:30:25.000Z</Time>
            <Position>
              <LatitudeDegrees>36.858837492763996124267578125</LatitudeDegrees>
              <LongitudeDegrees>-4.3829258345067501068115234375</LongitudeDegrees>
            </Position>
            <AltitudeMeters>906.20001220703125</AltitudeMeters>
            <DistanceMeters>NAN</DistanceMeters>
          </Trackpoint>
          <Trackpoint>
            <Time>2022-06-16T12:30:30.000Z</Time>
            <Position>
              <LatitudeDegrees>36.85888183303177356719970703125</LatitudeDegrees>
              <LongitudeDegrees>-4.38287235796451568603515625</LongitudeDegrees>
            </Position>
            <AltitudeMeters>907.4000244140625</AltitudeMeters>
            <DistanceMeters>NAN</DistanceMeters>
          </Trackpoint>
          <Trackpoint>
            <Time>2022-06-16T12:30:40.000Z</Time>
            <Position>
              <LatitudeDegrees>36.85896129347383975982666015625</LatitudeDegrees>
              <LongitudeDegrees>-4.382775463163852691650390625</LongitudeDegrees>
            </Position>
            <AltitudeMeters>909.4000244140625</AltitudeMeters>
            <DistanceMeters>NAN</DistanceMeters>
          </Trackpoint>
          <Trackpoint>
            <Time>2022-06-16T12:30:50.000Z</Time>
            <Position>
              <LatitudeDegrees>36.85906338505446910858154296875</LatitudeDegrees>
              <LongitudeDegrees>-4.3827109225094318389892578125</LongitudeDegrees>
            </Position>
            <AltitudeMeters>910.4000244140625</AltitudeMeters>
            <DistanceMeters>NAN</DistanceMeters>
          </Trackpoint>
          <Trackpoint>
            <Time>2022-06-16T12:31:00.000Z</Time>
            <Position>
              <LatitudeDegrees>36.85916128568351268768310546875</LatitudeDegrees>
              <LongitudeDegrees>-4.3827095814049243927001953125</LongitudeDegrees>
            </Position>
            <AltitudeMeters>911.79998779296875</AltitudeMeters>
            <DistanceMeters>NAN</DistanceMeters>
          </Trackpoint>
          <Trackpoint>
            <Time>2022-06-16T12:31:10.000Z</Time>
            <Position>
              <LatitudeDegrees>36.8592689931392669677734375</LatitudeDegrees>
              <LongitudeDegrees>-4.38277185894548892974853515625</LongitudeDegrees>
            </Position>
            <AltitudeMeters>914.4000244140625</AltitudeMeters>
            <DistanceMeters>NAN</DistanceMeters>
          </Trackpoint>
          <Trackpoint>
            <Time>2022-06-16T12:31:20.000Z</Time>
            <Position>
              <LatitudeDegrees>36.85932909138500690460205078125</LatitudeDegrees>
              <LongitudeDegrees>-4.3828819133341312408447265625</LongitudeDegrees>
            </Position>
            <AltitudeMeters>916</AltitudeMeters>
            <DistanceMeters>NAN</DistanceMeters>
          </Trackpoint>
          <Trackpoint>
            <Time>2022-06-16T12:31:30.000Z</Time>
            <Position>
              <LatitudeDegrees>36.85937619768083095550537109375</LatitudeDegrees>
              <LongitudeDegrees>-4.383014850318431854248046875</LongitudeDegrees>
            </Position>
            <AltitudeMeters>917.79998779296875</AltitudeMeters>
            <DistanceMeters>NAN</DistanceMeters>
          </Trackpoint>
          <Trackpoint>
            <Time>2022-06-16T12:31:40.000Z</Time>
            <Position>
              <LatitudeDegrees>36.8594203703105449676513671875</LatitudeDegrees>
              <LongitudeDegrees>-4.383139573037624359130859375</LongitudeDegrees>
            </Position>
            <AltitudeMeters>918.4000244140625</AltitudeMeters>
            <DistanceMeters>NAN</DistanceMeters>
          </Trackpoint>
          <Trackpoint>
            <Time>2022-06-16T12:31:50.000Z</Time>
            <Position>
              <LatitudeDegrees>36.85945766977965831756591796875</LatitudeDegrees>
              <LongitudeDegrees>-4.38328181393444538116455078125</LongitudeDegrees>
            </Position>
            <AltitudeMeters>919.5999755859375</AltitudeMeters>
            <DistanceMeters>NAN</DistanceMeters>
          </Trackpoint>
          <Trackpoint>
            <Time>2022-06-16T12:32:00.000Z</Time>
            <Position>
              <LatitudeDegrees>36.8595092184841632843017578125</LatitudeDegrees>
              <LongitudeDegrees>-4.383416511118412017822265625</LongitudeDegrees>
            </Position>
            <AltitudeMeters>921.79998779296875</AltitudeMeters>
            <DistanceMeters>NAN</DistanceMeters>
          </Trackpoint>
          <Trackpoint>
            <Time>2022-06-16T12:32:10.000Z</Time>
            <Position>
              <LatitudeDegrees>36.85958323068916797637939453125</LatitudeDegrees>
              <LongitudeDegrees>-4.38351809978485107421875</LongitudeDegrees>
            </Position>
            <AltitudeMeters>924.20001220703125</AltitudeMeters>
            <DistanceMeters>NAN</DistanceMeters>
          </Trackpoint>
          <Trackpoint>
            <Time>2022-06-16T12:32:20.000Z</Time>
            <Position>
              <LatitudeDegrees>36.85967425815761089324951171875</LatitudeDegrees>
              <LongitudeDegrees>-4.383606277406215667724609375</LongitudeDegrees>
            </Position>
            <AltitudeMeters>926</AltitudeMeters>
            <DistanceMeters>NAN</DistanceMeters>
          </Trackpoint>
          <Trackpoint>
            <Time>2022-06-16T12:32:30.000Z</Time>
            <Position>
              <LatitudeDegrees>36.8597828038036823272705078125</LatitudeDegrees>
              <LongitudeDegrees>-4.383686743676662445068359375</LongitudeDegrees>
            </Position>
            <AltitudeMeters>927.79998779296875</AltitudeMeters>
            <DistanceMeters>NAN</DistanceMeters>
          </Trackpoint>
          <Trackpoint>
            <Time>2022-06-16T12:32:39.000Z</Time>
            <Position>
              <LatitudeDegrees>36.8598850630223751068115234375</LatitudeDegrees>
              <LongitudeDegrees>-4.3837412260472774505615234375</LongitudeDegrees>
            </Position>
            <AltitudeMeters>930.5999755859375</AltitudeMeters>
            <DistanceMeters>NAN</DistanceMeters>
          </Trackpoint>
          <Trackpoint>
            <Time>2022-06-16T12:32:40.000Z</Time>
            <Position>
              <LatitudeDegrees>36.85989872552454471588134765625</LatitudeDegrees>
              <LongitudeDegrees>-4.3837474286556243896484375</LongitudeDegrees>
            </Position>
            <AltitudeMeters>930.79998779296875</AltitudeMeters>
            <DistanceMeters>NAN</DistanceMeters>
          </Trackpoint>
          <Trackpoint>
            <Time>2022-06-16T12:32:50.000Z</Time>
            <Position>
              <LatitudeDegrees>36.8599930219352245330810546875</LatitudeDegrees>
              <LongitudeDegrees>-4.38380199484527111053466796875</LongitudeDegrees>
            </Position>
            <AltitudeMeters>935</AltitudeMeters>
            <DistanceMeters>NAN</DistanceMeters>
          </Trackpoint>
          <Trackpoint>
            <Time>2022-06-16T12:33:00.000Z</Time>
            <Position>
              <LatitudeDegrees>36.8600798584520816802978515625</LatitudeDegrees>
              <LongitudeDegrees>-4.38384021632373332977294921875</LongitudeDegrees>
            </Position>
            <AltitudeMeters>938.79998779296875</AltitudeMeters>
            <DistanceMeters>NAN</DistanceMeters>
          </Trackpoint>
          <Trackpoint>
            <Time>2022-06-16T12:33:10.000Z</Time>
            <Position>
              <LatitudeDegrees>36.8601827882230281829833984375</LatitudeDegrees>
              <LongitudeDegrees>-4.383877180516719818115234375</LongitudeDegrees>
            </Position>
            <AltitudeMeters>940.5999755859375</AltitudeMeters>
            <DistanceMeters>NAN</DistanceMeters>
          </Trackpoint>
          <Trackpoint>
            <Time>2022-06-16T12:33:20.000Z</Time>
            <Position>
              <LatitudeDegrees>36.86029317788779735565185546875</LatitudeDegrees>
              <LongitudeDegrees>-4.38389402814209461212158203125</LongitudeDegrees>
            </Position>
            <AltitudeMeters>941.4000244140625</AltitudeMeters>
            <DistanceMeters>NAN</DistanceMeters>
          </Trackpoint>
          <Trackpoint>
            <Time>2022-06-16T12:33:30.000Z</Time>
            <Position>
              <LatitudeDegrees>36.86040750704705715179443359375</LatitudeDegrees>
              <LongitudeDegrees>-4.3839306570589542388916015625</LongitudeDegrees>
            </Position>
            <AltitudeMeters>942.20001220703125</AltitudeMeters>
            <DistanceMeters>NAN</DistanceMeters>
          </Trackpoint>
          <Trackpoint>
            <Time>2022-06-16T12:33:40.000Z</Time>
            <Position>
              <LatitudeDegrees>36.86052250675857067108154296875</LatitudeDegrees>
              <LongitudeDegrees>-4.38395437784492969512939453125</LongitudeDegrees>
            </Position>
            <AltitudeMeters>940.4000244140625</AltitudeMeters>
            <DistanceMeters>NAN</DistanceMeters>
          </Trackpoint>
          <Trackpoint>
            <Time>2022-06-16T12:33:45.000Z</Time>
            <Position>
              <LatitudeDegrees>36.8605743907392024993896484375</LatitudeDegrees>
              <LongitudeDegrees>-4.38396510668098926544189453125</LongitudeDegrees>
            </Position>
            <AltitudeMeters>939.5999755859375</AltitudeMeters>
            <DistanceMeters>NAN</DistanceMeters>
          </Trackpoint>
          <Trackpoint>
            <Time>2022-06-16T12:33:50.000Z</Time>
            <Position>
              <LatitudeDegrees>36.86063381843268871307373046875</LatitudeDegrees>
              <LongitudeDegrees>-4.38396058045327663421630859375</LongitudeDegrees>
            </Position>
            <AltitudeMeters>938.4000244140625</AltitudeMeters>
            <DistanceMeters>NAN</DistanceMeters>
          </Trackpoint>
          <Trackpoint>
            <Time>2022-06-16T12:34:00.000Z</Time>
            <Position>
              <LatitudeDegrees>36.86074445955455303192138671875</LatitudeDegrees>
              <LongitudeDegrees>-4.3839477561414241790771484375</LongitudeDegrees>
            </Position>
            <AltitudeMeters>937.5999755859375</AltitudeMeters>
            <DistanceMeters>NAN</DistanceMeters>
          </Trackpoint>
          <Trackpoint>
            <Time>2022-06-16T12:34:04.000Z</Time>
            <Position>
              <LatitudeDegrees>36.86079609207808971405029296875</LatitudeDegrees>
              <LongitudeDegrees>-4.38395085744559764862060546875</LongitudeDegrees>
            </Position>
            <AltitudeMeters>937.79998779296875</AltitudeMeters>
            <DistanceMeters>NAN</DistanceMeters>
          </Trackpoint>
          <Trackpoint>
            <Time>2022-06-16T12:34:10.000Z</Time>
            <Position>
              <LatitudeDegrees>36.8608637340366840362548828125</LatitudeDegrees>
              <LongitudeDegrees>-4.38395253382623195648193359375</LongitudeDegrees>
            </Position>
            <AltitudeMeters>937.20001220703125</AltitudeMeters>
            <DistanceMeters>NAN</DistanceMeters>
          </Trackpoint>
          <Trackpoint>
            <Time>2022-06-16T12:34:20.000Z</Time>
            <Position>
              <LatitudeDegrees>36.860949732363224029541015625</LatitudeDegrees>
              <LongitudeDegrees>-4.38395789824426174163818359375</LongitudeDegrees>
            </Position>
            <AltitudeMeters>936</AltitudeMeters>
            <DistanceMeters>NAN</DistanceMeters>
          </Trackpoint>
          <Trackpoint>
            <Time>2022-06-16T12:34:30.000Z</Time>
            <Position>
              <LatitudeDegrees>36.86103413812816143035888671875</LatitudeDegrees>
              <LongitudeDegrees>-4.3839859776198863983154296875</LongitudeDegrees>
            </Position>
            <AltitudeMeters>937.4000244140625</AltitudeMeters>
            <DistanceMeters>NAN</DistanceMeters>
          </Trackpoint>
          <Trackpoint>
            <Time>2022-06-16T12:34:40.000Z</Time>
            <Position>
              <LatitudeDegrees>36.86114092357456684112548828125</LatitudeDegrees>
              <LongitudeDegrees>-4.38400022685527801513671875</LongitudeDegrees>
            </Position>
            <AltitudeMeters>937.79998779296875</AltitudeMeters>
            <DistanceMeters>NAN</DistanceMeters>
          </Trackpoint>
          <Trackpoint>
            <Time>2022-06-16T12:34:50.000Z</Time>
            <Position>
              <LatitudeDegrees>36.861173696815967559814453125</LatitudeDegrees>
              <LongitudeDegrees>-4.38398773781955242156982421875</LongitudeDegrees>
            </Position>
            <AltitudeMeters>937.79998779296875</AltitudeMeters>
            <DistanceMeters>NAN</DistanceMeters>
          </Trackpoint>
          <Trackpoint>
            <Time>2022-06-16T12:35:00.000Z</Time>
            <Position>
              <LatitudeDegrees>36.86117998324334621429443359375</LatitudeDegrees>
              <LongitudeDegrees>-4.383981786668300628662109375</LongitudeDegrees>
            </Position>
            <AltitudeMeters>937.79998779296875</AltitudeMeters>
            <DistanceMeters>NAN</DistanceMeters>
          </Trackpoint>
          <Trackpoint>
            <Time>2022-06-16T12:35:02.000Z</Time>
            <Position>
              <LatitudeDegrees>36.8611814081668853759765625</LatitudeDegrees>
              <LongitudeDegrees>-4.383979104459285736083984375</LongitudeDegrees>
            </Position>
            <AltitudeMeters>937.79998779296875</AltitudeMeters>
            <DistanceMeters>NAN</DistanceMeters>
          </Trackpoint>
          <Trackpoint>
            <Time>2022-06-16T12:35:10.000Z</Time>
            <Position>
              <LatitudeDegrees>36.8612016923725605010986328125</LatitudeDegrees>
              <LongitudeDegrees>-4.3840030767023563385009765625</LongitudeDegrees>
            </Position>
            <AltitudeMeters>937.4000244140625</AltitudeMeters>
            <DistanceMeters>NAN</DistanceMeters>
          </Trackpoint>
          <Trackpoint>
            <Time>2022-06-16T12:35:15.000Z</Time>
            <Position>
              <LatitudeDegrees>36.86122499406337738037109375</LatitudeDegrees>
              <LongitudeDegrees>-4.3840500153601169586181640625</LongitudeDegrees>
            </Position>
            <AltitudeMeters>937</AltitudeMeters>
            <DistanceMeters>NAN</DistanceMeters>
          </Trackpoint>
          <Trackpoint>
            <Time>2022-06-16T12:35:16.000Z</Time>
            <Position>
              <LatitudeDegrees>36.8612350523471832275390625</LatitudeDegrees>
              <LongitudeDegrees>-4.384058229625225067138671875</LongitudeDegrees>
            </Position>
            <AltitudeMeters>937</AltitudeMeters>
            <DistanceMeters>NAN</DistanceMeters>
          </Trackpoint>
          <Trackpoint>
            <Time>2022-06-16T12:35:20.000Z</Time>
            <Position>
              <LatitudeDegrees>36.8612731061875820159912109375</LatitudeDegrees>
              <LongitudeDegrees>-4.38408714719116687774658203125</LongitudeDegrees>
            </Position>
            <AltitudeMeters>937</AltitudeMeters>
            <DistanceMeters>NAN</DistanceMeters>
          </Trackpoint>
          <Trackpoint>
            <Time>2022-06-16T12:35:28.000Z</Time>
            <Position>
              <LatitudeDegrees>36.86132281087338924407958984375</LatitudeDegrees>
              <LongitudeDegrees>-4.38410156406462192535400390625</LongitudeDegrees>
            </Position>
            <AltitudeMeters>936.79998779296875</AltitudeMeters>
            <DistanceMeters>NAN</DistanceMeters>
          </Trackpoint>
          <Trackpoint>
            <Time>2022-06-16T12:35:30.000Z</Time>
            <Position>
              <LatitudeDegrees>36.861340664327144622802734375</LatitudeDegrees>
              <LongitudeDegrees>-4.38410173170268535614013671875</LongitudeDegrees>
            </Position>
            <AltitudeMeters>936.79998779296875</AltitudeMeters>
            <DistanceMeters>NAN</DistanceMeters>
          </Trackpoint>
          <Trackpoint>
            <Time>2022-06-16T12:35:32.000Z</Time>
            <Position>
              <LatitudeDegrees>36.861352734267711639404296875</LatitudeDegrees>
              <LongitudeDegrees>-4.38410080969333648681640625</LongitudeDegrees>
            </Position>
            <AltitudeMeters>936.79998779296875</AltitudeMeters>
            <DistanceMeters>NAN</DistanceMeters>
          </Trackpoint>
          <Trackpoint>
            <Time>2022-06-16T12:35:40.000Z</Time>
            <Position>
              <LatitudeDegrees>36.86143781058490276336669921875</LatitudeDegrees>
              <LongitudeDegrees>-4.38411363400518894195556640625</LongitudeDegrees>
            </Position>
            <AltitudeMeters>936.4000244140625</AltitudeMeters>
            <DistanceMeters>NAN</DistanceMeters>
          </Trackpoint>
          <Trackpoint>
            <Time>2022-06-16T12:35:50.000Z</Time>
            <Position>
              <LatitudeDegrees>36.8615399859845638275146484375</LatitudeDegrees>
              <LongitudeDegrees>-4.38415772281587123870849609375</LongitudeDegrees>
            </Position>
            <AltitudeMeters>935.5999755859375</AltitudeMeters>
            <DistanceMeters>NAN</DistanceMeters>
          </Trackpoint>
          <Trackpoint>
            <Time>2022-06-16T12:36:00.000Z</Time>
            <Position>
              <LatitudeDegrees>36.86163780279457569122314453125</LatitudeDegrees>
              <LongitudeDegrees>-4.38423634506762027740478515625</LongitudeDegrees>
            </Position>
            <AltitudeMeters>934.20001220703125</AltitudeMeters>
            <DistanceMeters>NAN</DistanceMeters>
          </Trackpoint>
          <Trackpoint>
            <Time>2022-06-16T12:36:10.000Z</Time>
            <Position>
              <LatitudeDegrees>36.86173318885266780853271484375</LatitudeDegrees>
              <LongitudeDegrees>-4.38434313051402568817138671875</LongitudeDegrees>
            </Position>
            <AltitudeMeters>930.4000244140625</AltitudeMeters>
            <DistanceMeters>NAN</DistanceMeters>
          </Trackpoint>
          <Trackpoint>
            <Time>2022-06-16T12:36:20.000Z</Time>
            <Position>
              <LatitudeDegrees>36.86181013472378253936767578125</LatitudeDegrees>
              <LongitudeDegrees>-4.38442896120250225067138671875</LongitudeDegrees>
            </Position>
            <AltitudeMeters>927.5999755859375</AltitudeMeters>
            <DistanceMeters>NAN</DistanceMeters>
          </Trackpoint>
          <Trackpoint>
            <Time>2022-06-16T12:36:30.000Z</Time>
            <Position>
              <LatitudeDegrees>36.8619007430970668792724609375</LatitudeDegrees>
              <LongitudeDegrees>-4.3844898976385593414306640625</LongitudeDegrees>
            </Position>
            <AltitudeMeters>925.5999755859375</AltitudeMeters>
            <DistanceMeters>NAN</DistanceMeters>
          </Trackpoint>
          <Trackpoint>
            <Time>2022-06-16T12:36:36.000Z</Time>
            <Position>
              <LatitudeDegrees>36.86195983551442623138427734375</LatitudeDegrees>
              <LongitudeDegrees>-4.384502805769443511962890625</LongitudeDegrees>
            </Position>
            <AltitudeMeters>925.4000244140625</AltitudeMeters>
            <DistanceMeters>NAN</DistanceMeters>
          </Trackpoint>
          <Trackpoint>
            <Time>2022-06-16T12:36:39.000Z</Time>
            <Position>
              <LatitudeDegrees>36.86198397539556026458740234375</LatitudeDegrees>
              <LongitudeDegrees>-4.38451328314840793609619140625</LongitudeDegrees>
            </Position>
            <AltitudeMeters>925.4000244140625</AltitudeMeters>
            <DistanceMeters>NAN</DistanceMeters>
          </Trackpoint>
          <Trackpoint>
            <Time>2022-06-16T12:36:40.000Z</Time>
            <Position>
              <LatitudeDegrees>36.8619929440319538116455078125</LatitudeDegrees>
              <LongitudeDegrees>-4.384514205157756805419921875</LongitudeDegrees>
            </Position>
            <AltitudeMeters>925.5999755859375</AltitudeMeters>
            <DistanceMeters>NAN</DistanceMeters>
          </Trackpoint>
          <Trackpoint>
            <Time>2022-06-16T12:36:47.000Z</Time>
            <Position>
              <LatitudeDegrees>36.86205455102026462554931640625</LatitudeDegrees>
              <LongitudeDegrees>-4.3845183961093425750732421875</LongitudeDegrees>
            </Position>
            <AltitudeMeters>926</AltitudeMeters>
            <DistanceMeters>NAN</DistanceMeters>
          </Trackpoint>
          <Trackpoint>
            <Time>2022-06-16T12:36:50.000Z</Time>
            <Position>
              <LatitudeDegrees>36.86207785271108150482177734375</LatitudeDegrees>
              <LongitudeDegrees>-4.38452166505157947540283203125</LongitudeDegrees>
            </Position>
            <AltitudeMeters>925.79998779296875</AltitudeMeters>
            <DistanceMeters>NAN</DistanceMeters>
          </Trackpoint>
          <Trackpoint>
            <Time>2022-06-16T12:37:00.000Z</Time>
            <Position>
              <LatitudeDegrees>36.862182877957820892333984375</LatitudeDegrees>
              <LongitudeDegrees>-4.3845190666615962982177734375</LongitudeDegrees>
            </Position>
            <AltitudeMeters>925.4000244140625</AltitudeMeters>
            <DistanceMeters>NAN</DistanceMeters>
          </Trackpoint>
          <Trackpoint>
            <Time>2022-06-16T12:37:10.000Z</Time>
            <Position>
              <LatitudeDegrees>36.86229226179420948028564453125</LatitudeDegrees>
              <LongitudeDegrees>-4.38450179994106292724609375</LongitudeDegrees>
            </Position>
            <AltitudeMeters>925.5999755859375</AltitudeMeters>
            <DistanceMeters>NAN</DistanceMeters>
          </Trackpoint>
          <Trackpoint>
            <Time>2022-06-16T12:37:20.000Z</Time>
            <Position>
              <LatitudeDegrees>36.86238773167133331298828125</LatitudeDegrees>
              <LongitudeDegrees>-4.38444413244724273681640625</LongitudeDegrees>
            </Position>
            <AltitudeMeters>926.20001220703125</AltitudeMeters>
            <DistanceMeters>NAN</DistanceMeters>
          </Trackpoint>
          <Trackpoint>
            <Time>2022-06-16T12:37:29.000Z</Time>
            <Position>
              <LatitudeDegrees>36.86246979050338268280029296875</LatitudeDegrees>
              <LongitudeDegrees>-4.38437967561185359954833984375</LongitudeDegrees>
            </Position>
            <AltitudeMeters>927.20001220703125</AltitudeMeters>
            <DistanceMeters>NAN</DistanceMeters>
          </Trackpoint>
          <Trackpoint>
            <Time>2022-06-16T12:37:30.000Z</Time>
            <Position>
              <LatitudeDegrees>36.8624794296920299530029296875</LatitudeDegrees>
              <LongitudeDegrees>-4.3843723833560943603515625</LongitudeDegrees>
            </Position>
            <AltitudeMeters>927.4000244140625</AltitudeMeters>
            <DistanceMeters>NAN</DistanceMeters>
          </Trackpoint>
          <Trackpoint>
            <Time>2022-06-16T12:37:40.000Z</Time>
            <Position>
              <LatitudeDegrees>36.86256651766598224639892578125</LatitudeDegrees>
              <LongitudeDegrees>-4.38431161455810070037841796875</LongitudeDegrees>
            </Position>
            <AltitudeMeters>928.4000244140625</AltitudeMeters>
            <DistanceMeters>NAN</DistanceMeters>
          </Trackpoint>
          <Trackpoint>
            <Time>2022-06-16T12:37:44.000Z</Time>
            <Position>
              <LatitudeDegrees>36.86258244328200817108154296875</LatitudeDegrees>
              <LongitudeDegrees>-4.38429116271436214447021484375</LongitudeDegrees>
            </Position>
            <AltitudeMeters>929</AltitudeMeters>
            <DistanceMeters>NAN</DistanceMeters>
          </Trackpoint>
          <Trackpoint>
            <Time>2022-06-16T12:37:50.000Z</Time>
            <Position>
              <LatitudeDegrees>36.86263223178684711456298828125</LatitudeDegrees>
              <LongitudeDegrees>-4.38425243832170963287353515625</LongitudeDegrees>
            </Position>
            <AltitudeMeters>929.20001220703125</AltitudeMeters>
            <DistanceMeters>NAN</DistanceMeters>
          </Trackpoint>
          <Trackpoint>
            <Time>2022-06-16T12:38:00.000Z</Time>
            <Position>
              <LatitudeDegrees>36.86269978992640972137451171875</LatitudeDegrees>
              <LongitudeDegrees>-4.38418571837246417999267578125</LongitudeDegrees>
            </Position>
            <AltitudeMeters>929.4000244140625</AltitudeMeters>
            <DistanceMeters>NAN</DistanceMeters>
          </Trackpoint>
          <Trackpoint>
            <Time>2022-06-16T12:38:07.000Z</Time>
            <Position>
              <LatitudeDegrees>36.8627459742128849029541015625</LatitudeDegrees>
              <LongitudeDegrees>-4.3841358460485935211181640625</LongitudeDegrees>
            </Position>
            <AltitudeMeters>929.79998779296875</AltitudeMeters>
            <DistanceMeters>NAN</DistanceMeters>
          </Trackpoint>
          <Trackpoint>
            <Time>2022-06-16T12:38:10.000Z</Time>
            <Position>
              <LatitudeDegrees>36.8627563677728176116943359375</LatitudeDegrees>
              <LongitudeDegrees>-4.3841123767197132110595703125</LongitudeDegrees>
            </Position>
            <AltitudeMeters>930.20001220703125</AltitudeMeters>
            <DistanceMeters>NAN</DistanceMeters>
          </Trackpoint>
          <Trackpoint>
            <Time>2022-06-16T12:38:20.000Z</Time>
            <Position>
              <LatitudeDegrees>36.86281747184693813323974609375</LatitudeDegrees>
              <LongitudeDegrees>-4.38405496068298816680908203125</LongitudeDegrees>
            </Position>
            <AltitudeMeters>930.4000244140625</AltitudeMeters>
            <DistanceMeters>NAN</DistanceMeters>
          </Trackpoint>
          <Trackpoint>
            <Time>2022-06-16T12:38:30.000Z</Time>
            <Position>
              <LatitudeDegrees>36.86289827339351177215576171875</LatitudeDegrees>
              <LongitudeDegrees>-4.3840027414262294769287109375</LongitudeDegrees>
            </Position>
            <AltitudeMeters>929.5999755859375</AltitudeMeters>
            <DistanceMeters>NAN</DistanceMeters>
          </Trackpoint>
          <Trackpoint>
            <Time>2022-06-16T12:38:40.000Z</Time>
            <Position>
              <LatitudeDegrees>36.86298343352973461151123046875</LatitudeDegrees>
              <LongitudeDegrees>-4.3839410506188869476318359375</LongitudeDegrees>
            </Position>
            <AltitudeMeters>929.20001220703125</AltitudeMeters>
            <DistanceMeters>NAN</DistanceMeters>
          </Trackpoint>
          <Trackpoint>
            <Time>2022-06-16T12:38:50.000Z</Time>
            <Position>
              <LatitudeDegrees>36.86306389980018138885498046875</LatitudeDegrees>
              <LongitudeDegrees>-4.3838830478489398956298828125</LongitudeDegrees>
            </Position>
            <AltitudeMeters>929</AltitudeMeters>
            <DistanceMeters>NAN</DistanceMeters>
          </Trackpoint>
          <Trackpoint>
            <Time>2022-06-16T12:39:00.000Z</Time>
            <Position>
              <LatitudeDegrees>36.863159202039241790771484375</LatitudeDegrees>
              <LongitudeDegrees>-4.3838485144078731536865234375</LongitudeDegrees>
            </Position>
            <AltitudeMeters>927.20001220703125</AltitudeMeters>
            <DistanceMeters>NAN</DistanceMeters>
          </Trackpoint>
          <Trackpoint>
            <Time>2022-06-16T12:39:04.000Z</Time>
            <Position>
              <LatitudeDegrees>36.86321460641920566558837890625</LatitudeDegrees>
              <LongitudeDegrees>-4.3838790245354175567626953125</LongitudeDegrees>
            </Position>
            <AltitudeMeters>926</AltitudeMeters>
            <DistanceMeters>NAN</DistanceMeters>
          </Trackpoint>
          <Trackpoint>
            <Time>2022-06-16T12:39:09.000Z</Time>
            <Position>
              <LatitudeDegrees>36.86327747069299221038818359375</LatitudeDegrees>
              <LongitudeDegrees>-4.3838974647223949432373046875</LongitudeDegrees>
            </Position>
            <AltitudeMeters>925</AltitudeMeters>
            <DistanceMeters>NAN</DistanceMeters>
          </Trackpoint>
          <Trackpoint>
            <Time>2022-06-16T12:39:10.000Z</Time>
            <Position>
              <LatitudeDegrees>36.86328937299549579620361328125</LatitudeDegrees>
              <LongitudeDegrees>-4.38389964401721954345703125</LongitudeDegrees>
            </Position>
            <AltitudeMeters>925</AltitudeMeters>
            <DistanceMeters>NAN</DistanceMeters>
          </Trackpoint>
          <Trackpoint>
            <Time>2022-06-16T12:39:15.000Z</Time>
            <Position>
              <LatitudeDegrees>36.863341592252254486083984375</LatitudeDegrees>
              <LongitudeDegrees>-4.383913390338420867919921875</LongitudeDegrees>
            </Position>
            <AltitudeMeters>924.20001220703125</AltitudeMeters>
            <DistanceMeters>NAN</DistanceMeters>
          </Trackpoint>
          <Trackpoint>
            <Time>2022-06-16T12:39:20.000Z</Time>
            <Position>
              <LatitudeDegrees>36.86338006518781185150146484375</LatitudeDegrees>
              <LongitudeDegrees>-4.38392370007932186126708984375</LongitudeDegrees>
            </Position>
            <AltitudeMeters>923.79998779296875</AltitudeMeters>
            <DistanceMeters>NAN</DistanceMeters>
          </Trackpoint>
          <Trackpoint>
            <Time>2022-06-16T12:39:30.000Z</Time>
            <Position>
              <LatitudeDegrees>36.863488443195819854736328125</LatitudeDegrees>
              <LongitudeDegrees>-4.3839727342128753662109375</LongitudeDegrees>
            </Position>
            <AltitudeMeters>923</AltitudeMeters>
            <DistanceMeters>NAN</DistanceMeters>
          </Trackpoint>
          <Trackpoint>
            <Time>2022-06-16T12:39:40.000Z</Time>
            <Position>
              <LatitudeDegrees>36.86360168270766735076904296875</LatitudeDegrees>
              <LongitudeDegrees>-4.3840184994041919708251953125</LongitudeDegrees>
            </Position>
            <AltitudeMeters>923.20001220703125</AltitudeMeters>
            <DistanceMeters>NAN</DistanceMeters>
          </Trackpoint>
          <Trackpoint>
            <Time>2022-06-16T12:39:50.000Z</Time>
            <Position>
              <LatitudeDegrees>36.8637112341821193695068359375</LatitudeDegrees>
              <LongitudeDegrees>-4.384053535759449005126953125</LongitudeDegrees>
            </Position>
            <AltitudeMeters>923.5999755859375</AltitudeMeters>
            <DistanceMeters>NAN</DistanceMeters>
          </Trackpoint>
          <Trackpoint>
            <Time>2022-06-16T12:40:00.000Z</Time>
            <Position>
              <LatitudeDegrees>36.86381827108561992645263671875</LatitudeDegrees>
              <LongitudeDegrees>-4.3841348402202129364013671875</LongitudeDegrees>
            </Position>
            <AltitudeMeters>923.20001220703125</AltitudeMeters>
            <DistanceMeters>NAN</DistanceMeters>
          </Trackpoint>
          <Trackpoint>
            <Time>2022-06-16T12:40:04.000Z</Time>
            <Position>
              <LatitudeDegrees>36.863863281905651092529296875</LatitudeDegrees>
              <LongitudeDegrees>-4.384182281792163848876953125</LongitudeDegrees>
            </Position>
            <AltitudeMeters>922.79998779296875</AltitudeMeters>
            <DistanceMeters>NAN</DistanceMeters>
          </Trackpoint>
          <Trackpoint>
            <Time>2022-06-16T12:40:10.000Z</Time>
            <Position>
              <LatitudeDegrees>36.8639145791530609130859375</LatitudeDegrees>
              <LongitudeDegrees>-4.38425729982554912567138671875</LongitudeDegrees>
            </Position>
            <AltitudeMeters>922.5999755859375</AltitudeMeters>
            <DistanceMeters>NAN</DistanceMeters>
          </Trackpoint>
          <Trackpoint>
            <Time>2022-06-16T12:40:18.000Z</Time>
            <Position>
              <LatitudeDegrees>36.8639549799263477325439453125</LatitudeDegrees>
              <LongitudeDegrees>-4.3843762390315532684326171875</LongitudeDegrees>
            </Position>
            <AltitudeMeters>922.20001220703125</AltitudeMeters>
            <DistanceMeters>NAN</DistanceMeters>
          </Trackpoint>
          <Trackpoint>
            <Time>2022-06-16T12:40:20.000Z</Time>
            <Position>
              <LatitudeDegrees>36.86395372264087200164794921875</LatitudeDegrees>
              <LongitudeDegrees>-4.38440985046327114105224609375</LongitudeDegrees>
            </Position>
            <AltitudeMeters>921.79998779296875</AltitudeMeters>
            <DistanceMeters>NAN</DistanceMeters>
          </Trackpoint>
          <Trackpoint>
            <Time>2022-06-16T12:40:26.000Z</Time>
            <Position>
              <LatitudeDegrees>36.8639294989407062530517578125</LatitudeDegrees>
              <LongitudeDegrees>-4.38449509441852569580078125</LongitudeDegrees>
            </Position>
            <AltitudeMeters>920.4000244140625</AltitudeMeters>
            <DistanceMeters>NAN</DistanceMeters>
          </Trackpoint>
          <Trackpoint>
            <Time>2022-06-16T12:40:30.000Z</Time>
            <Position>
              <LatitudeDegrees>36.8638949654996395111083984375</LatitudeDegrees>
              <LongitudeDegrees>-4.3845440447330474853515625</LongitudeDegrees>
            </Position>
            <AltitudeMeters>919</AltitudeMeters>
            <DistanceMeters>NAN</DistanceMeters>
          </Trackpoint>
          <Trackpoint>
            <Time>2022-06-16T12:40:40.000Z</Time>
            <Position>
              <LatitudeDegrees>36.8638258986175060272216796875</LatitudeDegrees>
              <LongitudeDegrees>-4.38470070250332355499267578125</LongitudeDegrees>
            </Position>
            <AltitudeMeters>916.4000244140625</AltitudeMeters>
            <DistanceMeters>NAN</DistanceMeters>
          </Trackpoint>
          <Trackpoint>
            <Time>2022-06-16T12:40:50.000Z</Time>
            <Position>
              <LatitudeDegrees>36.86385163106024265289306640625</LatitudeDegrees>
              <LongitudeDegrees>-4.384851157665252685546875</LongitudeDegrees>
            </Position>
            <AltitudeMeters>917.5999755859375</AltitudeMeters>
            <DistanceMeters>NAN</DistanceMeters>
          </Trackpoint>
          <Trackpoint>
            <Time>2022-06-16T12:41:00.000Z</Time>
            <Position>
              <LatitudeDegrees>36.86390058137476444244384765625</LatitudeDegrees>
              <LongitudeDegrees>-4.38500010408461093902587890625</LongitudeDegrees>
            </Position>
            <AltitudeMeters>920.5999755859375</AltitudeMeters>
            <DistanceMeters>NAN</DistanceMeters>
          </Trackpoint>
          <Trackpoint>
            <Time>2022-06-16T12:41:10.000Z</Time>
            <Position>
              <LatitudeDegrees>36.8639056943356990814208984375</LatitudeDegrees>
              <LongitudeDegrees>-4.385141842067241668701171875</LongitudeDegrees>
            </Position>
            <AltitudeMeters>921.79998779296875</AltitudeMeters>
            <DistanceMeters>NAN</DistanceMeters>
          </Trackpoint>
          <Trackpoint>
            <Time>2022-06-16T12:41:20.000Z</Time>
            <Position>
              <LatitudeDegrees>36.86386470682919025421142578125</LatitudeDegrees>
              <LongitudeDegrees>-4.38527938909828662872314453125</LongitudeDegrees>
            </Position>
            <AltitudeMeters>920.4000244140625</AltitudeMeters>
            <DistanceMeters>NAN</DistanceMeters>
          </Trackpoint>
          <Trackpoint>
            <Time>2022-06-16T12:41:23.000Z</Time>
            <Position>
              <LatitudeDegrees>36.86385347507894039154052734375</LatitudeDegrees>
              <LongitudeDegrees>-4.38532247208058834075927734375</LongitudeDegrees>
            </Position>
            <AltitudeMeters>920</AltitudeMeters>
            <DistanceMeters>NAN</DistanceMeters>
          </Trackpoint>
          <Trackpoint>
            <Time>2022-06-16T12:41:30.000Z</Time>
            <Position>
              <LatitudeDegrees>36.86384207569062709808349609375</LatitudeDegrees>
              <LongitudeDegrees>-4.38544300384819507598876953125</LongitudeDegrees>
            </Position>
            <AltitudeMeters>919.5999755859375</AltitudeMeters>
            <DistanceMeters>NAN</DistanceMeters>
          </Trackpoint>
          <Trackpoint>
            <Time>2022-06-16T12:41:36.000Z</Time>
            <Position>
              <LatitudeDegrees>36.86384241096675395965576171875</LatitudeDegrees>
              <LongitudeDegrees>-4.38554056920111179351806640625</LongitudeDegrees>
            </Position>
            <AltitudeMeters>919.5999755859375</AltitudeMeters>
            <DistanceMeters>NAN</DistanceMeters>
          </Trackpoint>
          <Trackpoint>
            <Time>2022-06-16T12:41:40.000Z</Time>
            <Position>
              <LatitudeDegrees>36.8638423271477222442626953125</LatitudeDegrees>
              <LongitudeDegrees>-4.3856035172939300537109375</LongitudeDegrees>
            </Position>
            <AltitudeMeters>919.5999755859375</AltitudeMeters>
            <DistanceMeters>NAN</DistanceMeters>
          </Trackpoint>
          <Trackpoint>
            <Time>2022-06-16T12:41:47.000Z</Time>
            <Position>
              <LatitudeDegrees>36.86384391970932483673095703125</LatitudeDegrees>
              <LongitudeDegrees>-4.38571239821612834930419921875</LongitudeDegrees>
            </Position>
            <AltitudeMeters>919.4000244140625</AltitudeMeters>
            <DistanceMeters>NAN</DistanceMeters>
          </Trackpoint>
          <Trackpoint>
            <Time>2022-06-16T12:41:50.000Z</Time>
            <Position>
              <LatitudeDegrees>36.863848865032196044921875</LatitudeDegrees>
              <LongitudeDegrees>-4.3857592530548572540283203125</LongitudeDegrees>
            </Position>
            <AltitudeMeters>919.20001220703125</AltitudeMeters>
            <DistanceMeters>NAN</DistanceMeters>
          </Trackpoint>
          <Trackpoint>
            <Time>2022-06-16T12:41:58.000Z</Time>
            <Position>
              <LatitudeDegrees>36.8638621084392070770263671875</LatitudeDegrees>
              <LongitudeDegrees>-4.38588657416403293609619140625</LongitudeDegrees>
            </Position>
            <AltitudeMeters>919.4000244140625</AltitudeMeters>
            <DistanceMeters>NAN</DistanceMeters>
          </Trackpoint>
          <Trackpoint>
            <Time>2022-06-16T12:41:59.000Z</Time>
            <Position>
              <LatitudeDegrees>36.86386303044855594635009765625</LatitudeDegrees>
              <LongitudeDegrees>-4.38590451143682003021240234375</LongitudeDegrees>
            </Position>
            <AltitudeMeters>919.5999755859375</AltitudeMeters>
            <DistanceMeters>NAN</DistanceMeters>
          </Trackpoint>
          <Trackpoint>
            <Time>2022-06-16T12:42:00.000Z</Time>
            <Position>
              <LatitudeDegrees>36.86386252753436565399169921875</LatitudeDegrees>
              <LongitudeDegrees>-4.3859232030808925628662109375</LongitudeDegrees>
            </Position>
            <AltitudeMeters>919.4000244140625</AltitudeMeters>
            <DistanceMeters>NAN</DistanceMeters>
          </Trackpoint>
          <Trackpoint>
            <Time>2022-06-16T12:42:10.000Z</Time>
            <Position>
              <LatitudeDegrees>36.86386437155306339263916015625</LatitudeDegrees>
              <LongitudeDegrees>-4.3860801123082637786865234375</LongitudeDegrees>
            </Position>
            <AltitudeMeters>918</AltitudeMeters>
            <DistanceMeters>NAN</DistanceMeters>
          </Trackpoint>
          <Trackpoint>
            <Time>2022-06-16T12:42:12.000Z</Time>
            <Position>
              <LatitudeDegrees>36.86386294662952423095703125</LatitudeDegrees>
              <LongitudeDegrees>-4.3861176632344722747802734375</LongitudeDegrees>
            </Position>
            <AltitudeMeters>917.79998779296875</AltitudeMeters>
            <DistanceMeters>NAN</DistanceMeters>
          </Trackpoint>
          <Trackpoint>
            <Time>2022-06-16T12:42:15.000Z</Time>
            <Position>
              <LatitudeDegrees>36.8638560734689235687255859375</LatitudeDegrees>
              <LongitudeDegrees>-4.38617390580475330352783203125</LongitudeDegrees>
            </Position>
            <AltitudeMeters>917.4000244140625</AltitudeMeters>
            <DistanceMeters>NAN</DistanceMeters>
          </Trackpoint>
          <Trackpoint>
            <Time>2022-06-16T12:42:19.000Z</Time>
            <Position>
              <LatitudeDegrees>36.86385682784020900726318359375</LatitudeDegrees>
              <LongitudeDegrees>-4.3862363509833812713623046875</LongitudeDegrees>
            </Position>
            <AltitudeMeters>916.79998779296875</AltitudeMeters>
            <DistanceMeters>NAN</DistanceMeters>
          </Trackpoint>
          <Trackpoint>
            <Time>2022-06-16T12:42:20.000Z</Time>
            <Position>
              <LatitudeDegrees>36.863856576383113861083984375</LatitudeDegrees>
              <LongitudeDegrees>-4.3862531147897243499755859375</LongitudeDegrees>
            </Position>
            <AltitudeMeters>916.5999755859375</AltitudeMeters>
            <DistanceMeters>NAN</DistanceMeters>
          </Trackpoint>
          <Trackpoint>
            <Time>2022-06-16T12:42:24.000Z</Time>
            <Position>
              <LatitudeDegrees>36.86386202462017536163330078125</LatitudeDegrees>
              <LongitudeDegrees>-4.38631908036768436431884765625</LongitudeDegrees>
            </Position>
            <AltitudeMeters>915.79998779296875</AltitudeMeters>
            <DistanceMeters>NAN</DistanceMeters>
          </Trackpoint>
          <Trackpoint>
            <Time>2022-06-16T12:42:30.000Z</Time>
            <Position>
              <LatitudeDegrees>36.8638949654996395111083984375</LatitudeDegrees>
              <LongitudeDegrees>-4.38642385415732860565185546875</LongitudeDegrees>
            </Position>
            <AltitudeMeters>915</AltitudeMeters>
            <DistanceMeters>NAN</DistanceMeters>
          </Trackpoint>
          <Trackpoint>
            <Time>2022-06-16T12:42:40.000Z</Time>
            <Position>
              <LatitudeDegrees>36.86399144120514392852783203125</LatitudeDegrees>
              <LongitudeDegrees>-4.3865154683589935302734375</LongitudeDegrees>
            </Position>
            <AltitudeMeters>915.79998779296875</AltitudeMeters>
            <DistanceMeters>NAN</DistanceMeters>
          </Trackpoint>
          <Trackpoint>
            <Time>2022-06-16T12:42:50.000Z</Time>
            <Position>
              <LatitudeDegrees>36.86412152834236621856689453125</LatitudeDegrees>
              <LongitudeDegrees>-4.3865256942808628082275390625</LongitudeDegrees>
            </Position>
            <AltitudeMeters>916.20001220703125</AltitudeMeters>
            <DistanceMeters>NAN</DistanceMeters>
          </Trackpoint>
          <Trackpoint>
            <Time>2022-06-16T12:43:00.000Z</Time>
            <Position>
              <LatitudeDegrees>36.864248849451541900634765625</LatitudeDegrees>
              <LongitudeDegrees>-4.3864583037793636322021484375</LongitudeDegrees>
            </Position>
            <AltitudeMeters>917.20001220703125</AltitudeMeters>
            <DistanceMeters>NAN</DistanceMeters>
          </Trackpoint>
          <Trackpoint>
            <Time>2022-06-16T12:43:10.000Z</Time>
            <Position>
              <LatitudeDegrees>36.86436208896338939666748046875</LatitudeDegrees>
              <LongitudeDegrees>-4.386399127542972564697265625</LongitudeDegrees>
            </Position>
            <AltitudeMeters>918.4000244140625</AltitudeMeters>
            <DistanceMeters>NAN</DistanceMeters>
          </Trackpoint>
          <Trackpoint>
            <Time>2022-06-16T12:43:18.000Z</Time>
            <Position>
              <LatitudeDegrees>36.86443299986422061920166015625</LatitudeDegrees>
              <LongitudeDegrees>-4.38635914586484432220458984375</LongitudeDegrees>
            </Position>
            <AltitudeMeters>919.4000244140625</AltitudeMeters>
            <DistanceMeters>NAN</DistanceMeters>
          </Trackpoint>
          <Trackpoint>
            <Time>2022-06-16T12:43:20.000Z</Time>
            <Position>
              <LatitudeDegrees>36.86445278115570545196533203125</LatitudeDegrees>
              <LongitudeDegrees>-4.38635118305683135986328125</LongitudeDegrees>
            </Position>
            <AltitudeMeters>919.5999755859375</AltitudeMeters>
            <DistanceMeters>NAN</DistanceMeters>
          </Trackpoint>
          <Trackpoint>
            <Time>2022-06-16T12:43:21.000Z</Time>
            <Position>
              <LatitudeDegrees>36.86446468345820903778076171875</LatitudeDegrees>
              <LongitudeDegrees>-4.38634707592427730560302734375</LongitudeDegrees>
            </Position>
            <AltitudeMeters>919.5999755859375</AltitudeMeters>
            <DistanceMeters>NAN</DistanceMeters>
          </Trackpoint>
          <Trackpoint>
            <Time>2022-06-16T12:43:24.000Z</Time>
            <Position>
              <LatitudeDegrees>36.86449267901480197906494140625</LatitudeDegrees>
              <LongitudeDegrees>-4.38634338788688182830810546875</LongitudeDegrees>
            </Position>
            <AltitudeMeters>919.5999755859375</AltitudeMeters>
            <DistanceMeters>NAN</DistanceMeters>
          </Trackpoint>
          <Trackpoint>
            <Time>2022-06-16T12:43:25.000Z</Time>
            <Position>
              <LatitudeDegrees>36.86450357548892498016357421875</LatitudeDegrees>
              <LongitudeDegrees>-4.38633919693529605865478515625</LongitudeDegrees>
            </Position>
            <AltitudeMeters>919.79998779296875</AltitudeMeters>
            <DistanceMeters>NAN</DistanceMeters>
          </Trackpoint>
          <Trackpoint>
            <Time>2022-06-16T12:43:30.000Z</Time>
            <Position>
              <LatitudeDegrees>36.864559985697269439697265625</LatitudeDegrees>
              <LongitudeDegrees>-4.38633517362177371978759765625</LongitudeDegrees>
            </Position>
            <AltitudeMeters>919.79998779296875</AltitudeMeters>
            <DistanceMeters>NAN</DistanceMeters>
          </Trackpoint>
          <Trackpoint>
            <Time>2022-06-16T12:43:32.000Z</Time>
            <Position>
              <LatitudeDegrees>36.864586807787418365478515625</LatitudeDegrees>
              <LongitudeDegrees>-4.386340789496898651123046875</LongitudeDegrees>
            </Position>
            <AltitudeMeters>920</AltitudeMeters>
            <DistanceMeters>NAN</DistanceMeters>
          </Trackpoint>
          <Trackpoint>
            <Time>2022-06-16T12:43:33.000Z</Time>
            <Position>
              <LatitudeDegrees>36.864602230489253997802734375</LatitudeDegrees>
              <LongitudeDegrees>-4.38634523190557956695556640625</LongitudeDegrees>
            </Position>
            <AltitudeMeters>920.20001220703125</AltitudeMeters>
            <DistanceMeters>NAN</DistanceMeters>
          </Trackpoint>
          <Trackpoint>
            <Time>2022-06-16T12:43:34.000Z</Time>
            <Position>
              <LatitudeDegrees>36.86461622826755046844482421875</LatitudeDegrees>
              <LongitudeDegrees>-4.3863500095903873443603515625</LongitudeDegrees>
            </Position>
            <AltitudeMeters>920.4000244140625</AltitudeMeters>
            <DistanceMeters>NAN</DistanceMeters>
          </Trackpoint>
          <Trackpoint>
            <Time>2022-06-16T12:43:35.000Z</Time>
            <Position>
              <LatitudeDegrees>36.8646302260458469390869140625</LatitudeDegrees>
              <LongitudeDegrees>-4.3863567151129245758056640625</LongitudeDegrees>
            </Position>
            <AltitudeMeters>920.5999755859375</AltitudeMeters>
            <DistanceMeters>NAN</DistanceMeters>
          </Trackpoint>
          <Trackpoint>
            <Time>2022-06-16T12:43:36.000Z</Time>
            <Position>
              <LatitudeDegrees>36.8646419607102870941162109375</LatitudeDegrees>
              <LongitudeDegrees>-4.38636601902544498443603515625</LongitudeDegrees>
            </Position>
            <AltitudeMeters>920.4000244140625</AltitudeMeters>
            <DistanceMeters>NAN</DistanceMeters>
          </Trackpoint>
          <Trackpoint>
            <Time>2022-06-16T12:43:39.000Z</Time>
            <Position>
              <LatitudeDegrees>36.86467439867556095123291015625</LatitudeDegrees>
              <LongitudeDegrees>-4.3864006362855434417724609375</LongitudeDegrees>
            </Position>
            <AltitudeMeters>919.79998779296875</AltitudeMeters>
            <DistanceMeters>NAN</DistanceMeters>
          </Trackpoint>
          <Trackpoint>
            <Time>2022-06-16T12:43:40.000Z</Time>
            <Position>
              <LatitudeDegrees>36.864686049520969390869140625</LatitudeDegrees>
              <LongitudeDegrees>-4.3864113651216030120849609375</LongitudeDegrees>
            </Position>
            <AltitudeMeters>919.5999755859375</AltitudeMeters>
            <DistanceMeters>NAN</DistanceMeters>
          </Trackpoint>
          <Trackpoint>
            <Time>2022-06-16T12:43:42.000Z</Time>
            <Position>
              <LatitudeDegrees>36.86470742337405681610107421875</LatitudeDegrees>
              <LongitudeDegrees>-4.3864321522414684295654296875</LongitudeDegrees>
            </Position>
            <AltitudeMeters>919.20001220703125</AltitudeMeters>
            <DistanceMeters>NAN</DistanceMeters>
          </Trackpoint>
          <Trackpoint>
            <Time>2022-06-16T12:43:44.000Z</Time>
            <Position>
              <LatitudeDegrees>36.86473005451261997222900390625</LatitudeDegrees>
              <LongitudeDegrees>-4.38646425493061542510986328125</LongitudeDegrees>
            </Position>
            <AltitudeMeters>918.5999755859375</AltitudeMeters>
            <DistanceMeters>NAN</DistanceMeters>
          </Trackpoint>
          <Trackpoint>
            <Time>2022-06-16T12:43:50.000Z</Time>
            <Position>
              <LatitudeDegrees>36.86477565206587314605712890625</LatitudeDegrees>
              <LongitudeDegrees>-4.3865503370761871337890625</LongitudeDegrees>
            </Position>
            <AltitudeMeters>917.20001220703125</AltitudeMeters>
            <DistanceMeters>NAN</DistanceMeters>
          </Trackpoint>
          <Trackpoint>
            <Time>2022-06-16T12:43:54.000Z</Time>
            <Position>
              <LatitudeDegrees>36.86480079777538776397705078125</LatitudeDegrees>
              <LongitudeDegrees>-4.3866138719022274017333984375</LongitudeDegrees>
            </Position>
            <AltitudeMeters>916</AltitudeMeters>
            <DistanceMeters>NAN</DistanceMeters>
          </Trackpoint>
          <Trackpoint>
            <Time>2022-06-16T12:44:00.000Z</Time>
            <Position>
              <LatitudeDegrees>36.86482761986553668975830078125</LatitudeDegrees>
              <LongitudeDegrees>-4.38671655021607875823974609375</LongitudeDegrees>
            </Position>
            <AltitudeMeters>913.20001220703125</AltitudeMeters>
            <DistanceMeters>NAN</DistanceMeters>
          </Trackpoint>
          <Trackpoint>
            <Time>2022-06-16T12:44:07.000Z</Time>
            <Position>
              <LatitudeDegrees>36.86486466787755489349365234375</LatitudeDegrees>
              <LongitudeDegrees>-4.38681143335998058319091796875</LongitudeDegrees>
            </Position>
            <AltitudeMeters>911.20001220703125</AltitudeMeters>
            <DistanceMeters>NAN</DistanceMeters>
          </Trackpoint>
          <Trackpoint>
            <Time>2022-06-16T12:44:10.000Z</Time>
            <Position>
              <LatitudeDegrees>36.86487271450459957122802734375</LatitudeDegrees>
              <LongitudeDegrees>-4.386849738657474517822265625</LongitudeDegrees>
            </Position>
            <AltitudeMeters>910.20001220703125</AltitudeMeters>
            <DistanceMeters>NAN</DistanceMeters>
          </Trackpoint>
          <Trackpoint>
            <Time>2022-06-16T12:44:20.000Z</Time>
            <Position>
              <LatitudeDegrees>36.86490632593631744384765625</LatitudeDegrees>
              <LongitudeDegrees>-4.38701947219669818878173828125</LongitudeDegrees>
            </Position>
            <AltitudeMeters>907</AltitudeMeters>
            <DistanceMeters>NAN</DistanceMeters>
          </Trackpoint>
          <Trackpoint>
            <Time>2022-06-16T12:44:30.000Z</Time>
            <Position>
              <LatitudeDegrees>36.8649782426655292510986328125</LatitudeDegrees>
              <LongitudeDegrees>-4.38716950826346874237060546875</LongitudeDegrees>
            </Position>
            <AltitudeMeters>906.20001220703125</AltitudeMeters>
            <DistanceMeters>NAN</DistanceMeters>
          </Trackpoint>
          <Trackpoint>
            <Time>2022-06-16T12:44:40.000Z</Time>
            <Position>
              <LatitudeDegrees>36.86505074612796306610107421875</LatitudeDegrees>
              <LongitudeDegrees>-4.38731200061738491058349609375</LongitudeDegrees>
            </Position>
            <AltitudeMeters>904.4000244140625</AltitudeMeters>
            <DistanceMeters>NAN</DistanceMeters>
          </Trackpoint>
          <Trackpoint>
            <Time>2022-06-16T12:44:46.000Z</Time>
            <Position>
              <LatitudeDegrees>36.865115873515605926513671875</LatitudeDegrees>
              <LongitudeDegrees>-4.38736145384609699249267578125</LongitudeDegrees>
            </Position>
            <AltitudeMeters>905</AltitudeMeters>
            <DistanceMeters>NAN</DistanceMeters>
          </Trackpoint>
          <Trackpoint>
            <Time>2022-06-16T12:44:47.000Z</Time>
            <Position>
              <LatitudeDegrees>36.86512819491326808929443359375</LatitudeDegrees>
              <LongitudeDegrees>-4.387368075549602508544921875</LongitudeDegrees>
            </Position>
            <AltitudeMeters>905.20001220703125</AltitudeMeters>
            <DistanceMeters>NAN</DistanceMeters>
          </Trackpoint>
          <Trackpoint>
            <Time>2022-06-16T12:44:49.000Z</Time>
            <Position>
              <LatitudeDegrees>36.865152083337306976318359375</LatitudeDegrees>
              <LongitudeDegrees>-4.38738173805177211761474609375</LongitudeDegrees>
            </Position>
            <AltitudeMeters>905.5999755859375</AltitudeMeters>
            <DistanceMeters>NAN</DistanceMeters>
          </Trackpoint>
          <Trackpoint>
            <Time>2022-06-16T12:44:50.000Z</Time>
            <Position>
              <LatitudeDegrees>36.865161471068859100341796875</LatitudeDegrees>
              <LongitudeDegrees>-4.38739011995494365692138671875</LongitudeDegrees>
            </Position>
            <AltitudeMeters>905.79998779296875</AltitudeMeters>
            <DistanceMeters>NAN</DistanceMeters>
          </Trackpoint>
          <Trackpoint>
            <Time>2022-06-16T12:44:53.000Z</Time>
            <Position>
              <LatitudeDegrees>36.8651934899389743804931640625</LatitudeDegrees>
              <LongitudeDegrees>-4.3874098174273967742919921875</LongitudeDegrees>
            </Position>
            <AltitudeMeters>906.4000244140625</AltitudeMeters>
            <DistanceMeters>NAN</DistanceMeters>
          </Trackpoint>
          <Trackpoint>
            <Time>2022-06-16T12:45:00.000Z</Time>
            <Position>
              <LatitudeDegrees>36.86527051962912082672119140625</LatitudeDegrees>
              <LongitudeDegrees>-4.38745130784809589385986328125</LongitudeDegrees>
            </Position>
            <AltitudeMeters>908.20001220703125</AltitudeMeters>
            <DistanceMeters>NAN</DistanceMeters>
          </Trackpoint>
          <Trackpoint>
            <Time>2022-06-16T12:45:10.000Z</Time>
            <Position>
              <LatitudeDegrees>36.8653728626668453216552734375</LatitudeDegrees>
              <LongitudeDegrees>-4.38751660287380218505859375</LongitudeDegrees>
            </Position>
            <AltitudeMeters>911</AltitudeMeters>
            <DistanceMeters>NAN</DistanceMeters>
          </Trackpoint>
          <Trackpoint>
            <Time>2022-06-16T12:45:20.000Z</Time>
            <Position>
              <LatitudeDegrees>36.8654345534741878509521484375</LatitudeDegrees>
              <LongitudeDegrees>-4.3876468576490879058837890625</LongitudeDegrees>
            </Position>
            <AltitudeMeters>911</AltitudeMeters>
            <DistanceMeters>NAN</DistanceMeters>
          </Trackpoint>
          <Trackpoint>
            <Time>2022-06-16T12:45:30.000Z</Time>
            <Position>
              <LatitudeDegrees>36.86541066505014896392822265625</LatitudeDegrees>
              <LongitudeDegrees>-4.38780502416193485260009765625</LongitudeDegrees>
            </Position>
            <AltitudeMeters>908.20001220703125</AltitudeMeters>
            <DistanceMeters>NAN</DistanceMeters>
          </Trackpoint>
          <Trackpoint>
            <Time>2022-06-16T12:45:40.000Z</Time>
            <Position>
              <LatitudeDegrees>36.86539842747151851654052734375</LatitudeDegrees>
              <LongitudeDegrees>-4.3879442475736141204833984375</LongitudeDegrees>
            </Position>
            <AltitudeMeters>907.20001220703125</AltitudeMeters>
            <DistanceMeters>NAN</DistanceMeters>
          </Trackpoint>
          <Trackpoint>
            <Time>2022-06-16T12:45:50.000Z</Time>
            <Position>
              <LatitudeDegrees>36.86540982685983180999755859375</LatitudeDegrees>
              <LongitudeDegrees>-4.38811716623604297637939453125</LongitudeDegrees>
            </Position>
            <AltitudeMeters>905.4000244140625</AltitudeMeters>
            <DistanceMeters>NAN</DistanceMeters>
          </Trackpoint>
          <Trackpoint>
            <Time>2022-06-16T12:45:58.000Z</Time>
            <Position>
              <LatitudeDegrees>36.8654546700417995452880859375</LatitudeDegrees>
              <LongitudeDegrees>-4.38824004493653774261474609375</LongitudeDegrees>
            </Position>
            <AltitudeMeters>904.79998779296875</AltitudeMeters>
            <DistanceMeters>NAN</DistanceMeters>
          </Trackpoint>
          <Trackpoint>
            <Time>2022-06-16T12:46:00.000Z</Time>
            <Position>
              <LatitudeDegrees>36.865469925105571746826171875</LatitudeDegrees>
              <LongitudeDegrees>-4.388265274465084075927734375</LongitudeDegrees>
            </Position>
            <AltitudeMeters>905</AltitudeMeters>
            <DistanceMeters>NAN</DistanceMeters>
          </Trackpoint>
          <Trackpoint>
            <Time>2022-06-16T12:46:02.000Z</Time>
            <Position>
              <LatitudeDegrees>36.86548593454062938690185546875</LatitudeDegrees>
              <LongitudeDegrees>-4.38829310238361358642578125</LongitudeDegrees>
            </Position>
            <AltitudeMeters>905</AltitudeMeters>
            <DistanceMeters>NAN</DistanceMeters>
          </Trackpoint>
          <Trackpoint>
            <Time>2022-06-16T12:46:09.000Z</Time>
            <Position>
              <LatitudeDegrees>36.8655478768050670623779296875</LatitudeDegrees>
              <LongitudeDegrees>-4.38837951980531215667724609375</LongitudeDegrees>
            </Position>
            <AltitudeMeters>906</AltitudeMeters>
            <DistanceMeters>NAN</DistanceMeters>
          </Trackpoint>
          <Trackpoint>
            <Time>2022-06-16T12:46:10.000Z</Time>
            <Position>
              <LatitudeDegrees>36.8655579350888729095458984375</LatitudeDegrees>
              <LongitudeDegrees>-4.38839343376457691192626953125</LongitudeDegrees>
            </Position>
            <AltitudeMeters>906.20001220703125</AltitudeMeters>
            <DistanceMeters>NAN</DistanceMeters>
          </Trackpoint>
          <Trackpoint>
            <Time>2022-06-16T12:46:20.000Z</Time>
            <Position>
              <LatitudeDegrees>36.86565021984279155731201171875</LatitudeDegrees>
              <LongitudeDegrees>-4.38851228915154933929443359375</LongitudeDegrees>
            </Position>
            <AltitudeMeters>906.20001220703125</AltitudeMeters>
            <DistanceMeters>NAN</DistanceMeters>
          </Trackpoint>
          <Trackpoint>
            <Time>2022-06-16T12:46:25.000Z</Time>
            <Position>
              <LatitudeDegrees>36.86568743549287319183349609375</LatitudeDegrees>
              <LongitudeDegrees>-4.3885688669979572296142578125</LongitudeDegrees>
            </Position>
            <AltitudeMeters>906.20001220703125</AltitudeMeters>
            <DistanceMeters>NAN</DistanceMeters>
          </Trackpoint>
          <Trackpoint>
            <Time>2022-06-16T12:46:30.000Z</Time>
            <Position>
              <LatitudeDegrees>36.86572414822876453399658203125</LatitudeDegrees>
              <LongitudeDegrees>-4.38862946815788745880126953125</LongitudeDegrees>
            </Position>
            <AltitudeMeters>906.4000244140625</AltitudeMeters>
            <DistanceMeters>NAN</DistanceMeters>
          </Trackpoint>
          <Trackpoint>
            <Time>2022-06-16T12:46:35.000Z</Time>
            <Position>
              <LatitudeDegrees>36.86575348488986492156982421875</LatitudeDegrees>
              <LongitudeDegrees>-4.38869937323033809661865234375</LongitudeDegrees>
            </Position>
            <AltitudeMeters>906.4000244140625</AltitudeMeters>
            <DistanceMeters>NAN</DistanceMeters>
          </Trackpoint>
          <Trackpoint>
            <Time>2022-06-16T12:46:36.000Z</Time>
            <Position>
              <LatitudeDegrees>36.86575801111757755279541015625</LatitudeDegrees>
              <LongitudeDegrees>-4.3887153826653957366943359375</LongitudeDegrees>
            </Position>
            <AltitudeMeters>906.4000244140625</AltitudeMeters>
            <DistanceMeters>NAN</DistanceMeters>
          </Trackpoint>
          <Trackpoint>
            <Time>2022-06-16T12:46:40.000Z</Time>
            <Position>
              <LatitudeDegrees>36.8657694943249225616455078125</LatitudeDegrees>
              <LongitudeDegrees>-4.38878352753818035125732421875</LongitudeDegrees>
            </Position>
            <AltitudeMeters>905.79998779296875</AltitudeMeters>
            <DistanceMeters>NAN</DistanceMeters>
          </Trackpoint>
          <Trackpoint>
            <Time>2022-06-16T12:46:47.000Z</Time>
            <Position>
              <LatitudeDegrees>36.86577477492392063140869140625</LatitudeDegrees>
              <LongitudeDegrees>-4.38890556804835796356201171875</LongitudeDegrees>
            </Position>
            <AltitudeMeters>904</AltitudeMeters>
            <DistanceMeters>NAN</DistanceMeters>
          </Trackpoint>
          <Trackpoint>
            <Time>2022-06-16T12:46:50.000Z</Time>
            <Position>
              <LatitudeDegrees>36.865780055522918701171875</LatitudeDegrees>
              <LongitudeDegrees>-4.38895954750478267669677734375</LongitudeDegrees>
            </Position>
            <AltitudeMeters>903.20001220703125</AltitudeMeters>
            <DistanceMeters>NAN</DistanceMeters>
          </Trackpoint>
          <Trackpoint>
            <Time>2022-06-16T12:46:58.000Z</Time>
            <Position>
              <LatitudeDegrees>36.86581685207784175872802734375</LatitudeDegrees>
              <LongitudeDegrees>-4.38909910619258880615234375</LongitudeDegrees>
            </Position>
            <AltitudeMeters>900.5999755859375</AltitudeMeters>
            <DistanceMeters>NAN</DistanceMeters>
          </Trackpoint>
          <Trackpoint>
            <Time>2022-06-16T12:46:59.000Z</Time>
            <Position>
              <LatitudeDegrees>36.865822970867156982421875</LatitudeDegrees>
              <LongitudeDegrees>-4.38911654055118560791015625</LongitudeDegrees>
            </Position>
            <AltitudeMeters>900.20001220703125</AltitudeMeters>
            <DistanceMeters>NAN</DistanceMeters>
          </Trackpoint>
          <Trackpoint>
            <Time>2022-06-16T12:47:00.000Z</Time>
            <Position>
              <LatitudeDegrees>36.865830682218074798583984375</LatitudeDegrees>
              <LongitudeDegrees>-4.38913322053849697113037109375</LongitudeDegrees>
            </Position>
            <AltitudeMeters>899.79998779296875</AltitudeMeters>
            <DistanceMeters>NAN</DistanceMeters>
          </Trackpoint>
          <Trackpoint>
            <Time>2022-06-16T12:47:03.000Z</Time>
            <Position>
              <LatitudeDegrees>36.865855492651462554931640625</LatitudeDegrees>
              <LongitudeDegrees>-4.3891794048249721527099609375</LongitudeDegrees>
            </Position>
            <AltitudeMeters>899.5999755859375</AltitudeMeters>
            <DistanceMeters>NAN</DistanceMeters>
          </Trackpoint>
          <Trackpoint>
            <Time>2022-06-16T12:47:08.000Z</Time>
            <Position>
              <LatitudeDegrees>36.86591081321239471435546875</LatitudeDegrees>
              <LongitudeDegrees>-4.38924101181328296661376953125</LongitudeDegrees>
            </Position>
            <AltitudeMeters>899</AltitudeMeters>
            <DistanceMeters>NAN</DistanceMeters>
          </Trackpoint>
          <Trackpoint>
            <Time>2022-06-16T12:47:09.000Z</Time>
            <Position>
              <LatitudeDegrees>36.86592531390488147735595703125</LatitudeDegrees>
              <LongitudeDegrees>-4.38925174064934253692626953125</LongitudeDegrees>
            </Position>
            <AltitudeMeters>899</AltitudeMeters>
            <DistanceMeters>NAN</DistanceMeters>
          </Trackpoint>
          <Trackpoint>
            <Time>2022-06-16T12:47:10.000Z</Time>
            <Position>
              <LatitudeDegrees>36.8659411557018756866455078125</LatitudeDegrees>
              <LongitudeDegrees>-4.38926079310476779937744140625</LongitudeDegrees>
            </Position>
            <AltitudeMeters>898.79998779296875</AltitudeMeters>
            <DistanceMeters>NAN</DistanceMeters>
          </Trackpoint>
          <Trackpoint>
            <Time>2022-06-16T12:47:18.000Z</Time>
            <Position>
              <LatitudeDegrees>36.86606344766914844512939453125</LatitudeDegrees>
              <LongitudeDegrees>-4.38931410200893878936767578125</LongitudeDegrees>
            </Position>
            <AltitudeMeters>897.4000244140625</AltitudeMeters>
            <DistanceMeters>NAN</DistanceMeters>
          </Trackpoint>
          <Trackpoint>
            <Time>2022-06-16T12:47:20.000Z</Time>
            <Position>
              <LatitudeDegrees>36.866095550358295440673828125</LatitudeDegrees>
              <LongitudeDegrees>-4.389319717884063720703125</LongitudeDegrees>
            </Position>
            <AltitudeMeters>897.20001220703125</AltitudeMeters>
            <DistanceMeters>NAN</DistanceMeters>
          </Trackpoint>
          <Trackpoint>
            <Time>2022-06-16T12:47:21.000Z</Time>
            <Position>
              <LatitudeDegrees>36.86610996723175048828125</LatitudeDegrees>
              <LongitudeDegrees>-4.38932164572179317474365234375</LongitudeDegrees>
            </Position>
            <AltitudeMeters>897</AltitudeMeters>
            <DistanceMeters>NAN</DistanceMeters>
          </Trackpoint>
          <Trackpoint>
            <Time>2022-06-16T12:47:22.000Z</Time>
            <Position>
              <LatitudeDegrees>36.8661245517432689666748046875</LatitudeDegrees>
              <LongitudeDegrees>-4.3893245793879032135009765625</LongitudeDegrees>
            </Position>
            <AltitudeMeters>896.79998779296875</AltitudeMeters>
            <DistanceMeters>NAN</DistanceMeters>
          </Trackpoint>
          <Trackpoint>
            <Time>2022-06-16T12:47:24.000Z</Time>
            <Position>
              <LatitudeDegrees>36.86615623533725738525390625</LatitudeDegrees>
              <LongitudeDegrees>-4.389328099787235260009765625</LongitudeDegrees>
            </Position>
            <AltitudeMeters>896.5999755859375</AltitudeMeters>
            <DistanceMeters>NAN</DistanceMeters>
          </Trackpoint>
          <Trackpoint>
            <Time>2022-06-16T12:47:26.000Z</Time>
            <Position>
              <LatitudeDegrees>36.8661869131028652191162109375</LatitudeDegrees>
              <LongitudeDegrees>-4.38932885415852069854736328125</LongitudeDegrees>
            </Position>
            <AltitudeMeters>896.5999755859375</AltitudeMeters>
            <DistanceMeters>NAN</DistanceMeters>
          </Trackpoint>
          <Trackpoint>
            <Time>2022-06-16T12:47:30.000Z</Time>
            <Position>
              <LatitudeDegrees>36.86624282039701938629150390625</LatitudeDegrees>
              <LongitudeDegrees>-4.38932650722563266754150390625</LongitudeDegrees>
            </Position>
            <AltitudeMeters>896.20001220703125</AltitudeMeters>
            <DistanceMeters>NAN</DistanceMeters>
          </Trackpoint>
          <Trackpoint>
            <Time>2022-06-16T12:47:40.000Z</Time>
            <Position>
              <LatitudeDegrees>36.86639604158699512481689453125</LatitudeDegrees>
              <LongitudeDegrees>-4.38932114280760288238525390625</LongitudeDegrees>
            </Position>
            <AltitudeMeters>895.5999755859375</AltitudeMeters>
            <DistanceMeters>NAN</DistanceMeters>
          </Trackpoint>
          <Trackpoint>
            <Time>2022-06-16T12:47:49.000Z</Time>
            <Position>
              <LatitudeDegrees>36.86651975847780704498291015625</LatitudeDegrees>
              <LongitudeDegrees>-4.38927956856787204742431640625</LongitudeDegrees>
            </Position>
            <AltitudeMeters>896.20001220703125</AltitudeMeters>
            <DistanceMeters>NAN</DistanceMeters>
          </Trackpoint>
          <Trackpoint>
            <Time>2022-06-16T12:47:50.000Z</Time>
            <Position>
              <LatitudeDegrees>36.8665322475135326385498046875</LatitudeDegrees>
              <LongitudeDegrees>-4.38927344977855682373046875</LongitudeDegrees>
            </Position>
            <AltitudeMeters>896.4000244140625</AltitudeMeters>
            <DistanceMeters>NAN</DistanceMeters>
          </Trackpoint>
          <Trackpoint>
            <Time>2022-06-16T12:48:00.000Z</Time>
            <Position>
              <LatitudeDegrees>36.86665738932788372039794921875</LatitudeDegrees>
              <LongitudeDegrees>-4.389257691800594329833984375</LongitudeDegrees>
            </Position>
            <AltitudeMeters>896.4000244140625</AltitudeMeters>
            <DistanceMeters>NAN</DistanceMeters>
          </Trackpoint>
          <Trackpoint>
            <Time>2022-06-16T12:48:07.000Z</Time>
            <Position>
              <LatitudeDegrees>36.86673819087445735931396484375</LatitudeDegrees>
              <LongitudeDegrees>-4.3892467953264713287353515625</LongitudeDegrees>
            </Position>
            <AltitudeMeters>896.79998779296875</AltitudeMeters>
            <DistanceMeters>NAN</DistanceMeters>
          </Trackpoint>
          <Trackpoint>
            <Time>2022-06-16T12:48:08.000Z</Time>
            <Position>
              <LatitudeDegrees>36.8667508475482463836669921875</LatitudeDegrees>
              <LongitudeDegrees>-4.38925065100193023681640625</LongitudeDegrees>
            </Position>
            <AltitudeMeters>896.79998779296875</AltitudeMeters>
            <DistanceMeters>NAN</DistanceMeters>
          </Trackpoint>
          <Trackpoint>
            <Time>2022-06-16T12:48:09.000Z</Time>
            <Position>
              <LatitudeDegrees>36.8667612411081790924072265625</LatitudeDegrees>
              <LongitudeDegrees>-4.38925123773515224456787109375</LongitudeDegrees>
            </Position>
            <AltitudeMeters>896.79998779296875</AltitudeMeters>
            <DistanceMeters>NAN</DistanceMeters>
          </Trackpoint>
          <Trackpoint>
            <Time>2022-06-16T12:48:10.000Z</Time>
            <Position>
              <LatitudeDegrees>36.86677238903939723968505859375</LatitudeDegrees>
              <LongitudeDegrees>-4.389254339039325714111328125</LongitudeDegrees>
            </Position>
            <AltitudeMeters>896.79998779296875</AltitudeMeters>
            <DistanceMeters>NAN</DistanceMeters>
          </Trackpoint>
          <Trackpoint>
            <Time>2022-06-16T12:48:11.000Z</Time>
            <Position>
              <LatitudeDegrees>36.86678227968513965606689453125</LatitudeDegrees>
              <LongitudeDegrees>-4.3892558477818965911865234375</LongitudeDegrees>
            </Position>
            <AltitudeMeters>896.79998779296875</AltitudeMeters>
            <DistanceMeters>NAN</DistanceMeters>
          </Trackpoint>
          <Trackpoint>
            <Time>2022-06-16T12:48:13.000Z</Time>
            <Position>
              <LatitudeDegrees>36.8668038211762905120849609375</LatitudeDegrees>
              <LongitudeDegrees>-4.38925710506737232208251953125</LongitudeDegrees>
            </Position>
            <AltitudeMeters>896.79998779296875</AltitudeMeters>
            <DistanceMeters>NAN</DistanceMeters>
          </Trackpoint>
          <Trackpoint>
            <Time>2022-06-16T12:48:20.000Z</Time>
            <Position>
              <LatitudeDegrees>36.86688051559031009674072265625</LatitudeDegrees>
              <LongitudeDegrees>-4.38927101902663707733154296875</LongitudeDegrees>
            </Position>
            <AltitudeMeters>896.5999755859375</AltitudeMeters>
            <DistanceMeters>NAN</DistanceMeters>
          </Trackpoint>
          <Trackpoint>
            <Time>2022-06-16T12:48:30.000Z</Time>
            <Position>
              <LatitudeDegrees>36.867002807557582855224609375</LatitudeDegrees>
              <LongitudeDegrees>-4.3893239088356494903564453125</LongitudeDegrees>
            </Position>
            <AltitudeMeters>895.5999755859375</AltitudeMeters>
            <DistanceMeters>NAN</DistanceMeters>
          </Trackpoint>
          <Trackpoint>
            <Time>2022-06-16T12:48:36.000Z</Time>
            <Position>
              <LatitudeDegrees>36.8670743890106678009033203125</LatitudeDegrees>
              <LongitudeDegrees>-4.38936539925634860992431640625</LongitudeDegrees>
            </Position>
            <AltitudeMeters>894.4000244140625</AltitudeMeters>
            <DistanceMeters>NAN</DistanceMeters>
          </Trackpoint>
          <Trackpoint>
            <Time>2022-06-16T12:48:40.000Z</Time>
            <Position>
              <LatitudeDegrees>36.8671149574220180511474609375</LatitudeDegrees>
              <LongitudeDegrees>-4.38940730877220630645751953125</LongitudeDegrees>
            </Position>
            <AltitudeMeters>893.79998779296875</AltitudeMeters>
            <DistanceMeters>NAN</DistanceMeters>
          </Trackpoint>
          <Trackpoint>
            <Time>2022-06-16T12:48:50.000Z</Time>
            <Position>
              <LatitudeDegrees>36.86721193604171276092529296875</LatitudeDegrees>
              <LongitudeDegrees>-4.38944041728973388671875</LongitudeDegrees>
            </Position>
            <AltitudeMeters>893.20001220703125</AltitudeMeters>
            <DistanceMeters>NAN</DistanceMeters>
          </Trackpoint>
          <Trackpoint>
            <Time>2022-06-16T12:49:00.000Z</Time>
            <Position>
              <LatitudeDegrees>36.8672856129705905914306640625</LatitudeDegrees>
              <LongitudeDegrees>-4.38952599652111530303955078125</LongitudeDegrees>
            </Position>
            <AltitudeMeters>892.79998779296875</AltitudeMeters>
            <DistanceMeters>NAN</DistanceMeters>
          </Trackpoint>
          <Trackpoint>
            <Time>2022-06-16T12:49:10.000Z</Time>
            <Position>
              <LatitudeDegrees>36.86737127602100372314453125</LatitudeDegrees>
              <LongitudeDegrees>-4.3896310217678546905517578125</LongitudeDegrees>
            </Position>
            <AltitudeMeters>892.4000244140625</AltitudeMeters>
            <DistanceMeters>NAN</DistanceMeters>
          </Trackpoint>
          <Trackpoint>
            <Time>2022-06-16T12:49:19.000Z</Time>
            <Position>
              <LatitudeDegrees>36.8674482218921184539794921875</LatitudeDegrees>
              <LongitudeDegrees>-4.3897141702473163604736328125</LongitudeDegrees>
            </Position>
            <AltitudeMeters>893</AltitudeMeters>
            <DistanceMeters>NAN</DistanceMeters>
          </Trackpoint>
          <Trackpoint>
            <Time>2022-06-16T12:49:20.000Z</Time>
            <Position>
              <LatitudeDegrees>36.86745886690914630889892578125</LatitudeDegrees>
              <LongitudeDegrees>-4.3897233903408050537109375</LongitudeDegrees>
            </Position>
            <AltitudeMeters>893.20001220703125</AltitudeMeters>
            <DistanceMeters>NAN</DistanceMeters>
          </Trackpoint>
          <Trackpoint>
            <Time>2022-06-16T12:49:30.000Z</Time>
            <Position>
              <LatitudeDegrees>36.86757001094520092010498046875</LatitudeDegrees>
              <LongitudeDegrees>-4.3898063711822032928466796875</LongitudeDegrees>
            </Position>
            <AltitudeMeters>893.79998779296875</AltitudeMeters>
            <DistanceMeters>NAN</DistanceMeters>
          </Trackpoint>
          <Trackpoint>
            <Time>2022-06-16T12:49:32.000Z</Time>
            <Position>
              <LatitudeDegrees>36.8675945699214935302734375</LatitudeDegrees>
              <LongitudeDegrees>-4.38982036896049976348876953125</LongitudeDegrees>
            </Position>
            <AltitudeMeters>893.79998779296875</AltitudeMeters>
            <DistanceMeters>NAN</DistanceMeters>
          </Trackpoint>
          <Trackpoint>
            <Time>2022-06-16T12:49:33.000Z</Time>
            <Position>
              <LatitudeDegrees>36.8676058016717433929443359375</LatitudeDegrees>
              <LongitudeDegrees>-4.38982958905398845672607421875</LongitudeDegrees>
            </Position>
            <AltitudeMeters>893.79998779296875</AltitudeMeters>
            <DistanceMeters>NAN</DistanceMeters>
          </Trackpoint>
          <Trackpoint>
            <Time>2022-06-16T12:49:37.000Z</Time>
            <Position>
              <LatitudeDegrees>36.86765014193952083587646484375</LatitudeDegrees>
              <LongitudeDegrees>-4.389864541590213775634765625</LongitudeDegrees>
            </Position>
            <AltitudeMeters>893</AltitudeMeters>
            <DistanceMeters>NAN</DistanceMeters>
          </Trackpoint>
          <Trackpoint>
            <Time>2022-06-16T12:49:38.000Z</Time>
            <Position>
              <LatitudeDegrees>36.86766237951815128326416015625</LatitudeDegrees>
              <LongitudeDegrees>-4.38987166620790958404541015625</LongitudeDegrees>
            </Position>
            <AltitudeMeters>892.79998779296875</AltitudeMeters>
            <DistanceMeters>NAN</DistanceMeters>
          </Trackpoint>
          <Trackpoint>
            <Time>2022-06-16T12:49:40.000Z</Time>
            <Position>
              <LatitudeDegrees>36.86768467538058757781982421875</LatitudeDegrees>
              <LongitudeDegrees>-4.3898875080049037933349609375</LongitudeDegrees>
            </Position>
            <AltitudeMeters>892.4000244140625</AltitudeMeters>
            <DistanceMeters>NAN</DistanceMeters>
          </Trackpoint>
          <Trackpoint>
            <Time>2022-06-16T12:49:50.000Z</Time>
            <Position>
              <LatitudeDegrees>36.8677959032356739044189453125</LatitudeDegrees>
              <LongitudeDegrees>-4.38996286131441593170166015625</LongitudeDegrees>
            </Position>
            <AltitudeMeters>892</AltitudeMeters>
            <DistanceMeters>NAN</DistanceMeters>
          </Trackpoint>
          <Trackpoint>
            <Time>2022-06-16T12:50:00.000Z</Time>
            <Position>
              <LatitudeDegrees>36.8679259903728961944580078125</LatitudeDegrees>
              <LongitudeDegrees>-4.38999186269938945770263671875</LongitudeDegrees>
            </Position>
            <AltitudeMeters>890</AltitudeMeters>
            <DistanceMeters>NAN</DistanceMeters>
          </Trackpoint>
          <Trackpoint>
            <Time>2022-06-16T12:50:08.000Z</Time>
            <Position>
              <LatitudeDegrees>36.868035793304443359375</LatitudeDegrees>
              <LongitudeDegrees>-4.39002555795013904571533203125</LongitudeDegrees>
            </Position>
            <AltitudeMeters>887.79998779296875</AltitudeMeters>
            <DistanceMeters>NAN</DistanceMeters>
          </Trackpoint>
          <Trackpoint>
            <Time>2022-06-16T12:50:10.000Z</Time>
            <Position>
              <LatitudeDegrees>36.86806194484233856201171875</LatitudeDegrees>
              <LongitudeDegrees>-4.3900373764336109161376953125</LongitudeDegrees>
            </Position>
            <AltitudeMeters>887.20001220703125</AltitudeMeters>
            <DistanceMeters>NAN</DistanceMeters>
          </Trackpoint>
          <Trackpoint>
            <Time>2022-06-16T12:50:12.000Z</Time>
            <Position>
              <LatitudeDegrees>36.86808851547539234161376953125</LatitudeDegrees>
              <LongitudeDegrees>-4.3900470994412899017333984375</LongitudeDegrees>
            </Position>
            <AltitudeMeters>886.79998779296875</AltitudeMeters>
            <DistanceMeters>NAN</DistanceMeters>
          </Trackpoint>
          <Trackpoint>
            <Time>2022-06-16T12:50:15.000Z</Time>
            <Position>
              <LatitudeDegrees>36.86812791042029857635498046875</LatitudeDegrees>
              <LongitudeDegrees>-4.39006193540990352630615234375</LongitudeDegrees>
            </Position>
            <AltitudeMeters>886</AltitudeMeters>
            <DistanceMeters>NAN</DistanceMeters>
          </Trackpoint>
          <Trackpoint>
            <Time>2022-06-16T12:50:18.000Z</Time>
            <Position>
              <LatitudeDegrees>36.8681647069752216339111328125</LatitudeDegrees>
              <LongitudeDegrees>-4.39007199369370937347412109375</LongitudeDegrees>
            </Position>
            <AltitudeMeters>885.5999755859375</AltitudeMeters>
            <DistanceMeters>NAN</DistanceMeters>
          </Trackpoint>
          <Trackpoint>
            <Time>2022-06-16T12:50:20.000Z</Time>
            <Position>
              <LatitudeDegrees>36.8681935407221317291259765625</LatitudeDegrees>
              <LongitudeDegrees>-4.3900782801210880279541015625</LongitudeDegrees>
            </Position>
            <AltitudeMeters>885</AltitudeMeters>
            <DistanceMeters>NAN</DistanceMeters>
          </Trackpoint>
          <Trackpoint>
            <Time>2022-06-16T12:50:30.000Z</Time>
            <Position>
              <LatitudeDegrees>36.8683283217251300811767578125</LatitudeDegrees>
              <LongitudeDegrees>-4.39009881578385829925537109375</LongitudeDegrees>
            </Position>
            <AltitudeMeters>883.20001220703125</AltitudeMeters>
            <DistanceMeters>NAN</DistanceMeters>
          </Trackpoint>
          <Trackpoint>
            <Time>2022-06-16T12:50:40.000Z</Time>
            <Position>
              <LatitudeDegrees>36.86847743578255176544189453125</LatitudeDegrees>
              <LongitudeDegrees>-4.39013846218585968017578125</LongitudeDegrees>
            </Position>
            <AltitudeMeters>881.5999755859375</AltitudeMeters>
            <DistanceMeters>NAN</DistanceMeters>
          </Trackpoint>
          <Trackpoint>
            <Time>2022-06-16T12:50:47.000Z</Time>
            <Position>
              <LatitudeDegrees>36.86857164837419986724853515625</LatitudeDegrees>
              <LongitudeDegrees>-4.39016302116215229034423828125</LongitudeDegrees>
            </Position>
            <AltitudeMeters>880.5999755859375</AltitudeMeters>
            <DistanceMeters>NAN</DistanceMeters>
          </Trackpoint>
          <Trackpoint>
            <Time>2022-06-16T12:50:50.000Z</Time>
            <Position>
              <LatitudeDegrees>36.8686186708509922027587890625</LatitudeDegrees>
              <LongitudeDegrees>-4.3901751749217510223388671875</LongitudeDegrees>
            </Position>
            <AltitudeMeters>879.79998779296875</AltitudeMeters>
            <DistanceMeters>NAN</DistanceMeters>
          </Trackpoint>
          <Trackpoint>
            <Time>2022-06-16T12:50:57.000Z</Time>
            <Position>
              <LatitudeDegrees>36.86870969831943511962890625</LatitudeDegrees>
              <LongitudeDegrees>-4.39020208083093166351318359375</LongitudeDegrees>
            </Position>
            <AltitudeMeters>878.4000244140625</AltitudeMeters>
            <DistanceMeters>NAN</DistanceMeters>
          </Trackpoint>
          <Trackpoint>
            <Time>2022-06-16T12:51:00.000Z</Time>
            <Position>
              <LatitudeDegrees>36.86874724924564361572265625</LatitudeDegrees>
              <LongitudeDegrees>-4.390205182135105133056640625</LongitudeDegrees>
            </Position>
            <AltitudeMeters>877.5999755859375</AltitudeMeters>
            <DistanceMeters>NAN</DistanceMeters>
          </Trackpoint>
          <Trackpoint>
            <Time>2022-06-16T12:51:10.000Z</Time>
            <Position>
              <LatitudeDegrees>36.868861578404903411865234375</LatitudeDegrees>
              <LongitudeDegrees>-4.39022831618785858154296875</LongitudeDegrees>
            </Position>
            <AltitudeMeters>876.79998779296875</AltitudeMeters>
            <DistanceMeters>NAN</DistanceMeters>
          </Trackpoint>
          <Trackpoint>
            <Time>2022-06-16T12:51:20.000Z</Time>
            <Position>
              <LatitudeDegrees>36.8689841218292713165283203125</LatitudeDegrees>
              <LongitudeDegrees>-4.39025606028735637664794921875</LongitudeDegrees>
            </Position>
            <AltitudeMeters>875.79998779296875</AltitudeMeters>
            <DistanceMeters>NAN</DistanceMeters>
          </Trackpoint>
          <Trackpoint>
            <Time>2022-06-16T12:51:30.000Z</Time>
            <Position>
              <LatitudeDegrees>36.86911328695714473724365234375</LatitudeDegrees>
              <LongitudeDegrees>-4.39027500338852405548095703125</LongitudeDegrees>
            </Position>
            <AltitudeMeters>876</AltitudeMeters>
            <DistanceMeters>NAN</DistanceMeters>
          </Trackpoint>
          <Trackpoint>
            <Time>2022-06-16T12:51:40.000Z</Time>
            <Position>
              <LatitudeDegrees>36.86922744847834110260009765625</LatitudeDegrees>
              <LongitudeDegrees>-4.3902700580656528472900390625</LongitudeDegrees>
            </Position>
            <AltitudeMeters>876.4000244140625</AltitudeMeters>
            <DistanceMeters>NAN</DistanceMeters>
          </Trackpoint>
          <Trackpoint>
            <Time>2022-06-16T12:51:50.000Z</Time>
            <Position>
              <LatitudeDegrees>36.869341693818569183349609375</LatitudeDegrees>
              <LongitudeDegrees>-4.3902491033077239990234375</LongitudeDegrees>
            </Position>
            <AltitudeMeters>877.79998779296875</AltitudeMeters>
            <DistanceMeters>NAN</DistanceMeters>
          </Trackpoint>
          <Trackpoint>
            <Time>2022-06-16T12:52:00.000Z</Time>
            <Position>
              <LatitudeDegrees>36.86947471462190151214599609375</LatitudeDegrees>
              <LongitudeDegrees>-4.3902526237070560455322265625</LongitudeDegrees>
            </Position>
            <AltitudeMeters>879.20001220703125</AltitudeMeters>
            <DistanceMeters>NAN</DistanceMeters>
          </Trackpoint>
          <Trackpoint>
            <Time>2022-06-16T12:52:10.000Z</Time>
            <Position>
              <LatitudeDegrees>36.86959507875144481658935546875</LatitudeDegrees>
              <LongitudeDegrees>-4.39023057930171489715576171875</LongitudeDegrees>
            </Position>
            <AltitudeMeters>879.4000244140625</AltitudeMeters>
            <DistanceMeters>NAN</DistanceMeters>
          </Trackpoint>
          <Trackpoint>
            <Time>2022-06-16T12:52:20.000Z</Time>
            <Position>
              <LatitudeDegrees>36.86969398520886898040771484375</LatitudeDegrees>
              <LongitudeDegrees>-4.3902247957885265350341796875</LongitudeDegrees>
            </Position>
            <AltitudeMeters>879.20001220703125</AltitudeMeters>
            <DistanceMeters>NAN</DistanceMeters>
          </Trackpoint>
          <Trackpoint>
            <Time>2022-06-16T12:52:30.000Z</Time>
            <Position>
              <LatitudeDegrees>36.8698441050946712493896484375</LatitudeDegrees>
              <LongitudeDegrees>-4.390203170478343963623046875</LongitudeDegrees>
            </Position>
            <AltitudeMeters>878.79998779296875</AltitudeMeters>
            <DistanceMeters>NAN</DistanceMeters>
          </Trackpoint>
          <Trackpoint>
            <Time>2022-06-16T12:52:40.000Z</Time>
            <Position>
              <LatitudeDegrees>36.86995918862521648406982421875</LatitudeDegrees>
              <LongitudeDegrees>-4.3901600874960422515869140625</LongitudeDegrees>
            </Position>
            <AltitudeMeters>879.20001220703125</AltitudeMeters>
            <DistanceMeters>NAN</DistanceMeters>
          </Trackpoint>
          <Trackpoint>
            <Time>2022-06-16T12:52:50.000Z</Time>
            <Position>
              <LatitudeDegrees>36.87009111978113651275634765625</LatitudeDegrees>
              <LongitudeDegrees>-4.39006092958152294158935546875</LongitudeDegrees>
            </Position>
            <AltitudeMeters>877.79998779296875</AltitudeMeters>
            <DistanceMeters>NAN</DistanceMeters>
          </Trackpoint>
          <Trackpoint>
            <Time>2022-06-16T12:52:59.000Z</Time>
            <Position>
              <LatitudeDegrees>36.87018357217311859130859375</LatitudeDegrees>
              <LongitudeDegrees>-4.389987923204898834228515625</LongitudeDegrees>
            </Position>
            <AltitudeMeters>875.4000244140625</AltitudeMeters>
            <DistanceMeters>NAN</DistanceMeters>
          </Trackpoint>
          <Trackpoint>
            <Time>2022-06-16T12:53:00.000Z</Time>
            <Position>
              <LatitudeDegrees>36.87019203789532184600830078125</LatitudeDegrees>
              <LongitudeDegrees>-4.3899793736636638641357421875</LongitudeDegrees>
            </Position>
            <AltitudeMeters>875</AltitudeMeters>
            <DistanceMeters>NAN</DistanceMeters>
          </Trackpoint>
          <Trackpoint>
            <Time>2022-06-16T12:53:07.000Z</Time>
            <Position>
              <LatitudeDegrees>36.8702632002532482147216796875</LatitudeDegrees>
              <LongitudeDegrees>-4.389923550188541412353515625</LongitudeDegrees>
            </Position>
            <AltitudeMeters>873</AltitudeMeters>
            <DistanceMeters>NAN</DistanceMeters>
          </Trackpoint>
          <Trackpoint>
            <Time>2022-06-16T12:53:10.000Z</Time>
            <Position>
              <LatitudeDegrees>36.87029865570366382598876953125</LatitudeDegrees>
              <LongitudeDegrees>-4.38990519382059574127197265625</LongitudeDegrees>
            </Position>
            <AltitudeMeters>872.20001220703125</AltitudeMeters>
            <DistanceMeters>NAN</DistanceMeters>
          </Trackpoint>
          <Trackpoint>
            <Time>2022-06-16T12:53:20.000Z</Time>
            <Position>
              <LatitudeDegrees>36.87042857520282268524169921875</LatitudeDegrees>
              <LongitudeDegrees>-4.3898925371468067169189453125</LongitudeDegrees>
            </Position>
            <AltitudeMeters>871</AltitudeMeters>
            <DistanceMeters>NAN</DistanceMeters>
          </Trackpoint>
          <Trackpoint>
            <Time>2022-06-16T12:53:30.000Z</Time>
            <Position>
              <LatitudeDegrees>36.8705676309764385223388671875</LatitudeDegrees>
              <LongitudeDegrees>-4.389949701726436614990234375</LongitudeDegrees>
            </Position>
            <AltitudeMeters>872.5999755859375</AltitudeMeters>
            <DistanceMeters>NAN</DistanceMeters>
          </Trackpoint>
          <Trackpoint>
            <Time>2022-06-16T12:53:40.000Z</Time>
            <Position>
              <LatitudeDegrees>36.87066611833870410919189453125</LatitudeDegrees>
              <LongitudeDegrees>-4.39005036838352680206298828125</LongitudeDegrees>
            </Position>
            <AltitudeMeters>874.4000244140625</AltitudeMeters>
            <DistanceMeters>NAN</DistanceMeters>
          </Trackpoint>
          <Trackpoint>
            <Time>2022-06-16T12:53:50.000Z</Time>
            <Position>
              <LatitudeDegrees>36.8707691319286823272705078125</LatitudeDegrees>
              <LongitudeDegrees>-4.39012144692242145538330078125</LongitudeDegrees>
            </Position>
            <AltitudeMeters>874.20001220703125</AltitudeMeters>
            <DistanceMeters>NAN</DistanceMeters>
          </Trackpoint>
          <Trackpoint>
            <Time>2022-06-16T12:54:00.000Z</Time>
            <Position>
              <LatitudeDegrees>36.8708848021924495697021484375</LatitudeDegrees>
              <LongitudeDegrees>-4.39017601311206817626953125</LongitudeDegrees>
            </Position>
            <AltitudeMeters>871.20001220703125</AltitudeMeters>
            <DistanceMeters>NAN</DistanceMeters>
          </Trackpoint>
          <Trackpoint>
            <Time>2022-06-16T12:54:10.000Z</Time>
            <Position>
              <LatitudeDegrees>36.87100156210362911224365234375</LatitudeDegrees>
              <LongitudeDegrees>-4.39020325429737567901611328125</LongitudeDegrees>
            </Position>
            <AltitudeMeters>868.20001220703125</AltitudeMeters>
            <DistanceMeters>NAN</DistanceMeters>
          </Trackpoint>
          <Trackpoint>
            <Time>2022-06-16T12:54:20.000Z</Time>
            <Position>
              <LatitudeDegrees>36.871103905141353607177734375</LatitudeDegrees>
              <LongitudeDegrees>-4.3902757577598094940185546875</LongitudeDegrees>
            </Position>
            <AltitudeMeters>865.20001220703125</AltitudeMeters>
            <DistanceMeters>NAN</DistanceMeters>
          </Trackpoint>
          <Trackpoint>
            <Time>2022-06-16T12:54:28.000Z</Time>
            <Position>
              <LatitudeDegrees>36.8711433000862598419189453125</LatitudeDegrees>
              <LongitudeDegrees>-4.39038480632007122039794921875</LongitudeDegrees>
            </Position>
            <AltitudeMeters>862.4000244140625</AltitudeMeters>
            <DistanceMeters>NAN</DistanceMeters>
          </Trackpoint>
          <Trackpoint>
            <Time>2022-06-16T12:54:30.000Z</Time>
            <Position>
              <LatitudeDegrees>36.87113969586789608001708984375</LatitudeDegrees>
              <LongitudeDegrees>-4.39041749574244022369384765625</LongitudeDegrees>
            </Position>
            <AltitudeMeters>861.79998779296875</AltitudeMeters>
            <DistanceMeters>NAN</DistanceMeters>
          </Trackpoint>
          <Trackpoint>
            <Time>2022-06-16T12:54:40.000Z</Time>
            <Position>
              <LatitudeDegrees>36.87108119018375873565673828125</LatitudeDegrees>
              <LongitudeDegrees>-4.390559233725070953369140625</LongitudeDegrees>
            </Position>
            <AltitudeMeters>860.79998779296875</AltitudeMeters>
            <DistanceMeters>NAN</DistanceMeters>
          </Trackpoint>
          <Trackpoint>
            <Time>2022-06-16T12:54:50.000Z</Time>
            <Position>
              <LatitudeDegrees>36.87098463065922260284423828125</LatitudeDegrees>
              <LongitudeDegrees>-4.39065277576446533203125</LongitudeDegrees>
            </Position>
            <AltitudeMeters>862</AltitudeMeters>
            <DistanceMeters>NAN</DistanceMeters>
          </Trackpoint>
          <Trackpoint>
            <Time>2022-06-16T12:55:00.000Z</Time>
            <Position>
              <LatitudeDegrees>36.87088253907859325408935546875</LatitudeDegrees>
              <LongitudeDegrees>-4.390746988356113433837890625</LongitudeDegrees>
            </Position>
            <AltitudeMeters>863.79998779296875</AltitudeMeters>
            <DistanceMeters>NAN</DistanceMeters>
          </Trackpoint>
          <Trackpoint>
            <Time>2022-06-16T12:55:10.000Z</Time>
            <Position>
              <LatitudeDegrees>36.87078614719212055206298828125</LatitudeDegrees>
              <LongitudeDegrees>-4.39080574549734592437744140625</LongitudeDegrees>
            </Position>
            <AltitudeMeters>866.4000244140625</AltitudeMeters>
            <DistanceMeters>NAN</DistanceMeters>
          </Trackpoint>
          <Trackpoint>
            <Time>2022-06-16T12:55:16.000Z</Time>
            <Position>
              <LatitudeDegrees>36.87074054963886737823486328125</LatitudeDegrees>
              <LongitudeDegrees>-4.39086542464792728424072265625</LongitudeDegrees>
            </Position>
            <AltitudeMeters>867.5999755859375</AltitudeMeters>
            <DistanceMeters>NAN</DistanceMeters>
          </Trackpoint>
          <Trackpoint>
            <Time>2022-06-16T12:55:19.000Z</Time>
            <Position>
              <LatitudeDegrees>36.870726048946380615234375</LatitudeDegrees>
              <LongitudeDegrees>-4.39090934582054615020751953125</LongitudeDegrees>
            </Position>
            <AltitudeMeters>867.79998779296875</AltitudeMeters>
            <DistanceMeters>NAN</DistanceMeters>
          </Trackpoint>
          <Trackpoint>
            <Time>2022-06-16T12:55:20.000Z</Time>
            <Position>
              <LatitudeDegrees>36.87072982080280780792236328125</LatitudeDegrees>
              <LongitudeDegrees>-4.39092694781720638275146484375</LongitudeDegrees>
            </Position>
            <AltitudeMeters>867.5999755859375</AltitudeMeters>
            <DistanceMeters>NAN</DistanceMeters>
          </Trackpoint>
          <Trackpoint>
            <Time>2022-06-16T12:55:30.000Z</Time>
            <Position>
              <LatitudeDegrees>36.87077692709863185882568359375</LatitudeDegrees>
              <LongitudeDegrees>-4.3911186419427394866943359375</LongitudeDegrees>
            </Position>
            <AltitudeMeters>865.20001220703125</AltitudeMeters>
            <DistanceMeters>NAN</DistanceMeters>
          </Trackpoint>
          <Trackpoint>
            <Time>2022-06-16T12:55:40.000Z</Time>
            <Position>
              <LatitudeDegrees>36.870853118598461151123046875</LatitudeDegrees>
              <LongitudeDegrees>-4.3912983499467372894287109375</LongitudeDegrees>
            </Position>
            <AltitudeMeters>864</AltitudeMeters>
            <DistanceMeters>NAN</DistanceMeters>
          </Trackpoint>
          <Trackpoint>
            <Time>2022-06-16T12:55:50.000Z</Time>
            <Position>
              <LatitudeDegrees>36.8709344230592250823974609375</LatitudeDegrees>
              <LongitudeDegrees>-4.39144494943320751190185546875</LongitudeDegrees>
            </Position>
            <AltitudeMeters>863</AltitudeMeters>
            <DistanceMeters>NAN</DistanceMeters>
          </Trackpoint>
          <Trackpoint>
            <Time>2022-06-16T12:56:00.000Z</Time>
            <Position>
              <LatitudeDegrees>36.87100089155137538909912109375</LatitudeDegrees>
              <LongitudeDegrees>-4.3915625475347042083740234375</LongitudeDegrees>
            </Position>
            <AltitudeMeters>861.5999755859375</AltitudeMeters>
            <DistanceMeters>NAN</DistanceMeters>
          </Trackpoint>
          <Trackpoint>
            <Time>2022-06-16T12:56:10.000Z</Time>
            <Position>
              <LatitudeDegrees>36.8710661865770816802978515625</LatitudeDegrees>
              <LongitudeDegrees>-4.391652233898639678955078125</LongitudeDegrees>
            </Position>
            <AltitudeMeters>860</AltitudeMeters>
            <DistanceMeters>NAN</DistanceMeters>
          </Trackpoint>
          <Trackpoint>
            <Time>2022-06-16T12:56:20.000Z</Time>
            <Position>
              <LatitudeDegrees>36.87119518406689167022705078125</LatitudeDegrees>
              <LongitudeDegrees>-4.39172524027526378631591796875</LongitudeDegrees>
            </Position>
            <AltitudeMeters>855.4000244140625</AltitudeMeters>
            <DistanceMeters>NAN</DistanceMeters>
          </Trackpoint>
          <Trackpoint>
            <Time>2022-06-16T12:56:30.000Z</Time>
            <Position>
              <LatitudeDegrees>36.8713146261870861053466796875</LatitudeDegrees>
              <LongitudeDegrees>-4.39178441651165485382080078125</LongitudeDegrees>
            </Position>
            <AltitudeMeters>850.4000244140625</AltitudeMeters>
            <DistanceMeters>NAN</DistanceMeters>
          </Trackpoint>
          <Trackpoint>
            <Time>2022-06-16T12:56:40.000Z</Time>
            <Position>
              <LatitudeDegrees>36.8714328110218048095703125</LatitudeDegrees>
              <LongitudeDegrees>-4.3918307684361934661865234375</LongitudeDegrees>
            </Position>
            <AltitudeMeters>845.20001220703125</AltitudeMeters>
            <DistanceMeters>NAN</DistanceMeters>
          </Trackpoint>
          <Trackpoint>
            <Time>2022-06-16T12:56:50.000Z</Time>
            <Position>
              <LatitudeDegrees>36.871542446315288543701171875</LatitudeDegrees>
              <LongitudeDegrees>-4.39189757220447063446044921875</LongitudeDegrees>
            </Position>
            <AltitudeMeters>841.79998779296875</AltitudeMeters>
            <DistanceMeters>NAN</DistanceMeters>
          </Trackpoint>
          <Trackpoint>
            <Time>2022-06-16T12:57:00.000Z</Time>
            <Position>
              <LatitudeDegrees>36.8716472201049327850341796875</LatitudeDegrees>
              <LongitudeDegrees>-4.3919732607901096343994140625</LongitudeDegrees>
            </Position>
            <AltitudeMeters>840.4000244140625</AltitudeMeters>
            <DistanceMeters>NAN</DistanceMeters>
          </Trackpoint>
          <Trackpoint>
            <Time>2022-06-16T12:57:10.000Z</Time>
            <Position>
              <LatitudeDegrees>36.87175760976970195770263671875</LatitudeDegrees>
              <LongitudeDegrees>-4.39204283058643341064453125</LongitudeDegrees>
            </Position>
            <AltitudeMeters>838.20001220703125</AltitudeMeters>
            <DistanceMeters>NAN</DistanceMeters>
          </Trackpoint>
          <Trackpoint>
            <Time>2022-06-16T12:57:20.000Z</Time>
            <Position>
              <LatitudeDegrees>36.87186875380575656890869140625</LatitudeDegrees>
              <LongitudeDegrees>-4.39210988581180572509765625</LongitudeDegrees>
            </Position>
            <AltitudeMeters>837.20001220703125</AltitudeMeters>
            <DistanceMeters>NAN</DistanceMeters>
          </Trackpoint>
          <Trackpoint>
            <Time>2022-06-16T12:57:30.000Z</Time>
            <Position>
              <LatitudeDegrees>36.87198408879339694976806640625</LatitudeDegrees>
              <LongitudeDegrees>-4.3921749293804168701171875</LongitudeDegrees>
            </Position>
            <AltitudeMeters>837.20001220703125</AltitudeMeters>
            <DistanceMeters>NAN</DistanceMeters>
          </Trackpoint>
          <Trackpoint>
            <Time>2022-06-16T12:57:40.000Z</Time>
            <Position>
              <LatitudeDegrees>36.8721020221710205078125</LatitudeDegrees>
              <LongitudeDegrees>-4.39222781918942928314208984375</LongitudeDegrees>
            </Position>
            <AltitudeMeters>836.4000244140625</AltitudeMeters>
            <DistanceMeters>NAN</DistanceMeters>
          </Trackpoint>
          <Trackpoint>
            <Time>2022-06-16T12:57:50.000Z</Time>
            <Position>
              <LatitudeDegrees>36.8722071312367916107177734375</LatitudeDegrees>
              <LongitudeDegrees>-4.39231247641146183013916015625</LongitudeDegrees>
            </Position>
            <AltitudeMeters>835.4000244140625</AltitudeMeters>
            <DistanceMeters>NAN</DistanceMeters>
          </Trackpoint>
          <Trackpoint>
            <Time>2022-06-16T12:58:00.000Z</Time>
            <Position>
              <LatitudeDegrees>36.8723492883145809173583984375</LatitudeDegrees>
              <LongitudeDegrees>-4.3923380412161350250244140625</LongitudeDegrees>
            </Position>
            <AltitudeMeters>835.4000244140625</AltitudeMeters>
            <DistanceMeters>NAN</DistanceMeters>
          </Trackpoint>
          <Trackpoint>
            <Time>2022-06-16T12:58:10.000Z</Time>
            <Position>
              <LatitudeDegrees>36.87246554531157016754150390625</LatitudeDegrees>
              <LongitudeDegrees>-4.3923826329410076141357421875</LongitudeDegrees>
            </Position>
            <AltitudeMeters>835.4000244140625</AltitudeMeters>
            <DistanceMeters>NAN</DistanceMeters>
          </Trackpoint>
          <Trackpoint>
            <Time>2022-06-16T12:58:20.000Z</Time>
            <Position>
              <LatitudeDegrees>36.872561685740947723388671875</LatitudeDegrees>
              <LongitudeDegrees>-4.39242194406688213348388671875</LongitudeDegrees>
            </Position>
            <AltitudeMeters>835.5999755859375</AltitudeMeters>
            <DistanceMeters>NAN</DistanceMeters>
          </Trackpoint>
          <Trackpoint>
            <Time>2022-06-16T12:58:30.000Z</Time>
            <Position>
              <LatitudeDegrees>36.87258976511657238006591796875</LatitudeDegrees>
              <LongitudeDegrees>-4.3924349360167980194091796875</LongitudeDegrees>
            </Position>
            <AltitudeMeters>835.79998779296875</AltitudeMeters>
            <DistanceMeters>NAN</DistanceMeters>
          </Trackpoint>
          <Trackpoint>
            <Time>2022-06-16T12:58:40.000Z</Time>
            <Position>
              <LatitudeDegrees>36.87259395606815814971923828125</LatitudeDegrees>
              <LongitudeDegrees>-4.3924315832555294036865234375</LongitudeDegrees>
            </Position>
            <AltitudeMeters>835.79998779296875</AltitudeMeters>
            <DistanceMeters>NAN</DistanceMeters>
          </Trackpoint>
          <Trackpoint>
            <Time>2022-06-16T12:58:50.000Z</Time>
            <Position>
              <LatitudeDegrees>36.8725977279245853424072265625</LatitudeDegrees>
              <LongitudeDegrees>-4.39243451692163944244384765625</LongitudeDegrees>
            </Position>
            <AltitudeMeters>835.79998779296875</AltitudeMeters>
            <DistanceMeters>NAN</DistanceMeters>
          </Trackpoint>
          <Trackpoint>
            <Time>2022-06-16T12:59:00.000Z</Time>
            <Position>
              <LatitudeDegrees>36.8726057745516300201416015625</LatitudeDegrees>
              <LongitudeDegrees>-4.39243719913065433502197265625</LongitudeDegrees>
            </Position>
            <AltitudeMeters>835.79998779296875</AltitudeMeters>
            <DistanceMeters>NAN</DistanceMeters>
          </Trackpoint>
          <Trackpoint>
            <Time>2022-06-16T12:59:10.000Z</Time>
            <Position>
              <LatitudeDegrees>36.87261356972157955169677734375</LatitudeDegrees>
              <LongitudeDegrees>-4.392478354275226593017578125</LongitudeDegrees>
            </Position>
            <AltitudeMeters>835.79998779296875</AltitudeMeters>
            <DistanceMeters>NAN</DistanceMeters>
          </Trackpoint>
          <Trackpoint>
            <Time>2022-06-16T12:59:20.000Z</Time>
            <Position>
              <LatitudeDegrees>36.87259546481072902679443359375</LatitudeDegrees>
              <LongitudeDegrees>-4.39244893379509449005126953125</LongitudeDegrees>
            </Position>
            <AltitudeMeters>835.79998779296875</AltitudeMeters>
            <DistanceMeters>NAN</DistanceMeters>
          </Trackpoint>
          <Trackpoint>
            <Time>2022-06-16T12:59:25.000Z</Time>
            <Position>
              <LatitudeDegrees>36.8725886754691600799560546875</LatitudeDegrees>
              <LongitudeDegrees>-4.39241440035402774810791015625</LongitudeDegrees>
            </Position>
            <AltitudeMeters>835.5999755859375</AltitudeMeters>
            <DistanceMeters>NAN</DistanceMeters>
          </Trackpoint>
          <Trackpoint>
            <Time>2022-06-16T12:59:26.000Z</Time>
            <Position>
              <LatitudeDegrees>36.872587166726589202880859375</LatitudeDegrees>
              <LongitudeDegrees>-4.39240920357406139373779296875</LongitudeDegrees>
            </Position>
            <AltitudeMeters>835.5999755859375</AltitudeMeters>
            <DistanceMeters>NAN</DistanceMeters>
          </Trackpoint>
          <Trackpoint>
            <Time>2022-06-16T12:59:30.000Z</Time>
            <Position>
              <LatitudeDegrees>36.8725834786891937255859375</LatitudeDegrees>
              <LongitudeDegrees>-4.39240132458508014678955078125</LongitudeDegrees>
            </Position>
            <AltitudeMeters>835.5999755859375</AltitudeMeters>
            <DistanceMeters>NAN</DistanceMeters>
          </Trackpoint>
          <Trackpoint>
            <Time>2022-06-16T12:59:32.000Z</Time>
            <Position>
              <LatitudeDegrees>36.87257769517600536346435546875</LatitudeDegrees>
              <LongitudeDegrees>-4.39239881001412868499755859375</LongitudeDegrees>
            </Position>
            <AltitudeMeters>835.4000244140625</AltitudeMeters>
            <DistanceMeters>NAN</DistanceMeters>
          </Trackpoint>
          <Trackpoint>
            <Time>2022-06-16T12:59:33.000Z</Time>
            <Position>
              <LatitudeDegrees>36.8725779466331005096435546875</LatitudeDegrees>
              <LongitudeDegrees>-4.39239931292831897735595703125</LongitudeDegrees>
            </Position>
            <AltitudeMeters>835.4000244140625</AltitudeMeters>
            <DistanceMeters>NAN</DistanceMeters>
          </Trackpoint>
          <Trackpoint>
            <Time>2022-06-16T12:59:36.000Z</Time>
            <Position>
              <LatitudeDegrees>36.87257945537567138671875</LatitudeDegrees>
              <LongitudeDegrees>-4.39239554107189178466796875</LongitudeDegrees>
            </Position>
            <AltitudeMeters>835.4000244140625</AltitudeMeters>
            <DistanceMeters>NAN</DistanceMeters>
          </Trackpoint>
          <Trackpoint>
            <Time>2022-06-16T12:59:38.000Z</Time>
            <Position>
              <LatitudeDegrees>36.872577778995037078857421875</LatitudeDegrees>
              <LongitudeDegrees>-4.3923950381577014923095703125</LongitudeDegrees>
            </Position>
            <AltitudeMeters>835.4000244140625</AltitudeMeters>
            <DistanceMeters>NAN</DistanceMeters>
          </Trackpoint>
          <Trackpoint>
            <Time>2022-06-16T12:59:40.000Z</Time>
            <Position>
              <LatitudeDegrees>36.8725759349763393402099609375</LatitudeDegrees>
              <LongitudeDegrees>-4.39239554107189178466796875</LongitudeDegrees>
            </Position>
            <AltitudeMeters>835.4000244140625</AltitudeMeters>
            <DistanceMeters>NAN</DistanceMeters>
          </Trackpoint>
          <Trackpoint>
            <Time>2022-06-16T12:59:43.000Z</Time>
            <Position>
              <LatitudeDegrees>36.87257451005280017852783203125</LatitudeDegrees>
              <LongitudeDegrees>-4.39239797182381153106689453125</LongitudeDegrees>
            </Position>
            <AltitudeMeters>835.4000244140625</AltitudeMeters>
            <DistanceMeters>NAN</DistanceMeters>
          </Trackpoint>
          <Trackpoint>
            <Time>2022-06-16T12:59:46.000Z</Time>
            <Position>
              <LatitudeDegrees>36.87257350422441959381103515625</LatitudeDegrees>
              <LongitudeDegrees>-4.39239746890962123870849609375</LongitudeDegrees>
            </Position>
            <AltitudeMeters>835.4000244140625</AltitudeMeters>
            <DistanceMeters>NAN</DistanceMeters>
          </Trackpoint>
          <Trackpoint>
            <Time>2022-06-16T12:59:50.000Z</Time>
            <Position>
              <LatitudeDegrees>36.8725742585957050323486328125</LatitudeDegrees>
              <LongitudeDegrees>-4.392398558557033538818359375</LongitudeDegrees>
            </Position>
            <AltitudeMeters>835.4000244140625</AltitudeMeters>
            <DistanceMeters>NAN</DistanceMeters>
          </Trackpoint>
          <Trackpoint>
            <Time>2022-06-16T12:59:52.000Z</Time>
            <Position>
              <LatitudeDegrees>36.872571744024753570556640625</LatitudeDegrees>
              <LongitudeDegrees>-4.3923997320234775543212890625</LongitudeDegrees>
            </Position>
            <AltitudeMeters>835.4000244140625</AltitudeMeters>
            <DistanceMeters>NAN</DistanceMeters>
          </Trackpoint>
          <Trackpoint>
            <Time>2022-06-16T12:59:58.000Z</Time>
            <Position>
              <LatitudeDegrees>36.87257383950054645538330078125</LatitudeDegrees>
              <LongitudeDegrees>-4.39239696599543094635009765625</LongitudeDegrees>
            </Position>
            <AltitudeMeters>835.4000244140625</AltitudeMeters>
            <DistanceMeters>NAN</DistanceMeters>
          </Trackpoint>
          <Trackpoint>
            <Time>2022-06-16T13:00:00.000Z</Time>
            <Position>
              <LatitudeDegrees>36.872575096786022186279296875</LatitudeDegrees>
              <LongitudeDegrees>-4.3923953734338283538818359375</LongitudeDegrees>
            </Position>
            <AltitudeMeters>835.4000244140625</AltitudeMeters>
            <DistanceMeters>NAN</DistanceMeters>
          </Trackpoint>
          <Trackpoint>
            <Time>2022-06-16T13:00:10.000Z</Time>
            <Position>
              <LatitudeDegrees>36.87257585115730762481689453125</LatitudeDegrees>
              <LongitudeDegrees>-4.39239646308124065399169921875</LongitudeDegrees>
            </Position>
            <AltitudeMeters>835.4000244140625</AltitudeMeters>
            <DistanceMeters>NAN</DistanceMeters>
          </Trackpoint>
          <Trackpoint>
            <Time>2022-06-16T13:00:20.000Z</Time>
            <Position>
              <LatitudeDegrees>36.87257383950054645538330078125</LatitudeDegrees>
              <LongitudeDegrees>-4.39239797182381153106689453125</LongitudeDegrees>
            </Position>
            <AltitudeMeters>835.4000244140625</AltitudeMeters>
            <DistanceMeters>NAN</DistanceMeters>
          </Trackpoint>
          <Trackpoint>
            <Time>2022-06-16T13:00:25.000Z</Time>
            <Position>
              <LatitudeDegrees>36.872571744024753570556640625</LatitudeDegrees>
              <LongitudeDegrees>-4.39239847473800182342529296875</LongitudeDegrees>
            </Position>
            <AltitudeMeters>835.4000244140625</AltitudeMeters>
            <DistanceMeters>NAN</DistanceMeters>
          </Trackpoint>
          <Trackpoint>
            <Time>2022-06-16T13:00:30.000Z</Time>
            <Position>
              <LatitudeDegrees>36.872563026845455169677734375</LatitudeDegrees>
              <LongitudeDegrees>-4.392396546900272369384765625</LongitudeDegrees>
            </Position>
            <AltitudeMeters>835.4000244140625</AltitudeMeters>
            <DistanceMeters>NAN</DistanceMeters>
          </Trackpoint>
          <Trackpoint>
            <Time>2022-06-16T13:00:39.000Z</Time>
            <Position>
              <LatitudeDegrees>36.87256143428385257720947265625</LatitudeDegrees>
              <LongitudeDegrees>-4.3923975527286529541015625</LongitudeDegrees>
            </Position>
            <AltitudeMeters>835.4000244140625</AltitudeMeters>
            <DistanceMeters>NAN</DistanceMeters>
          </Trackpoint>
          <Trackpoint>
            <Time>2022-06-16T13:00:40.000Z</Time>
            <Position>
              <LatitudeDegrees>36.8725608475506305694580078125</LatitudeDegrees>
              <LongitudeDegrees>-4.39239797182381153106689453125</LongitudeDegrees>
            </Position>
            <AltitudeMeters>835.4000244140625</AltitudeMeters>
            <DistanceMeters>NAN</DistanceMeters>
          </Trackpoint>
          <Trackpoint>
            <Time>2022-06-16T13:00:49.000Z</Time>
            <Position>
              <LatitudeDegrees>36.87255489639937877655029296875</LatitudeDegrees>
              <LongitudeDegrees>-4.39239143393933773040771484375</LongitudeDegrees>
            </Position>
            <AltitudeMeters>835.4000244140625</AltitudeMeters>
            <DistanceMeters>NAN</DistanceMeters>
          </Trackpoint>
          <Trackpoint>
            <Time>2022-06-16T13:00:50.000Z</Time>
            <Position>
              <LatitudeDegrees>36.87255238182842731475830078125</LatitudeDegrees>
              <LongitudeDegrees>-4.39238875173032283782958984375</LongitudeDegrees>
            </Position>
            <AltitudeMeters>835.4000244140625</AltitudeMeters>
            <DistanceMeters>NAN</DistanceMeters>
          </Trackpoint>
          <Trackpoint>
            <Time>2022-06-16T13:01:00.000Z</Time>
            <Position>
              <LatitudeDegrees>36.87257752753794193267822265625</LatitudeDegrees>
              <LongitudeDegrees>-4.39242546446621417999267578125</LongitudeDegrees>
            </Position>
            <AltitudeMeters>835.5999755859375</AltitudeMeters>
            <DistanceMeters>NAN</DistanceMeters>
          </Trackpoint>
          <Trackpoint>
            <Time>2022-06-16T13:01:04.000Z</Time>
            <Position>
              <LatitudeDegrees>36.87259479425847530364990234375</LatitudeDegrees>
              <LongitudeDegrees>-4.392468295991420745849609375</LongitudeDegrees>
            </Position>
            <AltitudeMeters>836</AltitudeMeters>
            <DistanceMeters>NAN</DistanceMeters>
          </Trackpoint>
          <Trackpoint>
            <Time>2022-06-16T13:01:06.000Z</Time>
            <Position>
              <LatitudeDegrees>36.87259496189653873443603515625</LatitudeDegrees>
              <LongitudeDegrees>-4.39249302260577678680419921875</LongitudeDegrees>
            </Position>
            <AltitudeMeters>835.5999755859375</AltitudeMeters>
            <DistanceMeters>NAN</DistanceMeters>
          </Trackpoint>
          <Trackpoint>
            <Time>2022-06-16T13:01:07.000Z</Time>
            <Position>
              <LatitudeDegrees>36.872593201696872711181640625</LatitudeDegrees>
              <LongitudeDegrees>-4.3925040028989315032958984375</LongitudeDegrees>
            </Position>
            <AltitudeMeters>835.4000244140625</AltitudeMeters>
            <DistanceMeters>NAN</DistanceMeters>
          </Trackpoint>
          <Trackpoint>
            <Time>2022-06-16T13:01:10.000Z</Time>
            <Position>
              <LatitudeDegrees>36.87259898521006107330322265625</LatitudeDegrees>
              <LongitudeDegrees>-4.39251699484884738922119140625</LongitudeDegrees>
            </Position>
            <AltitudeMeters>835.20001220703125</AltitudeMeters>
            <DistanceMeters>NAN</DistanceMeters>
          </Trackpoint>
          <Trackpoint>
            <Time>2022-06-16T13:01:11.000Z</Time>
            <Position>
              <LatitudeDegrees>36.8726000748574733734130859375</LatitudeDegrees>
              <LongitudeDegrees>-4.39252001233398914337158203125</LongitudeDegrees>
            </Position>
            <AltitudeMeters>835.20001220703125</AltitudeMeters>
            <DistanceMeters>NAN</DistanceMeters>
          </Trackpoint>
          <Trackpoint>
            <Time>2022-06-16T13:01:12.000Z</Time>
            <Position>
              <LatitudeDegrees>36.87260158360004425048828125</LatitudeDegrees>
              <LongitudeDegrees>-4.392523281276226043701171875</LongitudeDegrees>
            </Position>
            <AltitudeMeters>835</AltitudeMeters>
            <DistanceMeters>NAN</DistanceMeters>
          </Trackpoint>
          <Trackpoint>
            <Time>2022-06-16T13:01:17.000Z</Time>
            <Position>
              <LatitudeDegrees>36.87258205376565456390380859375</LatitudeDegrees>
              <LongitudeDegrees>-4.3925371952354907989501953125</LongitudeDegrees>
            </Position>
            <AltitudeMeters>834.79998779296875</AltitudeMeters>
            <DistanceMeters>NAN</DistanceMeters>
          </Trackpoint>
          <Trackpoint>
            <Time>2022-06-16T13:01:19.000Z</Time>
            <Position>
              <LatitudeDegrees>36.87257551588118076324462890625</LatitudeDegrees>
              <LongitudeDegrees>-4.39253660850226879119873046875</LongitudeDegrees>
            </Position>
            <AltitudeMeters>834.79998779296875</AltitudeMeters>
            <DistanceMeters>NAN</DistanceMeters>
          </Trackpoint>
          <Trackpoint>
            <Time>2022-06-16T13:01:20.000Z</Time>
            <Position>
              <LatitudeDegrees>36.87257568351924419403076171875</LatitudeDegrees>
              <LongitudeDegrees>-4.39253811724483966827392578125</LongitudeDegrees>
            </Position>
            <AltitudeMeters>834.79998779296875</AltitudeMeters>
            <DistanceMeters>NAN</DistanceMeters>
          </Trackpoint>
          <Trackpoint>
            <Time>2022-06-16T13:01:23.000Z</Time>
            <Position>
              <LatitudeDegrees>36.872575096786022186279296875</LatitudeDegrees>
              <LongitudeDegrees>-4.3925412185490131378173828125</LongitudeDegrees>
            </Position>
            <AltitudeMeters>834.79998779296875</AltitudeMeters>
            <DistanceMeters>NAN</DistanceMeters>
          </Trackpoint>
          <Trackpoint>
            <Time>2022-06-16T13:01:30.000Z</Time>
            <Position>
              <LatitudeDegrees>36.87257836572825908660888671875</LatitudeDegrees>
              <LongitudeDegrees>-4.39255923964083194732666015625</LongitudeDegrees>
            </Position>
            <AltitudeMeters>834.4000244140625</AltitudeMeters>
            <DistanceMeters>NAN</DistanceMeters>
          </Trackpoint>
          <Trackpoint>
            <Time>2022-06-16T13:01:37.000Z</Time>
            <Position>
              <LatitudeDegrees>36.8725957162678241729736328125</LatitudeDegrees>
              <LongitudeDegrees>-4.39254633150994777679443359375</LongitudeDegrees>
            </Position>
            <AltitudeMeters>834.5999755859375</AltitudeMeters>
            <DistanceMeters>NAN</DistanceMeters>
          </Trackpoint>
          <Trackpoint>
            <Time>2022-06-16T13:01:42.000Z</Time>
            <Position>
              <LatitudeDegrees>36.87260904349386692047119140625</LatitudeDegrees>
              <LongitudeDegrees>-4.3925477564334869384765625</LongitudeDegrees>
            </Position>
            <AltitudeMeters>834.5999755859375</AltitudeMeters>
            <DistanceMeters>NAN</DistanceMeters>
          </Trackpoint>
          <Trackpoint>
            <Time>2022-06-16T13:01:52.000Z</Time>
            <Position>
              <LatitudeDegrees>36.87260669656097888946533203125</LatitudeDegrees>
              <LongitudeDegrees>-4.3925571441650390625</LongitudeDegrees>
            </Position>
            <AltitudeMeters>834.4000244140625</AltitudeMeters>
            <DistanceMeters>NAN</DistanceMeters>
          </Trackpoint>
          <Trackpoint>
            <Time>2022-06-16T13:02:02.000Z</Time>
            <Position>
              <LatitudeDegrees>36.87260451726615428924560546875</LatitudeDegrees>
              <LongitudeDegrees>-4.39256108365952968597412109375</LongitudeDegrees>
            </Position>
            <AltitudeMeters>834.4000244140625</AltitudeMeters>
            <DistanceMeters>NAN</DistanceMeters>
          </Trackpoint>
          <Trackpoint>
            <Time>2022-06-16T13:02:12.000Z</Time>
            <Position>
              <LatitudeDegrees>36.87260367907583713531494140625</LatitudeDegrees>
              <LongitudeDegrees>-4.39255588687956333160400390625</LongitudeDegrees>
            </Position>
            <AltitudeMeters>834.4000244140625</AltitudeMeters>
            <DistanceMeters>NAN</DistanceMeters>
          </Trackpoint>
          <Trackpoint>
            <Time>2022-06-16T13:02:22.000Z</Time>
            <Position>
              <LatitudeDegrees>36.872605271637439727783203125</LatitudeDegrees>
              <LongitudeDegrees>-4.39254851080477237701416015625</LongitudeDegrees>
            </Position>
            <AltitudeMeters>834.5999755859375</AltitudeMeters>
            <DistanceMeters>NAN</DistanceMeters>
          </Trackpoint>
          <Trackpoint>
            <Time>2022-06-16T13:02:31.000Z</Time>
            <Position>
              <LatitudeDegrees>36.87260099686682224273681640625</LatitudeDegrees>
              <LongitudeDegrees>-4.39253426156938076019287109375</LongitudeDegrees>
            </Position>
            <AltitudeMeters>834.79998779296875</AltitudeMeters>
            <DistanceMeters>NAN</DistanceMeters>
          </Trackpoint>
          <Trackpoint>
            <Time>2022-06-16T13:02:32.000Z</Time>
            <Position>
              <LatitudeDegrees>36.8726017512381076812744140625</LatitudeDegrees>
              <LongitudeDegrees>-4.39252135343849658966064453125</LongitudeDegrees>
            </Position>
            <AltitudeMeters>835</AltitudeMeters>
            <DistanceMeters>NAN</DistanceMeters>
          </Trackpoint>
          <Trackpoint>
            <Time>2022-06-16T13:02:33.000Z</Time>
            <Position>
              <LatitudeDegrees>36.8726017512381076812744140625</LatitudeDegrees>
              <LongitudeDegrees>-4.39252135343849658966064453125</LongitudeDegrees>
            </Position>
            <AltitudeMeters>835</AltitudeMeters>
            <DistanceMeters>NAN</DistanceMeters>
          </Trackpoint>
          <Trackpoint>
            <Time>2022-06-16T13:02:42.000Z</Time>
            <Position>
              <LatitudeDegrees>36.8726064451038837432861328125</LatitudeDegrees>
              <LongitudeDegrees>-4.39245295710861682891845703125</LongitudeDegrees>
            </Position>
            <AltitudeMeters>835.79998779296875</AltitudeMeters>
            <DistanceMeters>NAN</DistanceMeters>
          </Trackpoint>
          <Trackpoint>
            <Time>2022-06-16T13:02:45.000Z</Time>
            <Position>
              <LatitudeDegrees>36.8726097978651523590087890625</LatitudeDegrees>
              <LongitudeDegrees>-4.39243979752063751220703125</LongitudeDegrees>
            </Position>
            <AltitudeMeters>835.5999755859375</AltitudeMeters>
            <DistanceMeters>NAN</DistanceMeters>
          </Trackpoint>
          <Trackpoint>
            <Time>2022-06-16T13:02:51.000Z</Time>
            <Position>
              <LatitudeDegrees>36.87260091304779052734375</LatitudeDegrees>
              <LongitudeDegrees>-4.3924403004348278045654296875</LongitudeDegrees>
            </Position>
            <AltitudeMeters>835.79998779296875</AltitudeMeters>
            <DistanceMeters>NAN</DistanceMeters>
          </Trackpoint>
          <Trackpoint>
            <Time>2022-06-16T13:02:52.000Z</Time>
            <Position>
              <LatitudeDegrees>36.87260149978101253509521484375</LatitudeDegrees>
              <LongitudeDegrees>-4.39243904314935207366943359375</LongitudeDegrees>
            </Position>
            <AltitudeMeters>835.79998779296875</AltitudeMeters>
            <DistanceMeters>NAN</DistanceMeters>
          </Trackpoint>
          <Trackpoint>
            <Time>2022-06-16T13:02:53.000Z</Time>
            <Position>
              <LatitudeDegrees>36.8726030923426151275634765625</LatitudeDegrees>
              <LongitudeDegrees>-4.39243887551128864288330078125</LongitudeDegrees>
            </Position>
            <AltitudeMeters>835.79998779296875</AltitudeMeters>
            <DistanceMeters>NAN</DistanceMeters>
          </Trackpoint>
          <Trackpoint>
            <Time>2022-06-16T13:02:56.000Z</Time>
            <Position>
              <LatitudeDegrees>36.8726034276187419891357421875</LatitudeDegrees>
              <LongitudeDegrees>-4.39243887551128864288330078125</LongitudeDegrees>
            </Position>
            <AltitudeMeters>835.79998779296875</AltitudeMeters>
            <DistanceMeters>NAN</DistanceMeters>
          </Trackpoint>
          <Trackpoint>
            <Time>2022-06-16T13:03:02.000Z</Time>
            <Position>
              <LatitudeDegrees>36.87260552309453487396240234375</LatitudeDegrees>
              <LongitudeDegrees>-4.3924396298825740814208984375</LongitudeDegrees>
            </Position>
            <AltitudeMeters>835.79998779296875</AltitudeMeters>
            <DistanceMeters>NAN</DistanceMeters>
          </Trackpoint>
          <Trackpoint>
            <Time>2022-06-16T13:03:10.000Z</Time>
            <Position>
              <LatitudeDegrees>36.87260292470455169677734375</LatitudeDegrees>
              <LongitudeDegrees>-4.3924413062632083892822265625</LongitudeDegrees>
            </Position>
            <AltitudeMeters>835.79998779296875</AltitudeMeters>
            <DistanceMeters>NAN</DistanceMeters>
          </Trackpoint>
          <Trackpoint>
            <Time>2022-06-16T13:03:12.000Z</Time>
            <Position>
              <LatitudeDegrees>36.872603259980678558349609375</LatitudeDegrees>
              <LongitudeDegrees>-4.39243887551128864288330078125</LongitudeDegrees>
            </Position>
            <AltitudeMeters>835.79998779296875</AltitudeMeters>
            <DistanceMeters>NAN</DistanceMeters>
          </Trackpoint>
          <Trackpoint>
            <Time>2022-06-16T13:03:13.000Z</Time>
            <Position>
              <LatitudeDegrees>36.872601918876171112060546875</LatitudeDegrees>
              <LongitudeDegrees>-4.39244139008224010467529296875</LongitudeDegrees>
            </Position>
            <AltitudeMeters>835.79998779296875</AltitudeMeters>
            <DistanceMeters>NAN</DistanceMeters>
          </Trackpoint>
          <Trackpoint>
            <Time>2022-06-16T13:03:17.000Z</Time>
            <Position>
              <LatitudeDegrees>36.87259311787784099578857421875</LatitudeDegrees>
              <LongitudeDegrees>-4.39244155772030353546142578125</LongitudeDegrees>
            </Position>
            <AltitudeMeters>835.79998779296875</AltitudeMeters>
            <DistanceMeters>NAN</DistanceMeters>
          </Trackpoint>
          <Trackpoint>
            <Time>2022-06-16T13:03:20.000Z</Time>
            <Position>
              <LatitudeDegrees>36.87258942984044551849365234375</LatitudeDegrees>
              <LongitudeDegrees>-4.39242613501846790313720703125</LongitudeDegrees>
            </Position>
            <AltitudeMeters>835.5999755859375</AltitudeMeters>
            <DistanceMeters>NAN</DistanceMeters>
          </Trackpoint>
          <Trackpoint>
            <Time>2022-06-16T13:03:22.000Z</Time>
            <Position>
              <LatitudeDegrees>36.87259647063910961151123046875</LatitudeDegrees>
              <LongitudeDegrees>-4.3924161605536937713623046875</LongitudeDegrees>
            </Position>
            <AltitudeMeters>835.5999755859375</AltitudeMeters>
            <DistanceMeters>NAN</DistanceMeters>
          </Trackpoint>
          <Trackpoint>
            <Time>2022-06-16T13:03:24.000Z</Time>
            <Position>
              <LatitudeDegrees>36.87259714119136333465576171875</LatitudeDegrees>
              <LongitudeDegrees>-4.39242060296237468719482421875</LongitudeDegrees>
            </Position>
            <AltitudeMeters>835.5999755859375</AltitudeMeters>
            <DistanceMeters>NAN</DistanceMeters>
          </Trackpoint>
          <Trackpoint>
            <Time>2022-06-16T13:03:25.000Z</Time>
            <Position>
              <LatitudeDegrees>36.872596554458141326904296875</LatitudeDegrees>
              <LongitudeDegrees>-4.39242160879075527191162109375</LongitudeDegrees>
            </Position>
            <AltitudeMeters>835.5999755859375</AltitudeMeters>
            <DistanceMeters>NAN</DistanceMeters>
          </Trackpoint>
          <Trackpoint>
            <Time>2022-06-16T13:03:26.000Z</Time>
            <Position>
              <LatitudeDegrees>36.87259429134428501129150390625</LatitudeDegrees>
              <LongitudeDegrees>-4.39242370426654815673828125</LongitudeDegrees>
            </Position>
            <AltitudeMeters>835.5999755859375</AltitudeMeters>
            <DistanceMeters>NAN</DistanceMeters>
          </Trackpoint>
          <Trackpoint>
            <Time>2022-06-16T13:03:27.000Z</Time>
            <Position>
              <LatitudeDegrees>36.87259429134428501129150390625</LatitudeDegrees>
              <LongitudeDegrees>-4.39242370426654815673828125</LongitudeDegrees>
            </Position>
            <AltitudeMeters>835.5999755859375</AltitudeMeters>
            <DistanceMeters>NAN</DistanceMeters>
          </Trackpoint>
          <Trackpoint>
            <Time>2022-06-16T13:03:28.000Z</Time>
            <Position>
              <LatitudeDegrees>36.87259345315396785736083984375</LatitudeDegrees>
              <LongitudeDegrees>-4.39242479391396045684814453125</LongitudeDegrees>
            </Position>
            <AltitudeMeters>835.5999755859375</AltitudeMeters>
            <DistanceMeters>NAN</DistanceMeters>
          </Trackpoint>
          <Trackpoint>
            <Time>2022-06-16T13:03:29.000Z</Time>
            <Position>
              <LatitudeDegrees>36.87259345315396785736083984375</LatitudeDegrees>
              <LongitudeDegrees>-4.39242479391396045684814453125</LongitudeDegrees>
            </Position>
            <AltitudeMeters>835.5999755859375</AltitudeMeters>
            <DistanceMeters>NAN</DistanceMeters>
          </Trackpoint>
          <Trackpoint>
            <Time>2022-06-16T13:03:30.000Z</Time>
            <Position>
              <LatitudeDegrees>36.87259647063910961151123046875</LatitudeDegrees>
              <LongitudeDegrees>-4.39242395572364330291748046875</LongitudeDegrees>
            </Position>
            <AltitudeMeters>835.5999755859375</AltitudeMeters>
            <DistanceMeters>NAN</DistanceMeters>
          </Trackpoint>
          <Trackpoint>
            <Time>2022-06-16T13:03:32.000Z</Time>
            <Position>
              <LatitudeDegrees>36.87259747646749019622802734375</LatitudeDegrees>
              <LongitudeDegrees>-4.3924262188374996185302734375</LongitudeDegrees>
            </Position>
            <AltitudeMeters>835.5999755859375</AltitudeMeters>
            <DistanceMeters>NAN</DistanceMeters>
          </Trackpoint>
          <Trackpoint>
            <Time>2022-06-16T13:03:40.000Z</Time>
            <Position>
              <LatitudeDegrees>36.87260535545647144317626953125</LatitudeDegrees>
              <LongitudeDegrees>-4.3924138136208057403564453125</LongitudeDegrees>
            </Position>
            <AltitudeMeters>835.5999755859375</AltitudeMeters>
            <DistanceMeters>NAN</DistanceMeters>
          </Trackpoint>
          <Trackpoint>
            <Time>2022-06-16T13:03:42.000Z</Time>
            <Position>
              <LatitudeDegrees>36.872608959674835205078125</LatitudeDegrees>
              <LongitudeDegrees>-4.392409622669219970703125</LongitudeDegrees>
            </Position>
            <AltitudeMeters>835.4000244140625</AltitudeMeters>
            <DistanceMeters>NAN</DistanceMeters>
          </Trackpoint>
          <Trackpoint>
            <Time>2022-06-16T13:03:47.000Z</Time>
            <Position>
              <LatitudeDegrees>36.8725973926484584808349609375</LatitudeDegrees>
              <LongitudeDegrees>-4.39240031875669956207275390625</LongitudeDegrees>
            </Position>
            <AltitudeMeters>835.4000244140625</AltitudeMeters>
            <DistanceMeters>NAN</DistanceMeters>
          </Trackpoint>
          <Trackpoint>
            <Time>2022-06-16T13:03:52.000Z</Time>
            <Position>
              <LatitudeDegrees>36.87259714119136333465576171875</LatitudeDegrees>
              <LongitudeDegrees>-4.39240652136504650115966796875</LongitudeDegrees>
            </Position>
            <AltitudeMeters>835.5999755859375</AltitudeMeters>
            <DistanceMeters>NAN</DistanceMeters>
          </Trackpoint>
          <Trackpoint>
            <Time>2022-06-16T13:03:58.000Z</Time>
            <Position>
              <LatitudeDegrees>36.87259881757199764251708984375</LatitudeDegrees>
              <LongitudeDegrees>-4.39239596016705036163330078125</LongitudeDegrees>
            </Position>
            <AltitudeMeters>835.4000244140625</AltitudeMeters>
            <DistanceMeters>NAN</DistanceMeters>
          </Trackpoint>
          <Trackpoint>
            <Time>2022-06-16T13:04:01.000Z</Time>
            <Position>
              <LatitudeDegrees>36.872603595256805419921875</LatitudeDegrees>
              <LongitudeDegrees>-4.39238749444484710693359375</LongitudeDegrees>
            </Position>
            <AltitudeMeters>835.4000244140625</AltitudeMeters>
            <DistanceMeters>NAN</DistanceMeters>
          </Trackpoint>
          <Trackpoint>
            <Time>2022-06-16T13:04:02.000Z</Time>
            <Position>
              <LatitudeDegrees>36.87260292470455169677734375</LatitudeDegrees>
              <LongitudeDegrees>-4.39238741062581539154052734375</LongitudeDegrees>
            </Position>
            <AltitudeMeters>835.4000244140625</AltitudeMeters>
            <DistanceMeters>NAN</DistanceMeters>
          </Trackpoint>
          <Trackpoint>
            <Time>2022-06-16T13:04:06.000Z</Time>
            <Position>
              <LatitudeDegrees>36.8725957162678241729736328125</LatitudeDegrees>
              <LongitudeDegrees>-4.3923896737396717071533203125</LongitudeDegrees>
            </Position>
            <AltitudeMeters>835.4000244140625</AltitudeMeters>
            <DistanceMeters>NAN</DistanceMeters>
          </Trackpoint>
          <Trackpoint>
            <Time>2022-06-16T13:04:07.000Z</Time>
            <Position>
              <LatitudeDegrees>36.87258875928819179534912109375</LatitudeDegrees>
              <LongitudeDegrees>-4.3923920206725597381591796875</LongitudeDegrees>
            </Position>
            <AltitudeMeters>835.4000244140625</AltitudeMeters>
            <DistanceMeters>NAN</DistanceMeters>
          </Trackpoint>
          <Trackpoint>
            <Time>2022-06-16T13:04:08.000Z</Time>
            <Position>
              <LatitudeDegrees>36.87258875928819179534912109375</LatitudeDegrees>
              <LongitudeDegrees>-4.3923920206725597381591796875</LongitudeDegrees>
            </Position>
            <AltitudeMeters>835.4000244140625</AltitudeMeters>
            <DistanceMeters>NAN</DistanceMeters>
          </Trackpoint>
          <Trackpoint>
            <Time>2022-06-16T13:04:12.000Z</Time>
            <Position>
              <LatitudeDegrees>36.8725890107452869415283203125</LatitudeDegrees>
              <LongitudeDegrees>-4.39239646308124065399169921875</LongitudeDegrees>
            </Position>
            <AltitudeMeters>835.4000244140625</AltitudeMeters>
            <DistanceMeters>NAN</DistanceMeters>
          </Trackpoint>
          <Trackpoint>
            <Time>2022-06-16T13:04:22.000Z</Time>
            <Position>
              <LatitudeDegrees>36.8725953809916973114013671875</LatitudeDegrees>
              <LongitudeDegrees>-4.39239746890962123870849609375</LongitudeDegrees>
            </Position>
            <AltitudeMeters>835.4000244140625</AltitudeMeters>
            <DistanceMeters>NAN</DistanceMeters>
          </Trackpoint>
          <Trackpoint>
            <Time>2022-06-16T13:04:26.000Z</Time>
            <Position>
              <LatitudeDegrees>36.8725960515439510345458984375</LatitudeDegrees>
              <LongitudeDegrees>-4.392395876348018646240234375</LongitudeDegrees>
            </Position>
            <AltitudeMeters>835.4000244140625</AltitudeMeters>
            <DistanceMeters>NAN</DistanceMeters>
          </Trackpoint>
          <Trackpoint>
            <Time>2022-06-16T13:04:29.000Z</Time>
            <Position>
              <LatitudeDegrees>36.87259026803076267242431640625</LatitudeDegrees>
              <LongitudeDegrees>-4.3923926912248134613037109375</LongitudeDegrees>
            </Position>
            <AltitudeMeters>835.4000244140625</AltitudeMeters>
            <DistanceMeters>NAN</DistanceMeters>
          </Trackpoint>
          <Trackpoint>
            <Time>2022-06-16T13:04:32.000Z</Time>
            <Position>
              <LatitudeDegrees>36.87258674763143062591552734375</LatitudeDegrees>
              <LongitudeDegrees>-4.3923950381577014923095703125</LongitudeDegrees>
            </Position>
            <AltitudeMeters>835.4000244140625</AltitudeMeters>
            <DistanceMeters>NAN</DistanceMeters>
          </Trackpoint>
          <Trackpoint>
            <Time>2022-06-16T13:04:40.000Z</Time>
            <Position>
              <LatitudeDegrees>36.8725781142711639404296875</LatitudeDegrees>
              <LongitudeDegrees>-4.3923930265009403228759765625</LongitudeDegrees>
            </Position>
            <AltitudeMeters>835.4000244140625</AltitudeMeters>
            <DistanceMeters>NAN</DistanceMeters>
          </Trackpoint>
          <Trackpoint>
            <Time>2022-06-16T13:04:42.000Z</Time>
            <Position>
              <LatitudeDegrees>36.8725762702524662017822265625</LatitudeDegrees>
              <LongitudeDegrees>-4.39239428378641605377197265625</LongitudeDegrees>
            </Position>
            <AltitudeMeters>835.4000244140625</AltitudeMeters>
            <DistanceMeters>NAN</DistanceMeters>
          </Trackpoint>
          <Trackpoint>
            <Time>2022-06-16T13:04:46.000Z</Time>
            <Position>
              <LatitudeDegrees>36.87256813980638980865478515625</LatitudeDegrees>
              <LongitudeDegrees>-4.392389841377735137939453125</LongitudeDegrees>
            </Position>
            <AltitudeMeters>835.4000244140625</AltitudeMeters>
            <DistanceMeters>NAN</DistanceMeters>
          </Trackpoint>
          <Trackpoint>
            <Time>2022-06-16T13:04:52.000Z</Time>
            <Position>
              <LatitudeDegrees>36.87256780453026294708251953125</LatitudeDegrees>
              <LongitudeDegrees>-4.39239294268190860748291015625</LongitudeDegrees>
            </Position>
            <AltitudeMeters>835.4000244140625</AltitudeMeters>
            <DistanceMeters>NAN</DistanceMeters>
          </Trackpoint>
          <Trackpoint>
            <Time>2022-06-16T13:05:00.000Z</Time>
            <Position>
              <LatitudeDegrees>36.87256126664578914642333984375</LatitudeDegrees>
              <LongitudeDegrees>-4.3923970498144626617431640625</LongitudeDegrees>
            </Position>
            <AltitudeMeters>835.4000244140625</AltitudeMeters>
            <DistanceMeters>NAN</DistanceMeters>
          </Trackpoint>
          <Trackpoint>
            <Time>2022-06-16T13:05:02.000Z</Time>
            <Position>
              <LatitudeDegrees>36.87255858443677425384521484375</LatitudeDegrees>
              <LongitudeDegrees>-4.3923970498144626617431640625</LongitudeDegrees>
            </Position>
            <AltitudeMeters>835.4000244140625</AltitudeMeters>
            <DistanceMeters>NAN</DistanceMeters>
          </Trackpoint>
          <Trackpoint>
            <Time>2022-06-16T13:05:08.000Z</Time>
            <Position>
              <LatitudeDegrees>36.8725621886551380157470703125</LatitudeDegrees>
              <LongitudeDegrees>-4.39239612780511379241943359375</LongitudeDegrees>
            </Position>
            <AltitudeMeters>835.4000244140625</AltitudeMeters>
            <DistanceMeters>NAN</DistanceMeters>
          </Trackpoint>
          <Trackpoint>
            <Time>2022-06-16T13:05:12.000Z</Time>
            <Position>
              <LatitudeDegrees>36.87256746925413608551025390625</LatitudeDegrees>
              <LongitudeDegrees>-4.392386488616466522216796875</LongitudeDegrees>
            </Position>
            <AltitudeMeters>835.4000244140625</AltitudeMeters>
            <DistanceMeters>NAN</DistanceMeters>
          </Trackpoint>
          <Trackpoint>
            <Time>2022-06-16T13:05:20.000Z</Time>
            <Position>
              <LatitudeDegrees>36.872579790651798248291015625</LatitudeDegrees>
              <LongitudeDegrees>-4.39238238148391246795654296875</LongitudeDegrees>
            </Position>
            <AltitudeMeters>835.4000244140625</AltitudeMeters>
            <DistanceMeters>NAN</DistanceMeters>
          </Trackpoint>
          <Trackpoint>
            <Time>2022-06-16T13:05:22.000Z</Time>
            <Position>
              <LatitudeDegrees>36.87258456833660602569580078125</LatitudeDegrees>
              <LongitudeDegrees>-4.392390511929988861083984375</LongitudeDegrees>
            </Position>
            <AltitudeMeters>835.4000244140625</AltitudeMeters>
            <DistanceMeters>NAN</DistanceMeters>
          </Trackpoint>
          <Trackpoint>
            <Time>2022-06-16T13:05:32.000Z</Time>
            <Position>
              <LatitudeDegrees>36.87259093858301639556884765625</LatitudeDegrees>
              <LongitudeDegrees>-4.39242303371429443359375</LongitudeDegrees>
            </Position>
            <AltitudeMeters>835.5999755859375</AltitudeMeters>
            <DistanceMeters>NAN</DistanceMeters>
          </Trackpoint>
          <Trackpoint>
            <Time>2022-06-16T13:05:42.000Z</Time>
            <Position>
              <LatitudeDegrees>36.872577108442783355712890625</LatitudeDegrees>
              <LongitudeDegrees>-4.39241808839142322540283203125</LongitudeDegrees>
            </Position>
            <AltitudeMeters>835.5999755859375</AltitudeMeters>
            <DistanceMeters>NAN</DistanceMeters>
          </Trackpoint>
          <Trackpoint>
            <Time>2022-06-16T13:05:52.000Z</Time>
            <Position>
              <LatitudeDegrees>36.87249991111457347869873046875</LatitudeDegrees>
              <LongitudeDegrees>-4.39239554107189178466796875</LongitudeDegrees>
            </Position>
            <AltitudeMeters>835.4000244140625</AltitudeMeters>
            <DistanceMeters>NAN</DistanceMeters>
          </Trackpoint>
          <Trackpoint>
            <Time>2022-06-16T13:05:54.000Z</Time>
            <Position>
              <LatitudeDegrees>36.87247727997601032257080078125</LatitudeDegrees>
              <LongitudeDegrees>-4.392394535243511199951171875</LongitudeDegrees>
            </Position>
            <AltitudeMeters>835.4000244140625</AltitudeMeters>
            <DistanceMeters>NAN</DistanceMeters>
          </Trackpoint>
          <Trackpoint>
            <Time>2022-06-16T13:06:02.000Z</Time>
            <Position>
              <LatitudeDegrees>36.87238876707851886749267578125</LatitudeDegrees>
              <LongitudeDegrees>-4.3923863209784030914306640625</LongitudeDegrees>
            </Position>
            <AltitudeMeters>835.4000244140625</AltitudeMeters>
            <DistanceMeters>NAN</DistanceMeters>
          </Trackpoint>
          <Trackpoint>
            <Time>2022-06-16T13:06:12.000Z</Time>
            <Position>
              <LatitudeDegrees>36.87228902243077754974365234375</LatitudeDegrees>
              <LongitudeDegrees>-4.392348937690258026123046875</LongitudeDegrees>
            </Position>
            <AltitudeMeters>835.5999755859375</AltitudeMeters>
            <DistanceMeters>NAN</DistanceMeters>
          </Trackpoint>
          <Trackpoint>
            <Time>2022-06-16T13:06:22.000Z</Time>
            <Position>
              <LatitudeDegrees>36.87218793667852878570556640625</LatitudeDegrees>
              <LongitudeDegrees>-4.392294622957706451416015625</LongitudeDegrees>
            </Position>
            <AltitudeMeters>835.5999755859375</AltitudeMeters>
            <DistanceMeters>NAN</DistanceMeters>
          </Trackpoint>
          <Trackpoint>
            <Time>2022-06-16T13:06:32.000Z</Time>
            <Position>
              <LatitudeDegrees>36.87210126779973506927490234375</LatitudeDegrees>
              <LongitudeDegrees>-4.39221583306789398193359375</LongitudeDegrees>
            </Position>
            <AltitudeMeters>836.5999755859375</AltitudeMeters>
            <DistanceMeters>NAN</DistanceMeters>
          </Trackpoint>
          <Trackpoint>
            <Time>2022-06-16T13:06:42.000Z</Time>
            <Position>
              <LatitudeDegrees>36.872013509273529052734375</LatitudeDegrees>
              <LongitudeDegrees>-4.39216562546789646148681640625</LongitudeDegrees>
            </Position>
            <AltitudeMeters>836.79998779296875</AltitudeMeters>
            <DistanceMeters>NAN</DistanceMeters>
          </Trackpoint>
          <Trackpoint>
            <Time>2022-06-16T13:06:52.000Z</Time>
            <Position>
              <LatitudeDegrees>36.87194335274398326873779296875</LatitudeDegrees>
              <LongitudeDegrees>-4.3921237997710704803466796875</LongitudeDegrees>
            </Position>
            <AltitudeMeters>836.79998779296875</AltitudeMeters>
            <DistanceMeters>NAN</DistanceMeters>
          </Trackpoint>
          <Trackpoint>
            <Time>2022-06-16T13:07:02.000Z</Time>
            <Position>
              <LatitudeDegrees>36.871897168457508087158203125</LatitudeDegrees>
              <LongitudeDegrees>-4.39211466349661350250244140625</LongitudeDegrees>
            </Position>
            <AltitudeMeters>837</AltitudeMeters>
            <DistanceMeters>NAN</DistanceMeters>
          </Trackpoint>
          <Trackpoint>
            <Time>2022-06-16T13:07:10.000Z</Time>
            <Position>
              <LatitudeDegrees>36.8718544207513332366943359375</LatitudeDegrees>
              <LongitudeDegrees>-4.39209773205220699310302734375</LongitudeDegrees>
            </Position>
            <AltitudeMeters>837.20001220703125</AltitudeMeters>
            <DistanceMeters>NAN</DistanceMeters>
          </Trackpoint>
          <Trackpoint>
            <Time>2022-06-16T13:07:12.000Z</Time>
            <Position>
              <LatitudeDegrees>36.8718453682959079742431640625</LatitudeDegrees>
              <LongitudeDegrees>-4.39209521748125553131103515625</LongitudeDegrees>
            </Position>
            <AltitudeMeters>837.20001220703125</AltitudeMeters>
            <DistanceMeters>NAN</DistanceMeters>
          </Trackpoint>
          <Trackpoint>
            <Time>2022-06-16T13:07:22.000Z</Time>
            <Position>
              <LatitudeDegrees>36.87174738384783267974853515625</LatitudeDegrees>
              <LongitudeDegrees>-4.39204257912933826446533203125</LongitudeDegrees>
            </Position>
            <AltitudeMeters>838.5999755859375</AltitudeMeters>
            <DistanceMeters>NAN</DistanceMeters>
          </Trackpoint>
          <Trackpoint>
            <Time>2022-06-16T13:07:23.000Z</Time>
            <Position>
              <LatitudeDegrees>36.8717387504875659942626953125</LatitudeDegrees>
              <LongitudeDegrees>-4.39203620888292789459228515625</LongitudeDegrees>
            </Position>
            <AltitudeMeters>838.79998779296875</AltitudeMeters>
            <DistanceMeters>NAN</DistanceMeters>
          </Trackpoint>
          <Trackpoint>
            <Time>2022-06-16T13:07:24.000Z</Time>
            <Position>
              <LatitudeDegrees>36.8717310391366481781005859375</LatitudeDegrees>
              <LongitudeDegrees>-4.39203017391264438629150390625</LongitudeDegrees>
            </Position>
            <AltitudeMeters>839</AltitudeMeters>
            <DistanceMeters>NAN</DistanceMeters>
          </Trackpoint>
          <Trackpoint>
            <Time>2022-06-16T13:07:28.000Z</Time>
            <Position>
              <LatitudeDegrees>36.8717085756361484527587890625</LatitudeDegrees>
              <LongitudeDegrees>-4.3920114822685718536376953125</LongitudeDegrees>
            </Position>
            <AltitudeMeters>839.4000244140625</AltitudeMeters>
            <DistanceMeters>NAN</DistanceMeters>
          </Trackpoint>
          <Trackpoint>
            <Time>2022-06-16T13:07:29.000Z</Time>
            <Position>
              <LatitudeDegrees>36.87169474549591541290283203125</LatitudeDegrees>
              <LongitudeDegrees>-4.3919979035854339599609375</LongitudeDegrees>
            </Position>
            <AltitudeMeters>839.79998779296875</AltitudeMeters>
            <DistanceMeters>NAN</DistanceMeters>
          </Trackpoint>
          <Trackpoint>
            <Time>2022-06-16T13:07:30.000Z</Time>
            <Position>
              <LatitudeDegrees>36.871688626706600189208984375</LatitudeDegrees>
              <LongitudeDegrees>-4.39199446700513362884521484375</LongitudeDegrees>
            </Position>
            <AltitudeMeters>840</AltitudeMeters>
            <DistanceMeters>NAN</DistanceMeters>
          </Trackpoint>
          <Trackpoint>
            <Time>2022-06-16T13:07:31.000Z</Time>
            <Position>
              <LatitudeDegrees>36.871688626706600189208984375</LatitudeDegrees>
              <LongitudeDegrees>-4.39199446700513362884521484375</LongitudeDegrees>
            </Position>
            <AltitudeMeters>840</AltitudeMeters>
            <DistanceMeters>NAN</DistanceMeters>
          </Trackpoint>
          <Trackpoint>
            <Time>2022-06-16T13:07:32.000Z</Time>
            <Position>
              <LatitudeDegrees>36.871673204004764556884765625</LatitudeDegrees>
              <LongitudeDegrees>-4.3919792957603931427001953125</LongitudeDegrees>
            </Position>
            <AltitudeMeters>840</AltitudeMeters>
            <DistanceMeters>NAN</DistanceMeters>
          </Trackpoint>
          <Trackpoint>
            <Time>2022-06-16T13:07:34.000Z</Time>
            <Position>
              <LatitudeDegrees>36.87166272662580013275146484375</LatitudeDegrees>
              <LongitudeDegrees>-4.3919695727527141571044921875</LongitudeDegrees>
            </Position>
            <AltitudeMeters>840.20001220703125</AltitudeMeters>
            <DistanceMeters>NAN</DistanceMeters>
          </Trackpoint>
          <Trackpoint>
            <Time>2022-06-16T13:07:37.000Z</Time>
            <Position>
              <LatitudeDegrees>36.87163976021111011505126953125</LatitudeDegrees>
              <LongitudeDegrees>-4.39194752834737300872802734375</LongitudeDegrees>
            </Position>
            <AltitudeMeters>840.20001220703125</AltitudeMeters>
            <DistanceMeters>NAN</DistanceMeters>
          </Trackpoint>
          <Trackpoint>
            <Time>2022-06-16T13:07:38.000Z</Time>
            <Position>
              <LatitudeDegrees>36.87162199057638645172119140625</LatitudeDegrees>
              <LongitudeDegrees>-4.39193545840680599212646484375</LongitudeDegrees>
            </Position>
            <AltitudeMeters>840.4000244140625</AltitudeMeters>
            <DistanceMeters>NAN</DistanceMeters>
          </Trackpoint>
          <Trackpoint>
            <Time>2022-06-16T13:07:39.000Z</Time>
            <Position>
              <LatitudeDegrees>36.87162199057638645172119140625</LatitudeDegrees>
              <LongitudeDegrees>-4.39193545840680599212646484375</LongitudeDegrees>
            </Position>
            <AltitudeMeters>840.4000244140625</AltitudeMeters>
            <DistanceMeters>NAN</DistanceMeters>
          </Trackpoint>
          <Trackpoint>
            <Time>2022-06-16T13:07:40.000Z</Time>
            <Position>
              <LatitudeDegrees>36.871612183749675750732421875</LatitudeDegrees>
              <LongitudeDegrees>-4.391928501427173614501953125</LongitudeDegrees>
            </Position>
            <AltitudeMeters>840.5999755859375</AltitudeMeters>
            <DistanceMeters>NAN</DistanceMeters>
          </Trackpoint>
          <Trackpoint>
            <Time>2022-06-16T13:07:41.000Z</Time>
            <Position>
              <LatitudeDegrees>36.87158770859241485595703125</LatitudeDegrees>
              <LongitudeDegrees>-4.39191819168627262115478515625</LongitudeDegrees>
            </Position>
            <AltitudeMeters>841</AltitudeMeters>
            <DistanceMeters>NAN</DistanceMeters>
          </Trackpoint>
          <Trackpoint>
            <Time>2022-06-16T13:07:42.000Z</Time>
            <Position>
              <LatitudeDegrees>36.8715751357376575469970703125</LatitudeDegrees>
              <LongitudeDegrees>-4.391913078725337982177734375</LongitudeDegrees>
            </Position>
            <AltitudeMeters>841.20001220703125</AltitudeMeters>
            <DistanceMeters>NAN</DistanceMeters>
          </Trackpoint>
          <Trackpoint>
            <Time>2022-06-16T13:07:44.000Z</Time>
            <Position>
              <LatitudeDegrees>36.87155661173164844512939453125</LatitudeDegrees>
              <LongitudeDegrees>-4.39190469682216644287109375</LongitudeDegrees>
            </Position>
            <AltitudeMeters>841.5999755859375</AltitudeMeters>
            <DistanceMeters>NAN</DistanceMeters>
          </Trackpoint>
          <Trackpoint>
            <Time>2022-06-16T13:07:45.000Z</Time>
            <Position>
              <LatitudeDegrees>36.87155661173164844512939453125</LatitudeDegrees>
              <LongitudeDegrees>-4.39190469682216644287109375</LongitudeDegrees>
            </Position>
            <AltitudeMeters>841.5999755859375</AltitudeMeters>
            <DistanceMeters>NAN</DistanceMeters>
          </Trackpoint>
          <Trackpoint>
            <Time>2022-06-16T13:07:51.000Z</Time>
            <Position>
              <LatitudeDegrees>36.87148737721145153045654296875</LatitudeDegrees>
              <LongitudeDegrees>-4.39187058247625827789306640625</LongitudeDegrees>
            </Position>
            <AltitudeMeters>843</AltitudeMeters>
            <DistanceMeters>NAN</DistanceMeters>
          </Trackpoint>
          <Trackpoint>
            <Time>2022-06-16T13:08:00.000Z</Time>
            <Position>
              <LatitudeDegrees>36.871400959789752960205078125</LatitudeDegrees>
              <LongitudeDegrees>-4.391815848648548126220703125</LongitudeDegrees>
            </Position>
            <AltitudeMeters>846.5999755859375</AltitudeMeters>
            <DistanceMeters>NAN</DistanceMeters>
          </Trackpoint>
          <Trackpoint>
            <Time>2022-06-16T13:08:02.000Z</Time>
            <Position>
              <LatitudeDegrees>36.87138210050761699676513671875</LatitudeDegrees>
              <LongitudeDegrees>-4.391804449260234832763671875</LongitudeDegrees>
            </Position>
            <AltitudeMeters>847.4000244140625</AltitudeMeters>
            <DistanceMeters>NAN</DistanceMeters>
          </Trackpoint>
          <Trackpoint>
            <Time>2022-06-16T13:08:03.000Z</Time>
            <Position>
              <LatitudeDegrees>36.87138210050761699676513671875</LatitudeDegrees>
              <LongitudeDegrees>-4.391804449260234832763671875</LongitudeDegrees>
            </Position>
            <AltitudeMeters>847.4000244140625</AltitudeMeters>
            <DistanceMeters>NAN</DistanceMeters>
          </Trackpoint>
          <Trackpoint>
            <Time>2022-06-16T13:08:09.000Z</Time>
            <Position>
              <LatitudeDegrees>36.8712998740375041961669921875</LatitudeDegrees>
              <LongitudeDegrees>-4.3917674012482166290283203125</LongitudeDegrees>
            </Position>
            <AltitudeMeters>851</AltitudeMeters>
            <DistanceMeters>NAN</DistanceMeters>
          </Trackpoint>
          <Trackpoint>
            <Time>2022-06-16T13:08:10.000Z</Time>
            <Position>
              <LatitudeDegrees>36.8712998740375041961669921875</LatitudeDegrees>
              <LongitudeDegrees>-4.3917674012482166290283203125</LongitudeDegrees>
            </Position>
            <AltitudeMeters>851</AltitudeMeters>
            <DistanceMeters>NAN</DistanceMeters>
          </Trackpoint>
          <Trackpoint>
            <Time>2022-06-16T13:08:12.000Z</Time>
            <Position>
              <LatitudeDegrees>36.8712906539440155029296875</LatitudeDegrees>
              <LongitudeDegrees>-4.39176027663052082061767578125</LongitudeDegrees>
            </Position>
            <AltitudeMeters>851.4000244140625</AltitudeMeters>
            <DistanceMeters>NAN</DistanceMeters>
          </Trackpoint>
          <Trackpoint>
            <Time>2022-06-16T13:08:16.000Z</Time>
            <Position>
              <LatitudeDegrees>36.87124866060912609100341796875</LatitudeDegrees>
              <LongitudeDegrees>-4.39174133352935314178466796875</LongitudeDegrees>
            </Position>
            <AltitudeMeters>853.20001220703125</AltitudeMeters>
            <DistanceMeters>NAN</DistanceMeters>
          </Trackpoint>
          <Trackpoint>
            <Time>2022-06-16T13:08:19.000Z</Time>
            <Position>
              <LatitudeDegrees>36.87122217379510402679443359375</LatitudeDegrees>
              <LongitudeDegrees>-4.3917221389710903167724609375</LongitudeDegrees>
            </Position>
            <AltitudeMeters>854.20001220703125</AltitudeMeters>
            <DistanceMeters>NAN</DistanceMeters>
          </Trackpoint>
          <Trackpoint>
            <Time>2022-06-16T13:08:22.000Z</Time>
            <Position>
              <LatitudeDegrees>36.87119501642882823944091796875</LatitudeDegrees>
              <LongitudeDegrees>-4.39170629717409610748291015625</LongitudeDegrees>
            </Position>
            <AltitudeMeters>855.4000244140625</AltitudeMeters>
            <DistanceMeters>NAN</DistanceMeters>
          </Trackpoint>
          <Trackpoint>
            <Time>2022-06-16T13:08:30.000Z</Time>
            <Position>
              <LatitudeDegrees>36.8711243569850921630859375</LatitudeDegrees>
              <LongitudeDegrees>-4.39165684394538402557373046875</LongitudeDegrees>
            </Position>
            <AltitudeMeters>857.79998779296875</AltitudeMeters>
            <DistanceMeters>NAN</DistanceMeters>
          </Trackpoint>
          <Trackpoint>
            <Time>2022-06-16T13:08:32.000Z</Time>
            <Position>
              <LatitudeDegrees>36.87110583297908306121826171875</LatitudeDegrees>
              <LongitudeDegrees>-4.39164594747126102447509765625</LongitudeDegrees>
            </Position>
            <AltitudeMeters>858.4000244140625</AltitudeMeters>
            <DistanceMeters>NAN</DistanceMeters>
          </Trackpoint>
          <Trackpoint>
            <Time>2022-06-16T13:08:36.000Z</Time>
            <Position>
              <LatitudeDegrees>36.87107364647090435028076171875</LatitudeDegrees>
              <LongitudeDegrees>-4.391620047390460968017578125</LongitudeDegrees>
            </Position>
            <AltitudeMeters>859.4000244140625</AltitudeMeters>
            <DistanceMeters>NAN</DistanceMeters>
          </Trackpoint>
          <Trackpoint>
            <Time>2022-06-16T13:08:42.000Z</Time>
            <Position>
              <LatitudeDegrees>36.871032156050205230712890625</LatitudeDegrees>
              <LongitudeDegrees>-4.39157168380916118621826171875</LongitudeDegrees>
            </Position>
            <AltitudeMeters>860.5999755859375</AltitudeMeters>
            <DistanceMeters>NAN</DistanceMeters>
          </Trackpoint>
          <Trackpoint>
            <Time>2022-06-16T13:08:49.000Z</Time>
            <Position>
              <LatitudeDegrees>36.8709796853363513946533203125</LatitudeDegrees>
              <LongitudeDegrees>-4.3915159441530704498291015625</LongitudeDegrees>
            </Position>
            <AltitudeMeters>862</AltitudeMeters>
            <DistanceMeters>NAN</DistanceMeters>
          </Trackpoint>
          <Trackpoint>
            <Time>2022-06-16T13:08:52.000Z</Time>
            <Position>
              <LatitudeDegrees>36.87095940113067626953125</LatitudeDegrees>
              <LongitudeDegrees>-4.39148719422519207000732421875</LongitudeDegrees>
            </Position>
            <AltitudeMeters>862.4000244140625</AltitudeMeters>
            <DistanceMeters>NAN</DistanceMeters>
          </Trackpoint>
          <Trackpoint>
            <Time>2022-06-16T13:09:02.000Z</Time>
            <Position>
              <LatitudeDegrees>36.870886981487274169921875</LatitudeDegrees>
              <LongitudeDegrees>-4.39139449037611484527587890625</LongitudeDegrees>
            </Position>
            <AltitudeMeters>863.5999755859375</AltitudeMeters>
            <DistanceMeters>NAN</DistanceMeters>
          </Trackpoint>
          <Trackpoint>
            <Time>2022-06-16T13:09:11.000Z</Time>
            <Position>
              <LatitudeDegrees>36.8708522804081439971923828125</LatitudeDegrees>
              <LongitudeDegrees>-4.391306228935718536376953125</LongitudeDegrees>
            </Position>
            <AltitudeMeters>864</AltitudeMeters>
            <DistanceMeters>NAN</DistanceMeters>
          </Trackpoint>
          <Trackpoint>
            <Time>2022-06-16T13:09:12.000Z</Time>
            <Position>
              <LatitudeDegrees>36.8708459101617336273193359375</LatitudeDegrees>
              <LongitudeDegrees>-4.3912953324615955352783203125</LongitudeDegrees>
            </Position>
            <AltitudeMeters>864.20001220703125</AltitudeMeters>
            <DistanceMeters>NAN</DistanceMeters>
          </Trackpoint>
          <Trackpoint>
            <Time>2022-06-16T13:09:22.000Z</Time>
            <Position>
              <LatitudeDegrees>36.87079469673335552215576171875</LatitudeDegrees>
              <LongitudeDegrees>-4.3911665864288806915283203125</LongitudeDegrees>
            </Position>
            <AltitudeMeters>864.79998779296875</AltitudeMeters>
            <DistanceMeters>NAN</DistanceMeters>
          </Trackpoint>
          <Trackpoint>
            <Time>2022-06-16T13:09:32.000Z</Time>
            <Position>
              <LatitudeDegrees>36.87078765593469142913818359375</LatitudeDegrees>
              <LongitudeDegrees>-4.39103105105459690093994140625</LongitudeDegrees>
            </Position>
            <AltitudeMeters>865</AltitudeMeters>
            <DistanceMeters>NAN</DistanceMeters>
          </Trackpoint>
          <Trackpoint>
            <Time>2022-06-16T13:09:39.000Z</Time>
            <Position>
              <LatitudeDegrees>36.8707848899066448211669921875</LatitudeDegrees>
              <LongitudeDegrees>-4.3909587152302265167236328125</LongitudeDegrees>
            </Position>
            <AltitudeMeters>865.4000244140625</AltitudeMeters>
            <DistanceMeters>NAN</DistanceMeters>
          </Trackpoint>
          <Trackpoint>
            <Time>2022-06-16T13:09:42.000Z</Time>
            <Position>
              <LatitudeDegrees>36.87078748829662799835205078125</LatitudeDegrees>
              <LongitudeDegrees>-4.39093683846294879913330078125</LongitudeDegrees>
            </Position>
            <AltitudeMeters>865.4000244140625</AltitudeMeters>
            <DistanceMeters>NAN</DistanceMeters>
          </Trackpoint>
          <Trackpoint>
            <Time>2022-06-16T13:09:52.000Z</Time>
            <Position>
              <LatitudeDegrees>36.870841048657894134521484375</LatitudeDegrees>
              <LongitudeDegrees>-4.3908391892910003662109375</LongitudeDegrees>
            </Position>
            <AltitudeMeters>864.20001220703125</AltitudeMeters>
            <DistanceMeters>NAN</DistanceMeters>
          </Trackpoint>
          <Trackpoint>
            <Time>2022-06-16T13:09:53.000Z</Time>
            <Position>
              <LatitudeDegrees>36.87084465287625789642333984375</LatitudeDegrees>
              <LongitudeDegrees>-4.39082569442689418792724609375</LongitudeDegrees>
            </Position>
            <AltitudeMeters>864.20001220703125</AltitudeMeters>
            <DistanceMeters>NAN</DistanceMeters>
          </Trackpoint>
          <Trackpoint>
            <Time>2022-06-16T13:09:56.000Z</Time>
            <Position>
              <LatitudeDegrees>36.870869882404804229736328125</LatitudeDegrees>
              <LongitudeDegrees>-4.39078948460519313812255859375</LongitudeDegrees>
            </Position>
            <AltitudeMeters>863.5999755859375</AltitudeMeters>
            <DistanceMeters>NAN</DistanceMeters>
          </Trackpoint>
          <Trackpoint>
            <Time>2022-06-16T13:09:57.000Z</Time>
            <Position>
              <LatitudeDegrees>36.87088086269795894622802734375</LatitudeDegrees>
              <LongitudeDegrees>-4.39077858813107013702392578125</LongitudeDegrees>
            </Position>
            <AltitudeMeters>863.4000244140625</AltitudeMeters>
            <DistanceMeters>NAN</DistanceMeters>
          </Trackpoint>
          <Trackpoint>
            <Time>2022-06-16T13:10:02.000Z</Time>
            <Position>
              <LatitudeDegrees>36.87093836255371570587158203125</LatitudeDegrees>
              <LongitudeDegrees>-4.3907360918819904327392578125</LongitudeDegrees>
            </Position>
            <AltitudeMeters>862</AltitudeMeters>
            <DistanceMeters>NAN</DistanceMeters>
          </Trackpoint>
          <Trackpoint>
            <Time>2022-06-16T13:10:08.000Z</Time>
            <Position>
              <LatitudeDegrees>36.87098085880279541015625</LatitudeDegrees>
              <LongitudeDegrees>-4.39070080406963825225830078125</LongitudeDegrees>
            </Position>
            <AltitudeMeters>861.4000244140625</AltitudeMeters>
            <DistanceMeters>NAN</DistanceMeters>
          </Trackpoint>
          <Trackpoint>
            <Time>2022-06-16T13:10:12.000Z</Time>
            <Position>
              <LatitudeDegrees>36.87101262621581554412841796875</LatitudeDegrees>
              <LongitudeDegrees>-4.39066995866596698760986328125</LongitudeDegrees>
            </Position>
            <AltitudeMeters>861</AltitudeMeters>
            <DistanceMeters>NAN</DistanceMeters>
          </Trackpoint>
          <Trackpoint>
            <Time>2022-06-16T13:10:22.000Z</Time>
            <Position>
              <LatitudeDegrees>36.87106057070195674896240234375</LatitudeDegrees>
              <LongitudeDegrees>-4.3906083516776561737060546875</LongitudeDegrees>
            </Position>
            <AltitudeMeters>860.5999755859375</AltitudeMeters>
            <DistanceMeters>NAN</DistanceMeters>
          </Trackpoint>
          <Trackpoint>
            <Time>2022-06-16T13:10:32.000Z</Time>
            <Position>
              <LatitudeDegrees>36.87114874832332134246826171875</LatitudeDegrees>
              <LongitudeDegrees>-4.3905208446085453033447265625</LongitudeDegrees>
            </Position>
            <AltitudeMeters>859.79998779296875</AltitudeMeters>
            <DistanceMeters>NAN</DistanceMeters>
          </Trackpoint>
          <Trackpoint>
            <Time>2022-06-16T13:10:42.000Z</Time>
            <Position>
              <LatitudeDegrees>36.87119937501847743988037109375</LatitudeDegrees>
              <LongitudeDegrees>-4.39042755402624607086181640625</LongitudeDegrees>
            </Position>
            <AltitudeMeters>860.20001220703125</AltitudeMeters>
            <DistanceMeters>NAN</DistanceMeters>
          </Trackpoint>
          <Trackpoint>
            <Time>2022-06-16T13:10:45.000Z</Time>
            <Position>
              <LatitudeDegrees>36.87119652517139911651611328125</LatitudeDegrees>
              <LongitudeDegrees>-4.3903984688222408294677734375</LongitudeDegrees>
            </Position>
            <AltitudeMeters>860.79998779296875</AltitudeMeters>
            <DistanceMeters>NAN</DistanceMeters>
          </Trackpoint>
          <Trackpoint>
            <Time>2022-06-16T13:10:46.000Z</Time>
            <Position>
              <LatitudeDegrees>36.87119434587657451629638671875</LatitudeDegrees>
              <LongitudeDegrees>-4.3903874047100543975830078125</LongitudeDegrees>
            </Position>
            <AltitudeMeters>861</AltitudeMeters>
            <DistanceMeters>NAN</DistanceMeters>
          </Trackpoint>
          <Trackpoint>
            <Time>2022-06-16T13:10:48.000Z</Time>
            <Position>
              <LatitudeDegrees>36.87118814326822757720947265625</LatitudeDegrees>
              <LongitudeDegrees>-4.3903671205043792724609375</LongitudeDegrees>
            </Position>
            <AltitudeMeters>861.5999755859375</AltitudeMeters>
            <DistanceMeters>NAN</DistanceMeters>
          </Trackpoint>
          <Trackpoint>
            <Time>2022-06-16T13:10:50.000Z</Time>
            <Position>
              <LatitudeDegrees>36.87118127010762691497802734375</LatitudeDegrees>
              <LongitudeDegrees>-4.39034524373710155487060546875</LongitudeDegrees>
            </Position>
            <AltitudeMeters>862</AltitudeMeters>
            <DistanceMeters>NAN</DistanceMeters>
          </Trackpoint>
          <Trackpoint>
            <Time>2022-06-16T13:10:52.000Z</Time>
            <Position>
              <LatitudeDegrees>36.87117062509059906005859375</LatitudeDegrees>
              <LongitudeDegrees>-4.39032479189336299896240234375</LongitudeDegrees>
            </Position>
            <AltitudeMeters>862.79998779296875</AltitudeMeters>
            <DistanceMeters>NAN</DistanceMeters>
          </Trackpoint>
          <Trackpoint>
            <Time>2022-06-16T13:10:53.000Z</Time>
            <Position>
              <LatitudeDegrees>36.871161572635173797607421875</LatitudeDegrees>
              <LongitudeDegrees>-4.39031439833343029022216796875</LongitudeDegrees>
            </Position>
            <AltitudeMeters>863.20001220703125</AltitudeMeters>
            <DistanceMeters>NAN</DistanceMeters>
          </Trackpoint>
          <Trackpoint>
            <Time>2022-06-16T13:10:56.000Z</Time>
            <Position>
              <LatitudeDegrees>36.8711439706385135650634765625</LatitudeDegrees>
              <LongitudeDegrees>-4.39029126428067684173583984375</LongitudeDegrees>
            </Position>
            <AltitudeMeters>864</AltitudeMeters>
            <DistanceMeters>NAN</DistanceMeters>
          </Trackpoint>
          <Trackpoint>
            <Time>2022-06-16T13:11:02.000Z</Time>
            <Position>
              <LatitudeDegrees>36.8711044080555438995361328125</LatitudeDegrees>
              <LongitudeDegrees>-4.39025321044027805328369140625</LongitudeDegrees>
            </Position>
            <AltitudeMeters>865.5999755859375</AltitudeMeters>
            <DistanceMeters>NAN</DistanceMeters>
          </Trackpoint>
          <Trackpoint>
            <Time>2022-06-16T13:11:10.000Z</Time>
            <Position>
              <LatitudeDegrees>36.871016733348369598388671875</LatitudeDegrees>
              <LongitudeDegrees>-4.390209876000881195068359375</LongitudeDegrees>
            </Position>
            <AltitudeMeters>867.79998779296875</AltitudeMeters>
            <DistanceMeters>NAN</DistanceMeters>
          </Trackpoint>
          <Trackpoint>
            <Time>2022-06-16T13:11:12.000Z</Time>
            <Position>
              <LatitudeDegrees>36.870998628437519073486328125</LatitudeDegrees>
              <LongitudeDegrees>-4.39020090736448764801025390625</LongitudeDegrees>
            </Position>
            <AltitudeMeters>868.20001220703125</AltitudeMeters>
            <DistanceMeters>NAN</DistanceMeters>
          </Trackpoint>
          <Trackpoint>
            <Time>2022-06-16T13:11:20.000Z</Time>
            <Position>
              <LatitudeDegrees>36.87092226929962635040283203125</LatitudeDegrees>
              <LongitudeDegrees>-4.39015589654445648193359375</LongitudeDegrees>
            </Position>
            <AltitudeMeters>870</AltitudeMeters>
            <DistanceMeters>NAN</DistanceMeters>
          </Trackpoint>
          <Trackpoint>
            <Time>2022-06-16T13:11:22.000Z</Time>
            <Position>
              <LatitudeDegrees>36.87089947052299976348876953125</LatitudeDegrees>
              <LongitudeDegrees>-4.39014625735580921173095703125</LongitudeDegrees>
            </Position>
            <AltitudeMeters>870.5999755859375</AltitudeMeters>
            <DistanceMeters>NAN</DistanceMeters>
          </Trackpoint>
          <Trackpoint>
            <Time>2022-06-16T13:11:30.000Z</Time>
            <Position>
              <LatitudeDegrees>36.87081581912934780120849609375</LatitudeDegrees>
              <LongitudeDegrees>-4.39011423848569393157958984375</LongitudeDegrees>
            </Position>
            <AltitudeMeters>873</AltitudeMeters>
            <DistanceMeters>NAN</DistanceMeters>
          </Trackpoint>
          <Trackpoint>
            <Time>2022-06-16T13:11:32.000Z</Time>
            <Position>
              <LatitudeDegrees>36.87079687602818012237548828125</LatitudeDegrees>
              <LongitudeDegrees>-4.39010133035480976104736328125</LongitudeDegrees>
            </Position>
            <AltitudeMeters>873.4000244140625</AltitudeMeters>
            <DistanceMeters>NAN</DistanceMeters>
          </Trackpoint>
          <Trackpoint>
            <Time>2022-06-16T13:11:40.000Z</Time>
            <Position>
              <LatitudeDegrees>36.87071389518678188323974609375</LatitudeDegrees>
              <LongitudeDegrees>-4.39003846608102321624755859375</LongitudeDegrees>
            </Position>
            <AltitudeMeters>873.4000244140625</AltitudeMeters>
            <DistanceMeters>NAN</DistanceMeters>
          </Trackpoint>
          <Trackpoint>
            <Time>2022-06-16T13:11:42.000Z</Time>
            <Position>
              <LatitudeDegrees>36.870692186057567596435546875</LatitudeDegrees>
              <LongitudeDegrees>-4.3900237977504730224609375</LongitudeDegrees>
            </Position>
            <AltitudeMeters>873.4000244140625</AltitudeMeters>
            <DistanceMeters>NAN</DistanceMeters>
          </Trackpoint>
          <Trackpoint>
            <Time>2022-06-16T13:11:44.000Z</Time>
            <Position>
              <LatitudeDegrees>36.87067181803286075592041015625</LatitudeDegrees>
              <LongitudeDegrees>-4.390014745295047760009765625</LongitudeDegrees>
            </Position>
            <AltitudeMeters>873.5999755859375</AltitudeMeters>
            <DistanceMeters>NAN</DistanceMeters>
          </Trackpoint>
          <Trackpoint>
            <Time>2022-06-16T13:11:50.000Z</Time>
            <Position>
              <LatitudeDegrees>36.87059336341917514801025390625</LatitudeDegrees>
              <LongitudeDegrees>-4.38997526653110980987548828125</LongitudeDegrees>
            </Position>
            <AltitudeMeters>873.4000244140625</AltitudeMeters>
            <DistanceMeters>NAN</DistanceMeters>
          </Trackpoint>
          <Trackpoint>
            <Time>2022-06-16T13:11:52.000Z</Time>
            <Position>
              <LatitudeDegrees>36.870578862726688385009765625</LatitudeDegrees>
              <LongitudeDegrees>-4.3899709917604923248291015625</LongitudeDegrees>
            </Position>
            <AltitudeMeters>873.4000244140625</AltitudeMeters>
            <DistanceMeters>NAN</DistanceMeters>
          </Trackpoint>
          <Trackpoint>
            <Time>2022-06-16T13:11:56.000Z</Time>
            <Position>
              <LatitudeDegrees>36.870533935725688934326171875</LatitudeDegrees>
              <LongitudeDegrees>-4.3899438343942165374755859375</LongitudeDegrees>
            </Position>
            <AltitudeMeters>872.4000244140625</AltitudeMeters>
            <DistanceMeters>NAN</DistanceMeters>
          </Trackpoint>
          <Trackpoint>
            <Time>2022-06-16T13:12:02.000Z</Time>
            <Position>
              <LatitudeDegrees>36.87045539729297161102294921875</LatitudeDegrees>
              <LongitudeDegrees>-4.38990066759288311004638671875</LongitudeDegrees>
            </Position>
            <AltitudeMeters>871</AltitudeMeters>
            <DistanceMeters>NAN</DistanceMeters>
          </Trackpoint>
          <Trackpoint>
            <Time>2022-06-16T13:12:12.000Z</Time>
            <Position>
              <LatitudeDegrees>36.87036822549998760223388671875</LatitudeDegrees>
              <LongitudeDegrees>-4.389878623187541961669921875</LongitudeDegrees>
            </Position>
            <AltitudeMeters>871.20001220703125</AltitudeMeters>
            <DistanceMeters>NAN</DistanceMeters>
          </Trackpoint>
          <Trackpoint>
            <Time>2022-06-16T13:12:22.000Z</Time>
            <Position>
              <LatitudeDegrees>36.87035246752202510833740234375</LatitudeDegrees>
              <LongitudeDegrees>-4.38984568230807781219482421875</LongitudeDegrees>
            </Position>
            <AltitudeMeters>870</AltitudeMeters>
            <DistanceMeters>NAN</DistanceMeters>
          </Trackpoint>
          <Trackpoint>
            <Time>2022-06-16T13:12:32.000Z</Time>
            <Position>
              <LatitudeDegrees>36.870237886905670166015625</LatitudeDegrees>
              <LongitudeDegrees>-4.3898995779454708099365234375</LongitudeDegrees>
            </Position>
            <AltitudeMeters>872.20001220703125</AltitudeMeters>
            <DistanceMeters>NAN</DistanceMeters>
          </Trackpoint>
          <Trackpoint>
            <Time>2022-06-16T13:12:42.000Z</Time>
            <Position>
              <LatitudeDegrees>36.8701404891908168792724609375</LatitudeDegrees>
              <LongitudeDegrees>-4.38997912220656871795654296875</LongitudeDegrees>
            </Position>
            <AltitudeMeters>875.20001220703125</AltitudeMeters>
            <DistanceMeters>NAN</DistanceMeters>
          </Trackpoint>
          <Trackpoint>
            <Time>2022-06-16T13:12:52.000Z</Time>
            <Position>
              <LatitudeDegrees>36.8700546585023403167724609375</LatitudeDegrees>
              <LongitudeDegrees>-4.390065371990203857421875</LongitudeDegrees>
            </Position>
            <AltitudeMeters>877.4000244140625</AltitudeMeters>
            <DistanceMeters>NAN</DistanceMeters>
          </Trackpoint>
          <Trackpoint>
            <Time>2022-06-16T13:13:02.000Z</Time>
            <Position>
              <LatitudeDegrees>36.8699683248996734619140625</LatitudeDegrees>
              <LongitudeDegrees>-4.39010434783995151519775390625</LongitudeDegrees>
            </Position>
            <AltitudeMeters>877.4000244140625</AltitudeMeters>
            <DistanceMeters>NAN</DistanceMeters>
          </Trackpoint>
          <Trackpoint>
            <Time>2022-06-16T13:13:12.000Z</Time>
            <Position>
              <LatitudeDegrees>36.8698799796402454376220703125</LatitudeDegrees>
              <LongitudeDegrees>-4.3901496939361095428466796875</LongitudeDegrees>
            </Position>
            <AltitudeMeters>877.5999755859375</AltitudeMeters>
            <DistanceMeters>NAN</DistanceMeters>
          </Trackpoint>
          <Trackpoint>
            <Time>2022-06-16T13:13:18.000Z</Time>
            <Position>
              <LatitudeDegrees>36.8698055483400821685791015625</LatitudeDegrees>
              <LongitudeDegrees>-4.3901847302913665771484375</LongitudeDegrees>
            </Position>
            <AltitudeMeters>878</AltitudeMeters>
            <DistanceMeters>NAN</DistanceMeters>
          </Trackpoint>
          <Trackpoint>
            <Time>2022-06-16T13:13:22.000Z</Time>
            <Position>
              <LatitudeDegrees>36.86976321972906589508056640625</LatitudeDegrees>
              <LongitudeDegrees>-4.39018799923360347747802734375</LongitudeDegrees>
            </Position>
            <AltitudeMeters>878</AltitudeMeters>
            <DistanceMeters>NAN</DistanceMeters>
          </Trackpoint>
          <Trackpoint>
            <Time>2022-06-16T13:13:32.000Z</Time>
            <Position>
              <LatitudeDegrees>36.86968510039150714874267578125</LatitudeDegrees>
              <LongitudeDegrees>-4.39019386656582355499267578125</LongitudeDegrees>
            </Position>
            <AltitudeMeters>878.20001220703125</AltitudeMeters>
            <DistanceMeters>NAN</DistanceMeters>
          </Trackpoint>
          <Trackpoint>
            <Time>2022-06-16T13:13:42.000Z</Time>
            <Position>
              <LatitudeDegrees>36.86965559609234333038330078125</LatitudeDegrees>
              <LongitudeDegrees>-4.3902030028402805328369140625</LongitudeDegrees>
            </Position>
            <AltitudeMeters>878.5999755859375</AltitudeMeters>
            <DistanceMeters>NAN</DistanceMeters>
          </Trackpoint>
          <Trackpoint>
            <Time>2022-06-16T13:13:52.000Z</Time>
            <Position>
              <LatitudeDegrees>36.86960128135979175567626953125</LatitudeDegrees>
              <LongitudeDegrees>-4.3902130611240863800048828125</LongitudeDegrees>
            </Position>
            <AltitudeMeters>878.79998779296875</AltitudeMeters>
            <DistanceMeters>NAN</DistanceMeters>
          </Trackpoint>
          <Trackpoint>
            <Time>2022-06-16T13:13:57.000Z</Time>
            <Position>
              <LatitudeDegrees>36.869537495076656341552734375</LatitudeDegrees>
              <LongitudeDegrees>-4.39020459540188312530517578125</LongitudeDegrees>
            </Position>
            <AltitudeMeters>878.5999755859375</AltitudeMeters>
            <DistanceMeters>NAN</DistanceMeters>
          </Trackpoint>
          <Trackpoint>
            <Time>2022-06-16T13:14:02.000Z</Time>
            <Position>
              <LatitudeDegrees>36.86945535242557525634765625</LatitudeDegrees>
              <LongitudeDegrees>-4.39020308665931224822998046875</LongitudeDegrees>
            </Position>
            <AltitudeMeters>877.5999755859375</AltitudeMeters>
            <DistanceMeters>NAN</DistanceMeters>
          </Trackpoint>
          <Trackpoint>
            <Time>2022-06-16T13:14:12.000Z</Time>
            <Position>
              <LatitudeDegrees>36.869360469281673431396484375</LatitudeDegrees>
              <LongitudeDegrees>-4.39022169448435306549072265625</LongitudeDegrees>
            </Position>
            <AltitudeMeters>877.20001220703125</AltitudeMeters>
            <DistanceMeters>NAN</DistanceMeters>
          </Trackpoint>
          <Trackpoint>
            <Time>2022-06-16T13:14:22.000Z</Time>
            <Position>
              <LatitudeDegrees>36.86923599801957607269287109375</LatitudeDegrees>
              <LongitudeDegrees>-4.39024566672742366790771484375</LongitudeDegrees>
            </Position>
            <AltitudeMeters>876.79998779296875</AltitudeMeters>
            <DistanceMeters>NAN</DistanceMeters>
          </Trackpoint>
          <Trackpoint>
            <Time>2022-06-16T13:14:32.000Z</Time>
            <Position>
              <LatitudeDegrees>36.86910071410238742828369140625</LatitudeDegrees>
              <LongitudeDegrees>-4.39025136642158031463623046875</LongitudeDegrees>
            </Position>
            <AltitudeMeters>876.4000244140625</AltitudeMeters>
            <DistanceMeters>NAN</DistanceMeters>
          </Trackpoint>
          <Trackpoint>
            <Time>2022-06-16T13:14:42.000Z</Time>
            <Position>
              <LatitudeDegrees>36.86896626837551593780517578125</LatitudeDegrees>
              <LongitudeDegrees>-4.3902160786092281341552734375</LongitudeDegrees>
            </Position>
            <AltitudeMeters>876</AltitudeMeters>
            <DistanceMeters>NAN</DistanceMeters>
          </Trackpoint>
          <Trackpoint>
            <Time>2022-06-16T13:14:48.000Z</Time>
            <Position>
              <LatitudeDegrees>36.86889518983662128448486328125</LatitudeDegrees>
              <LongitudeDegrees>-4.39018716104328632354736328125</LongitudeDegrees>
            </Position>
            <AltitudeMeters>876.20001220703125</AltitudeMeters>
            <DistanceMeters>NAN</DistanceMeters>
          </Trackpoint>
          <Trackpoint>
            <Time>2022-06-16T13:14:52.000Z</Time>
            <Position>
              <LatitudeDegrees>36.86884514987468719482421875</LatitudeDegrees>
              <LongitudeDegrees>-4.39017911441624164581298828125</LongitudeDegrees>
            </Position>
            <AltitudeMeters>876.5999755859375</AltitudeMeters>
            <DistanceMeters>NAN</DistanceMeters>
          </Trackpoint>
          <Trackpoint>
            <Time>2022-06-16T13:14:59.000Z</Time>
            <Position>
              <LatitudeDegrees>36.86875957064330577850341796875</LatitudeDegrees>
              <LongitudeDegrees>-4.39016452990472316741943359375</LongitudeDegrees>
            </Position>
            <AltitudeMeters>877.5999755859375</AltitudeMeters>
            <DistanceMeters>NAN</DistanceMeters>
          </Trackpoint>
          <Trackpoint>
            <Time>2022-06-16T13:15:02.000Z</Time>
            <Position>
              <LatitudeDegrees>36.86873123981058597564697265625</LatitudeDegrees>
              <LongitudeDegrees>-4.39016419462859630584716796875</LongitudeDegrees>
            </Position>
            <AltitudeMeters>878.20001220703125</AltitudeMeters>
            <DistanceMeters>NAN</DistanceMeters>
          </Trackpoint>
          <Trackpoint>
            <Time>2022-06-16T13:15:12.000Z</Time>
            <Position>
              <LatitudeDegrees>36.86863065697252750396728515625</LatitudeDegrees>
              <LongitudeDegrees>-4.3901393003761768341064453125</LongitudeDegrees>
            </Position>
            <AltitudeMeters>880</AltitudeMeters>
            <DistanceMeters>NAN</DistanceMeters>
          </Trackpoint>
          <Trackpoint>
            <Time>2022-06-16T13:15:20.000Z</Time>
            <Position>
              <LatitudeDegrees>36.8685375340282917022705078125</LatitudeDegrees>
              <LongitudeDegrees>-4.39012505114078521728515625</LongitudeDegrees>
            </Position>
            <AltitudeMeters>881.20001220703125</AltitudeMeters>
            <DistanceMeters>NAN</DistanceMeters>
          </Trackpoint>
          <Trackpoint>
            <Time>2022-06-16T13:15:22.000Z</Time>
            <Position>
              <LatitudeDegrees>36.86851657927036285400390625</LatitudeDegrees>
              <LongitudeDegrees>-4.39012077637016773223876953125</LongitudeDegrees>
            </Position>
            <AltitudeMeters>881.4000244140625</AltitudeMeters>
            <DistanceMeters>NAN</DistanceMeters>
          </Trackpoint>
          <Trackpoint>
            <Time>2022-06-16T13:15:24.000Z</Time>
            <Position>
              <LatitudeDegrees>36.86849822290241718292236328125</LatitudeDegrees>
              <LongitudeDegrees>-4.39011038281023502349853515625</LongitudeDegrees>
            </Position>
            <AltitudeMeters>881.5999755859375</AltitudeMeters>
            <DistanceMeters>NAN</DistanceMeters>
          </Trackpoint>
          <Trackpoint>
            <Time>2022-06-16T13:15:32.000Z</Time>
            <Position>
              <LatitudeDegrees>36.86839998699724674224853515625</LatitudeDegrees>
              <LongitudeDegrees>-4.390084482729434967041015625</LongitudeDegrees>
            </Position>
            <AltitudeMeters>882.4000244140625</AltitudeMeters>
            <DistanceMeters>NAN</DistanceMeters>
          </Trackpoint>
          <Trackpoint>
            <Time>2022-06-16T13:15:42.000Z</Time>
            <Position>
              <LatitudeDegrees>36.86829705722630023956298828125</LatitudeDegrees>
              <LongitudeDegrees>-4.39005623571574687957763671875</LongitudeDegrees>
            </Position>
            <AltitudeMeters>883.5999755859375</AltitudeMeters>
            <DistanceMeters>NAN</DistanceMeters>
          </Trackpoint>
          <Trackpoint>
            <Time>2022-06-16T13:15:43.000Z</Time>
            <Position>
              <LatitudeDegrees>36.86829286627471446990966796875</LatitudeDegrees>
              <LongitudeDegrees>-4.390046931803226470947265625</LongitudeDegrees>
            </Position>
            <AltitudeMeters>883.79998779296875</AltitudeMeters>
            <DistanceMeters>NAN</DistanceMeters>
          </Trackpoint>
          <Trackpoint>
            <Time>2022-06-16T13:15:52.000Z</Time>
            <Position>
              <LatitudeDegrees>36.86826989986002445220947265625</LatitudeDegrees>
              <LongitudeDegrees>-4.3899605982005596160888671875</LongitudeDegrees>
            </Position>
            <AltitudeMeters>884.20001220703125</AltitudeMeters>
            <DistanceMeters>NAN</DistanceMeters>
          </Trackpoint>
          <Trackpoint>
            <Time>2022-06-16T13:16:02.000Z</Time>
            <Position>
              <LatitudeDegrees>36.8682498671114444732666015625</LatitudeDegrees>
              <LongitudeDegrees>-4.3899015896022319793701171875</LongitudeDegrees>
            </Position>
            <AltitudeMeters>883.5999755859375</AltitudeMeters>
            <DistanceMeters>NAN</DistanceMeters>
          </Trackpoint>
          <Trackpoint>
            <Time>2022-06-16T13:16:12.000Z</Time>
            <Position>
              <LatitudeDegrees>36.86824492178857326507568359375</LatitudeDegrees>
              <LongitudeDegrees>-4.38989463262259960174560546875</LongitudeDegrees>
            </Position>
            <AltitudeMeters>883.5999755859375</AltitudeMeters>
            <DistanceMeters>NAN</DistanceMeters>
          </Trackpoint>
          <Trackpoint>
            <Time>2022-06-16T13:16:22.000Z</Time>
            <Position>
              <LatitudeDegrees>36.8682431615889072418212890625</LatitudeDegrees>
              <LongitudeDegrees>-4.38989848829805850982666015625</LongitudeDegrees>
            </Position>
            <AltitudeMeters>883.79998779296875</AltitudeMeters>
            <DistanceMeters>NAN</DistanceMeters>
          </Trackpoint>
          <Trackpoint>
            <Time>2022-06-16T13:16:32.000Z</Time>
            <Position>
              <LatitudeDegrees>36.8682434968650341033935546875</LatitudeDegrees>
              <LongitudeDegrees>-4.38989312388002872467041015625</LongitudeDegrees>
            </Position>
            <AltitudeMeters>883.5999755859375</AltitudeMeters>
            <DistanceMeters>NAN</DistanceMeters>
          </Trackpoint>
          <Trackpoint>
            <Time>2022-06-16T13:16:42.000Z</Time>
            <Position>
              <LatitudeDegrees>36.8682409822940826416015625</LatitudeDegrees>
              <LongitudeDegrees>-4.38989094458520412445068359375</LongitudeDegrees>
            </Position>
            <AltitudeMeters>883.5999755859375</AltitudeMeters>
            <DistanceMeters>NAN</DistanceMeters>
          </Trackpoint>
          <Trackpoint>
            <Time>2022-06-16T13:16:52.000Z</Time>
            <Position>
              <LatitudeDegrees>36.86823117546737194061279296875</LatitudeDegrees>
              <LongitudeDegrees>-4.38989647664129734039306640625</LongitudeDegrees>
            </Position>
            <AltitudeMeters>883.79998779296875</AltitudeMeters>
            <DistanceMeters>NAN</DistanceMeters>
          </Trackpoint>
          <Trackpoint>
            <Time>2022-06-16T13:17:02.000Z</Time>
            <Position>
              <LatitudeDegrees>36.86822480522096157073974609375</LatitudeDegrees>
              <LongitudeDegrees>-4.389904104173183441162109375</LongitudeDegrees>
            </Position>
            <AltitudeMeters>884</AltitudeMeters>
            <DistanceMeters>NAN</DistanceMeters>
          </Trackpoint>
          <Trackpoint>
            <Time>2022-06-16T13:17:12.000Z</Time>
            <Position>
              <LatitudeDegrees>36.868234612047672271728515625</LatitudeDegrees>
              <LongitudeDegrees>-4.38990536145865917205810546875</LongitudeDegrees>
            </Position>
            <AltitudeMeters>884</AltitudeMeters>
            <DistanceMeters>NAN</DistanceMeters>
          </Trackpoint>
          <Trackpoint>
            <Time>2022-06-16T13:17:22.000Z</Time>
            <Position>
              <LatitudeDegrees>36.86825179494917392730712890625</LatitudeDegrees>
              <LongitudeDegrees>-4.38994467258453369140625</LongitudeDegrees>
            </Position>
            <AltitudeMeters>884.20001220703125</AltitudeMeters>
            <DistanceMeters>NAN</DistanceMeters>
          </Trackpoint>
          <Trackpoint>
            <Time>2022-06-16T13:17:32.000Z</Time>
            <Position>
              <LatitudeDegrees>36.86825145967304706573486328125</LatitudeDegrees>
              <LongitudeDegrees>-4.3899579159915447235107421875</LongitudeDegrees>
            </Position>
            <AltitudeMeters>884.4000244140625</AltitudeMeters>
            <DistanceMeters>NAN</DistanceMeters>
          </Trackpoint>
          <Trackpoint>
            <Time>2022-06-16T13:17:37.000Z</Time>
            <Position>
              <LatitudeDegrees>36.8682528845965862274169921875</LatitudeDegrees>
              <LongitudeDegrees>-4.389953054487705230712890625</LongitudeDegrees>
            </Position>
            <AltitudeMeters>884.4000244140625</AltitudeMeters>
            <DistanceMeters>NAN</DistanceMeters>
          </Trackpoint>
          <Trackpoint>
            <Time>2022-06-16T13:17:42.000Z</Time>
            <Position>
              <LatitudeDegrees>36.86825782991945743560791015625</LatitudeDegrees>
              <LongitudeDegrees>-4.3899545632302761077880859375</LongitudeDegrees>
            </Position>
            <AltitudeMeters>884.4000244140625</AltitudeMeters>
            <DistanceMeters>NAN</DistanceMeters>
          </Trackpoint>
          <Trackpoint>
            <Time>2022-06-16T13:17:52.000Z</Time>
            <Position>
              <LatitudeDegrees>36.86825816519558429718017578125</LatitudeDegrees>
              <LongitudeDegrees>-4.38994592987000942230224609375</LongitudeDegrees>
            </Position>
            <AltitudeMeters>884.20001220703125</AltitudeMeters>
            <DistanceMeters>NAN</DistanceMeters>
          </Trackpoint>
          <Trackpoint>
            <Time>2022-06-16T13:18:02.000Z</Time>
            <Position>
              <LatitudeDegrees>36.86825732700526714324951171875</LatitudeDegrees>
              <LongitudeDegrees>-4.38995833508670330047607421875</LongitudeDegrees>
            </Position>
            <AltitudeMeters>884.4000244140625</AltitudeMeters>
            <DistanceMeters>NAN</DistanceMeters>
          </Trackpoint>
          <Trackpoint>
            <Time>2022-06-16T13:18:12.000Z</Time>
            <Position>
              <LatitudeDegrees>36.86825598590075969696044921875</LatitudeDegrees>
              <LongitudeDegrees>-4.3899569101631641387939453125</LongitudeDegrees>
            </Position>
            <AltitudeMeters>884.4000244140625</AltitudeMeters>
            <DistanceMeters>NAN</DistanceMeters>
          </Trackpoint>
          <Trackpoint>
            <Time>2022-06-16T13:18:22.000Z</Time>
            <Position>
              <LatitudeDegrees>36.8682508729398250579833984375</LatitudeDegrees>
              <LongitudeDegrees>-4.3899621069431304931640625</LongitudeDegrees>
            </Position>
            <AltitudeMeters>884.5999755859375</AltitudeMeters>
            <DistanceMeters>NAN</DistanceMeters>
          </Trackpoint>
          <Trackpoint>
            <Time>2022-06-16T13:18:29.000Z</Time>
            <Position>
              <LatitudeDegrees>36.8682498671114444732666015625</LatitudeDegrees>
              <LongitudeDegrees>-4.3899621069431304931640625</LongitudeDegrees>
            </Position>
            <AltitudeMeters>884.5999755859375</AltitudeMeters>
            <DistanceMeters>NAN</DistanceMeters>
          </Trackpoint>
          <Trackpoint>
            <Time>2022-06-16T13:18:32.000Z</Time>
            <Position>
              <LatitudeDegrees>36.86825145967304706573486328125</LatitudeDegrees>
              <LongitudeDegrees>-4.38996302895247936248779296875</LongitudeDegrees>
            </Position>
            <AltitudeMeters>884.5999755859375</AltitudeMeters>
            <DistanceMeters>NAN</DistanceMeters>
          </Trackpoint>
          <Trackpoint>
            <Time>2022-06-16T13:18:42.000Z</Time>
            <Position>
              <LatitudeDegrees>36.86825648881494998931884765625</LatitudeDegrees>
              <LongitudeDegrees>-4.38995741307735443115234375</LongitudeDegrees>
            </Position>
            <AltitudeMeters>884.4000244140625</AltitudeMeters>
            <DistanceMeters>NAN</DistanceMeters>
          </Trackpoint>
          <Trackpoint>
            <Time>2022-06-16T13:18:52.000Z</Time>
            <Position>
              <LatitudeDegrees>36.868258416652679443359375</LatitudeDegrees>
              <LongitudeDegrees>-4.3899569101631641387939453125</LongitudeDegrees>
            </Position>
            <AltitudeMeters>884.4000244140625</AltitudeMeters>
            <DistanceMeters>NAN</DistanceMeters>
          </Trackpoint>
          <Trackpoint>
            <Time>2022-06-16T13:18:53.000Z</Time>
            <Position>
              <LatitudeDegrees>36.86825833283364772796630859375</LatitudeDegrees>
              <LongitudeDegrees>-4.3899569101631641387939453125</LongitudeDegrees>
            </Position>
            <AltitudeMeters>884.4000244140625</AltitudeMeters>
            <DistanceMeters>NAN</DistanceMeters>
          </Trackpoint>
          <Trackpoint>
            <Time>2022-06-16T13:18:54.000Z</Time>
            <Position>
              <LatitudeDegrees>36.86825850047171115875244140625</LatitudeDegrees>
              <LongitudeDegrees>-4.38995682634413242340087890625</LongitudeDegrees>
            </Position>
            <AltitudeMeters>884.4000244140625</AltitudeMeters>
            <DistanceMeters>NAN</DistanceMeters>
          </Trackpoint>
          <Trackpoint>
            <Time>2022-06-16T13:18:57.000Z</Time>
            <Position>
              <LatitudeDegrees>36.86825900338590145111083984375</LatitudeDegrees>
              <LongitudeDegrees>-4.38995607197284698486328125</LongitudeDegrees>
            </Position>
            <AltitudeMeters>884.4000244140625</AltitudeMeters>
            <DistanceMeters>NAN</DistanceMeters>
          </Trackpoint>
          <Trackpoint>
            <Time>2022-06-16T13:18:59.000Z</Time>
            <Position>
              <LatitudeDegrees>36.868258416652679443359375</LatitudeDegrees>
              <LongitudeDegrees>-4.38995607197284698486328125</LongitudeDegrees>
            </Position>
            <AltitudeMeters>884.4000244140625</AltitudeMeters>
            <DistanceMeters>NAN</DistanceMeters>
          </Trackpoint>
          <Trackpoint>
            <Time>2022-06-16T13:19:02.000Z</Time>
            <Position>
              <LatitudeDegrees>36.86825766228139400482177734375</LatitudeDegrees>
              <LongitudeDegrees>-4.3899569101631641387939453125</LongitudeDegrees>
            </Position>
            <AltitudeMeters>884.4000244140625</AltitudeMeters>
            <DistanceMeters>NAN</DistanceMeters>
          </Trackpoint>
          <Trackpoint>
            <Time>2022-06-16T13:19:03.000Z</Time>
            <Position>
              <LatitudeDegrees>36.8682592548429965972900390625</LatitudeDegrees>
              <LongitudeDegrees>-4.3899579159915447235107421875</LongitudeDegrees>
            </Position>
            <AltitudeMeters>884.4000244140625</AltitudeMeters>
            <DistanceMeters>NAN</DistanceMeters>
          </Trackpoint>
          <Trackpoint>
            <Time>2022-06-16T13:19:12.000Z</Time>
            <Position>
              <LatitudeDegrees>36.86826202087104320526123046875</LatitudeDegrees>
              <LongitudeDegrees>-4.389960430562496185302734375</LongitudeDegrees>
            </Position>
            <AltitudeMeters>884.4000244140625</AltitudeMeters>
            <DistanceMeters>NAN</DistanceMeters>
          </Trackpoint>
          <Trackpoint>
            <Time>2022-06-16T13:19:22.000Z</Time>
            <Position>
              <LatitudeDegrees>36.86826202087104320526123046875</LatitudeDegrees>
              <LongitudeDegrees>-4.389960765838623046875</LongitudeDegrees>
            </Position>
            <AltitudeMeters>884.4000244140625</AltitudeMeters>
            <DistanceMeters>NAN</DistanceMeters>
          </Trackpoint>
          <Trackpoint>
            <Time>2022-06-16T13:19:32.000Z</Time>
            <Position>
              <LatitudeDegrees>36.8682622723281383514404296875</LatitudeDegrees>
              <LongitudeDegrees>-4.38995934091508388519287109375</LongitudeDegrees>
            </Position>
            <AltitudeMeters>884.4000244140625</AltitudeMeters>
            <DistanceMeters>NAN</DistanceMeters>
          </Trackpoint>
          <Trackpoint>
            <Time>2022-06-16T13:19:42.000Z</Time>
            <Position>
              <LatitudeDegrees>36.86826302669942378997802734375</LatitudeDegrees>
              <LongitudeDegrees>-4.38995732925832271575927734375</LongitudeDegrees>
            </Position>
            <AltitudeMeters>884.4000244140625</AltitudeMeters>
            <DistanceMeters>NAN</DistanceMeters>
          </Trackpoint>
          <Trackpoint>
            <Time>2022-06-16T13:19:52.000Z</Time>
            <Position>
              <LatitudeDegrees>36.86825866810977458953857421875</LatitudeDegrees>
              <LongitudeDegrees>-4.38995766453444957733154296875</LongitudeDegrees>
            </Position>
            <AltitudeMeters>884.4000244140625</AltitudeMeters>
            <DistanceMeters>NAN</DistanceMeters>
          </Trackpoint>
          <Trackpoint>
            <Time>2022-06-16T13:19:59.000Z</Time>
            <Position>
              <LatitudeDegrees>36.86825430952012538909912109375</LatitudeDegrees>
              <LongitudeDegrees>-4.3899491988122463226318359375</LongitudeDegrees>
            </Position>
            <AltitudeMeters>884.4000244140625</AltitudeMeters>
            <DistanceMeters>NAN</DistanceMeters>
          </Trackpoint>
          <Trackpoint>
            <Time>2022-06-16T13:20:02.000Z</Time>
            <Position>
              <LatitudeDegrees>36.86825665645301342010498046875</LatitudeDegrees>
              <LongitudeDegrees>-4.38994341529905796051025390625</LongitudeDegrees>
            </Position>
            <AltitudeMeters>884.20001220703125</AltitudeMeters>
            <DistanceMeters>NAN</DistanceMeters>
          </Trackpoint>
          <Trackpoint>
            <Time>2022-06-16T13:20:07.000Z</Time>
            <Position>
              <LatitudeDegrees>36.8682475201785564422607421875</LatitudeDegrees>
              <LongitudeDegrees>-4.3899388052523136138916015625</LongitudeDegrees>
            </Position>
            <AltitudeMeters>884.20001220703125</AltitudeMeters>
            <DistanceMeters>NAN</DistanceMeters>
          </Trackpoint>
          <Trackpoint>
            <Time>2022-06-16T13:20:08.000Z</Time>
            <Position>
              <LatitudeDegrees>36.86824693344533443450927734375</LatitudeDegrees>
              <LongitudeDegrees>-4.3899384699761867523193359375</LongitudeDegrees>
            </Position>
            <AltitudeMeters>884.20001220703125</AltitudeMeters>
            <DistanceMeters>NAN</DistanceMeters>
          </Trackpoint>
          <Trackpoint>
            <Time>2022-06-16T13:20:12.000Z</Time>
            <Position>
              <LatitudeDegrees>36.86825104057788848876953125</LatitudeDegrees>
              <LongitudeDegrees>-4.3899327702820301055908203125</LongitudeDegrees>
            </Position>
            <AltitudeMeters>884.20001220703125</AltitudeMeters>
            <DistanceMeters>NAN</DistanceMeters>
          </Trackpoint>
          <Trackpoint>
            <Time>2022-06-16T13:20:22.000Z</Time>
            <Position>
              <LatitudeDegrees>36.86825330369174480438232421875</LatitudeDegrees>
              <LongitudeDegrees>-4.38993101008236408233642578125</LongitudeDegrees>
            </Position>
            <AltitudeMeters>884</AltitudeMeters>
            <DistanceMeters>NAN</DistanceMeters>
          </Trackpoint>
          <Trackpoint>
            <Time>2022-06-16T13:20:32.000Z</Time>
            <Position>
              <LatitudeDegrees>36.8682602606713771820068359375</LatitudeDegrees>
              <LongitudeDegrees>-4.38993788324296474456787109375</LongitudeDegrees>
            </Position>
            <AltitudeMeters>884</AltitudeMeters>
            <DistanceMeters>NAN</DistanceMeters>
          </Trackpoint>
          <Trackpoint>
            <Time>2022-06-16T13:20:35.000Z</Time>
            <Position>
              <LatitudeDegrees>36.868260763585567474365234375</LatitudeDegrees>
              <LongitudeDegrees>-4.3899401463568210601806640625</LongitudeDegrees>
            </Position>
            <AltitudeMeters>884</AltitudeMeters>
            <DistanceMeters>NAN</DistanceMeters>
          </Trackpoint>
          <Trackpoint>
            <Time>2022-06-16T13:20:39.000Z</Time>
            <Position>
              <LatitudeDegrees>36.8682629428803920745849609375</LatitudeDegrees>
              <LongitudeDegrees>-4.38994023017585277557373046875</LongitudeDegrees>
            </Position>
            <AltitudeMeters>884</AltitudeMeters>
            <DistanceMeters>NAN</DistanceMeters>
          </Trackpoint>
          <Trackpoint>
            <Time>2022-06-16T13:20:42.000Z</Time>
            <Position>
              <LatitudeDegrees>36.868264116346836090087890625</LatitudeDegrees>
              <LongitudeDegrees>-4.38994123600423336029052734375</LongitudeDegrees>
            </Position>
            <AltitudeMeters>884</AltitudeMeters>
            <DistanceMeters>NAN</DistanceMeters>
          </Trackpoint>
          <Trackpoint>
            <Time>2022-06-16T13:20:47.000Z</Time>
            <Position>
              <LatitudeDegrees>36.86826554127037525177001953125</LatitudeDegrees>
              <LongitudeDegrees>-4.389938302338123321533203125</LongitudeDegrees>
            </Position>
            <AltitudeMeters>884</AltitudeMeters>
            <DistanceMeters>NAN</DistanceMeters>
          </Trackpoint>
          <Trackpoint>
            <Time>2022-06-16T13:20:50.000Z</Time>
            <Position>
              <LatitudeDegrees>36.868263781070709228515625</LatitudeDegrees>
              <LongitudeDegrees>-4.38993721269071102142333984375</LongitudeDegrees>
            </Position>
            <AltitudeMeters>884</AltitudeMeters>
            <DistanceMeters>NAN</DistanceMeters>
          </Trackpoint>
          <Trackpoint>
            <Time>2022-06-16T13:20:52.000Z</Time>
            <Position>
              <LatitudeDegrees>36.8682636134326457977294921875</LatitudeDegrees>
              <LongitudeDegrees>-4.38993436284363269805908203125</LongitudeDegrees>
            </Position>
            <AltitudeMeters>884</AltitudeMeters>
            <DistanceMeters>NAN</DistanceMeters>
          </Trackpoint>
          <Trackpoint>
            <Time>2022-06-16T13:20:58.000Z</Time>
            <Position>
              <LatitudeDegrees>36.8682679720222949981689453125</LatitudeDegrees>
              <LongitudeDegrees>-4.38994458876550197601318359375</LongitudeDegrees>
            </Position>
            <AltitudeMeters>884</AltitudeMeters>
            <DistanceMeters>NAN</DistanceMeters>
          </Trackpoint>
          <Trackpoint>
            <Time>2022-06-16T13:21:02.000Z</Time>
            <Position>
              <LatitudeDegrees>36.86826981604099273681640625</LatitudeDegrees>
              <LongitudeDegrees>-4.3899418227374553680419921875</LongitudeDegrees>
            </Position>
            <AltitudeMeters>884</AltitudeMeters>
            <DistanceMeters>NAN</DistanceMeters>
          </Trackpoint>
          <Trackpoint>
            <Time>2022-06-16T13:21:11.000Z</Time>
            <Position>
              <LatitudeDegrees>36.86825833283364772796630859375</LatitudeDegrees>
              <LongitudeDegrees>-4.38995129428803920745849609375</LongitudeDegrees>
            </Position>
            <AltitudeMeters>884.20001220703125</AltitudeMeters>
            <DistanceMeters>NAN</DistanceMeters>
          </Trackpoint>
          <Trackpoint>
            <Time>2022-06-16T13:21:12.000Z</Time>
            <Position>
              <LatitudeDegrees>36.86825900338590145111083984375</LatitudeDegrees>
              <LongitudeDegrees>-4.38995447941124439239501953125</LongitudeDegrees>
            </Position>
            <AltitudeMeters>884.4000244140625</AltitudeMeters>
            <DistanceMeters>NAN</DistanceMeters>
          </Trackpoint>
          <Trackpoint>
            <Time>2022-06-16T13:21:22.000Z</Time>
            <Position>
              <LatitudeDegrees>36.8682639487087726593017578125</LatitudeDegrees>
              <LongitudeDegrees>-4.38997593708336353302001953125</LongitudeDegrees>
            </Position>
            <AltitudeMeters>884.4000244140625</AltitudeMeters>
            <DistanceMeters>NAN</DistanceMeters>
          </Trackpoint>
          <Trackpoint>
            <Time>2022-06-16T13:21:32.000Z</Time>
            <Position>
              <LatitudeDegrees>36.86825397424399852752685546875</LatitudeDegrees>
              <LongitudeDegrees>-4.38997560180723667144775390625</LongitudeDegrees>
            </Position>
            <AltitudeMeters>884.5999755859375</AltitudeMeters>
            <DistanceMeters>NAN</DistanceMeters>
          </Trackpoint>
          <Trackpoint>
            <Time>2022-06-16T13:21:42.000Z</Time>
            <Position>
              <LatitudeDegrees>36.86821172945201396942138671875</LatitudeDegrees>
              <LongitudeDegrees>-4.38998599536716938018798828125</LongitudeDegrees>
            </Position>
            <AltitudeMeters>885.20001220703125</AltitudeMeters>
            <DistanceMeters>NAN</DistanceMeters>
          </Trackpoint>
          <Trackpoint>
            <Time>2022-06-16T13:21:52.000Z</Time>
            <Position>
              <LatitudeDegrees>36.86819605529308319091796875</LatitudeDegrees>
              <LongitudeDegrees>-4.3899783678352832794189453125</LongitudeDegrees>
            </Position>
            <AltitudeMeters>885.4000244140625</AltitudeMeters>
            <DistanceMeters>NAN</DistanceMeters>
          </Trackpoint>
          <Trackpoint>
            <Time>2022-06-16T13:22:02.000Z</Time>
            <Position>
              <LatitudeDegrees>36.86815355904400348663330078125</LatitudeDegrees>
              <LongitudeDegrees>-4.38999672420322895050048828125</LongitudeDegrees>
            </Position>
            <AltitudeMeters>886</AltitudeMeters>
            <DistanceMeters>NAN</DistanceMeters>
          </Trackpoint>
          <Trackpoint>
            <Time>2022-06-16T13:22:11.000Z</Time>
            <Position>
              <LatitudeDegrees>36.86809639446437358856201171875</LatitudeDegrees>
              <LongitudeDegrees>-4.3899823911488056182861328125</LongitudeDegrees>
            </Position>
            <AltitudeMeters>887</AltitudeMeters>
            <DistanceMeters>NAN</DistanceMeters>
          </Trackpoint>
          <Trackpoint>
            <Time>2022-06-16T13:22:12.000Z</Time>
            <Position>
              <LatitudeDegrees>36.86808834783732891082763671875</LatitudeDegrees>
              <LongitudeDegrees>-4.3899817205965518951416015625</LongitudeDegrees>
            </Position>
            <AltitudeMeters>887.20001220703125</AltitudeMeters>
            <DistanceMeters>NAN</DistanceMeters>
          </Trackpoint>
          <Trackpoint>
            <Time>2022-06-16T13:22:22.000Z</Time>
            <Position>
              <LatitudeDegrees>36.8679970689117908477783203125</LatitudeDegrees>
              <LongitudeDegrees>-4.38996814191341400146484375</LongitudeDegrees>
            </Position>
            <AltitudeMeters>888.79998779296875</AltitudeMeters>
            <DistanceMeters>NAN</DistanceMeters>
          </Trackpoint>
          <Trackpoint>
            <Time>2022-06-16T13:22:32.000Z</Time>
            <Position>
              <LatitudeDegrees>36.8679068796336650848388671875</LatitudeDegrees>
              <LongitudeDegrees>-4.38994224183261394500732421875</LongitudeDegrees>
            </Position>
            <AltitudeMeters>890</AltitudeMeters>
            <DistanceMeters>NAN</DistanceMeters>
          </Trackpoint>
          <Trackpoint>
            <Time>2022-06-16T13:22:42.000Z</Time>
            <Position>
              <LatitudeDegrees>36.86782054603099822998046875</LatitudeDegrees>
              <LongitudeDegrees>-4.38991491682827472686767578125</LongitudeDegrees>
            </Position>
            <AltitudeMeters>890.79998779296875</AltitudeMeters>
            <DistanceMeters>NAN</DistanceMeters>
          </Trackpoint>
          <Trackpoint>
            <Time>2022-06-16T13:22:48.000Z</Time>
            <Position>
              <LatitudeDegrees>36.867769919335842132568359375</LatitudeDegrees>
              <LongitudeDegrees>-4.3898844905197620391845703125</LongitudeDegrees>
            </Position>
            <AltitudeMeters>891</AltitudeMeters>
            <DistanceMeters>NAN</DistanceMeters>
          </Trackpoint>
          <Trackpoint>
            <Time>2022-06-16T13:22:52.000Z</Time>
            <Position>
              <LatitudeDegrees>36.86773094348609447479248046875</LatitudeDegrees>
              <LongitudeDegrees>-4.38985607586801052093505859375</LongitudeDegrees>
            </Position>
            <AltitudeMeters>891.20001220703125</AltitudeMeters>
            <DistanceMeters>NAN</DistanceMeters>
          </Trackpoint>
          <Trackpoint>
            <Time>2022-06-16T13:22:54.000Z</Time>
            <Position>
              <LatitudeDegrees>36.86771392822265625</LatitudeDegrees>
              <LongitudeDegrees>-4.38985280692577362060546875</LongitudeDegrees>
            </Position>
            <AltitudeMeters>891.4000244140625</AltitudeMeters>
            <DistanceMeters>NAN</DistanceMeters>
          </Trackpoint>
          <Trackpoint>
            <Time>2022-06-16T13:22:56.000Z</Time>
            <Position>
              <LatitudeDegrees>36.86769221909344196319580078125</LatitudeDegrees>
              <LongitudeDegrees>-4.38984467647969722747802734375</LongitudeDegrees>
            </Position>
            <AltitudeMeters>891.79998779296875</AltitudeMeters>
            <DistanceMeters>NAN</DistanceMeters>
          </Trackpoint>
          <Trackpoint>
            <Time>2022-06-16T13:22:58.000Z</Time>
            <Position>
              <LatitudeDegrees>36.8676708452403545379638671875</LatitudeDegrees>
              <LongitudeDegrees>-4.38982472755014896392822265625</LongitudeDegrees>
            </Position>
            <AltitudeMeters>892.20001220703125</AltitudeMeters>
            <DistanceMeters>NAN</DistanceMeters>
          </Trackpoint>
          <Trackpoint>
            <Time>2022-06-16T13:23:00.000Z</Time>
            <Position>
              <LatitudeDegrees>36.867649219930171966552734375</LatitudeDegrees>
              <LongitudeDegrees>-4.3898092210292816162109375</LongitudeDegrees>
            </Position>
            <AltitudeMeters>892.5999755859375</AltitudeMeters>
            <DistanceMeters>NAN</DistanceMeters>
          </Trackpoint>
          <Trackpoint>
            <Time>2022-06-16T13:23:01.000Z</Time>
            <Position>
              <LatitudeDegrees>36.867637820541858673095703125</LatitudeDegrees>
              <LongitudeDegrees>-4.3898020125925540924072265625</LongitudeDegrees>
            </Position>
            <AltitudeMeters>892.79998779296875</AltitudeMeters>
            <DistanceMeters>NAN</DistanceMeters>
          </Trackpoint>
          <Trackpoint>
            <Time>2022-06-16T13:23:02.000Z</Time>
            <Position>
              <LatitudeDegrees>36.8676275946199893951416015625</LatitudeDegrees>
              <LongitudeDegrees>-4.38979857601225376129150390625</LongitudeDegrees>
            </Position>
            <AltitudeMeters>893.20001220703125</AltitudeMeters>
            <DistanceMeters>NAN</DistanceMeters>
          </Trackpoint>
          <Trackpoint>
            <Time>2022-06-16T13:23:04.000Z</Time>
            <Position>
              <LatitudeDegrees>36.86760420911014080047607421875</LatitudeDegrees>
              <LongitudeDegrees>-4.38978667370975017547607421875</LongitudeDegrees>
            </Position>
            <AltitudeMeters>893.5999755859375</AltitudeMeters>
            <DistanceMeters>NAN</DistanceMeters>
          </Trackpoint>
          <Trackpoint>
            <Time>2022-06-16T13:23:07.000Z</Time>
            <Position>
              <LatitudeDegrees>36.8675729446113109588623046875</LatitudeDegrees>
              <LongitudeDegrees>-4.3897681497037410736083984375</LongitudeDegrees>
            </Position>
            <AltitudeMeters>893.4000244140625</AltitudeMeters>
            <DistanceMeters>NAN</DistanceMeters>
          </Trackpoint>
          <Trackpoint>
            <Time>2022-06-16T13:23:12.000Z</Time>
            <Position>
              <LatitudeDegrees>36.867522485554218292236328125</LatitudeDegrees>
              <LongitudeDegrees>-4.38972867093980312347412109375</LongitudeDegrees>
            </Position>
            <AltitudeMeters>893.20001220703125</AltitudeMeters>
            <DistanceMeters>NAN</DistanceMeters>
          </Trackpoint>
          <Trackpoint>
            <Time>2022-06-16T13:23:22.000Z</Time>
            <Position>
              <LatitudeDegrees>36.86744545586407184600830078125</LatitudeDegrees>
              <LongitudeDegrees>-4.389639236032962799072265625</LongitudeDegrees>
            </Position>
            <AltitudeMeters>892.20001220703125</AltitudeMeters>
            <DistanceMeters>NAN</DistanceMeters>
          </Trackpoint>
          <Trackpoint>
            <Time>2022-06-16T13:23:27.000Z</Time>
            <Position>
              <LatitudeDegrees>36.86741628684103488922119140625</LatitudeDegrees>
              <LongitudeDegrees>-4.3895961530506610870361328125</LongitudeDegrees>
            </Position>
            <AltitudeMeters>891.5999755859375</AltitudeMeters>
            <DistanceMeters>NAN</DistanceMeters>
          </Trackpoint>
          <Trackpoint>
            <Time>2022-06-16T13:23:32.000Z</Time>
            <Position>
              <LatitudeDegrees>36.8673674203455448150634765625</LatitudeDegrees>
              <LongitudeDegrees>-4.38956002704799175262451171875</LongitudeDegrees>
            </Position>
            <AltitudeMeters>892.4000244140625</AltitudeMeters>
            <DistanceMeters>NAN</DistanceMeters>
          </Trackpoint>
          <Trackpoint>
            <Time>2022-06-16T13:23:37.000Z</Time>
            <Position>
              <LatitudeDegrees>36.86731955967843532562255859375</LatitudeDegrees>
              <LongitudeDegrees>-4.389521889388561248779296875</LongitudeDegrees>
            </Position>
            <AltitudeMeters>893</AltitudeMeters>
            <DistanceMeters>NAN</DistanceMeters>
          </Trackpoint>
          <Trackpoint>
            <Time>2022-06-16T13:23:42.000Z</Time>
            <Position>
              <LatitudeDegrees>36.8672780692577362060546875</LatitudeDegrees>
              <LongitudeDegrees>-4.38948626630008220672607421875</LongitudeDegrees>
            </Position>
            <AltitudeMeters>892.5999755859375</AltitudeMeters>
            <DistanceMeters>NAN</DistanceMeters>
          </Trackpoint>
          <Trackpoint>
            <Time>2022-06-16T13:23:48.000Z</Time>
            <Position>
              <LatitudeDegrees>36.8672309629619121551513671875</LatitudeDegrees>
              <LongitudeDegrees>-4.38944167457520961761474609375</LongitudeDegrees>
            </Position>
            <AltitudeMeters>893</AltitudeMeters>
            <DistanceMeters>NAN</DistanceMeters>
          </Trackpoint>
          <Trackpoint>
            <Time>2022-06-16T13:23:52.000Z</Time>
            <Position>
              <LatitudeDegrees>36.8672011233866214752197265625</LatitudeDegrees>
              <LongitudeDegrees>-4.38941384665668010711669921875</LongitudeDegrees>
            </Position>
            <AltitudeMeters>893.4000244140625</AltitudeMeters>
            <DistanceMeters>NAN</DistanceMeters>
          </Trackpoint>
          <Trackpoint>
            <Time>2022-06-16T13:23:57.000Z</Time>
            <Position>
              <LatitudeDegrees>36.8671779893338680267333984375</LatitudeDegrees>
              <LongitudeDegrees>-4.389389120042324066162109375</LongitudeDegrees>
            </Position>
            <AltitudeMeters>893.79998779296875</AltitudeMeters>
            <DistanceMeters>NAN</DistanceMeters>
          </Trackpoint>
          <Trackpoint>
            <Time>2022-06-16T13:24:01.000Z</Time>
            <Position>
              <LatitudeDegrees>36.86717656441032886505126953125</LatitudeDegrees>
              <LongitudeDegrees>-4.38939037732779979705810546875</LongitudeDegrees>
            </Position>
            <AltitudeMeters>893.5999755859375</AltitudeMeters>
            <DistanceMeters>NAN</DistanceMeters>
          </Trackpoint>
          <Trackpoint>
            <Time>2022-06-16T13:24:02.000Z</Time>
            <Position>
              <LatitudeDegrees>36.86717941425740718841552734375</LatitudeDegrees>
              <LongitudeDegrees>-4.38938937149941921234130859375</LongitudeDegrees>
            </Position>
            <AltitudeMeters>893.5999755859375</AltitudeMeters>
            <DistanceMeters>NAN</DistanceMeters>
          </Trackpoint>
          <Trackpoint>
            <Time>2022-06-16T13:24:07.000Z</Time>
            <Position>
              <LatitudeDegrees>36.86718092299997806549072265625</LatitudeDegrees>
              <LongitudeDegrees>-4.3893889524042606353759765625</LongitudeDegrees>
            </Position>
            <AltitudeMeters>893.5999755859375</AltitudeMeters>
            <DistanceMeters>NAN</DistanceMeters>
          </Trackpoint>
          <Trackpoint>
            <Time>2022-06-16T13:24:12.000Z</Time>
            <Position>
              <LatitudeDegrees>36.867184527218341827392578125</LatitudeDegrees>
              <LongitudeDegrees>-4.38938551582396030426025390625</LongitudeDegrees>
            </Position>
            <AltitudeMeters>893.79998779296875</AltitudeMeters>
            <DistanceMeters>NAN</DistanceMeters>
          </Trackpoint>
          <Trackpoint>
            <Time>2022-06-16T13:24:22.000Z</Time>
            <Position>
              <LatitudeDegrees>36.8671873770654201507568359375</LatitudeDegrees>
              <LongitudeDegrees>-4.38938342034816741943359375</LongitudeDegrees>
            </Position>
            <AltitudeMeters>893.79998779296875</AltitudeMeters>
            <DistanceMeters>NAN</DistanceMeters>
          </Trackpoint>
          <Trackpoint>
            <Time>2022-06-16T13:24:30.000Z</Time>
            <Position>
              <LatitudeDegrees>36.86717949807643890380859375</LatitudeDegrees>
              <LongitudeDegrees>-4.38938484527170658111572265625</LongitudeDegrees>
            </Position>
            <AltitudeMeters>893.79998779296875</AltitudeMeters>
            <DistanceMeters>NAN</DistanceMeters>
          </Trackpoint>
          <Trackpoint>
            <Time>2022-06-16T13:24:32.000Z</Time>
            <Position>
              <LatitudeDegrees>36.86718109063804149627685546875</LatitudeDegrees>
              <LongitudeDegrees>-4.3893886171281337738037109375</LongitudeDegrees>
            </Position>
            <AltitudeMeters>893.5999755859375</AltitudeMeters>
            <DistanceMeters>NAN</DistanceMeters>
          </Trackpoint>
          <Trackpoint>
            <Time>2022-06-16T13:24:42.000Z</Time>
            <Position>
              <LatitudeDegrees>36.8671776540577411651611328125</LatitudeDegrees>
              <LongitudeDegrees>-4.3894015252590179443359375</LongitudeDegrees>
            </Position>
            <AltitudeMeters>893.5999755859375</AltitudeMeters>
            <DistanceMeters>NAN</DistanceMeters>
          </Trackpoint>
          <Trackpoint>
            <Time>2022-06-16T13:24:52.000Z</Time>
            <Position>
              <LatitudeDegrees>36.86718888580799102783203125</LatitudeDegrees>
              <LongitudeDegrees>-4.3893980048596858978271484375</LongitudeDegrees>
            </Position>
            <AltitudeMeters>893.5999755859375</AltitudeMeters>
            <DistanceMeters>NAN</DistanceMeters>
          </Trackpoint>
          <Trackpoint>
            <Time>2022-06-16T13:24:55.000Z</Time>
            <Position>
              <LatitudeDegrees>36.8671841919422149658203125</LatitudeDegrees>
              <LongitudeDegrees>-4.38940077088773250579833984375</LongitudeDegrees>
            </Position>
            <AltitudeMeters>893.5999755859375</AltitudeMeters>
            <DistanceMeters>NAN</DistanceMeters>
          </Trackpoint>
          <Trackpoint>
            <Time>2022-06-16T13:25:02.000Z</Time>
            <Position>
              <LatitudeDegrees>36.867185197770595550537109375</LatitudeDegrees>
              <LongitudeDegrees>-4.38939817249774932861328125</LongitudeDegrees>
            </Position>
            <AltitudeMeters>893.5999755859375</AltitudeMeters>
            <DistanceMeters>NAN</DistanceMeters>
          </Trackpoint>
          <Trackpoint>
            <Time>2022-06-16T13:25:08.000Z</Time>
            <Position>
              <LatitudeDegrees>36.867185868322849273681640625</LatitudeDegrees>
              <LongitudeDegrees>-4.38939951360225677490234375</LongitudeDegrees>
            </Position>
            <AltitudeMeters>893.5999755859375</AltitudeMeters>
            <DistanceMeters>NAN</DistanceMeters>
          </Trackpoint>
          <Trackpoint>
            <Time>2022-06-16T13:25:12.000Z</Time>
            <Position>
              <LatitudeDegrees>36.8671863712370395660400390625</LatitudeDegrees>
              <LongitudeDegrees>-4.38939859159290790557861328125</LongitudeDegrees>
            </Position>
            <AltitudeMeters>893.5999755859375</AltitudeMeters>
            <DistanceMeters>NAN</DistanceMeters>
          </Trackpoint>
          <Trackpoint>
            <Time>2022-06-16T13:25:14.000Z</Time>
            <Position>
              <LatitudeDegrees>36.86718528158962726593017578125</LatitudeDegrees>
              <LongitudeDegrees>-4.389398507773876190185546875</LongitudeDegrees>
            </Position>
            <AltitudeMeters>893.5999755859375</AltitudeMeters>
            <DistanceMeters>NAN</DistanceMeters>
          </Trackpoint>
          <Trackpoint>
            <Time>2022-06-16T13:25:15.000Z</Time>
            <Position>
              <LatitudeDegrees>36.867185197770595550537109375</LatitudeDegrees>
              <LongitudeDegrees>-4.3893990106880664825439453125</LongitudeDegrees>
            </Position>
            <AltitudeMeters>893.5999755859375</AltitudeMeters>
            <DistanceMeters>NAN</DistanceMeters>
          </Trackpoint>
          <Trackpoint>
            <Time>2022-06-16T13:25:16.000Z</Time>
            <Position>
              <LatitudeDegrees>36.86718511395156383514404296875</LatitudeDegrees>
              <LongitudeDegrees>-4.3893993459641933441162109375</LongitudeDegrees>
            </Position>
            <AltitudeMeters>893.5999755859375</AltitudeMeters>
            <DistanceMeters>NAN</DistanceMeters>
          </Trackpoint>
          <Trackpoint>
            <Time>2022-06-16T13:25:22.000Z</Time>
            <Position>
              <LatitudeDegrees>36.867188550531864166259765625</LatitudeDegrees>
              <LongitudeDegrees>-4.38939817249774932861328125</LongitudeDegrees>
            </Position>
            <AltitudeMeters>893.5999755859375</AltitudeMeters>
            <DistanceMeters>NAN</DistanceMeters>
          </Trackpoint>
          <Trackpoint>
            <Time>2022-06-16T13:25:28.000Z</Time>
            <Position>
              <LatitudeDegrees>36.867187209427356719970703125</LatitudeDegrees>
              <LongitudeDegrees>-4.3893842585384845733642578125</LongitudeDegrees>
            </Position>
            <AltitudeMeters>893.79998779296875</AltitudeMeters>
            <DistanceMeters>NAN</DistanceMeters>
          </Trackpoint>
          <Trackpoint>
            <Time>2022-06-16T13:25:32.000Z</Time>
            <Position>
              <LatitudeDegrees>36.86718762852251529693603515625</LatitudeDegrees>
              <LongitudeDegrees>-4.38939641229808330535888671875</LongitudeDegrees>
            </Position>
            <AltitudeMeters>893.5999755859375</AltitudeMeters>
            <DistanceMeters>NAN</DistanceMeters>
          </Trackpoint>
          <Trackpoint>
            <Time>2022-06-16T13:25:42.000Z</Time>
            <Position>
              <LatitudeDegrees>36.86717773787677288055419921875</LatitudeDegrees>
              <LongitudeDegrees>-4.38940529711544513702392578125</LongitudeDegrees>
            </Position>
            <AltitudeMeters>893.5999755859375</AltitudeMeters>
            <DistanceMeters>NAN</DistanceMeters>
          </Trackpoint>
          <Trackpoint>
            <Time>2022-06-16T13:25:43.000Z</Time>
            <Position>
              <LatitudeDegrees>36.86717740260064601898193359375</LatitudeDegrees>
              <LongitudeDegrees>-4.3894050456583499908447265625</LongitudeDegrees>
            </Position>
            <AltitudeMeters>893.5999755859375</AltitudeMeters>
            <DistanceMeters>NAN</DistanceMeters>
          </Trackpoint>
          <Trackpoint>
            <Time>2022-06-16T13:25:45.000Z</Time>
            <Position>
              <LatitudeDegrees>36.86717740260064601898193359375</LatitudeDegrees>
              <LongitudeDegrees>-4.38940512947738170623779296875</LongitudeDegrees>
            </Position>
            <AltitudeMeters>893.5999755859375</AltitudeMeters>
            <DistanceMeters>NAN</DistanceMeters>
          </Trackpoint>
          <Trackpoint>
            <Time>2022-06-16T13:25:46.000Z</Time>
            <Position>
              <LatitudeDegrees>36.8671759776771068572998046875</LatitudeDegrees>
              <LongitudeDegrees>-4.38940110616385936737060546875</LongitudeDegrees>
            </Position>
            <AltitudeMeters>893.5999755859375</AltitudeMeters>
            <DistanceMeters>NAN</DistanceMeters>
          </Trackpoint>
          <Trackpoint>
            <Time>2022-06-16T13:25:47.000Z</Time>
            <Position>
              <LatitudeDegrees>36.86717337928712368011474609375</LatitudeDegrees>
              <LongitudeDegrees>-4.38939951360225677490234375</LongitudeDegrees>
            </Position>
            <AltitudeMeters>893.5999755859375</AltitudeMeters>
            <DistanceMeters>NAN</DistanceMeters>
          </Trackpoint>
          <Trackpoint>
            <Time>2022-06-16T13:25:49.000Z</Time>
            <Position>
              <LatitudeDegrees>36.86716214753687381744384765625</LatitudeDegrees>
              <LongitudeDegrees>-4.389395825564861297607421875</LongitudeDegrees>
            </Position>
            <AltitudeMeters>893.79998779296875</AltitudeMeters>
            <DistanceMeters>NAN</DistanceMeters>
          </Trackpoint>
          <Trackpoint>
            <Time>2022-06-16T13:25:52.000Z</Time>
            <Position>
              <LatitudeDegrees>36.86714253388345241546630859375</LatitudeDegrees>
              <LongitudeDegrees>-4.3893728591501712799072265625</LongitudeDegrees>
            </Position>
            <AltitudeMeters>894</AltitudeMeters>
            <DistanceMeters>NAN</DistanceMeters>
          </Trackpoint>
          <Trackpoint>
            <Time>2022-06-16T13:25:54.000Z</Time>
            <Position>
              <LatitudeDegrees>36.86712979339063167572021484375</LatitudeDegrees>
              <LongitudeDegrees>-4.38935483805835247039794921875</LongitudeDegrees>
            </Position>
            <AltitudeMeters>894.20001220703125</AltitudeMeters>
            <DistanceMeters>NAN</DistanceMeters>
          </Trackpoint>
          <Trackpoint>
            <Time>2022-06-16T13:26:02.000Z</Time>
            <Position>
              <LatitudeDegrees>36.86704547144472599029541015625</LatitudeDegrees>
              <LongitudeDegrees>-4.38930404372513294219970703125</LongitudeDegrees>
            </Position>
            <AltitudeMeters>896</AltitudeMeters>
            <DistanceMeters>NAN</DistanceMeters>
          </Trackpoint>
          <Trackpoint>
            <Time>2022-06-16T13:26:12.000Z</Time>
            <Position>
              <LatitudeDegrees>36.8669406138360500335693359375</LatitudeDegrees>
              <LongitudeDegrees>-4.3892674148082733154296875</LongitudeDegrees>
            </Position>
            <AltitudeMeters>896.5999755859375</AltitudeMeters>
            <DistanceMeters>NAN</DistanceMeters>
          </Trackpoint>
          <Trackpoint>
            <Time>2022-06-16T13:26:22.000Z</Time>
            <Position>
              <LatitudeDegrees>36.86683055944740772247314453125</LatitudeDegrees>
              <LongitudeDegrees>-4.3892325460910797119140625</LongitudeDegrees>
            </Position>
            <AltitudeMeters>897.20001220703125</AltitudeMeters>
            <DistanceMeters>NAN</DistanceMeters>
          </Trackpoint>
          <Trackpoint>
            <Time>2022-06-16T13:26:32.000Z</Time>
            <Position>
              <LatitudeDegrees>36.86671991832554340362548828125</LatitudeDegrees>
              <LongitudeDegrees>-4.3892545066773891448974609375</LongitudeDegrees>
            </Position>
            <AltitudeMeters>896.5999755859375</AltitudeMeters>
            <DistanceMeters>NAN</DistanceMeters>
          </Trackpoint>
          <Trackpoint>
            <Time>2022-06-16T13:26:42.000Z</Time>
            <Position>
              <LatitudeDegrees>36.86660257168114185333251953125</LatitudeDegrees>
              <LongitudeDegrees>-4.3892682529985904693603515625</LongitudeDegrees>
            </Position>
            <AltitudeMeters>896.20001220703125</AltitudeMeters>
            <DistanceMeters>NAN</DistanceMeters>
          </Trackpoint>
          <Trackpoint>
            <Time>2022-06-16T13:26:52.000Z</Time>
            <Position>
              <LatitudeDegrees>36.8664698861539363861083984375</LatitudeDegrees>
              <LongitudeDegrees>-4.38928090967237949371337890625</LongitudeDegrees>
            </Position>
            <AltitudeMeters>896.4000244140625</AltitudeMeters>
            <DistanceMeters>NAN</DistanceMeters>
          </Trackpoint>
          <Trackpoint>
            <Time>2022-06-16T13:27:02.000Z</Time>
            <Position>
              <LatitudeDegrees>36.86636544764041900634765625</LatitudeDegrees>
              <LongitudeDegrees>-4.38930856995284557342529296875</LongitudeDegrees>
            </Position>
            <AltitudeMeters>896.20001220703125</AltitudeMeters>
            <DistanceMeters>NAN</DistanceMeters>
          </Trackpoint>
          <Trackpoint>
            <Time>2022-06-16T13:27:12.000Z</Time>
            <Position>
              <LatitudeDegrees>36.86625438742339611053466796875</LatitudeDegrees>
              <LongitudeDegrees>-4.38931041397154331207275390625</LongitudeDegrees>
            </Position>
            <AltitudeMeters>896.5999755859375</AltitudeMeters>
            <DistanceMeters>NAN</DistanceMeters>
          </Trackpoint>
          <Trackpoint>
            <Time>2022-06-16T13:27:22.000Z</Time>
            <Position>
              <LatitudeDegrees>36.86614424921572208404541015625</LatitudeDegrees>
              <LongitudeDegrees>-4.389289207756519317626953125</LongitudeDegrees>
            </Position>
            <AltitudeMeters>897.79998779296875</AltitudeMeters>
            <DistanceMeters>NAN</DistanceMeters>
          </Trackpoint>
          <Trackpoint>
            <Time>2022-06-16T13:27:32.000Z</Time>
            <Position>
              <LatitudeDegrees>36.866035200655460357666015625</LatitudeDegrees>
              <LongitudeDegrees>-4.3892270140349864959716796875</LongitudeDegrees>
            </Position>
            <AltitudeMeters>899.79998779296875</AltitudeMeters>
            <DistanceMeters>NAN</DistanceMeters>
          </Trackpoint>
          <Trackpoint>
            <Time>2022-06-16T13:27:42.000Z</Time>
            <Position>
              <LatitudeDegrees>36.8659170158207416534423828125</LatitudeDegrees>
              <LongitudeDegrees>-4.389118216931819915771484375</LongitudeDegrees>
            </Position>
            <AltitudeMeters>902.20001220703125</AltitudeMeters>
            <DistanceMeters>NAN</DistanceMeters>
          </Trackpoint>
          <Trackpoint>
            <Time>2022-06-16T13:27:52.000Z</Time>
            <Position>
              <LatitudeDegrees>36.86584820039570331573486328125</LatitudeDegrees>
              <LongitudeDegrees>-4.38897061161696910858154296875</LongitudeDegrees>
            </Position>
            <AltitudeMeters>904.79998779296875</AltitudeMeters>
            <DistanceMeters>NAN</DistanceMeters>
          </Trackpoint>
          <Trackpoint>
            <Time>2022-06-16T13:28:02.000Z</Time>
            <Position>
              <LatitudeDegrees>36.86584115959703922271728515625</LatitudeDegrees>
              <LongitudeDegrees>-4.3888109363615512847900390625</LongitudeDegrees>
            </Position>
            <AltitudeMeters>907.5999755859375</AltitudeMeters>
            <DistanceMeters>NAN</DistanceMeters>
          </Trackpoint>
          <Trackpoint>
            <Time>2022-06-16T13:28:12.000Z</Time>
            <Position>
              <LatitudeDegrees>36.865830682218074798583984375</LatitudeDegrees>
              <LongitudeDegrees>-4.3886665999889373779296875</LongitudeDegrees>
            </Position>
            <AltitudeMeters>909.4000244140625</AltitudeMeters>
            <DistanceMeters>NAN</DistanceMeters>
          </Trackpoint>
          <Trackpoint>
            <Time>2022-06-16T13:28:22.000Z</Time>
            <Position>
              <LatitudeDegrees>36.865773685276508331298828125</LatitudeDegrees>
              <LongitudeDegrees>-4.3885061703622341156005859375</LongitudeDegrees>
            </Position>
            <AltitudeMeters>910.20001220703125</AltitudeMeters>
            <DistanceMeters>NAN</DistanceMeters>
          </Trackpoint>
          <Trackpoint>
            <Time>2022-06-16T13:28:28.000Z</Time>
            <Position>
              <LatitudeDegrees>36.86572900973260402679443359375</LatitudeDegrees>
              <LongitudeDegrees>-4.388418830931186676025390625</LongitudeDegrees>
            </Position>
            <AltitudeMeters>910.5999755859375</AltitudeMeters>
            <DistanceMeters>NAN</DistanceMeters>
          </Trackpoint>
          <Trackpoint>
            <Time>2022-06-16T13:28:30.000Z</Time>
            <Position>
              <LatitudeDegrees>36.8657091446220874786376953125</LatitudeDegrees>
              <LongitudeDegrees>-4.38839309848845005035400390625</LongitudeDegrees>
            </Position>
            <AltitudeMeters>910.5999755859375</AltitudeMeters>
            <DistanceMeters>NAN</DistanceMeters>
          </Trackpoint>
          <Trackpoint>
            <Time>2022-06-16T13:28:31.000Z</Time>
            <Position>
              <LatitudeDegrees>36.8656984157860279083251953125</LatitudeDegrees>
              <LongitudeDegrees>-4.3883804418146610260009765625</LongitudeDegrees>
            </Position>
            <AltitudeMeters>910.5999755859375</AltitudeMeters>
            <DistanceMeters>NAN</DistanceMeters>
          </Trackpoint>
          <Trackpoint>
            <Time>2022-06-16T13:28:32.000Z</Time>
            <Position>
              <LatitudeDegrees>36.86568550765514373779296875</LatitudeDegrees>
              <LongitudeDegrees>-4.3883673660457134246826171875</LongitudeDegrees>
            </Position>
            <AltitudeMeters>910.4000244140625</AltitudeMeters>
            <DistanceMeters>NAN</DistanceMeters>
          </Trackpoint>
          <Trackpoint>
            <Time>2022-06-16T13:28:37.000Z</Time>
            <Position>
              <LatitudeDegrees>36.86563278548419475555419921875</LatitudeDegrees>
              <LongitudeDegrees>-4.388315565884113311767578125</LongitudeDegrees>
            </Position>
            <AltitudeMeters>910</AltitudeMeters>
            <DistanceMeters>NAN</DistanceMeters>
          </Trackpoint>
          <Trackpoint>
            <Time>2022-06-16T13:28:38.000Z</Time>
            <Position>
              <LatitudeDegrees>36.86562440358102321624755859375</LatitudeDegrees>
              <LongitudeDegrees>-4.38830525614321231842041015625</LongitudeDegrees>
            </Position>
            <AltitudeMeters>909.79998779296875</AltitudeMeters>
            <DistanceMeters>NAN</DistanceMeters>
          </Trackpoint>
          <Trackpoint>
            <Time>2022-06-16T13:28:39.000Z</Time>
            <Position>
              <LatitudeDegrees>36.865614764392375946044921875</LatitudeDegrees>
              <LongitudeDegrees>-4.388295449316501617431640625</LongitudeDegrees>
            </Position>
            <AltitudeMeters>909.5999755859375</AltitudeMeters>
            <DistanceMeters>NAN</DistanceMeters>
          </Trackpoint>
          <Trackpoint>
            <Time>2022-06-16T13:28:40.000Z</Time>
            <Position>
              <LatitudeDegrees>36.86560831032693386077880859375</LatitudeDegrees>
              <LongitudeDegrees>-4.388285391032695770263671875</LongitudeDegrees>
            </Position>
            <AltitudeMeters>909.5999755859375</AltitudeMeters>
            <DistanceMeters>NAN</DistanceMeters>
          </Trackpoint>
          <Trackpoint>
            <Time>2022-06-16T13:28:41.000Z</Time>
            <Position>
              <LatitudeDegrees>36.8656001798808574676513671875</LatitudeDegrees>
              <LongitudeDegrees>-4.3882765062153339385986328125</LongitudeDegrees>
            </Position>
            <AltitudeMeters>909.4000244140625</AltitudeMeters>
            <DistanceMeters>NAN</DistanceMeters>
          </Trackpoint>
          <Trackpoint>
            <Time>2022-06-16T13:28:42.000Z</Time>
            <Position>
              <LatitudeDegrees>36.8655904568731784820556640625</LatitudeDegrees>
              <LongitudeDegrees>-4.38826703466475009918212890625</LongitudeDegrees>
            </Position>
            <AltitudeMeters>909.20001220703125</AltitudeMeters>
            <DistanceMeters>NAN</DistanceMeters>
          </Trackpoint>
          <Trackpoint>
            <Time>2022-06-16T13:28:52.000Z</Time>
            <Position>
              <LatitudeDegrees>36.86549968086183071136474609375</LatitudeDegrees>
              <LongitudeDegrees>-4.388158321380615234375</LongitudeDegrees>
            </Position>
            <AltitudeMeters>908</AltitudeMeters>
            <DistanceMeters>NAN</DistanceMeters>
          </Trackpoint>
          <Trackpoint>
            <Time>2022-06-16T13:29:02.000Z</Time>
            <Position>
              <LatitudeDegrees>36.8654461205005645751953125</LatitudeDegrees>
              <LongitudeDegrees>-4.38801071606576442718505859375</LongitudeDegrees>
            </Position>
            <AltitudeMeters>908.5999755859375</AltitudeMeters>
            <DistanceMeters>NAN</DistanceMeters>
          </Trackpoint>
          <Trackpoint>
            <Time>2022-06-16T13:29:12.000Z</Time>
            <Position>
              <LatitudeDegrees>36.86546045355498790740966796875</LatitudeDegrees>
              <LongitudeDegrees>-4.3878403119742870330810546875</LongitudeDegrees>
            </Position>
            <AltitudeMeters>910.20001220703125</AltitudeMeters>
            <DistanceMeters>NAN</DistanceMeters>
          </Trackpoint>
          <Trackpoint>
            <Time>2022-06-16T13:29:14.000Z</Time>
            <Position>
              <LatitudeDegrees>36.8654700927436351776123046875</LatitudeDegrees>
              <LongitudeDegrees>-4.3878087960183620452880859375</LongitudeDegrees>
            </Position>
            <AltitudeMeters>910.5999755859375</AltitudeMeters>
            <DistanceMeters>NAN</DistanceMeters>
          </Trackpoint>
          <Trackpoint>
            <Time>2022-06-16T13:29:18.000Z</Time>
            <Position>
              <LatitudeDegrees>36.8654908798635005950927734375</LatitudeDegrees>
              <LongitudeDegrees>-4.38774819485843181610107421875</LongitudeDegrees>
            </Position>
            <AltitudeMeters>911.79998779296875</AltitudeMeters>
            <DistanceMeters>NAN</DistanceMeters>
          </Trackpoint>
          <Trackpoint>
            <Time>2022-06-16T13:29:22.000Z</Time>
            <Position>
              <LatitudeDegrees>36.86551057733595371246337890625</LatitudeDegrees>
              <LongitudeDegrees>-4.38769002445042133331298828125</LongitudeDegrees>
            </Position>
            <AltitudeMeters>913.4000244140625</AltitudeMeters>
            <DistanceMeters>NAN</DistanceMeters>
          </Trackpoint>
          <Trackpoint>
            <Time>2022-06-16T13:29:26.000Z</Time>
            <Position>
              <LatitudeDegrees>36.86552189290523529052734375</LatitudeDegrees>
              <LongitudeDegrees>-4.38763118349015712738037109375</LongitudeDegrees>
            </Position>
            <AltitudeMeters>914.79998779296875</AltitudeMeters>
            <DistanceMeters>NAN</DistanceMeters>
          </Trackpoint>
          <Trackpoint>
            <Time>2022-06-16T13:29:32.000Z</Time>
            <Position>
              <LatitudeDegrees>36.86551577411592006683349609375</LatitudeDegrees>
              <LongitudeDegrees>-4.3875439278781414031982421875</LongitudeDegrees>
            </Position>
            <AltitudeMeters>916</AltitudeMeters>
            <DistanceMeters>NAN</DistanceMeters>
          </Trackpoint>
          <Trackpoint>
            <Time>2022-06-16T13:29:42.000Z</Time>
            <Position>
              <LatitudeDegrees>36.8654422648251056671142578125</LatitudeDegrees>
              <LongitudeDegrees>-4.387426078319549560546875</LongitudeDegrees>
            </Position>
            <AltitudeMeters>915.4000244140625</AltitudeMeters>
            <DistanceMeters>NAN</DistanceMeters>
          </Trackpoint>
          <Trackpoint>
            <Time>2022-06-16T13:29:52.000Z</Time>
            <Position>
              <LatitudeDegrees>36.86533053405582904815673828125</LatitudeDegrees>
              <LongitudeDegrees>-4.387358017265796661376953125</LongitudeDegrees>
            </Position>
            <AltitudeMeters>913.20001220703125</AltitudeMeters>
            <DistanceMeters>NAN</DistanceMeters>
          </Trackpoint>
          <Trackpoint>
            <Time>2022-06-16T13:30:02.000Z</Time>
            <Position>
              <LatitudeDegrees>36.8652132712304592132568359375</LatitudeDegrees>
              <LongitudeDegrees>-4.38729305751621723175048828125</LongitudeDegrees>
            </Position>
            <AltitudeMeters>910.79998779296875</AltitudeMeters>
            <DistanceMeters>NAN</DistanceMeters>
          </Trackpoint>
          <Trackpoint>
            <Time>2022-06-16T13:30:12.000Z</Time>
            <Position>
              <LatitudeDegrees>36.86513138003647327423095703125</LatitudeDegrees>
              <LongitudeDegrees>-4.3872120045125484466552734375</LongitudeDegrees>
            </Position>
            <AltitudeMeters>910.4000244140625</AltitudeMeters>
            <DistanceMeters>NAN</DistanceMeters>
          </Trackpoint>
          <Trackpoint>
            <Time>2022-06-16T13:30:22.000Z</Time>
            <Position>
              <LatitudeDegrees>36.865054182708263397216796875</LatitudeDegrees>
              <LongitudeDegrees>-4.38706465065479278564453125</LongitudeDegrees>
            </Position>
            <AltitudeMeters>911.4000244140625</AltitudeMeters>
            <DistanceMeters>NAN</DistanceMeters>
          </Trackpoint>
          <Trackpoint>
            <Time>2022-06-16T13:30:32.000Z</Time>
            <Position>
              <LatitudeDegrees>36.865033395588397979736328125</LatitudeDegrees>
              <LongitudeDegrees>-4.38699432648718357086181640625</LongitudeDegrees>
            </Position>
            <AltitudeMeters>912.5999755859375</AltitudeMeters>
            <DistanceMeters>NAN</DistanceMeters>
          </Trackpoint>
          <Trackpoint>
            <Time>2022-06-16T13:30:42.000Z</Time>
            <Position>
              <LatitudeDegrees>36.86501495540142059326171875</LatitudeDegrees>
              <LongitudeDegrees>-4.3868629820644855499267578125</LongitudeDegrees>
            </Position>
            <AltitudeMeters>915.4000244140625</AltitudeMeters>
            <DistanceMeters>NAN</DistanceMeters>
          </Trackpoint>
          <Trackpoint>
            <Time>2022-06-16T13:30:52.000Z</Time>
            <Position>
              <LatitudeDegrees>36.8649705313146114349365234375</LatitudeDegrees>
              <LongitudeDegrees>-4.38672258518636226654052734375</LongitudeDegrees>
            </Position>
            <AltitudeMeters>918.5999755859375</AltitudeMeters>
            <DistanceMeters>NAN</DistanceMeters>
          </Trackpoint>
          <Trackpoint>
            <Time>2022-06-16T13:31:02.000Z</Time>
            <Position>
              <LatitudeDegrees>36.86491345055401325225830078125</LatitudeDegrees>
              <LongitudeDegrees>-4.3865836970508098602294921875</LongitudeDegrees>
            </Position>
            <AltitudeMeters>920.5999755859375</AltitudeMeters>
            <DistanceMeters>NAN</DistanceMeters>
          </Trackpoint>
          <Trackpoint>
            <Time>2022-06-16T13:31:12.000Z</Time>
            <Position>
              <LatitudeDegrees>36.86485393904149532318115234375</LatitudeDegrees>
              <LongitudeDegrees>-4.38644765876233577728271484375</LongitudeDegrees>
            </Position>
            <AltitudeMeters>922.4000244140625</AltitudeMeters>
            <DistanceMeters>NAN</DistanceMeters>
          </Trackpoint>
          <Trackpoint>
            <Time>2022-06-16T13:31:22.000Z</Time>
            <Position>
              <LatitudeDegrees>36.86476073227822780609130859375</LatitudeDegrees>
              <LongitudeDegrees>-4.3863518536090850830078125</LongitudeDegrees>
            </Position>
            <AltitudeMeters>923</AltitudeMeters>
            <DistanceMeters>NAN</DistanceMeters>
          </Trackpoint>
          <Trackpoint>
            <Time>2022-06-16T13:31:32.000Z</Time>
            <Position>
              <LatitudeDegrees>36.86462796293199062347412109375</LatitudeDegrees>
              <LongitudeDegrees>-4.3863034062087535858154296875</LongitudeDegrees>
            </Position>
            <AltitudeMeters>921.5999755859375</AltitudeMeters>
            <DistanceMeters>NAN</DistanceMeters>
          </Trackpoint>
          <Trackpoint>
            <Time>2022-06-16T13:31:42.000Z</Time>
            <Position>
              <LatitudeDegrees>36.86450340785086154937744140625</LatitudeDegrees>
              <LongitudeDegrees>-4.386324696242809295654296875</LongitudeDegrees>
            </Position>
            <AltitudeMeters>920.20001220703125</AltitudeMeters>
            <DistanceMeters>NAN</DistanceMeters>
          </Trackpoint>
          <Trackpoint>
            <Time>2022-06-16T13:31:52.000Z</Time>
            <Position>
              <LatitudeDegrees>36.86440383084118366241455078125</LatitudeDegrees>
              <LongitudeDegrees>-4.38637373037636280059814453125</LongitudeDegrees>
            </Position>
            <AltitudeMeters>919</AltitudeMeters>
            <DistanceMeters>NAN</DistanceMeters>
          </Trackpoint>
          <Trackpoint>
            <Time>2022-06-16T13:32:02.000Z</Time>
            <Position>
              <LatitudeDegrees>36.8642741627991199493408203125</LatitudeDegrees>
              <LongitudeDegrees>-4.38642905093729496002197265625</LongitudeDegrees>
            </Position>
            <AltitudeMeters>918</AltitudeMeters>
            <DistanceMeters>NAN</DistanceMeters>
          </Trackpoint>
          <Trackpoint>
            <Time>2022-06-16T13:32:12.000Z</Time>
            <Position>
              <LatitudeDegrees>36.864130161702632904052734375</LatitudeDegrees>
              <LongitudeDegrees>-4.38647179864346981048583984375</LongitudeDegrees>
            </Position>
            <AltitudeMeters>917.4000244140625</AltitudeMeters>
            <DistanceMeters>NAN</DistanceMeters>
          </Trackpoint>
          <Trackpoint>
            <Time>2022-06-16T13:32:22.000Z</Time>
            <Position>
              <LatitudeDegrees>36.86402278952300548553466796875</LatitudeDegrees>
              <LongitudeDegrees>-4.386482276022434234619140625</LongitudeDegrees>
            </Position>
            <AltitudeMeters>916.4000244140625</AltitudeMeters>
            <DistanceMeters>NAN</DistanceMeters>
          </Trackpoint>
          <Trackpoint>
            <Time>2022-06-16T13:32:32.000Z</Time>
            <Position>
              <LatitudeDegrees>36.863928996026515960693359375</LatitudeDegrees>
              <LongitudeDegrees>-4.3864073418080806732177734375</LongitudeDegrees>
            </Position>
            <AltitudeMeters>916</AltitudeMeters>
            <DistanceMeters>NAN</DistanceMeters>
          </Trackpoint>
          <Trackpoint>
            <Time>2022-06-16T13:32:42.000Z</Time>
            <Position>
              <LatitudeDegrees>36.86386370100080966949462890625</LatitudeDegrees>
              <LongitudeDegrees>-4.38627666793763637542724609375</LongitudeDegrees>
            </Position>
            <AltitudeMeters>916.4000244140625</AltitudeMeters>
            <DistanceMeters>NAN</DistanceMeters>
          </Trackpoint>
          <Trackpoint>
            <Time>2022-06-16T13:32:52.000Z</Time>
            <Position>
              <LatitudeDegrees>36.86387099325656890869140625</LatitudeDegrees>
              <LongitudeDegrees>-4.38614021055400371551513671875</LongitudeDegrees>
            </Position>
            <AltitudeMeters>918</AltitudeMeters>
            <DistanceMeters>NAN</DistanceMeters>
          </Trackpoint>
          <Trackpoint>
            <Time>2022-06-16T13:33:02.000Z</Time>
            <Position>
              <LatitudeDegrees>36.86388574540615081787109375</LatitudeDegrees>
              <LongitudeDegrees>-4.3860154040157794952392578125</LongitudeDegrees>
            </Position>
            <AltitudeMeters>919.4000244140625</AltitudeMeters>
            <DistanceMeters>NAN</DistanceMeters>
          </Trackpoint>
          <Trackpoint>
            <Time>2022-06-16T13:33:12.000Z</Time>
            <Position>
              <LatitudeDegrees>36.86386755667626857757568359375</LatitudeDegrees>
              <LongitudeDegrees>-4.38586796633899211883544921875</LongitudeDegrees>
            </Position>
            <AltitudeMeters>919.79998779296875</AltitudeMeters>
            <DistanceMeters>NAN</DistanceMeters>
          </Trackpoint>
          <Trackpoint>
            <Time>2022-06-16T13:33:22.000Z</Time>
            <Position>
              <LatitudeDegrees>36.86385934241116046905517578125</LatitudeDegrees>
              <LongitudeDegrees>-4.38572379760444164276123046875</LongitudeDegrees>
            </Position>
            <AltitudeMeters>920</AltitudeMeters>
            <DistanceMeters>NAN</DistanceMeters>
          </Trackpoint>
          <Trackpoint>
            <Time>2022-06-16T13:33:32.000Z</Time>
            <Position>
              <LatitudeDegrees>36.86386336572468280792236328125</LatitudeDegrees>
              <LongitudeDegrees>-4.385562948882579803466796875</LongitudeDegrees>
            </Position>
            <AltitudeMeters>920.5999755859375</AltitudeMeters>
            <DistanceMeters>NAN</DistanceMeters>
          </Trackpoint>
          <Trackpoint>
            <Time>2022-06-16T13:33:42.000Z</Time>
            <Position>
              <LatitudeDegrees>36.8638674728572368621826171875</LatitudeDegrees>
              <LongitudeDegrees>-4.38543998636305332183837890625</LongitudeDegrees>
            </Position>
            <AltitudeMeters>920.79998779296875</AltitudeMeters>
            <DistanceMeters>NAN</DistanceMeters>
          </Trackpoint>
          <Trackpoint>
            <Time>2022-06-16T13:33:52.000Z</Time>
            <Position>
              <LatitudeDegrees>36.86388096772134304046630859375</LatitudeDegrees>
              <LongitudeDegrees>-4.385328926146030426025390625</LongitudeDegrees>
            </Position>
            <AltitudeMeters>921.4000244140625</AltitudeMeters>
            <DistanceMeters>NAN</DistanceMeters>
          </Trackpoint>
          <Trackpoint>
            <Time>2022-06-16T13:33:59.000Z</Time>
            <Position>
              <LatitudeDegrees>36.86389454640448093414306640625</LatitudeDegrees>
              <LongitudeDegrees>-4.38524477183818817138671875</LongitudeDegrees>
            </Position>
            <AltitudeMeters>921.79998779296875</AltitudeMeters>
            <DistanceMeters>NAN</DistanceMeters>
          </Trackpoint>
          <Trackpoint>
            <Time>2022-06-16T13:34:02.000Z</Time>
            <Position>
              <LatitudeDegrees>36.86390426941215991973876953125</LatitudeDegrees>
              <LongitudeDegrees>-4.3852080591022968292236328125</LongitudeDegrees>
            </Position>
            <AltitudeMeters>922.20001220703125</AltitudeMeters>
            <DistanceMeters>NAN</DistanceMeters>
          </Trackpoint>
          <Trackpoint>
            <Time>2022-06-16T13:34:12.000Z</Time>
            <Position>
              <LatitudeDegrees>36.863941736519336700439453125</LatitudeDegrees>
              <LongitudeDegrees>-4.38508224673569202423095703125</LongitudeDegrees>
            </Position>
            <AltitudeMeters>923.20001220703125</AltitudeMeters>
            <DistanceMeters>NAN</DistanceMeters>
          </Trackpoint>
          <Trackpoint>
            <Time>2022-06-16T13:34:22.000Z</Time>
            <Position>
              <LatitudeDegrees>36.8639281578361988067626953125</LatitudeDegrees>
              <LongitudeDegrees>-4.38494143076241016387939453125</LongitudeDegrees>
            </Position>
            <AltitudeMeters>921.79998779296875</AltitudeMeters>
            <DistanceMeters>NAN</DistanceMeters>
          </Trackpoint>
          <Trackpoint>
            <Time>2022-06-16T13:34:32.000Z</Time>
            <Position>
              <LatitudeDegrees>36.86391080729663372039794921875</LatitudeDegrees>
              <LongitudeDegrees>-4.384797848761081695556640625</LongitudeDegrees>
            </Position>
            <AltitudeMeters>920.4000244140625</AltitudeMeters>
            <DistanceMeters>NAN</DistanceMeters>
          </Trackpoint>
          <Trackpoint>
            <Time>2022-06-16T13:34:42.000Z</Time>
            <Position>
              <LatitudeDegrees>36.86391918919980525970458984375</LatitudeDegrees>
              <LongitudeDegrees>-4.38467689789831638336181640625</LongitudeDegrees>
            </Position>
            <AltitudeMeters>920.5999755859375</AltitudeMeters>
            <DistanceMeters>NAN</DistanceMeters>
          </Trackpoint>
          <Trackpoint>
            <Time>2022-06-16T13:34:52.000Z</Time>
            <Position>
              <LatitudeDegrees>36.86395254917442798614501953125</LatitudeDegrees>
              <LongitudeDegrees>-4.3845059908926486968994140625</LongitudeDegrees>
            </Position>
            <AltitudeMeters>921.5999755859375</AltitudeMeters>
            <DistanceMeters>NAN</DistanceMeters>
          </Trackpoint>
          <Trackpoint>
            <Time>2022-06-16T13:35:02.000Z</Time>
            <Position>
              <LatitudeDegrees>36.86396897770464420318603515625</LatitudeDegrees>
              <LongitudeDegrees>-4.38434983603656291961669921875</LongitudeDegrees>
            </Position>
            <AltitudeMeters>923.20001220703125</AltitudeMeters>
            <DistanceMeters>NAN</DistanceMeters>
          </Trackpoint>
          <Trackpoint>
            <Time>2022-06-16T13:35:12.000Z</Time>
            <Position>
              <LatitudeDegrees>36.8639003299176692962646484375</LatitudeDegrees>
              <LongitudeDegrees>-4.38421606086194515228271484375</LongitudeDegrees>
            </Position>
            <AltitudeMeters>922.79998779296875</AltitudeMeters>
            <DistanceMeters>NAN</DistanceMeters>
          </Trackpoint>
          <Trackpoint>
            <Time>2022-06-16T13:35:22.000Z</Time>
            <Position>
              <LatitudeDegrees>36.86380393803119659423828125</LatitudeDegrees>
              <LongitudeDegrees>-4.38408563844859600067138671875</LongitudeDegrees>
            </Position>
            <AltitudeMeters>924.20001220703125</AltitudeMeters>
            <DistanceMeters>NAN</DistanceMeters>
          </Trackpoint>
          <Trackpoint>
            <Time>2022-06-16T13:35:25.000Z</Time>
            <Position>
              <LatitudeDegrees>36.8637836538255214691162109375</LatitudeDegrees>
              <LongitudeDegrees>-4.38406032510101795196533203125</LongitudeDegrees>
            </Position>
            <AltitudeMeters>924.4000244140625</AltitudeMeters>
            <DistanceMeters>NAN</DistanceMeters>
          </Trackpoint>
          <Trackpoint>
            <Time>2022-06-16T13:35:28.000Z</Time>
            <Position>
              <LatitudeDegrees>36.863757334649562835693359375</LatitudeDegrees>
              <LongitudeDegrees>-4.3840191699564456939697265625</LongitudeDegrees>
            </Position>
            <AltitudeMeters>925.4000244140625</AltitudeMeters>
            <DistanceMeters>NAN</DistanceMeters>
          </Trackpoint>
          <Trackpoint>
            <Time>2022-06-16T13:35:32.000Z</Time>
            <Position>
              <LatitudeDegrees>36.86369840987026691436767578125</LatitudeDegrees>
              <LongitudeDegrees>-4.38397868536412715911865234375</LongitudeDegrees>
            </Position>
            <AltitudeMeters>925.79998779296875</AltitudeMeters>
            <DistanceMeters>NAN</DistanceMeters>
          </Trackpoint>
          <Trackpoint>
            <Time>2022-06-16T13:35:34.000Z</Time>
            <Position>
              <LatitudeDegrees>36.8636839091777801513671875</LatitudeDegrees>
              <LongitudeDegrees>-4.38395873643457889556884765625</LongitudeDegrees>
            </Position>
            <AltitudeMeters>926.20001220703125</AltitudeMeters>
            <DistanceMeters>NAN</DistanceMeters>
          </Trackpoint>
          <Trackpoint>
            <Time>2022-06-16T13:35:42.000Z</Time>
            <Position>
              <LatitudeDegrees>36.8636119924485683441162109375</LatitudeDegrees>
              <LongitudeDegrees>-4.38391263596713542938232421875</LongitudeDegrees>
            </Position>
            <AltitudeMeters>926.79998779296875</AltitudeMeters>
            <DistanceMeters>NAN</DistanceMeters>
          </Trackpoint>
          <Trackpoint>
            <Time>2022-06-16T13:35:52.000Z</Time>
            <Position>
              <LatitudeDegrees>36.8634708411991596221923828125</LatitudeDegrees>
              <LongitudeDegrees>-4.383893944323062896728515625</LongitudeDegrees>
            </Position>
            <AltitudeMeters>925.4000244140625</AltitudeMeters>
            <DistanceMeters>NAN</DistanceMeters>
          </Trackpoint>
          <Trackpoint>
            <Time>2022-06-16T13:35:54.000Z</Time>
            <Position>
              <LatitudeDegrees>36.8634611181914806365966796875</LatitudeDegrees>
              <LongitudeDegrees>-4.38387961126863956451416015625</LongitudeDegrees>
            </Position>
            <AltitudeMeters>925.5999755859375</AltitudeMeters>
            <DistanceMeters>NAN</DistanceMeters>
          </Trackpoint>
          <Trackpoint>
            <Time>2022-06-16T13:35:59.000Z</Time>
            <Position>
              <LatitudeDegrees>36.86339615844190120697021484375</LatitudeDegrees>
              <LongitudeDegrees>-4.38385329209268093109130859375</LongitudeDegrees>
            </Position>
            <AltitudeMeters>926.20001220703125</AltitudeMeters>
            <DistanceMeters>NAN</DistanceMeters>
          </Trackpoint>
          <Trackpoint>
            <Time>2022-06-16T13:36:02.000Z</Time>
            <Position>
              <LatitudeDegrees>36.86334804631769657135009765625</LatitudeDegrees>
              <LongitudeDegrees>-4.3838471733033657073974609375</LongitudeDegrees>
            </Position>
            <AltitudeMeters>926.5999755859375</AltitudeMeters>
            <DistanceMeters>NAN</DistanceMeters>
          </Trackpoint>
          <Trackpoint>
            <Time>2022-06-16T13:36:12.000Z</Time>
            <Position>
              <LatitudeDegrees>36.863226927816867828369140625</LatitudeDegrees>
              <LongitudeDegrees>-4.38380383886396884918212890625</LongitudeDegrees>
            </Position>
            <AltitudeMeters>928.4000244140625</AltitudeMeters>
            <DistanceMeters>NAN</DistanceMeters>
          </Trackpoint>
          <Trackpoint>
            <Time>2022-06-16T13:36:22.000Z</Time>
            <Position>
              <LatitudeDegrees>36.8631416000425815582275390625</LatitudeDegrees>
              <LongitudeDegrees>-4.38378523103892803192138671875</LongitudeDegrees>
            </Position>
            <AltitudeMeters>930.4000244140625</AltitudeMeters>
            <DistanceMeters>NAN</DistanceMeters>
          </Trackpoint>
          <Trackpoint>
            <Time>2022-06-16T13:36:24.000Z</Time>
            <Position>
              <LatitudeDegrees>36.86312274076044559478759765625</LatitudeDegrees>
              <LongitudeDegrees>-4.3838096223771572113037109375</LongitudeDegrees>
            </Position>
            <AltitudeMeters>930</AltitudeMeters>
            <DistanceMeters>NAN</DistanceMeters>
          </Trackpoint>
          <Trackpoint>
            <Time>2022-06-16T13:36:31.000Z</Time>
            <Position>
              <LatitudeDegrees>36.86304361559450626373291015625</LatitudeDegrees>
              <LongitudeDegrees>-4.3838807009160518646240234375</LongitudeDegrees>
            </Position>
            <AltitudeMeters>929.79998779296875</AltitudeMeters>
            <DistanceMeters>NAN</DistanceMeters>
          </Trackpoint>
          <Trackpoint>
            <Time>2022-06-16T13:36:32.000Z</Time>
            <Position>
              <LatitudeDegrees>36.86303389258682727813720703125</LatitudeDegrees>
              <LongitudeDegrees>-4.38388899900019168853759765625</LongitudeDegrees>
            </Position>
            <AltitudeMeters>929.5999755859375</AltitudeMeters>
            <DistanceMeters>NAN</DistanceMeters>
          </Trackpoint>
          <Trackpoint>
            <Time>2022-06-16T13:36:37.000Z</Time>
            <Position>
              <LatitudeDegrees>36.86299952678382396697998046875</LatitudeDegrees>
              <LongitudeDegrees>-4.38392780721187591552734375</LongitudeDegrees>
            </Position>
            <AltitudeMeters>929.20001220703125</AltitudeMeters>
            <DistanceMeters>NAN</DistanceMeters>
          </Trackpoint>
          <Trackpoint>
            <Time>2022-06-16T13:36:39.000Z</Time>
            <Position>
              <LatitudeDegrees>36.862990893423557281494140625</LatitudeDegrees>
              <LongitudeDegrees>-4.38395052216947078704833984375</LongitudeDegrees>
            </Position>
            <AltitudeMeters>928.5999755859375</AltitudeMeters>
            <DistanceMeters>NAN</DistanceMeters>
          </Trackpoint>
          <Trackpoint>
            <Time>2022-06-16T13:36:42.000Z</Time>
            <Position>
              <LatitudeDegrees>36.86296977102756500244140625</LatitudeDegrees>
              <LongitudeDegrees>-4.38397030346095561981201171875</LongitudeDegrees>
            </Position>
            <AltitudeMeters>928.5999755859375</AltitudeMeters>
            <DistanceMeters>NAN</DistanceMeters>
          </Trackpoint>
          <Trackpoint>
            <Time>2022-06-16T13:36:49.000Z</Time>
            <Position>
              <LatitudeDegrees>36.86292123980820178985595703125</LatitudeDegrees>
              <LongitudeDegrees>-4.384007267653942108154296875</LongitudeDegrees>
            </Position>
            <AltitudeMeters>928.5999755859375</AltitudeMeters>
            <DistanceMeters>NAN</DistanceMeters>
          </Trackpoint>
          <Trackpoint>
            <Time>2022-06-16T13:36:51.000Z</Time>
            <Position>
              <LatitudeDegrees>36.8629079125821590423583984375</LatitudeDegrees>
              <LongitudeDegrees>-4.384025037288665771484375</LongitudeDegrees>
            </Position>
            <AltitudeMeters>928.4000244140625</AltitudeMeters>
            <DistanceMeters>NAN</DistanceMeters>
          </Trackpoint>
          <Trackpoint>
            <Time>2022-06-16T13:36:52.000Z</Time>
            <Position>
              <LatitudeDegrees>36.8629035539925098419189453125</LatitudeDegrees>
              <LongitudeDegrees>-4.38403367064893245697021484375</LongitudeDegrees>
            </Position>
            <AltitudeMeters>928.20001220703125</AltitudeMeters>
            <DistanceMeters>NAN</DistanceMeters>
          </Trackpoint>
          <Trackpoint>
            <Time>2022-06-16T13:36:58.000Z</Time>
            <Position>
              <LatitudeDegrees>36.86285041272640228271484375</LatitudeDegrees>
              <LongitudeDegrees>-4.3840644322335720062255859375</LongitudeDegrees>
            </Position>
            <AltitudeMeters>928.79998779296875</AltitudeMeters>
            <DistanceMeters>NAN</DistanceMeters>
          </Trackpoint>
          <Trackpoint>
            <Time>2022-06-16T13:36:59.000Z</Time>
            <Position>
              <LatitudeDegrees>36.862843036651611328125</LatitudeDegrees>
              <LongitudeDegrees>-4.3840697966516017913818359375</LongitudeDegrees>
            </Position>
            <AltitudeMeters>928.79998779296875</AltitudeMeters>
            <DistanceMeters>NAN</DistanceMeters>
          </Trackpoint>
          <Trackpoint>
            <Time>2022-06-16T13:37:02.000Z</Time>
            <Position>
              <LatitudeDegrees>36.862829625606536865234375</LatitudeDegrees>
              <LongitudeDegrees>-4.38408111222088336944580078125</LongitudeDegrees>
            </Position>
            <AltitudeMeters>928.79998779296875</AltitudeMeters>
            <DistanceMeters>NAN</DistanceMeters>
          </Trackpoint>
          <Trackpoint>
            <Time>2022-06-16T13:37:05.000Z</Time>
            <Position>
              <LatitudeDegrees>36.86281688511371612548828125</LatitudeDegrees>
              <LongitudeDegrees>-4.38410374335944652557373046875</LongitudeDegrees>
            </Position>
            <AltitudeMeters>928.4000244140625</AltitudeMeters>
            <DistanceMeters>NAN</DistanceMeters>
          </Trackpoint>
          <Trackpoint>
            <Time>2022-06-16T13:37:12.000Z</Time>
            <Position>
              <LatitudeDegrees>36.86276885680854320526123046875</LatitudeDegrees>
              <LongitudeDegrees>-4.3841656856238842010498046875</LongitudeDegrees>
            </Position>
            <AltitudeMeters>927.79998779296875</AltitudeMeters>
            <DistanceMeters>NAN</DistanceMeters>
          </Trackpoint>
          <Trackpoint>
            <Time>2022-06-16T13:37:14.000Z</Time>
            <Position>
              <LatitudeDegrees>36.862760894000530242919921875</LatitudeDegrees>
              <LongitudeDegrees>-4.38417951576411724090576171875</LongitudeDegrees>
            </Position>
            <AltitudeMeters>927.4000244140625</AltitudeMeters>
            <DistanceMeters>NAN</DistanceMeters>
          </Trackpoint>
          <Trackpoint>
            <Time>2022-06-16T13:37:16.000Z</Time>
            <Position>
              <LatitudeDegrees>36.86275343410670757293701171875</LatitudeDegrees>
              <LongitudeDegrees>-4.38419108279049396514892578125</LongitudeDegrees>
            </Position>
            <AltitudeMeters>927.20001220703125</AltitudeMeters>
            <DistanceMeters>NAN</DistanceMeters>
          </Trackpoint>
          <Trackpoint>
            <Time>2022-06-16T13:37:17.000Z</Time>
            <Position>
              <LatitudeDegrees>36.86274572275578975677490234375</LatitudeDegrees>
              <LongitudeDegrees>-4.3841985426843166351318359375</LongitudeDegrees>
            </Position>
            <AltitudeMeters>927.20001220703125</AltitudeMeters>
            <DistanceMeters>NAN</DistanceMeters>
          </Trackpoint>
          <Trackpoint>
            <Time>2022-06-16T13:37:19.000Z</Time>
            <Position>
              <LatitudeDegrees>36.8627295456826686859130859375</LatitudeDegrees>
              <LongitudeDegrees>-4.384210109710693359375</LongitudeDegrees>
            </Position>
            <AltitudeMeters>927.4000244140625</AltitudeMeters>
            <DistanceMeters>NAN</DistanceMeters>
          </Trackpoint>
          <Trackpoint>
            <Time>2022-06-16T13:37:20.000Z</Time>
            <Position>
              <LatitudeDegrees>36.86272242106497287750244140625</LatitudeDegrees>
              <LongitudeDegrees>-4.38421388156712055206298828125</LongitudeDegrees>
            </Position>
            <AltitudeMeters>927.4000244140625</AltitudeMeters>
            <DistanceMeters>NAN</DistanceMeters>
          </Trackpoint>
          <Trackpoint>
            <Time>2022-06-16T13:37:22.000Z</Time>
            <Position>
              <LatitudeDegrees>36.86270599253475666046142578125</LatitudeDegrees>
              <LongitudeDegrees>-4.384231902658939361572265625</LongitudeDegrees>
            </Position>
            <AltitudeMeters>927.4000244140625</AltitudeMeters>
            <DistanceMeters>NAN</DistanceMeters>
          </Trackpoint>
          <Trackpoint>
            <Time>2022-06-16T13:37:32.000Z</Time>
            <Position>
              <LatitudeDegrees>36.86262510716915130615234375</LatitudeDegrees>
              <LongitudeDegrees>-4.3842833675444126129150390625</LongitudeDegrees>
            </Position>
            <AltitudeMeters>928.20001220703125</AltitudeMeters>
            <DistanceMeters>NAN</DistanceMeters>
          </Trackpoint>
          <Trackpoint>
            <Time>2022-06-16T13:37:40.000Z</Time>
            <Position>
              <LatitudeDegrees>36.86254790984094142913818359375</LatitudeDegrees>
              <LongitudeDegrees>-4.38432871364057064056396484375</LongitudeDegrees>
            </Position>
            <AltitudeMeters>928</AltitudeMeters>
            <DistanceMeters>NAN</DistanceMeters>
          </Trackpoint>
          <Trackpoint>
            <Time>2022-06-16T13:37:42.000Z</Time>
            <Position>
              <LatitudeDegrees>36.8625313974916934967041015625</LatitudeDegrees>
              <LongitudeDegrees>-4.38434614799916744232177734375</LongitudeDegrees>
            </Position>
            <AltitudeMeters>927.5999755859375</AltitudeMeters>
            <DistanceMeters>NAN</DistanceMeters>
          </Trackpoint>
          <Trackpoint>
            <Time>2022-06-16T13:37:50.000Z</Time>
            <Position>
              <LatitudeDegrees>36.86246040277183055877685546875</LatitudeDegrees>
              <LongitudeDegrees>-4.38439719378948211669921875</LongitudeDegrees>
            </Position>
            <AltitudeMeters>926.5999755859375</AltitudeMeters>
            <DistanceMeters>NAN</DistanceMeters>
          </Trackpoint>
          <Trackpoint>
            <Time>2022-06-16T13:37:52.000Z</Time>
            <Position>
              <LatitudeDegrees>36.8624418787658214569091796875</LatitudeDegrees>
              <LongitudeDegrees>-4.38441052101552486419677734375</LongitudeDegrees>
            </Position>
            <AltitudeMeters>926.4000244140625</AltitudeMeters>
            <DistanceMeters>NAN</DistanceMeters>
          </Trackpoint>
          <Trackpoint>
            <Time>2022-06-16T13:38:02.000Z</Time>
            <Position>
              <LatitudeDegrees>36.86232981272041797637939453125</LatitudeDegrees>
              <LongitudeDegrees>-4.3844845332205295562744140625</LongitudeDegrees>
            </Position>
            <AltitudeMeters>925.79998779296875</AltitudeMeters>
            <DistanceMeters>NAN</DistanceMeters>
          </Trackpoint>
          <Trackpoint>
            <Time>2022-06-16T13:38:10.000Z</Time>
            <Position>
              <LatitudeDegrees>36.86224498786032199859619140625</LatitudeDegrees>
              <LongitudeDegrees>-4.3845126964151859283447265625</LongitudeDegrees>
            </Position>
            <AltitudeMeters>925.4000244140625</AltitudeMeters>
            <DistanceMeters>NAN</DistanceMeters>
          </Trackpoint>
          <Trackpoint>
            <Time>2022-06-16T13:38:11.000Z</Time>
            <Position>
              <LatitudeDegrees>36.8622336722910404205322265625</LatitudeDegrees>
              <LongitudeDegrees>-4.3845110200345516204833984375</LongitudeDegrees>
            </Position>
            <AltitudeMeters>925.4000244140625</AltitudeMeters>
            <DistanceMeters>NAN</DistanceMeters>
          </Trackpoint>
          <Trackpoint>
            <Time>2022-06-16T13:38:12.000Z</Time>
            <Position>
              <LatitudeDegrees>36.86222068034112453460693359375</LatitudeDegrees>
              <LongitudeDegrees>-4.384509511291980743408203125</LongitudeDegrees>
            </Position>
            <AltitudeMeters>925.5999755859375</AltitudeMeters>
            <DistanceMeters>NAN</DistanceMeters>
          </Trackpoint>
          <Trackpoint>
            <Time>2022-06-16T13:38:16.000Z</Time>
            <Position>
              <LatitudeDegrees>36.86218027956783771514892578125</LatitudeDegrees>
              <LongitudeDegrees>-4.3844966031610965728759765625</LongitudeDegrees>
            </Position>
            <AltitudeMeters>926</AltitudeMeters>
            <DistanceMeters>NAN</DistanceMeters>
          </Trackpoint>
          <Trackpoint>
            <Time>2022-06-16T13:38:22.000Z</Time>
            <Position>
              <LatitudeDegrees>36.8621176667511463165283203125</LatitudeDegrees>
              <LongitudeDegrees>-4.38449266366660594940185546875</LongitudeDegrees>
            </Position>
            <AltitudeMeters>926.4000244140625</AltitudeMeters>
            <DistanceMeters>NAN</DistanceMeters>
          </Trackpoint>
          <Trackpoint>
            <Time>2022-06-16T13:38:32.000Z</Time>
            <Position>
              <LatitudeDegrees>36.86203074641525745391845703125</LatitudeDegrees>
              <LongitudeDegrees>-4.3844852037727832794189453125</LongitudeDegrees>
            </Position>
            <AltitudeMeters>926.79998779296875</AltitudeMeters>
            <DistanceMeters>NAN</DistanceMeters>
          </Trackpoint>
          <Trackpoint>
            <Time>2022-06-16T13:38:38.000Z</Time>
            <Position>
              <LatitudeDegrees>36.86196452938020229339599609375</LatitudeDegrees>
              <LongitudeDegrees>-4.3844483233988285064697265625</LongitudeDegrees>
            </Position>
            <AltitudeMeters>927.4000244140625</AltitudeMeters>
            <DistanceMeters>NAN</DistanceMeters>
          </Trackpoint>
          <Trackpoint>
            <Time>2022-06-16T13:38:42.000Z</Time>
            <Position>
              <LatitudeDegrees>36.86192027293145656585693359375</LatitudeDegrees>
              <LongitudeDegrees>-4.38443164341151714324951171875</LongitudeDegrees>
            </Position>
            <AltitudeMeters>927.79998779296875</AltitudeMeters>
            <DistanceMeters>NAN</DistanceMeters>
          </Trackpoint>
          <Trackpoint>
            <Time>2022-06-16T13:38:49.000Z</Time>
            <Position>
              <LatitudeDegrees>36.86185288242995738983154296875</LatitudeDegrees>
              <LongitudeDegrees>-4.384379088878631591796875</LongitudeDegrees>
            </Position>
            <AltitudeMeters>929.79998779296875</AltitudeMeters>
            <DistanceMeters>NAN</DistanceMeters>
          </Trackpoint>
          <Trackpoint>
            <Time>2022-06-16T13:38:52.000Z</Time>
            <Position>
              <LatitudeDegrees>36.86181952245533466339111328125</LatitudeDegrees>
              <LongitudeDegrees>-4.3843557871878147125244140625</LongitudeDegrees>
            </Position>
            <AltitudeMeters>930.5999755859375</AltitudeMeters>
            <DistanceMeters>NAN</DistanceMeters>
          </Trackpoint>
          <Trackpoint>
            <Time>2022-06-16T13:38:59.000Z</Time>
            <Position>
              <LatitudeDegrees>36.86175464652478694915771484375</LatitudeDegrees>
              <LongitudeDegrees>-4.38428361900150775909423828125</LongitudeDegrees>
            </Position>
            <AltitudeMeters>932.5999755859375</AltitudeMeters>
            <DistanceMeters>NAN</DistanceMeters>
          </Trackpoint>
          <Trackpoint>
            <Time>2022-06-16T13:39:02.000Z</Time>
            <Position>
              <LatitudeDegrees>36.861730255186557769775390625</LatitudeDegrees>
              <LongitudeDegrees>-4.38425277359783649444580078125</LongitudeDegrees>
            </Position>
            <AltitudeMeters>933.79998779296875</AltitudeMeters>
            <DistanceMeters>NAN</DistanceMeters>
          </Trackpoint>
          <Trackpoint>
            <Time>2022-06-16T13:39:11.000Z</Time>
            <Position>
              <LatitudeDegrees>36.86165221966803073883056640625</LatitudeDegrees>
              <LongitudeDegrees>-4.384167529642581939697265625</LongitudeDegrees>
            </Position>
            <AltitudeMeters>936.20001220703125</AltitudeMeters>
            <DistanceMeters>NAN</DistanceMeters>
          </Trackpoint>
          <Trackpoint>
            <Time>2022-06-16T13:39:12.000Z</Time>
            <Position>
              <LatitudeDegrees>36.861644424498081207275390625</LatitudeDegrees>
              <LongitudeDegrees>-4.38415688462555408477783203125</LongitudeDegrees>
            </Position>
            <AltitudeMeters>936.4000244140625</AltitudeMeters>
            <DistanceMeters>NAN</DistanceMeters>
          </Trackpoint>
          <Trackpoint>
            <Time>2022-06-16T13:39:22.000Z</Time>
            <Position>
              <LatitudeDegrees>36.86154979281127452850341796875</LatitudeDegrees>
              <LongitudeDegrees>-4.384112544357776641845703125</LongitudeDegrees>
            </Position>
            <AltitudeMeters>937.20001220703125</AltitudeMeters>
            <DistanceMeters>NAN</DistanceMeters>
          </Trackpoint>
          <Trackpoint>
            <Time>2022-06-16T13:39:32.000Z</Time>
            <Position>
              <LatitudeDegrees>36.8614598549902439117431640625</LatitudeDegrees>
              <LongitudeDegrees>-4.38408345915377140045166015625</LongitudeDegrees>
            </Position>
            <AltitudeMeters>937.20001220703125</AltitudeMeters>
            <DistanceMeters>NAN</DistanceMeters>
          </Trackpoint>
          <Trackpoint>
            <Time>2022-06-16T13:39:42.000Z</Time>
            <Position>
              <LatitudeDegrees>36.86137880198657512664794921875</LatitudeDegrees>
              <LongitudeDegrees>-4.38408027403056621551513671875</LongitudeDegrees>
            </Position>
            <AltitudeMeters>937.20001220703125</AltitudeMeters>
            <DistanceMeters>NAN</DistanceMeters>
          </Trackpoint>
          <Trackpoint>
            <Time>2022-06-16T13:39:44.000Z</Time>
            <Position>
              <LatitudeDegrees>36.8613562546670436859130859375</LatitudeDegrees>
              <LongitudeDegrees>-4.38408672809600830078125</LongitudeDegrees>
            </Position>
            <AltitudeMeters>937</AltitudeMeters>
            <DistanceMeters>NAN</DistanceMeters>
          </Trackpoint>
          <Trackpoint>
            <Time>2022-06-16T13:39:48.000Z</Time>
            <Position>
              <LatitudeDegrees>36.861307807266712188720703125</LatitudeDegrees>
              <LongitudeDegrees>-4.3840687908232212066650390625</LongitudeDegrees>
            </Position>
            <AltitudeMeters>937.4000244140625</AltitudeMeters>
            <DistanceMeters>NAN</DistanceMeters>
          </Trackpoint>
          <Trackpoint>
            <Time>2022-06-16T13:39:50.000Z</Time>
            <Position>
              <LatitudeDegrees>36.86128760688006877899169921875</LatitudeDegrees>
              <LongitudeDegrees>-4.38406283967196941375732421875</LongitudeDegrees>
            </Position>
            <AltitudeMeters>937.5999755859375</AltitudeMeters>
            <DistanceMeters>NAN</DistanceMeters>
          </Trackpoint>
          <Trackpoint>
            <Time>2022-06-16T13:39:51.000Z</Time>
            <Position>
              <LatitudeDegrees>36.861279308795928955078125</LatitudeDegrees>
              <LongitudeDegrees>-4.3840567208826541900634765625</LongitudeDegrees>
            </Position>
            <AltitudeMeters>937.5999755859375</AltitudeMeters>
            <DistanceMeters>NAN</DistanceMeters>
          </Trackpoint>
          <Trackpoint>
            <Time>2022-06-16T13:39:52.000Z</Time>
            <Position>
              <LatitudeDegrees>36.86126749031245708465576171875</LatitudeDegrees>
              <LongitudeDegrees>-4.38404825516045093536376953125</LongitudeDegrees>
            </Position>
            <AltitudeMeters>937.5999755859375</AltitudeMeters>
            <DistanceMeters>NAN</DistanceMeters>
          </Trackpoint>
          <Trackpoint>
            <Time>2022-06-16T13:39:53.000Z</Time>
            <Position>
              <LatitudeDegrees>36.8612565100193023681640625</LatitudeDegrees>
              <LongitudeDegrees>-4.38404121436178684234619140625</LongitudeDegrees>
            </Position>
            <AltitudeMeters>937.4000244140625</AltitudeMeters>
            <DistanceMeters>NAN</DistanceMeters>
          </Trackpoint>
          <Trackpoint>
            <Time>2022-06-16T13:39:54.000Z</Time>
            <Position>
              <LatitudeDegrees>36.8612503074109554290771484375</LatitudeDegrees>
              <LongitudeDegrees>-4.384033419191837310791015625</LongitudeDegrees>
            </Position>
            <AltitudeMeters>937.5999755859375</AltitudeMeters>
            <DistanceMeters>NAN</DistanceMeters>
          </Trackpoint>
          <Trackpoint>
            <Time>2022-06-16T13:39:56.000Z</Time>
            <Position>
              <LatitudeDegrees>36.86123161576688289642333984375</LatitudeDegrees>
              <LongitudeDegrees>-4.38401606865227222442626953125</LongitudeDegrees>
            </Position>
            <AltitudeMeters>937.4000244140625</AltitudeMeters>
            <DistanceMeters>NAN</DistanceMeters>
          </Trackpoint>
          <Trackpoint>
            <Time>2022-06-16T13:39:58.000Z</Time>
            <Position>
              <LatitudeDegrees>36.8612130917608737945556640625</LatitudeDegrees>
              <LongitudeDegrees>-4.3839993886649608612060546875</LongitudeDegrees>
            </Position>
            <AltitudeMeters>937.4000244140625</AltitudeMeters>
            <DistanceMeters>NAN</DistanceMeters>
          </Trackpoint>
          <Trackpoint>
            <Time>2022-06-16T13:40:02.000Z</Time>
            <Position>
              <LatitudeDegrees>36.86120219528675079345703125</LatitudeDegrees>
              <LongitudeDegrees>-4.3840022385120391845703125</LongitudeDegrees>
            </Position>
            <AltitudeMeters>937.4000244140625</AltitudeMeters>
            <DistanceMeters>NAN</DistanceMeters>
          </Trackpoint>
          <Trackpoint>
            <Time>2022-06-16T13:40:05.000Z</Time>
            <Position>
              <LatitudeDegrees>36.8611980043351650238037109375</LatitudeDegrees>
              <LongitudeDegrees>-4.38400098122656345367431640625</LongitudeDegrees>
            </Position>
            <AltitudeMeters>937.4000244140625</AltitudeMeters>
            <DistanceMeters>NAN</DistanceMeters>
          </Trackpoint>
          <Trackpoint>
            <Time>2022-06-16T13:40:10.000Z</Time>
            <Position>
              <LatitudeDegrees>36.86119121499359607696533203125</LatitudeDegrees>
              <LongitudeDegrees>-4.38400089740753173828125</LongitudeDegrees>
            </Position>
            <AltitudeMeters>937.5999755859375</AltitudeMeters>
            <DistanceMeters>NAN</DistanceMeters>
          </Trackpoint>
          <Trackpoint>
            <Time>2022-06-16T13:40:12.000Z</Time>
            <Position>
              <LatitudeDegrees>36.86119087971746921539306640625</LatitudeDegrees>
              <LongitudeDegrees>-4.38400148414075374603271484375</LongitudeDegrees>
            </Position>
            <AltitudeMeters>937.5999755859375</AltitudeMeters>
            <DistanceMeters>NAN</DistanceMeters>
          </Trackpoint>
          <Trackpoint>
            <Time>2022-06-16T13:40:17.000Z</Time>
            <Position>
              <LatitudeDegrees>36.86119272373616695404052734375</LatitudeDegrees>
              <LongitudeDegrees>-4.384001903235912322998046875</LongitudeDegrees>
            </Position>
            <AltitudeMeters>937.4000244140625</AltitudeMeters>
            <DistanceMeters>NAN</DistanceMeters>
          </Trackpoint>
          <Trackpoint>
            <Time>2022-06-16T13:40:22.000Z</Time>
            <Position>
              <LatitudeDegrees>36.8611762113869190216064453125</LatitudeDegrees>
              <LongitudeDegrees>-4.38399880193173885345458984375</LongitudeDegrees>
            </Position>
            <AltitudeMeters>937.5999755859375</AltitudeMeters>
            <DistanceMeters>NAN</DistanceMeters>
          </Trackpoint>
          <Trackpoint>
            <Time>2022-06-16T13:40:27.000Z</Time>
            <Position>
              <LatitudeDegrees>36.86113907955586910247802734375</LatitudeDegrees>
              <LongitudeDegrees>-4.38398681581020355224609375</LongitudeDegrees>
            </Position>
            <AltitudeMeters>937.79998779296875</AltitudeMeters>
            <DistanceMeters>NAN</DistanceMeters>
          </Trackpoint>
          <Trackpoint>
            <Time>2022-06-16T13:40:32.000Z</Time>
            <Position>
              <LatitudeDegrees>36.86107638292014598846435546875</LatitudeDegrees>
              <LongitudeDegrees>-4.383955299854278564453125</LongitudeDegrees>
            </Position>
            <AltitudeMeters>937.79998779296875</AltitudeMeters>
            <DistanceMeters>NAN</DistanceMeters>
          </Trackpoint>
          <Trackpoint>
            <Time>2022-06-16T13:40:38.000Z</Time>
            <Position>
              <LatitudeDegrees>36.86101318337023258209228515625</LatitudeDegrees>
              <LongitudeDegrees>-4.38392571173608303070068359375</LongitudeDegrees>
            </Position>
            <AltitudeMeters>936.5999755859375</AltitudeMeters>
            <DistanceMeters>NAN</DistanceMeters>
          </Trackpoint>
          <Trackpoint>
            <Time>2022-06-16T13:40:42.000Z</Time>
            <Position>
              <LatitudeDegrees>36.8609721958637237548828125</LatitudeDegrees>
              <LongitudeDegrees>-4.38391263596713542938232421875</LongitudeDegrees>
            </Position>
            <AltitudeMeters>936</AltitudeMeters>
            <DistanceMeters>NAN</DistanceMeters>
          </Trackpoint>
          <Trackpoint>
            <Time>2022-06-16T13:40:48.000Z</Time>
            <Position>
              <LatitudeDegrees>36.860910169780254364013671875</LatitudeDegrees>
              <LongitudeDegrees>-4.3838914297521114349365234375</LongitudeDegrees>
            </Position>
            <AltitudeMeters>935.79998779296875</AltitudeMeters>
            <DistanceMeters>NAN</DistanceMeters>
          </Trackpoint>
          <Trackpoint>
            <Time>2022-06-16T13:40:49.000Z</Time>
            <Position>
              <LatitudeDegrees>36.86090656556189060211181640625</LatitudeDegrees>
              <LongitudeDegrees>-4.38388983719050884246826171875</LongitudeDegrees>
            </Position>
            <AltitudeMeters>935.79998779296875</AltitudeMeters>
            <DistanceMeters>NAN</DistanceMeters>
          </Trackpoint>
          <Trackpoint>
            <Time>2022-06-16T13:40:50.000Z</Time>
            <Position>
              <LatitudeDegrees>36.860901452600955963134765625</LatitudeDegrees>
              <LongitudeDegrees>-4.383886568248271942138671875</LongitudeDegrees>
            </Position>
            <AltitudeMeters>935.79998779296875</AltitudeMeters>
            <DistanceMeters>NAN</DistanceMeters>
          </Trackpoint>
          <Trackpoint>
            <Time>2022-06-16T13:40:52.000Z</Time>
            <Position>
              <LatitudeDegrees>36.8608858622610569000244140625</LatitudeDegrees>
              <LongitudeDegrees>-4.3838837184011936187744140625</LongitudeDegrees>
            </Position>
            <AltitudeMeters>935.79998779296875</AltitudeMeters>
            <DistanceMeters>NAN</DistanceMeters>
          </Trackpoint>
          <Trackpoint>
            <Time>2022-06-16T13:40:57.000Z</Time>
            <Position>
              <LatitudeDegrees>36.86084001325070858001708984375</LatitudeDegrees>
              <LongitudeDegrees>-4.3838895857334136962890625</LongitudeDegrees>
            </Position>
            <AltitudeMeters>936</AltitudeMeters>
            <DistanceMeters>NAN</DistanceMeters>
          </Trackpoint>
          <Trackpoint>
            <Time>2022-06-16T13:40:58.000Z</Time>
            <Position>
              <LatitudeDegrees>36.86083045788109302520751953125</LatitudeDegrees>
              <LongitudeDegrees>-4.38388933427631855010986328125</LongitudeDegrees>
            </Position>
            <AltitudeMeters>936</AltitudeMeters>
            <DistanceMeters>NAN</DistanceMeters>
          </Trackpoint>
          <Trackpoint>
            <Time>2022-06-16T13:40:59.000Z</Time>
            <Position>
              <LatitudeDegrees>36.86081972904503345489501953125</LatitudeDegrees>
              <LongitudeDegrees>-4.38389084301888942718505859375</LongitudeDegrees>
            </Position>
            <AltitudeMeters>936</AltitudeMeters>
            <DistanceMeters>NAN</DistanceMeters>
          </Trackpoint>
          <Trackpoint>
            <Time>2022-06-16T13:41:02.000Z</Time>
            <Position>
              <LatitudeDegrees>36.86078083701431751251220703125</LatitudeDegrees>
              <LongitudeDegrees>-4.38389034010469913482666015625</LongitudeDegrees>
            </Position>
            <AltitudeMeters>936</AltitudeMeters>
            <DistanceMeters>NAN</DistanceMeters>
          </Trackpoint>
          <Trackpoint>
            <Time>2022-06-16T13:41:10.000Z</Time>
            <Position>
              <LatitudeDegrees>36.8607038073241710662841796875</LatitudeDegrees>
              <LongitudeDegrees>-4.383901990950107574462890625</LongitudeDegrees>
            </Position>
            <AltitudeMeters>936.4000244140625</AltitudeMeters>
            <DistanceMeters>NAN</DistanceMeters>
          </Trackpoint>
          <Trackpoint>
            <Time>2022-06-16T13:41:12.000Z</Time>
            <Position>
              <LatitudeDegrees>36.8607004545629024505615234375</LatitudeDegrees>
              <LongitudeDegrees>-4.3839128874242305755615234375</LongitudeDegrees>
            </Position>
            <AltitudeMeters>936.5999755859375</AltitudeMeters>
            <DistanceMeters>NAN</DistanceMeters>
          </Trackpoint>
          <Trackpoint>
            <Time>2022-06-16T13:41:18.000Z</Time>
            <Position>
              <LatitudeDegrees>36.8606860376894474029541015625</LatitudeDegrees>
              <LongitudeDegrees>-4.38392110168933868408203125</LongitudeDegrees>
            </Position>
            <AltitudeMeters>936.79998779296875</AltitudeMeters>
            <DistanceMeters>NAN</DistanceMeters>
          </Trackpoint>
          <Trackpoint>
            <Time>2022-06-16T13:41:22.000Z</Time>
            <Position>
              <LatitudeDegrees>36.860645972192287445068359375</LatitudeDegrees>
              <LongitudeDegrees>-4.3839152343571186065673828125</LongitudeDegrees>
            </Position>
            <AltitudeMeters>936.79998779296875</AltitudeMeters>
            <DistanceMeters>NAN</DistanceMeters>
          </Trackpoint>
          <Trackpoint>
            <Time>2022-06-16T13:41:32.000Z</Time>
            <Position>
              <LatitudeDegrees>36.86053700745105743408203125</LatitudeDegrees>
              <LongitudeDegrees>-4.38393308781087398529052734375</LongitudeDegrees>
            </Position>
            <AltitudeMeters>939.4000244140625</AltitudeMeters>
            <DistanceMeters>NAN</DistanceMeters>
          </Trackpoint>
          <Trackpoint>
            <Time>2022-06-16T13:41:42.000Z</Time>
            <Position>
              <LatitudeDegrees>36.86038973741233348846435546875</LatitudeDegrees>
              <LongitudeDegrees>-4.38391347415745258331298828125</LongitudeDegrees>
            </Position>
            <AltitudeMeters>942.20001220703125</AltitudeMeters>
            <DistanceMeters>NAN</DistanceMeters>
          </Trackpoint>
          <Trackpoint>
            <Time>2022-06-16T13:41:52.000Z</Time>
            <Position>
              <LatitudeDegrees>36.8602640926837921142578125</LatitudeDegrees>
              <LongitudeDegrees>-4.38386586494743824005126953125</LongitudeDegrees>
            </Position>
            <AltitudeMeters>940.79998779296875</AltitudeMeters>
            <DistanceMeters>NAN</DistanceMeters>
          </Trackpoint>
          <Trackpoint>
            <Time>2022-06-16T13:42:02.000Z</Time>
            <Position>
              <LatitudeDegrees>36.860150434076786041259765625</LatitudeDegrees>
              <LongitudeDegrees>-4.38382596708834171295166015625</LongitudeDegrees>
            </Position>
            <AltitudeMeters>938.5999755859375</AltitudeMeters>
            <DistanceMeters>NAN</DistanceMeters>
          </Trackpoint>
          <Trackpoint>
            <Time>2022-06-16T13:42:12.000Z</Time>
            <Position>
              <LatitudeDegrees>36.86006225645542144775390625</LatitudeDegrees>
              <LongitudeDegrees>-4.383790008723735809326171875</LongitudeDegrees>
            </Position>
            <AltitudeMeters>936.20001220703125</AltitudeMeters>
            <DistanceMeters>NAN</DistanceMeters>
          </Trackpoint>
          <Trackpoint>
            <Time>2022-06-16T13:42:20.000Z</Time>
            <Position>
              <LatitudeDegrees>36.8599672056734561920166015625</LatitudeDegrees>
              <LongitudeDegrees>-4.38373066484928131103515625</LongitudeDegrees>
            </Position>
            <AltitudeMeters>931.20001220703125</AltitudeMeters>
            <DistanceMeters>NAN</DistanceMeters>
          </Trackpoint>
          <Trackpoint>
            <Time>2022-06-16T13:42:22.000Z</Time>
            <Position>
              <LatitudeDegrees>36.8599494360387325286865234375</LatitudeDegrees>
              <LongitudeDegrees>-4.3837147392332553863525390625</LongitudeDegrees>
            </Position>
            <AltitudeMeters>930.4000244140625</AltitudeMeters>
            <DistanceMeters>NAN</DistanceMeters>
          </Trackpoint>
          <Trackpoint>
            <Time>2022-06-16T13:42:24.000Z</Time>
            <Position>
              <LatitudeDegrees>36.85993351042270660400390625</LatitudeDegrees>
              <LongitudeDegrees>-4.38370426185429096221923828125</LongitudeDegrees>
            </Position>
            <AltitudeMeters>930</AltitudeMeters>
            <DistanceMeters>NAN</DistanceMeters>
          </Trackpoint>
          <Trackpoint>
            <Time>2022-06-16T13:42:25.000Z</Time>
            <Position>
              <LatitudeDegrees>36.859921105206012725830078125</LatitudeDegrees>
              <LongitudeDegrees>-4.38369906507432460784912109375</LongitudeDegrees>
            </Position>
            <AltitudeMeters>929.79998779296875</AltitudeMeters>
            <DistanceMeters>NAN</DistanceMeters>
          </Trackpoint>
          <Trackpoint>
            <Time>2022-06-16T13:42:28.000Z</Time>
            <Position>
              <LatitudeDegrees>36.859887577593326568603515625</LatitudeDegrees>
              <LongitudeDegrees>-4.38368096016347408294677734375</LongitudeDegrees>
            </Position>
            <AltitudeMeters>929</AltitudeMeters>
            <DistanceMeters>NAN</DistanceMeters>
          </Trackpoint>
          <Trackpoint>
            <Time>2022-06-16T13:42:32.000Z</Time>
            <Position>
              <LatitudeDegrees>36.859829239547252655029296875</LatitudeDegrees>
              <LongitudeDegrees>-4.3836627714335918426513671875</LongitudeDegrees>
            </Position>
            <AltitudeMeters>928.20001220703125</AltitudeMeters>
            <DistanceMeters>NAN</DistanceMeters>
          </Trackpoint>
          <Trackpoint>
            <Time>2022-06-16T13:42:42.000Z</Time>
            <Position>
              <LatitudeDegrees>36.8597338534891605377197265625</LatitudeDegrees>
              <LongitudeDegrees>-4.38357233069837093353271484375</LongitudeDegrees>
            </Position>
            <AltitudeMeters>925.79998779296875</AltitudeMeters>
            <DistanceMeters>NAN</DistanceMeters>
          </Trackpoint>
          <Trackpoint>
            <Time>2022-06-16T13:42:49.000Z</Time>
            <Position>
              <LatitudeDegrees>36.85967945493757724761962890625</LatitudeDegrees>
              <LongitudeDegrees>-4.38352840952575206756591796875</LongitudeDegrees>
            </Position>
            <AltitudeMeters>924.20001220703125</AltitudeMeters>
            <DistanceMeters>NAN</DistanceMeters>
          </Trackpoint>
          <Trackpoint>
            <Time>2022-06-16T13:42:52.000Z</Time>
            <Position>
              <LatitudeDegrees>36.85964827425777912139892578125</LatitudeDegrees>
              <LongitudeDegrees>-4.38350426964461803436279296875</LongitudeDegrees>
            </Position>
            <AltitudeMeters>923.4000244140625</AltitudeMeters>
            <DistanceMeters>NAN</DistanceMeters>
          </Trackpoint>
          <Trackpoint>
            <Time>2022-06-16T13:43:02.000Z</Time>
            <Position>
              <LatitudeDegrees>36.85958289541304111480712890625</LatitudeDegrees>
              <LongitudeDegrees>-4.38341575674712657928466796875</LongitudeDegrees>
            </Position>
            <AltitudeMeters>922</AltitudeMeters>
            <DistanceMeters>NAN</DistanceMeters>
          </Trackpoint>
          <Trackpoint>
            <Time>2022-06-16T13:43:12.000Z</Time>
            <Position>
              <LatitudeDegrees>36.85950125567615032196044921875</LatitudeDegrees>
              <LongitudeDegrees>-4.38329824246466159820556640625</LongitudeDegrees>
            </Position>
            <AltitudeMeters>919.79998779296875</AltitudeMeters>
            <DistanceMeters>NAN</DistanceMeters>
          </Trackpoint>
          <Trackpoint>
            <Time>2022-06-16T13:43:22.000Z</Time>
            <Position>
              <LatitudeDegrees>36.859454400837421417236328125</LatitudeDegrees>
              <LongitudeDegrees>-4.3831573426723480224609375</LongitudeDegrees>
            </Position>
            <AltitudeMeters>918.5999755859375</AltitudeMeters>
            <DistanceMeters>NAN</DistanceMeters>
          </Trackpoint>
          <Trackpoint>
            <Time>2022-06-16T13:43:32.000Z</Time>
            <Position>
              <LatitudeDegrees>36.8593985773622989654541015625</LatitudeDegrees>
              <LongitudeDegrees>-4.38304041512310504913330078125</LongitudeDegrees>
            </Position>
            <AltitudeMeters>918</AltitudeMeters>
            <DistanceMeters>NAN</DistanceMeters>
          </Trackpoint>
          <Trackpoint>
            <Time>2022-06-16T13:43:37.000Z</Time>
            <Position>
              <LatitudeDegrees>36.85937351547181606292724609375</LatitudeDegrees>
              <LongitudeDegrees>-4.38299900852143764495849609375</LongitudeDegrees>
            </Position>
            <AltitudeMeters>917.5999755859375</AltitudeMeters>
            <DistanceMeters>NAN</DistanceMeters>
          </Trackpoint>
          <Trackpoint>
            <Time>2022-06-16T13:43:42.000Z</Time>
            <Position>
              <LatitudeDegrees>36.8593452684581279754638671875</LatitudeDegrees>
              <LongitudeDegrees>-4.38295139931142330169677734375</LongitudeDegrees>
            </Position>
            <AltitudeMeters>917</AltitudeMeters>
            <DistanceMeters>NAN</DistanceMeters>
          </Trackpoint>
          <Trackpoint>
            <Time>2022-06-16T13:43:52.000Z</Time>
            <Position>
              <LatitudeDegrees>36.859294138848781585693359375</LatitudeDegrees>
              <LongitudeDegrees>-4.38285224139690399169921875</LongitudeDegrees>
            </Position>
            <AltitudeMeters>915.5999755859375</AltitudeMeters>
            <DistanceMeters>NAN</DistanceMeters>
          </Trackpoint>
          <Trackpoint>
            <Time>2022-06-16T13:43:58.000Z</Time>
            <Position>
              <LatitudeDegrees>36.8592609465122222900390625</LatitudeDegrees>
              <LongitudeDegrees>-4.38278979621827602386474609375</LongitudeDegrees>
            </Position>
            <AltitudeMeters>914.5999755859375</AltitudeMeters>
            <DistanceMeters>NAN</DistanceMeters>
          </Trackpoint>
          <Trackpoint>
            <Time>2022-06-16T13:44:02.000Z</Time>
            <Position>
              <LatitudeDegrees>36.85923404060304164886474609375</LatitudeDegrees>
              <LongitudeDegrees>-4.38276029191911220550537109375</LongitudeDegrees>
            </Position>
            <AltitudeMeters>913.5999755859375</AltitudeMeters>
            <DistanceMeters>NAN</DistanceMeters>
          </Trackpoint>
          <Trackpoint>
            <Time>2022-06-16T13:44:12.000Z</Time>
            <Position>
              <LatitudeDegrees>36.8591601960361003875732421875</LatitudeDegrees>
              <LongitudeDegrees>-4.38269156031310558319091796875</LongitudeDegrees>
            </Position>
            <AltitudeMeters>911.4000244140625</AltitudeMeters>
            <DistanceMeters>NAN</DistanceMeters>
          </Trackpoint>
          <Trackpoint>
            <Time>2022-06-16T13:44:22.000Z</Time>
            <Position>
              <LatitudeDegrees>36.85906137339770793914794921875</LatitudeDegrees>
              <LongitudeDegrees>-4.38268468715250492095947265625</LongitudeDegrees>
            </Position>
            <AltitudeMeters>909.79998779296875</AltitudeMeters>
            <DistanceMeters>NAN</DistanceMeters>
          </Trackpoint>
          <Trackpoint>
            <Time>2022-06-16T13:44:30.000Z</Time>
            <Position>
              <LatitudeDegrees>36.858996413648128509521484375</LatitudeDegrees>
              <LongitudeDegrees>-4.38271067105233669281005859375</LongitudeDegrees>
            </Position>
            <AltitudeMeters>909.5999755859375</AltitudeMeters>
            <DistanceMeters>NAN</DistanceMeters>
          </Trackpoint>
          <Trackpoint>
            <Time>2022-06-16T13:44:32.000Z</Time>
            <Position>
              <LatitudeDegrees>36.85898258350789546966552734375</LatitudeDegrees>
              <LongitudeDegrees>-4.38272441737353801727294921875</LongitudeDegrees>
            </Position>
            <AltitudeMeters>909.5999755859375</AltitudeMeters>
            <DistanceMeters>NAN</DistanceMeters>
          </Trackpoint>
          <Trackpoint>
            <Time>2022-06-16T13:44:36.000Z</Time>
            <Position>
              <LatitudeDegrees>36.858964227139949798583984375</LatitudeDegrees>
              <LongitudeDegrees>-4.38274336047470569610595703125</LongitudeDegrees>
            </Position>
            <AltitudeMeters>909.4000244140625</AltitudeMeters>
            <DistanceMeters>NAN</DistanceMeters>
          </Trackpoint>
          <Trackpoint>
            <Time>2022-06-16T13:44:42.000Z</Time>
            <Position>
              <LatitudeDegrees>36.85894201509654521942138671875</LatitudeDegrees>
              <LongitudeDegrees>-4.3827910535037517547607421875</LongitudeDegrees>
            </Position>
            <AltitudeMeters>908.79998779296875</AltitudeMeters>
            <DistanceMeters>NAN</DistanceMeters>
          </Trackpoint>
          <Trackpoint>
            <Time>2022-06-16T13:44:52.000Z</Time>
            <Position>
              <LatitudeDegrees>36.8588738702237606048583984375</LatitudeDegrees>
              <LongitudeDegrees>-4.3828628025949001312255859375</LongitudeDegrees>
            </Position>
            <AltitudeMeters>907.20001220703125</AltitudeMeters>
            <DistanceMeters>NAN</DistanceMeters>
          </Trackpoint>
          <Trackpoint>
            <Time>2022-06-16T13:45:02.000Z</Time>
            <Position>
              <LatitudeDegrees>36.85880698263645172119140625</LatitudeDegrees>
              <LongitudeDegrees>-4.38294804655015468597412109375</LongitudeDegrees>
            </Position>
            <AltitudeMeters>905.5999755859375</AltitudeMeters>
            <DistanceMeters>NAN</DistanceMeters>
          </Trackpoint>
          <Trackpoint>
            <Time>2022-06-16T13:45:12.000Z</Time>
            <Position>
              <LatitudeDegrees>36.85871578752994537353515625</LatitudeDegrees>
              <LongitudeDegrees>-4.38299029134213924407958984375</LongitudeDegrees>
            </Position>
            <AltitudeMeters>903.20001220703125</AltitudeMeters>
            <DistanceMeters>NAN</DistanceMeters>
          </Trackpoint>
          <Trackpoint>
            <Time>2022-06-16T13:45:17.000Z</Time>
            <Position>
              <LatitudeDegrees>36.85867010615766048431396484375</LatitudeDegrees>
              <LongitudeDegrees>-4.38301795162260532379150390625</LongitudeDegrees>
            </Position>
            <AltitudeMeters>902.20001220703125</AltitudeMeters>
            <DistanceMeters>NAN</DistanceMeters>
          </Trackpoint>
          <Trackpoint>
            <Time>2022-06-16T13:45:22.000Z</Time>
            <Position>
              <LatitudeDegrees>36.85861679725348949432373046875</LatitudeDegrees>
              <LongitudeDegrees>-4.3830277584493160247802734375</LongitudeDegrees>
            </Position>
            <AltitudeMeters>901</AltitudeMeters>
            <DistanceMeters>NAN</DistanceMeters>
          </Trackpoint>
          <Trackpoint>
            <Time>2022-06-16T13:45:32.000Z</Time>
            <Position>
              <LatitudeDegrees>36.85850800015032291412353515625</LatitudeDegrees>
              <LongitudeDegrees>-4.3830393254756927490234375</LongitudeDegrees>
            </Position>
            <AltitudeMeters>898.4000244140625</AltitudeMeters>
            <DistanceMeters>NAN</DistanceMeters>
          </Trackpoint>
          <Trackpoint>
            <Time>2022-06-16T13:45:42.000Z</Time>
            <Position>
              <LatitudeDegrees>36.85843071900308132171630859375</LatitudeDegrees>
              <LongitudeDegrees>-4.38301376067101955413818359375</LongitudeDegrees>
            </Position>
            <AltitudeMeters>897</AltitudeMeters>
            <DistanceMeters>NAN</DistanceMeters>
          </Trackpoint>
          <Trackpoint>
            <Time>2022-06-16T13:45:52.000Z</Time>
            <Position>
              <LatitudeDegrees>36.8583696149289608001708984375</LatitudeDegrees>
              <LongitudeDegrees>-4.382957518100738525390625</LongitudeDegrees>
            </Position>
            <AltitudeMeters>895.79998779296875</AltitudeMeters>
            <DistanceMeters>NAN</DistanceMeters>
          </Trackpoint>
          <Trackpoint>
            <Time>2022-06-16T13:46:02.000Z</Time>
            <Position>
              <LatitudeDegrees>36.85830867849290370941162109375</LatitudeDegrees>
              <LongitudeDegrees>-4.38288719393312931060791015625</LongitudeDegrees>
            </Position>
            <AltitudeMeters>894.79998779296875</AltitudeMeters>
            <DistanceMeters>NAN</DistanceMeters>
          </Trackpoint>
          <Trackpoint>
            <Time>2022-06-16T13:46:12.000Z</Time>
            <Position>
              <LatitudeDegrees>36.85824380256235599517822265625</LatitudeDegrees>
              <LongitudeDegrees>-4.3827910535037517547607421875</LongitudeDegrees>
            </Position>
            <AltitudeMeters>894</AltitudeMeters>
            <DistanceMeters>NAN</DistanceMeters>
          </Trackpoint>
          <Trackpoint>
            <Time>2022-06-16T13:46:22.000Z</Time>
            <Position>
              <LatitudeDegrees>36.8581867218017578125</LatitudeDegrees>
              <LongitudeDegrees>-4.3826894648373126983642578125</LongitudeDegrees>
            </Position>
            <AltitudeMeters>892.4000244140625</AltitudeMeters>
            <DistanceMeters>NAN</DistanceMeters>
          </Trackpoint>
          <Trackpoint>
            <Time>2022-06-16T13:46:32.000Z</Time>
            <Position>
              <LatitudeDegrees>36.85813508927822113037109375</LatitudeDegrees>
              <LongitudeDegrees>-4.38263020478188991546630859375</LongitudeDegrees>
            </Position>
            <AltitudeMeters>891.20001220703125</AltitudeMeters>
            <DistanceMeters>NAN</DistanceMeters>
          </Trackpoint>
          <Trackpoint>
            <Time>2022-06-16T13:46:36.000Z</Time>
            <Position>
              <LatitudeDegrees>36.85809829272329807281494140625</LatitudeDegrees>
              <LongitudeDegrees>-4.38259541988372802734375</LongitudeDegrees>
            </Position>
            <AltitudeMeters>889.79998779296875</AltitudeMeters>
            <DistanceMeters>NAN</DistanceMeters>
          </Trackpoint>
          <Trackpoint>
            <Time>2022-06-16T13:46:42.000Z</Time>
            <Position>
              <LatitudeDegrees>36.85802738182246685028076171875</LatitudeDegrees>
              <LongitudeDegrees>-4.38254806213080883026123046875</LongitudeDegrees>
            </Position>
            <AltitudeMeters>887</AltitudeMeters>
            <DistanceMeters>NAN</DistanceMeters>
          </Trackpoint>
          <Trackpoint>
            <Time>2022-06-16T13:46:46.000Z</Time>
            <Position>
              <LatitudeDegrees>36.8579951114952564239501953125</LatitudeDegrees>
              <LongitudeDegrees>-4.3825117684900760650634765625</LongitudeDegrees>
            </Position>
            <AltitudeMeters>885.5999755859375</AltitudeMeters>
            <DistanceMeters>NAN</DistanceMeters>
          </Trackpoint>
          <Trackpoint>
            <Time>2022-06-16T13:46:48.000Z</Time>
            <Position>
              <LatitudeDegrees>36.85798010788857936859130859375</LatitudeDegrees>
              <LongitudeDegrees>-4.382492490112781524658203125</LongitudeDegrees>
            </Position>
            <AltitudeMeters>885</AltitudeMeters>
            <DistanceMeters>NAN</DistanceMeters>
          </Trackpoint>
          <Trackpoint>
            <Time>2022-06-16T13:46:52.000Z</Time>
            <Position>
              <LatitudeDegrees>36.8579635955393314361572265625</LatitudeDegrees>
              <LongitudeDegrees>-4.3824453838169574737548828125</LongitudeDegrees>
            </Position>
            <AltitudeMeters>884</AltitudeMeters>
            <DistanceMeters>NAN</DistanceMeters>
          </Trackpoint>
          <Trackpoint>
            <Time>2022-06-16T13:46:58.000Z</Time>
            <Position>
              <LatitudeDegrees>36.8579612486064434051513671875</LatitudeDegrees>
              <LongitudeDegrees>-4.38237623311579227447509765625</LongitudeDegrees>
            </Position>
            <AltitudeMeters>882.79998779296875</AltitudeMeters>
            <DistanceMeters>NAN</DistanceMeters>
          </Trackpoint>
          <Trackpoint>
            <Time>2022-06-16T13:47:02.000Z</Time>
            <Position>
              <LatitudeDegrees>36.85793886892497539520263671875</LatitudeDegrees>
              <LongitudeDegrees>-4.3823163025081157684326171875</LongitudeDegrees>
            </Position>
            <AltitudeMeters>882</AltitudeMeters>
            <DistanceMeters>NAN</DistanceMeters>
          </Trackpoint>
          <Trackpoint>
            <Time>2022-06-16T13:47:12.000Z</Time>
            <Position>
              <LatitudeDegrees>36.8578636832535266876220703125</LatitudeDegrees>
              <LongitudeDegrees>-4.3821536935865879058837890625</LongitudeDegrees>
            </Position>
            <AltitudeMeters>879.5999755859375</AltitudeMeters>
            <DistanceMeters>NAN</DistanceMeters>
          </Trackpoint>
          <Trackpoint>
            <Time>2022-06-16T13:47:22.000Z</Time>
            <Position>
              <LatitudeDegrees>36.8578164093196392059326171875</LatitudeDegrees>
              <LongitudeDegrees>-4.3819867260754108428955078125</LongitudeDegrees>
            </Position>
            <AltitudeMeters>878</AltitudeMeters>
            <DistanceMeters>NAN</DistanceMeters>
          </Trackpoint>
          <Trackpoint>
            <Time>2022-06-16T13:47:32.000Z</Time>
            <Position>
              <LatitudeDegrees>36.85780626721680164337158203125</LatitudeDegrees>
              <LongitudeDegrees>-4.381846077740192413330078125</LongitudeDegrees>
            </Position>
            <AltitudeMeters>877.79998779296875</AltitudeMeters>
            <DistanceMeters>NAN</DistanceMeters>
          </Trackpoint>
          <Trackpoint>
            <Time>2022-06-16T13:47:42.000Z</Time>
            <Position>
              <LatitudeDegrees>36.85780811123549938201904296875</LatitudeDegrees>
              <LongitudeDegrees>-4.38168690539896488189697265625</LongitudeDegrees>
            </Position>
            <AltitudeMeters>877.4000244140625</AltitudeMeters>
            <DistanceMeters>NAN</DistanceMeters>
          </Trackpoint>
          <Trackpoint>
            <Time>2022-06-16T13:47:47.000Z</Time>
            <Position>
              <LatitudeDegrees>36.85781163163483142852783203125</LatitudeDegrees>
              <LongitudeDegrees>-4.3816095404326915740966796875</LongitudeDegrees>
            </Position>
            <AltitudeMeters>878</AltitudeMeters>
            <DistanceMeters>NAN</DistanceMeters>
          </Trackpoint>
          <Trackpoint>
            <Time>2022-06-16T13:47:52.000Z</Time>
            <Position>
              <LatitudeDegrees>36.8578040041029453277587890625</LatitudeDegrees>
              <LongitudeDegrees>-4.3815448321402072906494140625</LongitudeDegrees>
            </Position>
            <AltitudeMeters>878.4000244140625</AltitudeMeters>
            <DistanceMeters>NAN</DistanceMeters>
          </Trackpoint>
          <Trackpoint>
            <Time>2022-06-16T13:47:53.000Z</Time>
            <Position>
              <LatitudeDegrees>36.8578018248081207275390625</LatitudeDegrees>
              <LongitudeDegrees>-4.38152815215289592742919921875</LongitudeDegrees>
            </Position>
            <AltitudeMeters>878.4000244140625</AltitudeMeters>
            <DistanceMeters>NAN</DistanceMeters>
          </Trackpoint>
          <Trackpoint>
            <Time>2022-06-16T13:47:57.000Z</Time>
            <Position>
              <LatitudeDegrees>36.85779771767556667327880859375</LatitudeDegrees>
              <LongitudeDegrees>-4.38146822154521942138671875</LongitudeDegrees>
            </Position>
            <AltitudeMeters>878.79998779296875</AltitudeMeters>
            <DistanceMeters>NAN</DistanceMeters>
          </Trackpoint>
          <Trackpoint>
            <Time>2022-06-16T13:48:00.000Z</Time>
            <Position>
              <LatitudeDegrees>36.85779067687690258026123046875</LatitudeDegrees>
              <LongitudeDegrees>-4.3814301677048206329345703125</LongitudeDegrees>
            </Position>
            <AltitudeMeters>879</AltitudeMeters>
            <DistanceMeters>NAN</DistanceMeters>
          </Trackpoint>
          <Trackpoint>
            <Time>2022-06-16T13:48:02.000Z</Time>
            <Position>
              <LatitudeDegrees>36.8577852286398410797119140625</LatitudeDegrees>
              <LongitudeDegrees>-4.3814046867191791534423828125</LongitudeDegrees>
            </Position>
            <AltitudeMeters>879.20001220703125</AltitudeMeters>
            <DistanceMeters>NAN</DistanceMeters>
          </Trackpoint>
          <Trackpoint>
            <Time>2022-06-16T13:48:05.000Z</Time>
            <Position>
              <LatitudeDegrees>36.8577795289456844329833984375</LatitudeDegrees>
              <LongitudeDegrees>-4.38136286102235317230224609375</LongitudeDegrees>
            </Position>
            <AltitudeMeters>879.5999755859375</AltitudeMeters>
            <DistanceMeters>NAN</DistanceMeters>
          </Trackpoint>
          <Trackpoint>
            <Time>2022-06-16T13:48:09.000Z</Time>
            <Position>
              <LatitudeDegrees>36.85776167549192905426025390625</LatitudeDegrees>
              <LongitudeDegrees>-4.38131089322268962860107421875</LongitudeDegrees>
            </Position>
            <AltitudeMeters>879.79998779296875</AltitudeMeters>
            <DistanceMeters>NAN</DistanceMeters>
          </Trackpoint>
          <Trackpoint>
            <Time>2022-06-16T13:48:12.000Z</Time>
            <Position>
              <LatitudeDegrees>36.8577496893703937530517578125</LatitudeDegrees>
              <LongitudeDegrees>-4.38126814551651477813720703125</LongitudeDegrees>
            </Position>
            <AltitudeMeters>880.20001220703125</AltitudeMeters>
            <DistanceMeters>NAN</DistanceMeters>
          </Trackpoint>
          <Trackpoint>
            <Time>2022-06-16T13:48:17.000Z</Time>
            <Position>
              <LatitudeDegrees>36.85773971490561962127685546875</LatitudeDegrees>
              <LongitudeDegrees>-4.381203353404998779296875</LongitudeDegrees>
            </Position>
            <AltitudeMeters>880.5999755859375</AltitudeMeters>
            <DistanceMeters>NAN</DistanceMeters>
          </Trackpoint>
          <Trackpoint>
            <Time>2022-06-16T13:48:19.000Z</Time>
            <Position>
              <LatitudeDegrees>36.8577349372208118438720703125</LatitudeDegrees>
              <LongitudeDegrees>-4.3811736814677715301513671875</LongitudeDegrees>
            </Position>
            <AltitudeMeters>880.79998779296875</AltitudeMeters>
            <DistanceMeters>NAN</DistanceMeters>
          </Trackpoint>
          <Trackpoint>
            <Time>2022-06-16T13:48:22.000Z</Time>
            <Position>
              <LatitudeDegrees>36.85771465301513671875</LatitudeDegrees>
              <LongitudeDegrees>-4.38113453797996044158935546875</LongitudeDegrees>
            </Position>
            <AltitudeMeters>880.5999755859375</AltitudeMeters>
            <DistanceMeters>NAN</DistanceMeters>
          </Trackpoint>
          <Trackpoint>
            <Time>2022-06-16T13:48:32.000Z</Time>
            <Position>
              <LatitudeDegrees>36.85765095055103302001953125</LatitudeDegrees>
              <LongitudeDegrees>-4.381011910736560821533203125</LongitudeDegrees>
            </Position>
            <AltitudeMeters>880.20001220703125</AltitudeMeters>
            <DistanceMeters>NAN</DistanceMeters>
          </Trackpoint>
          <Trackpoint>
            <Time>2022-06-16T13:48:42.000Z</Time>
            <Position>
              <LatitudeDegrees>36.857583560049533843994140625</LatitudeDegrees>
              <LongitudeDegrees>-4.38089716248214244842529296875</LongitudeDegrees>
            </Position>
            <AltitudeMeters>879</AltitudeMeters>
            <DistanceMeters>NAN</DistanceMeters>
          </Trackpoint>
          <Trackpoint>
            <Time>2022-06-16T13:48:48.000Z</Time>
            <Position>
              <LatitudeDegrees>36.85756570659577846527099609375</LatitudeDegrees>
              <LongitudeDegrees>-4.380818121135234832763671875</LongitudeDegrees>
            </Position>
            <AltitudeMeters>878.79998779296875</AltitudeMeters>
            <DistanceMeters>NAN</DistanceMeters>
          </Trackpoint>
          <Trackpoint>
            <Time>2022-06-16T13:48:50.000Z</Time>
            <Position>
              <LatitudeDegrees>36.857566796243190765380859375</LatitudeDegrees>
              <LongitudeDegrees>-4.380788616836071014404296875</LongitudeDegrees>
            </Position>
            <AltitudeMeters>879.20001220703125</AltitudeMeters>
            <DistanceMeters>NAN</DistanceMeters>
          </Trackpoint>
          <Trackpoint>
            <Time>2022-06-16T13:48:52.000Z</Time>
            <Position>
              <LatitudeDegrees>36.8575696460902690887451171875</LatitudeDegrees>
              <LongitudeDegrees>-4.380760453641414642333984375</LongitudeDegrees>
            </Position>
            <AltitudeMeters>879.20001220703125</AltitudeMeters>
            <DistanceMeters>NAN</DistanceMeters>
          </Trackpoint>
          <Trackpoint>
            <Time>2022-06-16T13:49:02.000Z</Time>
            <Position>
              <LatitudeDegrees>36.85755095444619655609130859375</LatitudeDegrees>
              <LongitudeDegrees>-4.3806130997836589813232421875</LongitudeDegrees>
            </Position>
            <AltitudeMeters>879.20001220703125</AltitudeMeters>
            <DistanceMeters>NAN</DistanceMeters>
          </Trackpoint>
          <Trackpoint>
            <Time>2022-06-16T13:49:11.000Z</Time>
            <Position>
              <LatitudeDegrees>36.85753067024052143096923828125</LatitudeDegrees>
              <LongitudeDegrees>-4.38048125244677066802978515625</LongitudeDegrees>
            </Position>
            <AltitudeMeters>880.20001220703125</AltitudeMeters>
            <DistanceMeters>NAN</DistanceMeters>
          </Trackpoint>
          <Trackpoint>
            <Time>2022-06-16T13:49:12.000Z</Time>
            <Position>
              <LatitudeDegrees>36.8575317598879337310791015625</LatitudeDegrees>
              <LongitudeDegrees>-4.38047111034393310546875</LongitudeDegrees>
            </Position>
            <AltitudeMeters>880.20001220703125</AltitudeMeters>
            <DistanceMeters>NAN</DistanceMeters>
          </Trackpoint>
          <Trackpoint>
            <Time>2022-06-16T13:49:13.000Z</Time>
            <Position>
              <LatitudeDegrees>36.8575394712388515472412109375</LatitudeDegrees>
              <LongitudeDegrees>-4.38045979477465152740478515625</LongitudeDegrees>
            </Position>
            <AltitudeMeters>880.5999755859375</AltitudeMeters>
            <DistanceMeters>NAN</DistanceMeters>
          </Trackpoint>
          <Trackpoint>
            <Time>2022-06-16T13:49:22.000Z</Time>
            <Position>
              <LatitudeDegrees>36.85752865858376026153564453125</LatitudeDegrees>
              <LongitudeDegrees>-4.38029265962541103363037109375</LongitudeDegrees>
            </Position>
            <AltitudeMeters>882.79998779296875</AltitudeMeters>
            <DistanceMeters>NAN</DistanceMeters>
          </Trackpoint>
          <Trackpoint>
            <Time>2022-06-16T13:49:28.000Z</Time>
            <Position>
              <LatitudeDegrees>36.85751323588192462921142578125</LatitudeDegrees>
              <LongitudeDegrees>-4.3802171386778354644775390625</LongitudeDegrees>
            </Position>
            <AltitudeMeters>884.20001220703125</AltitudeMeters>
            <DistanceMeters>NAN</DistanceMeters>
          </Trackpoint>
          <Trackpoint>
            <Time>2022-06-16T13:49:32.000Z</Time>
            <Position>
              <LatitudeDegrees>36.8575072847306728363037109375</LatitudeDegrees>
              <LongitudeDegrees>-4.38016458414494991302490234375</LongitudeDegrees>
            </Position>
            <AltitudeMeters>885.4000244140625</AltitudeMeters>
            <DistanceMeters>NAN</DistanceMeters>
          </Trackpoint>
          <Trackpoint>
            <Time>2022-06-16T13:49:42.000Z</Time>
            <Position>
              <LatitudeDegrees>36.8574955500662326812744140625</LatitudeDegrees>
              <LongitudeDegrees>-4.3800132907927036285400390625</LongitudeDegrees>
            </Position>
            <AltitudeMeters>888.5999755859375</AltitudeMeters>
            <DistanceMeters>NAN</DistanceMeters>
          </Trackpoint>
          <Trackpoint>
            <Time>2022-06-16T13:49:43.000Z</Time>
            <Position>
              <LatitudeDegrees>36.8574821390211582183837890625</LatitudeDegrees>
              <LongitudeDegrees>-4.380001388490200042724609375</LongitudeDegrees>
            </Position>
            <AltitudeMeters>888.4000244140625</AltitudeMeters>
            <DistanceMeters>NAN</DistanceMeters>
          </Trackpoint>
          <Trackpoint>
            <Time>2022-06-16T13:49:52.000Z</Time>
            <Position>
              <LatitudeDegrees>36.85739689506590366363525390625</LatitudeDegrees>
              <LongitudeDegrees>-4.379885382950305938720703125</LongitudeDegrees>
            </Position>
            <AltitudeMeters>888.4000244140625</AltitudeMeters>
            <DistanceMeters>NAN</DistanceMeters>
          </Trackpoint>
          <Trackpoint>
            <Time>2022-06-16T13:50:02.000Z</Time>
            <Position>
              <LatitudeDegrees>36.85727334581315517425537109375</LatitudeDegrees>
              <LongitudeDegrees>-4.3797980435192584991455078125</LongitudeDegrees>
            </Position>
            <AltitudeMeters>888</AltitudeMeters>
            <DistanceMeters>NAN</DistanceMeters>
          </Trackpoint>
          <Trackpoint>
            <Time>2022-06-16T13:50:12.000Z</Time>
            <Position>
              <LatitudeDegrees>36.8571411632001399993896484375</LatitudeDegrees>
              <LongitudeDegrees>-4.37971179373562335968017578125</LongitudeDegrees>
            </Position>
            <AltitudeMeters>886.4000244140625</AltitudeMeters>
            <DistanceMeters>NAN</DistanceMeters>
          </Trackpoint>
          <Trackpoint>
            <Time>2022-06-16T13:50:22.000Z</Time>
            <Position>
              <LatitudeDegrees>36.85701191425323486328125</LatitudeDegrees>
              <LongitudeDegrees>-4.37963417731225490570068359375</LongitudeDegrees>
            </Position>
            <AltitudeMeters>884.5999755859375</AltitudeMeters>
            <DistanceMeters>NAN</DistanceMeters>
          </Trackpoint>
          <Trackpoint>
            <Time>2022-06-16T13:50:32.000Z</Time>
            <Position>
              <LatitudeDegrees>36.85689993202686309814453125</LatitudeDegrees>
              <LongitudeDegrees>-4.37953476794064044952392578125</LongitudeDegrees>
            </Position>
            <AltitudeMeters>884.4000244140625</AltitudeMeters>
            <DistanceMeters>NAN</DistanceMeters>
          </Trackpoint>
          <Trackpoint>
            <Time>2022-06-16T13:50:36.000Z</Time>
            <Position>
              <LatitudeDegrees>36.8568642251193523406982421875</LatitudeDegrees>
              <LongitudeDegrees>-4.3794993124902248382568359375</LongitudeDegrees>
            </Position>
            <AltitudeMeters>884.5999755859375</AltitudeMeters>
            <DistanceMeters>NAN</DistanceMeters>
          </Trackpoint>
          <Trackpoint>
            <Time>2022-06-16T13:50:42.000Z</Time>
            <Position>
              <LatitudeDegrees>36.85679130256175994873046875</LatitudeDegrees>
              <LongitudeDegrees>-4.3794446624815464019775390625</LongitudeDegrees>
            </Position>
            <AltitudeMeters>884.5999755859375</AltitudeMeters>
            <DistanceMeters>NAN</DistanceMeters>
          </Trackpoint>
          <Trackpoint>
            <Time>2022-06-16T13:50:52.000Z</Time>
            <Position>
              <LatitudeDegrees>36.85670002363622188568115234375</LatitudeDegrees>
              <LongitudeDegrees>-4.37931977212429046630859375</LongitudeDegrees>
            </Position>
            <AltitudeMeters>884.79998779296875</AltitudeMeters>
            <DistanceMeters>NAN</DistanceMeters>
          </Trackpoint>
          <Trackpoint>
            <Time>2022-06-16T13:51:02.000Z</Time>
            <Position>
              <LatitudeDegrees>36.85658636502921581268310546875</LatitudeDegrees>
              <LongitudeDegrees>-4.379206113517284393310546875</LongitudeDegrees>
            </Position>
            <AltitudeMeters>884.4000244140625</AltitudeMeters>
            <DistanceMeters>NAN</DistanceMeters>
          </Trackpoint>
          <Trackpoint>
            <Time>2022-06-16T13:51:12.000Z</Time>
            <Position>
              <LatitudeDegrees>36.85649483464658260345458984375</LatitudeDegrees>
              <LongitudeDegrees>-4.3790879286825656890869140625</LongitudeDegrees>
            </Position>
            <AltitudeMeters>884.79998779296875</AltitudeMeters>
            <DistanceMeters>NAN</DistanceMeters>
          </Trackpoint>
          <Trackpoint>
            <Time>2022-06-16T13:51:22.000Z</Time>
            <Position>
              <LatitudeDegrees>36.8563945032656192779541015625</LatitudeDegrees>
              <LongitudeDegrees>-4.37895658425986766815185546875</LongitudeDegrees>
            </Position>
            <AltitudeMeters>884.5999755859375</AltitudeMeters>
            <DistanceMeters>NAN</DistanceMeters>
          </Trackpoint>
          <Trackpoint>
            <Time>2022-06-16T13:51:29.000Z</Time>
            <Position>
              <LatitudeDegrees>36.856340356171131134033203125</LatitudeDegrees>
              <LongitudeDegrees>-4.37887628562748432159423828125</LongitudeDegrees>
            </Position>
            <AltitudeMeters>885.4000244140625</AltitudeMeters>
            <DistanceMeters>NAN</DistanceMeters>
          </Trackpoint>
          <Trackpoint>
            <Time>2022-06-16T13:51:32.000Z</Time>
            <Position>
              <LatitudeDegrees>36.85632166452705860137939453125</LatitudeDegrees>
              <LongitudeDegrees>-4.3788418360054492950439453125</LongitudeDegrees>
            </Position>
            <AltitudeMeters>885.5999755859375</AltitudeMeters>
            <DistanceMeters>NAN</DistanceMeters>
          </Trackpoint>
          <Trackpoint>
            <Time>2022-06-16T13:51:36.000Z</Time>
            <Position>
              <LatitudeDegrees>36.85629869811236858367919921875</LatitudeDegrees>
              <LongitudeDegrees>-4.37880034558475017547607421875</LongitudeDegrees>
            </Position>
            <AltitudeMeters>885.4000244140625</AltitudeMeters>
            <DistanceMeters>NAN</DistanceMeters>
          </Trackpoint>
          <Trackpoint>
            <Time>2022-06-16T13:51:41.000Z</Time>
            <Position>
              <LatitudeDegrees>36.8562667630612850189208984375</LatitudeDegrees>
              <LongitudeDegrees>-4.3787375651299953460693359375</LongitudeDegrees>
            </Position>
            <AltitudeMeters>885.4000244140625</AltitudeMeters>
            <DistanceMeters>NAN</DistanceMeters>
          </Trackpoint>
          <Trackpoint>
            <Time>2022-06-16T13:51:42.000Z</Time>
            <Position>
              <LatitudeDegrees>36.856263577938079833984375</LatitudeDegrees>
              <LongitudeDegrees>-4.37872071750462055206298828125</LongitudeDegrees>
            </Position>
            <AltitudeMeters>885.5999755859375</AltitudeMeters>
            <DistanceMeters>NAN</DistanceMeters>
          </Trackpoint>
          <Trackpoint>
            <Time>2022-06-16T13:51:52.000Z</Time>
            <Position>
              <LatitudeDegrees>36.85614547692239284515380859375</LatitudeDegrees>
              <LongitudeDegrees>-4.37859666533768177032470703125</LongitudeDegrees>
            </Position>
            <AltitudeMeters>884.5999755859375</AltitudeMeters>
            <DistanceMeters>NAN</DistanceMeters>
          </Trackpoint>
          <Trackpoint>
            <Time>2022-06-16T13:52:02.000Z</Time>
            <Position>
              <LatitudeDegrees>36.85603600926697254180908203125</LatitudeDegrees>
              <LongitudeDegrees>-4.378472529351711273193359375</LongitudeDegrees>
            </Position>
            <AltitudeMeters>882.79998779296875</AltitudeMeters>
            <DistanceMeters>NAN</DistanceMeters>
          </Trackpoint>
          <Trackpoint>
            <Time>2022-06-16T13:52:12.000Z</Time>
            <Position>
              <LatitudeDegrees>36.85593157075345516204833984375</LatitudeDegrees>
              <LongitudeDegrees>-4.37836222350597381591796875</LongitudeDegrees>
            </Position>
            <AltitudeMeters>884</AltitudeMeters>
            <DistanceMeters>NAN</DistanceMeters>
          </Trackpoint>
          <Trackpoint>
            <Time>2022-06-16T13:52:22.000Z</Time>
            <Position>
              <LatitudeDegrees>36.85584339313209056854248046875</LatitudeDegrees>
              <LongitudeDegrees>-4.37825015746057033538818359375</LongitudeDegrees>
            </Position>
            <AltitudeMeters>885.20001220703125</AltitudeMeters>
            <DistanceMeters>NAN</DistanceMeters>
          </Trackpoint>
          <Trackpoint>
            <Time>2022-06-16T13:52:32.000Z</Time>
            <Position>
              <LatitudeDegrees>36.8557772599160671234130859375</LatitudeDegrees>
              <LongitudeDegrees>-4.3781335651874542236328125</LongitudeDegrees>
            </Position>
            <AltitudeMeters>885.4000244140625</AltitudeMeters>
            <DistanceMeters>NAN</DistanceMeters>
          </Trackpoint>
          <Trackpoint>
            <Time>2022-06-16T13:52:42.000Z</Time>
            <Position>
              <LatitudeDegrees>36.85568044893443584442138671875</LatitudeDegrees>
              <LongitudeDegrees>-4.37804304063320159912109375</LongitudeDegrees>
            </Position>
            <AltitudeMeters>887.4000244140625</AltitudeMeters>
            <DistanceMeters>NAN</DistanceMeters>
          </Trackpoint>
          <Trackpoint>
            <Time>2022-06-16T13:52:52.000Z</Time>
            <Position>
              <LatitudeDegrees>36.8555603362619876861572265625</LatitudeDegrees>
              <LongitudeDegrees>-4.37795880250632762908935546875</LongitudeDegrees>
            </Position>
            <AltitudeMeters>888.5999755859375</AltitudeMeters>
            <DistanceMeters>NAN</DistanceMeters>
          </Trackpoint>
          <Trackpoint>
            <Time>2022-06-16T13:53:02.000Z</Time>
            <Position>
              <LatitudeDegrees>36.85543536208570003509521484375</LatitudeDegrees>
              <LongitudeDegrees>-4.377867020666599273681640625</LongitudeDegrees>
            </Position>
            <AltitudeMeters>889.4000244140625</AltitudeMeters>
            <DistanceMeters>NAN</DistanceMeters>
          </Trackpoint>
          <Trackpoint>
            <Time>2022-06-16T13:53:12.000Z</Time>
            <Position>
              <LatitudeDegrees>36.8553316779434680938720703125</LatitudeDegrees>
              <LongitudeDegrees>-4.377776496112346649169921875</LongitudeDegrees>
            </Position>
            <AltitudeMeters>889</AltitudeMeters>
            <DistanceMeters>NAN</DistanceMeters>
          </Trackpoint>
          <Trackpoint>
            <Time>2022-06-16T13:53:22.000Z</Time>
            <Position>
              <LatitudeDegrees>36.8552173487842082977294921875</LatitudeDegrees>
              <LongitudeDegrees>-4.37767951749265193939208984375</LongitudeDegrees>
            </Position>
            <AltitudeMeters>887</AltitudeMeters>
            <DistanceMeters>NAN</DistanceMeters>
          </Trackpoint>
          <Trackpoint>
            <Time>2022-06-16T13:53:32.000Z</Time>
            <Position>
              <LatitudeDegrees>36.85505817644298076629638671875</LatitudeDegrees>
              <LongitudeDegrees>-4.3775949440896511077880859375</LongitudeDegrees>
            </Position>
            <AltitudeMeters>885.4000244140625</AltitudeMeters>
            <DistanceMeters>NAN</DistanceMeters>
          </Trackpoint>
          <Trackpoint>
            <Time>2022-06-16T13:53:35.000Z</Time>
            <Position>
              <LatitudeDegrees>36.8550262413918972015380859375</LatitudeDegrees>
              <LongitudeDegrees>-4.37757742591202259063720703125</LongitudeDegrees>
            </Position>
            <AltitudeMeters>884.79998779296875</AltitudeMeters>
            <DistanceMeters>NAN</DistanceMeters>
          </Trackpoint>
          <Trackpoint>
            <Time>2022-06-16T13:53:42.000Z</Time>
            <Position>
              <LatitudeDegrees>36.8549720942974090576171875</LatitudeDegrees>
              <LongitudeDegrees>-4.37751238234341144561767578125</LongitudeDegrees>
            </Position>
            <AltitudeMeters>883.79998779296875</AltitudeMeters>
            <DistanceMeters>NAN</DistanceMeters>
          </Trackpoint>
          <Trackpoint>
            <Time>2022-06-16T13:53:52.000Z</Time>
            <Position>
              <LatitudeDegrees>36.8548659794032573699951171875</LatitudeDegrees>
              <LongitudeDegrees>-4.37738883309066295623779296875</LongitudeDegrees>
            </Position>
            <AltitudeMeters>882</AltitudeMeters>
            <DistanceMeters>NAN</DistanceMeters>
          </Trackpoint>
          <Trackpoint>
            <Time>2022-06-16T13:54:02.000Z</Time>
            <Position>
              <LatitudeDegrees>36.85478660278022289276123046875</LatitudeDegrees>
              <LongitudeDegrees>-4.37726561911404132843017578125</LongitudeDegrees>
            </Position>
            <AltitudeMeters>880</AltitudeMeters>
            <DistanceMeters>NAN</DistanceMeters>
          </Trackpoint>
          <Trackpoint>
            <Time>2022-06-16T13:54:07.000Z</Time>
            <Position>
              <LatitudeDegrees>36.854747124016284942626953125</LatitudeDegrees>
              <LongitudeDegrees>-4.37720409594476222991943359375</LongitudeDegrees>
            </Position>
            <AltitudeMeters>878.79998779296875</AltitudeMeters>
            <DistanceMeters>NAN</DistanceMeters>
          </Trackpoint>
          <Trackpoint>
            <Time>2022-06-16T13:54:12.000Z</Time>
            <Position>
              <LatitudeDegrees>36.8547280132770538330078125</LatitudeDegrees>
              <LongitudeDegrees>-4.377121031284332275390625</LongitudeDegrees>
            </Position>
            <AltitudeMeters>877.4000244140625</AltitudeMeters>
            <DistanceMeters>NAN</DistanceMeters>
          </Trackpoint>
          <Trackpoint>
            <Time>2022-06-16T13:54:22.000Z</Time>
            <Position>
              <LatitudeDegrees>36.85470563359558582305908203125</LatitudeDegrees>
              <LongitudeDegrees>-4.37697007320821285247802734375</LongitudeDegrees>
            </Position>
            <AltitudeMeters>875.4000244140625</AltitudeMeters>
            <DistanceMeters>NAN</DistanceMeters>
          </Trackpoint>
          <Trackpoint>
            <Time>2022-06-16T13:54:32.000Z</Time>
            <Position>
              <LatitudeDegrees>36.8546555936336517333984375</LatitudeDegrees>
              <LongitudeDegrees>-4.37680779956281185150146484375</LongitudeDegrees>
            </Position>
            <AltitudeMeters>873.79998779296875</AltitudeMeters>
            <DistanceMeters>NAN</DistanceMeters>
          </Trackpoint>
          <Trackpoint>
            <Time>2022-06-16T13:54:42.000Z</Time>
            <Position>
              <LatitudeDegrees>36.85463505797088146209716796875</LatitudeDegrees>
              <LongitudeDegrees>-4.376651979982852935791015625</LongitudeDegrees>
            </Position>
            <AltitudeMeters>872.4000244140625</AltitudeMeters>
            <DistanceMeters>NAN</DistanceMeters>
          </Trackpoint>
          <Trackpoint>
            <Time>2022-06-16T13:54:52.000Z</Time>
            <Position>
              <LatitudeDegrees>36.8546180427074432373046875</LatitudeDegrees>
              <LongitudeDegrees>-4.37650303356349468231201171875</LongitudeDegrees>
            </Position>
            <AltitudeMeters>871.79998779296875</AltitudeMeters>
            <DistanceMeters>NAN</DistanceMeters>
          </Trackpoint>
          <Trackpoint>
            <Time>2022-06-16T13:54:57.000Z</Time>
            <Position>
              <LatitudeDegrees>36.8546140193939208984375</LatitudeDegrees>
              <LongitudeDegrees>-4.37640488147735595703125</LongitudeDegrees>
            </Position>
            <AltitudeMeters>871.4000244140625</AltitudeMeters>
            <DistanceMeters>NAN</DistanceMeters>
          </Trackpoint>
          <Trackpoint>
            <Time>2022-06-16T13:55:02.000Z</Time>
            <Position>
              <LatitudeDegrees>36.85463287867605686187744140625</LatitudeDegrees>
              <LongitudeDegrees>-4.376306645572185516357421875</LongitudeDegrees>
            </Position>
            <AltitudeMeters>871.4000244140625</AltitudeMeters>
            <DistanceMeters>NAN</DistanceMeters>
          </Trackpoint>
          <Trackpoint>
            <Time>2022-06-16T13:55:12.000Z</Time>
            <Position>
              <LatitudeDegrees>36.85461728833615779876708984375</LatitudeDegrees>
              <LongitudeDegrees>-4.37611478380858898162841796875</LongitudeDegrees>
            </Position>
            <AltitudeMeters>872.20001220703125</AltitudeMeters>
            <DistanceMeters>NAN</DistanceMeters>
          </Trackpoint>
          <Trackpoint>
            <Time>2022-06-16T13:55:20.000Z</Time>
            <Position>
              <LatitudeDegrees>36.8546101637184619903564453125</LatitudeDegrees>
              <LongitudeDegrees>-4.37596508301794528961181640625</LongitudeDegrees>
            </Position>
            <AltitudeMeters>872.4000244140625</AltitudeMeters>
            <DistanceMeters>NAN</DistanceMeters>
          </Trackpoint>
          <Trackpoint>
            <Time>2022-06-16T13:55:22.000Z</Time>
            <Position>
              <LatitudeDegrees>36.85459993779659271240234375</LatitudeDegrees>
              <LongitudeDegrees>-4.3759299628436565399169921875</LongitudeDegrees>
            </Position>
            <AltitudeMeters>872.5999755859375</AltitudeMeters>
            <DistanceMeters>NAN</DistanceMeters>
          </Trackpoint>
          <Trackpoint>
            <Time>2022-06-16T13:55:29.000Z</Time>
            <Position>
              <LatitudeDegrees>36.85457638464868068695068359375</LatitudeDegrees>
              <LongitudeDegrees>-4.3758032284677028656005859375</LongitudeDegrees>
            </Position>
            <AltitudeMeters>873</AltitudeMeters>
            <DistanceMeters>NAN</DistanceMeters>
          </Trackpoint>
          <Trackpoint>
            <Time>2022-06-16T13:55:30.000Z</Time>
            <Position>
              <LatitudeDegrees>36.8545749597251415252685546875</LatitudeDegrees>
              <LongitudeDegrees>-4.375786967575550079345703125</LongitudeDegrees>
            </Position>
            <AltitudeMeters>873</AltitudeMeters>
            <DistanceMeters>NAN</DistanceMeters>
          </Trackpoint>
          <Trackpoint>
            <Time>2022-06-16T13:55:31.000Z</Time>
            <Position>
              <LatitudeDegrees>36.854572109878063201904296875</LatitudeDegrees>
              <LongitudeDegrees>-4.3757693655788898468017578125</LongitudeDegrees>
            </Position>
            <AltitudeMeters>872.79998779296875</AltitudeMeters>
            <DistanceMeters>NAN</DistanceMeters>
          </Trackpoint>
          <Trackpoint>
            <Time>2022-06-16T13:55:32.000Z</Time>
            <Position>
              <LatitudeDegrees>36.85456967912614345550537109375</LatitudeDegrees>
              <LongitudeDegrees>-4.37575067393481731414794921875</LongitudeDegrees>
            </Position>
            <AltitudeMeters>872.79998779296875</AltitudeMeters>
            <DistanceMeters>NAN</DistanceMeters>
          </Trackpoint>
          <Trackpoint>
            <Time>2022-06-16T13:55:33.000Z</Time>
            <Position>
              <LatitudeDegrees>36.8545665778219699859619140625</LatitudeDegrees>
              <LongitudeDegrees>-4.37573055736720561981201171875</LongitudeDegrees>
            </Position>
            <AltitudeMeters>872.5999755859375</AltitudeMeters>
            <DistanceMeters>NAN</DistanceMeters>
          </Trackpoint>
          <Trackpoint>
            <Time>2022-06-16T13:55:34.000Z</Time>
            <Position>
              <LatitudeDegrees>36.85456381179392337799072265625</LatitudeDegrees>
              <LongitudeDegrees>-4.37571010552346706390380859375</LongitudeDegrees>
            </Position>
            <AltitudeMeters>872.4000244140625</AltitudeMeters>
            <DistanceMeters>NAN</DistanceMeters>
          </Trackpoint>
          <Trackpoint>
            <Time>2022-06-16T13:55:35.000Z</Time>
            <Position>
              <LatitudeDegrees>36.85456263832747936248779296875</LatitudeDegrees>
              <LongitudeDegrees>-4.37568982131779193878173828125</LongitudeDegrees>
            </Position>
            <AltitudeMeters>872.20001220703125</AltitudeMeters>
            <DistanceMeters>NAN</DistanceMeters>
          </Trackpoint>
          <Trackpoint>
            <Time>2022-06-16T13:55:36.000Z</Time>
            <Position>
              <LatitudeDegrees>36.85456448234617710113525390625</LatitudeDegrees>
              <LongitudeDegrees>-4.3756697885692119598388671875</LongitudeDegrees>
            </Position>
            <AltitudeMeters>872.20001220703125</AltitudeMeters>
            <DistanceMeters>NAN</DistanceMeters>
          </Trackpoint>
          <Trackpoint>
            <Time>2022-06-16T13:55:37.000Z</Time>
            <Position>
              <LatitudeDegrees>36.85456641018390655517578125</LatitudeDegrees>
              <LongitudeDegrees>-4.3756516836583614349365234375</LongitudeDegrees>
            </Position>
            <AltitudeMeters>872</AltitudeMeters>
            <DistanceMeters>NAN</DistanceMeters>
          </Trackpoint>
          <Trackpoint>
            <Time>2022-06-16T13:55:39.000Z</Time>
            <Position>
              <LatitudeDegrees>36.8545665778219699859619140625</LatitudeDegrees>
              <LongitudeDegrees>-4.37561924569308757781982421875</LongitudeDegrees>
            </Position>
            <AltitudeMeters>871.79998779296875</AltitudeMeters>
            <DistanceMeters>NAN</DistanceMeters>
          </Trackpoint>
          <Trackpoint>
            <Time>2022-06-16T13:55:40.000Z</Time>
            <Position>
              <LatitudeDegrees>36.85456632636487483978271484375</LatitudeDegrees>
              <LongitudeDegrees>-4.37560482881963253021240234375</LongitudeDegrees>
            </Position>
            <AltitudeMeters>871.5999755859375</AltitudeMeters>
            <DistanceMeters>NAN</DistanceMeters>
          </Trackpoint>
          <Trackpoint>
            <Time>2022-06-16T13:55:41.000Z</Time>
            <Position>
              <LatitudeDegrees>36.85456934385001659393310546875</LatitudeDegrees>
              <LongitudeDegrees>-4.375589825212955474853515625</LongitudeDegrees>
            </Position>
            <AltitudeMeters>871.5999755859375</AltitudeMeters>
            <DistanceMeters>NAN</DistanceMeters>
          </Trackpoint>
          <Trackpoint>
            <Time>2022-06-16T13:55:42.000Z</Time>
            <Position>
              <LatitudeDegrees>36.85456967912614345550537109375</LatitudeDegrees>
              <LongitudeDegrees>-4.37557565979659557342529296875</LongitudeDegrees>
            </Position>
            <AltitudeMeters>871.4000244140625</AltitudeMeters>
            <DistanceMeters>NAN</DistanceMeters>
          </Trackpoint>
          <Trackpoint>
            <Time>2022-06-16T13:55:52.000Z</Time>
            <Position>
              <LatitudeDegrees>36.85455031692981719970703125</LatitudeDegrees>
              <LongitudeDegrees>-4.37540240585803985595703125</LongitudeDegrees>
            </Position>
            <AltitudeMeters>870.20001220703125</AltitudeMeters>
            <DistanceMeters>NAN</DistanceMeters>
          </Trackpoint>
          <Trackpoint>
            <Time>2022-06-16T13:56:02.000Z</Time>
            <Position>
              <LatitudeDegrees>36.854501031339168548583984375</LatitudeDegrees>
              <LongitudeDegrees>-4.37523049302399158477783203125</LongitudeDegrees>
            </Position>
            <AltitudeMeters>868.20001220703125</AltitudeMeters>
            <DistanceMeters>NAN</DistanceMeters>
          </Trackpoint>
          <Trackpoint>
            <Time>2022-06-16T13:56:07.000Z</Time>
            <Position>
              <LatitudeDegrees>36.8544616363942623138427734375</LatitudeDegrees>
              <LongitudeDegrees>-4.37517064623534679412841796875</LongitudeDegrees>
            </Position>
            <AltitudeMeters>867</AltitudeMeters>
            <DistanceMeters>NAN</DistanceMeters>
          </Trackpoint>
          <Trackpoint>
            <Time>2022-06-16T13:56:12.000Z</Time>
            <Position>
              <LatitudeDegrees>36.85442534275352954864501953125</LatitudeDegrees>
              <LongitudeDegrees>-4.375133849680423736572265625</LongitudeDegrees>
            </Position>
            <AltitudeMeters>866</AltitudeMeters>
            <DistanceMeters>NAN</DistanceMeters>
          </Trackpoint>
          <Trackpoint>
            <Time>2022-06-16T13:56:14.000Z</Time>
            <Position>
              <LatitudeDegrees>36.854416541755199432373046875</LatitudeDegrees>
              <LongitudeDegrees>-4.375108368694782257080078125</LongitudeDegrees>
            </Position>
            <AltitudeMeters>865.79998779296875</AltitudeMeters>
            <DistanceMeters>NAN</DistanceMeters>
          </Trackpoint>
          <Trackpoint>
            <Time>2022-06-16T13:56:19.000Z</Time>
            <Position>
              <LatitudeDegrees>36.85439600609242916107177734375</LatitudeDegrees>
              <LongitudeDegrees>-4.3750569038093090057373046875</LongitudeDegrees>
            </Position>
            <AltitudeMeters>865.20001220703125</AltitudeMeters>
            <DistanceMeters>NAN</DistanceMeters>
          </Trackpoint>
          <Trackpoint>
            <Time>2022-06-16T13:56:22.000Z</Time>
            <Position>
              <LatitudeDegrees>36.8543855287134647369384765625</LatitudeDegrees>
              <LongitudeDegrees>-4.37502597458660602569580078125</LongitudeDegrees>
            </Position>
            <AltitudeMeters>865</AltitudeMeters>
            <DistanceMeters>NAN</DistanceMeters>
          </Trackpoint>
          <Trackpoint>
            <Time>2022-06-16T13:56:32.000Z</Time>
            <Position>
              <LatitudeDegrees>36.8543256819248199462890625</LatitudeDegrees>
              <LongitudeDegrees>-4.37485917471349239349365234375</LongitudeDegrees>
            </Position>
            <AltitudeMeters>863.5999755859375</AltitudeMeters>
            <DistanceMeters>NAN</DistanceMeters>
          </Trackpoint>
          <Trackpoint>
            <Time>2022-06-16T13:56:42.000Z</Time>
            <Position>
              <LatitudeDegrees>36.85429441742599010467529296875</LatitudeDegrees>
              <LongitudeDegrees>-4.3747397325932979583740234375</LongitudeDegrees>
            </Position>
            <AltitudeMeters>863.4000244140625</AltitudeMeters>
            <DistanceMeters>NAN</DistanceMeters>
          </Trackpoint>
          <Trackpoint>
            <Time>2022-06-16T13:56:52.000Z</Time>
            <Position>
              <LatitudeDegrees>36.85424613766372203826904296875</LatitudeDegrees>
              <LongitudeDegrees>-4.37457804568111896514892578125</LongitudeDegrees>
            </Position>
            <AltitudeMeters>863.79998779296875</AltitudeMeters>
            <DistanceMeters>NAN</DistanceMeters>
          </Trackpoint>
          <Trackpoint>
            <Time>2022-06-16T13:57:02.000Z</Time>
            <Position>
              <LatitudeDegrees>36.85419668443500995635986328125</LatitudeDegrees>
              <LongitudeDegrees>-4.37441627494990825653076171875</LongitudeDegrees>
            </Position>
            <AltitudeMeters>864.5999755859375</AltitudeMeters>
            <DistanceMeters>NAN</DistanceMeters>
          </Trackpoint>
          <Trackpoint>
            <Time>2022-06-16T13:57:12.000Z</Time>
            <Position>
              <LatitudeDegrees>36.85419785790145397186279296875</LatitudeDegrees>
              <LongitudeDegrees>-4.37426137737929821014404296875</LongitudeDegrees>
            </Position>
            <AltitudeMeters>867.4000244140625</AltitudeMeters>
            <DistanceMeters>NAN</DistanceMeters>
          </Trackpoint>
          <Trackpoint>
            <Time>2022-06-16T13:57:22.000Z</Time>
            <Position>
              <LatitudeDegrees>36.8541702814400196075439453125</LatitudeDegrees>
              <LongitudeDegrees>-4.37408736906945705413818359375</LongitudeDegrees>
            </Position>
            <AltitudeMeters>870.20001220703125</AltitudeMeters>
            <DistanceMeters>NAN</DistanceMeters>
          </Trackpoint>
          <Trackpoint>
            <Time>2022-06-16T13:57:27.000Z</Time>
            <Position>
              <LatitudeDegrees>36.85414421372115612030029296875</LatitudeDegrees>
              <LongitudeDegrees>-4.37401277013123035430908203125</LongitudeDegrees>
            </Position>
            <AltitudeMeters>870.5999755859375</AltitudeMeters>
            <DistanceMeters>NAN</DistanceMeters>
          </Trackpoint>
          <Trackpoint>
            <Time>2022-06-16T13:57:32.000Z</Time>
            <Position>
              <LatitudeDegrees>36.854123175144195556640625</LatitudeDegrees>
              <LongitudeDegrees>-4.37393657863140106201171875</LongitudeDegrees>
            </Position>
            <AltitudeMeters>871.5999755859375</AltitudeMeters>
            <DistanceMeters>NAN</DistanceMeters>
          </Trackpoint>
          <Trackpoint>
            <Time>2022-06-16T13:57:42.000Z</Time>
            <Position>
              <LatitudeDegrees>36.85411504469811916351318359375</LatitudeDegrees>
              <LongitudeDegrees>-4.373787380754947662353515625</LongitudeDegrees>
            </Position>
            <AltitudeMeters>873.79998779296875</AltitudeMeters>
            <DistanceMeters>NAN</DistanceMeters>
          </Trackpoint>
          <Trackpoint>
            <Time>2022-06-16T13:57:52.000Z</Time>
            <Position>
              <LatitudeDegrees>36.85410029254853725433349609375</LatitudeDegrees>
              <LongitudeDegrees>-4.37366609461605548858642578125</LongitudeDegrees>
            </Position>
            <AltitudeMeters>875.5999755859375</AltitudeMeters>
            <DistanceMeters>NAN</DistanceMeters>
          </Trackpoint>
          <Trackpoint>
            <Time>2022-06-16T13:58:02.000Z</Time>
            <Position>
              <LatitudeDegrees>36.85407749377191066741943359375</LatitudeDegrees>
              <LongitudeDegrees>-4.373541288077831268310546875</LongitudeDegrees>
            </Position>
            <AltitudeMeters>877.5999755859375</AltitudeMeters>
            <DistanceMeters>NAN</DistanceMeters>
          </Trackpoint>
          <Trackpoint>
            <Time>2022-06-16T13:58:12.000Z</Time>
            <Position>
              <LatitudeDegrees>36.85407347045838832855224609375</LatitudeDegrees>
              <LongitudeDegrees>-4.3734075129032135009765625</LongitudeDegrees>
            </Position>
            <AltitudeMeters>878.20001220703125</AltitudeMeters>
            <DistanceMeters>NAN</DistanceMeters>
          </Trackpoint>
          <Trackpoint>
            <Time>2022-06-16T13:58:22.000Z</Time>
            <Position>
              <LatitudeDegrees>36.85404648073017597198486328125</LatitudeDegrees>
              <LongitudeDegrees>-4.37327885068953037261962890625</LongitudeDegrees>
            </Position>
            <AltitudeMeters>879</AltitudeMeters>
            <DistanceMeters>NAN</DistanceMeters>
          </Trackpoint>
          <Trackpoint>
            <Time>2022-06-16T13:58:32.000Z</Time>
            <Position>
              <LatitudeDegrees>36.854024939239025115966796875</LatitudeDegrees>
              <LongitudeDegrees>-4.373157732188701629638671875</LongitudeDegrees>
            </Position>
            <AltitudeMeters>879.20001220703125</AltitudeMeters>
            <DistanceMeters>NAN</DistanceMeters>
          </Trackpoint>
          <Trackpoint>
            <Time>2022-06-16T13:58:42.000Z</Time>
            <Position>
              <LatitudeDegrees>36.85398646630346775054931640625</LatitudeDegrees>
              <LongitudeDegrees>-4.37304072082042694091796875</LongitudeDegrees>
            </Position>
            <AltitudeMeters>879</AltitudeMeters>
            <DistanceMeters>NAN</DistanceMeters>
          </Trackpoint>
          <Trackpoint>
            <Time>2022-06-16T13:58:46.000Z</Time>
            <Position>
              <LatitudeDegrees>36.85396618209779262542724609375</LatitudeDegrees>
              <LongitudeDegrees>-4.3730097077786922454833984375</LongitudeDegrees>
            </Position>
            <AltitudeMeters>879.20001220703125</AltitudeMeters>
            <DistanceMeters>NAN</DistanceMeters>
          </Trackpoint>
          <Trackpoint>
            <Time>2022-06-16T13:58:52.000Z</Time>
            <Position>
              <LatitudeDegrees>36.8539476580917835235595703125</LatitudeDegrees>
              <LongitudeDegrees>-4.37294843606650829315185546875</LongitudeDegrees>
            </Position>
            <AltitudeMeters>879.79998779296875</AltitudeMeters>
            <DistanceMeters>NAN</DistanceMeters>
          </Trackpoint>
          <Trackpoint>
            <Time>2022-06-16T13:59:02.000Z</Time>
            <Position>
              <LatitudeDegrees>36.85391572304069995880126953125</LatitudeDegrees>
              <LongitudeDegrees>-4.37281449325382709503173828125</LongitudeDegrees>
            </Position>
            <AltitudeMeters>881.20001220703125</AltitudeMeters>
            <DistanceMeters>NAN</DistanceMeters>
          </Trackpoint>
          <Trackpoint>
            <Time>2022-06-16T13:59:12.000Z</Time>
            <Position>
              <LatitudeDegrees>36.853892840445041656494140625</LatitudeDegrees>
              <LongitudeDegrees>-4.372673593461513519287109375</LongitudeDegrees>
            </Position>
            <AltitudeMeters>880.79998779296875</AltitudeMeters>
            <DistanceMeters>NAN</DistanceMeters>
          </Trackpoint>
          <Trackpoint>
            <Time>2022-06-16T13:59:22.000Z</Time>
            <Position>
              <LatitudeDegrees>36.85388437472283840179443359375</LatitudeDegrees>
              <LongitudeDegrees>-4.37254895456135272979736328125</LongitudeDegrees>
            </Position>
            <AltitudeMeters>880.79998779296875</AltitudeMeters>
            <DistanceMeters>NAN</DistanceMeters>
          </Trackpoint>
          <Trackpoint>
            <Time>2022-06-16T13:59:32.000Z</Time>
            <Position>
              <LatitudeDegrees>36.8539161421358585357666015625</LatitudeDegrees>
              <LongitudeDegrees>-4.37242515385150909423828125</LongitudeDegrees>
            </Position>
            <AltitudeMeters>880.20001220703125</AltitudeMeters>
            <DistanceMeters>NAN</DistanceMeters>
          </Trackpoint>
          <Trackpoint>
            <Time>2022-06-16T13:59:42.000Z</Time>
            <Position>
              <LatitudeDegrees>36.85397791676223278045654296875</LatitudeDegrees>
              <LongitudeDegrees>-4.3723146803677082061767578125</LongitudeDegrees>
            </Position>
            <AltitudeMeters>881</AltitudeMeters>
            <DistanceMeters>NAN</DistanceMeters>
          </Trackpoint>
          <Trackpoint>
            <Time>2022-06-16T13:59:52.000Z</Time>
            <Position>
              <LatitudeDegrees>36.8539768271148204803466796875</LatitudeDegrees>
              <LongitudeDegrees>-4.3722729384899139404296875</LongitudeDegrees>
            </Position>
            <AltitudeMeters>880.5999755859375</AltitudeMeters>
            <DistanceMeters>NAN</DistanceMeters>
          </Trackpoint>
          <Trackpoint>
            <Time>2022-06-16T14:00:02.000Z</Time>
            <Position>
              <LatitudeDegrees>36.8539915792644023895263671875</LatitudeDegrees>
              <LongitudeDegrees>-4.37226799316704273223876953125</LongitudeDegrees>
            </Position>
            <AltitudeMeters>881</AltitudeMeters>
            <DistanceMeters>NAN</DistanceMeters>
          </Trackpoint>
          <Trackpoint>
            <Time>2022-06-16T14:00:12.000Z</Time>
            <Position>
              <LatitudeDegrees>36.85402326285839080810546875</LatitudeDegrees>
              <LongitudeDegrees>-4.37217746861279010772705078125</LongitudeDegrees>
            </Position>
            <AltitudeMeters>880.79998779296875</AltitudeMeters>
            <DistanceMeters>NAN</DistanceMeters>
          </Trackpoint>
          <Trackpoint>
            <Time>2022-06-16T14:00:22.000Z</Time>
            <Position>
              <LatitudeDegrees>36.8540668487548828125</LatitudeDegrees>
              <LongitudeDegrees>-4.3720422685146331787109375</LongitudeDegrees>
            </Position>
            <AltitudeMeters>880.4000244140625</AltitudeMeters>
            <DistanceMeters>NAN</DistanceMeters>
          </Trackpoint>
          <Trackpoint>
            <Time>2022-06-16T14:00:23.000Z</Time>
            <Position>
              <LatitudeDegrees>36.854072548449039459228515625</LatitudeDegrees>
              <LongitudeDegrees>-4.37202860601246356964111328125</LongitudeDegrees>
            </Position>
            <AltitudeMeters>880.4000244140625</AltitudeMeters>
            <DistanceMeters>NAN</DistanceMeters>
          </Trackpoint>
          <Trackpoint>
            <Time>2022-06-16T14:00:25.000Z</Time>
            <Position>
              <LatitudeDegrees>36.8540894798934459686279296875</LatitudeDegrees>
              <LongitudeDegrees>-4.37200429849326610565185546875</LongitudeDegrees>
            </Position>
            <AltitudeMeters>880.5999755859375</AltitudeMeters>
            <DistanceMeters>NAN</DistanceMeters>
          </Trackpoint>
          <Trackpoint>
            <Time>2022-06-16T14:00:26.000Z</Time>
            <Position>
              <LatitudeDegrees>36.85409568250179290771484375</LatitudeDegrees>
              <LongitudeDegrees>-4.371994324028491973876953125</LongitudeDegrees>
            </Position>
            <AltitudeMeters>880.5999755859375</AltitudeMeters>
            <DistanceMeters>NAN</DistanceMeters>
          </Trackpoint>
          <Trackpoint>
            <Time>2022-06-16T14:00:27.000Z</Time>
            <Position>
              <LatitudeDegrees>36.85410448350012302398681640625</LatitudeDegrees>
              <LongitudeDegrees>-4.37197898514568805694580078125</LongitudeDegrees>
            </Position>
            <AltitudeMeters>880.79998779296875</AltitudeMeters>
            <DistanceMeters>NAN</DistanceMeters>
          </Trackpoint>
          <Trackpoint>
            <Time>2022-06-16T14:00:32.000Z</Time>
            <Position>
              <LatitudeDegrees>36.854126192629337310791015625</LatitudeDegrees>
              <LongitudeDegrees>-4.37190991826355457305908203125</LongitudeDegrees>
            </Position>
            <AltitudeMeters>880.5999755859375</AltitudeMeters>
            <DistanceMeters>NAN</DistanceMeters>
          </Trackpoint>
          <Trackpoint>
            <Time>2022-06-16T14:00:40.000Z</Time>
            <Position>
              <LatitudeDegrees>36.8541451357305049896240234375</LatitudeDegrees>
              <LongitudeDegrees>-4.3718147836625576019287109375</LongitudeDegrees>
            </Position>
            <AltitudeMeters>880.5999755859375</AltitudeMeters>
            <DistanceMeters>NAN</DistanceMeters>
          </Trackpoint>
          <Trackpoint>
            <Time>2022-06-16T14:00:42.000Z</Time>
            <Position>
              <LatitudeDegrees>36.8541541881859302520751953125</LatitudeDegrees>
              <LongitudeDegrees>-4.37178553082048892974853515625</LongitudeDegrees>
            </Position>
            <AltitudeMeters>880.79998779296875</AltitudeMeters>
            <DistanceMeters>NAN</DistanceMeters>
          </Trackpoint>
          <Trackpoint>
            <Time>2022-06-16T14:00:52.000Z</Time>
            <Position>
              <LatitudeDegrees>36.8541696108877658843994140625</LatitudeDegrees>
              <LongitudeDegrees>-4.37163918279111385345458984375</LongitudeDegrees>
            </Position>
            <AltitudeMeters>879.5999755859375</AltitudeMeters>
            <DistanceMeters>NAN</DistanceMeters>
          </Trackpoint>
          <Trackpoint>
            <Time>2022-06-16T14:00:55.000Z</Time>
            <Position>
              <LatitudeDegrees>36.85417019762098789215087890625</LatitudeDegrees>
              <LongitudeDegrees>-4.37159794382750988006591796875</LongitudeDegrees>
            </Position>
            <AltitudeMeters>879.4000244140625</AltitudeMeters>
            <DistanceMeters>NAN</DistanceMeters>
          </Trackpoint>
          <Trackpoint>
            <Time>2022-06-16T14:01:02.000Z</Time>
            <Position>
              <LatitudeDegrees>36.85417036525905132293701171875</LatitudeDegrees>
              <LongitudeDegrees>-4.37147070653736591339111328125</LongitudeDegrees>
            </Position>
            <AltitudeMeters>879</AltitudeMeters>
            <DistanceMeters>NAN</DistanceMeters>
          </Trackpoint>
          <Trackpoint>
            <Time>2022-06-16T14:01:10.000Z</Time>
            <Position>
              <LatitudeDegrees>36.85416047461330890655517578125</LatitudeDegrees>
              <LongitudeDegrees>-4.37135159969329833984375</LongitudeDegrees>
            </Position>
            <AltitudeMeters>876.79998779296875</AltitudeMeters>
            <DistanceMeters>NAN</DistanceMeters>
          </Trackpoint>
          <Trackpoint>
            <Time>2022-06-16T14:01:12.000Z</Time>
            <Position>
              <LatitudeDegrees>36.8541558645665645599365234375</LatitudeDegrees>
              <LongitudeDegrees>-4.37131748534739017486572265625</LongitudeDegrees>
            </Position>
            <AltitudeMeters>876.20001220703125</AltitudeMeters>
            <DistanceMeters>NAN</DistanceMeters>
          </Trackpoint>
          <Trackpoint>
            <Time>2022-06-16T14:01:18.000Z</Time>
            <Position>
              <LatitudeDegrees>36.8541290424764156341552734375</LatitudeDegrees>
              <LongitudeDegrees>-4.371236264705657958984375</LongitudeDegrees>
            </Position>
            <AltitudeMeters>874.4000244140625</AltitudeMeters>
            <DistanceMeters>NAN</DistanceMeters>
          </Trackpoint>
          <Trackpoint>
            <Time>2022-06-16T14:01:22.000Z</Time>
            <Position>
              <LatitudeDegrees>36.85411722399294376373291015625</LatitudeDegrees>
              <LongitudeDegrees>-4.37118303962051868438720703125</LongitudeDegrees>
            </Position>
            <AltitudeMeters>873.5999755859375</AltitudeMeters>
            <DistanceMeters>NAN</DistanceMeters>
          </Trackpoint>
          <Trackpoint>
            <Time>2022-06-16T14:01:32.000Z</Time>
            <Position>
              <LatitudeDegrees>36.85408134944736957550048828125</LatitudeDegrees>
              <LongitudeDegrees>-4.37103820033371448516845703125</LongitudeDegrees>
            </Position>
            <AltitudeMeters>872.5999755859375</AltitudeMeters>
            <DistanceMeters>NAN</DistanceMeters>
          </Trackpoint>
          <Trackpoint>
            <Time>2022-06-16T14:01:42.000Z</Time>
            <Position>
              <LatitudeDegrees>36.8540562875568866729736328125</LatitudeDegrees>
              <LongitudeDegrees>-4.37088548205792903900146484375</LongitudeDegrees>
            </Position>
            <AltitudeMeters>873.20001220703125</AltitudeMeters>
            <DistanceMeters>NAN</DistanceMeters>
          </Trackpoint>
          <Trackpoint>
            <Time>2022-06-16T14:01:49.000Z</Time>
            <Position>
              <LatitudeDegrees>36.85402032919228076934814453125</LatitudeDegrees>
              <LongitudeDegrees>-4.37079613097012042999267578125</LongitudeDegrees>
            </Position>
            <AltitudeMeters>872.5999755859375</AltitudeMeters>
            <DistanceMeters>NAN</DistanceMeters>
          </Trackpoint>
          <Trackpoint>
            <Time>2022-06-16T14:01:52.000Z</Time>
            <Position>
              <LatitudeDegrees>36.854012198746204376220703125</LatitudeDegrees>
              <LongitudeDegrees>-4.3707566522061824798583984375</LongitudeDegrees>
            </Position>
            <AltitudeMeters>872.5999755859375</AltitudeMeters>
            <DistanceMeters>NAN</DistanceMeters>
          </Trackpoint>
          <Trackpoint>
            <Time>2022-06-16T14:01:53.000Z</Time>
            <Position>
              <LatitudeDegrees>36.8540064990520477294921875</LatitudeDegrees>
              <LongitudeDegrees>-4.370739050209522247314453125</LongitudeDegrees>
            </Position>
            <AltitudeMeters>872.5999755859375</AltitudeMeters>
            <DistanceMeters>NAN</DistanceMeters>
          </Trackpoint>
          <Trackpoint>
            <Time>2022-06-16T14:02:02.000Z</Time>
            <Position>
              <LatitudeDegrees>36.85395042411983013153076171875</LatitudeDegrees>
              <LongitudeDegrees>-4.37060016207396984100341796875</LongitudeDegrees>
            </Position>
            <AltitudeMeters>871.79998779296875</AltitudeMeters>
            <DistanceMeters>NAN</DistanceMeters>
          </Trackpoint>
          <Trackpoint>
            <Time>2022-06-16T14:02:12.000Z</Time>
            <Position>
              <LatitudeDegrees>36.85386576689779758453369140625</LatitudeDegrees>
              <LongitudeDegrees>-4.37044568359851837158203125</LongitudeDegrees>
            </Position>
            <AltitudeMeters>870.79998779296875</AltitudeMeters>
            <DistanceMeters>NAN</DistanceMeters>
          </Trackpoint>
          <Trackpoint>
            <Time>2022-06-16T14:02:22.000Z</Time>
            <Position>
              <LatitudeDegrees>36.85379661619663238525390625</LatitudeDegrees>
              <LongitudeDegrees>-4.37029003165662288665771484375</LongitudeDegrees>
            </Position>
            <AltitudeMeters>870.5999755859375</AltitudeMeters>
            <DistanceMeters>NAN</DistanceMeters>
          </Trackpoint>
          <Trackpoint>
            <Time>2022-06-16T14:02:31.000Z</Time>
            <Position>
              <LatitudeDegrees>36.8537436425685882568359375</LatitudeDegrees>
              <LongitudeDegrees>-4.37017209827899932861328125</LongitudeDegrees>
            </Position>
            <AltitudeMeters>870.20001220703125</AltitudeMeters>
            <DistanceMeters>NAN</DistanceMeters>
          </Trackpoint>
          <Trackpoint>
            <Time>2022-06-16T14:02:32.000Z</Time>
            <Position>
              <LatitudeDegrees>36.85373760759830474853515625</LatitudeDegrees>
              <LongitudeDegrees>-4.3701595254242420196533203125</LongitudeDegrees>
            </Position>
            <AltitudeMeters>870.20001220703125</AltitudeMeters>
            <DistanceMeters>NAN</DistanceMeters>
          </Trackpoint>
          <Trackpoint>
            <Time>2022-06-16T14:02:33.000Z</Time>
            <Position>
              <LatitudeDegrees>36.8537320755422115325927734375</LatitudeDegrees>
              <LongitudeDegrees>-4.37014670111238956451416015625</LongitudeDegrees>
            </Position>
            <AltitudeMeters>870.20001220703125</AltitudeMeters>
            <DistanceMeters>NAN</DistanceMeters>
          </Trackpoint>
          <Trackpoint>
            <Time>2022-06-16T14:02:37.000Z</Time>
            <Position>
              <LatitudeDegrees>36.85371086932718753814697265625</LatitudeDegrees>
              <LongitudeDegrees>-4.37009791843593120574951171875</LongitudeDegrees>
            </Position>
            <AltitudeMeters>870.5999755859375</AltitudeMeters>
            <DistanceMeters>NAN</DistanceMeters>
          </Trackpoint>
          <Trackpoint>
            <Time>2022-06-16T14:02:41.000Z</Time>
            <Position>
              <LatitudeDegrees>36.8536864779889583587646484375</LatitudeDegrees>
              <LongitudeDegrees>-4.37004963867366313934326171875</LongitudeDegrees>
            </Position>
            <AltitudeMeters>870.5999755859375</AltitudeMeters>
            <DistanceMeters>NAN</DistanceMeters>
          </Trackpoint>
          <Trackpoint>
            <Time>2022-06-16T14:02:42.000Z</Time>
            <Position>
              <LatitudeDegrees>36.8536807782948017120361328125</LatitudeDegrees>
              <LongitudeDegrees>-4.3700359761714935302734375</LongitudeDegrees>
            </Position>
            <AltitudeMeters>870.79998779296875</AltitudeMeters>
            <DistanceMeters>NAN</DistanceMeters>
          </Trackpoint>
          <Trackpoint>
            <Time>2022-06-16T14:02:52.000Z</Time>
            <Position>
              <LatitudeDegrees>36.85362738557159900665283203125</LatitudeDegrees>
              <LongitudeDegrees>-4.36990228481590747833251953125</LongitudeDegrees>
            </Position>
            <AltitudeMeters>871.5999755859375</AltitudeMeters>
            <DistanceMeters>NAN</DistanceMeters>
          </Trackpoint>
          <Trackpoint>
            <Time>2022-06-16T14:03:02.000Z</Time>
            <Position>
              <LatitudeDegrees>36.85354440473020076751708984375</LatitudeDegrees>
              <LongitudeDegrees>-4.36976498924195766448974609375</LongitudeDegrees>
            </Position>
            <AltitudeMeters>871.79998779296875</AltitudeMeters>
            <DistanceMeters>NAN</DistanceMeters>
          </Trackpoint>
          <Trackpoint>
            <Time>2022-06-16T14:03:12.000Z</Time>
            <Position>
              <LatitudeDegrees>36.85350987128913402557373046875</LatitudeDegrees>
              <LongitudeDegrees>-4.36966071836650371551513671875</LongitudeDegrees>
            </Position>
            <AltitudeMeters>873.79998779296875</AltitudeMeters>
            <DistanceMeters>NAN</DistanceMeters>
          </Trackpoint>
          <Trackpoint>
            <Time>2022-06-16T14:03:22.000Z</Time>
            <Position>
              <LatitudeDegrees>36.85348556376993656158447265625</LatitudeDegrees>
              <LongitudeDegrees>-4.3695043958723545074462890625</LongitudeDegrees>
            </Position>
            <AltitudeMeters>876.4000244140625</AltitudeMeters>
            <DistanceMeters>NAN</DistanceMeters>
          </Trackpoint>
          <Trackpoint>
            <Time>2022-06-16T14:03:32.000Z</Time>
            <Position>
              <LatitudeDegrees>36.8534373678267002105712890625</LatitudeDegrees>
              <LongitudeDegrees>-4.36931722797453403472900390625</LongitudeDegrees>
            </Position>
            <AltitudeMeters>878.79998779296875</AltitudeMeters>
            <DistanceMeters>NAN</DistanceMeters>
          </Trackpoint>
          <Trackpoint>
            <Time>2022-06-16T14:03:42.000Z</Time>
            <Position>
              <LatitudeDegrees>36.8533729948103427886962890625</LatitudeDegrees>
              <LongitudeDegrees>-4.36915545724332332611083984375</LongitudeDegrees>
            </Position>
            <AltitudeMeters>880.4000244140625</AltitudeMeters>
            <DistanceMeters>NAN</DistanceMeters>
          </Trackpoint>
          <Trackpoint>
            <Time>2022-06-16T14:03:52.000Z</Time>
            <Position>
              <LatitudeDegrees>36.85330719687044620513916015625</LatitudeDegrees>
              <LongitudeDegrees>-4.36905152164399623870849609375</LongitudeDegrees>
            </Position>
            <AltitudeMeters>880.20001220703125</AltitudeMeters>
            <DistanceMeters>NAN</DistanceMeters>
          </Trackpoint>
          <Trackpoint>
            <Time>2022-06-16T14:04:02.000Z</Time>
            <Position>
              <LatitudeDegrees>36.85319957323372364044189453125</LatitudeDegrees>
              <LongitudeDegrees>-4.36896837316453456878662109375</LongitudeDegrees>
            </Position>
            <AltitudeMeters>880</AltitudeMeters>
            <DistanceMeters>NAN</DistanceMeters>
          </Trackpoint>
          <Trackpoint>
            <Time>2022-06-16T14:04:12.000Z</Time>
            <Position>
              <LatitudeDegrees>36.85307065956294536590576171875</LatitudeDegrees>
              <LongitudeDegrees>-4.36890919692814350128173828125</LongitudeDegrees>
            </Position>
            <AltitudeMeters>879</AltitudeMeters>
            <DistanceMeters>NAN</DistanceMeters>
          </Trackpoint>
          <Trackpoint>
            <Time>2022-06-16T14:04:21.000Z</Time>
            <Position>
              <LatitudeDegrees>36.852949373424053192138671875</LatitudeDegrees>
              <LongitudeDegrees>-4.36890433542430400848388671875</LongitudeDegrees>
            </Position>
            <AltitudeMeters>877.5999755859375</AltitudeMeters>
            <DistanceMeters>NAN</DistanceMeters>
          </Trackpoint>
          <Trackpoint>
            <Time>2022-06-16T14:04:22.000Z</Time>
            <Position>
              <LatitudeDegrees>36.8529341183602809906005859375</LatitudeDegrees>
              <LongitudeDegrees>-4.368909113109111785888671875</LongitudeDegrees>
            </Position>
            <AltitudeMeters>877.4000244140625</AltitudeMeters>
            <DistanceMeters>NAN</DistanceMeters>
          </Trackpoint>
          <Trackpoint>
            <Time>2022-06-16T14:04:32.000Z</Time>
            <Position>
              <LatitudeDegrees>36.8527862615883350372314453125</LatitudeDegrees>
              <LongitudeDegrees>-4.3688760884106159210205078125</LongitudeDegrees>
            </Position>
            <AltitudeMeters>875.79998779296875</AltitudeMeters>
            <DistanceMeters>NAN</DistanceMeters>
          </Trackpoint>
          <Trackpoint>
            <Time>2022-06-16T14:04:42.000Z</Time>
            <Position>
              <LatitudeDegrees>36.85264804400503635406494140625</LatitudeDegrees>
              <LongitudeDegrees>-4.36882286332547664642333984375</LongitudeDegrees>
            </Position>
            <AltitudeMeters>874.4000244140625</AltitudeMeters>
            <DistanceMeters>NAN</DistanceMeters>
          </Trackpoint>
          <Trackpoint>
            <Time>2022-06-16T14:04:52.000Z</Time>
            <Position>
              <LatitudeDegrees>36.85252885334193706512451171875</LatitudeDegrees>
              <LongitudeDegrees>-4.3687413074076175689697265625</LongitudeDegrees>
            </Position>
            <AltitudeMeters>872.4000244140625</AltitudeMeters>
            <DistanceMeters>NAN</DistanceMeters>
          </Trackpoint>
          <Trackpoint>
            <Time>2022-06-16T14:05:01.000Z</Time>
            <Position>
              <LatitudeDegrees>36.852435059845447540283203125</LatitudeDegrees>
              <LongitudeDegrees>-4.368663020431995391845703125</LongitudeDegrees>
            </Position>
            <AltitudeMeters>871</AltitudeMeters>
            <DistanceMeters>NAN</DistanceMeters>
          </Trackpoint>
          <Trackpoint>
            <Time>2022-06-16T14:05:02.000Z</Time>
            <Position>
              <LatitudeDegrees>36.85242558829486370086669921875</LatitudeDegrees>
              <LongitudeDegrees>-4.368647597730159759521484375</LongitudeDegrees>
            </Position>
            <AltitudeMeters>870.79998779296875</AltitudeMeters>
            <DistanceMeters>NAN</DistanceMeters>
          </Trackpoint>
          <Trackpoint>
            <Time>2022-06-16T14:05:07.000Z</Time>
            <Position>
              <LatitudeDegrees>36.8523792363703250885009765625</LatitudeDegrees>
              <LongitudeDegrees>-4.36857643537223339080810546875</LongitudeDegrees>
            </Position>
            <AltitudeMeters>870.5999755859375</AltitudeMeters>
            <DistanceMeters>NAN</DistanceMeters>
          </Trackpoint>
          <Trackpoint>
            <Time>2022-06-16T14:05:08.000Z</Time>
            <Position>
              <LatitudeDegrees>36.8523735366761684417724609375</LatitudeDegrees>
              <LongitudeDegrees>-4.3685622699558734893798828125</LongitudeDegrees>
            </Position>
            <AltitudeMeters>870.5999755859375</AltitudeMeters>
            <DistanceMeters>NAN</DistanceMeters>
          </Trackpoint>
          <Trackpoint>
            <Time>2022-06-16T14:05:12.000Z</Time>
            <Position>
              <LatitudeDegrees>36.852342188358306884765625</LatitudeDegrees>
              <LongitudeDegrees>-4.3685149960219860076904296875</LongitudeDegrees>
            </Position>
            <AltitudeMeters>870.20001220703125</AltitudeMeters>
            <DistanceMeters>NAN</DistanceMeters>
          </Trackpoint>
          <Trackpoint>
            <Time>2022-06-16T14:05:22.000Z</Time>
            <Position>
              <LatitudeDegrees>36.8522823415696620941162109375</LatitudeDegrees>
              <LongitudeDegrees>-4.368362613022327423095703125</LongitudeDegrees>
            </Position>
            <AltitudeMeters>868.79998779296875</AltitudeMeters>
            <DistanceMeters>NAN</DistanceMeters>
          </Trackpoint>
          <Trackpoint>
            <Time>2022-06-16T14:05:32.000Z</Time>
            <Position>
              <LatitudeDegrees>36.85223096050322055816650390625</LatitudeDegrees>
              <LongitudeDegrees>-4.36823956668376922607421875</LongitudeDegrees>
            </Position>
            <AltitudeMeters>868</AltitudeMeters>
            <DistanceMeters>NAN</DistanceMeters>
          </Trackpoint>
          <Trackpoint>
            <Time>2022-06-16T14:05:42.000Z</Time>
            <Position>
              <LatitudeDegrees>36.85215233825147151947021484375</LatitudeDegrees>
              <LongitudeDegrees>-4.3680905364453792572021484375</LongitudeDegrees>
            </Position>
            <AltitudeMeters>866.79998779296875</AltitudeMeters>
            <DistanceMeters>NAN</DistanceMeters>
          </Trackpoint>
          <Trackpoint>
            <Time>2022-06-16T14:05:52.000Z</Time>
            <Position>
              <LatitudeDegrees>36.85209115035831928253173828125</LatitudeDegrees>
              <LongitudeDegrees>-4.36792214401066303253173828125</LongitudeDegrees>
            </Position>
            <AltitudeMeters>866.4000244140625</AltitudeMeters>
            <DistanceMeters>NAN</DistanceMeters>
          </Trackpoint>
          <Trackpoint>
            <Time>2022-06-16T14:06:01.000Z</Time>
            <Position>
              <LatitudeDegrees>36.85207572765648365020751953125</LatitudeDegrees>
              <LongitudeDegrees>-4.367833547294139862060546875</LongitudeDegrees>
            </Position>
            <AltitudeMeters>866.79998779296875</AltitudeMeters>
            <DistanceMeters>NAN</DistanceMeters>
          </Trackpoint>
          <Trackpoint>
            <Time>2022-06-16T14:06:02.000Z</Time>
            <Position>
              <LatitudeDegrees>36.852071285247802734375</LatitudeDegrees>
              <LongitudeDegrees>-4.36781770549714565277099609375</LongitudeDegrees>
            </Position>
            <AltitudeMeters>866.79998779296875</AltitudeMeters>
            <DistanceMeters>NAN</DistanceMeters>
          </Trackpoint>
          <Trackpoint>
            <Time>2022-06-16T14:06:12.000Z</Time>
            <Position>
              <LatitudeDegrees>36.85201453976333141326904296875</LatitudeDegrees>
              <LongitudeDegrees>-4.36765509657561779022216796875</LongitudeDegrees>
            </Position>
            <AltitudeMeters>865.5999755859375</AltitudeMeters>
            <DistanceMeters>NAN</DistanceMeters>
          </Trackpoint>
          <Trackpoint>
            <Time>2022-06-16T14:06:22.000Z</Time>
            <Position>
              <LatitudeDegrees>36.8519304692745208740234375</LatitudeDegrees>
              <LongitudeDegrees>-4.36755736358463764190673828125</LongitudeDegrees>
            </Position>
            <AltitudeMeters>862.5999755859375</AltitudeMeters>
            <DistanceMeters>NAN</DistanceMeters>
          </Trackpoint>
          <Trackpoint>
            <Time>2022-06-16T14:06:32.000Z</Time>
            <Position>
              <LatitudeDegrees>36.85186718590557575225830078125</LatitudeDegrees>
              <LongitudeDegrees>-4.36744538135826587677001953125</LongitudeDegrees>
            </Position>
            <AltitudeMeters>861.79998779296875</AltitudeMeters>
            <DistanceMeters>NAN</DistanceMeters>
          </Trackpoint>
          <Trackpoint>
            <Time>2022-06-16T14:06:41.000Z</Time>
            <Position>
              <LatitudeDegrees>36.85179091058671474456787109375</LatitudeDegrees>
              <LongitudeDegrees>-4.36734664253890514373779296875</LongitudeDegrees>
            </Position>
            <AltitudeMeters>862.5999755859375</AltitudeMeters>
            <DistanceMeters>NAN</DistanceMeters>
          </Trackpoint>
          <Trackpoint>
            <Time>2022-06-16T14:06:42.000Z</Time>
            <Position>
              <LatitudeDegrees>36.85178906656801700592041015625</LatitudeDegrees>
              <LongitudeDegrees>-4.36733205802738666534423828125</LongitudeDegrees>
            </Position>
            <AltitudeMeters>863</AltitudeMeters>
            <DistanceMeters>NAN</DistanceMeters>
          </Trackpoint>
          <Trackpoint>
            <Time>2022-06-16T14:06:43.000Z</Time>
            <Position>
              <LatitudeDegrees>36.85178303159773349761962890625</LatitudeDegrees>
              <LongitudeDegrees>-4.36731395311653614044189453125</LongitudeDegrees>
            </Position>
            <AltitudeMeters>863.4000244140625</AltitudeMeters>
            <DistanceMeters>NAN</DistanceMeters>
          </Trackpoint>
          <Trackpoint>
            <Time>2022-06-16T14:06:52.000Z</Time>
            <Position>
              <LatitudeDegrees>36.85172167606651782989501953125</LatitudeDegrees>
              <LongitudeDegrees>-4.367198534309864044189453125</LongitudeDegrees>
            </Position>
            <AltitudeMeters>865.20001220703125</AltitudeMeters>
            <DistanceMeters>NAN</DistanceMeters>
          </Trackpoint>
          <Trackpoint>
            <Time>2022-06-16T14:07:02.000Z</Time>
            <Position>
              <LatitudeDegrees>36.85166752897202968597412109375</LatitudeDegrees>
              <LongitudeDegrees>-4.36708378605544567108154296875</LongitudeDegrees>
            </Position>
            <AltitudeMeters>867.20001220703125</AltitudeMeters>
            <DistanceMeters>NAN</DistanceMeters>
          </Trackpoint>
          <Trackpoint>
            <Time>2022-06-16T14:07:11.000Z</Time>
            <Position>
              <LatitudeDegrees>36.8516205064952373504638671875</LatitudeDegrees>
              <LongitudeDegrees>-4.36694297008216381072998046875</LongitudeDegrees>
            </Position>
            <AltitudeMeters>869.4000244140625</AltitudeMeters>
            <DistanceMeters>NAN</DistanceMeters>
          </Trackpoint>
          <Trackpoint>
            <Time>2022-06-16T14:07:12.000Z</Time>
            <Position>
              <LatitudeDegrees>36.851614974439144134521484375</LatitudeDegrees>
              <LongitudeDegrees>-4.36692452989518642425537109375</LongitudeDegrees>
            </Position>
            <AltitudeMeters>869.5999755859375</AltitudeMeters>
            <DistanceMeters>NAN</DistanceMeters>
          </Trackpoint>
          <Trackpoint>
            <Time>2022-06-16T14:07:18.000Z</Time>
            <Position>
              <LatitudeDegrees>36.85159376822412014007568359375</LatitudeDegrees>
              <LongitudeDegrees>-4.3668496794998645782470703125</LongitudeDegrees>
            </Position>
            <AltitudeMeters>871</AltitudeMeters>
            <DistanceMeters>NAN</DistanceMeters>
          </Trackpoint>
          <Trackpoint>
            <Time>2022-06-16T14:07:22.000Z</Time>
            <Position>
              <LatitudeDegrees>36.85158471576869487762451171875</LatitudeDegrees>
              <LongitudeDegrees>-4.366804920136928558349609375</LongitudeDegrees>
            </Position>
            <AltitudeMeters>871.79998779296875</AltitudeMeters>
            <DistanceMeters>NAN</DistanceMeters>
          </Trackpoint>
          <Trackpoint>
            <Time>2022-06-16T14:07:25.000Z</Time>
            <Position>
              <LatitudeDegrees>36.8515635095536708831787109375</LatitudeDegrees>
              <LongitudeDegrees>-4.36675571836531162261962890625</LongitudeDegrees>
            </Position>
            <AltitudeMeters>872.20001220703125</AltitudeMeters>
            <DistanceMeters>NAN</DistanceMeters>
          </Trackpoint>
          <Trackpoint>
            <Time>2022-06-16T14:07:32.000Z</Time>
            <Position>
              <LatitudeDegrees>36.8515276350080966949462890625</LatitudeDegrees>
              <LongitudeDegrees>-4.366660751402378082275390625</LongitudeDegrees>
            </Position>
            <AltitudeMeters>873</AltitudeMeters>
            <DistanceMeters>NAN</DistanceMeters>
          </Trackpoint>
          <Trackpoint>
            <Time>2022-06-16T14:07:36.000Z</Time>
            <Position>
              <LatitudeDegrees>36.85151229612529277801513671875</LatitudeDegrees>
              <LongitudeDegrees>-4.36660735867917537689208984375</LongitudeDegrees>
            </Position>
            <AltitudeMeters>873.5999755859375</AltitudeMeters>
            <DistanceMeters>NAN</DistanceMeters>
          </Trackpoint>
          <Trackpoint>
            <Time>2022-06-16T14:07:42.000Z</Time>
            <Position>
              <LatitudeDegrees>36.85149385593831539154052734375</LatitudeDegrees>
              <LongitudeDegrees>-4.3665303289890289306640625</LongitudeDegrees>
            </Position>
            <AltitudeMeters>874.79998779296875</AltitudeMeters>
            <DistanceMeters>NAN</DistanceMeters>
          </Trackpoint>
          <Trackpoint>
            <Time>2022-06-16T14:07:47.000Z</Time>
            <Position>
              <LatitudeDegrees>36.85147508047521114349365234375</LatitudeDegrees>
              <LongitudeDegrees>-4.3664621002972126007080078125</LongitudeDegrees>
            </Position>
            <AltitudeMeters>875.5999755859375</AltitudeMeters>
            <DistanceMeters>NAN</DistanceMeters>
          </Trackpoint>
          <Trackpoint>
            <Time>2022-06-16T14:07:50.000Z</Time>
            <Position>
              <LatitudeDegrees>36.8514568917453289031982421875</LatitudeDegrees>
              <LongitudeDegrees>-4.36641633510589599609375</LongitudeDegrees>
            </Position>
            <AltitudeMeters>875.5999755859375</AltitudeMeters>
            <DistanceMeters>NAN</DistanceMeters>
          </Trackpoint>
          <Trackpoint>
            <Time>2022-06-16T14:07:52.000Z</Time>
            <Position>
              <LatitudeDegrees>36.85145479626953601837158203125</LatitudeDegrees>
              <LongitudeDegrees>-4.3663843162357807159423828125</LongitudeDegrees>
            </Position>
            <AltitudeMeters>876.4000244140625</AltitudeMeters>
            <DistanceMeters>NAN</DistanceMeters>
          </Trackpoint>
          <Trackpoint>
            <Time>2022-06-16T14:08:02.000Z</Time>
            <Position>
              <LatitudeDegrees>36.8514320813119411468505859375</LatitudeDegrees>
              <LongitudeDegrees>-4.3662237189710140228271484375</LongitudeDegrees>
            </Position>
            <AltitudeMeters>878.4000244140625</AltitudeMeters>
            <DistanceMeters>NAN</DistanceMeters>
          </Trackpoint>
          <Trackpoint>
            <Time>2022-06-16T14:08:03.000Z</Time>
            <Position>
              <LatitudeDegrees>36.8514263816177845001220703125</LatitudeDegrees>
              <LongitudeDegrees>-4.36621240340173244476318359375</LongitudeDegrees>
            </Position>
            <AltitudeMeters>878.4000244140625</AltitudeMeters>
            <DistanceMeters>NAN</DistanceMeters>
          </Trackpoint>
          <Trackpoint>
            <Time>2022-06-16T14:08:12.000Z</Time>
            <Position>
              <LatitudeDegrees>36.85137030668556690216064453125</LatitudeDegrees>
              <LongitudeDegrees>-4.3660735152661800384521484375</LongitudeDegrees>
            </Position>
            <AltitudeMeters>877.79998779296875</AltitudeMeters>
            <DistanceMeters>NAN</DistanceMeters>
          </Trackpoint>
          <Trackpoint>
            <Time>2022-06-16T14:08:22.000Z</Time>
            <Position>
              <LatitudeDegrees>36.8513296544551849365234375</LatitudeDegrees>
              <LongitudeDegrees>-4.36592389829456806182861328125</LongitudeDegrees>
            </Position>
            <AltitudeMeters>877</AltitudeMeters>
            <DistanceMeters>NAN</DistanceMeters>
          </Trackpoint>
          <Trackpoint>
            <Time>2022-06-16T14:08:24.000Z</Time>
            <Position>
              <LatitudeDegrees>36.8513247929513454437255859375</LatitudeDegrees>
              <LongitudeDegrees>-4.36589674092829227447509765625</LongitudeDegrees>
            </Position>
            <AltitudeMeters>877.4000244140625</AltitudeMeters>
            <DistanceMeters>NAN</DistanceMeters>
          </Trackpoint>
          <Trackpoint>
            <Time>2022-06-16T14:08:26.000Z</Time>
            <Position>
              <LatitudeDegrees>36.85131766833364963531494140625</LatitudeDegrees>
              <LongitudeDegrees>-4.36587343923747539520263671875</LongitudeDegrees>
            </Position>
            <AltitudeMeters>877.79998779296875</AltitudeMeters>
            <DistanceMeters>NAN</DistanceMeters>
          </Trackpoint>
          <Trackpoint>
            <Time>2022-06-16T14:08:29.000Z</Time>
            <Position>
              <LatitudeDegrees>36.851316578686237335205078125</LatitudeDegrees>
              <LongitudeDegrees>-4.36583387665450572967529296875</LongitudeDegrees>
            </Position>
            <AltitudeMeters>878.79998779296875</AltitudeMeters>
            <DistanceMeters>NAN</DistanceMeters>
          </Trackpoint>
          <Trackpoint>
            <Time>2022-06-16T14:08:32.000Z</Time>
            <Position>
              <LatitudeDegrees>36.85130274854600429534912109375</LatitudeDegrees>
              <LongitudeDegrees>-4.36579213477671146392822265625</LongitudeDegrees>
            </Position>
            <AltitudeMeters>879.20001220703125</AltitudeMeters>
            <DistanceMeters>NAN</DistanceMeters>
          </Trackpoint>
          <Trackpoint>
            <Time>2022-06-16T14:08:42.000Z</Time>
            <Position>
              <LatitudeDegrees>36.851222701370716094970703125</LatitudeDegrees>
              <LongitudeDegrees>-4.36566808260977268218994140625</LongitudeDegrees>
            </Position>
            <AltitudeMeters>879.4000244140625</AltitudeMeters>
            <DistanceMeters>NAN</DistanceMeters>
          </Trackpoint>
          <Trackpoint>
            <Time>2022-06-16T14:08:52.000Z</Time>
            <Position>
              <LatitudeDegrees>36.85116595588624477386474609375</LatitudeDegrees>
              <LongitudeDegrees>-4.365534223616123199462890625</LongitudeDegrees>
            </Position>
            <AltitudeMeters>882</AltitudeMeters>
            <DistanceMeters>NAN</DistanceMeters>
          </Trackpoint>
          <Trackpoint>
            <Time>2022-06-16T14:09:02.000Z</Time>
            <Position>
              <LatitudeDegrees>36.85111382044851779937744140625</LatitudeDegrees>
              <LongitudeDegrees>-4.36541126109659671783447265625</LongitudeDegrees>
            </Position>
            <AltitudeMeters>883.5999755859375</AltitudeMeters>
            <DistanceMeters>NAN</DistanceMeters>
          </Trackpoint>
          <Trackpoint>
            <Time>2022-06-16T14:09:04.000Z</Time>
            <Position>
              <LatitudeDegrees>36.8511018343269824981689453125</LatitudeDegrees>
              <LongitudeDegrees>-4.36538569629192352294921875</LongitudeDegrees>
            </Position>
            <AltitudeMeters>883.79998779296875</AltitudeMeters>
            <DistanceMeters>NAN</DistanceMeters>
          </Trackpoint>
          <Trackpoint>
            <Time>2022-06-16T14:09:12.000Z</Time>
            <Position>
              <LatitudeDegrees>36.8510344438254833221435546875</LatitudeDegrees>
              <LongitudeDegrees>-4.36530564911663532257080078125</LongitudeDegrees>
            </Position>
            <AltitudeMeters>884.79998779296875</AltitudeMeters>
            <DistanceMeters>NAN</DistanceMeters>
          </Trackpoint>
          <Trackpoint>
            <Time>2022-06-16T14:09:22.000Z</Time>
            <Position>
              <LatitudeDegrees>36.850942075252532958984375</LatitudeDegrees>
              <LongitudeDegrees>-4.36524043790996074676513671875</LongitudeDegrees>
            </Position>
            <AltitudeMeters>885.20001220703125</AltitudeMeters>
            <DistanceMeters>NAN</DistanceMeters>
          </Trackpoint>
          <Trackpoint>
            <Time>2022-06-16T14:09:32.000Z</Time>
            <Position>
              <LatitudeDegrees>36.850850544869899749755859375</LatitudeDegrees>
              <LongitudeDegrees>-4.3651919066905975341796875</LongitudeDegrees>
            </Position>
            <AltitudeMeters>883.5999755859375</AltitudeMeters>
            <DistanceMeters>NAN</DistanceMeters>
          </Trackpoint>
          <Trackpoint>
            <Time>2022-06-16T14:09:42.000Z</Time>
            <Position>
              <LatitudeDegrees>36.85077619738876819610595703125</LatitudeDegrees>
              <LongitudeDegrees>-4.36517623253166675567626953125</LongitudeDegrees>
            </Position>
            <AltitudeMeters>881.79998779296875</AltitudeMeters>
            <DistanceMeters>NAN</DistanceMeters>
          </Trackpoint>
          <Trackpoint>
            <Time>2022-06-16T14:09:45.000Z</Time>
            <Position>
              <LatitudeDegrees>36.850736550986766815185546875</LatitudeDegrees>
              <LongitudeDegrees>-4.36517740599811077117919921875</LongitudeDegrees>
            </Position>
            <AltitudeMeters>880.79998779296875</AltitudeMeters>
            <DistanceMeters>NAN</DistanceMeters>
          </Trackpoint>
          <Trackpoint>
            <Time>2022-06-16T14:09:52.000Z</Time>
            <Position>
              <LatitudeDegrees>36.8506639637053012847900390625</LatitudeDegrees>
              <LongitudeDegrees>-4.3651732988655567169189453125</LongitudeDegrees>
            </Position>
            <AltitudeMeters>880.20001220703125</AltitudeMeters>
            <DistanceMeters>NAN</DistanceMeters>
          </Trackpoint>
          <Trackpoint>
            <Time>2022-06-16T14:10:02.000Z</Time>
            <Position>
              <LatitudeDegrees>36.8505684100091457366943359375</LatitudeDegrees>
              <LongitudeDegrees>-4.36515393666923046112060546875</LongitudeDegrees>
            </Position>
            <AltitudeMeters>879.79998779296875</AltitudeMeters>
            <DistanceMeters>NAN</DistanceMeters>
          </Trackpoint>
          <Trackpoint>
            <Time>2022-06-16T14:10:12.000Z</Time>
            <Position>
              <LatitudeDegrees>36.8504681624472141265869140625</LatitudeDegrees>
              <LongitudeDegrees>-4.36509408988058567047119140625</LongitudeDegrees>
            </Position>
            <AltitudeMeters>881</AltitudeMeters>
            <DistanceMeters>NAN</DistanceMeters>
          </Trackpoint>
          <Trackpoint>
            <Time>2022-06-16T14:10:22.000Z</Time>
            <Position>
              <LatitudeDegrees>36.85031619854271411895751953125</LatitudeDegrees>
              <LongitudeDegrees>-4.36506626196205615997314453125</LongitudeDegrees>
            </Position>
            <AltitudeMeters>881</AltitudeMeters>
            <DistanceMeters>NAN</DistanceMeters>
          </Trackpoint>
          <Trackpoint>
            <Time>2022-06-16T14:10:32.000Z</Time>
            <Position>
              <LatitudeDegrees>36.85016649775207042694091796875</LatitudeDegrees>
              <LongitudeDegrees>-4.36501085758209228515625</LongitudeDegrees>
            </Position>
            <AltitudeMeters>883</AltitudeMeters>
            <DistanceMeters>NAN</DistanceMeters>
          </Trackpoint>
          <Trackpoint>
            <Time>2022-06-16T14:10:42.000Z</Time>
            <Position>
              <LatitudeDegrees>36.85004479251801967620849609375</LatitudeDegrees>
              <LongitudeDegrees>-4.3649479933083057403564453125</LongitudeDegrees>
            </Position>
            <AltitudeMeters>885.5999755859375</AltitudeMeters>
            <DistanceMeters>NAN</DistanceMeters>
          </Trackpoint>
          <Trackpoint>
            <Time>2022-06-16T14:10:52.000Z</Time>
            <Position>
              <LatitudeDegrees>36.84992157854139804840087890625</LatitudeDegrees>
              <LongitudeDegrees>-4.36488655395805835723876953125</LongitudeDegrees>
            </Position>
            <AltitudeMeters>887.20001220703125</AltitudeMeters>
            <DistanceMeters>NAN</DistanceMeters>
          </Trackpoint>
          <Trackpoint>
            <Time>2022-06-16T14:11:02.000Z</Time>
            <Position>
              <LatitudeDegrees>36.84980683028697967529296875</LatitudeDegrees>
              <LongitudeDegrees>-4.3648752383887767791748046875</LongitudeDegrees>
            </Position>
            <AltitudeMeters>888</AltitudeMeters>
            <DistanceMeters>NAN</DistanceMeters>
          </Trackpoint>
          <Trackpoint>
            <Time>2022-06-16T14:11:12.000Z</Time>
            <Position>
              <LatitudeDegrees>36.84970918111503124237060546875</LatitudeDegrees>
              <LongitudeDegrees>-4.3648001365363597869873046875</LongitudeDegrees>
            </Position>
            <AltitudeMeters>890</AltitudeMeters>
            <DistanceMeters>NAN</DistanceMeters>
          </Trackpoint>
          <Trackpoint>
            <Time>2022-06-16T14:11:22.000Z</Time>
            <Position>
              <LatitudeDegrees>36.84960558079183101654052734375</LatitudeDegrees>
              <LongitudeDegrees>-4.36474154703319072723388671875</LongitudeDegrees>
            </Position>
            <AltitudeMeters>890.4000244140625</AltitudeMeters>
            <DistanceMeters>NAN</DistanceMeters>
          </Trackpoint>
          <Trackpoint>
            <Time>2022-06-16T14:11:32.000Z</Time>
            <Position>
              <LatitudeDegrees>36.84952008537948131561279296875</LatitudeDegrees>
              <LongitudeDegrees>-4.364691339433193206787109375</LongitudeDegrees>
            </Position>
            <AltitudeMeters>891.20001220703125</AltitudeMeters>
            <DistanceMeters>NAN</DistanceMeters>
          </Trackpoint>
          <Trackpoint>
            <Time>2022-06-16T14:11:42.000Z</Time>
            <Position>
              <LatitudeDegrees>36.849419586360454559326171875</LatitudeDegrees>
              <LongitudeDegrees>-4.36468522064387798309326171875</LongitudeDegrees>
            </Position>
            <AltitudeMeters>892.79998779296875</AltitudeMeters>
            <DistanceMeters>NAN</DistanceMeters>
          </Trackpoint>
          <Trackpoint>
            <Time>2022-06-16T14:11:49.000Z</Time>
            <Position>
              <LatitudeDegrees>36.84933878481388092041015625</LatitudeDegrees>
              <LongitudeDegrees>-4.36468471772968769073486328125</LongitudeDegrees>
            </Position>
            <AltitudeMeters>894</AltitudeMeters>
            <DistanceMeters>NAN</DistanceMeters>
          </Trackpoint>
          <Trackpoint>
            <Time>2022-06-16T14:11:52.000Z</Time>
            <Position>
              <LatitudeDegrees>36.84930902905762195587158203125</LatitudeDegrees>
              <LongitudeDegrees>-4.364675916731357574462890625</LongitudeDegrees>
            </Position>
            <AltitudeMeters>894.4000244140625</AltitudeMeters>
            <DistanceMeters>NAN</DistanceMeters>
          </Trackpoint>
          <Trackpoint>
            <Time>2022-06-16T14:11:57.000Z</Time>
            <Position>
              <LatitudeDegrees>36.8492698855698108673095703125</LatitudeDegrees>
              <LongitudeDegrees>-4.36469041742384433746337890625</LongitudeDegrees>
            </Position>
            <AltitudeMeters>894.79998779296875</AltitudeMeters>
            <DistanceMeters>NAN</DistanceMeters>
          </Trackpoint>
          <Trackpoint>
            <Time>2022-06-16T14:12:02.000Z</Time>
            <Position>
              <LatitudeDegrees>36.84921079315245151519775390625</LatitudeDegrees>
              <LongitudeDegrees>-4.364679269492626190185546875</LongitudeDegrees>
            </Position>
            <AltitudeMeters>895.79998779296875</AltitudeMeters>
            <DistanceMeters>NAN</DistanceMeters>
          </Trackpoint>
          <Trackpoint>
            <Time>2022-06-16T14:12:12.000Z</Time>
            <Position>
              <LatitudeDegrees>36.849127225577831268310546875</LatitudeDegrees>
              <LongitudeDegrees>-4.36463241465389728546142578125</LongitudeDegrees>
            </Position>
            <AltitudeMeters>897.4000244140625</AltitudeMeters>
            <DistanceMeters>NAN</DistanceMeters>
          </Trackpoint>
          <Trackpoint>
            <Time>2022-06-16T14:12:16.000Z</Time>
            <Position>
              <LatitudeDegrees>36.84908774681389331817626953125</LatitudeDegrees>
              <LongitudeDegrees>-4.364604838192462921142578125</LongitudeDegrees>
            </Position>
            <AltitudeMeters>898.20001220703125</AltitudeMeters>
            <DistanceMeters>NAN</DistanceMeters>
          </Trackpoint>
          <Trackpoint>
            <Time>2022-06-16T14:12:22.000Z</Time>
            <Position>
              <LatitudeDegrees>36.8490442447364330291748046875</LatitudeDegrees>
              <LongitudeDegrees>-4.364565946161746978759765625</LongitudeDegrees>
            </Position>
            <AltitudeMeters>899.20001220703125</AltitudeMeters>
            <DistanceMeters>NAN</DistanceMeters>
          </Trackpoint>
          <Trackpoint>
            <Time>2022-06-16T14:12:27.000Z</Time>
            <Position>
              <LatitudeDegrees>36.8490046821534633636474609375</LatitudeDegrees>
              <LongitudeDegrees>-4.36453183181583881378173828125</LongitudeDegrees>
            </Position>
            <AltitudeMeters>900.4000244140625</AltitudeMeters>
            <DistanceMeters>NAN</DistanceMeters>
          </Trackpoint>
          <Trackpoint>
            <Time>2022-06-16T14:12:32.000Z</Time>
            <Position>
              <LatitudeDegrees>36.848968975245952606201171875</LatitudeDegrees>
              <LongitudeDegrees>-4.3644945323467254638671875</LongitudeDegrees>
            </Position>
            <AltitudeMeters>901.20001220703125</AltitudeMeters>
            <DistanceMeters>NAN</DistanceMeters>
          </Trackpoint>
          <Trackpoint>
            <Time>2022-06-16T14:12:42.000Z</Time>
            <Position>
              <LatitudeDegrees>36.8488883413374423980712890625</LatitudeDegrees>
              <LongitudeDegrees>-4.36438179574906826019287109375</LongitudeDegrees>
            </Position>
            <AltitudeMeters>903.20001220703125</AltitudeMeters>
            <DistanceMeters>NAN</DistanceMeters>
          </Trackpoint>
          <Trackpoint>
            <Time>2022-06-16T14:12:52.000Z</Time>
            <Position>
              <LatitudeDegrees>36.84884928166866302490234375</LatitudeDegrees>
              <LongitudeDegrees>-4.3642620183527469635009765625</LongitudeDegrees>
            </Position>
            <AltitudeMeters>904</AltitudeMeters>
            <DistanceMeters>NAN</DistanceMeters>
          </Trackpoint>
          <Trackpoint>
            <Time>2022-06-16T14:12:54.000Z</Time>
            <Position>
              <LatitudeDegrees>36.84883662499487400054931640625</LatitudeDegrees>
              <LongitudeDegrees>-4.364229999482631683349609375</LongitudeDegrees>
            </Position>
            <AltitudeMeters>904.5999755859375</AltitudeMeters>
            <DistanceMeters>NAN</DistanceMeters>
          </Trackpoint>
          <Trackpoint>
            <Time>2022-06-16T14:12:58.000Z</Time>
            <Position>
              <LatitudeDegrees>36.848806701600551605224609375</LatitudeDegrees>
              <LongitudeDegrees>-4.364183060824871063232421875</LongitudeDegrees>
            </Position>
            <AltitudeMeters>905.5999755859375</AltitudeMeters>
            <DistanceMeters>NAN</DistanceMeters>
          </Trackpoint>
          <Trackpoint>
            <Time>2022-06-16T14:13:01.000Z</Time>
            <Position>
              <LatitudeDegrees>36.84878733940422534942626953125</LatitudeDegrees>
              <LongitudeDegrees>-4.36415162868797779083251953125</LongitudeDegrees>
            </Position>
            <AltitudeMeters>906.4000244140625</AltitudeMeters>
            <DistanceMeters>NAN</DistanceMeters>
          </Trackpoint>
          <Trackpoint>
            <Time>2022-06-16T14:13:02.000Z</Time>
            <Position>
              <LatitudeDegrees>36.84878029860556125640869140625</LatitudeDegrees>
              <LongitudeDegrees>-4.3641396425664424896240234375</LongitudeDegrees>
            </Position>
            <AltitudeMeters>906.5999755859375</AltitudeMeters>
            <DistanceMeters>NAN</DistanceMeters>
          </Trackpoint>
          <Trackpoint>
            <Time>2022-06-16T14:13:12.000Z</Time>
            <Position>
              <LatitudeDegrees>36.848691366612911224365234375</LatitudeDegrees>
              <LongitudeDegrees>-4.3640896864235401153564453125</LongitudeDegrees>
            </Position>
            <AltitudeMeters>908</AltitudeMeters>
            <DistanceMeters>NAN</DistanceMeters>
          </Trackpoint>
          <Trackpoint>
            <Time>2022-06-16T14:13:14.000Z</Time>
            <Position>
              <LatitudeDegrees>36.8486754409968852996826171875</LatitudeDegrees>
              <LongitudeDegrees>-4.36407803557813167572021484375</LongitudeDegrees>
            </Position>
            <AltitudeMeters>908.20001220703125</AltitudeMeters>
            <DistanceMeters>NAN</DistanceMeters>
          </Trackpoint>
          <Trackpoint>
            <Time>2022-06-16T14:13:22.000Z</Time>
            <Position>
              <LatitudeDegrees>36.84862607158720493316650390625</LatitudeDegrees>
              <LongitudeDegrees>-4.3640283308923244476318359375</LongitudeDegrees>
            </Position>
            <AltitudeMeters>908.79998779296875</AltitudeMeters>
            <DistanceMeters>NAN</DistanceMeters>
          </Trackpoint>
          <Trackpoint>
            <Time>2022-06-16T14:13:24.000Z</Time>
            <Position>
              <LatitudeDegrees>36.8486077152192592620849609375</LatitudeDegrees>
              <LongitudeDegrees>-4.364020116627216339111328125</LongitudeDegrees>
            </Position>
            <AltitudeMeters>909</AltitudeMeters>
            <DistanceMeters>NAN</DistanceMeters>
          </Trackpoint>
          <Trackpoint>
            <Time>2022-06-16T14:13:31.000Z</Time>
            <Position>
              <LatitudeDegrees>36.84853621758520603179931640625</LatitudeDegrees>
              <LongitudeDegrees>-4.36400192789733409881591796875</LongitudeDegrees>
            </Position>
            <AltitudeMeters>910.4000244140625</AltitudeMeters>
            <DistanceMeters>NAN</DistanceMeters>
          </Trackpoint>
          <Trackpoint>
            <Time>2022-06-16T14:13:32.000Z</Time>
            <Position>
              <LatitudeDegrees>36.84852682985365390777587890625</LatitudeDegrees>
              <LongitudeDegrees>-4.36399974860250949859619140625</LongitudeDegrees>
            </Position>
            <AltitudeMeters>910.5999755859375</AltitudeMeters>
            <DistanceMeters>NAN</DistanceMeters>
          </Trackpoint>
          <Trackpoint>
            <Time>2022-06-16T14:13:42.000Z</Time>
            <Position>
              <LatitudeDegrees>36.84843244962394237518310546875</LatitudeDegrees>
              <LongitudeDegrees>-4.363976530730724334716796875</LongitudeDegrees>
            </Position>
            <AltitudeMeters>913</AltitudeMeters>
            <DistanceMeters>NAN</DistanceMeters>
          </Trackpoint>
          <Trackpoint>
            <Time>2022-06-16T14:13:52.000Z</Time>
            <Position>
              <LatitudeDegrees>36.84834678657352924346923828125</LatitudeDegrees>
              <LongitudeDegrees>-4.3638982437551021575927734375</LongitudeDegrees>
            </Position>
            <AltitudeMeters>914.4000244140625</AltitudeMeters>
            <DistanceMeters>NAN</DistanceMeters>
          </Trackpoint>
          <Trackpoint>
            <Time>2022-06-16T14:14:02.000Z</Time>
            <Position>
              <LatitudeDegrees>36.84826045297086238861083984375</LatitudeDegrees>
              <LongitudeDegrees>-4.36381668783724308013916015625</LongitudeDegrees>
            </Position>
            <AltitudeMeters>915.4000244140625</AltitudeMeters>
            <DistanceMeters>NAN</DistanceMeters>
          </Trackpoint>
          <Trackpoint>
            <Time>2022-06-16T14:14:12.000Z</Time>
            <Position>
              <LatitudeDegrees>36.8481753766536712646484375</LatitudeDegrees>
              <LongitudeDegrees>-4.36374242417514324188232421875</LongitudeDegrees>
            </Position>
            <AltitudeMeters>916.20001220703125</AltitudeMeters>
            <DistanceMeters>NAN</DistanceMeters>
          </Trackpoint>
          <Trackpoint>
            <Time>2022-06-16T14:14:22.000Z</Time>
            <Position>
              <LatitudeDegrees>36.848068423569202423095703125</LatitudeDegrees>
              <LongitudeDegrees>-4.3636548332870006561279296875</LongitudeDegrees>
            </Position>
            <AltitudeMeters>917</AltitudeMeters>
            <DistanceMeters>NAN</DistanceMeters>
          </Trackpoint>
          <Trackpoint>
            <Time>2022-06-16T14:14:27.000Z</Time>
            <Position>
              <LatitudeDegrees>36.84801218099892139434814453125</LatitudeDegrees>
              <LongitudeDegrees>-4.3636095710098743438720703125</LongitudeDegrees>
            </Position>
            <AltitudeMeters>917.79998779296875</AltitudeMeters>
            <DistanceMeters>NAN</DistanceMeters>
          </Trackpoint>
          <Trackpoint>
            <Time>2022-06-16T14:14:32.000Z</Time>
            <Position>
              <LatitudeDegrees>36.84798066504299640655517578125</LatitudeDegrees>
              <LongitudeDegrees>-4.36355500482022762298583984375</LongitudeDegrees>
            </Position>
            <AltitudeMeters>917.5999755859375</AltitudeMeters>
            <DistanceMeters>NAN</DistanceMeters>
          </Trackpoint>
          <Trackpoint>
            <Time>2022-06-16T14:14:42.000Z</Time>
            <Position>
              <LatitudeDegrees>36.84791545383632183074951171875</LatitudeDegrees>
              <LongitudeDegrees>-4.36348342336714267730712890625</LongitudeDegrees>
            </Position>
            <AltitudeMeters>917.79998779296875</AltitudeMeters>
            <DistanceMeters>NAN</DistanceMeters>
          </Trackpoint>
          <Trackpoint>
            <Time>2022-06-16T14:14:52.000Z</Time>
            <Position>
              <LatitudeDegrees>36.8478566966950893402099609375</LatitudeDegrees>
              <LongitudeDegrees>-4.36337378807365894317626953125</LongitudeDegrees>
            </Position>
            <AltitudeMeters>918.20001220703125</AltitudeMeters>
            <DistanceMeters>NAN</DistanceMeters>
          </Trackpoint>
          <Trackpoint>
            <Time>2022-06-16T14:15:02.000Z</Time>
            <Position>
              <LatitudeDegrees>36.8477668426930904388427734375</LatitudeDegrees>
              <LongitudeDegrees>-4.36327924020588397979736328125</LongitudeDegrees>
            </Position>
            <AltitudeMeters>919</AltitudeMeters>
            <DistanceMeters>NAN</DistanceMeters>
          </Trackpoint>
          <Trackpoint>
            <Time>2022-06-16T14:15:12.000Z</Time>
            <Position>
              <LatitudeDegrees>36.84766709804534912109375</LatitudeDegrees>
              <LongitudeDegrees>-4.3632273562252521514892578125</LongitudeDegrees>
            </Position>
            <AltitudeMeters>920.20001220703125</AltitudeMeters>
            <DistanceMeters>NAN</DistanceMeters>
          </Trackpoint>
          <Trackpoint>
            <Time>2022-06-16T14:15:22.000Z</Time>
            <Position>
              <LatitudeDegrees>36.84758327901363372802734375</LatitudeDegrees>
              <LongitudeDegrees>-4.36319408006966114044189453125</LongitudeDegrees>
            </Position>
            <AltitudeMeters>921.5999755859375</AltitudeMeters>
            <DistanceMeters>NAN</DistanceMeters>
          </Trackpoint>
          <Trackpoint>
            <Time>2022-06-16T14:15:25.000Z</Time>
            <Position>
              <LatitudeDegrees>36.84755771420896053314208984375</LatitudeDegrees>
              <LongitudeDegrees>-4.36318485997617244720458984375</LongitudeDegrees>
            </Position>
            <AltitudeMeters>921.5999755859375</AltitudeMeters>
            <DistanceMeters>NAN</DistanceMeters>
          </Trackpoint>
          <Trackpoint>
            <Time>2022-06-16T14:15:26.000Z</Time>
            <Position>
              <LatitudeDegrees>36.84755084104835987091064453125</LatitudeDegrees>
              <LongitudeDegrees>-4.36318033374845981597900390625</LongitudeDegrees>
            </Position>
            <AltitudeMeters>921.5999755859375</AltitudeMeters>
            <DistanceMeters>NAN</DistanceMeters>
          </Trackpoint>
          <Trackpoint>
            <Time>2022-06-16T14:15:32.000Z</Time>
            <Position>
              <LatitudeDegrees>36.84750658459961414337158203125</LatitudeDegrees>
              <LongitudeDegrees>-4.3631626479327678680419921875</LongitudeDegrees>
            </Position>
            <AltitudeMeters>921.79998779296875</AltitudeMeters>
            <DistanceMeters>NAN</DistanceMeters>
          </Trackpoint>
          <Trackpoint>
            <Time>2022-06-16T14:15:33.000Z</Time>
            <Position>
              <LatitudeDegrees>36.8474992923438549041748046875</LatitudeDegrees>
              <LongitudeDegrees>-4.3631603009998798370361328125</LongitudeDegrees>
            </Position>
            <AltitudeMeters>921.79998779296875</AltitudeMeters>
            <DistanceMeters>NAN</DistanceMeters>
          </Trackpoint>
          <Trackpoint>
            <Time>2022-06-16T14:15:34.000Z</Time>
            <Position>
              <LatitudeDegrees>36.8474914133548736572265625</LatitudeDegrees>
              <LongitudeDegrees>-4.36315678060054779052734375</LongitudeDegrees>
            </Position>
            <AltitudeMeters>921.79998779296875</AltitudeMeters>
            <DistanceMeters>NAN</DistanceMeters>
          </Trackpoint>
          <Trackpoint>
            <Time>2022-06-16T14:15:42.000Z</Time>
            <Position>
              <LatitudeDegrees>36.8474216759204864501953125</LatitudeDegrees>
              <LongitudeDegrees>-4.3631167151033878326416015625</LongitudeDegrees>
            </Position>
            <AltitudeMeters>922.20001220703125</AltitudeMeters>
            <DistanceMeters>NAN</DistanceMeters>
          </Trackpoint>
          <Trackpoint>
            <Time>2022-06-16T14:15:52.000Z</Time>
            <Position>
              <LatitudeDegrees>36.8473115377128124237060546875</LatitudeDegrees>
              <LongitudeDegrees>-4.36305083334445953369140625</LongitudeDegrees>
            </Position>
            <AltitudeMeters>923.20001220703125</AltitudeMeters>
            <DistanceMeters>NAN</DistanceMeters>
          </Trackpoint>
          <Trackpoint>
            <Time>2022-06-16T14:15:58.000Z</Time>
            <Position>
              <LatitudeDegrees>36.84725881554186344146728515625</LatitudeDegrees>
              <LongitudeDegrees>-4.3630231730639934539794921875</LongitudeDegrees>
            </Position>
            <AltitudeMeters>923.4000244140625</AltitudeMeters>
            <DistanceMeters>NAN</DistanceMeters>
          </Trackpoint>
          <Trackpoint>
            <Time>2022-06-16T14:16:02.000Z</Time>
            <Position>
              <LatitudeDegrees>36.84722361154854297637939453125</LatitudeDegrees>
              <LongitudeDegrees>-4.36302107758820056915283203125</LongitudeDegrees>
            </Position>
            <AltitudeMeters>923.5999755859375</AltitudeMeters>
            <DistanceMeters>NAN</DistanceMeters>
          </Trackpoint>
          <Trackpoint>
            <Time>2022-06-16T14:16:12.000Z</Time>
            <Position>
              <LatitudeDegrees>36.8471140600740909576416015625</LatitudeDegrees>
              <LongitudeDegrees>-4.36302409507334232330322265625</LongitudeDegrees>
            </Position>
            <AltitudeMeters>924.4000244140625</AltitudeMeters>
            <DistanceMeters>NAN</DistanceMeters>
          </Trackpoint>
          <Trackpoint>
            <Time>2022-06-16T14:16:22.000Z</Time>
            <Position>
              <LatitudeDegrees>36.84700216166675090789794921875</LatitudeDegrees>
              <LongitudeDegrees>-4.3630054034292697906494140625</LongitudeDegrees>
            </Position>
            <AltitudeMeters>925</AltitudeMeters>
            <DistanceMeters>NAN</DistanceMeters>
          </Trackpoint>
          <Trackpoint>
            <Time>2022-06-16T14:16:32.000Z</Time>
            <Position>
              <LatitudeDegrees>36.84690392576158046722412109375</LatitudeDegrees>
              <LongitudeDegrees>-4.3629856221377849578857421875</LongitudeDegrees>
            </Position>
            <AltitudeMeters>925.20001220703125</AltitudeMeters>
            <DistanceMeters>NAN</DistanceMeters>
          </Trackpoint>
          <Trackpoint>
            <Time>2022-06-16T14:16:37.000Z</Time>
            <Position>
              <LatitudeDegrees>36.8468575738370418548583984375</LatitudeDegrees>
              <LongitudeDegrees>-4.36297707259654998779296875</LongitudeDegrees>
            </Position>
            <AltitudeMeters>925.20001220703125</AltitudeMeters>
            <DistanceMeters>NAN</DistanceMeters>
          </Trackpoint>
          <Trackpoint>
            <Time>2022-06-16T14:16:42.000Z</Time>
            <Position>
              <LatitudeDegrees>36.846809796988964080810546875</LatitudeDegrees>
              <LongitudeDegrees>-4.3629638291895389556884765625</LongitudeDegrees>
            </Position>
            <AltitudeMeters>925.20001220703125</AltitudeMeters>
            <DistanceMeters>NAN</DistanceMeters>
          </Trackpoint>
          <Trackpoint>
            <Time>2022-06-16T14:16:45.000Z</Time>
            <Position>
              <LatitudeDegrees>36.84677769429981708526611328125</LatitudeDegrees>
              <LongitudeDegrees>-4.36294681392610073089599609375</LongitudeDegrees>
            </Position>
            <AltitudeMeters>925.4000244140625</AltitudeMeters>
            <DistanceMeters>NAN</DistanceMeters>
          </Trackpoint>
          <Trackpoint>
            <Time>2022-06-16T14:16:49.000Z</Time>
            <Position>
              <LatitudeDegrees>36.84673880226910114288330078125</LatitudeDegrees>
              <LongitudeDegrees>-4.362918399274349212646484375</LongitudeDegrees>
            </Position>
            <AltitudeMeters>925.5999755859375</AltitudeMeters>
            <DistanceMeters>NAN</DistanceMeters>
          </Trackpoint>
          <Trackpoint>
            <Time>2022-06-16T14:16:52.000Z</Time>
            <Position>
              <LatitudeDegrees>36.84670711867511272430419921875</LatitudeDegrees>
              <LongitudeDegrees>-4.36291295103728771209716796875</LongitudeDegrees>
            </Position>
            <AltitudeMeters>925.5999755859375</AltitudeMeters>
            <DistanceMeters>NAN</DistanceMeters>
          </Trackpoint>
          <Trackpoint>
            <Time>2022-06-16T14:16:59.000Z</Time>
            <Position>
              <LatitudeDegrees>36.8466376326978206634521484375</LatitudeDegrees>
              <LongitudeDegrees>-4.36290171928703784942626953125</LongitudeDegrees>
            </Position>
            <AltitudeMeters>925.4000244140625</AltitudeMeters>
            <DistanceMeters>NAN</DistanceMeters>
          </Trackpoint>
          <Trackpoint>
            <Time>2022-06-16T14:17:02.000Z</Time>
            <Position>
              <LatitudeDegrees>36.8466098047792911529541015625</LatitudeDegrees>
              <LongitudeDegrees>-4.36290037818253040313720703125</LongitudeDegrees>
            </Position>
            <AltitudeMeters>925.20001220703125</AltitudeMeters>
            <DistanceMeters>NAN</DistanceMeters>
          </Trackpoint>
          <Trackpoint>
            <Time>2022-06-16T14:17:12.000Z</Time>
            <Position>
              <LatitudeDegrees>36.846513412892818450927734375</LatitudeDegrees>
              <LongitudeDegrees>-4.36287992633879184722900390625</LongitudeDegrees>
            </Position>
            <AltitudeMeters>926.20001220703125</AltitudeMeters>
            <DistanceMeters>NAN</DistanceMeters>
          </Trackpoint>
          <Trackpoint>
            <Time>2022-06-16T14:17:15.000Z</Time>
            <Position>
              <LatitudeDegrees>36.84648491442203521728515625</LatitudeDegrees>
              <LongitudeDegrees>-4.36286835931241512298583984375</LongitudeDegrees>
            </Position>
            <AltitudeMeters>926.5999755859375</AltitudeMeters>
            <DistanceMeters>NAN</DistanceMeters>
          </Trackpoint>
          <Trackpoint>
            <Time>2022-06-16T14:17:22.000Z</Time>
            <Position>
              <LatitudeDegrees>36.84642079286277294158935546875</LatitudeDegrees>
              <LongitudeDegrees>-4.36282142065465450286865234375</LongitudeDegrees>
            </Position>
            <AltitudeMeters>926.79998779296875</AltitudeMeters>
            <DistanceMeters>NAN</DistanceMeters>
          </Trackpoint>
          <Trackpoint>
            <Time>2022-06-16T14:17:32.000Z</Time>
            <Position>
              <LatitudeDegrees>36.84632674790918827056884765625</LatitudeDegrees>
              <LongitudeDegrees>-4.36271782033145427703857421875</LongitudeDegrees>
            </Position>
            <AltitudeMeters>928.79998779296875</AltitudeMeters>
            <DistanceMeters>NAN</DistanceMeters>
          </Trackpoint>
          <Trackpoint>
            <Time>2022-06-16T14:17:42.000Z</Time>
            <Position>
              <LatitudeDegrees>36.846263967454433441162109375</LatitudeDegrees>
              <LongitudeDegrees>-4.36260952614247798919677734375</LongitudeDegrees>
            </Position>
            <AltitudeMeters>930.79998779296875</AltitudeMeters>
            <DistanceMeters>NAN</DistanceMeters>
          </Trackpoint>
          <Trackpoint>
            <Time>2022-06-16T14:17:52.000Z</Time>
            <Position>
              <LatitudeDegrees>36.84618827886879444122314453125</LatitudeDegrees>
              <LongitudeDegrees>-4.36252587474882602691650390625</LongitudeDegrees>
            </Position>
            <AltitudeMeters>933.4000244140625</AltitudeMeters>
            <DistanceMeters>NAN</DistanceMeters>
          </Trackpoint>
          <Trackpoint>
            <Time>2022-06-16T14:18:02.000Z</Time>
            <Position>
              <LatitudeDegrees>36.84611099772155284881591796875</LatitudeDegrees>
              <LongitudeDegrees>-4.3624381162226200103759765625</LongitudeDegrees>
            </Position>
            <AltitudeMeters>936.20001220703125</AltitudeMeters>
            <DistanceMeters>NAN</DistanceMeters>
          </Trackpoint>
          <Trackpoint>
            <Time>2022-06-16T14:18:12.000Z</Time>
            <Position>
              <LatitudeDegrees>36.8460156954824924468994140625</LatitudeDegrees>
              <LongitudeDegrees>-4.362371899187564849853515625</LongitudeDegrees>
            </Position>
            <AltitudeMeters>938</AltitudeMeters>
            <DistanceMeters>NAN</DistanceMeters>
          </Trackpoint>
          <Trackpoint>
            <Time>2022-06-16T14:18:22.000Z</Time>
            <Position>
              <LatitudeDegrees>36.84591888450086116790771484375</LatitudeDegrees>
              <LongitudeDegrees>-4.3623093701899051666259765625</LongitudeDegrees>
            </Position>
            <AltitudeMeters>940.79998779296875</AltitudeMeters>
            <DistanceMeters>NAN</DistanceMeters>
          </Trackpoint>
          <Trackpoint>
            <Time>2022-06-16T14:18:32.000Z</Time>
            <Position>
              <LatitudeDegrees>36.84581327252089977264404296875</LatitudeDegrees>
              <LongitudeDegrees>-4.362262599170207977294921875</LongitudeDegrees>
            </Position>
            <AltitudeMeters>942.4000244140625</AltitudeMeters>
            <DistanceMeters>NAN</DistanceMeters>
          </Trackpoint>
          <Trackpoint>
            <Time>2022-06-16T14:18:42.000Z</Time>
            <Position>
              <LatitudeDegrees>36.84572517871856689453125</LatitudeDegrees>
              <LongitudeDegrees>-4.36225396580994129180908203125</LongitudeDegrees>
            </Position>
            <AltitudeMeters>943.5999755859375</AltitudeMeters>
            <DistanceMeters>NAN</DistanceMeters>
          </Trackpoint>
          <Trackpoint>
            <Time>2022-06-16T14:18:50.000Z</Time>
            <Position>
              <LatitudeDegrees>36.84565686620771884918212890625</LatitudeDegrees>
              <LongitudeDegrees>-4.362256228923797607421875</LongitudeDegrees>
            </Position>
            <AltitudeMeters>944.4000244140625</AltitudeMeters>
            <DistanceMeters>NAN</DistanceMeters>
          </Trackpoint>
          <Trackpoint>
            <Time>2022-06-16T14:18:52.000Z</Time>
            <Position>
              <LatitudeDegrees>36.8456344865262508392333984375</LatitudeDegrees>
              <LongitudeDegrees>-4.3622513674199581146240234375</LongitudeDegrees>
            </Position>
            <AltitudeMeters>944.5999755859375</AltitudeMeters>
            <DistanceMeters>NAN</DistanceMeters>
          </Trackpoint>
          <Trackpoint>
            <Time>2022-06-16T14:19:02.000Z</Time>
            <Position>
              <LatitudeDegrees>36.8455164693295955657958984375</LatitudeDegrees>
              <LongitudeDegrees>-4.36223150230944156646728515625</LongitudeDegrees>
            </Position>
            <AltitudeMeters>945.4000244140625</AltitudeMeters>
            <DistanceMeters>NAN</DistanceMeters>
          </Trackpoint>
          <Trackpoint>
            <Time>2022-06-16T14:19:12.000Z</Time>
            <Position>
              <LatitudeDegrees>36.84539937414228916168212890625</LatitudeDegrees>
              <LongitudeDegrees>-4.36215925030410289764404296875</LongitudeDegrees>
            </Position>
            <AltitudeMeters>947.79998779296875</AltitudeMeters>
            <DistanceMeters>NAN</DistanceMeters>
          </Trackpoint>
          <Trackpoint>
            <Time>2022-06-16T14:19:22.000Z</Time>
            <Position>
              <LatitudeDegrees>36.84526392258703708648681640625</LatitudeDegrees>
              <LongitudeDegrees>-4.36210761778056621551513671875</LongitudeDegrees>
            </Position>
            <AltitudeMeters>947.20001220703125</AltitudeMeters>
            <DistanceMeters>NAN</DistanceMeters>
          </Trackpoint>
          <Trackpoint>
            <Time>2022-06-16T14:19:32.000Z</Time>
            <Position>
              <LatitudeDegrees>36.84519217349588871002197265625</LatitudeDegrees>
              <LongitudeDegrees>-4.36208817176520824432373046875</LongitudeDegrees>
            </Position>
            <AltitudeMeters>946.79998779296875</AltitudeMeters>
            <DistanceMeters>NAN</DistanceMeters>
          </Trackpoint>
          <Trackpoint>
            <Time>2022-06-16T14:19:42.000Z</Time>
            <Position>
              <LatitudeDegrees>36.845076419413089752197265625</LatitudeDegrees>
              <LongitudeDegrees>-4.3620223738253116607666015625</LongitudeDegrees>
            </Position>
            <AltitudeMeters>948</AltitudeMeters>
            <DistanceMeters>NAN</DistanceMeters>
          </Trackpoint>
          <Trackpoint>
            <Time>2022-06-16T14:19:52.000Z</Time>
            <Position>
              <LatitudeDegrees>36.84498128481209278106689453125</LatitudeDegrees>
              <LongitudeDegrees>-4.3619784526526927947998046875</LongitudeDegrees>
            </Position>
            <AltitudeMeters>949</AltitudeMeters>
            <DistanceMeters>NAN</DistanceMeters>
          </Trackpoint>
          <Trackpoint>
            <Time>2022-06-16T14:20:01.000Z</Time>
            <Position>
              <LatitudeDegrees>36.84489981271326541900634765625</LatitudeDegrees>
              <LongitudeDegrees>-4.36192874796688556671142578125</LongitudeDegrees>
            </Position>
            <AltitudeMeters>950.4000244140625</AltitudeMeters>
            <DistanceMeters>NAN</DistanceMeters>
          </Trackpoint>
          <Trackpoint>
            <Time>2022-06-16T14:20:02.000Z</Time>
            <Position>
              <LatitudeDegrees>36.84488774277269840240478515625</LatitudeDegrees>
              <LongitudeDegrees>-4.361926652491092681884765625</LongitudeDegrees>
            </Position>
            <AltitudeMeters>950.4000244140625</AltitudeMeters>
            <DistanceMeters>NAN</DistanceMeters>
          </Trackpoint>
          <Trackpoint>
            <Time>2022-06-16T14:20:04.000Z</Time>
            <Position>
              <LatitudeDegrees>36.844859831035137176513671875</LatitudeDegrees>
              <LongitudeDegrees>-4.3619234673678874969482421875</LongitudeDegrees>
            </Position>
            <AltitudeMeters>950.4000244140625</AltitudeMeters>
            <DistanceMeters>NAN</DistanceMeters>
          </Trackpoint>
          <Trackpoint>
            <Time>2022-06-16T14:20:08.000Z</Time>
            <Position>
              <LatitudeDegrees>36.84481431730091571807861328125</LatitudeDegrees>
              <LongitudeDegrees>-4.36191357672214508056640625</LongitudeDegrees>
            </Position>
            <AltitudeMeters>950.79998779296875</AltitudeMeters>
            <DistanceMeters>NAN</DistanceMeters>
          </Trackpoint>
          <Trackpoint>
            <Time>2022-06-16T14:20:12.000Z</Time>
            <Position>
              <LatitudeDegrees>36.8447674624621868133544921875</LatitudeDegrees>
              <LongitudeDegrees>-4.36191952787339687347412109375</LongitudeDegrees>
            </Position>
            <AltitudeMeters>950.4000244140625</AltitudeMeters>
            <DistanceMeters>NAN</DistanceMeters>
          </Trackpoint>
          <Trackpoint>
            <Time>2022-06-16T14:20:16.000Z</Time>
            <Position>
              <LatitudeDegrees>36.84471960179507732391357421875</LatitudeDegrees>
              <LongitudeDegrees>-4.3619358725845813751220703125</LongitudeDegrees>
            </Position>
            <AltitudeMeters>949.5999755859375</AltitudeMeters>
            <DistanceMeters>NAN</DistanceMeters>
          </Trackpoint>
          <Trackpoint>
            <Time>2022-06-16T14:20:21.000Z</Time>
            <Position>
              <LatitudeDegrees>36.8446611799299716949462890625</LatitudeDegrees>
              <LongitudeDegrees>-4.36194844543933868408203125</LongitudeDegrees>
            </Position>
            <AltitudeMeters>949</AltitudeMeters>
            <DistanceMeters>NAN</DistanceMeters>
          </Trackpoint>
          <Trackpoint>
            <Time>2022-06-16T14:20:22.000Z</Time>
            <Position>
              <LatitudeDegrees>36.84465036727488040924072265625</LatitudeDegrees>
              <LongitudeDegrees>-4.3619543127715587615966796875</LongitudeDegrees>
            </Position>
            <AltitudeMeters>948.79998779296875</AltitudeMeters>
            <DistanceMeters>NAN</DistanceMeters>
          </Trackpoint>
          <Trackpoint>
            <Time>2022-06-16T14:20:25.000Z</Time>
            <Position>
              <LatitudeDegrees>36.84462153352797031402587890625</LatitudeDegrees>
              <LongitudeDegrees>-4.3619569949805736541748046875</LongitudeDegrees>
            </Position>
            <AltitudeMeters>948.5999755859375</AltitudeMeters>
            <DistanceMeters>NAN</DistanceMeters>
          </Trackpoint>
          <Trackpoint>
            <Time>2022-06-16T14:20:32.000Z</Time>
            <Position>
              <LatitudeDegrees>36.84455112554132938385009765625</LatitudeDegrees>
              <LongitudeDegrees>-4.361932687461376190185546875</LongitudeDegrees>
            </Position>
            <AltitudeMeters>949.20001220703125</AltitudeMeters>
            <DistanceMeters>NAN</DistanceMeters>
          </Trackpoint>
          <Trackpoint>
            <Time>2022-06-16T14:20:33.000Z</Time>
            <Position>
              <LatitudeDegrees>36.84454257600009441375732421875</LatitudeDegrees>
              <LongitudeDegrees>-4.36192673631012439727783203125</LongitudeDegrees>
            </Position>
            <AltitudeMeters>949.4000244140625</AltitudeMeters>
            <DistanceMeters>NAN</DistanceMeters>
          </Trackpoint>
          <Trackpoint>
            <Time>2022-06-16T14:20:42.000Z</Time>
            <Position>
              <LatitudeDegrees>36.8444603495299816131591796875</LatitudeDegrees>
              <LongitudeDegrees>-4.3618818931281566619873046875</LongitudeDegrees>
            </Position>
            <AltitudeMeters>947.5999755859375</AltitudeMeters>
            <DistanceMeters>NAN</DistanceMeters>
          </Trackpoint>
          <Trackpoint>
            <Time>2022-06-16T14:20:52.000Z</Time>
            <Position>
              <LatitudeDegrees>36.8443872593343257904052734375</LatitudeDegrees>
              <LongitudeDegrees>-4.36178055591881275177001953125</LongitudeDegrees>
            </Position>
            <AltitudeMeters>947.5999755859375</AltitudeMeters>
            <DistanceMeters>NAN</DistanceMeters>
          </Trackpoint>
          <Trackpoint>
            <Time>2022-06-16T14:21:02.000Z</Time>
            <Position>
              <LatitudeDegrees>36.8443684838712215423583984375</LatitudeDegrees>
              <LongitudeDegrees>-4.3616535700857639312744140625</LongitudeDegrees>
            </Position>
            <AltitudeMeters>948.4000244140625</AltitudeMeters>
            <DistanceMeters>NAN</DistanceMeters>
          </Trackpoint>
          <Trackpoint>
            <Time>2022-06-16T14:21:04.000Z</Time>
            <Position>
              <LatitudeDegrees>36.84437443502247333526611328125</LatitudeDegrees>
              <LongitudeDegrees>-4.36163035221397876739501953125</LongitudeDegrees>
            </Position>
            <AltitudeMeters>949</AltitudeMeters>
            <DistanceMeters>NAN</DistanceMeters>
          </Trackpoint>
          <Trackpoint>
            <Time>2022-06-16T14:21:12.000Z</Time>
            <Position>
              <LatitudeDegrees>36.84435448609292507171630859375</LatitudeDegrees>
              <LongitudeDegrees>-4.36151920817792415618896484375</LongitudeDegrees>
            </Position>
            <AltitudeMeters>949.79998779296875</AltitudeMeters>
            <DistanceMeters>NAN</DistanceMeters>
          </Trackpoint>
          <Trackpoint>
            <Time>2022-06-16T14:21:22.000Z</Time>
            <Position>
              <LatitudeDegrees>36.84434560127556324005126953125</LatitudeDegrees>
              <LongitudeDegrees>-4.36136045493185520172119140625</LongitudeDegrees>
            </Position>
            <AltitudeMeters>951.5999755859375</AltitudeMeters>
            <DistanceMeters>NAN</DistanceMeters>
          </Trackpoint>
          <Trackpoint>
            <Time>2022-06-16T14:21:23.000Z</Time>
            <Position>
              <LatitudeDegrees>36.8443490378558635711669921875</LatitudeDegrees>
              <LongitudeDegrees>-4.36134888790547847747802734375</LongitudeDegrees>
            </Position>
            <AltitudeMeters>952</AltitudeMeters>
            <DistanceMeters>NAN</DistanceMeters>
          </Trackpoint>
          <Trackpoint>
            <Time>2022-06-16T14:21:32.000Z</Time>
            <Position>
              <LatitudeDegrees>36.8443317711353302001953125</LatitudeDegrees>
              <LongitudeDegrees>-4.361246712505817413330078125</LongitudeDegrees>
            </Position>
            <AltitudeMeters>952.4000244140625</AltitudeMeters>
            <DistanceMeters>NAN</DistanceMeters>
          </Trackpoint>
          <Trackpoint>
            <Time>2022-06-16T14:21:39.000Z</Time>
            <Position>
              <LatitudeDegrees>36.84431760571897029876708984375</LatitudeDegrees>
              <LongitudeDegrees>-4.3611654080450534820556640625</LongitudeDegrees>
            </Position>
            <AltitudeMeters>952.4000244140625</AltitudeMeters>
            <DistanceMeters>NAN</DistanceMeters>
          </Trackpoint>
          <Trackpoint>
            <Time>2022-06-16T14:21:42.000Z</Time>
            <Position>
              <LatitudeDegrees>36.8443124927580356597900390625</LatitudeDegrees>
              <LongitudeDegrees>-4.36112768948078155517578125</LongitudeDegrees>
            </Position>
            <AltitudeMeters>952.4000244140625</AltitudeMeters>
            <DistanceMeters>NAN</DistanceMeters>
          </Trackpoint>
          <Trackpoint>
            <Time>2022-06-16T14:21:52.000Z</Time>
            <Position>
              <LatitudeDegrees>36.84429681859910488128662109375</LatitudeDegrees>
              <LongitudeDegrees>-4.36100900173187255859375</LongitudeDegrees>
            </Position>
            <AltitudeMeters>953</AltitudeMeters>
            <DistanceMeters>NAN</DistanceMeters>
          </Trackpoint>
          <Trackpoint>
            <Time>2022-06-16T14:21:58.000Z</Time>
            <Position>
              <LatitudeDegrees>36.8443022668361663818359375</LatitudeDegrees>
              <LongitudeDegrees>-4.3609230034053325653076171875</LongitudeDegrees>
            </Position>
            <AltitudeMeters>954.79998779296875</AltitudeMeters>
            <DistanceMeters>NAN</DistanceMeters>
          </Trackpoint>
          <Trackpoint>
            <Time>2022-06-16T14:22:02.000Z</Time>
            <Position>
              <LatitudeDegrees>36.84430427849292755126953125</LatitudeDegrees>
              <LongitudeDegrees>-4.360872209072113037109375</LongitudeDegrees>
            </Position>
            <AltitudeMeters>955.79998779296875</AltitudeMeters>
            <DistanceMeters>NAN</DistanceMeters>
          </Trackpoint>
          <Trackpoint>
            <Time>2022-06-16T14:22:12.000Z</Time>
            <Position>
              <LatitudeDegrees>36.8442648835480213165283203125</LatitudeDegrees>
              <LongitudeDegrees>-4.360747151076793670654296875</LongitudeDegrees>
            </Position>
            <AltitudeMeters>956</AltitudeMeters>
            <DistanceMeters>NAN</DistanceMeters>
          </Trackpoint>
          <Trackpoint>
            <Time>2022-06-16T14:22:22.000Z</Time>
            <Position>
              <LatitudeDegrees>36.84423093684017658233642578125</LatitudeDegrees>
              <LongitudeDegrees>-4.36062209308147430419921875</LongitudeDegrees>
            </Position>
            <AltitudeMeters>956.20001220703125</AltitudeMeters>
            <DistanceMeters>NAN</DistanceMeters>
          </Trackpoint>
          <Trackpoint>
            <Time>2022-06-16T14:22:32.000Z</Time>
            <Position>
              <LatitudeDegrees>36.8441998399794101715087890625</LatitudeDegrees>
              <LongitudeDegrees>-4.36048798263072967529296875</LongitudeDegrees>
            </Position>
            <AltitudeMeters>957.4000244140625</AltitudeMeters>
            <DistanceMeters>NAN</DistanceMeters>
          </Trackpoint>
          <Trackpoint>
            <Time>2022-06-16T14:22:41.000Z</Time>
            <Position>
              <LatitudeDegrees>36.84417628683149814605712890625</LatitudeDegrees>
              <LongitudeDegrees>-4.36038077808916568756103515625</LongitudeDegrees>
            </Position>
            <AltitudeMeters>958.5999755859375</AltitudeMeters>
            <DistanceMeters>NAN</DistanceMeters>
          </Trackpoint>
          <Trackpoint>
            <Time>2022-06-16T14:22:42.000Z</Time>
            <Position>
              <LatitudeDegrees>36.84417410753667354583740234375</LatitudeDegrees>
              <LongitudeDegrees>-4.3603666126728057861328125</LongitudeDegrees>
            </Position>
            <AltitudeMeters>958.79998779296875</AltitudeMeters>
            <DistanceMeters>NAN</DistanceMeters>
          </Trackpoint>
          <Trackpoint>
            <Time>2022-06-16T14:22:52.000Z</Time>
            <Position>
              <LatitudeDegrees>36.84413270093500614166259765625</LatitudeDegrees>
              <LongitudeDegrees>-4.36024197377264499664306640625</LongitudeDegrees>
            </Position>
            <AltitudeMeters>959.4000244140625</AltitudeMeters>
            <DistanceMeters>NAN</DistanceMeters>
          </Trackpoint>
          <Trackpoint>
            <Time>2022-06-16T14:22:58.000Z</Time>
            <Position>
              <LatitudeDegrees>36.844125576317310333251953125</LatitudeDegrees>
              <LongitudeDegrees>-4.3601689673960208892822265625</LongitudeDegrees>
            </Position>
            <AltitudeMeters>959.4000244140625</AltitudeMeters>
            <DistanceMeters>NAN</DistanceMeters>
          </Trackpoint>
          <Trackpoint>
            <Time>2022-06-16T14:23:00.000Z</Time>
            <Position>
              <LatitudeDegrees>36.84412515722215175628662109375</LatitudeDegrees>
              <LongitudeDegrees>-4.3601413071155548095703125</LongitudeDegrees>
            </Position>
            <AltitudeMeters>959.4000244140625</AltitudeMeters>
            <DistanceMeters>NAN</DistanceMeters>
          </Trackpoint>
          <Trackpoint>
            <Time>2022-06-16T14:23:02.000Z</Time>
            <Position>
              <LatitudeDegrees>36.84412180446088314056396484375</LatitudeDegrees>
              <LongitudeDegrees>-4.3601153232157230377197265625</LongitudeDegrees>
            </Position>
            <AltitudeMeters>959.4000244140625</AltitudeMeters>
            <DistanceMeters>NAN</DistanceMeters>
          </Trackpoint>
          <Trackpoint>
            <Time>2022-06-16T14:23:10.000Z</Time>
            <Position>
              <LatitudeDegrees>36.84410939924418926239013671875</LatitudeDegrees>
              <LongitudeDegrees>-4.36000929214060306549072265625</LongitudeDegrees>
            </Position>
            <AltitudeMeters>960.20001220703125</AltitudeMeters>
            <DistanceMeters>NAN</DistanceMeters>
          </Trackpoint>
          <Trackpoint>
            <Time>2022-06-16T14:23:12.000Z</Time>
            <Position>
              <LatitudeDegrees>36.84409917332231998443603515625</LatitudeDegrees>
              <LongitudeDegrees>-4.359987080097198486328125</LongitudeDegrees>
            </Position>
            <AltitudeMeters>960.20001220703125</AltitudeMeters>
            <DistanceMeters>NAN</DistanceMeters>
          </Trackpoint>
          <Trackpoint>
            <Time>2022-06-16T14:23:22.000Z</Time>
            <Position>
              <LatitudeDegrees>36.84405751526355743408203125</LatitudeDegrees>
              <LongitudeDegrees>-4.3598424084484577178955078125</LongitudeDegrees>
            </Position>
            <AltitudeMeters>959.5999755859375</AltitudeMeters>
            <DistanceMeters>NAN</DistanceMeters>
          </Trackpoint>
          <Trackpoint>
            <Time>2022-06-16T14:23:30.000Z</Time>
            <Position>
              <LatitudeDegrees>36.84403379447758197784423828125</LatitudeDegrees>
              <LongitudeDegrees>-4.3597404845058917999267578125</LongitudeDegrees>
            </Position>
            <AltitudeMeters>960</AltitudeMeters>
            <DistanceMeters>NAN</DistanceMeters>
          </Trackpoint>
          <Trackpoint>
            <Time>2022-06-16T14:23:32.000Z</Time>
            <Position>
              <LatitudeDegrees>36.84402977116405963897705078125</LatitudeDegrees>
              <LongitudeDegrees>-4.35971860773861408233642578125</LongitudeDegrees>
            </Position>
            <AltitudeMeters>960</AltitudeMeters>
            <DistanceMeters>NAN</DistanceMeters>
          </Trackpoint>
          <Trackpoint>
            <Time>2022-06-16T14:23:42.000Z</Time>
            <Position>
              <LatitudeDegrees>36.844009570777416229248046875</LatitudeDegrees>
              <LongitudeDegrees>-4.35960285365581512451171875</LongitudeDegrees>
            </Position>
            <AltitudeMeters>961</AltitudeMeters>
            <DistanceMeters>NAN</DistanceMeters>
          </Trackpoint>
          <Trackpoint>
            <Time>2022-06-16T14:23:43.000Z</Time>
            <Position>
              <LatitudeDegrees>36.8440033681690692901611328125</LatitudeDegrees>
              <LongitudeDegrees>-4.35959304682910442352294921875</LongitudeDegrees>
            </Position>
            <AltitudeMeters>961</AltitudeMeters>
            <DistanceMeters>NAN</DistanceMeters>
          </Trackpoint>
          <Trackpoint>
            <Time>2022-06-16T14:23:52.000Z</Time>
            <Position>
              <LatitudeDegrees>36.84394595213234424591064453125</LatitudeDegrees>
              <LongitudeDegrees>-4.35949078761041164398193359375</LongitudeDegrees>
            </Position>
            <AltitudeMeters>961</AltitudeMeters>
            <DistanceMeters>NAN</DistanceMeters>
          </Trackpoint>
          <Trackpoint>
            <Time>2022-06-16T14:24:02.000Z</Time>
            <Position>
              <LatitudeDegrees>36.84387185610830783843994140625</LatitudeDegrees>
              <LongitudeDegrees>-4.35939632356166839599609375</LongitudeDegrees>
            </Position>
            <AltitudeMeters>961.4000244140625</AltitudeMeters>
            <DistanceMeters>NAN</DistanceMeters>
          </Trackpoint>
          <Trackpoint>
            <Time>2022-06-16T14:24:12.000Z</Time>
            <Position>
              <LatitudeDegrees>36.84379189275205135345458984375</LatitudeDegrees>
              <LongitudeDegrees>-4.3592841736972332000732421875</LongitudeDegrees>
            </Position>
            <AltitudeMeters>961.4000244140625</AltitudeMeters>
            <DistanceMeters>NAN</DistanceMeters>
          </Trackpoint>
          <Trackpoint>
            <Time>2022-06-16T14:24:22.000Z</Time>
            <Position>
              <LatitudeDegrees>36.84373388998210430145263671875</LatitudeDegrees>
              <LongitudeDegrees>-4.359173364937305450439453125</LongitudeDegrees>
            </Position>
            <AltitudeMeters>961.79998779296875</AltitudeMeters>
            <DistanceMeters>NAN</DistanceMeters>
          </Trackpoint>
          <Trackpoint>
            <Time>2022-06-16T14:24:32.000Z</Time>
            <Position>
              <LatitudeDegrees>36.84365342371165752410888671875</LatitudeDegrees>
              <LongitudeDegrees>-4.35906364582479000091552734375</LongitudeDegrees>
            </Position>
            <AltitudeMeters>961.20001220703125</AltitudeMeters>
            <DistanceMeters>NAN</DistanceMeters>
          </Trackpoint>
          <Trackpoint>
            <Time>2022-06-16T14:24:42.000Z</Time>
            <Position>
              <LatitudeDegrees>36.84359617531299591064453125</LatitudeDegrees>
              <LongitudeDegrees>-4.358966164290904998779296875</LongitudeDegrees>
            </Position>
            <AltitudeMeters>961</AltitudeMeters>
            <DistanceMeters>NAN</DistanceMeters>
          </Trackpoint>
          <Trackpoint>
            <Time>2022-06-16T14:24:49.000Z</Time>
            <Position>
              <LatitudeDegrees>36.843560636043548583984375</LatitudeDegrees>
              <LongitudeDegrees>-4.35887320898473262786865234375</LongitudeDegrees>
            </Position>
            <AltitudeMeters>960.79998779296875</AltitudeMeters>
            <DistanceMeters>NAN</DistanceMeters>
          </Trackpoint>
          <Trackpoint>
            <Time>2022-06-16T14:24:52.000Z</Time>
            <Position>
              <LatitudeDegrees>36.8435510806739330291748046875</LatitudeDegrees>
              <LongitudeDegrees>-4.358842782676219940185546875</LongitudeDegrees>
            </Position>
            <AltitudeMeters>961</AltitudeMeters>
            <DistanceMeters>NAN</DistanceMeters>
          </Trackpoint>
          <Trackpoint>
            <Time>2022-06-16T14:25:02.000Z</Time>
            <Position>
              <LatitudeDegrees>36.843522079288959503173828125</LatitudeDegrees>
              <LongitudeDegrees>-4.3587108515202999114990234375</LongitudeDegrees>
            </Position>
            <AltitudeMeters>961.79998779296875</AltitudeMeters>
            <DistanceMeters>NAN</DistanceMeters>
          </Trackpoint>
          <Trackpoint>
            <Time>2022-06-16T14:25:12.000Z</Time>
            <Position>
              <LatitudeDegrees>36.8434971012175083160400390625</LatitudeDegrees>
              <LongitudeDegrees>-4.3585588037967681884765625</LongitudeDegrees>
            </Position>
            <AltitudeMeters>963.5999755859375</AltitudeMeters>
            <DistanceMeters>NAN</DistanceMeters>
          </Trackpoint>
          <Trackpoint>
            <Time>2022-06-16T14:25:15.000Z</Time>
            <Position>
              <LatitudeDegrees>36.84349869377911090850830078125</LatitudeDegrees>
              <LongitudeDegrees>-4.3585254438221454620361328125</LongitudeDegrees>
            </Position>
            <AltitudeMeters>964.4000244140625</AltitudeMeters>
            <DistanceMeters>NAN</DistanceMeters>
          </Trackpoint>
          <Trackpoint>
            <Time>2022-06-16T14:25:19.000Z</Time>
            <Position>
              <LatitudeDegrees>36.84349752031266689300537109375</LatitudeDegrees>
              <LongitudeDegrees>-4.3584717996418476104736328125</LongitudeDegrees>
            </Position>
            <AltitudeMeters>965.20001220703125</AltitudeMeters>
            <DistanceMeters>NAN</DistanceMeters>
          </Trackpoint>
          <Trackpoint>
            <Time>2022-06-16T14:25:22.000Z</Time>
            <Position>
              <LatitudeDegrees>36.84348511509597301483154296875</LatitudeDegrees>
              <LongitudeDegrees>-4.35843299143016338348388671875</LongitudeDegrees>
            </Position>
            <AltitudeMeters>965.20001220703125</AltitudeMeters>
            <DistanceMeters>NAN</DistanceMeters>
          </Trackpoint>
          <Trackpoint>
            <Time>2022-06-16T14:25:25.000Z</Time>
            <Position>
              <LatitudeDegrees>36.8434702791273593902587890625</LatitudeDegrees>
              <LongitudeDegrees>-4.35839242301881313323974609375</LongitudeDegrees>
            </Position>
            <AltitudeMeters>965.20001220703125</AltitudeMeters>
            <DistanceMeters>NAN</DistanceMeters>
          </Trackpoint>
          <Trackpoint>
            <Time>2022-06-16T14:25:29.000Z</Time>
            <Position>
              <LatitudeDegrees>36.8434572033584117889404296875</LatitudeDegrees>
              <LongitudeDegrees>-4.3583440594375133514404296875</LongitudeDegrees>
            </Position>
            <AltitudeMeters>965.4000244140625</AltitudeMeters>
            <DistanceMeters>NAN</DistanceMeters>
          </Trackpoint>
          <Trackpoint>
            <Time>2022-06-16T14:25:32.000Z</Time>
            <Position>
              <LatitudeDegrees>36.84343448840081691741943359375</LatitudeDegrees>
              <LongitudeDegrees>-4.358297288417816162109375</LongitudeDegrees>
            </Position>
            <AltitudeMeters>965.20001220703125</AltitudeMeters>
            <DistanceMeters>NAN</DistanceMeters>
          </Trackpoint>
          <Trackpoint>
            <Time>2022-06-16T14:25:40.000Z</Time>
            <Position>
              <LatitudeDegrees>36.84340800158679485321044921875</LatitudeDegrees>
              <LongitudeDegrees>-4.35818857513368129730224609375</LongitudeDegrees>
            </Position>
            <AltitudeMeters>965</AltitudeMeters>
            <DistanceMeters>NAN</DistanceMeters>
          </Trackpoint>
          <Trackpoint>
            <Time>2022-06-16T14:25:42.000Z</Time>
            <Position>
              <LatitudeDegrees>36.84338788501918315887451171875</LatitudeDegrees>
              <LongitudeDegrees>-4.3581623397767543792724609375</LongitudeDegrees>
            </Position>
            <AltitudeMeters>964.4000244140625</AltitudeMeters>
            <DistanceMeters>NAN</DistanceMeters>
          </Trackpoint>
          <Trackpoint>
            <Time>2022-06-16T14:25:45.000Z</Time>
            <Position>
              <LatitudeDegrees>36.8433777429163455963134765625</LatitudeDegrees>
              <LongitudeDegrees>-4.35812151990830898284912109375</LongitudeDegrees>
            </Position>
            <AltitudeMeters>964.20001220703125</AltitudeMeters>
            <DistanceMeters>NAN</DistanceMeters>
          </Trackpoint>
          <Trackpoint>
            <Time>2022-06-16T14:25:52.000Z</Time>
            <Position>
              <LatitudeDegrees>36.84334530495107173919677734375</LatitudeDegrees>
              <LongitudeDegrees>-4.35801808722317218780517578125</LongitudeDegrees>
            </Position>
            <AltitudeMeters>964</AltitudeMeters>
            <DistanceMeters>NAN</DistanceMeters>
          </Trackpoint>
          <Trackpoint>
            <Time>2022-06-16T14:25:56.000Z</Time>
            <Position>
              <LatitudeDegrees>36.84332066215574741363525390625</LatitudeDegrees>
              <LongitudeDegrees>-4.3579688854515552520751953125</LongitudeDegrees>
            </Position>
            <AltitudeMeters>963.20001220703125</AltitudeMeters>
            <DistanceMeters>NAN</DistanceMeters>
          </Trackpoint>
          <Trackpoint>
            <Time>2022-06-16T14:26:02.000Z</Time>
            <Position>
              <LatitudeDegrees>36.84329048730432987213134765625</LatitudeDegrees>
              <LongitudeDegrees>-4.35788833536207675933837890625</LongitudeDegrees>
            </Position>
            <AltitudeMeters>962.4000244140625</AltitudeMeters>
            <DistanceMeters>NAN</DistanceMeters>
          </Trackpoint>
          <Trackpoint>
            <Time>2022-06-16T14:26:04.000Z</Time>
            <Position>
              <LatitudeDegrees>36.84328663162887096405029296875</LatitudeDegrees>
              <LongitudeDegrees>-4.35786402784287929534912109375</LongitudeDegrees>
            </Position>
            <AltitudeMeters>962.5999755859375</AltitudeMeters>
            <DistanceMeters>NAN</DistanceMeters>
          </Trackpoint>
          <Trackpoint>
            <Time>2022-06-16T14:26:12.000Z</Time>
            <Position>
              <LatitudeDegrees>36.843260563910007476806640625</LatitudeDegrees>
              <LongitudeDegrees>-4.3577620200812816619873046875</LongitudeDegrees>
            </Position>
            <AltitudeMeters>963</AltitudeMeters>
            <DistanceMeters>NAN</DistanceMeters>
          </Trackpoint>
          <Trackpoint>
            <Time>2022-06-16T14:26:18.000Z</Time>
            <Position>
              <LatitudeDegrees>36.843235753476619720458984375</LatitudeDegrees>
              <LongitudeDegrees>-4.3576771952211856842041015625</LongitudeDegrees>
            </Position>
            <AltitudeMeters>962.79998779296875</AltitudeMeters>
            <DistanceMeters>NAN</DistanceMeters>
          </Trackpoint>
          <Trackpoint>
            <Time>2022-06-16T14:26:22.000Z</Time>
            <Position>
              <LatitudeDegrees>36.8432225100696086883544921875</LatitudeDegrees>
              <LongitudeDegrees>-4.3576307594776153564453125</LongitudeDegrees>
            </Position>
            <AltitudeMeters>963.20001220703125</AltitudeMeters>
            <DistanceMeters>NAN</DistanceMeters>
          </Trackpoint>
          <Trackpoint>
            <Time>2022-06-16T14:26:32.000Z</Time>
            <Position>
              <LatitudeDegrees>36.843196190893650054931640625</LatitudeDegrees>
              <LongitudeDegrees>-4.357497654855251312255859375</LongitudeDegrees>
            </Position>
            <AltitudeMeters>965.4000244140625</AltitudeMeters>
            <DistanceMeters>NAN</DistanceMeters>
          </Trackpoint>
          <Trackpoint>
            <Time>2022-06-16T14:26:37.000Z</Time>
            <Position>
              <LatitudeDegrees>36.84319325722754001617431640625</LatitudeDegrees>
              <LongitudeDegrees>-4.35742934234440326690673828125</LongitudeDegrees>
            </Position>
            <AltitudeMeters>966.20001220703125</AltitudeMeters>
            <DistanceMeters>NAN</DistanceMeters>
          </Trackpoint>
          <Trackpoint>
            <Time>2022-06-16T14:26:42.000Z</Time>
            <Position>
              <LatitudeDegrees>36.84319526888430118560791015625</LatitudeDegrees>
              <LongitudeDegrees>-4.35737259685993194580078125</LongitudeDegrees>
            </Position>
            <AltitudeMeters>967.20001220703125</AltitudeMeters>
            <DistanceMeters>NAN</DistanceMeters>
          </Trackpoint>
          <Trackpoint>
            <Time>2022-06-16T14:26:45.000Z</Time>
            <Position>
              <LatitudeDegrees>36.84320398606359958648681640625</LatitudeDegrees>
              <LongitudeDegrees>-4.35733831487596035003662109375</LongitudeDegrees>
            </Position>
            <AltitudeMeters>968</AltitudeMeters>
            <DistanceMeters>NAN</DistanceMeters>
          </Trackpoint>
          <Trackpoint>
            <Time>2022-06-16T14:26:49.000Z</Time>
            <Position>
              <LatitudeDegrees>36.84319979511201381683349609375</LatitudeDegrees>
              <LongitudeDegrees>-4.35729749500751495361328125</LongitudeDegrees>
            </Position>
            <AltitudeMeters>968.5999755859375</AltitudeMeters>
            <DistanceMeters>NAN</DistanceMeters>
          </Trackpoint>
          <Trackpoint>
            <Time>2022-06-16T14:26:52.000Z</Time>
            <Position>
              <LatitudeDegrees>36.84318940155208110809326171875</LatitudeDegrees>
              <LongitudeDegrees>-4.3572631292045116424560546875</LongitudeDegrees>
            </Position>
            <AltitudeMeters>969.20001220703125</AltitudeMeters>
            <DistanceMeters>NAN</DistanceMeters>
          </Trackpoint>
          <Trackpoint>
            <Time>2022-06-16T14:27:02.000Z</Time>
            <Position>
              <LatitudeDegrees>36.843132488429546356201171875</LatitudeDegrees>
              <LongitudeDegrees>-4.35712859965860843658447265625</LongitudeDegrees>
            </Position>
            <AltitudeMeters>970.4000244140625</AltitudeMeters>
            <DistanceMeters>NAN</DistanceMeters>
          </Trackpoint>
          <Trackpoint>
            <Time>2022-06-16T14:27:12.000Z</Time>
            <Position>
              <LatitudeDegrees>36.84306685812771320343017578125</LatitudeDegrees>
              <LongitudeDegrees>-4.35701862908899784088134765625</LongitudeDegrees>
            </Position>
            <AltitudeMeters>970</AltitudeMeters>
            <DistanceMeters>NAN</DistanceMeters>
          </Trackpoint>
          <Trackpoint>
            <Time>2022-06-16T14:27:16.000Z</Time>
            <Position>
              <LatitudeDegrees>36.84304498136043548583984375</LatitudeDegrees>
              <LongitudeDegrees>-4.3569700978696346282958984375</LongitudeDegrees>
            </Position>
            <AltitudeMeters>970.20001220703125</AltitudeMeters>
            <DistanceMeters>NAN</DistanceMeters>
          </Trackpoint>
          <Trackpoint>
            <Time>2022-06-16T14:27:22.000Z</Time>
            <Position>
              <LatitudeDegrees>36.84298329055309295654296875</LatitudeDegrees>
              <LongitudeDegrees>-4.35692056082189083099365234375</LongitudeDegrees>
            </Position>
            <AltitudeMeters>969.20001220703125</AltitudeMeters>
            <DistanceMeters>NAN</DistanceMeters>
          </Trackpoint>
          <Trackpoint>
            <Time>2022-06-16T14:27:32.000Z</Time>
            <Position>
              <LatitudeDegrees>36.84292134828865528106689453125</LatitudeDegrees>
              <LongitudeDegrees>-4.356830455362796783447265625</LongitudeDegrees>
            </Position>
            <AltitudeMeters>969.5999755859375</AltitudeMeters>
            <DistanceMeters>NAN</DistanceMeters>
          </Trackpoint>
          <Trackpoint>
            <Time>2022-06-16T14:27:35.000Z</Time>
            <Position>
              <LatitudeDegrees>36.84290089644491672515869140625</LatitudeDegrees>
              <LongitudeDegrees>-4.35679667629301548004150390625</LongitudeDegrees>
            </Position>
            <AltitudeMeters>970.20001220703125</AltitudeMeters>
            <DistanceMeters>NAN</DistanceMeters>
          </Trackpoint>
          <Trackpoint>
            <Time>2022-06-16T14:27:42.000Z</Time>
            <Position>
              <LatitudeDegrees>36.84286267496645450592041015625</LatitudeDegrees>
              <LongitudeDegrees>-4.3567327223718166351318359375</LongitudeDegrees>
            </Position>
            <AltitudeMeters>971.20001220703125</AltitudeMeters>
            <DistanceMeters>NAN</DistanceMeters>
          </Trackpoint>
          <Trackpoint>
            <Time>2022-06-16T14:27:52.000Z</Time>
            <Position>
              <LatitudeDegrees>36.84277164749801158905029296875</LatitudeDegrees>
              <LongitudeDegrees>-4.35664362274110317230224609375</LongitudeDegrees>
            </Position>
            <AltitudeMeters>969.79998779296875</AltitudeMeters>
            <DistanceMeters>NAN</DistanceMeters>
          </Trackpoint>
          <Trackpoint>
            <Time>2022-06-16T14:27:57.000Z</Time>
            <Position>
              <LatitudeDegrees>36.84272822923958301544189453125</LatitudeDegrees>
              <LongitudeDegrees>-4.35657857917249202728271484375</LongitudeDegrees>
            </Position>
            <AltitudeMeters>969.20001220703125</AltitudeMeters>
            <DistanceMeters>NAN</DistanceMeters>
          </Trackpoint>
          <Trackpoint>
            <Time>2022-06-16T14:28:02.000Z</Time>
            <Position>
              <LatitudeDegrees>36.84268699027597904205322265625</LatitudeDegrees>
              <LongitudeDegrees>-4.35651839710772037506103515625</LongitudeDegrees>
            </Position>
            <AltitudeMeters>968.79998779296875</AltitudeMeters>
            <DistanceMeters>NAN</DistanceMeters>
          </Trackpoint>
          <Trackpoint>
            <Time>2022-06-16T14:28:12.000Z</Time>
            <Position>
              <LatitudeDegrees>36.84261448681354522705078125</LatitudeDegrees>
              <LongitudeDegrees>-4.35640909709036350250244140625</LongitudeDegrees>
            </Position>
            <AltitudeMeters>969</AltitudeMeters>
            <DistanceMeters>NAN</DistanceMeters>
          </Trackpoint>
          <Trackpoint>
            <Time>2022-06-16T14:28:18.000Z</Time>
            <Position>
              <LatitudeDegrees>36.84258372522890567779541015625</LatitudeDegrees>
              <LongitudeDegrees>-4.35633097775280475616455078125</LongitudeDegrees>
            </Position>
            <AltitudeMeters>970</AltitudeMeters>
            <DistanceMeters>NAN</DistanceMeters>
          </Trackpoint>
          <Trackpoint>
            <Time>2022-06-16T14:28:22.000Z</Time>
            <Position>
              <LatitudeDegrees>36.842573918402194976806640625</LatitudeDegrees>
              <LongitudeDegrees>-4.35628001578152179718017578125</LongitudeDegrees>
            </Position>
            <AltitudeMeters>971</AltitudeMeters>
            <DistanceMeters>NAN</DistanceMeters>
          </Trackpoint>
          <Trackpoint>
            <Time>2022-06-16T14:28:32.000Z</Time>
            <Position>
              <LatitudeDegrees>36.84254500083625316619873046875</LatitudeDegrees>
              <LongitudeDegrees>-4.35614841990172863006591796875</LongitudeDegrees>
            </Position>
            <AltitudeMeters>973.20001220703125</AltitudeMeters>
            <DistanceMeters>NAN</DistanceMeters>
          </Trackpoint>
          <Trackpoint>
            <Time>2022-06-16T14:28:42.000Z</Time>
            <Position>
              <LatitudeDegrees>36.8424862436950206756591796875</LatitudeDegrees>
              <LongitudeDegrees>-4.356041885912418365478515625</LongitudeDegrees>
            </Position>
            <AltitudeMeters>975.4000244140625</AltitudeMeters>
            <DistanceMeters>NAN</DistanceMeters>
          </Trackpoint>
          <Trackpoint>
            <Time>2022-06-16T14:28:45.000Z</Time>
            <Position>
              <LatitudeDegrees>36.84247727505862712860107421875</LatitudeDegrees>
              <LongitudeDegrees>-4.35599796473979949951171875</LongitudeDegrees>
            </Position>
            <AltitudeMeters>976.5999755859375</AltitudeMeters>
            <DistanceMeters>NAN</DistanceMeters>
          </Trackpoint>
          <Trackpoint>
            <Time>2022-06-16T14:28:52.000Z</Time>
            <Position>
              <LatitudeDegrees>36.84243737719953060150146484375</LatitudeDegrees>
              <LongitudeDegrees>-4.3559394590556621551513671875</LongitudeDegrees>
            </Position>
            <AltitudeMeters>977.79998779296875</AltitudeMeters>
            <DistanceMeters>NAN</DistanceMeters>
          </Trackpoint>
          <Trackpoint>
            <Time>2022-06-16T14:29:02.000Z</Time>
            <Position>
              <LatitudeDegrees>36.84237618930637836456298828125</LatitudeDegrees>
              <LongitudeDegrees>-4.35582496225833892822265625</LongitudeDegrees>
            </Position>
            <AltitudeMeters>980.4000244140625</AltitudeMeters>
            <DistanceMeters>NAN</DistanceMeters>
          </Trackpoint>
          <Trackpoint>
            <Time>2022-06-16T14:29:03.000Z</Time>
            <Position>
              <LatitudeDegrees>36.8423668853938579559326171875</LatitudeDegrees>
              <LongitudeDegrees>-4.35581482015550136566162109375</LongitudeDegrees>
            </Position>
            <AltitudeMeters>980.4000244140625</AltitudeMeters>
            <DistanceMeters>NAN</DistanceMeters>
          </Trackpoint>
          <Trackpoint>
            <Time>2022-06-16T14:29:12.000Z</Time>
            <Position>
              <LatitudeDegrees>36.84228130616247653961181640625</LatitudeDegrees>
              <LongitudeDegrees>-4.3557590804994106292724609375</LongitudeDegrees>
            </Position>
            <AltitudeMeters>981</AltitudeMeters>
            <DistanceMeters>NAN</DistanceMeters>
          </Trackpoint>
          <Trackpoint>
            <Time>2022-06-16T14:29:20.000Z</Time>
            <Position>
              <LatitudeDegrees>36.8421982415020465850830078125</LatitudeDegrees>
              <LongitudeDegrees>-4.3557077832520008087158203125</LongitudeDegrees>
            </Position>
            <AltitudeMeters>982</AltitudeMeters>
            <DistanceMeters>NAN</DistanceMeters>
          </Trackpoint>
          <Trackpoint>
            <Time>2022-06-16T14:29:22.000Z</Time>
            <Position>
              <LatitudeDegrees>36.84217535890638828277587890625</LatitudeDegrees>
              <LongitudeDegrees>-4.35569914989173412322998046875</LongitudeDegrees>
            </Position>
            <AltitudeMeters>982.20001220703125</AltitudeMeters>
            <DistanceMeters>NAN</DistanceMeters>
          </Trackpoint>
          <Trackpoint>
            <Time>2022-06-16T14:29:32.000Z</Time>
            <Position>
              <LatitudeDegrees>36.84209673665463924407958984375</LatitudeDegrees>
              <LongitudeDegrees>-4.35565371997654438018798828125</LongitudeDegrees>
            </Position>
            <AltitudeMeters>983.4000244140625</AltitudeMeters>
            <DistanceMeters>NAN</DistanceMeters>
          </Trackpoint>
          <Trackpoint>
            <Time>2022-06-16T14:29:42.000Z</Time>
            <Position>
              <LatitudeDegrees>36.84203890152275562286376953125</LatitudeDegrees>
              <LongitudeDegrees>-4.35560175217688083648681640625</LongitudeDegrees>
            </Position>
            <AltitudeMeters>985.20001220703125</AltitudeMeters>
            <DistanceMeters>NAN</DistanceMeters>
          </Trackpoint>
          <Trackpoint>
            <Time>2022-06-16T14:29:49.000Z</Time>
            <Position>
              <LatitudeDegrees>36.841983161866664886474609375</LatitudeDegrees>
              <LongitudeDegrees>-4.355545006692409515380859375</LongitudeDegrees>
            </Position>
            <AltitudeMeters>987.4000244140625</AltitudeMeters>
            <DistanceMeters>NAN</DistanceMeters>
          </Trackpoint>
          <Trackpoint>
            <Time>2022-06-16T14:29:52.000Z</Time>
            <Position>
              <LatitudeDegrees>36.8419451080262660980224609375</LatitudeDegrees>
              <LongitudeDegrees>-4.35552145354449748992919921875</LongitudeDegrees>
            </Position>
            <AltitudeMeters>988</AltitudeMeters>
            <DistanceMeters>NAN</DistanceMeters>
          </Trackpoint>
          <Trackpoint>
            <Time>2022-06-16T14:30:02.000Z</Time>
            <Position>
              <LatitudeDegrees>36.84185785241425037384033203125</LatitudeDegrees>
              <LongitudeDegrees>-4.3554596789181232452392578125</LongitudeDegrees>
            </Position>
            <AltitudeMeters>989</AltitudeMeters>
            <DistanceMeters>NAN</DistanceMeters>
          </Trackpoint>
          <Trackpoint>
            <Time>2022-06-16T14:30:03.000Z</Time>
            <Position>
              <LatitudeDegrees>36.841845698654651641845703125</LatitudeDegrees>
              <LongitudeDegrees>-4.3554554879665374755859375</LongitudeDegrees>
            </Position>
            <AltitudeMeters>989.20001220703125</AltitudeMeters>
            <DistanceMeters>NAN</DistanceMeters>
          </Trackpoint>
          <Trackpoint>
            <Time>2022-06-16T14:30:12.000Z</Time>
            <Position>
              <LatitudeDegrees>36.8417318724095821380615234375</LatitudeDegrees>
              <LongitudeDegrees>-4.3554251454770565032958984375</LongitudeDegrees>
            </Position>
            <AltitudeMeters>990.5999755859375</AltitudeMeters>
            <DistanceMeters>NAN</DistanceMeters>
          </Trackpoint>
          <Trackpoint>
            <Time>2022-06-16T14:30:20.000Z</Time>
            <Position>
              <LatitudeDegrees>36.8416768871247768402099609375</LatitudeDegrees>
              <LongitudeDegrees>-4.3554241396486759185791015625</LongitudeDegrees>
            </Position>
            <AltitudeMeters>990.5999755859375</AltitudeMeters>
            <DistanceMeters>NAN</DistanceMeters>
          </Trackpoint>
          <Trackpoint>
            <Time>2022-06-16T14:30:22.000Z</Time>
            <Position>
              <LatitudeDegrees>36.8416497297585010528564453125</LatitudeDegrees>
              <LongitudeDegrees>-4.3554246425628662109375</LongitudeDegrees>
            </Position>
            <AltitudeMeters>990.5999755859375</AltitudeMeters>
            <DistanceMeters>NAN</DistanceMeters>
          </Trackpoint>
          <Trackpoint>
            <Time>2022-06-16T14:30:23.000Z</Time>
            <Position>
              <LatitudeDegrees>36.84163942001760005950927734375</LatitudeDegrees>
              <LongitudeDegrees>-4.355429001152515411376953125</LongitudeDegrees>
            </Position>
            <AltitudeMeters>990.4000244140625</AltitudeMeters>
            <DistanceMeters>NAN</DistanceMeters>
          </Trackpoint>
          <Trackpoint>
            <Time>2022-06-16T14:30:32.000Z</Time>
            <Position>
              <LatitudeDegrees>36.8415561877191066741943359375</LatitudeDegrees>
              <LongitudeDegrees>-4.35540913604199886322021484375</LongitudeDegrees>
            </Position>
            <AltitudeMeters>991</AltitudeMeters>
            <DistanceMeters>NAN</DistanceMeters>
          </Trackpoint>
          <Trackpoint>
            <Time>2022-06-16T14:30:42.000Z</Time>
            <Position>
              <LatitudeDegrees>36.8414773978292942047119140625</LatitudeDegrees>
              <LongitudeDegrees>-4.35540695674717426300048828125</LongitudeDegrees>
            </Position>
            <AltitudeMeters>991</AltitudeMeters>
            <DistanceMeters>NAN</DistanceMeters>
          </Trackpoint>
          <Trackpoint>
            <Time>2022-06-16T14:30:52.000Z</Time>
            <Position>
              <LatitudeDegrees>36.8413979373872280120849609375</LatitudeDegrees>
              <LongitudeDegrees>-4.3553711660206317901611328125</LongitudeDegrees>
            </Position>
            <AltitudeMeters>992.5999755859375</AltitudeMeters>
            <DistanceMeters>NAN</DistanceMeters>
          </Trackpoint>
          <Trackpoint>
            <Time>2022-06-16T14:31:02.000Z</Time>
            <Position>
              <LatitudeDegrees>36.84131990186870098114013671875</LatitudeDegrees>
              <LongitudeDegrees>-4.3553557433187961578369140625</LongitudeDegrees>
            </Position>
            <AltitudeMeters>993.5999755859375</AltitudeMeters>
            <DistanceMeters>NAN</DistanceMeters>
          </Trackpoint>
          <Trackpoint>
            <Time>2022-06-16T14:31:07.000Z</Time>
            <Position>
              <LatitudeDegrees>36.8412765674293041229248046875</LatitudeDegrees>
              <LongitudeDegrees>-4.3553329445421695709228515625</LongitudeDegrees>
            </Position>
            <AltitudeMeters>994.79998779296875</AltitudeMeters>
            <DistanceMeters>NAN</DistanceMeters>
          </Trackpoint>
          <Trackpoint>
            <Time>2022-06-16T14:31:12.000Z</Time>
            <Position>
              <LatitudeDegrees>36.84122049249708652496337890625</LatitudeDegrees>
              <LongitudeDegrees>-4.3553051166236400604248046875</LongitudeDegrees>
            </Position>
            <AltitudeMeters>996.20001220703125</AltitudeMeters>
            <DistanceMeters>NAN</DistanceMeters>
          </Trackpoint>
          <Trackpoint>
            <Time>2022-06-16T14:31:22.000Z</Time>
            <Position>
              <LatitudeDegrees>36.841124854981899261474609375</LatitudeDegrees>
              <LongitudeDegrees>-4.35530201531946659088134765625</LongitudeDegrees>
            </Position>
            <AltitudeMeters>997.5999755859375</AltitudeMeters>
            <DistanceMeters>NAN</DistanceMeters>
          </Trackpoint>
          <Trackpoint>
            <Time>2022-06-16T14:31:32.000Z</Time>
            <Position>
              <LatitudeDegrees>36.84103525243699550628662109375</LatitudeDegrees>
              <LongitudeDegrees>-4.35529614798724651336669921875</LongitudeDegrees>
            </Position>
            <AltitudeMeters>998.79998779296875</AltitudeMeters>
            <DistanceMeters>NAN</DistanceMeters>
          </Trackpoint>
          <Trackpoint>
            <Time>2022-06-16T14:31:42.000Z</Time>
            <Position>
              <LatitudeDegrees>36.84094078838825225830078125</LatitudeDegrees>
              <LongitudeDegrees>-4.35528994537889957427978515625</LongitudeDegrees>
            </Position>
            <AltitudeMeters>1000</AltitudeMeters>
            <DistanceMeters>NAN</DistanceMeters>
          </Trackpoint>
          <Trackpoint>
            <Time>2022-06-16T14:31:52.000Z</Time>
            <Position>
              <LatitudeDegrees>36.84084079228341579437255859375</LatitudeDegrees>
              <LongitudeDegrees>-4.355255663394927978515625</LongitudeDegrees>
            </Position>
            <AltitudeMeters>1001.79998779296875</AltitudeMeters>
            <DistanceMeters>NAN</DistanceMeters>
          </Trackpoint>
          <Trackpoint>
            <Time>2022-06-16T14:31:57.000Z</Time>
            <Position>
              <LatitudeDegrees>36.84078463353216648101806640625</LatitudeDegrees>
              <LongitudeDegrees>-4.3552407436072826385498046875</LongitudeDegrees>
            </Position>
            <AltitudeMeters>1002.79998779296875</AltitudeMeters>
            <DistanceMeters>NAN</DistanceMeters>
          </Trackpoint>
          <Trackpoint>
            <Time>2022-06-16T14:32:02.000Z</Time>
            <Position>
              <LatitudeDegrees>36.84074356220662593841552734375</LatitudeDegrees>
              <LongitudeDegrees>-4.35524292290210723876953125</LongitudeDegrees>
            </Position>
            <AltitudeMeters>1003</AltitudeMeters>
            <DistanceMeters>NAN</DistanceMeters>
          </Trackpoint>
          <Trackpoint>
            <Time>2022-06-16T14:32:12.000Z</Time>
            <Position>
              <LatitudeDegrees>36.8406395427882671356201171875</LatitudeDegrees>
              <LongitudeDegrees>-4.35522548854351043701171875</LongitudeDegrees>
            </Position>
            <AltitudeMeters>1004.20001220703125</AltitudeMeters>
            <DistanceMeters>NAN</DistanceMeters>
          </Trackpoint>
          <Trackpoint>
            <Time>2022-06-16T14:32:22.000Z</Time>
            <Position>
              <LatitudeDegrees>36.840543486177921295166015625</LatitudeDegrees>
              <LongitudeDegrees>-4.35516991652548313140869140625</LongitudeDegrees>
            </Position>
            <AltitudeMeters>1004.4000244140625</AltitudeMeters>
            <DistanceMeters>NAN</DistanceMeters>
          </Trackpoint>
          <Trackpoint>
            <Time>2022-06-16T14:32:30.000Z</Time>
            <Position>
              <LatitudeDegrees>36.84045941568911075592041015625</LatitudeDegrees>
              <LongitudeDegrees>-4.35511610470712184906005859375</LongitudeDegrees>
            </Position>
            <AltitudeMeters>1004.79998779296875</AltitudeMeters>
            <DistanceMeters>NAN</DistanceMeters>
          </Trackpoint>
          <Trackpoint>
            <Time>2022-06-16T14:32:32.000Z</Time>
            <Position>
              <LatitudeDegrees>36.8404398858547210693359375</LatitudeDegrees>
              <LongitudeDegrees>-4.3551066331565380096435546875</LongitudeDegrees>
            </Position>
            <AltitudeMeters>1005</AltitudeMeters>
            <DistanceMeters>NAN</DistanceMeters>
          </Trackpoint>
          <Trackpoint>
            <Time>2022-06-16T14:32:42.000Z</Time>
            <Position>
              <LatitudeDegrees>36.84033385477960109710693359375</LatitudeDegrees>
              <LongitudeDegrees>-4.35508727096021175384521484375</LongitudeDegrees>
            </Position>
            <AltitudeMeters>1005</AltitudeMeters>
            <DistanceMeters>NAN</DistanceMeters>
          </Trackpoint>
          <Trackpoint>
            <Time>2022-06-16T14:32:52.000Z</Time>
            <Position>
              <LatitudeDegrees>36.840241067111492156982421875</LatitudeDegrees>
              <LongitudeDegrees>-4.35504318214952945709228515625</LongitudeDegrees>
            </Position>
            <AltitudeMeters>1005.4000244140625</AltitudeMeters>
            <DistanceMeters>NAN</DistanceMeters>
          </Trackpoint>
          <Trackpoint>
            <Time>2022-06-16T14:33:02.000Z</Time>
            <Position>
              <LatitudeDegrees>36.84013889171183109283447265625</LatitudeDegrees>
              <LongitudeDegrees>-4.35497562400996685028076171875</LongitudeDegrees>
            </Position>
            <AltitudeMeters>1006</AltitudeMeters>
            <DistanceMeters>NAN</DistanceMeters>
          </Trackpoint>
          <Trackpoint>
            <Time>2022-06-16T14:33:12.000Z</Time>
            <Position>
              <LatitudeDegrees>36.8400440923869609832763671875</LatitudeDegrees>
              <LongitudeDegrees>-4.35487638227641582489013671875</LongitudeDegrees>
            </Position>
            <AltitudeMeters>1006.4000244140625</AltitudeMeters>
            <DistanceMeters>NAN</DistanceMeters>
          </Trackpoint>
          <Trackpoint>
            <Time>2022-06-16T14:33:22.000Z</Time>
            <Position>
              <LatitudeDegrees>36.839943341910839080810546875</LatitudeDegrees>
              <LongitudeDegrees>-4.354804717004299163818359375</LongitudeDegrees>
            </Position>
            <AltitudeMeters>1006</AltitudeMeters>
            <DistanceMeters>NAN</DistanceMeters>
          </Trackpoint>
          <Trackpoint>
            <Time>2022-06-16T14:33:25.000Z</Time>
            <Position>
              <LatitudeDegrees>36.83991945348680019378662109375</LatitudeDegrees>
              <LongitudeDegrees>-4.35480111278593540191650390625</LongitudeDegrees>
            </Position>
            <AltitudeMeters>1005.79998779296875</AltitudeMeters>
            <DistanceMeters>NAN</DistanceMeters>
          </Trackpoint>
          <Trackpoint>
            <Time>2022-06-16T14:33:32.000Z</Time>
            <Position>
              <LatitudeDegrees>36.83984971605241298675537109375</LatitudeDegrees>
              <LongitudeDegrees>-4.354765154421329498291015625</LongitudeDegrees>
            </Position>
            <AltitudeMeters>1005.20001220703125</AltitudeMeters>
            <DistanceMeters>NAN</DistanceMeters>
          </Trackpoint>
          <Trackpoint>
            <Time>2022-06-16T14:33:34.000Z</Time>
            <Position>
              <LatitudeDegrees>36.839832700788974761962890625</LatitudeDegrees>
              <LongitudeDegrees>-4.35475702397525310516357421875</LongitudeDegrees>
            </Position>
            <AltitudeMeters>1005.20001220703125</AltitudeMeters>
            <DistanceMeters>NAN</DistanceMeters>
          </Trackpoint>
          <Trackpoint>
            <Time>2022-06-16T14:33:39.000Z</Time>
            <Position>
              <LatitudeDegrees>36.8397653102874755859375</LatitudeDegrees>
              <LongitudeDegrees>-4.3547659926116466522216796875</LongitudeDegrees>
            </Position>
            <AltitudeMeters>1004.4000244140625</AltitudeMeters>
            <DistanceMeters>NAN</DistanceMeters>
          </Trackpoint>
          <Trackpoint>
            <Time>2022-06-16T14:33:42.000Z</Time>
            <Position>
              <LatitudeDegrees>36.839730106294155120849609375</LatitudeDegrees>
              <LongitudeDegrees>-4.35477110557258129119873046875</LongitudeDegrees>
            </Position>
            <AltitudeMeters>1004</AltitudeMeters>
            <DistanceMeters>NAN</DistanceMeters>
          </Trackpoint>
          <Trackpoint>
            <Time>2022-06-16T14:33:52.000Z</Time>
            <Position>
              <LatitudeDegrees>36.83961116708815097808837890625</LatitudeDegrees>
              <LongitudeDegrees>-4.3547795712947845458984375</LongitudeDegrees>
            </Position>
            <AltitudeMeters>1003.5999755859375</AltitudeMeters>
            <DistanceMeters>NAN</DistanceMeters>
          </Trackpoint>
          <Trackpoint>
            <Time>2022-06-16T14:34:02.000Z</Time>
            <Position>
              <LatitudeDegrees>36.8394664116203784942626953125</LatitudeDegrees>
              <LongitudeDegrees>-4.35473707504570484161376953125</LongitudeDegrees>
            </Position>
            <AltitudeMeters>1003</AltitudeMeters>
            <DistanceMeters>NAN</DistanceMeters>
          </Trackpoint>
          <Trackpoint>
            <Time>2022-06-16T14:34:05.000Z</Time>
            <Position>
              <LatitudeDegrees>36.83943229727447032928466796875</LatitudeDegrees>
              <LongitudeDegrees>-4.35472098179161548614501953125</LongitudeDegrees>
            </Position>
            <AltitudeMeters>1003</AltitudeMeters>
            <DistanceMeters>NAN</DistanceMeters>
          </Trackpoint>
          <Trackpoint>
            <Time>2022-06-16T14:34:06.000Z</Time>
            <Position>
              <LatitudeDegrees>36.839420311152935028076171875</LatitudeDegrees>
              <LongitudeDegrees>-4.35471452772617340087890625</LongitudeDegrees>
            </Position>
            <AltitudeMeters>1003</AltitudeMeters>
            <DistanceMeters>NAN</DistanceMeters>
          </Trackpoint>
          <Trackpoint>
            <Time>2022-06-16T14:34:07.000Z</Time>
            <Position>
              <LatitudeDegrees>36.839406900107860565185546875</LatitudeDegrees>
              <LongitudeDegrees>-4.35470606200397014617919921875</LongitudeDegrees>
            </Position>
            <AltitudeMeters>1003</AltitudeMeters>
            <DistanceMeters>NAN</DistanceMeters>
          </Trackpoint>
          <Trackpoint>
            <Time>2022-06-16T14:34:12.000Z</Time>
            <Position>
              <LatitudeDegrees>36.83935652486979961395263671875</LatitudeDegrees>
              <LongitudeDegrees>-4.35467018745839595794677734375</LongitudeDegrees>
            </Position>
            <AltitudeMeters>1003.20001220703125</AltitudeMeters>
            <DistanceMeters>NAN</DistanceMeters>
          </Trackpoint>
          <Trackpoint>
            <Time>2022-06-16T14:34:20.000Z</Time>
            <Position>
              <LatitudeDegrees>36.83928175829350948333740234375</LatitudeDegrees>
              <LongitudeDegrees>-4.3546245060861110687255859375</LongitudeDegrees>
            </Position>
            <AltitudeMeters>1003.20001220703125</AltitudeMeters>
            <DistanceMeters>NAN</DistanceMeters>
          </Trackpoint>
          <Trackpoint>
            <Time>2022-06-16T14:34:22.000Z</Time>
            <Position>
              <LatitudeDegrees>36.83925895951688289642333984375</LatitudeDegrees>
              <LongitudeDegrees>-4.35462341643869876861572265625</LongitudeDegrees>
            </Position>
            <AltitudeMeters>1002.79998779296875</AltitudeMeters>
            <DistanceMeters>NAN</DistanceMeters>
          </Trackpoint>
          <Trackpoint>
            <Time>2022-06-16T14:34:30.000Z</Time>
            <Position>
              <LatitudeDegrees>36.8391616456210613250732421875</LatitudeDegrees>
              <LongitudeDegrees>-4.35459508560597896575927734375</LongitudeDegrees>
            </Position>
            <AltitudeMeters>1001.4000244140625</AltitudeMeters>
            <DistanceMeters>NAN</DistanceMeters>
          </Trackpoint>
          <Trackpoint>
            <Time>2022-06-16T14:34:31.000Z</Time>
            <Position>
              <LatitudeDegrees>36.83915150351822376251220703125</LatitudeDegrees>
              <LongitudeDegrees>-4.35459039174020290374755859375</LongitudeDegrees>
            </Position>
            <AltitudeMeters>1001.4000244140625</AltitudeMeters>
            <DistanceMeters>NAN</DistanceMeters>
          </Trackpoint>
          <Trackpoint>
            <Time>2022-06-16T14:34:32.000Z</Time>
            <Position>
              <LatitudeDegrees>36.83914245106279850006103515625</LatitudeDegrees>
              <LongitudeDegrees>-4.35458821244537830352783203125</LongitudeDegrees>
            </Position>
            <AltitudeMeters>1001.20001220703125</AltitudeMeters>
            <DistanceMeters>NAN</DistanceMeters>
          </Trackpoint>
          <Trackpoint>
            <Time>2022-06-16T14:34:33.000Z</Time>
            <Position>
              <LatitudeDegrees>36.839129626750946044921875</LatitudeDegrees>
              <LongitudeDegrees>-4.35458687134087085723876953125</LongitudeDegrees>
            </Position>
            <AltitudeMeters>1001</AltitudeMeters>
            <DistanceMeters>NAN</DistanceMeters>
          </Trackpoint>
          <Trackpoint>
            <Time>2022-06-16T14:34:34.000Z</Time>
            <Position>
              <LatitudeDegrees>36.8391183950006961822509765625</LatitudeDegrees>
              <LongitudeDegrees>-4.35458687134087085723876953125</LongitudeDegrees>
            </Position>
            <AltitudeMeters>1000.79998779296875</AltitudeMeters>
            <DistanceMeters>NAN</DistanceMeters>
          </Trackpoint>
          <Trackpoint>
            <Time>2022-06-16T14:34:39.000Z</Time>
            <Position>
              <LatitudeDegrees>36.83904337696731090545654296875</LatitudeDegrees>
              <LongitudeDegrees>-4.35458335094153881072998046875</LongitudeDegrees>
            </Position>
            <AltitudeMeters>999.5999755859375</AltitudeMeters>
            <DistanceMeters>NAN</DistanceMeters>
          </Trackpoint>
          <Trackpoint>
            <Time>2022-06-16T14:34:41.000Z</Time>
            <Position>
              <LatitudeDegrees>36.83901630342006683349609375</LatitudeDegrees>
              <LongitudeDegrees>-4.35456407256424427032470703125</LongitudeDegrees>
            </Position>
            <AltitudeMeters>999.5999755859375</AltitudeMeters>
            <DistanceMeters>NAN</DistanceMeters>
          </Trackpoint>
          <Trackpoint>
            <Time>2022-06-16T14:34:42.000Z</Time>
            <Position>
              <LatitudeDegrees>36.8390020541846752166748046875</LatitudeDegrees>
              <LongitudeDegrees>-4.3545540980994701385498046875</LongitudeDegrees>
            </Position>
            <AltitudeMeters>999.5999755859375</AltitudeMeters>
            <DistanceMeters>NAN</DistanceMeters>
          </Trackpoint>
          <Trackpoint>
            <Time>2022-06-16T14:34:45.000Z</Time>
            <Position>
              <LatitudeDegrees>36.83895771391689777374267578125</LatitudeDegrees>
              <LongitudeDegrees>-4.354543201625347137451171875</LongitudeDegrees>
            </Position>
            <AltitudeMeters>999.4000244140625</AltitudeMeters>
            <DistanceMeters>NAN</DistanceMeters>
          </Trackpoint>
          <Trackpoint>
            <Time>2022-06-16T14:34:52.000Z</Time>
            <Position>
              <LatitudeDegrees>36.83886115439236164093017578125</LatitudeDegrees>
              <LongitudeDegrees>-4.35454328544437885284423828125</LongitudeDegrees>
            </Position>
            <AltitudeMeters>999.4000244140625</AltitudeMeters>
            <DistanceMeters>NAN</DistanceMeters>
          </Trackpoint>
          <Trackpoint>
            <Time>2022-06-16T14:34:58.000Z</Time>
            <Position>
              <LatitudeDegrees>36.83878286741673946380615234375</LatitudeDegrees>
              <LongitudeDegrees>-4.35453725047409534454345703125</LongitudeDegrees>
            </Position>
            <AltitudeMeters>998.79998779296875</AltitudeMeters>
            <DistanceMeters>NAN</DistanceMeters>
          </Trackpoint>
          <Trackpoint>
            <Time>2022-06-16T14:35:02.000Z</Time>
            <Position>
              <LatitudeDegrees>36.83873643167316913604736328125</LatitudeDegrees>
              <LongitudeDegrees>-4.35452048666775226593017578125</LongitudeDegrees>
            </Position>
            <AltitudeMeters>998.4000244140625</AltitudeMeters>
            <DistanceMeters>NAN</DistanceMeters>
          </Trackpoint>
          <Trackpoint>
            <Time>2022-06-16T14:35:12.000Z</Time>
            <Position>
              <LatitudeDegrees>36.838631741702556610107421875</LatitudeDegrees>
              <LongitudeDegrees>-4.3544987775385379791259765625</LongitudeDegrees>
            </Position>
            <AltitudeMeters>998.5999755859375</AltitudeMeters>
            <DistanceMeters>NAN</DistanceMeters>
          </Trackpoint>
          <Trackpoint>
            <Time>2022-06-16T14:35:22.000Z</Time>
            <Position>
              <LatitudeDegrees>36.83860567398369312286376953125</LatitudeDegrees>
              <LongitudeDegrees>-4.3545262701809406280517578125</LongitudeDegrees>
            </Position>
            <AltitudeMeters>998.4000244140625</AltitudeMeters>
            <DistanceMeters>NAN</DistanceMeters>
          </Trackpoint>
          <Trackpoint>
            <Time>2022-06-16T14:37:00Z</Time>
            <Position>
              <LatitudeDegrees>36.8373910</LatitudeDegrees>
              <LongitudeDegrees>-4.3544340</LongitudeDegrees>
            </Position>
            <AltitudeMeters>983.4</AltitudeMeters>
            <DistanceMeters>NAN</DistanceMeters>
          </Trackpoint>
          <Trackpoint>
            <Time>2022-06-16T14:37:14Z</Time>
            <Position>
              <LatitudeDegrees>36.8372240</LatitudeDegrees>
              <LongitudeDegrees>-4.3543910</LongitudeDegrees>
            </Position>
            <AltitudeMeters>982.5</AltitudeMeters>
            <DistanceMeters>NAN</DistanceMeters>
          </Trackpoint>
          <Trackpoint>
            <Time>2022-06-16T14:37:29Z</Time>
            <Position>
              <LatitudeDegrees>36.8370490</LatitudeDegrees>
              <LongitudeDegrees>-4.3543200</LongitudeDegrees>
            </Position>
            <AltitudeMeters>981.7</AltitudeMeters>
            <DistanceMeters>NAN</DistanceMeters>
          </Trackpoint>
          <Trackpoint>
            <Time>2022-06-16T14:37:36Z</Time>
            <Position>
              <LatitudeDegrees>36.8370050</LatitudeDegrees>
              <LongitudeDegrees>-4.3542940</LongitudeDegrees>
            </Position>
            <AltitudeMeters>981.4</AltitudeMeters>
            <DistanceMeters>NAN</DistanceMeters>
          </Trackpoint>
          <Trackpoint>
            <Time>2022-06-16T14:37:44Z</Time>
            <Position>
              <LatitudeDegrees>36.8369790</LatitudeDegrees>
              <LongitudeDegrees>-4.3543170</LongitudeDegrees>
            </Position>
            <AltitudeMeters>981.3</AltitudeMeters>
            <DistanceMeters>NAN</DistanceMeters>
          </Trackpoint>
          <Trackpoint>
            <Time>2022-06-16T14:37:46Z</Time>
            <Position>
              <LatitudeDegrees>36.8369780</LatitudeDegrees>
              <LongitudeDegrees>-4.3543180</LongitudeDegrees>
            </Position>
            <AltitudeMeters>981.3</AltitudeMeters>
            <DistanceMeters>NAN</DistanceMeters>
          </Trackpoint>
          <Trackpoint>
            <Time>2022-06-16T14:37:49Z</Time>
            <Position>
              <LatitudeDegrees>36.8369910</LatitudeDegrees>
              <LongitudeDegrees>-4.3543150</LongitudeDegrees>
            </Position>
            <AltitudeMeters>981.2</AltitudeMeters>
            <DistanceMeters>NAN</DistanceMeters>
          </Trackpoint>
          <Trackpoint>
            <Time>2022-06-16T14:37:50Z</Time>
            <Position>
              <LatitudeDegrees>36.8369990</LatitudeDegrees>
              <LongitudeDegrees>-4.3543170</LongitudeDegrees>
            </Position>
            <AltitudeMeters>981.2</AltitudeMeters>
            <DistanceMeters>NAN</DistanceMeters>
          </Trackpoint>
          <Trackpoint>
            <Time>2022-06-16T14:38:02Z</Time>
            <Position>
              <LatitudeDegrees>36.8371140</LatitudeDegrees>
              <LongitudeDegrees>-4.3543710</LongitudeDegrees>
            </Position>
            <AltitudeMeters>980.6</AltitudeMeters>
            <DistanceMeters>NAN</DistanceMeters>
          </Trackpoint>
          <Trackpoint>
            <Time>2022-06-16T14:38:04Z</Time>
            <Position>
              <LatitudeDegrees>36.8371280</LatitudeDegrees>
              <LongitudeDegrees>-4.3543860</LongitudeDegrees>
            </Position>
            <AltitudeMeters>980.5</AltitudeMeters>
            <DistanceMeters>NAN</DistanceMeters>
          </Trackpoint>
          <Trackpoint>
            <Time>2022-06-16T14:38:07Z</Time>
            <Position>
              <LatitudeDegrees>36.8371370</LatitudeDegrees>
              <LongitudeDegrees>-4.3544170</LongitudeDegrees>
            </Position>
            <AltitudeMeters>980.4</AltitudeMeters>
            <DistanceMeters>NAN</DistanceMeters>
          </Trackpoint>
          <Trackpoint>
            <Time>2022-06-16T14:38:20Z</Time>
            <Position>
              <LatitudeDegrees>36.8371100</LatitudeDegrees>
              <LongitudeDegrees>-4.3545320</LongitudeDegrees>
            </Position>
            <AltitudeMeters>979.7</AltitudeMeters>
            <DistanceMeters>NAN</DistanceMeters>
          </Trackpoint>
          <Trackpoint>
            <Time>2022-06-16T14:38:42Z</Time>
            <Position>
              <LatitudeDegrees>36.8369550</LatitudeDegrees>
              <LongitudeDegrees>-4.3546500</LongitudeDegrees>
            </Position>
            <AltitudeMeters>979.2</AltitudeMeters>
            <DistanceMeters>NAN</DistanceMeters>
          </Trackpoint>
          <Trackpoint>
            <Time>2022-06-16T14:38:44Z</Time>
            <Position>
              <LatitudeDegrees>36.8369330</LatitudeDegrees>
              <LongitudeDegrees>-4.3546690</LongitudeDegrees>
            </Position>
            <AltitudeMeters>979.1</AltitudeMeters>
            <DistanceMeters>NAN</DistanceMeters>
          </Trackpoint>
          <Trackpoint>
            <Time>2022-06-16T14:38:56Z</Time>
            <Position>
              <LatitudeDegrees>36.8367770</LatitudeDegrees>
              <LongitudeDegrees>-4.3547560</LongitudeDegrees>
            </Position>
            <AltitudeMeters>978.4</AltitudeMeters>
            <DistanceMeters>NAN</DistanceMeters>
          </Trackpoint>
          <Trackpoint>
            <Time>2022-06-16T14:38:57Z</Time>
            <Position>
              <LatitudeDegrees>36.8367630</LatitudeDegrees>
              <LongitudeDegrees>-4.3547590</LongitudeDegrees>
            </Position>
            <AltitudeMeters>978.3</AltitudeMeters>
            <DistanceMeters>NAN</DistanceMeters>
          </Trackpoint>
          <Trackpoint>
            <Time>2022-06-16T14:39:00Z</Time>
            <Position>
              <LatitudeDegrees>36.8367140</LatitudeDegrees>
              <LongitudeDegrees>-4.3547570</LongitudeDegrees>
            </Position>
            <AltitudeMeters>977.9</AltitudeMeters>
            <DistanceMeters>NAN</DistanceMeters>
          </Trackpoint>
          <Trackpoint>
            <Time>2022-06-16T14:39:09Z</Time>
            <Position>
              <LatitudeDegrees>36.8365850</LatitudeDegrees>
              <LongitudeDegrees>-4.3547760</LongitudeDegrees>
            </Position>
            <AltitudeMeters>977.0</AltitudeMeters>
            <DistanceMeters>NAN</DistanceMeters>
          </Trackpoint>
          <Trackpoint>
            <Time>2022-06-16T14:39:24Z</Time>
            <Position>
              <LatitudeDegrees>36.8364180</LatitudeDegrees>
              <LongitudeDegrees>-4.3547700</LongitudeDegrees>
            </Position>
            <AltitudeMeters>975.8</AltitudeMeters>
            <DistanceMeters>NAN</DistanceMeters>
          </Trackpoint>
          <Trackpoint>
            <Time>2022-06-16T14:39:37Z</Time>
            <Position>
              <LatitudeDegrees>36.8362380</LatitudeDegrees>
              <LongitudeDegrees>-4.3548040</LongitudeDegrees>
            </Position>
            <AltitudeMeters>974.2</AltitudeMeters>
            <DistanceMeters>NAN</DistanceMeters>
          </Trackpoint>
          <Trackpoint>
            <Time>2022-06-16T14:39:51Z</Time>
            <Position>
              <LatitudeDegrees>36.8360590</LatitudeDegrees>
              <LongitudeDegrees>-4.3548650</LongitudeDegrees>
            </Position>
            <AltitudeMeters>972.5</AltitudeMeters>
            <DistanceMeters>NAN</DistanceMeters>
          </Trackpoint>
          <Trackpoint>
            <Time>2022-06-16T14:40:06Z</Time>
            <Position>
              <LatitudeDegrees>36.8358850</LatitudeDegrees>
              <LongitudeDegrees>-4.3549390</LongitudeDegrees>
            </Position>
            <AltitudeMeters>971.2</AltitudeMeters>
            <DistanceMeters>NAN</DistanceMeters>
          </Trackpoint>
          <Trackpoint>
            <Time>2022-06-16T14:40:09Z</Time>
            <Position>
              <LatitudeDegrees>36.8358540</LatitudeDegrees>
              <LongitudeDegrees>-4.3549580</LongitudeDegrees>
            </Position>
            <AltitudeMeters>971.0</AltitudeMeters>
            <DistanceMeters>NAN</DistanceMeters>
          </Trackpoint>
          <Trackpoint>
            <Time>2022-06-16T14:40:22Z</Time>
            <Position>
              <LatitudeDegrees>36.8357620</LatitudeDegrees>
              <LongitudeDegrees>-4.3550370</LongitudeDegrees>
            </Position>
            <AltitudeMeters>970.6</AltitudeMeters>
            <DistanceMeters>NAN</DistanceMeters>
          </Trackpoint>
          <Trackpoint>
            <Time>2022-06-16T14:40:26Z</Time>
            <Position>
              <LatitudeDegrees>36.8357190</LatitudeDegrees>
              <LongitudeDegrees>-4.3550610</LongitudeDegrees>
            </Position>
            <AltitudeMeters>970.4</AltitudeMeters>
            <DistanceMeters>NAN</DistanceMeters>
          </Trackpoint>
          <Trackpoint>
            <Time>2022-06-16T14:40:41Z</Time>
            <Position>
              <LatitudeDegrees>36.8355510</LatitudeDegrees>
              <LongitudeDegrees>-4.3551710</LongitudeDegrees>
            </Position>
            <AltitudeMeters>970.1</AltitudeMeters>
            <DistanceMeters>NAN</DistanceMeters>
          </Trackpoint>
          <Trackpoint>
            <Time>2022-06-16T14:40:46Z</Time>
            <Position>
              <LatitudeDegrees>36.8354970</LatitudeDegrees>
              <LongitudeDegrees>-4.3551990</LongitudeDegrees>
            </Position>
            <AltitudeMeters>970.2</AltitudeMeters>
            <DistanceMeters>NAN</DistanceMeters>
          </Trackpoint>
          <Trackpoint>
            <Time>2022-06-16T14:41:00Z</Time>
            <Position>
              <LatitudeDegrees>36.8353520</LatitudeDegrees>
              <LongitudeDegrees>-4.3552910</LongitudeDegrees>
            </Position>
            <AltitudeMeters>970.9</AltitudeMeters>
            <DistanceMeters>NAN</DistanceMeters>
          </Trackpoint>
          <Trackpoint>
            <Time>2022-06-16T14:41:17Z</Time>
            <Position>
              <LatitudeDegrees>36.8351940</LatitudeDegrees>
              <LongitudeDegrees>-4.3554120</LongitudeDegrees>
            </Position>
            <AltitudeMeters>972.4</AltitudeMeters>
            <DistanceMeters>NAN</DistanceMeters>
          </Trackpoint>
          <Trackpoint>
            <Time>2022-06-16T14:41:21Z</Time>
            <Position>
              <LatitudeDegrees>36.8351550</LatitudeDegrees>
              <LongitudeDegrees>-4.3554290</LongitudeDegrees>
            </Position>
            <AltitudeMeters>972.8</AltitudeMeters>
            <DistanceMeters>NAN</DistanceMeters>
          </Trackpoint>
          <Trackpoint>
            <Time>2022-06-16T14:41:38Z</Time>
            <Position>
              <LatitudeDegrees>36.8349870</LatitudeDegrees>
              <LongitudeDegrees>-4.3555120</LongitudeDegrees>
            </Position>
            <AltitudeMeters>975.4</AltitudeMeters>
            <DistanceMeters>NAN</DistanceMeters>
          </Trackpoint>
          <Trackpoint>
            <Time>2022-06-16T14:41:39Z</Time>
            <Position>
              <LatitudeDegrees>36.8349760</LatitudeDegrees>
              <LongitudeDegrees>-4.3555170</LongitudeDegrees>
            </Position>
            <AltitudeMeters>975.6</AltitudeMeters>
            <DistanceMeters>NAN</DistanceMeters>
          </Trackpoint>
          <Trackpoint>
            <Time>2022-06-16T14:41:40Z</Time>
            <Position>
              <LatitudeDegrees>36.8349660</LatitudeDegrees>
              <LongitudeDegrees>-4.3555250</LongitudeDegrees>
            </Position>
            <AltitudeMeters>975.8</AltitudeMeters>
            <DistanceMeters>NAN</DistanceMeters>
          </Trackpoint>
          <Trackpoint>
            <Time>2022-06-16T14:41:43Z</Time>
            <Position>
              <LatitudeDegrees>36.8349350</LatitudeDegrees>
              <LongitudeDegrees>-4.3555410</LongitudeDegrees>
            </Position>
            <AltitudeMeters>976.3</AltitudeMeters>
            <DistanceMeters>NAN</DistanceMeters>
          </Trackpoint>
          <Trackpoint>
            <Time>2022-06-16T14:41:45Z</Time>
            <Position>
              <LatitudeDegrees>36.8349140</LatitudeDegrees>
              <LongitudeDegrees>-4.3555520</LongitudeDegrees>
            </Position>
            <AltitudeMeters>976.6</AltitudeMeters>
            <DistanceMeters>NAN</DistanceMeters>
          </Trackpoint>
          <Trackpoint>
            <Time>2022-06-16T14:41:46Z</Time>
            <Position>
              <LatitudeDegrees>36.8349040</LatitudeDegrees>
              <LongitudeDegrees>-4.3555590</LongitudeDegrees>
            </Position>
            <AltitudeMeters>976.8</AltitudeMeters>
            <DistanceMeters>NAN</DistanceMeters>
          </Trackpoint>
          <Trackpoint>
            <Time>2022-06-16T14:42:05Z</Time>
            <Position>
              <LatitudeDegrees>36.8347440</LatitudeDegrees>
              <LongitudeDegrees>-4.3556710</LongitudeDegrees>
            </Position>
            <AltitudeMeters>979.2</AltitudeMeters>
            <DistanceMeters>NAN</DistanceMeters>
          </Trackpoint>
          <Trackpoint>
            <Time>2022-06-16T14:42:16Z</Time>
            <Position>
              <LatitudeDegrees>36.8346430</LatitudeDegrees>
              <LongitudeDegrees>-4.3557300</LongitudeDegrees>
            </Position>
            <AltitudeMeters>980.2</AltitudeMeters>
            <DistanceMeters>NAN</DistanceMeters>
          </Trackpoint>
          <Trackpoint>
            <Time>2022-06-16T14:42:36Z</Time>
            <Position>
              <LatitudeDegrees>36.8344850</LatitudeDegrees>
              <LongitudeDegrees>-4.3558550</LongitudeDegrees>
            </Position>
            <AltitudeMeters>981.3</AltitudeMeters>
            <DistanceMeters>NAN</DistanceMeters>
          </Trackpoint>
          <Trackpoint>
            <Time>2022-06-16T14:42:51Z</Time>
            <Position>
              <LatitudeDegrees>36.8343000</LatitudeDegrees>
              <LongitudeDegrees>-4.3558860</LongitudeDegrees>
            </Position>
            <AltitudeMeters>981.6</AltitudeMeters>
            <DistanceMeters>NAN</DistanceMeters>
          </Trackpoint>
          <Trackpoint>
            <Time>2022-06-16T14:42:57Z</Time>
            <Position>
              <LatitudeDegrees>36.8342350</LatitudeDegrees>
              <LongitudeDegrees>-4.3559040</LongitudeDegrees>
            </Position>
            <AltitudeMeters>981.6</AltitudeMeters>
            <DistanceMeters>NAN</DistanceMeters>
          </Trackpoint>
          <Trackpoint>
            <Time>2022-06-16T14:43:12Z</Time>
            <Position>
              <LatitudeDegrees>36.8340580</LatitudeDegrees>
              <LongitudeDegrees>-4.3559620</LongitudeDegrees>
            </Position>
            <AltitudeMeters>981.7</AltitudeMeters>
            <DistanceMeters>NAN</DistanceMeters>
          </Trackpoint>
          <Trackpoint>
            <Time>2022-06-16T14:43:27Z</Time>
            <Position>
              <LatitudeDegrees>36.8338760</LatitudeDegrees>
              <LongitudeDegrees>-4.3560050</LongitudeDegrees>
            </Position>
            <AltitudeMeters>981.6</AltitudeMeters>
            <DistanceMeters>NAN</DistanceMeters>
          </Trackpoint>
          <Trackpoint>
            <Time>2022-06-16T14:43:49Z</Time>
            <Position>
              <LatitudeDegrees>36.8336910</LatitudeDegrees>
              <LongitudeDegrees>-4.3560300</LongitudeDegrees>
            </Position>
            <AltitudeMeters>980.9</AltitudeMeters>
            <DistanceMeters>NAN</DistanceMeters>
          </Trackpoint>
          <Trackpoint>
            <Time>2022-06-16T14:44:14Z</Time>
            <Position>
              <LatitudeDegrees>36.8335730</LatitudeDegrees>
              <LongitudeDegrees>-4.3559120</LongitudeDegrees>
            </Position>
            <AltitudeMeters>978.6</AltitudeMeters>
            <DistanceMeters>NAN</DistanceMeters>
          </Trackpoint>
          <Trackpoint>
            <Time>2022-06-16T14:44:15Z</Time>
            <Position>
              <LatitudeDegrees>36.8335640</LatitudeDegrees>
              <LongitudeDegrees>-4.3559110</LongitudeDegrees>
            </Position>
            <AltitudeMeters>978.4</AltitudeMeters>
            <DistanceMeters>NAN</DistanceMeters>
          </Trackpoint>
          <Trackpoint>
            <Time>2022-06-16T14:44:18Z</Time>
            <Position>
              <LatitudeDegrees>36.8335370</LatitudeDegrees>
              <LongitudeDegrees>-4.3559090</LongitudeDegrees>
            </Position>
            <AltitudeMeters>977.9</AltitudeMeters>
            <DistanceMeters>NAN</DistanceMeters>
          </Trackpoint>
          <Trackpoint>
            <Time>2022-06-16T14:44:29Z</Time>
            <Position>
              <LatitudeDegrees>36.8334850</LatitudeDegrees>
              <LongitudeDegrees>-4.3558590</LongitudeDegrees>
            </Position>
            <AltitudeMeters>976.4</AltitudeMeters>
            <DistanceMeters>NAN</DistanceMeters>
          </Trackpoint>
          <Trackpoint>
            <Time>2022-06-16T14:44:40Z</Time>
            <Position>
              <LatitudeDegrees>36.8334320</LatitudeDegrees>
              <LongitudeDegrees>-4.3558450</LongitudeDegrees>
            </Position>
            <AltitudeMeters>974.9</AltitudeMeters>
            <DistanceMeters>NAN</DistanceMeters>
          </Trackpoint>
          <Trackpoint>
            <Time>2022-06-16T14:45:03Z</Time>
            <Position>
              <LatitudeDegrees>36.8332700</LatitudeDegrees>
              <LongitudeDegrees>-4.3557820</LongitudeDegrees>
            </Position>
            <AltitudeMeters>969.5</AltitudeMeters>
            <DistanceMeters>NAN</DistanceMeters>
          </Trackpoint>
          <Trackpoint>
            <Time>2022-06-16T14:45:24Z</Time>
            <Position>
              <LatitudeDegrees>36.8331220</LatitudeDegrees>
              <LongitudeDegrees>-4.3556980</LongitudeDegrees>
            </Position>
            <AltitudeMeters>964.8</AltitudeMeters>
            <DistanceMeters>NAN</DistanceMeters>
          </Trackpoint>
          <Trackpoint>
            <Time>2022-06-16T14:45:38Z</Time>
            <Position>
              <LatitudeDegrees>36.8330070</LatitudeDegrees>
              <LongitudeDegrees>-4.3556420</LongitudeDegrees>
            </Position>
            <AltitudeMeters>960.7</AltitudeMeters>
            <DistanceMeters>NAN</DistanceMeters>
          </Trackpoint>
          <Trackpoint>
            <Time>2022-06-16T14:45:56Z</Time>
            <Position>
              <LatitudeDegrees>36.8328510</LatitudeDegrees>
              <LongitudeDegrees>-4.3555280</LongitudeDegrees>
            </Position>
            <AltitudeMeters>953.9</AltitudeMeters>
            <DistanceMeters>NAN</DistanceMeters>
          </Trackpoint>
          <Trackpoint>
            <Time>2022-06-16T14:46:09Z</Time>
            <Position>
              <LatitudeDegrees>36.8327630</LatitudeDegrees>
              <LongitudeDegrees>-4.3554310</LongitudeDegrees>
            </Position>
            <AltitudeMeters>951.5</AltitudeMeters>
            <DistanceMeters>NAN</DistanceMeters>
          </Trackpoint>
          <Trackpoint>
            <Time>2022-06-16T14:46:26Z</Time>
            <Position>
              <LatitudeDegrees>36.8326200</LatitudeDegrees>
              <LongitudeDegrees>-4.3552900</LongitudeDegrees>
            </Position>
            <AltitudeMeters>949.5</AltitudeMeters>
            <DistanceMeters>NAN</DistanceMeters>
          </Trackpoint>
          <Trackpoint>
            <Time>2022-06-16T14:46:31Z</Time>
            <Position>
              <LatitudeDegrees>36.8325750</LatitudeDegrees>
              <LongitudeDegrees>-4.3552480</LongitudeDegrees>
            </Position>
            <AltitudeMeters>949.2</AltitudeMeters>
            <DistanceMeters>NAN</DistanceMeters>
          </Trackpoint>
          <Trackpoint>
            <Time>2022-06-16T14:46:32Z</Time>
            <Position>
              <LatitudeDegrees>36.8325670</LatitudeDegrees>
              <LongitudeDegrees>-4.3552390</LongitudeDegrees>
            </Position>
            <AltitudeMeters>949.1</AltitudeMeters>
            <DistanceMeters>NAN</DistanceMeters>
          </Trackpoint>
          <Trackpoint>
            <Time>2022-06-16T14:46:41Z</Time>
            <Position>
              <LatitudeDegrees>36.8324700</LatitudeDegrees>
              <LongitudeDegrees>-4.3551920</LongitudeDegrees>
            </Position>
            <AltitudeMeters>948.9</AltitudeMeters>
            <DistanceMeters>NAN</DistanceMeters>
          </Trackpoint>
          <Trackpoint>
            <Time>2022-06-16T14:47:02Z</Time>
            <Position>
              <LatitudeDegrees>36.8323130</LatitudeDegrees>
              <LongitudeDegrees>-4.3550720</LongitudeDegrees>
            </Position>
            <AltitudeMeters>948.7</AltitudeMeters>
            <DistanceMeters>NAN</DistanceMeters>
          </Trackpoint>
          <Trackpoint>
            <Time>2022-06-16T14:47:20Z</Time>
            <Position>
              <LatitudeDegrees>36.8321970</LatitudeDegrees>
              <LongitudeDegrees>-4.3549160</LongitudeDegrees>
            </Position>
            <AltitudeMeters>948.2</AltitudeMeters>
            <DistanceMeters>NAN</DistanceMeters>
          </Trackpoint>
          <Trackpoint>
            <Time>2022-06-16T14:47:24Z</Time>
            <Position>
              <LatitudeDegrees>36.8321760</LatitudeDegrees>
              <LongitudeDegrees>-4.3548640</LongitudeDegrees>
            </Position>
            <AltitudeMeters>948.1</AltitudeMeters>
            <DistanceMeters>NAN</DistanceMeters>
          </Trackpoint>
          <Trackpoint>
            <Time>2022-06-16T14:47:41Z</Time>
            <Position>
              <LatitudeDegrees>36.8320230</LatitudeDegrees>
              <LongitudeDegrees>-4.3547360</LongitudeDegrees>
            </Position>
            <AltitudeMeters>947.0</AltitudeMeters>
            <DistanceMeters>NAN</DistanceMeters>
          </Trackpoint>
          <Trackpoint>
            <Time>2022-06-16T14:47:58Z</Time>
            <Position>
              <LatitudeDegrees>36.8318510</LatitudeDegrees>
              <LongitudeDegrees>-4.3546870</LongitudeDegrees>
            </Position>
            <AltitudeMeters>943.8</AltitudeMeters>
            <DistanceMeters>NAN</DistanceMeters>
          </Trackpoint>
          <Trackpoint>
            <Time>2022-06-16T14:48:03Z</Time>
            <Position>
              <LatitudeDegrees>36.8318210</LatitudeDegrees>
              <LongitudeDegrees>-4.3546650</LongitudeDegrees>
            </Position>
            <AltitudeMeters>943.0</AltitudeMeters>
            <DistanceMeters>NAN</DistanceMeters>
          </Trackpoint>
          <Trackpoint>
            <Time>2022-06-16T14:48:25Z</Time>
            <Position>
              <LatitudeDegrees>36.8316570</LatitudeDegrees>
              <LongitudeDegrees>-4.3545650</LongitudeDegrees>
            </Position>
            <AltitudeMeters>938.6</AltitudeMeters>
            <DistanceMeters>NAN</DistanceMeters>
          </Trackpoint>
          <Trackpoint>
            <Time>2022-06-16T14:48:27Z</Time>
            <Position>
              <LatitudeDegrees>36.8316380</LatitudeDegrees>
              <LongitudeDegrees>-4.3545540</LongitudeDegrees>
            </Position>
            <AltitudeMeters>938.3</AltitudeMeters>
            <DistanceMeters>NAN</DistanceMeters>
          </Trackpoint>
          <Trackpoint>
            <Time>2022-06-16T14:48:46Z</Time>
            <Position>
              <LatitudeDegrees>36.8314630</LatitudeDegrees>
              <LongitudeDegrees>-4.3545080</LongitudeDegrees>
            </Position>
            <AltitudeMeters>936.7</AltitudeMeters>
            <DistanceMeters>NAN</DistanceMeters>
          </Trackpoint>
          <Trackpoint>
            <Time>2022-06-16T14:49:01Z</Time>
            <Position>
              <LatitudeDegrees>36.8313330</LatitudeDegrees>
              <LongitudeDegrees>-4.3545470</LongitudeDegrees>
            </Position>
            <AltitudeMeters>934.6</AltitudeMeters>
            <DistanceMeters>NAN</DistanceMeters>
          </Trackpoint>
          <Trackpoint>
            <Time>2022-06-16T14:49:13Z</Time>
            <Position>
              <LatitudeDegrees>36.8312220</LatitudeDegrees>
              <LongitudeDegrees>-4.3545550</LongitudeDegrees>
            </Position>
            <AltitudeMeters>932.8</AltitudeMeters>
            <DistanceMeters>NAN</DistanceMeters>
          </Trackpoint>
          <Trackpoint>
            <Time>2022-06-16T14:49:30Z</Time>
            <Position>
              <LatitudeDegrees>36.8310470</LatitudeDegrees>
              <LongitudeDegrees>-4.3545250</LongitudeDegrees>
            </Position>
            <AltitudeMeters>930.9</AltitudeMeters>
            <DistanceMeters>NAN</DistanceMeters>
          </Trackpoint>
          <Trackpoint>
            <Time>2022-06-16T14:49:34Z</Time>
            <Position>
              <LatitudeDegrees>36.8310080</LatitudeDegrees>
              <LongitudeDegrees>-4.3545150</LongitudeDegrees>
            </Position>
            <AltitudeMeters>930.7</AltitudeMeters>
            <DistanceMeters>NAN</DistanceMeters>
          </Trackpoint>
          <Trackpoint>
            <Time>2022-06-16T14:49:35Z</Time>
            <Position>
              <LatitudeDegrees>36.8309980</LatitudeDegrees>
              <LongitudeDegrees>-4.3545150</LongitudeDegrees>
            </Position>
            <AltitudeMeters>930.6</AltitudeMeters>
            <DistanceMeters>NAN</DistanceMeters>
          </Trackpoint>
          <Trackpoint>
            <Time>2022-06-16T14:49:45Z</Time>
            <Position>
              <LatitudeDegrees>36.8309190</LatitudeDegrees>
              <LongitudeDegrees>-4.3544980</LongitudeDegrees>
            </Position>
            <AltitudeMeters>930.2</AltitudeMeters>
            <DistanceMeters>NAN</DistanceMeters>
          </Trackpoint>
          <Trackpoint>
            <Time>2022-06-16T14:49:47Z</Time>
            <Position>
              <LatitudeDegrees>36.8309030</LatitudeDegrees>
              <LongitudeDegrees>-4.3544950</LongitudeDegrees>
            </Position>
            <AltitudeMeters>930.2</AltitudeMeters>
            <DistanceMeters>NAN</DistanceMeters>
          </Trackpoint>
          <Trackpoint>
            <Time>2022-06-16T14:50:04Z</Time>
            <Position>
              <LatitudeDegrees>36.8307310</LatitudeDegrees>
              <LongitudeDegrees>-4.3544290</LongitudeDegrees>
            </Position>
            <AltitudeMeters>929.2</AltitudeMeters>
            <DistanceMeters>NAN</DistanceMeters>
          </Trackpoint>
          <Trackpoint>
            <Time>2022-06-16T14:50:19Z</Time>
            <Position>
              <LatitudeDegrees>36.8305880</LatitudeDegrees>
              <LongitudeDegrees>-4.3543940</LongitudeDegrees>
            </Position>
            <AltitudeMeters>927.9</AltitudeMeters>
            <DistanceMeters>NAN</DistanceMeters>
          </Trackpoint>
          <Trackpoint>
            <Time>2022-06-16T14:50:35Z</Time>
            <Position>
              <LatitudeDegrees>36.8304000</LatitudeDegrees>
              <LongitudeDegrees>-4.3543840</LongitudeDegrees>
            </Position>
            <AltitudeMeters>925.7</AltitudeMeters>
            <DistanceMeters>NAN</DistanceMeters>
          </Trackpoint>
          <Trackpoint>
            <Time>2022-06-16T14:50:53Z</Time>
            <Position>
              <LatitudeDegrees>36.8302170</LatitudeDegrees>
              <LongitudeDegrees>-4.3543780</LongitudeDegrees>
            </Position>
            <AltitudeMeters>924.0</AltitudeMeters>
            <DistanceMeters>NAN</DistanceMeters>
          </Trackpoint>
          <Trackpoint>
            <Time>2022-06-16T14:51:04Z</Time>
            <Position>
              <LatitudeDegrees>36.8301060</LatitudeDegrees>
              <LongitudeDegrees>-4.3543860</LongitudeDegrees>
            </Position>
            <AltitudeMeters>922.7</AltitudeMeters>
            <DistanceMeters>NAN</DistanceMeters>
          </Trackpoint>
          <Trackpoint>
            <Time>2022-06-16T14:51:13Z</Time>
            <Position>
              <LatitudeDegrees>36.8300160</LatitudeDegrees>
              <LongitudeDegrees>-4.3543700</LongitudeDegrees>
            </Position>
            <AltitudeMeters>921.2</AltitudeMeters>
            <DistanceMeters>NAN</DistanceMeters>
          </Trackpoint>
          <Trackpoint>
            <Time>2022-06-16T14:51:31Z</Time>
            <Position>
              <LatitudeDegrees>36.8298280</LatitudeDegrees>
              <LongitudeDegrees>-4.3543420</LongitudeDegrees>
            </Position>
            <AltitudeMeters>918.5</AltitudeMeters>
            <DistanceMeters>NAN</DistanceMeters>
          </Trackpoint>
          <Trackpoint>
            <Time>2022-06-16T14:51:42Z</Time>
            <Position>
              <LatitudeDegrees>36.8297090</LatitudeDegrees>
              <LongitudeDegrees>-4.3543110</LongitudeDegrees>
            </Position>
            <AltitudeMeters>916.9</AltitudeMeters>
            <DistanceMeters>NAN</DistanceMeters>
          </Trackpoint>
          <Trackpoint>
            <Time>2022-06-16T14:52:01Z</Time>
            <Position>
              <LatitudeDegrees>36.8295370</LatitudeDegrees>
              <LongitudeDegrees>-4.3542750</LongitudeDegrees>
            </Position>
            <AltitudeMeters>914.2</AltitudeMeters>
            <DistanceMeters>NAN</DistanceMeters>
          </Trackpoint>
          <Trackpoint>
            <Time>2022-06-16T14:52:09Z</Time>
            <Position>
              <LatitudeDegrees>36.8294470</LatitudeDegrees>
              <LongitudeDegrees>-4.3542880</LongitudeDegrees>
            </Position>
            <AltitudeMeters>913.0</AltitudeMeters>
            <DistanceMeters>NAN</DistanceMeters>
          </Trackpoint>
          <Trackpoint>
            <Time>2022-06-16T14:52:18Z</Time>
            <Position>
              <LatitudeDegrees>36.8293510</LatitudeDegrees>
              <LongitudeDegrees>-4.3542630</LongitudeDegrees>
            </Position>
            <AltitudeMeters>911.7</AltitudeMeters>
            <DistanceMeters>NAN</DistanceMeters>
          </Trackpoint>
          <Trackpoint>
            <Time>2022-06-16T14:52:28Z</Time>
            <Position>
              <LatitudeDegrees>36.8292530</LatitudeDegrees>
              <LongitudeDegrees>-4.3542470</LongitudeDegrees>
            </Position>
            <AltitudeMeters>910.2</AltitudeMeters>
            <DistanceMeters>NAN</DistanceMeters>
          </Trackpoint>
          <Trackpoint>
            <Time>2022-06-16T14:52:29Z</Time>
            <Position>
              <LatitudeDegrees>36.8292400</LatitudeDegrees>
              <LongitudeDegrees>-4.3542510</LongitudeDegrees>
            </Position>
            <AltitudeMeters>909.9</AltitudeMeters>
            <DistanceMeters>NAN</DistanceMeters>
          </Trackpoint>
          <Trackpoint>
            <Time>2022-06-16T14:52:34Z</Time>
            <Position>
              <LatitudeDegrees>36.8291900</LatitudeDegrees>
              <LongitudeDegrees>-4.3542340</LongitudeDegrees>
            </Position>
            <AltitudeMeters>909.0</AltitudeMeters>
            <DistanceMeters>NAN</DistanceMeters>
          </Trackpoint>
          <Trackpoint>
            <Time>2022-06-16T14:52:38Z</Time>
            <Position>
              <LatitudeDegrees>36.8291550</LatitudeDegrees>
              <LongitudeDegrees>-4.3542260</LongitudeDegrees>
            </Position>
            <AltitudeMeters>908.3</AltitudeMeters>
            <DistanceMeters>NAN</DistanceMeters>
          </Trackpoint>
          <Trackpoint>
            <Time>2022-06-16T14:52:40Z</Time>
            <Position>
              <LatitudeDegrees>36.8291400</LatitudeDegrees>
              <LongitudeDegrees>-4.3542210</LongitudeDegrees>
            </Position>
            <AltitudeMeters>908.0</AltitudeMeters>
            <DistanceMeters>NAN</DistanceMeters>
          </Trackpoint>
          <Trackpoint>
            <Time>2022-06-16T14:52:41Z</Time>
            <Position>
              <LatitudeDegrees>36.8291300</LatitudeDegrees>
              <LongitudeDegrees>-4.3542180</LongitudeDegrees>
            </Position>
            <AltitudeMeters>907.8</AltitudeMeters>
            <DistanceMeters>NAN</DistanceMeters>
          </Trackpoint>
          <Trackpoint>
            <Time>2022-06-16T14:52:42Z</Time>
            <Position>
              <LatitudeDegrees>36.8291230</LatitudeDegrees>
              <LongitudeDegrees>-4.3542170</LongitudeDegrees>
            </Position>
            <AltitudeMeters>907.7</AltitudeMeters>
            <DistanceMeters>NAN</DistanceMeters>
          </Trackpoint>
          <Trackpoint>
            <Time>2022-06-16T14:52:45Z</Time>
            <Position>
              <LatitudeDegrees>36.8290960</LatitudeDegrees>
              <LongitudeDegrees>-4.3541920</LongitudeDegrees>
            </Position>
            <AltitudeMeters>907.1</AltitudeMeters>
            <DistanceMeters>NAN</DistanceMeters>
          </Trackpoint>
          <Trackpoint>
            <Time>2022-06-16T14:52:46Z</Time>
            <Position>
              <LatitudeDegrees>36.8290850</LatitudeDegrees>
              <LongitudeDegrees>-4.3541840</LongitudeDegrees>
            </Position>
            <AltitudeMeters>906.8</AltitudeMeters>
            <DistanceMeters>NAN</DistanceMeters>
          </Trackpoint>
          <Trackpoint>
            <Time>2022-06-16T14:52:48Z</Time>
            <Position>
              <LatitudeDegrees>36.8290590</LatitudeDegrees>
              <LongitudeDegrees>-4.3541700</LongitudeDegrees>
            </Position>
            <AltitudeMeters>906.3</AltitudeMeters>
            <DistanceMeters>NAN</DistanceMeters>
          </Trackpoint>
          <Trackpoint>
            <Time>2022-06-16T14:52:54Z</Time>
            <Position>
              <LatitudeDegrees>36.8289870</LatitudeDegrees>
              <LongitudeDegrees>-4.3541400</LongitudeDegrees>
            </Position>
            <AltitudeMeters>905.1</AltitudeMeters>
            <DistanceMeters>NAN</DistanceMeters>
          </Trackpoint>
          <Trackpoint>
            <Time>2022-06-16T14:52:57Z</Time>
            <Position>
              <LatitudeDegrees>36.8289610</LatitudeDegrees>
              <LongitudeDegrees>-4.3541330</LongitudeDegrees>
            </Position>
            <AltitudeMeters>904.7</AltitudeMeters>
            <DistanceMeters>NAN</DistanceMeters>
          </Trackpoint>
          <Trackpoint>
            <Time>2022-06-16T14:53:02Z</Time>
            <Position>
              <LatitudeDegrees>36.8289180</LatitudeDegrees>
              <LongitudeDegrees>-4.3541140</LongitudeDegrees>
            </Position>
            <AltitudeMeters>904.2</AltitudeMeters>
            <DistanceMeters>NAN</DistanceMeters>
          </Trackpoint>
          <Trackpoint>
            <Time>2022-06-16T14:53:06Z</Time>
            <Position>
              <LatitudeDegrees>36.8288690</LatitudeDegrees>
              <LongitudeDegrees>-4.3541180</LongitudeDegrees>
            </Position>
            <AltitudeMeters>903.8</AltitudeMeters>
            <DistanceMeters>NAN</DistanceMeters>
          </Trackpoint>
          <Trackpoint>
            <Time>2022-06-16T14:53:20Z</Time>
            <Position>
              <LatitudeDegrees>36.8286870</LatitudeDegrees>
              <LongitudeDegrees>-4.3541380</LongitudeDegrees>
            </Position>
            <AltitudeMeters>902.8</AltitudeMeters>
            <DistanceMeters>NAN</DistanceMeters>
          </Trackpoint>
          <Trackpoint>
            <Time>2022-06-16T14:53:21Z</Time>
            <Position>
              <LatitudeDegrees>36.8286720</LatitudeDegrees>
              <LongitudeDegrees>-4.3541420</LongitudeDegrees>
            </Position>
            <AltitudeMeters>902.7</AltitudeMeters>
            <DistanceMeters>NAN</DistanceMeters>
          </Trackpoint>
          <Trackpoint>
            <Time>2022-06-16T14:53:27Z</Time>
            <Position>
              <LatitudeDegrees>36.8285980</LatitudeDegrees>
              <LongitudeDegrees>-4.3541760</LongitudeDegrees>
            </Position>
            <AltitudeMeters>902.4</AltitudeMeters>
            <DistanceMeters>NAN</DistanceMeters>
          </Trackpoint>
          <Trackpoint>
            <Time>2022-06-16T14:53:44Z</Time>
            <Position>
              <LatitudeDegrees>36.8284180</LatitudeDegrees>
              <LongitudeDegrees>-4.3542150</LongitudeDegrees>
            </Position>
            <AltitudeMeters>901.8</AltitudeMeters>
            <DistanceMeters>NAN</DistanceMeters>
          </Trackpoint>
          <Trackpoint>
            <Time>2022-06-16T14:53:51Z</Time>
            <Position>
              <LatitudeDegrees>36.8283560</LatitudeDegrees>
              <LongitudeDegrees>-4.3541810</LongitudeDegrees>
            </Position>
            <AltitudeMeters>901.6</AltitudeMeters>
            <DistanceMeters>NAN</DistanceMeters>
          </Trackpoint>
          <Trackpoint>
            <Time>2022-06-16T14:53:54Z</Time>
            <Position>
              <LatitudeDegrees>36.8283220</LatitudeDegrees>
              <LongitudeDegrees>-4.3541640</LongitudeDegrees>
            </Position>
            <AltitudeMeters>901.5</AltitudeMeters>
            <DistanceMeters>NAN</DistanceMeters>
          </Trackpoint>
          <Trackpoint>
            <Time>2022-06-16T14:54:04Z</Time>
            <Position>
              <LatitudeDegrees>36.8282180</LatitudeDegrees>
              <LongitudeDegrees>-4.3541820</LongitudeDegrees>
            </Position>
            <AltitudeMeters>901.0</AltitudeMeters>
            <DistanceMeters>NAN</DistanceMeters>
          </Trackpoint>
          <Trackpoint>
            <Time>2022-06-16T14:54:21Z</Time>
            <Position>
              <LatitudeDegrees>36.8280450</LatitudeDegrees>
              <LongitudeDegrees>-4.3542470</LongitudeDegrees>
            </Position>
            <AltitudeMeters>899.8</AltitudeMeters>
            <DistanceMeters>NAN</DistanceMeters>
          </Trackpoint>
          <Trackpoint>
            <Time>2022-06-16T14:54:36Z</Time>
            <Position>
              <LatitudeDegrees>36.8278650</LatitudeDegrees>
              <LongitudeDegrees>-4.3542550</LongitudeDegrees>
            </Position>
            <AltitudeMeters>899.0</AltitudeMeters>
            <DistanceMeters>NAN</DistanceMeters>
          </Trackpoint>
          <Trackpoint>
            <Time>2022-06-16T14:54:56Z</Time>
            <Position>
              <LatitudeDegrees>36.8276790</LatitudeDegrees>
              <LongitudeDegrees>-4.3542660</LongitudeDegrees>
            </Position>
            <AltitudeMeters>898.7</AltitudeMeters>
            <DistanceMeters>NAN</DistanceMeters>
          </Trackpoint>
          <Trackpoint>
            <Time>2022-06-16T14:55:08Z</Time>
            <Position>
              <LatitudeDegrees>36.8275510</LatitudeDegrees>
              <LongitudeDegrees>-4.3543120</LongitudeDegrees>
            </Position>
            <AltitudeMeters>898.6</AltitudeMeters>
            <DistanceMeters>NAN</DistanceMeters>
          </Trackpoint>
          <Trackpoint>
            <Time>2022-06-16T14:55:24Z</Time>
            <Position>
              <LatitudeDegrees>36.8273710</LatitudeDegrees>
              <LongitudeDegrees>-4.3542940</LongitudeDegrees>
            </Position>
            <AltitudeMeters>898.5</AltitudeMeters>
            <DistanceMeters>NAN</DistanceMeters>
          </Trackpoint>
          <Trackpoint>
            <Time>2022-06-16T14:55:38Z</Time>
            <Position>
              <LatitudeDegrees>36.8272650</LatitudeDegrees>
              <LongitudeDegrees>-4.3542100</LongitudeDegrees>
            </Position>
            <AltitudeMeters>898.3</AltitudeMeters>
            <DistanceMeters>NAN</DistanceMeters>
          </Trackpoint>
          <Trackpoint>
            <Time>2022-06-16T14:55:53Z</Time>
            <Position>
              <LatitudeDegrees>36.8270700</LatitudeDegrees>
              <LongitudeDegrees>-4.3541730</LongitudeDegrees>
            </Position>
            <AltitudeMeters>897.7</AltitudeMeters>
            <DistanceMeters>NAN</DistanceMeters>
          </Trackpoint>
          <Trackpoint>
            <Time>2022-06-16T14:56:09Z</Time>
            <Position>
              <LatitudeDegrees>36.8268810</LatitudeDegrees>
              <LongitudeDegrees>-4.3541470</LongitudeDegrees>
            </Position>
            <AltitudeMeters>896.9</AltitudeMeters>
            <DistanceMeters>NAN</DistanceMeters>
          </Trackpoint>
          <Trackpoint>
            <Time>2022-06-16T14:56:31Z</Time>
            <Position>
              <LatitudeDegrees>36.8266960</LatitudeDegrees>
              <LongitudeDegrees>-4.3541710</LongitudeDegrees>
            </Position>
            <AltitudeMeters>895.9</AltitudeMeters>
            <DistanceMeters>NAN</DistanceMeters>
          </Trackpoint>
          <Trackpoint>
            <Time>2022-06-16T14:56:50Z</Time>
            <Position>
              <LatitudeDegrees>36.8265240</LatitudeDegrees>
              <LongitudeDegrees>-4.3541090</LongitudeDegrees>
            </Position>
            <AltitudeMeters>894.3</AltitudeMeters>
            <DistanceMeters>NAN</DistanceMeters>
          </Trackpoint>
          <Trackpoint>
            <Time>2022-06-16T14:57:05Z</Time>
            <Position>
              <LatitudeDegrees>36.8263390</LatitudeDegrees>
              <LongitudeDegrees>-4.3540510</LongitudeDegrees>
            </Position>
            <AltitudeMeters>891.7</AltitudeMeters>
            <DistanceMeters>NAN</DistanceMeters>
          </Trackpoint>
          <Trackpoint>
            <Time>2022-06-16T14:57:24Z</Time>
            <Position>
              <LatitudeDegrees>36.8261800</LatitudeDegrees>
              <LongitudeDegrees>-4.3539400</LongitudeDegrees>
            </Position>
            <AltitudeMeters>890.2</AltitudeMeters>
            <DistanceMeters>NAN</DistanceMeters>
          </Trackpoint>
          <Trackpoint>
            <Time>2022-06-16T14:57:34Z</Time>
            <Position>
              <LatitudeDegrees>36.8260820</LatitudeDegrees>
              <LongitudeDegrees>-4.3539010</LongitudeDegrees>
            </Position>
            <AltitudeMeters>891.0</AltitudeMeters>
            <DistanceMeters>NAN</DistanceMeters>
          </Trackpoint>
          <Trackpoint>
            <Time>2022-06-16T14:57:40Z</Time>
            <Position>
              <LatitudeDegrees>36.8260250</LatitudeDegrees>
              <LongitudeDegrees>-4.3538560</LongitudeDegrees>
            </Position>
            <AltitudeMeters>891.4</AltitudeMeters>
            <DistanceMeters>NAN</DistanceMeters>
          </Trackpoint>
          <Trackpoint>
            <Time>2022-06-16T14:57:47Z</Time>
            <Position>
              <LatitudeDegrees>36.8259770</LatitudeDegrees>
              <LongitudeDegrees>-4.3537880</LongitudeDegrees>
            </Position>
            <AltitudeMeters>891.7</AltitudeMeters>
            <DistanceMeters>NAN</DistanceMeters>
          </Trackpoint>
          <Trackpoint>
            <Time>2022-06-16T14:57:53Z</Time>
            <Position>
              <LatitudeDegrees>36.8259230</LatitudeDegrees>
              <LongitudeDegrees>-4.3537460</LongitudeDegrees>
            </Position>
            <AltitudeMeters>891.8</AltitudeMeters>
            <DistanceMeters>NAN</DistanceMeters>
          </Trackpoint>
          <Trackpoint>
            <Time>2022-06-16T14:58:06Z</Time>
            <Position>
              <LatitudeDegrees>36.8257520</LatitudeDegrees>
              <LongitudeDegrees>-4.3536550</LongitudeDegrees>
            </Position>
            <AltitudeMeters>891.8</AltitudeMeters>
            <DistanceMeters>NAN</DistanceMeters>
          </Trackpoint>
          <Trackpoint>
            <Time>2022-06-16T14:58:19Z</Time>
            <Position>
              <LatitudeDegrees>36.8255770</LatitudeDegrees>
              <LongitudeDegrees>-4.3535780</LongitudeDegrees>
            </Position>
            <AltitudeMeters>891.7</AltitudeMeters>
            <DistanceMeters>NAN</DistanceMeters>
          </Trackpoint>
          <Trackpoint>
            <Time>2022-06-16T14:58:34Z</Time>
            <Position>
              <LatitudeDegrees>36.8254020</LatitudeDegrees>
              <LongitudeDegrees>-4.3535170</LongitudeDegrees>
            </Position>
            <AltitudeMeters>891.5</AltitudeMeters>
            <DistanceMeters>NAN</DistanceMeters>
          </Trackpoint>
          <Trackpoint>
            <Time>2022-06-16T14:58:47Z</Time>
            <Position>
              <LatitudeDegrees>36.8252110</LatitudeDegrees>
              <LongitudeDegrees>-4.3535490</LongitudeDegrees>
            </Position>
            <AltitudeMeters>891.2</AltitudeMeters>
            <DistanceMeters>NAN</DistanceMeters>
          </Trackpoint>
          <Trackpoint>
            <Time>2022-06-16T14:58:56Z</Time>
            <Position>
              <LatitudeDegrees>36.8250880</LatitudeDegrees>
              <LongitudeDegrees>-4.3536010</LongitudeDegrees>
            </Position>
            <AltitudeMeters>891.0</AltitudeMeters>
            <DistanceMeters>NAN</DistanceMeters>
          </Trackpoint>
          <Trackpoint>
            <Time>2022-06-16T14:59:06Z</Time>
            <Position>
              <LatitudeDegrees>36.8249500</LatitudeDegrees>
              <LongitudeDegrees>-4.3536860</LongitudeDegrees>
            </Position>
            <AltitudeMeters>890.8</AltitudeMeters>
            <DistanceMeters>NAN</DistanceMeters>
          </Trackpoint>
          <Trackpoint>
            <Time>2022-06-16T14:59:20Z</Time>
            <Position>
              <LatitudeDegrees>36.8247660</LatitudeDegrees>
              <LongitudeDegrees>-4.3537580</LongitudeDegrees>
            </Position>
            <AltitudeMeters>890.9</AltitudeMeters>
            <DistanceMeters>NAN</DistanceMeters>
          </Trackpoint>
          <Trackpoint>
            <Time>2022-06-16T14:59:35Z</Time>
            <Position>
              <LatitudeDegrees>36.8245930</LatitudeDegrees>
              <LongitudeDegrees>-4.3538400</LongitudeDegrees>
            </Position>
            <AltitudeMeters>891.0</AltitudeMeters>
            <DistanceMeters>NAN</DistanceMeters>
          </Trackpoint>
          <Trackpoint>
            <Time>2022-06-16T14:59:49Z</Time>
            <Position>
              <LatitudeDegrees>36.8244140</LatitudeDegrees>
              <LongitudeDegrees>-4.3538760</LongitudeDegrees>
            </Position>
            <AltitudeMeters>891.3</AltitudeMeters>
            <DistanceMeters>NAN</DistanceMeters>
          </Trackpoint>
          <Trackpoint>
            <Time>2022-06-16T15:00:03Z</Time>
            <Position>
              <LatitudeDegrees>36.8242260</LatitudeDegrees>
              <LongitudeDegrees>-4.3538490</LongitudeDegrees>
            </Position>
            <AltitudeMeters>891.8</AltitudeMeters>
            <DistanceMeters>NAN</DistanceMeters>
          </Trackpoint>
          <Trackpoint>
            <Time>2022-06-16T15:00:12Z</Time>
            <Position>
              <LatitudeDegrees>36.8241090</LatitudeDegrees>
              <LongitudeDegrees>-4.3538340</LongitudeDegrees>
            </Position>
            <AltitudeMeters>892.1</AltitudeMeters>
            <DistanceMeters>NAN</DistanceMeters>
          </Trackpoint>
          <Trackpoint>
            <Time>2022-06-16T15:00:18Z</Time>
            <Position>
              <LatitudeDegrees>36.8240300</LatitudeDegrees>
              <LongitudeDegrees>-4.3538410</LongitudeDegrees>
            </Position>
            <AltitudeMeters>892.3</AltitudeMeters>
            <DistanceMeters>NAN</DistanceMeters>
          </Trackpoint>
          <Trackpoint>
            <Time>2022-06-16T15:00:20Z</Time>
            <Position>
              <LatitudeDegrees>36.8240070</LatitudeDegrees>
              <LongitudeDegrees>-4.3538410</LongitudeDegrees>
            </Position>
            <AltitudeMeters>892.4</AltitudeMeters>
            <DistanceMeters>NAN</DistanceMeters>
          </Trackpoint>
          <Trackpoint>
            <Time>2022-06-16T15:00:21Z</Time>
            <Position>
              <LatitudeDegrees>36.8239950</LatitudeDegrees>
              <LongitudeDegrees>-4.3538420</LongitudeDegrees>
            </Position>
            <AltitudeMeters>892.4</AltitudeMeters>
            <DistanceMeters>NAN</DistanceMeters>
          </Trackpoint>
          <Trackpoint>
            <Time>2022-06-16T15:00:22Z</Time>
            <Position>
              <LatitudeDegrees>36.8239830</LatitudeDegrees>
              <LongitudeDegrees>-4.3538420</LongitudeDegrees>
            </Position>
            <AltitudeMeters>892.4</AltitudeMeters>
            <DistanceMeters>NAN</DistanceMeters>
          </Trackpoint>
          <Trackpoint>
            <Time>2022-06-16T15:00:26Z</Time>
            <Position>
              <LatitudeDegrees>36.8239350</LatitudeDegrees>
              <LongitudeDegrees>-4.3538460</LongitudeDegrees>
            </Position>
            <AltitudeMeters>892.5</AltitudeMeters>
            <DistanceMeters>NAN</DistanceMeters>
          </Trackpoint>
          <Trackpoint>
            <Time>2022-06-16T15:00:29Z</Time>
            <Position>
              <LatitudeDegrees>36.8239010</LatitudeDegrees>
              <LongitudeDegrees>-4.3538550</LongitudeDegrees>
            </Position>
            <AltitudeMeters>892.6</AltitudeMeters>
            <DistanceMeters>NAN</DistanceMeters>
          </Trackpoint>
          <Trackpoint>
            <Time>2022-06-16T15:00:32Z</Time>
            <Position>
              <LatitudeDegrees>36.8238660</LatitudeDegrees>
              <LongitudeDegrees>-4.3538630</LongitudeDegrees>
            </Position>
            <AltitudeMeters>892.7</AltitudeMeters>
            <DistanceMeters>NAN</DistanceMeters>
          </Trackpoint>
          <Trackpoint>
            <Time>2022-06-16T15:00:36Z</Time>
            <Position>
              <LatitudeDegrees>36.8238210</LatitudeDegrees>
              <LongitudeDegrees>-4.3538770</LongitudeDegrees>
            </Position>
            <AltitudeMeters>892.8</AltitudeMeters>
            <DistanceMeters>NAN</DistanceMeters>
          </Trackpoint>
          <Trackpoint>
            <Time>2022-06-16T15:00:40Z</Time>
            <Position>
              <LatitudeDegrees>36.8237730</LatitudeDegrees>
              <LongitudeDegrees>-4.3538790</LongitudeDegrees>
            </Position>
            <AltitudeMeters>892.9</AltitudeMeters>
            <DistanceMeters>NAN</DistanceMeters>
          </Trackpoint>
          <Trackpoint>
            <Time>2022-06-16T15:00:44Z</Time>
            <Position>
              <LatitudeDegrees>36.8237170</LatitudeDegrees>
              <LongitudeDegrees>-4.3538840</LongitudeDegrees>
            </Position>
            <AltitudeMeters>893.0</AltitudeMeters>
            <DistanceMeters>NAN</DistanceMeters>
          </Trackpoint>
          <Trackpoint>
            <Time>2022-06-16T15:00:47Z</Time>
            <Position>
              <LatitudeDegrees>36.8236700</LatitudeDegrees>
              <LongitudeDegrees>-4.3538820</LongitudeDegrees>
            </Position>
            <AltitudeMeters>893.1</AltitudeMeters>
            <DistanceMeters>NAN</DistanceMeters>
          </Trackpoint>
          <Trackpoint>
            <Time>2022-06-16T15:00:48Z</Time>
            <Position>
              <LatitudeDegrees>36.8236570</LatitudeDegrees>
              <LongitudeDegrees>-4.3538800</LongitudeDegrees>
            </Position>
            <AltitudeMeters>893.1</AltitudeMeters>
            <DistanceMeters>NAN</DistanceMeters>
          </Trackpoint>
          <Trackpoint>
            <Time>2022-06-16T15:00:49Z</Time>
            <Position>
              <LatitudeDegrees>36.8236430</LatitudeDegrees>
              <LongitudeDegrees>-4.3538800</LongitudeDegrees>
            </Position>
            <AltitudeMeters>893.1</AltitudeMeters>
            <DistanceMeters>NAN</DistanceMeters>
          </Trackpoint>
          <Trackpoint>
            <Time>2022-06-16T15:01:01Z</Time>
            <Position>
              <LatitudeDegrees>36.8234680</LatitudeDegrees>
              <LongitudeDegrees>-4.3538640</LongitudeDegrees>
            </Position>
            <AltitudeMeters>893.5</AltitudeMeters>
            <DistanceMeters>NAN</DistanceMeters>
          </Trackpoint>
          <Trackpoint>
            <Time>2022-06-16T15:01:07Z</Time>
            <Position>
              <LatitudeDegrees>36.8233800</LatitudeDegrees>
              <LongitudeDegrees>-4.3538570</LongitudeDegrees>
            </Position>
            <AltitudeMeters>893.6</AltitudeMeters>
            <DistanceMeters>NAN</DistanceMeters>
          </Trackpoint>
          <Trackpoint>
            <Time>2022-06-16T15:01:17Z</Time>
            <Position>
              <LatitudeDegrees>36.8232230</LatitudeDegrees>
              <LongitudeDegrees>-4.3538410</LongitudeDegrees>
            </Position>
            <AltitudeMeters>893.9</AltitudeMeters>
            <DistanceMeters>NAN</DistanceMeters>
          </Trackpoint>
          <Trackpoint>
            <Time>2022-06-16T15:01:19Z</Time>
            <Position>
              <LatitudeDegrees>36.8231960</LatitudeDegrees>
              <LongitudeDegrees>-4.3538400</LongitudeDegrees>
            </Position>
            <AltitudeMeters>893.9</AltitudeMeters>
            <DistanceMeters>NAN</DistanceMeters>
          </Trackpoint>
          <Trackpoint>
            <Time>2022-06-16T15:01:32Z</Time>
            <Position>
              <LatitudeDegrees>36.8230140</LatitudeDegrees>
              <LongitudeDegrees>-4.3538360</LongitudeDegrees>
            </Position>
            <AltitudeMeters>894.2</AltitudeMeters>
            <DistanceMeters>NAN</DistanceMeters>
          </Trackpoint>
          <Trackpoint>
            <Time>2022-06-16T15:01:48Z</Time>
            <Position>
              <LatitudeDegrees>36.8228540</LatitudeDegrees>
              <LongitudeDegrees>-4.3538420</LongitudeDegrees>
            </Position>
            <AltitudeMeters>894.1</AltitudeMeters>
            <DistanceMeters>NAN</DistanceMeters>
          </Trackpoint>
          <Trackpoint>
            <Time>2022-06-16T15:01:54Z</Time>
            <Position>
              <LatitudeDegrees>36.8227790</LatitudeDegrees>
              <LongitudeDegrees>-4.3538410</LongitudeDegrees>
            </Position>
            <AltitudeMeters>894.1</AltitudeMeters>
            <DistanceMeters>NAN</DistanceMeters>
          </Trackpoint>
          <Trackpoint>
            <Time>2022-06-16T15:02:00Z</Time>
            <Position>
              <LatitudeDegrees>36.8227020</LatitudeDegrees>
              <LongitudeDegrees>-4.3538440</LongitudeDegrees>
            </Position>
            <AltitudeMeters>894.0</AltitudeMeters>
            <DistanceMeters>NAN</DistanceMeters>
          </Trackpoint>
          <Trackpoint>
            <Time>2022-06-16T15:02:13Z</Time>
            <Position>
              <LatitudeDegrees>36.8225340</LatitudeDegrees>
              <LongitudeDegrees>-4.3538120</LongitudeDegrees>
            </Position>
            <AltitudeMeters>893.7</AltitudeMeters>
            <DistanceMeters>NAN</DistanceMeters>
          </Trackpoint>
          <Trackpoint>
            <Time>2022-06-16T15:02:26Z</Time>
            <Position>
              <LatitudeDegrees>36.8223600</LatitudeDegrees>
              <LongitudeDegrees>-4.3537490</LongitudeDegrees>
            </Position>
            <AltitudeMeters>893.5</AltitudeMeters>
            <DistanceMeters>NAN</DistanceMeters>
          </Trackpoint>
          <Trackpoint>
            <Time>2022-06-16T15:02:37Z</Time>
            <Position>
              <LatitudeDegrees>36.8221850</LatitudeDegrees>
              <LongitudeDegrees>-4.3536830</LongitudeDegrees>
            </Position>
            <AltitudeMeters>893.6</AltitudeMeters>
            <DistanceMeters>NAN</DistanceMeters>
          </Trackpoint>
          <Trackpoint>
            <Time>2022-06-16T15:02:51Z</Time>
            <Position>
              <LatitudeDegrees>36.8219990</LatitudeDegrees>
              <LongitudeDegrees>-4.3536490</LongitudeDegrees>
            </Position>
            <AltitudeMeters>893.7</AltitudeMeters>
            <DistanceMeters>NAN</DistanceMeters>
          </Trackpoint>
          <Trackpoint>
            <Time>2022-06-16T15:03:06Z</Time>
            <Position>
              <LatitudeDegrees>36.8218040</LatitudeDegrees>
              <LongitudeDegrees>-4.3536090</LongitudeDegrees>
            </Position>
            <AltitudeMeters>893.7</AltitudeMeters>
            <DistanceMeters>NAN</DistanceMeters>
          </Trackpoint>
          <Trackpoint>
            <Time>2022-06-16T15:03:22Z</Time>
            <Position>
              <LatitudeDegrees>36.8216230</LatitudeDegrees>
              <LongitudeDegrees>-4.3535880</LongitudeDegrees>
            </Position>
            <AltitudeMeters>893.6</AltitudeMeters>
            <DistanceMeters>NAN</DistanceMeters>
          </Trackpoint>
          <Trackpoint>
            <Time>2022-06-16T15:03:37Z</Time>
            <Position>
              <LatitudeDegrees>36.8214400</LatitudeDegrees>
              <LongitudeDegrees>-4.3535520</LongitudeDegrees>
            </Position>
            <AltitudeMeters>893.6</AltitudeMeters>
            <DistanceMeters>NAN</DistanceMeters>
          </Trackpoint>
          <Trackpoint>
            <Time>2022-06-16T15:03:54Z</Time>
            <Position>
              <LatitudeDegrees>36.8212600</LatitudeDegrees>
              <LongitudeDegrees>-4.3535050</LongitudeDegrees>
            </Position>
            <AltitudeMeters>893.5</AltitudeMeters>
            <DistanceMeters>NAN</DistanceMeters>
          </Trackpoint>
          <Trackpoint>
            <Time>2022-06-16T15:03:56Z</Time>
            <Position>
              <LatitudeDegrees>36.8212350</LatitudeDegrees>
              <LongitudeDegrees>-4.3534970</LongitudeDegrees>
            </Position>
            <AltitudeMeters>893.5</AltitudeMeters>
            <DistanceMeters>NAN</DistanceMeters>
          </Trackpoint>
          <Trackpoint>
            <Time>2022-06-16T15:03:59Z</Time>
            <Position>
              <LatitudeDegrees>36.8211900</LatitudeDegrees>
              <LongitudeDegrees>-4.3534910</LongitudeDegrees>
            </Position>
            <AltitudeMeters>893.4</AltitudeMeters>
            <DistanceMeters>NAN</DistanceMeters>
          </Trackpoint>
          <Trackpoint>
            <Time>2022-06-16T15:04:05Z</Time>
            <Position>
              <LatitudeDegrees>36.8211010</LatitudeDegrees>
              <LongitudeDegrees>-4.3534720</LongitudeDegrees>
            </Position>
            <AltitudeMeters>893.4</AltitudeMeters>
            <DistanceMeters>NAN</DistanceMeters>
          </Trackpoint>
          <Trackpoint>
            <Time>2022-06-16T15:04:20Z</Time>
            <Position>
              <LatitudeDegrees>36.8209150</LatitudeDegrees>
              <LongitudeDegrees>-4.3534420</LongitudeDegrees>
            </Position>
            <AltitudeMeters>893.0</AltitudeMeters>
            <DistanceMeters>NAN</DistanceMeters>
          </Trackpoint>
          <Trackpoint>
            <Time>2022-06-16T15:04:34Z</Time>
            <Position>
              <LatitudeDegrees>36.8207320</LatitudeDegrees>
              <LongitudeDegrees>-4.3534330</LongitudeDegrees>
            </Position>
            <AltitudeMeters>892.4</AltitudeMeters>
            <DistanceMeters>NAN</DistanceMeters>
          </Trackpoint>
          <Trackpoint>
            <Time>2022-06-16T15:04:48Z</Time>
            <Position>
              <LatitudeDegrees>36.8205470</LatitudeDegrees>
              <LongitudeDegrees>-4.3534320</LongitudeDegrees>
            </Position>
            <AltitudeMeters>891.8</AltitudeMeters>
            <DistanceMeters>NAN</DistanceMeters>
          </Trackpoint>
          <Trackpoint>
            <Time>2022-06-16T15:05:04Z</Time>
            <Position>
              <LatitudeDegrees>36.8203540</LatitudeDegrees>
              <LongitudeDegrees>-4.3534420</LongitudeDegrees>
            </Position>
            <AltitudeMeters>891.0</AltitudeMeters>
            <DistanceMeters>NAN</DistanceMeters>
          </Trackpoint>
          <Trackpoint>
            <Time>2022-06-16T15:05:21Z</Time>
            <Position>
              <LatitudeDegrees>36.8201700</LatitudeDegrees>
              <LongitudeDegrees>-4.3534580</LongitudeDegrees>
            </Position>
            <AltitudeMeters>890.7</AltitudeMeters>
            <DistanceMeters>NAN</DistanceMeters>
          </Trackpoint>
          <Trackpoint>
            <Time>2022-06-16T15:05:34Z</Time>
            <Position>
              <LatitudeDegrees>36.8199920</LatitudeDegrees>
              <LongitudeDegrees>-4.3535230</LongitudeDegrees>
            </Position>
            <AltitudeMeters>890.5</AltitudeMeters>
            <DistanceMeters>NAN</DistanceMeters>
          </Trackpoint>
          <Trackpoint>
            <Time>2022-06-16T15:05:48Z</Time>
            <Position>
              <LatitudeDegrees>36.8198010</LatitudeDegrees>
              <LongitudeDegrees>-4.3535380</LongitudeDegrees>
            </Position>
            <AltitudeMeters>890.3</AltitudeMeters>
            <DistanceMeters>NAN</DistanceMeters>
          </Trackpoint>
          <Trackpoint>
            <Time>2022-06-16T15:06:02Z</Time>
            <Position>
              <LatitudeDegrees>36.8196170</LatitudeDegrees>
              <LongitudeDegrees>-4.3535920</LongitudeDegrees>
            </Position>
            <AltitudeMeters>890.2</AltitudeMeters>
            <DistanceMeters>NAN</DistanceMeters>
          </Trackpoint>
          <Trackpoint>
            <Time>2022-06-16T15:06:16Z</Time>
            <Position>
              <LatitudeDegrees>36.8194410</LatitudeDegrees>
              <LongitudeDegrees>-4.3536720</LongitudeDegrees>
            </Position>
            <AltitudeMeters>890.1</AltitudeMeters>
            <DistanceMeters>NAN</DistanceMeters>
          </Trackpoint>
          <Trackpoint>
            <Time>2022-06-16T15:06:30Z</Time>
            <Position>
              <LatitudeDegrees>36.8192970</LatitudeDegrees>
              <LongitudeDegrees>-4.3538070</LongitudeDegrees>
            </Position>
            <AltitudeMeters>890.2</AltitudeMeters>
            <DistanceMeters>NAN</DistanceMeters>
          </Trackpoint>
          <Trackpoint>
            <Time>2022-06-16T15:06:43Z</Time>
            <Position>
              <LatitudeDegrees>36.8191470</LatitudeDegrees>
              <LongitudeDegrees>-4.3539470</LongitudeDegrees>
            </Position>
            <AltitudeMeters>890.6</AltitudeMeters>
            <DistanceMeters>NAN</DistanceMeters>
          </Trackpoint>
          <Trackpoint>
            <Time>2022-06-16T15:06:56Z</Time>
            <Position>
              <LatitudeDegrees>36.8189920</LatitudeDegrees>
              <LongitudeDegrees>-4.3540780</LongitudeDegrees>
            </Position>
            <AltitudeMeters>891.3</AltitudeMeters>
            <DistanceMeters>NAN</DistanceMeters>
          </Trackpoint>
          <Trackpoint>
            <Time>2022-06-16T15:07:10Z</Time>
            <Position>
              <LatitudeDegrees>36.8188360</LatitudeDegrees>
              <LongitudeDegrees>-4.3542030</LongitudeDegrees>
            </Position>
            <AltitudeMeters>892.0</AltitudeMeters>
            <DistanceMeters>NAN</DistanceMeters>
          </Trackpoint>
          <Trackpoint>
            <Time>2022-06-16T15:07:22Z</Time>
            <Position>
              <LatitudeDegrees>36.8186600</LatitudeDegrees>
              <LongitudeDegrees>-4.3542910</LongitudeDegrees>
            </Position>
            <AltitudeMeters>892.9</AltitudeMeters>
            <DistanceMeters>NAN</DistanceMeters>
          </Trackpoint>
          <Trackpoint>
            <Time>2022-06-16T15:07:38Z</Time>
            <Position>
              <LatitudeDegrees>36.8184740</LatitudeDegrees>
              <LongitudeDegrees>-4.3542690</LongitudeDegrees>
            </Position>
            <AltitudeMeters>893.6</AltitudeMeters>
            <DistanceMeters>NAN</DistanceMeters>
          </Trackpoint>
          <Trackpoint>
            <Time>2022-06-16T15:07:49Z</Time>
            <Position>
              <LatitudeDegrees>36.8182920</LatitudeDegrees>
              <LongitudeDegrees>-4.3542570</LongitudeDegrees>
            </Position>
            <AltitudeMeters>893.9</AltitudeMeters>
            <DistanceMeters>NAN</DistanceMeters>
          </Trackpoint>
          <Trackpoint>
            <Time>2022-06-16T15:08:04Z</Time>
            <Position>
              <LatitudeDegrees>36.8181130</LatitudeDegrees>
              <LongitudeDegrees>-4.3543200</LongitudeDegrees>
            </Position>
            <AltitudeMeters>894.2</AltitudeMeters>
            <DistanceMeters>NAN</DistanceMeters>
          </Trackpoint>
          <Trackpoint>
            <Time>2022-06-16T15:08:25Z</Time>
            <Position>
              <LatitudeDegrees>36.8179830</LatitudeDegrees>
              <LongitudeDegrees>-4.3544860</LongitudeDegrees>
            </Position>
            <AltitudeMeters>894.4</AltitudeMeters>
            <DistanceMeters>NAN</DistanceMeters>
          </Trackpoint>
          <Trackpoint>
            <Time>2022-06-16T15:08:39Z</Time>
            <Position>
              <LatitudeDegrees>36.8178380</LatitudeDegrees>
              <LongitudeDegrees>-4.3546330</LongitudeDegrees>
            </Position>
            <AltitudeMeters>894.5</AltitudeMeters>
            <DistanceMeters>NAN</DistanceMeters>
          </Trackpoint>
          <Trackpoint>
            <Time>2022-06-16T15:08:51Z</Time>
            <Position>
              <LatitudeDegrees>36.8176630</LatitudeDegrees>
              <LongitudeDegrees>-4.3547280</LongitudeDegrees>
            </Position>
            <AltitudeMeters>894.6</AltitudeMeters>
            <DistanceMeters>NAN</DistanceMeters>
          </Trackpoint>
          <Trackpoint>
            <Time>2022-06-16T15:09:05Z</Time>
            <Position>
              <LatitudeDegrees>36.8175050</LatitudeDegrees>
              <LongitudeDegrees>-4.3548610</LongitudeDegrees>
            </Position>
            <AltitudeMeters>894.6</AltitudeMeters>
            <DistanceMeters>NAN</DistanceMeters>
          </Trackpoint>
          <Trackpoint>
            <Time>2022-06-16T15:09:20Z</Time>
            <Position>
              <LatitudeDegrees>36.8173700</LatitudeDegrees>
              <LongitudeDegrees>-4.3550350</LongitudeDegrees>
            </Position>
            <AltitudeMeters>894.6</AltitudeMeters>
            <DistanceMeters>NAN</DistanceMeters>
          </Trackpoint>
          <Trackpoint>
            <Time>2022-06-16T15:09:35Z</Time>
            <Position>
              <LatitudeDegrees>36.8172580</LatitudeDegrees>
              <LongitudeDegrees>-4.3552180</LongitudeDegrees>
            </Position>
            <AltitudeMeters>894.8</AltitudeMeters>
            <DistanceMeters>NAN</DistanceMeters>
          </Trackpoint>
          <Trackpoint>
            <Time>2022-06-16T15:09:48Z</Time>
            <Position>
              <LatitudeDegrees>36.8172100</LatitudeDegrees>
              <LongitudeDegrees>-4.3554570</LongitudeDegrees>
            </Position>
            <AltitudeMeters>895.2</AltitudeMeters>
            <DistanceMeters>NAN</DistanceMeters>
          </Trackpoint>
          <Trackpoint>
            <Time>2022-06-16T15:10:01Z</Time>
            <Position>
              <LatitudeDegrees>36.8171580</LatitudeDegrees>
              <LongitudeDegrees>-4.3556740</LongitudeDegrees>
            </Position>
            <AltitudeMeters>895.3</AltitudeMeters>
            <DistanceMeters>NAN</DistanceMeters>
          </Trackpoint>
          <Trackpoint>
            <Time>2022-06-16T15:10:16Z</Time>
            <Position>
              <LatitudeDegrees>36.8171440</LatitudeDegrees>
              <LongitudeDegrees>-4.3559070</LongitudeDegrees>
            </Position>
            <AltitudeMeters>895.2</AltitudeMeters>
            <DistanceMeters>NAN</DistanceMeters>
          </Trackpoint>
          <Trackpoint>
            <Time>2022-06-16T15:10:29Z</Time>
            <Position>
              <LatitudeDegrees>36.8170810</LatitudeDegrees>
              <LongitudeDegrees>-4.3561220</LongitudeDegrees>
            </Position>
            <AltitudeMeters>894.7</AltitudeMeters>
            <DistanceMeters>NAN</DistanceMeters>
          </Trackpoint>
          <Trackpoint>
            <Time>2022-06-16T15:10:42Z</Time>
            <Position>
              <LatitudeDegrees>36.8170400</LatitudeDegrees>
              <LongitudeDegrees>-4.3563470</LongitudeDegrees>
            </Position>
            <AltitudeMeters>894.1</AltitudeMeters>
            <DistanceMeters>NAN</DistanceMeters>
          </Trackpoint>
          <Trackpoint>
            <Time>2022-06-16T15:10:55Z</Time>
            <Position>
              <LatitudeDegrees>36.8170400</LatitudeDegrees>
              <LongitudeDegrees>-4.3565800</LongitudeDegrees>
            </Position>
            <AltitudeMeters>893.4</AltitudeMeters>
            <DistanceMeters>NAN</DistanceMeters>
          </Trackpoint>
          <Trackpoint>
            <Time>2022-06-16T15:11:09Z</Time>
            <Position>
              <LatitudeDegrees>36.8170780</LatitudeDegrees>
              <LongitudeDegrees>-4.3568050</LongitudeDegrees>
            </Position>
            <AltitudeMeters>892.6</AltitudeMeters>
            <DistanceMeters>NAN</DistanceMeters>
          </Trackpoint>
          <Trackpoint>
            <Time>2022-06-16T15:11:10Z</Time>
            <Position>
              <LatitudeDegrees>36.8170810</LatitudeDegrees>
              <LongitudeDegrees>-4.3568210</LongitudeDegrees>
            </Position>
            <AltitudeMeters>892.6</AltitudeMeters>
            <DistanceMeters>NAN</DistanceMeters>
          </Trackpoint>
          <Trackpoint>
            <Time>2022-06-16T15:11:24Z</Time>
            <Position>
              <LatitudeDegrees>36.8171270</LatitudeDegrees>
              <LongitudeDegrees>-4.3570460</LongitudeDegrees>
            </Position>
            <AltitudeMeters>891.8</AltitudeMeters>
            <DistanceMeters>NAN</DistanceMeters>
          </Trackpoint>
          <Trackpoint>
            <Time>2022-06-16T15:11:38Z</Time>
            <Position>
              <LatitudeDegrees>36.8171410</LatitudeDegrees>
              <LongitudeDegrees>-4.3572750</LongitudeDegrees>
            </Position>
            <AltitudeMeters>890.9</AltitudeMeters>
            <DistanceMeters>NAN</DistanceMeters>
          </Trackpoint>
          <Trackpoint>
            <Time>2022-06-16T15:11:56Z</Time>
            <Position>
              <LatitudeDegrees>36.8170970</LatitudeDegrees>
              <LongitudeDegrees>-4.3575020</LongitudeDegrees>
            </Position>
            <AltitudeMeters>889.9</AltitudeMeters>
            <DistanceMeters>NAN</DistanceMeters>
          </Trackpoint>
          <Trackpoint>
            <Time>2022-06-16T15:12:12Z</Time>
            <Position>
              <LatitudeDegrees>36.8170460</LatitudeDegrees>
              <LongitudeDegrees>-4.3577250</LongitudeDegrees>
            </Position>
            <AltitudeMeters>889.1</AltitudeMeters>
            <DistanceMeters>NAN</DistanceMeters>
          </Trackpoint>
          <Trackpoint>
            <Time>2022-06-16T15:12:28Z</Time>
            <Position>
              <LatitudeDegrees>36.8169610</LatitudeDegrees>
              <LongitudeDegrees>-4.3579410</LongitudeDegrees>
            </Position>
            <AltitudeMeters>888.3</AltitudeMeters>
            <DistanceMeters>NAN</DistanceMeters>
          </Trackpoint>
          <Trackpoint>
            <Time>2022-06-16T15:12:41Z</Time>
            <Position>
              <LatitudeDegrees>36.8169050</LatitudeDegrees>
              <LongitudeDegrees>-4.3581690</LongitudeDegrees>
            </Position>
            <AltitudeMeters>887.5</AltitudeMeters>
            <DistanceMeters>NAN</DistanceMeters>
          </Trackpoint>
          <Trackpoint>
            <Time>2022-06-16T15:12:48Z</Time>
            <Position>
              <LatitudeDegrees>36.8168950</LatitudeDegrees>
              <LongitudeDegrees>-4.3582920</LongitudeDegrees>
            </Position>
            <AltitudeMeters>887.3</AltitudeMeters>
            <DistanceMeters>NAN</DistanceMeters>
          </Trackpoint>
          <Trackpoint>
            <Time>2022-06-16T15:13:01Z</Time>
            <Position>
              <LatitudeDegrees>36.8169100</LatitudeDegrees>
              <LongitudeDegrees>-4.3585230</LongitudeDegrees>
            </Position>
            <AltitudeMeters>886.9</AltitudeMeters>
            <DistanceMeters>NAN</DistanceMeters>
          </Trackpoint>
          <Trackpoint>
            <Time>2022-06-16T15:13:18Z</Time>
            <Position>
              <LatitudeDegrees>36.8169730</LatitudeDegrees>
              <LongitudeDegrees>-4.3587330</LongitudeDegrees>
            </Position>
            <AltitudeMeters>886.8</AltitudeMeters>
            <DistanceMeters>NAN</DistanceMeters>
          </Trackpoint>
          <Trackpoint>
            <Time>2022-06-16T15:13:27Z</Time>
            <Position>
              <LatitudeDegrees>36.8169990</LatitudeDegrees>
              <LongitudeDegrees>-4.3588360</LongitudeDegrees>
            </Position>
            <AltitudeMeters>886.9</AltitudeMeters>
            <DistanceMeters>NAN</DistanceMeters>
          </Trackpoint>
          <Trackpoint>
            <Time>2022-06-16T15:13:32Z</Time>
            <Position>
              <LatitudeDegrees>36.8169860</LatitudeDegrees>
              <LongitudeDegrees>-4.3589060</LongitudeDegrees>
            </Position>
            <AltitudeMeters>887.0</AltitudeMeters>
            <DistanceMeters>NAN</DistanceMeters>
          </Trackpoint>
          <Trackpoint>
            <Time>2022-06-16T15:13:33Z</Time>
            <Position>
              <LatitudeDegrees>36.8169860</LatitudeDegrees>
              <LongitudeDegrees>-4.3589210</LongitudeDegrees>
            </Position>
            <AltitudeMeters>887.0</AltitudeMeters>
            <DistanceMeters>NAN</DistanceMeters>
          </Trackpoint>
          <Trackpoint>
            <Time>2022-06-16T15:13:34Z</Time>
            <Position>
              <LatitudeDegrees>36.8169860</LatitudeDegrees>
              <LongitudeDegrees>-4.3589360</LongitudeDegrees>
            </Position>
            <AltitudeMeters>887.0</AltitudeMeters>
            <DistanceMeters>NAN</DistanceMeters>
          </Trackpoint>
          <Trackpoint>
            <Time>2022-06-16T15:13:35Z</Time>
            <Position>
              <LatitudeDegrees>36.8169850</LatitudeDegrees>
              <LongitudeDegrees>-4.3589530</LongitudeDegrees>
            </Position>
            <AltitudeMeters>887.1</AltitudeMeters>
            <DistanceMeters>NAN</DistanceMeters>
          </Trackpoint>
          <Trackpoint>
            <Time>2022-06-16T15:13:41Z</Time>
            <Position>
              <LatitudeDegrees>36.8169950</LatitudeDegrees>
              <LongitudeDegrees>-4.3590380</LongitudeDegrees>
            </Position>
            <AltitudeMeters>887.2</AltitudeMeters>
            <DistanceMeters>NAN</DistanceMeters>
          </Trackpoint>
          <Trackpoint>
            <Time>2022-06-16T15:13:42Z</Time>
            <Position>
              <LatitudeDegrees>36.8169980</LatitudeDegrees>
              <LongitudeDegrees>-4.3590520</LongitudeDegrees>
            </Position>
            <AltitudeMeters>887.2</AltitudeMeters>
            <DistanceMeters>NAN</DistanceMeters>
          </Trackpoint>
          <Trackpoint>
            <Time>2022-06-16T15:13:43Z</Time>
            <Position>
              <LatitudeDegrees>36.8170000</LatitudeDegrees>
              <LongitudeDegrees>-4.3590650</LongitudeDegrees>
            </Position>
            <AltitudeMeters>887.2</AltitudeMeters>
            <DistanceMeters>NAN</DistanceMeters>
          </Trackpoint>
          <Trackpoint>
            <Time>2022-06-16T15:13:45Z</Time>
            <Position>
              <LatitudeDegrees>36.8170050</LatitudeDegrees>
              <LongitudeDegrees>-4.3590950</LongitudeDegrees>
            </Position>
            <AltitudeMeters>887.3</AltitudeMeters>
            <DistanceMeters>NAN</DistanceMeters>
          </Trackpoint>
          <Trackpoint>
            <Time>2022-06-16T15:13:46Z</Time>
            <Position>
              <LatitudeDegrees>36.8170070</LatitudeDegrees>
              <LongitudeDegrees>-4.3591130</LongitudeDegrees>
            </Position>
            <AltitudeMeters>887.3</AltitudeMeters>
            <DistanceMeters>NAN</DistanceMeters>
          </Trackpoint>
          <Trackpoint>
            <Time>2022-06-16T15:13:47Z</Time>
            <Position>
              <LatitudeDegrees>36.8170090</LatitudeDegrees>
              <LongitudeDegrees>-4.3591300</LongitudeDegrees>
            </Position>
            <AltitudeMeters>887.3</AltitudeMeters>
            <DistanceMeters>NAN</DistanceMeters>
          </Trackpoint>
          <Trackpoint>
            <Time>2022-06-16T15:14:06Z</Time>
            <Position>
              <LatitudeDegrees>36.8170410</LatitudeDegrees>
              <LongitudeDegrees>-4.3593550</LongitudeDegrees>
            </Position>
            <AltitudeMeters>887.6</AltitudeMeters>
            <DistanceMeters>NAN</DistanceMeters>
          </Trackpoint>
          <Trackpoint>
            <Time>2022-06-16T15:14:13Z</Time>
            <Position>
              <LatitudeDegrees>36.8170440</LatitudeDegrees>
              <LongitudeDegrees>-4.3594650</LongitudeDegrees>
            </Position>
            <AltitudeMeters>887.8</AltitudeMeters>
            <DistanceMeters>NAN</DistanceMeters>
          </Trackpoint>
          <Trackpoint>
            <Time>2022-06-16T15:14:18Z</Time>
            <Position>
              <LatitudeDegrees>36.8170450</LatitudeDegrees>
              <LongitudeDegrees>-4.3595400</LongitudeDegrees>
            </Position>
            <AltitudeMeters>887.9</AltitudeMeters>
            <DistanceMeters>NAN</DistanceMeters>
          </Trackpoint>
          <Trackpoint>
            <Time>2022-06-16T15:14:19Z</Time>
            <Position>
              <LatitudeDegrees>36.8170440</LatitudeDegrees>
              <LongitudeDegrees>-4.3595510</LongitudeDegrees>
            </Position>
            <AltitudeMeters>887.9</AltitudeMeters>
            <DistanceMeters>NAN</DistanceMeters>
          </Trackpoint>
          <Trackpoint>
            <Time>2022-06-16T15:14:20Z</Time>
            <Position>
              <LatitudeDegrees>36.8170440</LatitudeDegrees>
              <LongitudeDegrees>-4.3595620</LongitudeDegrees>
            </Position>
            <AltitudeMeters>887.9</AltitudeMeters>
            <DistanceMeters>NAN</DistanceMeters>
          </Trackpoint>
          <Trackpoint>
            <Time>2022-06-16T15:14:21Z</Time>
            <Position>
              <LatitudeDegrees>36.8170460</LatitudeDegrees>
              <LongitudeDegrees>-4.3595760</LongitudeDegrees>
            </Position>
            <AltitudeMeters>888.0</AltitudeMeters>
            <DistanceMeters>NAN</DistanceMeters>
          </Trackpoint>
          <Trackpoint>
            <Time>2022-06-16T15:14:22Z</Time>
            <Position>
              <LatitudeDegrees>36.8170470</LatitudeDegrees>
              <LongitudeDegrees>-4.3595900</LongitudeDegrees>
            </Position>
            <AltitudeMeters>888.0</AltitudeMeters>
            <DistanceMeters>NAN</DistanceMeters>
          </Trackpoint>
          <Trackpoint>
            <Time>2022-06-16T15:14:23Z</Time>
            <Position>
              <LatitudeDegrees>36.8170520</LatitudeDegrees>
              <LongitudeDegrees>-4.3596040</LongitudeDegrees>
            </Position>
            <AltitudeMeters>888.0</AltitudeMeters>
            <DistanceMeters>NAN</DistanceMeters>
          </Trackpoint>
          <Trackpoint>
            <Time>2022-06-16T15:14:24Z</Time>
            <Position>
              <LatitudeDegrees>36.8170550</LatitudeDegrees>
              <LongitudeDegrees>-4.3596180</LongitudeDegrees>
            </Position>
            <AltitudeMeters>888.0</AltitudeMeters>
            <DistanceMeters>NAN</DistanceMeters>
          </Trackpoint>
          <Trackpoint>
            <Time>2022-06-16T15:14:33Z</Time>
            <Position>
              <LatitudeDegrees>36.8170720</LatitudeDegrees>
              <LongitudeDegrees>-4.3597580</LongitudeDegrees>
            </Position>
            <AltitudeMeters>888.3</AltitudeMeters>
            <DistanceMeters>NAN</DistanceMeters>
          </Trackpoint>
          <Trackpoint>
            <Time>2022-06-16T15:14:38Z</Time>
            <Position>
              <LatitudeDegrees>36.8170880</LatitudeDegrees>
              <LongitudeDegrees>-4.3598370</LongitudeDegrees>
            </Position>
            <AltitudeMeters>888.5</AltitudeMeters>
            <DistanceMeters>NAN</DistanceMeters>
          </Trackpoint>
          <Trackpoint>
            <Time>2022-06-16T15:14:41Z</Time>
            <Position>
              <LatitudeDegrees>36.8170930</LatitudeDegrees>
              <LongitudeDegrees>-4.3598850</LongitudeDegrees>
            </Position>
            <AltitudeMeters>888.6</AltitudeMeters>
            <DistanceMeters>NAN</DistanceMeters>
          </Trackpoint>
          <Trackpoint>
            <Time>2022-06-16T15:14:45Z</Time>
            <Position>
              <LatitudeDegrees>36.8171030</LatitudeDegrees>
              <LongitudeDegrees>-4.3599410</LongitudeDegrees>
            </Position>
            <AltitudeMeters>888.8</AltitudeMeters>
            <DistanceMeters>NAN</DistanceMeters>
          </Trackpoint>
          <Trackpoint>
            <Time>2022-06-16T15:14:50Z</Time>
            <Position>
              <LatitudeDegrees>36.8171200</LatitudeDegrees>
              <LongitudeDegrees>-4.3600130</LongitudeDegrees>
            </Position>
            <AltitudeMeters>889.0</AltitudeMeters>
            <DistanceMeters>NAN</DistanceMeters>
          </Trackpoint>
          <Trackpoint>
            <Time>2022-06-16T15:14:57Z</Time>
            <Position>
              <LatitudeDegrees>36.8171320</LatitudeDegrees>
              <LongitudeDegrees>-4.3601240</LongitudeDegrees>
            </Position>
            <AltitudeMeters>889.3</AltitudeMeters>
            <DistanceMeters>NAN</DistanceMeters>
          </Trackpoint>
          <Trackpoint>
            <Time>2022-06-16T15:15:06Z</Time>
            <Position>
              <LatitudeDegrees>36.8171320</LatitudeDegrees>
              <LongitudeDegrees>-4.3602660</LongitudeDegrees>
            </Position>
            <AltitudeMeters>889.7</AltitudeMeters>
            <DistanceMeters>NAN</DistanceMeters>
          </Trackpoint>
          <Trackpoint>
            <Time>2022-06-16T15:15:21Z</Time>
            <Position>
              <LatitudeDegrees>36.8170730</LatitudeDegrees>
              <LongitudeDegrees>-4.3604780</LongitudeDegrees>
            </Position>
            <AltitudeMeters>890.1</AltitudeMeters>
            <DistanceMeters>NAN</DistanceMeters>
          </Trackpoint>
          <Trackpoint>
            <Time>2022-06-16T15:15:36Z</Time>
            <Position>
              <LatitudeDegrees>36.8169920</LatitudeDegrees>
              <LongitudeDegrees>-4.3606890</LongitudeDegrees>
            </Position>
            <AltitudeMeters>890.0</AltitudeMeters>
            <DistanceMeters>NAN</DistanceMeters>
          </Trackpoint>
          <Trackpoint>
            <Time>2022-06-16T15:15:47Z</Time>
            <Position>
              <LatitudeDegrees>36.8169210</LatitudeDegrees>
              <LongitudeDegrees>-4.3608420</LongitudeDegrees>
            </Position>
            <AltitudeMeters>889.9</AltitudeMeters>
            <DistanceMeters>NAN</DistanceMeters>
          </Trackpoint>
          <Trackpoint>
            <Time>2022-06-16T15:15:59Z</Time>
            <Position>
              <LatitudeDegrees>36.8168790</LatitudeDegrees>
              <LongitudeDegrees>-4.3610220</LongitudeDegrees>
            </Position>
            <AltitudeMeters>889.7</AltitudeMeters>
            <DistanceMeters>NAN</DistanceMeters>
          </Trackpoint>
          <Trackpoint>
            <Time>2022-06-16T15:16:19Z</Time>
            <Position>
              <LatitudeDegrees>36.8168340</LatitudeDegrees>
              <LongitudeDegrees>-4.3612540</LongitudeDegrees>
            </Position>
            <AltitudeMeters>889.5</AltitudeMeters>
            <DistanceMeters>NAN</DistanceMeters>
          </Trackpoint>
          <Trackpoint>
            <Time>2022-06-16T15:16:34Z</Time>
            <Position>
              <LatitudeDegrees>36.8167730</LatitudeDegrees>
              <LongitudeDegrees>-4.3614780</LongitudeDegrees>
            </Position>
            <AltitudeMeters>889.3</AltitudeMeters>
            <DistanceMeters>NAN</DistanceMeters>
          </Trackpoint>
          <Trackpoint>
            <Time>2022-06-16T15:16:50Z</Time>
            <Position>
              <LatitudeDegrees>36.8167110</LatitudeDegrees>
              <LongitudeDegrees>-4.3617030</LongitudeDegrees>
            </Position>
            <AltitudeMeters>889.0</AltitudeMeters>
            <DistanceMeters>NAN</DistanceMeters>
          </Trackpoint>
          <Trackpoint>
            <Time>2022-06-16T15:17:06Z</Time>
            <Position>
              <LatitudeDegrees>36.8167140</LatitudeDegrees>
              <LongitudeDegrees>-4.3619340</LongitudeDegrees>
            </Position>
            <AltitudeMeters>888.8</AltitudeMeters>
            <DistanceMeters>NAN</DistanceMeters>
          </Trackpoint>
          <Trackpoint>
            <Time>2022-06-16T15:17:22Z</Time>
            <Position>
              <LatitudeDegrees>36.8166660</LatitudeDegrees>
              <LongitudeDegrees>-4.3621590</LongitudeDegrees>
            </Position>
            <AltitudeMeters>888.6</AltitudeMeters>
            <DistanceMeters>NAN</DistanceMeters>
          </Trackpoint>
          <Trackpoint>
            <Time>2022-06-16T15:17:32Z</Time>
            <Position>
              <LatitudeDegrees>36.8166230</LatitudeDegrees>
              <LongitudeDegrees>-4.3623320</LongitudeDegrees>
            </Position>
            <AltitudeMeters>888.7</AltitudeMeters>
            <DistanceMeters>NAN</DistanceMeters>
          </Trackpoint>
          <Trackpoint>
            <Time>2022-06-16T15:17:46Z</Time>
            <Position>
              <LatitudeDegrees>36.8165710</LatitudeDegrees>
              <LongitudeDegrees>-4.3625530</LongitudeDegrees>
            </Position>
            <AltitudeMeters>888.8</AltitudeMeters>
            <DistanceMeters>NAN</DistanceMeters>
          </Trackpoint>
          <Trackpoint>
            <Time>2022-06-16T15:18:02Z</Time>
            <Position>
              <LatitudeDegrees>36.8165450</LatitudeDegrees>
              <LongitudeDegrees>-4.3627820</LongitudeDegrees>
            </Position>
            <AltitudeMeters>889.0</AltitudeMeters>
            <DistanceMeters>NAN</DistanceMeters>
          </Trackpoint>
          <Trackpoint>
            <Time>2022-06-16T15:18:19Z</Time>
            <Position>
              <LatitudeDegrees>36.8164600</LatitudeDegrees>
              <LongitudeDegrees>-4.3629930</LongitudeDegrees>
            </Position>
            <AltitudeMeters>889.2</AltitudeMeters>
            <DistanceMeters>NAN</DistanceMeters>
          </Trackpoint>
          <Trackpoint>
            <Time>2022-06-16T15:18:25Z</Time>
            <Position>
              <LatitudeDegrees>36.8164370</LatitudeDegrees>
              <LongitudeDegrees>-4.3630870</LongitudeDegrees>
            </Position>
            <AltitudeMeters>889.3</AltitudeMeters>
            <DistanceMeters>NAN</DistanceMeters>
          </Trackpoint>
          <Trackpoint>
            <Time>2022-06-16T15:18:35Z</Time>
            <Position>
              <LatitudeDegrees>36.8164040</LatitudeDegrees>
              <LongitudeDegrees>-4.3632430</LongitudeDegrees>
            </Position>
            <AltitudeMeters>889.6</AltitudeMeters>
            <DistanceMeters>NAN</DistanceMeters>
          </Trackpoint>
          <Trackpoint>
            <Time>2022-06-16T15:18:36Z</Time>
            <Position>
              <LatitudeDegrees>36.8163990</LatitudeDegrees>
              <LongitudeDegrees>-4.3632560</LongitudeDegrees>
            </Position>
            <AltitudeMeters>889.6</AltitudeMeters>
            <DistanceMeters>NAN</DistanceMeters>
          </Trackpoint>
          <Trackpoint>
            <Time>2022-06-16T15:18:38Z</Time>
            <Position>
              <LatitudeDegrees>36.8163900</LatitudeDegrees>
              <LongitudeDegrees>-4.3632790</LongitudeDegrees>
            </Position>
            <AltitudeMeters>889.7</AltitudeMeters>
            <DistanceMeters>NAN</DistanceMeters>
          </Trackpoint>
          <Trackpoint>
            <Time>2022-06-16T15:18:39Z</Time>
            <Position>
              <LatitudeDegrees>36.8163860</LatitudeDegrees>
              <LongitudeDegrees>-4.3632910</LongitudeDegrees>
            </Position>
            <AltitudeMeters>889.7</AltitudeMeters>
            <DistanceMeters>NAN</DistanceMeters>
          </Trackpoint>
          <Trackpoint>
            <Time>2022-06-16T15:18:40Z</Time>
            <Position>
              <LatitudeDegrees>36.8163810</LatitudeDegrees>
              <LongitudeDegrees>-4.3633030</LongitudeDegrees>
            </Position>
            <AltitudeMeters>889.7</AltitudeMeters>
            <DistanceMeters>NAN</DistanceMeters>
          </Trackpoint>
          <Trackpoint>
            <Time>2022-06-16T15:18:51Z</Time>
            <Position>
              <LatitudeDegrees>36.8163280</LatitudeDegrees>
              <LongitudeDegrees>-4.3634720</LongitudeDegrees>
            </Position>
            <AltitudeMeters>890.2</AltitudeMeters>
            <DistanceMeters>NAN</DistanceMeters>
          </Trackpoint>
          <Trackpoint>
            <Time>2022-06-16T15:18:54Z</Time>
            <Position>
              <LatitudeDegrees>36.8163100</LatitudeDegrees>
              <LongitudeDegrees>-4.3635140</LongitudeDegrees>
            </Position>
            <AltitudeMeters>890.4</AltitudeMeters>
            <DistanceMeters>NAN</DistanceMeters>
          </Trackpoint>
          <Trackpoint>
            <Time>2022-06-16T15:18:58Z</Time>
            <Position>
              <LatitudeDegrees>36.8162830</LatitudeDegrees>
              <LongitudeDegrees>-4.3635530</LongitudeDegrees>
            </Position>
            <AltitudeMeters>890.5</AltitudeMeters>
            <DistanceMeters>NAN</DistanceMeters>
          </Trackpoint>
          <Trackpoint>
            <Time>2022-06-16T15:19:05Z</Time>
            <Position>
              <LatitudeDegrees>36.8162310</LatitudeDegrees>
              <LongitudeDegrees>-4.3636220</LongitudeDegrees>
            </Position>
            <AltitudeMeters>890.8</AltitudeMeters>
            <DistanceMeters>NAN</DistanceMeters>
          </Trackpoint>
          <Trackpoint>
            <Time>2022-06-16T15:19:14Z</Time>
            <Position>
              <LatitudeDegrees>36.8161660</LatitudeDegrees>
              <LongitudeDegrees>-4.3637260</LongitudeDegrees>
            </Position>
            <AltitudeMeters>891.3</AltitudeMeters>
            <DistanceMeters>NAN</DistanceMeters>
          </Trackpoint>
          <Trackpoint>
            <Time>2022-06-16T15:19:28Z</Time>
            <Position>
              <LatitudeDegrees>36.8160480</LatitudeDegrees>
              <LongitudeDegrees>-4.3639060</LongitudeDegrees>
            </Position>
            <AltitudeMeters>892.3</AltitudeMeters>
            <DistanceMeters>NAN</DistanceMeters>
          </Trackpoint>
          <Trackpoint>
            <Time>2022-06-16T15:19:43Z</Time>
            <Position>
              <LatitudeDegrees>36.8159460</LatitudeDegrees>
              <LongitudeDegrees>-4.3640900</LongitudeDegrees>
            </Position>
            <AltitudeMeters>893.2</AltitudeMeters>
            <DistanceMeters>NAN</DistanceMeters>
          </Trackpoint>
          <Trackpoint>
            <Time>2022-06-16T15:19:50Z</Time>
            <Position>
              <LatitudeDegrees>36.8158950</LatitudeDegrees>
              <LongitudeDegrees>-4.3641700</LongitudeDegrees>
            </Position>
            <AltitudeMeters>893.7</AltitudeMeters>
            <DistanceMeters>NAN</DistanceMeters>
          </Trackpoint>
          <Trackpoint>
            <Time>2022-06-16T15:19:52Z</Time>
            <Position>
              <LatitudeDegrees>36.8158810</LatitudeDegrees>
              <LongitudeDegrees>-4.3641950</LongitudeDegrees>
            </Position>
            <AltitudeMeters>893.8</AltitudeMeters>
            <DistanceMeters>NAN</DistanceMeters>
          </Trackpoint>
          <Trackpoint>
            <Time>2022-06-16T15:19:56Z</Time>
            <Position>
              <LatitudeDegrees>36.8158500</LatitudeDegrees>
              <LongitudeDegrees>-4.3642450</LongitudeDegrees>
            </Position>
            <AltitudeMeters>894.1</AltitudeMeters>
            <DistanceMeters>NAN</DistanceMeters>
          </Trackpoint>
          <Trackpoint>
            <Time>2022-06-16T15:20:16Z</Time>
            <Position>
              <LatitudeDegrees>36.8157520</LatitudeDegrees>
              <LongitudeDegrees>-4.3644330</LongitudeDegrees>
            </Position>
            <AltitudeMeters>895.2</AltitudeMeters>
            <DistanceMeters>NAN</DistanceMeters>
          </Trackpoint>
          <Trackpoint>
            <Time>2022-06-16T15:20:31Z</Time>
            <Position>
              <LatitudeDegrees>36.8156240</LatitudeDegrees>
              <LongitudeDegrees>-4.3646040</LongitudeDegrees>
            </Position>
            <AltitudeMeters>896.4</AltitudeMeters>
            <DistanceMeters>NAN</DistanceMeters>
          </Trackpoint>
          <Trackpoint>
            <Time>2022-06-16T15:20:46Z</Time>
            <Position>
              <LatitudeDegrees>36.8154920</LatitudeDegrees>
              <LongitudeDegrees>-4.3647700</LongitudeDegrees>
            </Position>
            <AltitudeMeters>897.6</AltitudeMeters>
            <DistanceMeters>NAN</DistanceMeters>
          </Trackpoint>
          <Trackpoint>
            <Time>2022-06-16T15:20:53Z</Time>
            <Position>
              <LatitudeDegrees>36.8154230</LatitudeDegrees>
              <LongitudeDegrees>-4.3648300</LongitudeDegrees>
            </Position>
            <AltitudeMeters>898.1</AltitudeMeters>
            <DistanceMeters>NAN</DistanceMeters>
          </Trackpoint>
          <Trackpoint>
            <Time>2022-06-16T15:21:02Z</Time>
            <Position>
              <LatitudeDegrees>36.8153410</LatitudeDegrees>
              <LongitudeDegrees>-4.3649150</LongitudeDegrees>
            </Position>
            <AltitudeMeters>898.8</AltitudeMeters>
            <DistanceMeters>NAN</DistanceMeters>
          </Trackpoint>
          <Trackpoint>
            <Time>2022-06-16T15:21:18Z</Time>
            <Position>
              <LatitudeDegrees>36.8152020</LatitudeDegrees>
              <LongitudeDegrees>-4.3650800</LongitudeDegrees>
            </Position>
            <AltitudeMeters>899.8</AltitudeMeters>
            <DistanceMeters>NAN</DistanceMeters>
          </Trackpoint>
          <Trackpoint>
            <Time>2022-06-16T15:21:33Z</Time>
            <Position>
              <LatitudeDegrees>36.8150760</LatitudeDegrees>
              <LongitudeDegrees>-4.3652470</LongitudeDegrees>
            </Position>
            <AltitudeMeters>900.7</AltitudeMeters>
            <DistanceMeters>NAN</DistanceMeters>
          </Trackpoint>
          <Trackpoint>
            <Time>2022-06-16T15:21:48Z</Time>
            <Position>
              <LatitudeDegrees>36.8149430</LatitudeDegrees>
              <LongitudeDegrees>-4.3654110</LongitudeDegrees>
            </Position>
            <AltitudeMeters>901.5</AltitudeMeters>
            <DistanceMeters>NAN</DistanceMeters>
          </Trackpoint>
          <Trackpoint>
            <Time>2022-06-16T15:21:50Z</Time>
            <Position>
              <LatitudeDegrees>36.8149250</LatitudeDegrees>
              <LongitudeDegrees>-4.3654260</LongitudeDegrees>
            </Position>
            <AltitudeMeters>901.6</AltitudeMeters>
            <DistanceMeters>NAN</DistanceMeters>
          </Trackpoint>
          <Trackpoint>
            <Time>2022-06-16T15:21:51Z</Time>
            <Position>
              <LatitudeDegrees>36.8149160</LatitudeDegrees>
              <LongitudeDegrees>-4.3654350</LongitudeDegrees>
            </Position>
            <AltitudeMeters>901.6</AltitudeMeters>
            <DistanceMeters>NAN</DistanceMeters>
          </Trackpoint>
          <Trackpoint>
            <Time>2022-06-16T15:21:53Z</Time>
            <Position>
              <LatitudeDegrees>36.8148970</LatitudeDegrees>
              <LongitudeDegrees>-4.3654500</LongitudeDegrees>
            </Position>
            <AltitudeMeters>901.7</AltitudeMeters>
            <DistanceMeters>NAN</DistanceMeters>
          </Trackpoint>
          <Trackpoint>
            <Time>2022-06-16T15:21:54Z</Time>
            <Position>
              <LatitudeDegrees>36.8148870</LatitudeDegrees>
              <LongitudeDegrees>-4.3654580</LongitudeDegrees>
            </Position>
            <AltitudeMeters>901.8</AltitudeMeters>
            <DistanceMeters>NAN</DistanceMeters>
          </Trackpoint>
          <Trackpoint>
            <Time>2022-06-16T15:22:08Z</Time>
            <Position>
              <LatitudeDegrees>36.8147640</LatitudeDegrees>
              <LongitudeDegrees>-4.3656240</LongitudeDegrees>
            </Position>
            <AltitudeMeters>902.5</AltitudeMeters>
            <DistanceMeters>NAN</DistanceMeters>
          </Trackpoint>
          <Trackpoint>
            <Time>2022-06-16T15:22:23Z</Time>
            <Position>
              <LatitudeDegrees>36.8146430</LatitudeDegrees>
              <LongitudeDegrees>-4.3658070</LongitudeDegrees>
            </Position>
            <AltitudeMeters>903.2</AltitudeMeters>
            <DistanceMeters>NAN</DistanceMeters>
          </Trackpoint>
          <Trackpoint>
            <Time>2022-06-16T15:22:37Z</Time>
            <Position>
              <LatitudeDegrees>36.8145400</LatitudeDegrees>
              <LongitudeDegrees>-4.3660000</LongitudeDegrees>
            </Position>
            <AltitudeMeters>904.0</AltitudeMeters>
            <DistanceMeters>NAN</DistanceMeters>
          </Trackpoint>
          <Trackpoint>
            <Time>2022-06-16T15:22:51Z</Time>
            <Position>
              <LatitudeDegrees>36.8144570</LatitudeDegrees>
              <LongitudeDegrees>-4.3661960</LongitudeDegrees>
            </Position>
            <AltitudeMeters>904.8</AltitudeMeters>
            <DistanceMeters>NAN</DistanceMeters>
          </Trackpoint>
          <Trackpoint>
            <Time>2022-06-16T15:23:02Z</Time>
            <Position>
              <LatitudeDegrees>36.8144060</LatitudeDegrees>
              <LongitudeDegrees>-4.3663400</LongitudeDegrees>
            </Position>
            <AltitudeMeters>905.5</AltitudeMeters>
            <DistanceMeters>NAN</DistanceMeters>
          </Trackpoint>
          <Trackpoint>
            <Time>2022-06-16T15:23:10Z</Time>
            <Position>
              <LatitudeDegrees>36.8143720</LatitudeDegrees>
              <LongitudeDegrees>-4.3664600</LongitudeDegrees>
            </Position>
            <AltitudeMeters>906.1</AltitudeMeters>
            <DistanceMeters>NAN</DistanceMeters>
          </Trackpoint>
          <Trackpoint>
            <Time>2022-06-16T15:23:25Z</Time>
            <Position>
              <LatitudeDegrees>36.8142660</LatitudeDegrees>
              <LongitudeDegrees>-4.3666370</LongitudeDegrees>
            </Position>
            <AltitudeMeters>907.2</AltitudeMeters>
            <DistanceMeters>NAN</DistanceMeters>
          </Trackpoint>
          <Trackpoint>
            <Time>2022-06-16T15:23:48Z</Time>
            <Position>
              <LatitudeDegrees>36.8141140</LatitudeDegrees>
              <LongitudeDegrees>-4.3666680</LongitudeDegrees>
            </Position>
            <AltitudeMeters>908.2</AltitudeMeters>
            <DistanceMeters>NAN</DistanceMeters>
          </Trackpoint>
          <Trackpoint>
            <Time>2022-06-16T15:24:03Z</Time>
            <Position>
              <LatitudeDegrees>36.8139400</LatitudeDegrees>
              <LongitudeDegrees>-4.3667510</LongitudeDegrees>
            </Position>
            <AltitudeMeters>909.0</AltitudeMeters>
            <DistanceMeters>NAN</DistanceMeters>
          </Trackpoint>
          <Trackpoint>
            <Time>2022-06-16T15:24:20Z</Time>
            <Position>
              <LatitudeDegrees>36.8137740</LatitudeDegrees>
              <LongitudeDegrees>-4.3668410</LongitudeDegrees>
            </Position>
            <AltitudeMeters>909.7</AltitudeMeters>
            <DistanceMeters>NAN</DistanceMeters>
          </Trackpoint>
          <Trackpoint>
            <Time>2022-06-16T15:24:29Z</Time>
            <Position>
              <LatitudeDegrees>36.8136840</LatitudeDegrees>
              <LongitudeDegrees>-4.3668980</LongitudeDegrees>
            </Position>
            <AltitudeMeters>910.0</AltitudeMeters>
            <DistanceMeters>NAN</DistanceMeters>
          </Trackpoint>
          <Trackpoint>
            <Time>2022-06-16T15:24:32Z</Time>
            <Position>
              <LatitudeDegrees>36.8136540</LatitudeDegrees>
              <LongitudeDegrees>-4.3669320</LongitudeDegrees>
            </Position>
            <AltitudeMeters>910.1</AltitudeMeters>
            <DistanceMeters>NAN</DistanceMeters>
          </Trackpoint>
          <Trackpoint>
            <Time>2022-06-16T15:24:33Z</Time>
            <Position>
              <LatitudeDegrees>36.8136420</LatitudeDegrees>
              <LongitudeDegrees>-4.3669370</LongitudeDegrees>
            </Position>
            <AltitudeMeters>910.2</AltitudeMeters>
            <DistanceMeters>NAN</DistanceMeters>
          </Trackpoint>
          <Trackpoint>
            <Time>2022-06-16T15:24:34Z</Time>
            <Position>
              <LatitudeDegrees>36.8136320</LatitudeDegrees>
              <LongitudeDegrees>-4.3669460</LongitudeDegrees>
            </Position>
            <AltitudeMeters>910.2</AltitudeMeters>
            <DistanceMeters>NAN</DistanceMeters>
          </Trackpoint>
          <Trackpoint>
            <Time>2022-06-16T15:24:37Z</Time>
            <Position>
              <LatitudeDegrees>36.8136030</LatitudeDegrees>
              <LongitudeDegrees>-4.3669770</LongitudeDegrees>
            </Position>
            <AltitudeMeters>910.3</AltitudeMeters>
            <DistanceMeters>NAN</DistanceMeters>
          </Trackpoint>
          <Trackpoint>
            <Time>2022-06-16T15:24:39Z</Time>
            <Position>
              <LatitudeDegrees>36.8135860</LatitudeDegrees>
              <LongitudeDegrees>-4.3669980</LongitudeDegrees>
            </Position>
            <AltitudeMeters>910.4</AltitudeMeters>
            <DistanceMeters>NAN</DistanceMeters>
          </Trackpoint>
          <Trackpoint>
            <Time>2022-06-16T15:24:40Z</Time>
            <Position>
              <LatitudeDegrees>36.8135740</LatitudeDegrees>
              <LongitudeDegrees>-4.3670010</LongitudeDegrees>
            </Position>
            <AltitudeMeters>910.5</AltitudeMeters>
            <DistanceMeters>NAN</DistanceMeters>
          </Trackpoint>
          <Trackpoint>
            <Time>2022-06-16T15:24:41Z</Time>
            <Position>
              <LatitudeDegrees>36.8135630</LatitudeDegrees>
              <LongitudeDegrees>-4.3670040</LongitudeDegrees>
            </Position>
            <AltitudeMeters>910.5</AltitudeMeters>
            <DistanceMeters>NAN</DistanceMeters>
          </Trackpoint>
          <Trackpoint>
            <Time>2022-06-16T15:24:45Z</Time>
            <Position>
              <LatitudeDegrees>36.8135230</LatitudeDegrees>
              <LongitudeDegrees>-4.3670400</LongitudeDegrees>
            </Position>
            <AltitudeMeters>910.7</AltitudeMeters>
            <DistanceMeters>NAN</DistanceMeters>
          </Trackpoint>
          <Trackpoint>
            <Time>2022-06-16T15:24:47Z</Time>
            <Position>
              <LatitudeDegrees>36.8135110</LatitudeDegrees>
              <LongitudeDegrees>-4.3670760</LongitudeDegrees>
            </Position>
            <AltitudeMeters>910.8</AltitudeMeters>
            <DistanceMeters>NAN</DistanceMeters>
          </Trackpoint>
          <Trackpoint>
            <Time>2022-06-16T15:24:54Z</Time>
            <Position>
              <LatitudeDegrees>36.8134590</LatitudeDegrees>
              <LongitudeDegrees>-4.3671800</LongitudeDegrees>
            </Position>
            <AltitudeMeters>911.1</AltitudeMeters>
            <DistanceMeters>NAN</DistanceMeters>
          </Trackpoint>
          <Trackpoint>
            <Time>2022-06-16T15:25:05Z</Time>
            <Position>
              <LatitudeDegrees>36.8133610</LatitudeDegrees>
              <LongitudeDegrees>-4.3672880</LongitudeDegrees>
            </Position>
            <AltitudeMeters>911.6</AltitudeMeters>
            <DistanceMeters>NAN</DistanceMeters>
          </Trackpoint>
          <Trackpoint>
            <Time>2022-06-16T15:25:07Z</Time>
            <Position>
              <LatitudeDegrees>36.8133430</LatitudeDegrees>
              <LongitudeDegrees>-4.3673090</LongitudeDegrees>
            </Position>
            <AltitudeMeters>911.7</AltitudeMeters>
            <DistanceMeters>NAN</DistanceMeters>
          </Trackpoint>
          <Trackpoint>
            <Time>2022-06-16T15:25:10Z</Time>
            <Position>
              <LatitudeDegrees>36.8133140</LatitudeDegrees>
              <LongitudeDegrees>-4.3673350</LongitudeDegrees>
            </Position>
            <AltitudeMeters>911.8</AltitudeMeters>
            <DistanceMeters>NAN</DistanceMeters>
          </Trackpoint>
          <Trackpoint>
            <Time>2022-06-16T15:25:12Z</Time>
            <Position>
              <LatitudeDegrees>36.8132920</LatitudeDegrees>
              <LongitudeDegrees>-4.3673500</LongitudeDegrees>
            </Position>
            <AltitudeMeters>911.9</AltitudeMeters>
            <DistanceMeters>NAN</DistanceMeters>
          </Trackpoint>
          <Trackpoint>
            <Time>2022-06-16T15:25:14Z</Time>
            <Position>
              <LatitudeDegrees>36.8132720</LatitudeDegrees>
              <LongitudeDegrees>-4.3673670</LongitudeDegrees>
            </Position>
            <AltitudeMeters>912.0</AltitudeMeters>
            <DistanceMeters>NAN</DistanceMeters>
          </Trackpoint>
          <Trackpoint>
            <Time>2022-06-16T15:25:15Z</Time>
            <Position>
              <LatitudeDegrees>36.8132620</LatitudeDegrees>
              <LongitudeDegrees>-4.3673750</LongitudeDegrees>
            </Position>
            <AltitudeMeters>912.0</AltitudeMeters>
            <DistanceMeters>NAN</DistanceMeters>
          </Trackpoint>
          <Trackpoint>
            <Time>2022-06-16T15:25:17Z</Time>
            <Position>
              <LatitudeDegrees>36.8132400</LatitudeDegrees>
              <LongitudeDegrees>-4.3673910</LongitudeDegrees>
            </Position>
            <AltitudeMeters>912.1</AltitudeMeters>
            <DistanceMeters>NAN</DistanceMeters>
          </Trackpoint>
          <Trackpoint>
            <Time>2022-06-16T15:25:18Z</Time>
            <Position>
              <LatitudeDegrees>36.8132310</LatitudeDegrees>
              <LongitudeDegrees>-4.3673990</LongitudeDegrees>
            </Position>
            <AltitudeMeters>912.1</AltitudeMeters>
            <DistanceMeters>NAN</DistanceMeters>
          </Trackpoint>
          <Trackpoint>
            <Time>2022-06-16T15:25:19Z</Time>
            <Position>
              <LatitudeDegrees>36.8132210</LatitudeDegrees>
              <LongitudeDegrees>-4.3674070</LongitudeDegrees>
            </Position>
            <AltitudeMeters>912.2</AltitudeMeters>
            <DistanceMeters>NAN</DistanceMeters>
          </Trackpoint>
          <Trackpoint>
            <Time>2022-06-16T15:25:23Z</Time>
            <Position>
              <LatitudeDegrees>36.8131840</LatitudeDegrees>
              <LongitudeDegrees>-4.3674410</LongitudeDegrees>
            </Position>
            <AltitudeMeters>912.3</AltitudeMeters>
            <DistanceMeters>NAN</DistanceMeters>
          </Trackpoint>
          <Trackpoint>
            <Time>2022-06-16T15:25:24Z</Time>
            <Position>
              <LatitudeDegrees>36.8131710</LatitudeDegrees>
              <LongitudeDegrees>-4.3674490</LongitudeDegrees>
            </Position>
            <AltitudeMeters>912.4</AltitudeMeters>
            <DistanceMeters>NAN</DistanceMeters>
          </Trackpoint>
          <Trackpoint>
            <Time>2022-06-16T15:25:25Z</Time>
            <Position>
              <LatitudeDegrees>36.8131620</LatitudeDegrees>
              <LongitudeDegrees>-4.3674570</LongitudeDegrees>
            </Position>
            <AltitudeMeters>912.4</AltitudeMeters>
            <DistanceMeters>NAN</DistanceMeters>
          </Trackpoint>
          <Trackpoint>
            <Time>2022-06-16T15:25:26Z</Time>
            <Position>
              <LatitudeDegrees>36.8131510</LatitudeDegrees>
              <LongitudeDegrees>-4.3674640</LongitudeDegrees>
            </Position>
            <AltitudeMeters>912.4</AltitudeMeters>
            <DistanceMeters>NAN</DistanceMeters>
          </Trackpoint>
          <Trackpoint>
            <Time>2022-06-16T15:25:27Z</Time>
            <Position>
              <LatitudeDegrees>36.8131400</LatitudeDegrees>
              <LongitudeDegrees>-4.3674720</LongitudeDegrees>
            </Position>
            <AltitudeMeters>912.5</AltitudeMeters>
            <DistanceMeters>NAN</DistanceMeters>
          </Trackpoint>
          <Trackpoint>
            <Time>2022-06-16T15:25:41Z</Time>
            <Position>
              <LatitudeDegrees>36.8129750</LatitudeDegrees>
              <LongitudeDegrees>-4.3675860</LongitudeDegrees>
            </Position>
            <AltitudeMeters>912.8</AltitudeMeters>
            <DistanceMeters>NAN</DistanceMeters>
          </Trackpoint>
          <Trackpoint>
            <Time>2022-06-16T15:25:56Z</Time>
            <Position>
              <LatitudeDegrees>36.8128150</LatitudeDegrees>
              <LongitudeDegrees>-4.3677210</LongitudeDegrees>
            </Position>
            <AltitudeMeters>913.2</AltitudeMeters>
            <DistanceMeters>NAN</DistanceMeters>
          </Trackpoint>
          <Trackpoint>
            <Time>2022-06-16T15:26:11Z</Time>
            <Position>
              <LatitudeDegrees>36.8126990</LatitudeDegrees>
              <LongitudeDegrees>-4.3679080</LongitudeDegrees>
            </Position>
            <AltitudeMeters>913.5</AltitudeMeters>
            <DistanceMeters>NAN</DistanceMeters>
          </Trackpoint>
          <Trackpoint>
            <Time>2022-06-16T15:26:27Z</Time>
            <Position>
              <LatitudeDegrees>36.8125960</LatitudeDegrees>
              <LongitudeDegrees>-4.3681050</LongitudeDegrees>
            </Position>
            <AltitudeMeters>913.8</AltitudeMeters>
            <DistanceMeters>NAN</DistanceMeters>
          </Trackpoint>
          <Trackpoint>
            <Time>2022-06-16T15:26:51Z</Time>
            <Position>
              <LatitudeDegrees>36.8125210</LatitudeDegrees>
              <LongitudeDegrees>-4.3682450</LongitudeDegrees>
            </Position>
            <AltitudeMeters>914.0</AltitudeMeters>
            <DistanceMeters>NAN</DistanceMeters>
          </Trackpoint>
          <Trackpoint>
            <Time>2022-06-16T15:27:07Z</Time>
            <Position>
              <LatitudeDegrees>36.8124370</LatitudeDegrees>
              <LongitudeDegrees>-4.3684570</LongitudeDegrees>
            </Position>
            <AltitudeMeters>914.3</AltitudeMeters>
            <DistanceMeters>NAN</DistanceMeters>
          </Trackpoint>
          <Trackpoint>
            <Time>2022-06-16T15:27:22Z</Time>
            <Position>
              <LatitudeDegrees>36.8123510</LatitudeDegrees>
              <LongitudeDegrees>-4.3686480</LongitudeDegrees>
            </Position>
            <AltitudeMeters>914.7</AltitudeMeters>
            <DistanceMeters>NAN</DistanceMeters>
          </Trackpoint>
          <Trackpoint>
            <Time>2022-06-16T15:27:33Z</Time>
            <Position>
              <LatitudeDegrees>36.8122740</LatitudeDegrees>
              <LongitudeDegrees>-4.3688290</LongitudeDegrees>
            </Position>
            <AltitudeMeters>915.1</AltitudeMeters>
            <DistanceMeters>NAN</DistanceMeters>
          </Trackpoint>
          <Trackpoint>
            <Time>2022-06-16T15:27:45Z</Time>
            <Position>
              <LatitudeDegrees>36.8121500</LatitudeDegrees>
              <LongitudeDegrees>-4.3689630</LongitudeDegrees>
            </Position>
            <AltitudeMeters>915.2</AltitudeMeters>
            <DistanceMeters>NAN</DistanceMeters>
          </Trackpoint>
          <Trackpoint>
            <Time>2022-06-16T15:27:50Z</Time>
            <Position>
              <LatitudeDegrees>36.8120900</LatitudeDegrees>
              <LongitudeDegrees>-4.3689640</LongitudeDegrees>
            </Position>
            <AltitudeMeters>915.2</AltitudeMeters>
            <DistanceMeters>NAN</DistanceMeters>
          </Trackpoint>
          <Trackpoint>
            <Time>2022-06-16T15:28:04Z</Time>
            <Position>
              <LatitudeDegrees>36.8119040</LatitudeDegrees>
              <LongitudeDegrees>-4.3689640</LongitudeDegrees>
            </Position>
            <AltitudeMeters>915.0</AltitudeMeters>
            <DistanceMeters>NAN</DistanceMeters>
          </Trackpoint>
          <Trackpoint>
            <Time>2022-06-16T15:28:07Z</Time>
            <Position>
              <LatitudeDegrees>36.8118590</LatitudeDegrees>
              <LongitudeDegrees>-4.3689650</LongitudeDegrees>
            </Position>
            <AltitudeMeters>915.0</AltitudeMeters>
            <DistanceMeters>NAN</DistanceMeters>
          </Trackpoint>
          <Trackpoint>
            <Time>2022-06-16T15:28:19Z</Time>
            <Position>
              <LatitudeDegrees>36.8117450</LatitudeDegrees>
              <LongitudeDegrees>-4.3689350</LongitudeDegrees>
            </Position>
            <AltitudeMeters>914.8</AltitudeMeters>
            <DistanceMeters>NAN</DistanceMeters>
          </Trackpoint>
          <Trackpoint>
            <Time>2022-06-16T15:28:34Z</Time>
            <Position>
              <LatitudeDegrees>36.8115790</LatitudeDegrees>
              <LongitudeDegrees>-4.3690440</LongitudeDegrees>
            </Position>
            <AltitudeMeters>914.5</AltitudeMeters>
            <DistanceMeters>NAN</DistanceMeters>
          </Trackpoint>
          <Trackpoint>
            <Time>2022-06-16T15:28:40Z</Time>
            <Position>
              <LatitudeDegrees>36.8115120</LatitudeDegrees>
              <LongitudeDegrees>-4.3691070</LongitudeDegrees>
            </Position>
            <AltitudeMeters>914.3</AltitudeMeters>
            <DistanceMeters>NAN</DistanceMeters>
          </Trackpoint>
          <Trackpoint>
            <Time>2022-06-16T15:28:43Z</Time>
            <Position>
              <LatitudeDegrees>36.8114920</LatitudeDegrees>
              <LongitudeDegrees>-4.3691480</LongitudeDegrees>
            </Position>
            <AltitudeMeters>914.3</AltitudeMeters>
            <DistanceMeters>NAN</DistanceMeters>
          </Trackpoint>
          <Trackpoint>
            <Time>2022-06-16T15:28:49Z</Time>
            <Position>
              <LatitudeDegrees>36.8114520</LatitudeDegrees>
              <LongitudeDegrees>-4.3692250</LongitudeDegrees>
            </Position>
            <AltitudeMeters>914.1</AltitudeMeters>
            <DistanceMeters>NAN</DistanceMeters>
          </Trackpoint>
          <Trackpoint>
            <Time>2022-06-16T15:29:03Z</Time>
            <Position>
              <LatitudeDegrees>36.8113880</LatitudeDegrees>
              <LongitudeDegrees>-4.3694280</LongitudeDegrees>
            </Position>
            <AltitudeMeters>913.6</AltitudeMeters>
            <DistanceMeters>NAN</DistanceMeters>
          </Trackpoint>
          <Trackpoint>
            <Time>2022-06-16T15:29:06Z</Time>
            <Position>
              <LatitudeDegrees>36.8113820</LatitudeDegrees>
              <LongitudeDegrees>-4.3694610</LongitudeDegrees>
            </Position>
            <AltitudeMeters>913.5</AltitudeMeters>
            <DistanceMeters>NAN</DistanceMeters>
          </Trackpoint>
          <Trackpoint>
            <Time>2022-06-16T15:29:22Z</Time>
            <Position>
              <LatitudeDegrees>36.8113900</LatitudeDegrees>
              <LongitudeDegrees>-4.3697030</LongitudeDegrees>
            </Position>
            <AltitudeMeters>912.9</AltitudeMeters>
            <DistanceMeters>NAN</DistanceMeters>
          </Trackpoint>
          <Trackpoint>
            <Time>2022-06-16T15:29:35Z</Time>
            <Position>
              <LatitudeDegrees>36.8113890</LatitudeDegrees>
              <LongitudeDegrees>-4.3699350</LongitudeDegrees>
            </Position>
            <AltitudeMeters>912.3</AltitudeMeters>
            <DistanceMeters>NAN</DistanceMeters>
          </Trackpoint>
          <Trackpoint>
            <Time>2022-06-16T15:29:49Z</Time>
            <Position>
              <LatitudeDegrees>36.8114100</LatitudeDegrees>
              <LongitudeDegrees>-4.3701680</LongitudeDegrees>
            </Position>
            <AltitudeMeters>911.8</AltitudeMeters>
            <DistanceMeters>NAN</DistanceMeters>
          </Trackpoint>
          <Trackpoint>
            <Time>2022-06-16T15:30:02Z</Time>
            <Position>
              <LatitudeDegrees>36.8114640</LatitudeDegrees>
              <LongitudeDegrees>-4.3703900</LongitudeDegrees>
            </Position>
            <AltitudeMeters>911.3</AltitudeMeters>
            <DistanceMeters>NAN</DistanceMeters>
          </Trackpoint>
          <Trackpoint>
            <Time>2022-06-16T15:30:16Z</Time>
            <Position>
              <LatitudeDegrees>36.8115430</LatitudeDegrees>
              <LongitudeDegrees>-4.3705630</LongitudeDegrees>
            </Position>
            <AltitudeMeters>911.1</AltitudeMeters>
            <DistanceMeters>NAN</DistanceMeters>
          </Trackpoint>
          <Trackpoint>
            <Time>2022-06-16T15:30:32Z</Time>
            <Position>
              <LatitudeDegrees>36.8115460</LatitudeDegrees>
              <LongitudeDegrees>-4.3707550</LongitudeDegrees>
            </Position>
            <AltitudeMeters>910.8</AltitudeMeters>
            <DistanceMeters>NAN</DistanceMeters>
          </Trackpoint>
          <Trackpoint>
            <Time>2022-06-16T15:30:46Z</Time>
            <Position>
              <LatitudeDegrees>36.8114590</LatitudeDegrees>
              <LongitudeDegrees>-4.3709550</LongitudeDegrees>
            </Position>
            <AltitudeMeters>910.7</AltitudeMeters>
            <DistanceMeters>NAN</DistanceMeters>
          </Trackpoint>
          <Trackpoint>
            <Time>2022-06-16T15:31:01Z</Time>
            <Position>
              <LatitudeDegrees>36.8113740</LatitudeDegrees>
              <LongitudeDegrees>-4.3711700</LongitudeDegrees>
            </Position>
            <AltitudeMeters>910.5</AltitudeMeters>
            <DistanceMeters>NAN</DistanceMeters>
          </Trackpoint>
          <Trackpoint>
            <Time>2022-06-16T15:31:15Z</Time>
            <Position>
              <LatitudeDegrees>36.8113690</LatitudeDegrees>
              <LongitudeDegrees>-4.3713940</LongitudeDegrees>
            </Position>
            <AltitudeMeters>910.3</AltitudeMeters>
            <DistanceMeters>NAN</DistanceMeters>
          </Trackpoint>
          <Trackpoint>
            <Time>2022-06-16T15:31:30Z</Time>
            <Position>
              <LatitudeDegrees>36.8114540</LatitudeDegrees>
              <LongitudeDegrees>-4.3715900</LongitudeDegrees>
            </Position>
            <AltitudeMeters>910.0</AltitudeMeters>
            <DistanceMeters>NAN</DistanceMeters>
          </Trackpoint>
          <Trackpoint>
            <Time>2022-06-16T15:31:44Z</Time>
            <Position>
              <LatitudeDegrees>36.8115870</LatitudeDegrees>
              <LongitudeDegrees>-4.3716980</LongitudeDegrees>
            </Position>
            <AltitudeMeters>909.8</AltitudeMeters>
            <DistanceMeters>NAN</DistanceMeters>
          </Trackpoint>
          <Trackpoint>
            <Time>2022-06-16T15:31:51Z</Time>
            <Position>
              <LatitudeDegrees>36.8116530</LatitudeDegrees>
              <LongitudeDegrees>-4.3717280</LongitudeDegrees>
            </Position>
            <AltitudeMeters>909.7</AltitudeMeters>
            <DistanceMeters>NAN</DistanceMeters>
          </Trackpoint>
          <Trackpoint>
            <Time>2022-06-16T15:31:56Z</Time>
            <Position>
              <LatitudeDegrees>36.8117070</LatitudeDegrees>
              <LongitudeDegrees>-4.3717390</LongitudeDegrees>
            </Position>
            <AltitudeMeters>909.6</AltitudeMeters>
            <DistanceMeters>NAN</DistanceMeters>
          </Trackpoint>
          <Trackpoint>
            <Time>2022-06-16T15:32:12Z</Time>
            <Position>
              <LatitudeDegrees>36.8118850</LatitudeDegrees>
              <LongitudeDegrees>-4.3717680</LongitudeDegrees>
            </Position>
            <AltitudeMeters>909.3</AltitudeMeters>
            <DistanceMeters>NAN</DistanceMeters>
          </Trackpoint>
          <Trackpoint>
            <Time>2022-06-16T15:32:27Z</Time>
            <Position>
              <LatitudeDegrees>36.8120650</LatitudeDegrees>
              <LongitudeDegrees>-4.3717770</LongitudeDegrees>
            </Position>
            <AltitudeMeters>909.1</AltitudeMeters>
            <DistanceMeters>NAN</DistanceMeters>
          </Trackpoint>
          <Trackpoint>
            <Time>2022-06-16T15:32:39Z</Time>
            <Position>
              <LatitudeDegrees>36.8121980</LatitudeDegrees>
              <LongitudeDegrees>-4.3717860</LongitudeDegrees>
            </Position>
            <AltitudeMeters>909.1</AltitudeMeters>
            <DistanceMeters>NAN</DistanceMeters>
          </Trackpoint>
          <Trackpoint>
            <Time>2022-06-16T15:32:43Z</Time>
            <Position>
              <LatitudeDegrees>36.8122390</LatitudeDegrees>
              <LongitudeDegrees>-4.3717960</LongitudeDegrees>
            </Position>
            <AltitudeMeters>909.0</AltitudeMeters>
            <DistanceMeters>NAN</DistanceMeters>
          </Trackpoint>
          <Trackpoint>
            <Time>2022-06-16T15:32:56Z</Time>
            <Position>
              <LatitudeDegrees>36.8124220</LatitudeDegrees>
              <LongitudeDegrees>-4.3718160</LongitudeDegrees>
            </Position>
            <AltitudeMeters>909.0</AltitudeMeters>
            <DistanceMeters>NAN</DistanceMeters>
          </Trackpoint>
          <Trackpoint>
            <Time>2022-06-16T15:33:06Z</Time>
            <Position>
              <LatitudeDegrees>36.8125470</LatitudeDegrees>
              <LongitudeDegrees>-4.3718510</LongitudeDegrees>
            </Position>
            <AltitudeMeters>908.9</AltitudeMeters>
            <DistanceMeters>NAN</DistanceMeters>
          </Trackpoint>
          <Trackpoint>
            <Time>2022-06-16T15:33:19Z</Time>
            <Position>
              <LatitudeDegrees>36.8127130</LatitudeDegrees>
              <LongitudeDegrees>-4.3718870</LongitudeDegrees>
            </Position>
            <AltitudeMeters>908.6</AltitudeMeters>
            <DistanceMeters>NAN</DistanceMeters>
          </Trackpoint>
          <Trackpoint>
            <Time>2022-06-16T15:33:37Z</Time>
            <Position>
              <LatitudeDegrees>36.8128920</LatitudeDegrees>
              <LongitudeDegrees>-4.3719030</LongitudeDegrees>
            </Position>
            <AltitudeMeters>908.0</AltitudeMeters>
            <DistanceMeters>NAN</DistanceMeters>
          </Trackpoint>
          <Trackpoint>
            <Time>2022-06-16T15:33:51Z</Time>
            <Position>
              <LatitudeDegrees>36.8130460</LatitudeDegrees>
              <LongitudeDegrees>-4.3720170</LongitudeDegrees>
            </Position>
            <AltitudeMeters>907.2</AltitudeMeters>
            <DistanceMeters>NAN</DistanceMeters>
          </Trackpoint>
          <Trackpoint>
            <Time>2022-06-16T15:34:03Z</Time>
            <Position>
              <LatitudeDegrees>36.8131080</LatitudeDegrees>
              <LongitudeDegrees>-4.3720570</LongitudeDegrees>
            </Position>
            <AltitudeMeters>906.9</AltitudeMeters>
            <DistanceMeters>NAN</DistanceMeters>
          </Trackpoint>
        </Track>
      </Lap>
    </Activity>
  </Activities>
</TrainingCenterDatabase>
